<?xml version="1.0" encoding="UTF-8" standalone="no" ?>
<gpx xmlns="http://www.topografix.com/GPX/1/1" xmlns:xsi="http://www.w3.org/2001/XMLSchema-instance" xsi:schemaLocation="http://www.topografix.com/GPX/1/1 http://www.topografix.com/GPX/1/1/gpx.xsd" version="1.1" creator="VisuGPX - https://www.visugpx.com">
  <metadata>
    <name>Grane Mirmande Marsanne</name>
  </metadata>
  <trk>
    <name><![CDATA[2021/07/10 08:20:43]]></name>
    <trkseg>
      <trkpt lat="44.75769" lon="4.92402">
        <ele>144.8</ele>
        <time>2021-07-10T06:20:43</time>
      </trkpt>
      <trkpt lat="44.7577" lon="4.92398">
        <ele>145.2</ele>
        <time>2021-07-10T06:20:44</time>
      </trkpt>
      <trkpt lat="44.7577" lon="4.92395">
        <ele>145.4</ele>
        <time>2021-07-10T06:20:45</time>
      </trkpt>
      <trkpt lat="44.75771" lon="4.92391">
        <ele>145.6</ele>
        <time>2021-07-10T06:20:46</time>
      </trkpt>
      <trkpt lat="44.75771" lon="4.92387">
        <ele>145.6</ele>
        <time>2021-07-10T06:20:47</time>
      </trkpt>
      <trkpt lat="44.75772" lon="4.92379">
        <ele>145.2</ele>
        <time>2021-07-10T06:20:48</time>
      </trkpt>
      <trkpt lat="44.75772" lon="4.92379">
        <ele>145</ele>
        <time>2021-07-10T06:20:49</time>
      </trkpt>
      <trkpt lat="44.75772" lon="4.92376">
        <ele>144.8</ele>
        <time>2021-07-10T06:20:50</time>
      </trkpt>
      <trkpt lat="44.75773" lon="4.92374">
        <ele>144.8</ele>
        <time>2021-07-10T06:20:51</time>
      </trkpt>
      <trkpt lat="44.75775" lon="4.92371">
        <ele>144.6</ele>
        <time>2021-07-10T06:20:52</time>
      </trkpt>
      <trkpt lat="44.75777" lon="4.92364">
        <ele>144.6</ele>
        <time>2021-07-10T06:20:53</time>
      </trkpt>
      <trkpt lat="44.75777" lon="4.92364">
        <ele>144.6</ele>
        <time>2021-07-10T06:20:54</time>
      </trkpt>
      <trkpt lat="44.75777" lon="4.92357">
        <ele>144.6</ele>
        <time>2021-07-10T06:20:55</time>
      </trkpt>
      <trkpt lat="44.75777" lon="4.92357">
        <ele>144.4</ele>
        <time>2021-07-10T06:20:56</time>
      </trkpt>
      <trkpt lat="44.75778" lon="4.92352">
        <ele>144.4</ele>
        <time>2021-07-10T06:20:57</time>
      </trkpt>
      <trkpt lat="44.75778" lon="4.9235">
        <ele>144.2</ele>
        <time>2021-07-10T06:20:58</time>
      </trkpt>
      <trkpt lat="44.75778" lon="4.92344">
        <ele>144.2</ele>
        <time>2021-07-10T06:20:59</time>
      </trkpt>
      <trkpt lat="44.75778" lon="4.92344">
        <ele>144.4</ele>
        <time>2021-07-10T06:21:00</time>
      </trkpt>
      <trkpt lat="44.75778" lon="4.92332">
        <ele>144.4</ele>
        <time>2021-07-10T06:21:01</time>
      </trkpt>
      <trkpt lat="44.75778" lon="4.92332">
        <ele>144.4</ele>
        <time>2021-07-10T06:21:02</time>
      </trkpt>
      <trkpt lat="44.75778" lon="4.92328">
        <ele>144.4</ele>
        <time>2021-07-10T06:21:03</time>
      </trkpt>
      <trkpt lat="44.75778" lon="4.92328">
        <ele>144.4</ele>
        <time>2021-07-10T06:21:04</time>
      </trkpt>
      <trkpt lat="44.75779" lon="4.9232">
        <ele>144.2</ele>
        <time>2021-07-10T06:21:05</time>
      </trkpt>
      <trkpt lat="44.75779" lon="4.92315">
        <ele>144.2</ele>
        <time>2021-07-10T06:21:06</time>
      </trkpt>
      <trkpt lat="44.7578" lon="4.92312">
        <ele>144.2</ele>
        <time>2021-07-10T06:21:07</time>
      </trkpt>
      <trkpt lat="44.7578" lon="4.92312">
        <ele>144.2</ele>
        <time>2021-07-10T06:21:08</time>
      </trkpt>
      <trkpt lat="44.75779" lon="4.92304">
        <ele>144.4</ele>
        <time>2021-07-10T06:21:09</time>
      </trkpt>
      <trkpt lat="44.75779" lon="4.92301">
        <ele>144.4</ele>
        <time>2021-07-10T06:21:10</time>
      </trkpt>
      <trkpt lat="44.75779" lon="4.92295">
        <ele>144.4</ele>
        <time>2021-07-10T06:21:11</time>
      </trkpt>
      <trkpt lat="44.75779" lon="4.9229">
        <ele>144.4</ele>
        <time>2021-07-10T06:21:12</time>
      </trkpt>
      <trkpt lat="44.7578" lon="4.92287">
        <ele>144.4</ele>
        <time>2021-07-10T06:21:13</time>
      </trkpt>
      <trkpt lat="44.7578" lon="4.92283">
        <ele>144.4</ele>
        <time>2021-07-10T06:21:14</time>
      </trkpt>
      <trkpt lat="44.75779" lon="4.92277">
        <ele>144.4</ele>
        <time>2021-07-10T06:21:15</time>
      </trkpt>
      <trkpt lat="44.7578" lon="4.92274">
        <ele>144.4</ele>
        <time>2021-07-10T06:21:16</time>
      </trkpt>
      <trkpt lat="44.7578" lon="4.92274">
        <ele>144.4</ele>
        <time>2021-07-10T06:21:17</time>
      </trkpt>
      <trkpt lat="44.7578" lon="4.92269">
        <ele>144.4</ele>
        <time>2021-07-10T06:21:18</time>
      </trkpt>
      <trkpt lat="44.7578" lon="4.92265">
        <ele>144.4</ele>
        <time>2021-07-10T06:21:19</time>
      </trkpt>
      <trkpt lat="44.7578" lon="4.92258">
        <ele>144.4</ele>
        <time>2021-07-10T06:21:20</time>
      </trkpt>
      <trkpt lat="44.7578" lon="4.92258">
        <ele>144.4</ele>
        <time>2021-07-10T06:21:21</time>
      </trkpt>
      <trkpt lat="44.7578" lon="4.92255">
        <ele>144.4</ele>
        <time>2021-07-10T06:21:22</time>
      </trkpt>
      <trkpt lat="44.75779" lon="4.92252">
        <ele>144.4</ele>
        <time>2021-07-10T06:21:23</time>
      </trkpt>
      <trkpt lat="44.7578" lon="4.92245">
        <ele>144.4</ele>
        <time>2021-07-10T06:21:24</time>
      </trkpt>
      <trkpt lat="44.7578" lon="4.92245">
        <ele>144.4</ele>
        <time>2021-07-10T06:21:25</time>
      </trkpt>
      <trkpt lat="44.7578" lon="4.92241">
        <ele>144.4</ele>
        <time>2021-07-10T06:21:26</time>
      </trkpt>
      <trkpt lat="44.7578" lon="4.92241">
        <ele>144.4</ele>
        <time>2021-07-10T06:21:27</time>
      </trkpt>
      <trkpt lat="44.75779" lon="4.92237">
        <ele>144.4</ele>
        <time>2021-07-10T06:21:28</time>
      </trkpt>
      <trkpt lat="44.75778" lon="4.92232">
        <ele>144.2</ele>
        <time>2021-07-10T06:21:29</time>
      </trkpt>
      <trkpt lat="44.75778" lon="4.92228">
        <ele>144.2</ele>
        <time>2021-07-10T06:21:30</time>
      </trkpt>
      <trkpt lat="44.75778" lon="4.92224">
        <ele>144.4</ele>
        <time>2021-07-10T06:21:31</time>
      </trkpt>
      <trkpt lat="44.75778" lon="4.9222">
        <ele>144.4</ele>
        <time>2021-07-10T06:21:32</time>
      </trkpt>
      <trkpt lat="44.75777" lon="4.92217">
        <ele>144.4</ele>
        <time>2021-07-10T06:21:33</time>
      </trkpt>
      <trkpt lat="44.75777" lon="4.92214">
        <ele>144.4</ele>
        <time>2021-07-10T06:21:34</time>
      </trkpt>
      <trkpt lat="44.75777" lon="4.92212">
        <ele>144.2</ele>
        <time>2021-07-10T06:21:35</time>
      </trkpt>
      <trkpt lat="44.75775" lon="4.92208">
        <ele>144.2</ele>
        <time>2021-07-10T06:21:36</time>
      </trkpt>
      <trkpt lat="44.75775" lon="4.92208">
        <ele>144.2</ele>
        <time>2021-07-10T06:21:37</time>
      </trkpt>
      <trkpt lat="44.75774" lon="4.92204">
        <ele>144.2</ele>
        <time>2021-07-10T06:21:38</time>
      </trkpt>
      <trkpt lat="44.75775" lon="4.92203">
        <ele>144.2</ele>
        <time>2021-07-10T06:21:39</time>
      </trkpt>
      <trkpt lat="44.75775" lon="4.922">
        <ele>144.2</ele>
        <time>2021-07-10T06:21:40</time>
      </trkpt>
      <trkpt lat="44.75775" lon="4.92194">
        <ele>144.2</ele>
        <time>2021-07-10T06:21:41</time>
      </trkpt>
      <trkpt lat="44.75775" lon="4.92194">
        <ele>144.2</ele>
        <time>2021-07-10T06:21:42</time>
      </trkpt>
      <trkpt lat="44.75774" lon="4.92191">
        <ele>144.2</ele>
        <time>2021-07-10T06:21:43</time>
      </trkpt>
      <trkpt lat="44.75776" lon="4.92187">
        <ele>144.2</ele>
        <time>2021-07-10T06:21:44</time>
      </trkpt>
      <trkpt lat="44.75776" lon="4.92187">
        <ele>144.2</ele>
        <time>2021-07-10T06:21:45</time>
      </trkpt>
      <trkpt lat="44.75776" lon="4.9218">
        <ele>144.4</ele>
        <time>2021-07-10T06:21:46</time>
      </trkpt>
      <trkpt lat="44.75776" lon="4.9218">
        <ele>144.8</ele>
        <time>2021-07-10T06:21:47</time>
      </trkpt>
      <trkpt lat="44.75777" lon="4.92177">
        <ele>145.4</ele>
        <time>2021-07-10T06:21:48</time>
      </trkpt>
      <trkpt lat="44.75776" lon="4.92174">
        <ele>145.6</ele>
        <time>2021-07-10T06:21:49</time>
      </trkpt>
      <trkpt lat="44.75776" lon="4.92171">
        <ele>145.6</ele>
        <time>2021-07-10T06:21:50</time>
      </trkpt>
      <trkpt lat="44.75776" lon="4.92169">
        <ele>145.2</ele>
        <time>2021-07-10T06:21:51</time>
      </trkpt>
      <trkpt lat="44.75774" lon="4.92162">
        <ele>145</ele>
        <time>2021-07-10T06:21:52</time>
      </trkpt>
      <trkpt lat="44.75774" lon="4.92162">
        <ele>143.2</ele>
        <time>2021-07-10T06:21:53</time>
      </trkpt>
      <trkpt lat="44.75772" lon="4.92154">
        <ele>143.4</ele>
        <time>2021-07-10T06:21:54</time>
      </trkpt>
      <trkpt lat="44.75772" lon="4.92154">
        <ele>143.8</ele>
        <time>2021-07-10T06:21:55</time>
      </trkpt>
      <trkpt lat="44.75772" lon="4.9215">
        <ele>145.6</ele>
        <time>2021-07-10T06:21:56</time>
      </trkpt>
      <trkpt lat="44.75771" lon="4.92147">
        <ele>145.4</ele>
        <time>2021-07-10T06:21:57</time>
      </trkpt>
      <trkpt lat="44.75771" lon="4.92147">
        <ele>145.4</ele>
        <time>2021-07-10T06:21:58</time>
      </trkpt>
      <trkpt lat="44.75771" lon="4.92144">
        <ele>145</ele>
        <time>2021-07-10T06:21:59</time>
      </trkpt>
      <trkpt lat="44.75771" lon="4.92139">
        <ele>144.8</ele>
        <time>2021-07-10T06:22:00</time>
      </trkpt>
      <trkpt lat="44.75773" lon="4.92136">
        <ele>144.8</ele>
        <time>2021-07-10T06:22:01</time>
      </trkpt>
      <trkpt lat="44.75773" lon="4.92133">
        <ele>144.8</ele>
        <time>2021-07-10T06:22:02</time>
      </trkpt>
      <trkpt lat="44.75774" lon="4.92131">
        <ele>144.8</ele>
        <time>2021-07-10T06:22:03</time>
      </trkpt>
      <trkpt lat="44.75772" lon="4.9213">
        <ele>144.8</ele>
        <time>2021-07-10T06:22:04</time>
      </trkpt>
      <trkpt lat="44.75771" lon="4.92127">
        <ele>144.8</ele>
        <time>2021-07-10T06:22:05</time>
      </trkpt>
      <trkpt lat="44.75769" lon="4.92118">
        <ele>144.8</ele>
        <time>2021-07-10T06:22:06</time>
      </trkpt>
      <trkpt lat="44.75769" lon="4.92118">
        <ele>144.6</ele>
        <time>2021-07-10T06:22:07</time>
      </trkpt>
      <trkpt lat="44.75769" lon="4.92115">
        <ele>144.4</ele>
        <time>2021-07-10T06:22:08</time>
      </trkpt>
      <trkpt lat="44.75769" lon="4.92112">
        <ele>144.4</ele>
        <time>2021-07-10T06:22:09</time>
      </trkpt>
      <trkpt lat="44.75769" lon="4.92109">
        <ele>144.4</ele>
        <time>2021-07-10T06:22:10</time>
      </trkpt>
      <trkpt lat="44.75771" lon="4.92106">
        <ele>144.4</ele>
        <time>2021-07-10T06:22:11</time>
      </trkpt>
      <trkpt lat="44.75771" lon="4.92105">
        <ele>144.4</ele>
        <time>2021-07-10T06:22:12</time>
      </trkpt>
      <trkpt lat="44.75771" lon="4.92105">
        <ele>144.4</ele>
        <time>2021-07-10T06:22:13</time>
      </trkpt>
      <trkpt lat="44.7577" lon="4.92098">
        <ele>144.4</ele>
        <time>2021-07-10T06:22:14</time>
      </trkpt>
      <trkpt lat="44.75772" lon="4.92097">
        <ele>144.4</ele>
        <time>2021-07-10T06:22:15</time>
      </trkpt>
      <trkpt lat="44.75772" lon="4.92095">
        <ele>144.4</ele>
        <time>2021-07-10T06:22:16</time>
      </trkpt>
      <trkpt lat="44.75772" lon="4.9209">
        <ele>144.4</ele>
        <time>2021-07-10T06:22:17</time>
      </trkpt>
      <trkpt lat="44.75772" lon="4.92087">
        <ele>144.4</ele>
        <time>2021-07-10T06:22:18</time>
      </trkpt>
      <trkpt lat="44.75773" lon="4.92084">
        <ele>144.4</ele>
        <time>2021-07-10T06:22:19</time>
      </trkpt>
      <trkpt lat="44.75773" lon="4.9208">
        <ele>144.4</ele>
        <time>2021-07-10T06:22:20</time>
      </trkpt>
      <trkpt lat="44.75773" lon="4.92078">
        <ele>144.4</ele>
        <time>2021-07-10T06:22:21</time>
      </trkpt>
      <trkpt lat="44.75773" lon="4.92073">
        <ele>144.4</ele>
        <time>2021-07-10T06:22:22</time>
      </trkpt>
      <trkpt lat="44.75771" lon="4.92068">
        <ele>144.4</ele>
        <time>2021-07-10T06:22:23</time>
      </trkpt>
      <trkpt lat="44.75771" lon="4.92063">
        <ele>144.4</ele>
        <time>2021-07-10T06:22:24</time>
      </trkpt>
      <trkpt lat="44.75771" lon="4.92058">
        <ele>144.4</ele>
        <time>2021-07-10T06:22:25</time>
      </trkpt>
      <trkpt lat="44.7577" lon="4.92051">
        <ele>144.4</ele>
        <time>2021-07-10T06:22:26</time>
      </trkpt>
      <trkpt lat="44.7577" lon="4.92051">
        <ele>144.4</ele>
        <time>2021-07-10T06:22:27</time>
      </trkpt>
      <trkpt lat="44.75769" lon="4.92044">
        <ele>144.4</ele>
        <time>2021-07-10T06:22:28</time>
      </trkpt>
      <trkpt lat="44.75769" lon="4.92044">
        <ele>144.4</ele>
        <time>2021-07-10T06:22:29</time>
      </trkpt>
      <trkpt lat="44.75769" lon="4.92042">
        <ele>144.4</ele>
        <time>2021-07-10T06:22:30</time>
      </trkpt>
      <trkpt lat="44.75769" lon="4.92038">
        <ele>144.4</ele>
        <time>2021-07-10T06:22:31</time>
      </trkpt>
      <trkpt lat="44.7577" lon="4.92036">
        <ele>144.4</ele>
        <time>2021-07-10T06:22:32</time>
      </trkpt>
      <trkpt lat="44.75771" lon="4.92033">
        <ele>144.4</ele>
        <time>2021-07-10T06:22:33</time>
      </trkpt>
      <trkpt lat="44.75773" lon="4.92032">
        <ele>144.4</ele>
        <time>2021-07-10T06:22:34</time>
      </trkpt>
      <trkpt lat="44.75772" lon="4.92026">
        <ele>144.4</ele>
        <time>2021-07-10T06:22:35</time>
      </trkpt>
      <trkpt lat="44.75772" lon="4.92025">
        <ele>144.4</ele>
        <time>2021-07-10T06:22:36</time>
      </trkpt>
      <trkpt lat="44.75772" lon="4.92023">
        <ele>144.2</ele>
        <time>2021-07-10T06:22:37</time>
      </trkpt>
      <trkpt lat="44.75772" lon="4.92023">
        <ele>144.2</ele>
        <time>2021-07-10T06:22:38</time>
      </trkpt>
      <trkpt lat="44.75774" lon="4.92019">
        <ele>144</ele>
        <time>2021-07-10T06:22:39</time>
      </trkpt>
      <trkpt lat="44.75771" lon="4.92013">
        <ele>143.8</ele>
        <time>2021-07-10T06:22:40</time>
      </trkpt>
      <trkpt lat="44.75769" lon="4.92013">
        <ele>143.8</ele>
        <time>2021-07-10T06:22:41</time>
      </trkpt>
      <trkpt lat="44.7577" lon="4.92018">
        <ele>143.8</ele>
        <time>2021-07-10T06:22:42</time>
      </trkpt>
      <trkpt lat="44.7577" lon="4.92018">
        <ele>143.8</ele>
        <time>2021-07-10T06:22:43</time>
      </trkpt>
      <trkpt lat="44.75771" lon="4.92022">
        <ele>143.8</ele>
        <time>2021-07-10T06:22:44</time>
      </trkpt>
      <trkpt lat="44.75771" lon="4.92024">
        <ele>144</ele>
        <time>2021-07-10T06:22:45</time>
      </trkpt>
      <trkpt lat="44.75771" lon="4.9203">
        <ele>144</ele>
        <time>2021-07-10T06:22:46</time>
      </trkpt>
      <trkpt lat="44.75771" lon="4.9203">
        <ele>144</ele>
        <time>2021-07-10T06:22:47</time>
      </trkpt>
      <trkpt lat="44.7577" lon="4.92032">
        <ele>144</ele>
        <time>2021-07-10T06:22:48</time>
      </trkpt>
      <trkpt lat="44.7577" lon="4.92037">
        <ele>144</ele>
        <time>2021-07-10T06:22:49</time>
      </trkpt>
      <trkpt lat="44.75769" lon="4.92039">
        <ele>144</ele>
        <time>2021-07-10T06:22:50</time>
      </trkpt>
      <trkpt lat="44.75766" lon="4.92041">
        <ele>144</ele>
        <time>2021-07-10T06:22:51</time>
      </trkpt>
      <trkpt lat="44.75765" lon="4.92043">
        <ele>144</ele>
        <time>2021-07-10T06:22:52</time>
      </trkpt>
      <trkpt lat="44.75765" lon="4.9205">
        <ele>144</ele>
        <time>2021-07-10T06:22:53</time>
      </trkpt>
      <trkpt lat="44.75765" lon="4.9205">
        <ele>144</ele>
        <time>2021-07-10T06:22:54</time>
      </trkpt>
      <trkpt lat="44.75765" lon="4.92053">
        <ele>144</ele>
        <time>2021-07-10T06:22:55</time>
      </trkpt>
      <trkpt lat="44.75765" lon="4.92053">
        <ele>144</ele>
        <time>2021-07-10T06:22:56</time>
      </trkpt>
      <trkpt lat="44.75764" lon="4.92054">
        <ele>144</ele>
        <time>2021-07-10T06:22:57</time>
      </trkpt>
      <trkpt lat="44.75764" lon="4.92054">
        <ele>144</ele>
        <time>2021-07-10T06:22:58</time>
      </trkpt>
      <trkpt lat="44.75768" lon="4.92055">
        <ele>144</ele>
        <time>2021-07-10T06:22:59</time>
      </trkpt>
      <trkpt lat="44.75766" lon="4.92053">
        <ele>144</ele>
        <time>2021-07-10T06:23:00</time>
      </trkpt>
      <trkpt lat="44.75767" lon="4.9205">
        <ele>144</ele>
        <time>2021-07-10T06:23:01</time>
      </trkpt>
      <trkpt lat="44.75768" lon="4.92047">
        <ele>144</ele>
        <time>2021-07-10T06:23:02</time>
      </trkpt>
      <trkpt lat="44.75768" lon="4.92043">
        <ele>144.2</ele>
        <time>2021-07-10T06:23:03</time>
      </trkpt>
      <trkpt lat="44.75769" lon="4.9204">
        <ele>144.2</ele>
        <time>2021-07-10T06:23:04</time>
      </trkpt>
      <trkpt lat="44.75768" lon="4.92032">
        <ele>144.2</ele>
        <time>2021-07-10T06:23:05</time>
      </trkpt>
      <trkpt lat="44.75768" lon="4.92032">
        <ele>144.2</ele>
        <time>2021-07-10T06:23:06</time>
      </trkpt>
      <trkpt lat="44.75769" lon="4.92028">
        <ele>144.2</ele>
        <time>2021-07-10T06:23:07</time>
      </trkpt>
      <trkpt lat="44.75769" lon="4.92025">
        <ele>144.4</ele>
        <time>2021-07-10T06:23:08</time>
      </trkpt>
      <trkpt lat="44.75767" lon="4.92018">
        <ele>144.4</ele>
        <time>2021-07-10T06:23:09</time>
      </trkpt>
      <trkpt lat="44.75767" lon="4.92018">
        <ele>144.4</ele>
        <time>2021-07-10T06:23:10</time>
      </trkpt>
      <trkpt lat="44.75765" lon="4.92012">
        <ele>144.2</ele>
        <time>2021-07-10T06:23:11</time>
      </trkpt>
      <trkpt lat="44.75763" lon="4.9201">
        <ele>144.2</ele>
        <time>2021-07-10T06:23:12</time>
      </trkpt>
      <trkpt lat="44.75763" lon="4.92009">
        <ele>144</ele>
        <time>2021-07-10T06:23:13</time>
      </trkpt>
      <trkpt lat="44.75761" lon="4.92008">
        <ele>144</ele>
        <time>2021-07-10T06:23:14</time>
      </trkpt>
      <trkpt lat="44.75758" lon="4.92008">
        <ele>143.8</ele>
        <time>2021-07-10T06:23:15</time>
      </trkpt>
      <trkpt lat="44.75755" lon="4.92012">
        <ele>143.8</ele>
        <time>2021-07-10T06:23:16</time>
      </trkpt>
      <trkpt lat="44.75755" lon="4.92012">
        <ele>143.8</ele>
        <time>2021-07-10T06:23:17</time>
      </trkpt>
      <trkpt lat="44.75753" lon="4.92009">
        <ele>143.8</ele>
        <time>2021-07-10T06:23:18</time>
      </trkpt>
      <trkpt lat="44.75751" lon="4.92005">
        <ele>143.6</ele>
        <time>2021-07-10T06:23:19</time>
      </trkpt>
      <trkpt lat="44.75749" lon="4.92004">
        <ele>143.6</ele>
        <time>2021-07-10T06:23:20</time>
      </trkpt>
      <trkpt lat="44.75747" lon="4.92004">
        <ele>143.6</ele>
        <time>2021-07-10T06:23:21</time>
      </trkpt>
      <trkpt lat="44.75745" lon="4.92003">
        <ele>143.6</ele>
        <time>2021-07-10T06:23:22</time>
      </trkpt>
      <trkpt lat="44.75743" lon="4.92003">
        <ele>143.6</ele>
        <time>2021-07-10T06:23:23</time>
      </trkpt>
      <trkpt lat="44.75743" lon="4.92003">
        <ele>143.6</ele>
        <time>2021-07-10T06:23:24</time>
      </trkpt>
      <trkpt lat="44.75737" lon="4.92005">
        <ele>143.6</ele>
        <time>2021-07-10T06:23:25</time>
      </trkpt>
      <trkpt lat="44.75731" lon="4.92005">
        <ele>143.6</ele>
        <time>2021-07-10T06:23:26</time>
      </trkpt>
      <trkpt lat="44.75731" lon="4.92005">
        <ele>143.6</ele>
        <time>2021-07-10T06:23:27</time>
      </trkpt>
      <trkpt lat="44.75729" lon="4.92005">
        <ele>143.6</ele>
        <time>2021-07-10T06:23:28</time>
      </trkpt>
      <trkpt lat="44.75726" lon="4.92005">
        <ele>143.6</ele>
        <time>2021-07-10T06:23:29</time>
      </trkpt>
      <trkpt lat="44.75723" lon="4.92005">
        <ele>143.6</ele>
        <time>2021-07-10T06:23:30</time>
      </trkpt>
      <trkpt lat="44.75721" lon="4.92005">
        <ele>143.6</ele>
        <time>2021-07-10T06:23:31</time>
      </trkpt>
      <trkpt lat="44.75719" lon="4.92005">
        <ele>143.6</ele>
        <time>2021-07-10T06:23:32</time>
      </trkpt>
      <trkpt lat="44.75716" lon="4.92005">
        <ele>143.6</ele>
        <time>2021-07-10T06:23:33</time>
      </trkpt>
      <trkpt lat="44.75713" lon="4.92006">
        <ele>143.6</ele>
        <time>2021-07-10T06:23:34</time>
      </trkpt>
      <trkpt lat="44.7571" lon="4.92005">
        <ele>143.6</ele>
        <time>2021-07-10T06:23:35</time>
      </trkpt>
      <trkpt lat="44.75708" lon="4.92004">
        <ele>143.6</ele>
        <time>2021-07-10T06:23:36</time>
      </trkpt>
      <trkpt lat="44.75704" lon="4.92004">
        <ele>143.6</ele>
        <time>2021-07-10T06:23:37</time>
      </trkpt>
      <trkpt lat="44.75701" lon="4.92005">
        <ele>143.6</ele>
        <time>2021-07-10T06:23:38</time>
      </trkpt>
      <trkpt lat="44.75698" lon="4.92004">
        <ele>143.6</ele>
        <time>2021-07-10T06:23:39</time>
      </trkpt>
      <trkpt lat="44.75694" lon="4.92005">
        <ele>143.6</ele>
        <time>2021-07-10T06:23:40</time>
      </trkpt>
      <trkpt lat="44.75692" lon="4.92003">
        <ele>143.6</ele>
        <time>2021-07-10T06:23:41</time>
      </trkpt>
      <trkpt lat="44.75689" lon="4.92004">
        <ele>143.6</ele>
        <time>2021-07-10T06:23:42</time>
      </trkpt>
      <trkpt lat="44.75687" lon="4.92005">
        <ele>143.6</ele>
        <time>2021-07-10T06:23:43</time>
      </trkpt>
      <trkpt lat="44.75684" lon="4.92004">
        <ele>143.6</ele>
        <time>2021-07-10T06:23:44</time>
      </trkpt>
      <trkpt lat="44.75678" lon="4.92005">
        <ele>143.8</ele>
        <time>2021-07-10T06:23:45</time>
      </trkpt>
      <trkpt lat="44.75678" lon="4.92005">
        <ele>143.8</ele>
        <time>2021-07-10T06:23:46</time>
      </trkpt>
      <trkpt lat="44.75675" lon="4.92006">
        <ele>143.8</ele>
        <time>2021-07-10T06:23:47</time>
      </trkpt>
      <trkpt lat="44.75672" lon="4.92007">
        <ele>143.8</ele>
        <time>2021-07-10T06:23:48</time>
      </trkpt>
      <trkpt lat="44.75672" lon="4.92007">
        <ele>144</ele>
        <time>2021-07-10T06:23:49</time>
      </trkpt>
      <trkpt lat="44.75663" lon="4.92008">
        <ele>144</ele>
        <time>2021-07-10T06:23:50</time>
      </trkpt>
      <trkpt lat="44.75663" lon="4.92008">
        <ele>144</ele>
        <time>2021-07-10T06:23:51</time>
      </trkpt>
      <trkpt lat="44.7566" lon="4.92008">
        <ele>144</ele>
        <time>2021-07-10T06:23:52</time>
      </trkpt>
      <trkpt lat="44.75657" lon="4.92009">
        <ele>144</ele>
        <time>2021-07-10T06:23:53</time>
      </trkpt>
      <trkpt lat="44.75655" lon="4.92009">
        <ele>144</ele>
        <time>2021-07-10T06:23:54</time>
      </trkpt>
      <trkpt lat="44.7565" lon="4.92009">
        <ele>144</ele>
        <time>2021-07-10T06:23:55</time>
      </trkpt>
      <trkpt lat="44.7565" lon="4.92009">
        <ele>144</ele>
        <time>2021-07-10T06:23:56</time>
      </trkpt>
      <trkpt lat="44.75645" lon="4.92008">
        <ele>144</ele>
        <time>2021-07-10T06:23:57</time>
      </trkpt>
      <trkpt lat="44.75645" lon="4.92008">
        <ele>144</ele>
        <time>2021-07-10T06:23:58</time>
      </trkpt>
      <trkpt lat="44.75641" lon="4.9201">
        <ele>144.2</ele>
        <time>2021-07-10T06:23:59</time>
      </trkpt>
      <trkpt lat="44.75635" lon="4.92011">
        <ele>144.2</ele>
        <time>2021-07-10T06:24:00</time>
      </trkpt>
      <trkpt lat="44.75635" lon="4.92011">
        <ele>144.2</ele>
        <time>2021-07-10T06:24:01</time>
      </trkpt>
      <trkpt lat="44.75632" lon="4.92012">
        <ele>144.2</ele>
        <time>2021-07-10T06:24:02</time>
      </trkpt>
      <trkpt lat="44.75629" lon="4.92012">
        <ele>144.4</ele>
        <time>2021-07-10T06:24:03</time>
      </trkpt>
      <trkpt lat="44.75629" lon="4.92012">
        <ele>144.4</ele>
        <time>2021-07-10T06:24:04</time>
      </trkpt>
      <trkpt lat="44.75624" lon="4.92012">
        <ele>144.4</ele>
        <time>2021-07-10T06:24:05</time>
      </trkpt>
      <trkpt lat="44.75619" lon="4.92012">
        <ele>144.4</ele>
        <time>2021-07-10T06:24:06</time>
      </trkpt>
      <trkpt lat="44.75619" lon="4.92012">
        <ele>144.4</ele>
        <time>2021-07-10T06:24:07</time>
      </trkpt>
      <trkpt lat="44.75614" lon="4.92012">
        <ele>144.4</ele>
        <time>2021-07-10T06:24:08</time>
      </trkpt>
      <trkpt lat="44.75614" lon="4.92012">
        <ele>144.6</ele>
        <time>2021-07-10T06:24:09</time>
      </trkpt>
      <trkpt lat="44.7561" lon="4.92012">
        <ele>144.6</ele>
        <time>2021-07-10T06:24:10</time>
      </trkpt>
      <trkpt lat="44.75606" lon="4.92012">
        <ele>144.6</ele>
        <time>2021-07-10T06:24:11</time>
      </trkpt>
      <trkpt lat="44.75603" lon="4.92012">
        <ele>144.6</ele>
        <time>2021-07-10T06:24:12</time>
      </trkpt>
      <trkpt lat="44.75595" lon="4.92015">
        <ele>144.6</ele>
        <time>2021-07-10T06:24:13</time>
      </trkpt>
      <trkpt lat="44.75595" lon="4.92015">
        <ele>144.6</ele>
        <time>2021-07-10T06:24:14</time>
      </trkpt>
      <trkpt lat="44.75592" lon="4.92016">
        <ele>144.6</ele>
        <time>2021-07-10T06:24:15</time>
      </trkpt>
      <trkpt lat="44.75589" lon="4.92016">
        <ele>144.6</ele>
        <time>2021-07-10T06:24:16</time>
      </trkpt>
      <trkpt lat="44.75585" lon="4.92017">
        <ele>144.6</ele>
        <time>2021-07-10T06:24:17</time>
      </trkpt>
      <trkpt lat="44.75585" lon="4.92017">
        <ele>144.6</ele>
        <time>2021-07-10T06:24:18</time>
      </trkpt>
      <trkpt lat="44.75578" lon="4.92015">
        <ele>144.6</ele>
        <time>2021-07-10T06:24:19</time>
      </trkpt>
      <trkpt lat="44.75576" lon="4.92016">
        <ele>144.6</ele>
        <time>2021-07-10T06:24:20</time>
      </trkpt>
      <trkpt lat="44.75573" lon="4.92017">
        <ele>144.6</ele>
        <time>2021-07-10T06:24:21</time>
      </trkpt>
      <trkpt lat="44.75567" lon="4.92017">
        <ele>144.6</ele>
        <time>2021-07-10T06:24:22</time>
      </trkpt>
      <trkpt lat="44.75567" lon="4.92017">
        <ele>144.6</ele>
        <time>2021-07-10T06:24:23</time>
      </trkpt>
      <trkpt lat="44.75559" lon="4.92019">
        <ele>144.6</ele>
        <time>2021-07-10T06:24:24</time>
      </trkpt>
      <trkpt lat="44.75559" lon="4.92019">
        <ele>144.4</ele>
        <time>2021-07-10T06:24:25</time>
      </trkpt>
      <trkpt lat="44.75556" lon="4.92019">
        <ele>144.4</ele>
        <time>2021-07-10T06:24:26</time>
      </trkpt>
      <trkpt lat="44.75549" lon="4.92021">
        <ele>144.4</ele>
        <time>2021-07-10T06:24:27</time>
      </trkpt>
      <trkpt lat="44.75549" lon="4.92021">
        <ele>144.6</ele>
        <time>2021-07-10T06:24:28</time>
      </trkpt>
      <trkpt lat="44.75545" lon="4.92023">
        <ele>144.6</ele>
        <time>2021-07-10T06:24:29</time>
      </trkpt>
      <trkpt lat="44.7554" lon="4.92025">
        <ele>144.6</ele>
        <time>2021-07-10T06:24:30</time>
      </trkpt>
      <trkpt lat="44.75536" lon="4.92026">
        <ele>144.6</ele>
        <time>2021-07-10T06:24:31</time>
      </trkpt>
      <trkpt lat="44.75533" lon="4.92027">
        <ele>144.6</ele>
        <time>2021-07-10T06:24:32</time>
      </trkpt>
      <trkpt lat="44.75528" lon="4.92028">
        <ele>144.6</ele>
        <time>2021-07-10T06:24:33</time>
      </trkpt>
      <trkpt lat="44.75521" lon="4.92029">
        <ele>144.6</ele>
        <time>2021-07-10T06:24:34</time>
      </trkpt>
      <trkpt lat="44.75521" lon="4.92029">
        <ele>144.6</ele>
        <time>2021-07-10T06:24:35</time>
      </trkpt>
      <trkpt lat="44.75517" lon="4.9203">
        <ele>144.6</ele>
        <time>2021-07-10T06:24:36</time>
      </trkpt>
      <trkpt lat="44.7551" lon="4.92031">
        <ele>144.8</ele>
        <time>2021-07-10T06:24:37</time>
      </trkpt>
      <trkpt lat="44.7551" lon="4.92031">
        <ele>144.8</ele>
        <time>2021-07-10T06:24:38</time>
      </trkpt>
      <trkpt lat="44.75506" lon="4.92031">
        <ele>144.8</ele>
        <time>2021-07-10T06:24:39</time>
      </trkpt>
      <trkpt lat="44.75502" lon="4.92032">
        <ele>145</ele>
        <time>2021-07-10T06:24:40</time>
      </trkpt>
      <trkpt lat="44.755" lon="4.92033">
        <ele>145</ele>
        <time>2021-07-10T06:24:41</time>
      </trkpt>
      <trkpt lat="44.75491" lon="4.92034">
        <ele>145</ele>
        <time>2021-07-10T06:24:42</time>
      </trkpt>
      <trkpt lat="44.75491" lon="4.92034">
        <ele>145</ele>
        <time>2021-07-10T06:24:43</time>
      </trkpt>
      <trkpt lat="44.75483" lon="4.92036">
        <ele>145</ele>
        <time>2021-07-10T06:24:44</time>
      </trkpt>
      <trkpt lat="44.75483" lon="4.92036">
        <ele>145</ele>
        <time>2021-07-10T06:24:45</time>
      </trkpt>
      <trkpt lat="44.75478" lon="4.92036">
        <ele>145</ele>
        <time>2021-07-10T06:24:46</time>
      </trkpt>
      <trkpt lat="44.75473" lon="4.92039">
        <ele>145</ele>
        <time>2021-07-10T06:24:47</time>
      </trkpt>
      <trkpt lat="44.75466" lon="4.92042">
        <ele>145</ele>
        <time>2021-07-10T06:24:48</time>
      </trkpt>
      <trkpt lat="44.75462" lon="4.9204">
        <ele>145</ele>
        <time>2021-07-10T06:24:49</time>
      </trkpt>
      <trkpt lat="44.75462" lon="4.9204">
        <ele>145</ele>
        <time>2021-07-10T06:24:50</time>
      </trkpt>
      <trkpt lat="44.75454" lon="4.9204">
        <ele>145.2</ele>
        <time>2021-07-10T06:24:51</time>
      </trkpt>
      <trkpt lat="44.75454" lon="4.9204">
        <ele>145.2</ele>
        <time>2021-07-10T06:24:52</time>
      </trkpt>
      <trkpt lat="44.7545" lon="4.92041">
        <ele>145.2</ele>
        <time>2021-07-10T06:24:53</time>
      </trkpt>
      <trkpt lat="44.75441" lon="4.92043">
        <ele>145.2</ele>
        <time>2021-07-10T06:24:54</time>
      </trkpt>
      <trkpt lat="44.75441" lon="4.92043">
        <ele>145</ele>
        <time>2021-07-10T06:24:55</time>
      </trkpt>
      <trkpt lat="44.75436" lon="4.92045">
        <ele>145</ele>
        <time>2021-07-10T06:24:56</time>
      </trkpt>
      <trkpt lat="44.75432" lon="4.92048">
        <ele>145</ele>
        <time>2021-07-10T06:24:57</time>
      </trkpt>
      <trkpt lat="44.75427" lon="4.92049">
        <ele>145</ele>
        <time>2021-07-10T06:24:58</time>
      </trkpt>
      <trkpt lat="44.75418" lon="4.92052">
        <ele>145</ele>
        <time>2021-07-10T06:24:59</time>
      </trkpt>
      <trkpt lat="44.75418" lon="4.92052">
        <ele>145</ele>
        <time>2021-07-10T06:25:00</time>
      </trkpt>
      <trkpt lat="44.75415" lon="4.92052">
        <ele>145</ele>
        <time>2021-07-10T06:25:01</time>
      </trkpt>
      <trkpt lat="44.75411" lon="4.92052">
        <ele>145</ele>
        <time>2021-07-10T06:25:02</time>
      </trkpt>
      <trkpt lat="44.75406" lon="4.92052">
        <ele>145</ele>
        <time>2021-07-10T06:25:03</time>
      </trkpt>
      <trkpt lat="44.75401" lon="4.92054">
        <ele>145</ele>
        <time>2021-07-10T06:25:04</time>
      </trkpt>
      <trkpt lat="44.75397" lon="4.92055">
        <ele>145</ele>
        <time>2021-07-10T06:25:05</time>
      </trkpt>
      <trkpt lat="44.75392" lon="4.92055">
        <ele>145</ele>
        <time>2021-07-10T06:25:06</time>
      </trkpt>
      <trkpt lat="44.75385" lon="4.92053">
        <ele>145.2</ele>
        <time>2021-07-10T06:25:07</time>
      </trkpt>
      <trkpt lat="44.75385" lon="4.92053">
        <ele>145.2</ele>
        <time>2021-07-10T06:25:08</time>
      </trkpt>
      <trkpt lat="44.75382" lon="4.92052">
        <ele>145.2</ele>
        <time>2021-07-10T06:25:09</time>
      </trkpt>
      <trkpt lat="44.75377" lon="4.92052">
        <ele>145.2</ele>
        <time>2021-07-10T06:25:10</time>
      </trkpt>
      <trkpt lat="44.75372" lon="4.92052">
        <ele>145.2</ele>
        <time>2021-07-10T06:25:11</time>
      </trkpt>
      <trkpt lat="44.75368" lon="4.92053">
        <ele>145.2</ele>
        <time>2021-07-10T06:25:12</time>
      </trkpt>
      <trkpt lat="44.75364" lon="4.92052">
        <ele>145.2</ele>
        <time>2021-07-10T06:25:13</time>
      </trkpt>
      <trkpt lat="44.75364" lon="4.92052">
        <ele>145.2</ele>
        <time>2021-07-10T06:25:14</time>
      </trkpt>
      <trkpt lat="44.75354" lon="4.92053">
        <ele>145</ele>
        <time>2021-07-10T06:25:15</time>
      </trkpt>
      <trkpt lat="44.75349" lon="4.92053">
        <ele>145</ele>
        <time>2021-07-10T06:25:16</time>
      </trkpt>
      <trkpt lat="44.75344" lon="4.92052">
        <ele>145</ele>
        <time>2021-07-10T06:25:17</time>
      </trkpt>
      <trkpt lat="44.75341" lon="4.92052">
        <ele>145.2</ele>
        <time>2021-07-10T06:25:18</time>
      </trkpt>
      <trkpt lat="44.75337" lon="4.92052">
        <ele>145.2</ele>
        <time>2021-07-10T06:25:19</time>
      </trkpt>
      <trkpt lat="44.75333" lon="4.92052">
        <ele>145</ele>
        <time>2021-07-10T06:25:20</time>
      </trkpt>
      <trkpt lat="44.75323" lon="4.92052">
        <ele>145</ele>
        <time>2021-07-10T06:25:21</time>
      </trkpt>
      <trkpt lat="44.75323" lon="4.92052">
        <ele>145</ele>
        <time>2021-07-10T06:25:22</time>
      </trkpt>
      <trkpt lat="44.7532" lon="4.92051">
        <ele>145</ele>
        <time>2021-07-10T06:25:23</time>
      </trkpt>
      <trkpt lat="44.75315" lon="4.92052">
        <ele>145</ele>
        <time>2021-07-10T06:25:24</time>
      </trkpt>
      <trkpt lat="44.7531" lon="4.92053">
        <ele>145</ele>
        <time>2021-07-10T06:25:25</time>
      </trkpt>
      <trkpt lat="44.7531" lon="4.92053">
        <ele>145</ele>
        <time>2021-07-10T06:25:26</time>
      </trkpt>
      <trkpt lat="44.75301" lon="4.92053">
        <ele>145</ele>
        <time>2021-07-10T06:25:27</time>
      </trkpt>
      <trkpt lat="44.75298" lon="4.92052">
        <ele>145</ele>
        <time>2021-07-10T06:25:28</time>
      </trkpt>
      <trkpt lat="44.75294" lon="4.92051">
        <ele>145</ele>
        <time>2021-07-10T06:25:29</time>
      </trkpt>
      <trkpt lat="44.75294" lon="4.92051">
        <ele>144.8</ele>
        <time>2021-07-10T06:25:30</time>
      </trkpt>
      <trkpt lat="44.75286" lon="4.9205">
        <ele>144.8</ele>
        <time>2021-07-10T06:25:31</time>
      </trkpt>
      <trkpt lat="44.75286" lon="4.9205">
        <ele>144.8</ele>
        <time>2021-07-10T06:25:32</time>
      </trkpt>
      <trkpt lat="44.75277" lon="4.9205">
        <ele>144.8</ele>
        <time>2021-07-10T06:25:33</time>
      </trkpt>
      <trkpt lat="44.75274" lon="4.92048">
        <ele>144.8</ele>
        <time>2021-07-10T06:25:34</time>
      </trkpt>
      <trkpt lat="44.7527" lon="4.92049">
        <ele>144.8</ele>
        <time>2021-07-10T06:25:35</time>
      </trkpt>
      <trkpt lat="44.75264" lon="4.92048">
        <ele>144.8</ele>
        <time>2021-07-10T06:25:36</time>
      </trkpt>
      <trkpt lat="44.7526" lon="4.92047">
        <ele>145</ele>
        <time>2021-07-10T06:25:37</time>
      </trkpt>
      <trkpt lat="44.75256" lon="4.92044">
        <ele>145</ele>
        <time>2021-07-10T06:25:38</time>
      </trkpt>
      <trkpt lat="44.7525" lon="4.92045">
        <ele>145.2</ele>
        <time>2021-07-10T06:25:39</time>
      </trkpt>
      <trkpt lat="44.75241" lon="4.92043">
        <ele>145.2</ele>
        <time>2021-07-10T06:25:40</time>
      </trkpt>
      <trkpt lat="44.75241" lon="4.92043">
        <ele>145.2</ele>
        <time>2021-07-10T06:25:41</time>
      </trkpt>
      <trkpt lat="44.75237" lon="4.92041">
        <ele>145.2</ele>
        <time>2021-07-10T06:25:42</time>
      </trkpt>
      <trkpt lat="44.75232" lon="4.92041">
        <ele>145.2</ele>
        <time>2021-07-10T06:25:43</time>
      </trkpt>
      <trkpt lat="44.75222" lon="4.92041">
        <ele>145</ele>
        <time>2021-07-10T06:25:44</time>
      </trkpt>
      <trkpt lat="44.75217" lon="4.92041">
        <ele>145</ele>
        <time>2021-07-10T06:25:45</time>
      </trkpt>
      <trkpt lat="44.75217" lon="4.92041">
        <ele>145</ele>
        <time>2021-07-10T06:25:46</time>
      </trkpt>
      <trkpt lat="44.75212" lon="4.92039">
        <ele>145</ele>
        <time>2021-07-10T06:25:47</time>
      </trkpt>
      <trkpt lat="44.75207" lon="4.92038">
        <ele>145</ele>
        <time>2021-07-10T06:25:48</time>
      </trkpt>
      <trkpt lat="44.75196" lon="4.92036">
        <ele>145</ele>
        <time>2021-07-10T06:25:49</time>
      </trkpt>
      <trkpt lat="44.75196" lon="4.92036">
        <ele>145.2</ele>
        <time>2021-07-10T06:25:50</time>
      </trkpt>
      <trkpt lat="44.75186" lon="4.92035">
        <ele>145.2</ele>
        <time>2021-07-10T06:25:51</time>
      </trkpt>
      <trkpt lat="44.75186" lon="4.92035">
        <ele>145.2</ele>
        <time>2021-07-10T06:25:52</time>
      </trkpt>
      <trkpt lat="44.75181" lon="4.92034">
        <ele>145.2</ele>
        <time>2021-07-10T06:25:53</time>
      </trkpt>
      <trkpt lat="44.75172" lon="4.9203">
        <ele>145.2</ele>
        <time>2021-07-10T06:25:54</time>
      </trkpt>
      <trkpt lat="44.75172" lon="4.9203">
        <ele>145.2</ele>
        <time>2021-07-10T06:25:55</time>
      </trkpt>
      <trkpt lat="44.75167" lon="4.9203">
        <ele>145.2</ele>
        <time>2021-07-10T06:25:56</time>
      </trkpt>
      <trkpt lat="44.75163" lon="4.9203">
        <ele>145.2</ele>
        <time>2021-07-10T06:25:57</time>
      </trkpt>
      <trkpt lat="44.75157" lon="4.9203">
        <ele>145.2</ele>
        <time>2021-07-10T06:25:58</time>
      </trkpt>
      <trkpt lat="44.75152" lon="4.92028">
        <ele>145</ele>
        <time>2021-07-10T06:25:59</time>
      </trkpt>
      <trkpt lat="44.7514" lon="4.92024">
        <ele>145</ele>
        <time>2021-07-10T06:26:00</time>
      </trkpt>
      <trkpt lat="44.7514" lon="4.92024">
        <ele>145</ele>
        <time>2021-07-10T06:26:01</time>
      </trkpt>
      <trkpt lat="44.75135" lon="4.92025">
        <ele>145</ele>
        <time>2021-07-10T06:26:02</time>
      </trkpt>
      <trkpt lat="44.7513" lon="4.92024">
        <ele>145</ele>
        <time>2021-07-10T06:26:03</time>
      </trkpt>
      <trkpt lat="44.75125" lon="4.92023">
        <ele>145</ele>
        <time>2021-07-10T06:26:04</time>
      </trkpt>
      <trkpt lat="44.7512" lon="4.92023">
        <ele>145</ele>
        <time>2021-07-10T06:26:05</time>
      </trkpt>
      <trkpt lat="44.75114" lon="4.92021">
        <ele>145</ele>
        <time>2021-07-10T06:26:06</time>
      </trkpt>
      <trkpt lat="44.75108" lon="4.9202">
        <ele>145</ele>
        <time>2021-07-10T06:26:07</time>
      </trkpt>
      <trkpt lat="44.75103" lon="4.9202">
        <ele>145</ele>
        <time>2021-07-10T06:26:08</time>
      </trkpt>
      <trkpt lat="44.75097" lon="4.92019">
        <ele>145</ele>
        <time>2021-07-10T06:26:09</time>
      </trkpt>
      <trkpt lat="44.75086" lon="4.92017">
        <ele>145</ele>
        <time>2021-07-10T06:26:10</time>
      </trkpt>
      <trkpt lat="44.75086" lon="4.92017">
        <ele>145</ele>
        <time>2021-07-10T06:26:11</time>
      </trkpt>
      <trkpt lat="44.75081" lon="4.92015">
        <ele>145</ele>
        <time>2021-07-10T06:26:12</time>
      </trkpt>
      <trkpt lat="44.7507" lon="4.92014">
        <ele>145</ele>
        <time>2021-07-10T06:26:13</time>
      </trkpt>
      <trkpt lat="44.7507" lon="4.92014">
        <ele>145</ele>
        <time>2021-07-10T06:26:14</time>
      </trkpt>
      <trkpt lat="44.75065" lon="4.92012">
        <ele>145</ele>
        <time>2021-07-10T06:26:15</time>
      </trkpt>
      <trkpt lat="44.75054" lon="4.9201">
        <ele>145</ele>
        <time>2021-07-10T06:26:16</time>
      </trkpt>
      <trkpt lat="44.75054" lon="4.9201">
        <ele>145</ele>
        <time>2021-07-10T06:26:17</time>
      </trkpt>
      <trkpt lat="44.75048" lon="4.92009">
        <ele>145</ele>
        <time>2021-07-10T06:26:18</time>
      </trkpt>
      <trkpt lat="44.75042" lon="4.92009">
        <ele>145</ele>
        <time>2021-07-10T06:26:19</time>
      </trkpt>
      <trkpt lat="44.75037" lon="4.92007">
        <ele>145</ele>
        <time>2021-07-10T06:26:20</time>
      </trkpt>
      <trkpt lat="44.75031" lon="4.92006">
        <ele>145</ele>
        <time>2021-07-10T06:26:21</time>
      </trkpt>
      <trkpt lat="44.75025" lon="4.92005">
        <ele>145</ele>
        <time>2021-07-10T06:26:22</time>
      </trkpt>
      <trkpt lat="44.7502" lon="4.92005">
        <ele>145</ele>
        <time>2021-07-10T06:26:23</time>
      </trkpt>
      <trkpt lat="44.75009" lon="4.92001">
        <ele>145</ele>
        <time>2021-07-10T06:26:24</time>
      </trkpt>
      <trkpt lat="44.75009" lon="4.92001">
        <ele>145.2</ele>
        <time>2021-07-10T06:26:25</time>
      </trkpt>
      <trkpt lat="44.75001" lon="4.92001">
        <ele>145.2</ele>
        <time>2021-07-10T06:26:26</time>
      </trkpt>
      <trkpt lat="44.74996" lon="4.91999">
        <ele>145.2</ele>
        <time>2021-07-10T06:26:27</time>
      </trkpt>
      <trkpt lat="44.74991" lon="4.92">
        <ele>145.4</ele>
        <time>2021-07-10T06:26:28</time>
      </trkpt>
      <trkpt lat="44.74985" lon="4.92">
        <ele>145.4</ele>
        <time>2021-07-10T06:26:29</time>
      </trkpt>
      <trkpt lat="44.7498" lon="4.91998">
        <ele>145.6</ele>
        <time>2021-07-10T06:26:30</time>
      </trkpt>
      <trkpt lat="44.74975" lon="4.91997">
        <ele>145.6</ele>
        <time>2021-07-10T06:26:31</time>
      </trkpt>
      <trkpt lat="44.7497" lon="4.91994">
        <ele>145.6</ele>
        <time>2021-07-10T06:26:32</time>
      </trkpt>
      <trkpt lat="44.74965" lon="4.91992">
        <ele>145.8</ele>
        <time>2021-07-10T06:26:33</time>
      </trkpt>
      <trkpt lat="44.74961" lon="4.91991">
        <ele>145.8</ele>
        <time>2021-07-10T06:26:34</time>
      </trkpt>
      <trkpt lat="44.74955" lon="4.91989">
        <ele>146</ele>
        <time>2021-07-10T06:26:35</time>
      </trkpt>
      <trkpt lat="44.74951" lon="4.91987">
        <ele>146.2</ele>
        <time>2021-07-10T06:26:36</time>
      </trkpt>
      <trkpt lat="44.74946" lon="4.91988">
        <ele>146.4</ele>
        <time>2021-07-10T06:26:37</time>
      </trkpt>
      <trkpt lat="44.74946" lon="4.91988">
        <ele>146.6</ele>
        <time>2021-07-10T06:26:38</time>
      </trkpt>
      <trkpt lat="44.74937" lon="4.91986">
        <ele>146.6</ele>
        <time>2021-07-10T06:26:39</time>
      </trkpt>
      <trkpt lat="44.74932" lon="4.91987">
        <ele>146.6</ele>
        <time>2021-07-10T06:26:40</time>
      </trkpt>
      <trkpt lat="44.74923" lon="4.91986">
        <ele>146.6</ele>
        <time>2021-07-10T06:26:41</time>
      </trkpt>
      <trkpt lat="44.74923" lon="4.91986">
        <ele>146.6</ele>
        <time>2021-07-10T06:26:42</time>
      </trkpt>
      <trkpt lat="44.74918" lon="4.91986">
        <ele>146.6</ele>
        <time>2021-07-10T06:26:43</time>
      </trkpt>
      <trkpt lat="44.74913" lon="4.91986">
        <ele>146.8</ele>
        <time>2021-07-10T06:26:44</time>
      </trkpt>
      <trkpt lat="44.74908" lon="4.91986">
        <ele>146.8</ele>
        <time>2021-07-10T06:26:45</time>
      </trkpt>
      <trkpt lat="44.74898" lon="4.91983">
        <ele>147</ele>
        <time>2021-07-10T06:26:46</time>
      </trkpt>
      <trkpt lat="44.74898" lon="4.91983">
        <ele>147.2</ele>
        <time>2021-07-10T06:26:47</time>
      </trkpt>
      <trkpt lat="44.74895" lon="4.9198">
        <ele>147.4</ele>
        <time>2021-07-10T06:26:48</time>
      </trkpt>
      <trkpt lat="44.7489" lon="4.91976">
        <ele>147.6</ele>
        <time>2021-07-10T06:26:49</time>
      </trkpt>
      <trkpt lat="44.74886" lon="4.91978">
        <ele>147.6</ele>
        <time>2021-07-10T06:26:50</time>
      </trkpt>
      <trkpt lat="44.74882" lon="4.91977">
        <ele>147.8</ele>
        <time>2021-07-10T06:26:51</time>
      </trkpt>
      <trkpt lat="44.74878" lon="4.91974">
        <ele>148</ele>
        <time>2021-07-10T06:26:52</time>
      </trkpt>
      <trkpt lat="44.74874" lon="4.91972">
        <ele>148.2</ele>
        <time>2021-07-10T06:26:53</time>
      </trkpt>
      <trkpt lat="44.74871" lon="4.91971">
        <ele>148.4</ele>
        <time>2021-07-10T06:26:54</time>
      </trkpt>
      <trkpt lat="44.74866" lon="4.9197">
        <ele>148.4</ele>
        <time>2021-07-10T06:26:55</time>
      </trkpt>
      <trkpt lat="44.74861" lon="4.91968">
        <ele>148.6</ele>
        <time>2021-07-10T06:26:56</time>
      </trkpt>
      <trkpt lat="44.74856" lon="4.91967">
        <ele>148.6</ele>
        <time>2021-07-10T06:26:57</time>
      </trkpt>
      <trkpt lat="44.74852" lon="4.91965">
        <ele>148.6</ele>
        <time>2021-07-10T06:26:58</time>
      </trkpt>
      <trkpt lat="44.74847" lon="4.91963">
        <ele>148.6</ele>
        <time>2021-07-10T06:26:59</time>
      </trkpt>
      <trkpt lat="44.74843" lon="4.91961">
        <ele>148.6</ele>
        <time>2021-07-10T06:27:00</time>
      </trkpt>
      <trkpt lat="44.74834" lon="4.91957">
        <ele>148.6</ele>
        <time>2021-07-10T06:27:01</time>
      </trkpt>
      <trkpt lat="44.74834" lon="4.91957">
        <ele>148.6</ele>
        <time>2021-07-10T06:27:02</time>
      </trkpt>
      <trkpt lat="44.74827" lon="4.91951">
        <ele>148.8</ele>
        <time>2021-07-10T06:27:03</time>
      </trkpt>
      <trkpt lat="44.74827" lon="4.91951">
        <ele>148.8</ele>
        <time>2021-07-10T06:27:04</time>
      </trkpt>
      <trkpt lat="44.74823" lon="4.91948">
        <ele>149</ele>
        <time>2021-07-10T06:27:05</time>
      </trkpt>
      <trkpt lat="44.74823" lon="4.91948">
        <ele>149</ele>
        <time>2021-07-10T06:27:06</time>
      </trkpt>
      <trkpt lat="44.74815" lon="4.91944">
        <ele>149.2</ele>
        <time>2021-07-10T06:27:07</time>
      </trkpt>
      <trkpt lat="44.74811" lon="4.91942">
        <ele>149.4</ele>
        <time>2021-07-10T06:27:08</time>
      </trkpt>
      <trkpt lat="44.74804" lon="4.9194">
        <ele>149.6</ele>
        <time>2021-07-10T06:27:09</time>
      </trkpt>
      <trkpt lat="44.74804" lon="4.9194">
        <ele>149.6</ele>
        <time>2021-07-10T06:27:10</time>
      </trkpt>
      <trkpt lat="44.748" lon="4.91938">
        <ele>149.8</ele>
        <time>2021-07-10T06:27:11</time>
      </trkpt>
      <trkpt lat="44.74798" lon="4.91937">
        <ele>149.8</ele>
        <time>2021-07-10T06:27:12</time>
      </trkpt>
      <trkpt lat="44.74791" lon="4.91932">
        <ele>150</ele>
        <time>2021-07-10T06:27:13</time>
      </trkpt>
      <trkpt lat="44.74791" lon="4.91932">
        <ele>150</ele>
        <time>2021-07-10T06:27:14</time>
      </trkpt>
      <trkpt lat="44.74788" lon="4.9193">
        <ele>150.2</ele>
        <time>2021-07-10T06:27:15</time>
      </trkpt>
      <trkpt lat="44.74785" lon="4.91928">
        <ele>150.2</ele>
        <time>2021-07-10T06:27:16</time>
      </trkpt>
      <trkpt lat="44.74777" lon="4.91925">
        <ele>150.4</ele>
        <time>2021-07-10T06:27:17</time>
      </trkpt>
      <trkpt lat="44.74777" lon="4.91925">
        <ele>150.4</ele>
        <time>2021-07-10T06:27:18</time>
      </trkpt>
      <trkpt lat="44.74773" lon="4.91923">
        <ele>150.6</ele>
        <time>2021-07-10T06:27:19</time>
      </trkpt>
      <trkpt lat="44.74766" lon="4.9192">
        <ele>150.6</ele>
        <time>2021-07-10T06:27:20</time>
      </trkpt>
      <trkpt lat="44.74766" lon="4.9192">
        <ele>150.6</ele>
        <time>2021-07-10T06:27:21</time>
      </trkpt>
      <trkpt lat="44.74763" lon="4.91917">
        <ele>150.6</ele>
        <time>2021-07-10T06:27:22</time>
      </trkpt>
      <trkpt lat="44.74758" lon="4.91915">
        <ele>150.6</ele>
        <time>2021-07-10T06:27:23</time>
      </trkpt>
      <trkpt lat="44.74754" lon="4.91913">
        <ele>150.6</ele>
        <time>2021-07-10T06:27:24</time>
      </trkpt>
      <trkpt lat="44.74745" lon="4.91909">
        <ele>150.6</ele>
        <time>2021-07-10T06:27:25</time>
      </trkpt>
      <trkpt lat="44.74745" lon="4.91909">
        <ele>150.6</ele>
        <time>2021-07-10T06:27:26</time>
      </trkpt>
      <trkpt lat="44.7474" lon="4.91906">
        <ele>150.6</ele>
        <time>2021-07-10T06:27:27</time>
      </trkpt>
      <trkpt lat="44.74735" lon="4.91903">
        <ele>150.4</ele>
        <time>2021-07-10T06:27:28</time>
      </trkpt>
      <trkpt lat="44.74732" lon="4.919">
        <ele>150.4</ele>
        <time>2021-07-10T06:27:29</time>
      </trkpt>
      <trkpt lat="44.74727" lon="4.91897">
        <ele>150.2</ele>
        <time>2021-07-10T06:27:30</time>
      </trkpt>
      <trkpt lat="44.74721" lon="4.91895">
        <ele>150.2</ele>
        <time>2021-07-10T06:27:31</time>
      </trkpt>
      <trkpt lat="44.74716" lon="4.91891">
        <ele>150</ele>
        <time>2021-07-10T06:27:32</time>
      </trkpt>
      <trkpt lat="44.74703" lon="4.91887">
        <ele>150</ele>
        <time>2021-07-10T06:27:33</time>
      </trkpt>
      <trkpt lat="44.74703" lon="4.91887">
        <ele>149.8</ele>
        <time>2021-07-10T06:27:34</time>
      </trkpt>
      <trkpt lat="44.74698" lon="4.91884">
        <ele>149.6</ele>
        <time>2021-07-10T06:27:35</time>
      </trkpt>
      <trkpt lat="44.74693" lon="4.91879">
        <ele>149.4</ele>
        <time>2021-07-10T06:27:36</time>
      </trkpt>
      <trkpt lat="44.74679" lon="4.91871">
        <ele>149.2</ele>
        <time>2021-07-10T06:27:37</time>
      </trkpt>
      <trkpt lat="44.74679" lon="4.91871">
        <ele>149</ele>
        <time>2021-07-10T06:27:38</time>
      </trkpt>
      <trkpt lat="44.74672" lon="4.91867">
        <ele>148.8</ele>
        <time>2021-07-10T06:27:39</time>
      </trkpt>
      <trkpt lat="44.74665" lon="4.91864">
        <ele>148.6</ele>
        <time>2021-07-10T06:27:40</time>
      </trkpt>
      <trkpt lat="44.74657" lon="4.91864">
        <ele>148.4</ele>
        <time>2021-07-10T06:27:41</time>
      </trkpt>
      <trkpt lat="44.7465" lon="4.91861">
        <ele>148.4</ele>
        <time>2021-07-10T06:27:42</time>
      </trkpt>
      <trkpt lat="44.74642" lon="4.91857">
        <ele>148.2</ele>
        <time>2021-07-10T06:27:43</time>
      </trkpt>
      <trkpt lat="44.74635" lon="4.91854">
        <ele>148</ele>
        <time>2021-07-10T06:27:44</time>
      </trkpt>
      <trkpt lat="44.74619" lon="4.9185">
        <ele>148</ele>
        <time>2021-07-10T06:27:45</time>
      </trkpt>
      <trkpt lat="44.74619" lon="4.9185">
        <ele>147.8</ele>
        <time>2021-07-10T06:27:46</time>
      </trkpt>
      <trkpt lat="44.74612" lon="4.91845">
        <ele>147.6</ele>
        <time>2021-07-10T06:27:47</time>
      </trkpt>
      <trkpt lat="44.74612" lon="4.91845">
        <ele>147.4</ele>
        <time>2021-07-10T06:27:48</time>
      </trkpt>
      <trkpt lat="44.74592" lon="4.91834">
        <ele>147.2</ele>
        <time>2021-07-10T06:27:49</time>
      </trkpt>
      <trkpt lat="44.74592" lon="4.91834">
        <ele>147</ele>
        <time>2021-07-10T06:27:50</time>
      </trkpt>
      <trkpt lat="44.74585" lon="4.9183">
        <ele>146.8</ele>
        <time>2021-07-10T06:27:51</time>
      </trkpt>
      <trkpt lat="44.74578" lon="4.91828">
        <ele>146.8</ele>
        <time>2021-07-10T06:27:52</time>
      </trkpt>
      <trkpt lat="44.74571" lon="4.91826">
        <ele>146.6</ele>
        <time>2021-07-10T06:27:53</time>
      </trkpt>
      <trkpt lat="44.74564" lon="4.91822">
        <ele>146.6</ele>
        <time>2021-07-10T06:27:54</time>
      </trkpt>
      <trkpt lat="44.74556" lon="4.91818">
        <ele>147.2</ele>
        <time>2021-07-10T06:27:55</time>
      </trkpt>
      <trkpt lat="44.7455" lon="4.91813">
        <ele>147.4</ele>
        <time>2021-07-10T06:27:56</time>
      </trkpt>
      <trkpt lat="44.74543" lon="4.91809">
        <ele>147.4</ele>
        <time>2021-07-10T06:27:57</time>
      </trkpt>
      <trkpt lat="44.74528" lon="4.91802">
        <ele>147.4</ele>
        <time>2021-07-10T06:27:58</time>
      </trkpt>
      <trkpt lat="44.74528" lon="4.91802">
        <ele>147.4</ele>
        <time>2021-07-10T06:27:59</time>
      </trkpt>
      <trkpt lat="44.74522" lon="4.91798">
        <ele>147.4</ele>
        <time>2021-07-10T06:28:00</time>
      </trkpt>
      <trkpt lat="44.74514" lon="4.91795">
        <ele>147.6</ele>
        <time>2021-07-10T06:28:01</time>
      </trkpt>
      <trkpt lat="44.74507" lon="4.91791">
        <ele>147.6</ele>
        <time>2021-07-10T06:28:02</time>
      </trkpt>
      <trkpt lat="44.745" lon="4.91787">
        <ele>147.6</ele>
        <time>2021-07-10T06:28:03</time>
      </trkpt>
      <trkpt lat="44.74494" lon="4.91784">
        <ele>147.6</ele>
        <time>2021-07-10T06:28:04</time>
      </trkpt>
      <trkpt lat="44.74487" lon="4.91781">
        <ele>146.8</ele>
        <time>2021-07-10T06:28:05</time>
      </trkpt>
      <trkpt lat="44.74481" lon="4.91778">
        <ele>146.4</ele>
        <time>2021-07-10T06:28:06</time>
      </trkpt>
      <trkpt lat="44.74475" lon="4.91775">
        <ele>146</ele>
        <time>2021-07-10T06:28:07</time>
      </trkpt>
      <trkpt lat="44.74463" lon="4.91772">
        <ele>145.6</ele>
        <time>2021-07-10T06:28:08</time>
      </trkpt>
      <trkpt lat="44.74463" lon="4.91772">
        <ele>145.2</ele>
        <time>2021-07-10T06:28:09</time>
      </trkpt>
      <trkpt lat="44.74457" lon="4.9177">
        <ele>145.2</ele>
        <time>2021-07-10T06:28:10</time>
      </trkpt>
      <trkpt lat="44.74446" lon="4.91765">
        <ele>145</ele>
        <time>2021-07-10T06:28:11</time>
      </trkpt>
      <trkpt lat="44.74446" lon="4.91765">
        <ele>145</ele>
        <time>2021-07-10T06:28:12</time>
      </trkpt>
      <trkpt lat="44.74439" lon="4.91763">
        <ele>144.8</ele>
        <time>2021-07-10T06:28:13</time>
      </trkpt>
      <trkpt lat="44.74433" lon="4.91761">
        <ele>144.6</ele>
        <time>2021-07-10T06:28:14</time>
      </trkpt>
      <trkpt lat="44.74419" lon="4.91761">
        <ele>144.6</ele>
        <time>2021-07-10T06:28:15</time>
      </trkpt>
      <trkpt lat="44.74419" lon="4.91761">
        <ele>144.6</ele>
        <time>2021-07-10T06:28:16</time>
      </trkpt>
      <trkpt lat="44.7441" lon="4.91761">
        <ele>144.6</ele>
        <time>2021-07-10T06:28:17</time>
      </trkpt>
      <trkpt lat="44.74403" lon="4.9176">
        <ele>144.6</ele>
        <time>2021-07-10T06:28:18</time>
      </trkpt>
      <trkpt lat="44.7439" lon="4.91758">
        <ele>144.6</ele>
        <time>2021-07-10T06:28:19</time>
      </trkpt>
      <trkpt lat="44.7439" lon="4.91758">
        <ele>144.6</ele>
        <time>2021-07-10T06:28:20</time>
      </trkpt>
      <trkpt lat="44.74384" lon="4.91758">
        <ele>144.8</ele>
        <time>2021-07-10T06:28:21</time>
      </trkpt>
      <trkpt lat="44.74379" lon="4.91758">
        <ele>144.8</ele>
        <time>2021-07-10T06:28:22</time>
      </trkpt>
      <trkpt lat="44.74373" lon="4.91758">
        <ele>144.8</ele>
        <time>2021-07-10T06:28:23</time>
      </trkpt>
      <trkpt lat="44.74367" lon="4.91759">
        <ele>145</ele>
        <time>2021-07-10T06:28:24</time>
      </trkpt>
      <trkpt lat="44.74361" lon="4.9176">
        <ele>145</ele>
        <time>2021-07-10T06:28:25</time>
      </trkpt>
      <trkpt lat="44.74355" lon="4.9176">
        <ele>145.2</ele>
        <time>2021-07-10T06:28:26</time>
      </trkpt>
      <trkpt lat="44.74349" lon="4.9176">
        <ele>145.4</ele>
        <time>2021-07-10T06:28:27</time>
      </trkpt>
      <trkpt lat="44.74343" lon="4.91761">
        <ele>145.4</ele>
        <time>2021-07-10T06:28:28</time>
      </trkpt>
      <trkpt lat="44.74339" lon="4.91762">
        <ele>145.6</ele>
        <time>2021-07-10T06:28:29</time>
      </trkpt>
      <trkpt lat="44.74326" lon="4.91763">
        <ele>145.8</ele>
        <time>2021-07-10T06:28:30</time>
      </trkpt>
      <trkpt lat="44.74326" lon="4.91763">
        <ele>146</ele>
        <time>2021-07-10T06:28:31</time>
      </trkpt>
      <trkpt lat="44.7432" lon="4.91762">
        <ele>146</ele>
        <time>2021-07-10T06:28:32</time>
      </trkpt>
      <trkpt lat="44.74314" lon="4.91763">
        <ele>146</ele>
        <time>2021-07-10T06:28:33</time>
      </trkpt>
      <trkpt lat="44.74302" lon="4.91768">
        <ele>146.2</ele>
        <time>2021-07-10T06:28:34</time>
      </trkpt>
      <trkpt lat="44.74302" lon="4.91768">
        <ele>146.2</ele>
        <time>2021-07-10T06:28:35</time>
      </trkpt>
      <trkpt lat="44.74296" lon="4.9177">
        <ele>146.2</ele>
        <time>2021-07-10T06:28:36</time>
      </trkpt>
      <trkpt lat="44.74289" lon="4.91772">
        <ele>146.2</ele>
        <time>2021-07-10T06:28:37</time>
      </trkpt>
      <trkpt lat="44.74278" lon="4.91776">
        <ele>146.2</ele>
        <time>2021-07-10T06:28:38</time>
      </trkpt>
      <trkpt lat="44.74278" lon="4.91776">
        <ele>146</ele>
        <time>2021-07-10T06:28:39</time>
      </trkpt>
      <trkpt lat="44.74272" lon="4.91778">
        <ele>146</ele>
        <time>2021-07-10T06:28:40</time>
      </trkpt>
      <trkpt lat="44.74261" lon="4.91782">
        <ele>146</ele>
        <time>2021-07-10T06:28:41</time>
      </trkpt>
      <trkpt lat="44.74261" lon="4.91782">
        <ele>146</ele>
        <time>2021-07-10T06:28:42</time>
      </trkpt>
      <trkpt lat="44.74255" lon="4.91784">
        <ele>146</ele>
        <time>2021-07-10T06:28:43</time>
      </trkpt>
      <trkpt lat="44.74249" lon="4.91786">
        <ele>146</ele>
        <time>2021-07-10T06:28:44</time>
      </trkpt>
      <trkpt lat="44.74245" lon="4.91788">
        <ele>146</ele>
        <time>2021-07-10T06:28:45</time>
      </trkpt>
      <trkpt lat="44.74234" lon="4.91792">
        <ele>146.2</ele>
        <time>2021-07-10T06:28:46</time>
      </trkpt>
      <trkpt lat="44.74234" lon="4.91792">
        <ele>146.2</ele>
        <time>2021-07-10T06:28:47</time>
      </trkpt>
      <trkpt lat="44.74228" lon="4.91795">
        <ele>146.2</ele>
        <time>2021-07-10T06:28:48</time>
      </trkpt>
      <trkpt lat="44.74218" lon="4.91797">
        <ele>146.2</ele>
        <time>2021-07-10T06:28:49</time>
      </trkpt>
      <trkpt lat="44.74218" lon="4.91797">
        <ele>146.2</ele>
        <time>2021-07-10T06:28:50</time>
      </trkpt>
      <trkpt lat="44.74213" lon="4.91799">
        <ele>146.2</ele>
        <time>2021-07-10T06:28:51</time>
      </trkpt>
      <trkpt lat="44.74207" lon="4.91801">
        <ele>146.2</ele>
        <time>2021-07-10T06:28:52</time>
      </trkpt>
      <trkpt lat="44.74202" lon="4.91802">
        <ele>146.4</ele>
        <time>2021-07-10T06:28:53</time>
      </trkpt>
      <trkpt lat="44.74197" lon="4.91803">
        <ele>146.2</ele>
        <time>2021-07-10T06:28:54</time>
      </trkpt>
      <trkpt lat="44.74191" lon="4.91806">
        <ele>146.2</ele>
        <time>2021-07-10T06:28:55</time>
      </trkpt>
      <trkpt lat="44.74186" lon="4.91808">
        <ele>146.4</ele>
        <time>2021-07-10T06:28:56</time>
      </trkpt>
      <trkpt lat="44.7418" lon="4.91811">
        <ele>146.4</ele>
        <time>2021-07-10T06:28:57</time>
      </trkpt>
      <trkpt lat="44.74174" lon="4.91813">
        <ele>146.4</ele>
        <time>2021-07-10T06:28:58</time>
      </trkpt>
      <trkpt lat="44.74168" lon="4.91816">
        <ele>146.4</ele>
        <time>2021-07-10T06:28:59</time>
      </trkpt>
      <trkpt lat="44.74162" lon="4.91818">
        <ele>146.4</ele>
        <time>2021-07-10T06:29:00</time>
      </trkpt>
      <trkpt lat="44.74157" lon="4.9182">
        <ele>146.4</ele>
        <time>2021-07-10T06:29:01</time>
      </trkpt>
      <trkpt lat="44.74149" lon="4.91824">
        <ele>146.4</ele>
        <time>2021-07-10T06:29:02</time>
      </trkpt>
      <trkpt lat="44.74149" lon="4.91824">
        <ele>146.4</ele>
        <time>2021-07-10T06:29:03</time>
      </trkpt>
      <trkpt lat="44.74143" lon="4.91825">
        <ele>146.6</ele>
        <time>2021-07-10T06:29:04</time>
      </trkpt>
      <trkpt lat="44.74138" lon="4.91827">
        <ele>146.6</ele>
        <time>2021-07-10T06:29:05</time>
      </trkpt>
      <trkpt lat="44.74133" lon="4.91828">
        <ele>146.6</ele>
        <time>2021-07-10T06:29:06</time>
      </trkpt>
      <trkpt lat="44.74128" lon="4.91828">
        <ele>146.4</ele>
        <time>2021-07-10T06:29:07</time>
      </trkpt>
      <trkpt lat="44.74124" lon="4.9183">
        <ele>146.4</ele>
        <time>2021-07-10T06:29:08</time>
      </trkpt>
      <trkpt lat="44.74121" lon="4.91828">
        <ele>146.4</ele>
        <time>2021-07-10T06:29:09</time>
      </trkpt>
      <trkpt lat="44.74119" lon="4.91828">
        <ele>146.4</ele>
        <time>2021-07-10T06:29:10</time>
      </trkpt>
      <trkpt lat="44.74118" lon="4.91824">
        <ele>146.2</ele>
        <time>2021-07-10T06:29:11</time>
      </trkpt>
      <trkpt lat="44.7412" lon="4.91816">
        <ele>146</ele>
        <time>2021-07-10T06:29:12</time>
      </trkpt>
      <trkpt lat="44.7412" lon="4.91816">
        <ele>146</ele>
        <time>2021-07-10T06:29:13</time>
      </trkpt>
      <trkpt lat="44.74122" lon="4.91808">
        <ele>146</ele>
        <time>2021-07-10T06:29:14</time>
      </trkpt>
      <trkpt lat="44.74122" lon="4.91808">
        <ele>146.2</ele>
        <time>2021-07-10T06:29:15</time>
      </trkpt>
      <trkpt lat="44.74125" lon="4.91798">
        <ele>146.2</ele>
        <time>2021-07-10T06:29:16</time>
      </trkpt>
      <trkpt lat="44.74125" lon="4.91798">
        <ele>146.2</ele>
        <time>2021-07-10T06:29:17</time>
      </trkpt>
      <trkpt lat="44.74127" lon="4.91791">
        <ele>146.4</ele>
        <time>2021-07-10T06:29:18</time>
      </trkpt>
      <trkpt lat="44.74128" lon="4.91787">
        <ele>146.4</ele>
        <time>2021-07-10T06:29:19</time>
      </trkpt>
      <trkpt lat="44.7413" lon="4.91781">
        <ele>146.4</ele>
        <time>2021-07-10T06:29:20</time>
      </trkpt>
      <trkpt lat="44.74131" lon="4.91774">
        <ele>146.6</ele>
        <time>2021-07-10T06:29:21</time>
      </trkpt>
      <trkpt lat="44.74132" lon="4.91768">
        <ele>146.6</ele>
        <time>2021-07-10T06:29:22</time>
      </trkpt>
      <trkpt lat="44.74131" lon="4.91762">
        <ele>146.6</ele>
        <time>2021-07-10T06:29:23</time>
      </trkpt>
      <trkpt lat="44.74132" lon="4.91756">
        <ele>146.6</ele>
        <time>2021-07-10T06:29:24</time>
      </trkpt>
      <trkpt lat="44.74133" lon="4.91748">
        <ele>146.6</ele>
        <time>2021-07-10T06:29:25</time>
      </trkpt>
      <trkpt lat="44.74134" lon="4.91737">
        <ele>146.6</ele>
        <time>2021-07-10T06:29:26</time>
      </trkpt>
      <trkpt lat="44.74134" lon="4.91737">
        <ele>146.4</ele>
        <time>2021-07-10T06:29:27</time>
      </trkpt>
      <trkpt lat="44.74137" lon="4.91732">
        <ele>146.4</ele>
        <time>2021-07-10T06:29:28</time>
      </trkpt>
      <trkpt lat="44.74139" lon="4.91728">
        <ele>146.4</ele>
        <time>2021-07-10T06:29:29</time>
      </trkpt>
      <trkpt lat="44.7414" lon="4.91719">
        <ele>146.4</ele>
        <time>2021-07-10T06:29:30</time>
      </trkpt>
      <trkpt lat="44.7414" lon="4.91719">
        <ele>146.6</ele>
        <time>2021-07-10T06:29:31</time>
      </trkpt>
      <trkpt lat="44.74144" lon="4.91709">
        <ele>146.6</ele>
        <time>2021-07-10T06:29:32</time>
      </trkpt>
      <trkpt lat="44.74142" lon="4.917">
        <ele>146.6</ele>
        <time>2021-07-10T06:29:33</time>
      </trkpt>
      <trkpt lat="44.74145" lon="4.91695">
        <ele>146.6</ele>
        <time>2021-07-10T06:29:34</time>
      </trkpt>
      <trkpt lat="44.74148" lon="4.91688">
        <ele>146.6</ele>
        <time>2021-07-10T06:29:35</time>
      </trkpt>
      <trkpt lat="44.7415" lon="4.91681">
        <ele>146.6</ele>
        <time>2021-07-10T06:29:36</time>
      </trkpt>
      <trkpt lat="44.74153" lon="4.91677">
        <ele>146.6</ele>
        <time>2021-07-10T06:29:37</time>
      </trkpt>
      <trkpt lat="44.74155" lon="4.9167">
        <ele>146.8</ele>
        <time>2021-07-10T06:29:38</time>
      </trkpt>
      <trkpt lat="44.74156" lon="4.91664">
        <ele>146.8</ele>
        <time>2021-07-10T06:29:39</time>
      </trkpt>
      <trkpt lat="44.74159" lon="4.91648">
        <ele>146.8</ele>
        <time>2021-07-10T06:29:40</time>
      </trkpt>
      <trkpt lat="44.74159" lon="4.91642">
        <ele>146.8</ele>
        <time>2021-07-10T06:29:41</time>
      </trkpt>
      <trkpt lat="44.74159" lon="4.91642">
        <ele>146.8</ele>
        <time>2021-07-10T06:29:42</time>
      </trkpt>
      <trkpt lat="44.7416" lon="4.91633">
        <ele>146.8</ele>
        <time>2021-07-10T06:29:43</time>
      </trkpt>
      <trkpt lat="44.74165" lon="4.91623">
        <ele>146.8</ele>
        <time>2021-07-10T06:29:44</time>
      </trkpt>
      <trkpt lat="44.74165" lon="4.91623">
        <ele>146.8</ele>
        <time>2021-07-10T06:29:45</time>
      </trkpt>
      <trkpt lat="44.74166" lon="4.91617">
        <ele>146.8</ele>
        <time>2021-07-10T06:29:46</time>
      </trkpt>
      <trkpt lat="44.74168" lon="4.91611">
        <ele>146.6</ele>
        <time>2021-07-10T06:29:47</time>
      </trkpt>
      <trkpt lat="44.74169" lon="4.91606">
        <ele>146.6</ele>
        <time>2021-07-10T06:29:48</time>
      </trkpt>
      <trkpt lat="44.74169" lon="4.91601">
        <ele>146.6</ele>
        <time>2021-07-10T06:29:49</time>
      </trkpt>
      <trkpt lat="44.74165" lon="4.91598">
        <ele>146.8</ele>
        <time>2021-07-10T06:29:50</time>
      </trkpt>
      <trkpt lat="44.74165" lon="4.91598">
        <ele>146.8</ele>
        <time>2021-07-10T06:29:51</time>
      </trkpt>
      <trkpt lat="44.74165" lon="4.91598">
        <ele>146.8</ele>
        <time>2021-07-10T06:29:52</time>
      </trkpt>
      <trkpt lat="44.74156" lon="4.91596">
        <ele>147</ele>
        <time>2021-07-10T06:29:53</time>
      </trkpt>
      <trkpt lat="44.74153" lon="4.91598">
        <ele>147</ele>
        <time>2021-07-10T06:29:54</time>
      </trkpt>
      <trkpt lat="44.74151" lon="4.91599">
        <ele>147.2</ele>
        <time>2021-07-10T06:29:55</time>
      </trkpt>
      <trkpt lat="44.74148" lon="4.91602">
        <ele>147.2</ele>
        <time>2021-07-10T06:29:56</time>
      </trkpt>
      <trkpt lat="44.74142" lon="4.91604">
        <ele>147.4</ele>
        <time>2021-07-10T06:29:57</time>
      </trkpt>
      <trkpt lat="44.74142" lon="4.91604">
        <ele>147.4</ele>
        <time>2021-07-10T06:29:58</time>
      </trkpt>
      <trkpt lat="44.74138" lon="4.91604">
        <ele>147.6</ele>
        <time>2021-07-10T06:29:59</time>
      </trkpt>
      <trkpt lat="44.74136" lon="4.91603">
        <ele>147.8</ele>
        <time>2021-07-10T06:30:00</time>
      </trkpt>
      <trkpt lat="44.74135" lon="4.91602">
        <ele>147.8</ele>
        <time>2021-07-10T06:30:01</time>
      </trkpt>
      <trkpt lat="44.74134" lon="4.91599">
        <ele>148.2</ele>
        <time>2021-07-10T06:30:02</time>
      </trkpt>
      <trkpt lat="44.74134" lon="4.91597">
        <ele>148.4</ele>
        <time>2021-07-10T06:30:03</time>
      </trkpt>
      <trkpt lat="44.74134" lon="4.91596">
        <ele>148.6</ele>
        <time>2021-07-10T06:30:04</time>
      </trkpt>
      <trkpt lat="44.74134" lon="4.91595">
        <ele>148.8</ele>
        <time>2021-07-10T06:30:05</time>
      </trkpt>
      <trkpt lat="44.74134" lon="4.91593">
        <ele>148.8</ele>
        <time>2021-07-10T06:30:06</time>
      </trkpt>
      <trkpt lat="44.74134" lon="4.91589">
        <ele>149</ele>
        <time>2021-07-10T06:30:07</time>
      </trkpt>
      <trkpt lat="44.74134" lon="4.91585">
        <ele>149.2</ele>
        <time>2021-07-10T06:30:08</time>
      </trkpt>
      <trkpt lat="44.74134" lon="4.91585">
        <ele>149.2</ele>
        <time>2021-07-10T06:30:09</time>
      </trkpt>
      <trkpt lat="44.74134" lon="4.91583">
        <ele>149.2</ele>
        <time>2021-07-10T06:30:10</time>
      </trkpt>
      <trkpt lat="44.74134" lon="4.9158">
        <ele>149.2</ele>
        <time>2021-07-10T06:30:11</time>
      </trkpt>
      <trkpt lat="44.74133" lon="4.91577">
        <ele>149.2</ele>
        <time>2021-07-10T06:30:12</time>
      </trkpt>
      <trkpt lat="44.74133" lon="4.91574">
        <ele>149</ele>
        <time>2021-07-10T06:30:13</time>
      </trkpt>
      <trkpt lat="44.74132" lon="4.91571">
        <ele>148.8</ele>
        <time>2021-07-10T06:30:14</time>
      </trkpt>
      <trkpt lat="44.7413" lon="4.91565">
        <ele>148.4</ele>
        <time>2021-07-10T06:30:15</time>
      </trkpt>
      <trkpt lat="44.74128" lon="4.91557">
        <ele>148</ele>
        <time>2021-07-10T06:30:16</time>
      </trkpt>
      <trkpt lat="44.74128" lon="4.91549">
        <ele>147.4</ele>
        <time>2021-07-10T06:30:17</time>
      </trkpt>
      <trkpt lat="44.74128" lon="4.9154">
        <ele>147</ele>
        <time>2021-07-10T06:30:18</time>
      </trkpt>
      <trkpt lat="44.74129" lon="4.91531">
        <ele>146.8</ele>
        <time>2021-07-10T06:30:19</time>
      </trkpt>
      <trkpt lat="44.74132" lon="4.91524">
        <ele>146.6</ele>
        <time>2021-07-10T06:30:20</time>
      </trkpt>
      <trkpt lat="44.74135" lon="4.91518">
        <ele>146.4</ele>
        <time>2021-07-10T06:30:21</time>
      </trkpt>
      <trkpt lat="44.74138" lon="4.91513">
        <ele>146.2</ele>
        <time>2021-07-10T06:30:22</time>
      </trkpt>
      <trkpt lat="44.74143" lon="4.91509">
        <ele>146</ele>
        <time>2021-07-10T06:30:23</time>
      </trkpt>
      <trkpt lat="44.74147" lon="4.91506">
        <ele>145.8</ele>
        <time>2021-07-10T06:30:24</time>
      </trkpt>
      <trkpt lat="44.7415" lon="4.91503">
        <ele>145.8</ele>
        <time>2021-07-10T06:30:25</time>
      </trkpt>
      <trkpt lat="44.74154" lon="4.915">
        <ele>145.8</ele>
        <time>2021-07-10T06:30:26</time>
      </trkpt>
      <trkpt lat="44.74158" lon="4.91496">
        <ele>145.8</ele>
        <time>2021-07-10T06:30:27</time>
      </trkpt>
      <trkpt lat="44.74162" lon="4.91493">
        <ele>145.8</ele>
        <time>2021-07-10T06:30:28</time>
      </trkpt>
      <trkpt lat="44.74166" lon="4.91489">
        <ele>145.8</ele>
        <time>2021-07-10T06:30:29</time>
      </trkpt>
      <trkpt lat="44.74169" lon="4.91485">
        <ele>145.8</ele>
        <time>2021-07-10T06:30:30</time>
      </trkpt>
      <trkpt lat="44.74172" lon="4.9148">
        <ele>145.8</ele>
        <time>2021-07-10T06:30:31</time>
      </trkpt>
      <trkpt lat="44.74175" lon="4.91475">
        <ele>145.8</ele>
        <time>2021-07-10T06:30:32</time>
      </trkpt>
      <trkpt lat="44.74177" lon="4.9147">
        <ele>145.8</ele>
        <time>2021-07-10T06:30:33</time>
      </trkpt>
      <trkpt lat="44.7418" lon="4.91464">
        <ele>145.8</ele>
        <time>2021-07-10T06:30:34</time>
      </trkpt>
      <trkpt lat="44.74184" lon="4.91452">
        <ele>145.8</ele>
        <time>2021-07-10T06:30:35</time>
      </trkpt>
      <trkpt lat="44.74184" lon="4.91452">
        <ele>145.8</ele>
        <time>2021-07-10T06:30:36</time>
      </trkpt>
      <trkpt lat="44.74186" lon="4.91446">
        <ele>145.8</ele>
        <time>2021-07-10T06:30:37</time>
      </trkpt>
      <trkpt lat="44.74189" lon="4.9144">
        <ele>145.8</ele>
        <time>2021-07-10T06:30:38</time>
      </trkpt>
      <trkpt lat="44.74191" lon="4.91434">
        <ele>146</ele>
        <time>2021-07-10T06:30:39</time>
      </trkpt>
      <trkpt lat="44.74194" lon="4.91428">
        <ele>146</ele>
        <time>2021-07-10T06:30:40</time>
      </trkpt>
      <trkpt lat="44.74197" lon="4.91422">
        <ele>146</ele>
        <time>2021-07-10T06:30:41</time>
      </trkpt>
      <trkpt lat="44.742" lon="4.91417">
        <ele>146</ele>
        <time>2021-07-10T06:30:42</time>
      </trkpt>
      <trkpt lat="44.74205" lon="4.91407">
        <ele>146</ele>
        <time>2021-07-10T06:30:43</time>
      </trkpt>
      <trkpt lat="44.74205" lon="4.91407">
        <ele>146</ele>
        <time>2021-07-10T06:30:44</time>
      </trkpt>
      <trkpt lat="44.74207" lon="4.91401">
        <ele>146</ele>
        <time>2021-07-10T06:30:45</time>
      </trkpt>
      <trkpt lat="44.74207" lon="4.91396">
        <ele>146</ele>
        <time>2021-07-10T06:30:46</time>
      </trkpt>
      <trkpt lat="44.74209" lon="4.9139">
        <ele>145.4</ele>
        <time>2021-07-10T06:30:47</time>
      </trkpt>
      <trkpt lat="44.74212" lon="4.91385">
        <ele>145.2</ele>
        <time>2021-07-10T06:30:48</time>
      </trkpt>
      <trkpt lat="44.74213" lon="4.91379">
        <ele>144.2</ele>
        <time>2021-07-10T06:30:49</time>
      </trkpt>
      <trkpt lat="44.74216" lon="4.91366">
        <ele>140.6</ele>
        <time>2021-07-10T06:30:50</time>
      </trkpt>
      <trkpt lat="44.74216" lon="4.91366">
        <ele>136.4</ele>
        <time>2021-07-10T06:30:51</time>
      </trkpt>
      <trkpt lat="44.74217" lon="4.91359">
        <ele>136.4</ele>
        <time>2021-07-10T06:30:52</time>
      </trkpt>
      <trkpt lat="44.74221" lon="4.91348">
        <ele>136.4</ele>
        <time>2021-07-10T06:30:53</time>
      </trkpt>
      <trkpt lat="44.74221" lon="4.91348">
        <ele>142.2</ele>
        <time>2021-07-10T06:30:54</time>
      </trkpt>
      <trkpt lat="44.74227" lon="4.91337">
        <ele>146.6</ele>
        <time>2021-07-10T06:30:55</time>
      </trkpt>
      <trkpt lat="44.74227" lon="4.91337">
        <ele>147.4</ele>
        <time>2021-07-10T06:30:56</time>
      </trkpt>
      <trkpt lat="44.74228" lon="4.9133">
        <ele>147.4</ele>
        <time>2021-07-10T06:30:57</time>
      </trkpt>
      <trkpt lat="44.74234" lon="4.91317">
        <ele>146.6</ele>
        <time>2021-07-10T06:30:58</time>
      </trkpt>
      <trkpt lat="44.74234" lon="4.91317">
        <ele>146.6</ele>
        <time>2021-07-10T06:30:59</time>
      </trkpt>
      <trkpt lat="44.7424" lon="4.91304">
        <ele>146.4</ele>
        <time>2021-07-10T06:31:00</time>
      </trkpt>
      <trkpt lat="44.7424" lon="4.91304">
        <ele>146.6</ele>
        <time>2021-07-10T06:31:01</time>
      </trkpt>
      <trkpt lat="44.7424" lon="4.91297">
        <ele>146.4</ele>
        <time>2021-07-10T06:31:02</time>
      </trkpt>
      <trkpt lat="44.74239" lon="4.91289">
        <ele>146.4</ele>
        <time>2021-07-10T06:31:03</time>
      </trkpt>
      <trkpt lat="44.74242" lon="4.91282">
        <ele>146</ele>
        <time>2021-07-10T06:31:04</time>
      </trkpt>
      <trkpt lat="44.74244" lon="4.91277">
        <ele>145.6</ele>
        <time>2021-07-10T06:31:05</time>
      </trkpt>
      <trkpt lat="44.74247" lon="4.91273">
        <ele>145.2</ele>
        <time>2021-07-10T06:31:06</time>
      </trkpt>
      <trkpt lat="44.74253" lon="4.91269">
        <ele>144.8</ele>
        <time>2021-07-10T06:31:07</time>
      </trkpt>
      <trkpt lat="44.74254" lon="4.91262">
        <ele>144.4</ele>
        <time>2021-07-10T06:31:08</time>
      </trkpt>
      <trkpt lat="44.74255" lon="4.91258">
        <ele>144.2</ele>
        <time>2021-07-10T06:31:09</time>
      </trkpt>
      <trkpt lat="44.74256" lon="4.91254">
        <ele>144.2</ele>
        <time>2021-07-10T06:31:10</time>
      </trkpt>
      <trkpt lat="44.74259" lon="4.91247">
        <ele>144.2</ele>
        <time>2021-07-10T06:31:11</time>
      </trkpt>
      <trkpt lat="44.74267" lon="4.91233">
        <ele>144.2</ele>
        <time>2021-07-10T06:31:12</time>
      </trkpt>
      <trkpt lat="44.74271" lon="4.91228">
        <ele>144</ele>
        <time>2021-07-10T06:31:13</time>
      </trkpt>
      <trkpt lat="44.74271" lon="4.91228">
        <ele>144</ele>
        <time>2021-07-10T06:31:14</time>
      </trkpt>
      <trkpt lat="44.74273" lon="4.91222">
        <ele>144</ele>
        <time>2021-07-10T06:31:15</time>
      </trkpt>
      <trkpt lat="44.74276" lon="4.91214">
        <ele>144</ele>
        <time>2021-07-10T06:31:16</time>
      </trkpt>
      <trkpt lat="44.74278" lon="4.91209">
        <ele>144</ele>
        <time>2021-07-10T06:31:17</time>
      </trkpt>
      <trkpt lat="44.74283" lon="4.91197">
        <ele>144</ele>
        <time>2021-07-10T06:31:18</time>
      </trkpt>
      <trkpt lat="44.74283" lon="4.91197">
        <ele>144</ele>
        <time>2021-07-10T06:31:19</time>
      </trkpt>
      <trkpt lat="44.74287" lon="4.91183">
        <ele>144</ele>
        <time>2021-07-10T06:31:20</time>
      </trkpt>
      <trkpt lat="44.74287" lon="4.91183">
        <ele>143.8</ele>
        <time>2021-07-10T06:31:21</time>
      </trkpt>
      <trkpt lat="44.74292" lon="4.9117">
        <ele>143.8</ele>
        <time>2021-07-10T06:31:22</time>
      </trkpt>
      <trkpt lat="44.74292" lon="4.9117">
        <ele>143.8</ele>
        <time>2021-07-10T06:31:23</time>
      </trkpt>
      <trkpt lat="44.74297" lon="4.91156">
        <ele>143.8</ele>
        <time>2021-07-10T06:31:24</time>
      </trkpt>
      <trkpt lat="44.74297" lon="4.91156">
        <ele>143.8</ele>
        <time>2021-07-10T06:31:25</time>
      </trkpt>
      <trkpt lat="44.74303" lon="4.91143">
        <ele>144</ele>
        <time>2021-07-10T06:31:26</time>
      </trkpt>
      <trkpt lat="44.74303" lon="4.91143">
        <ele>144</ele>
        <time>2021-07-10T06:31:27</time>
      </trkpt>
      <trkpt lat="44.74308" lon="4.9113">
        <ele>143.8</ele>
        <time>2021-07-10T06:31:28</time>
      </trkpt>
      <trkpt lat="44.74308" lon="4.9113">
        <ele>143.8</ele>
        <time>2021-07-10T06:31:29</time>
      </trkpt>
      <trkpt lat="44.74313" lon="4.91124">
        <ele>143.8</ele>
        <time>2021-07-10T06:31:30</time>
      </trkpt>
      <trkpt lat="44.74315" lon="4.91116">
        <ele>143.8</ele>
        <time>2021-07-10T06:31:31</time>
      </trkpt>
      <trkpt lat="44.74317" lon="4.9111">
        <ele>143.6</ele>
        <time>2021-07-10T06:31:32</time>
      </trkpt>
      <trkpt lat="44.7432" lon="4.91104">
        <ele>143.6</ele>
        <time>2021-07-10T06:31:33</time>
      </trkpt>
      <trkpt lat="44.74323" lon="4.911">
        <ele>143.6</ele>
        <time>2021-07-10T06:31:34</time>
      </trkpt>
      <trkpt lat="44.74325" lon="4.91091">
        <ele>143.6</ele>
        <time>2021-07-10T06:31:35</time>
      </trkpt>
      <trkpt lat="44.74328" lon="4.91085">
        <ele>143.4</ele>
        <time>2021-07-10T06:31:36</time>
      </trkpt>
      <trkpt lat="44.7433" lon="4.91079">
        <ele>143.4</ele>
        <time>2021-07-10T06:31:37</time>
      </trkpt>
      <trkpt lat="44.74332" lon="4.91072">
        <ele>143</ele>
        <time>2021-07-10T06:31:38</time>
      </trkpt>
      <trkpt lat="44.74332" lon="4.91072">
        <ele>143</ele>
        <time>2021-07-10T06:31:39</time>
      </trkpt>
      <trkpt lat="44.74337" lon="4.91059">
        <ele>142.8</ele>
        <time>2021-07-10T06:31:40</time>
      </trkpt>
      <trkpt lat="44.74339" lon="4.91053">
        <ele>142.8</ele>
        <time>2021-07-10T06:31:41</time>
      </trkpt>
      <trkpt lat="44.74342" lon="4.91047">
        <ele>142.6</ele>
        <time>2021-07-10T06:31:42</time>
      </trkpt>
      <trkpt lat="44.74344" lon="4.9104">
        <ele>142.6</ele>
        <time>2021-07-10T06:31:43</time>
      </trkpt>
      <trkpt lat="44.74346" lon="4.91032">
        <ele>142.4</ele>
        <time>2021-07-10T06:31:44</time>
      </trkpt>
      <trkpt lat="44.74351" lon="4.91018">
        <ele>142.4</ele>
        <time>2021-07-10T06:31:45</time>
      </trkpt>
      <trkpt lat="44.74351" lon="4.91018">
        <ele>142.4</ele>
        <time>2021-07-10T06:31:46</time>
      </trkpt>
      <trkpt lat="44.74354" lon="4.91012">
        <ele>142.4</ele>
        <time>2021-07-10T06:31:47</time>
      </trkpt>
      <trkpt lat="44.74356" lon="4.91004">
        <ele>142.2</ele>
        <time>2021-07-10T06:31:48</time>
      </trkpt>
      <trkpt lat="44.74357" lon="4.90996">
        <ele>142.2</ele>
        <time>2021-07-10T06:31:49</time>
      </trkpt>
      <trkpt lat="44.74362" lon="4.90991">
        <ele>142.2</ele>
        <time>2021-07-10T06:31:50</time>
      </trkpt>
      <trkpt lat="44.74365" lon="4.90983">
        <ele>142.2</ele>
        <time>2021-07-10T06:31:51</time>
      </trkpt>
      <trkpt lat="44.74369" lon="4.90976">
        <ele>142</ele>
        <time>2021-07-10T06:31:52</time>
      </trkpt>
      <trkpt lat="44.74375" lon="4.90962">
        <ele>142</ele>
        <time>2021-07-10T06:31:53</time>
      </trkpt>
      <trkpt lat="44.74375" lon="4.90962">
        <ele>142</ele>
        <time>2021-07-10T06:31:54</time>
      </trkpt>
      <trkpt lat="44.74377" lon="4.90956">
        <ele>142</ele>
        <time>2021-07-10T06:31:55</time>
      </trkpt>
      <trkpt lat="44.74379" lon="4.90949">
        <ele>141.8</ele>
        <time>2021-07-10T06:31:56</time>
      </trkpt>
      <trkpt lat="44.74382" lon="4.90942">
        <ele>141.8</ele>
        <time>2021-07-10T06:31:57</time>
      </trkpt>
      <trkpt lat="44.74382" lon="4.90942">
        <ele>141.8</ele>
        <time>2021-07-10T06:31:58</time>
      </trkpt>
      <trkpt lat="44.74388" lon="4.90925">
        <ele>141.8</ele>
        <time>2021-07-10T06:31:59</time>
      </trkpt>
      <trkpt lat="44.74394" lon="4.90911">
        <ele>141.8</ele>
        <time>2021-07-10T06:32:00</time>
      </trkpt>
      <trkpt lat="44.74394" lon="4.90911">
        <ele>141.6</ele>
        <time>2021-07-10T06:32:01</time>
      </trkpt>
      <trkpt lat="44.74397" lon="4.90904">
        <ele>141.6</ele>
        <time>2021-07-10T06:32:02</time>
      </trkpt>
      <trkpt lat="44.74399" lon="4.90898">
        <ele>141.6</ele>
        <time>2021-07-10T06:32:03</time>
      </trkpt>
      <trkpt lat="44.74402" lon="4.90891">
        <ele>141.6</ele>
        <time>2021-07-10T06:32:04</time>
      </trkpt>
      <trkpt lat="44.74402" lon="4.90891">
        <ele>141.4</ele>
        <time>2021-07-10T06:32:05</time>
      </trkpt>
      <trkpt lat="44.74408" lon="4.90876">
        <ele>141.2</ele>
        <time>2021-07-10T06:32:06</time>
      </trkpt>
      <trkpt lat="44.74413" lon="4.9086">
        <ele>141.2</ele>
        <time>2021-07-10T06:32:07</time>
      </trkpt>
      <trkpt lat="44.74413" lon="4.9086">
        <ele>141.2</ele>
        <time>2021-07-10T06:32:08</time>
      </trkpt>
      <trkpt lat="44.74417" lon="4.90852">
        <ele>141.2</ele>
        <time>2021-07-10T06:32:09</time>
      </trkpt>
      <trkpt lat="44.7442" lon="4.90845">
        <ele>141.2</ele>
        <time>2021-07-10T06:32:10</time>
      </trkpt>
      <trkpt lat="44.74423" lon="4.90838">
        <ele>141</ele>
        <time>2021-07-10T06:32:11</time>
      </trkpt>
      <trkpt lat="44.74426" lon="4.9083">
        <ele>141</ele>
        <time>2021-07-10T06:32:12</time>
      </trkpt>
      <trkpt lat="44.74429" lon="4.90822">
        <ele>141</ele>
        <time>2021-07-10T06:32:13</time>
      </trkpt>
      <trkpt lat="44.74432" lon="4.90815">
        <ele>141</ele>
        <time>2021-07-10T06:32:14</time>
      </trkpt>
      <trkpt lat="44.74438" lon="4.90801">
        <ele>141</ele>
        <time>2021-07-10T06:32:15</time>
      </trkpt>
      <trkpt lat="44.74438" lon="4.90801">
        <ele>141</ele>
        <time>2021-07-10T06:32:16</time>
      </trkpt>
      <trkpt lat="44.7444" lon="4.90794">
        <ele>140.8</ele>
        <time>2021-07-10T06:32:17</time>
      </trkpt>
      <trkpt lat="44.74442" lon="4.90786">
        <ele>140.8</ele>
        <time>2021-07-10T06:32:18</time>
      </trkpt>
      <trkpt lat="44.74445" lon="4.90779">
        <ele>140.8</ele>
        <time>2021-07-10T06:32:19</time>
      </trkpt>
      <trkpt lat="44.74451" lon="4.90765">
        <ele>140.8</ele>
        <time>2021-07-10T06:32:20</time>
      </trkpt>
      <trkpt lat="44.74451" lon="4.90765">
        <ele>140.6</ele>
        <time>2021-07-10T06:32:21</time>
      </trkpt>
      <trkpt lat="44.74453" lon="4.90757">
        <ele>140.6</ele>
        <time>2021-07-10T06:32:22</time>
      </trkpt>
      <trkpt lat="44.74457" lon="4.9075">
        <ele>140.6</ele>
        <time>2021-07-10T06:32:23</time>
      </trkpt>
      <trkpt lat="44.74462" lon="4.90736">
        <ele>140.6</ele>
        <time>2021-07-10T06:32:24</time>
      </trkpt>
      <trkpt lat="44.74462" lon="4.90736">
        <ele>140.4</ele>
        <time>2021-07-10T06:32:25</time>
      </trkpt>
      <trkpt lat="44.74466" lon="4.9073">
        <ele>140.4</ele>
        <time>2021-07-10T06:32:26</time>
      </trkpt>
      <trkpt lat="44.74469" lon="4.90722">
        <ele>140.4</ele>
        <time>2021-07-10T06:32:27</time>
      </trkpt>
      <trkpt lat="44.74469" lon="4.90722">
        <ele>140.4</ele>
        <time>2021-07-10T06:32:28</time>
      </trkpt>
      <trkpt lat="44.74475" lon="4.90707">
        <ele>140.4</ele>
        <time>2021-07-10T06:32:29</time>
      </trkpt>
      <trkpt lat="44.74481" lon="4.90691">
        <ele>140.2</ele>
        <time>2021-07-10T06:32:30</time>
      </trkpt>
      <trkpt lat="44.74481" lon="4.90691">
        <ele>140.2</ele>
        <time>2021-07-10T06:32:31</time>
      </trkpt>
      <trkpt lat="44.74483" lon="4.90684">
        <ele>140.2</ele>
        <time>2021-07-10T06:32:32</time>
      </trkpt>
      <trkpt lat="44.74485" lon="4.90677">
        <ele>140.2</ele>
        <time>2021-07-10T06:32:33</time>
      </trkpt>
      <trkpt lat="44.7449" lon="4.90662">
        <ele>140.2</ele>
        <time>2021-07-10T06:32:34</time>
      </trkpt>
      <trkpt lat="44.7449" lon="4.90662">
        <ele>140.2</ele>
        <time>2021-07-10T06:32:35</time>
      </trkpt>
      <trkpt lat="44.74492" lon="4.90654">
        <ele>140.2</ele>
        <time>2021-07-10T06:32:36</time>
      </trkpt>
      <trkpt lat="44.74498" lon="4.90639">
        <ele>140.4</ele>
        <time>2021-07-10T06:32:37</time>
      </trkpt>
      <trkpt lat="44.74498" lon="4.90639">
        <ele>140.6</ele>
        <time>2021-07-10T06:32:38</time>
      </trkpt>
      <trkpt lat="44.745" lon="4.90631">
        <ele>140.8</ele>
        <time>2021-07-10T06:32:39</time>
      </trkpt>
      <trkpt lat="44.74503" lon="4.90626">
        <ele>140.8</ele>
        <time>2021-07-10T06:32:40</time>
      </trkpt>
      <trkpt lat="44.74506" lon="4.90619">
        <ele>140.8</ele>
        <time>2021-07-10T06:32:41</time>
      </trkpt>
      <trkpt lat="44.7451" lon="4.90612">
        <ele>140.8</ele>
        <time>2021-07-10T06:32:42</time>
      </trkpt>
      <trkpt lat="44.74512" lon="4.90605">
        <ele>140.8</ele>
        <time>2021-07-10T06:32:43</time>
      </trkpt>
      <trkpt lat="44.74514" lon="4.90597">
        <ele>140.8</ele>
        <time>2021-07-10T06:32:44</time>
      </trkpt>
      <trkpt lat="44.7452" lon="4.9058">
        <ele>140.8</ele>
        <time>2021-07-10T06:32:45</time>
      </trkpt>
      <trkpt lat="44.7452" lon="4.9058">
        <ele>140.8</ele>
        <time>2021-07-10T06:32:46</time>
      </trkpt>
      <trkpt lat="44.74524" lon="4.90574">
        <ele>140.6</ele>
        <time>2021-07-10T06:32:47</time>
      </trkpt>
      <trkpt lat="44.74527" lon="4.90569">
        <ele>140.6</ele>
        <time>2021-07-10T06:32:48</time>
      </trkpt>
      <trkpt lat="44.74529" lon="4.90564">
        <ele>140.6</ele>
        <time>2021-07-10T06:32:49</time>
      </trkpt>
      <trkpt lat="44.74532" lon="4.90557">
        <ele>140.6</ele>
        <time>2021-07-10T06:32:50</time>
      </trkpt>
      <trkpt lat="44.74533" lon="4.90548">
        <ele>140.6</ele>
        <time>2021-07-10T06:32:51</time>
      </trkpt>
      <trkpt lat="44.74536" lon="4.90542">
        <ele>140.6</ele>
        <time>2021-07-10T06:32:52</time>
      </trkpt>
      <trkpt lat="44.74539" lon="4.90535">
        <ele>140.4</ele>
        <time>2021-07-10T06:32:53</time>
      </trkpt>
      <trkpt lat="44.74541" lon="4.90527">
        <ele>140.4</ele>
        <time>2021-07-10T06:32:54</time>
      </trkpt>
      <trkpt lat="44.74544" lon="4.90519">
        <ele>140.2</ele>
        <time>2021-07-10T06:32:55</time>
      </trkpt>
      <trkpt lat="44.74546" lon="4.90512">
        <ele>140.2</ele>
        <time>2021-07-10T06:32:56</time>
      </trkpt>
      <trkpt lat="44.74549" lon="4.90505">
        <ele>140</ele>
        <time>2021-07-10T06:32:57</time>
      </trkpt>
      <trkpt lat="44.74552" lon="4.90498">
        <ele>140</ele>
        <time>2021-07-10T06:32:58</time>
      </trkpt>
      <trkpt lat="44.74554" lon="4.90491">
        <ele>140</ele>
        <time>2021-07-10T06:32:59</time>
      </trkpt>
      <trkpt lat="44.7456" lon="4.90477">
        <ele>139.8</ele>
        <time>2021-07-10T06:33:00</time>
      </trkpt>
      <trkpt lat="44.7456" lon="4.90477">
        <ele>139.8</ele>
        <time>2021-07-10T06:33:01</time>
      </trkpt>
      <trkpt lat="44.74566" lon="4.90464">
        <ele>139.8</ele>
        <time>2021-07-10T06:33:02</time>
      </trkpt>
      <trkpt lat="44.74566" lon="4.90464">
        <ele>140</ele>
        <time>2021-07-10T06:33:03</time>
      </trkpt>
      <trkpt lat="44.74569" lon="4.90458">
        <ele>140</ele>
        <time>2021-07-10T06:33:04</time>
      </trkpt>
      <trkpt lat="44.74571" lon="4.90451">
        <ele>140</ele>
        <time>2021-07-10T06:33:05</time>
      </trkpt>
      <trkpt lat="44.74574" lon="4.90444">
        <ele>140</ele>
        <time>2021-07-10T06:33:06</time>
      </trkpt>
      <trkpt lat="44.74577" lon="4.90437">
        <ele>140</ele>
        <time>2021-07-10T06:33:07</time>
      </trkpt>
      <trkpt lat="44.74579" lon="4.90429">
        <ele>140</ele>
        <time>2021-07-10T06:33:08</time>
      </trkpt>
      <trkpt lat="44.74581" lon="4.90422">
        <ele>140</ele>
        <time>2021-07-10T06:33:09</time>
      </trkpt>
      <trkpt lat="44.74583" lon="4.90416">
        <ele>140</ele>
        <time>2021-07-10T06:33:10</time>
      </trkpt>
      <trkpt lat="44.74584" lon="4.90409">
        <ele>140</ele>
        <time>2021-07-10T06:33:11</time>
      </trkpt>
      <trkpt lat="44.74587" lon="4.90401">
        <ele>140</ele>
        <time>2021-07-10T06:33:12</time>
      </trkpt>
      <trkpt lat="44.74594" lon="4.90393">
        <ele>140</ele>
        <time>2021-07-10T06:33:13</time>
      </trkpt>
      <trkpt lat="44.74596" lon="4.90386">
        <ele>140.2</ele>
        <time>2021-07-10T06:33:14</time>
      </trkpt>
      <trkpt lat="44.74601" lon="4.90372">
        <ele>140.4</ele>
        <time>2021-07-10T06:33:15</time>
      </trkpt>
      <trkpt lat="44.74601" lon="4.90372">
        <ele>140.6</ele>
        <time>2021-07-10T06:33:16</time>
      </trkpt>
      <trkpt lat="44.74603" lon="4.90366">
        <ele>140.8</ele>
        <time>2021-07-10T06:33:17</time>
      </trkpt>
      <trkpt lat="44.74604" lon="4.9036">
        <ele>141</ele>
        <time>2021-07-10T06:33:18</time>
      </trkpt>
      <trkpt lat="44.74604" lon="4.9036">
        <ele>141.4</ele>
        <time>2021-07-10T06:33:19</time>
      </trkpt>
      <trkpt lat="44.74608" lon="4.90347">
        <ele>141.6</ele>
        <time>2021-07-10T06:33:20</time>
      </trkpt>
      <trkpt lat="44.74611" lon="4.90339">
        <ele>141.8</ele>
        <time>2021-07-10T06:33:21</time>
      </trkpt>
      <trkpt lat="44.74615" lon="4.90327">
        <ele>141.8</ele>
        <time>2021-07-10T06:33:22</time>
      </trkpt>
      <trkpt lat="44.74615" lon="4.90327">
        <ele>141.8</ele>
        <time>2021-07-10T06:33:23</time>
      </trkpt>
      <trkpt lat="44.74617" lon="4.90321">
        <ele>141.8</ele>
        <time>2021-07-10T06:33:24</time>
      </trkpt>
      <trkpt lat="44.74617" lon="4.90321">
        <ele>141.8</ele>
        <time>2021-07-10T06:33:25</time>
      </trkpt>
      <trkpt lat="44.74625" lon="4.90308">
        <ele>141.6</ele>
        <time>2021-07-10T06:33:26</time>
      </trkpt>
      <trkpt lat="44.74627" lon="4.90299">
        <ele>141.4</ele>
        <time>2021-07-10T06:33:27</time>
      </trkpt>
      <trkpt lat="44.7463" lon="4.90288">
        <ele>141.2</ele>
        <time>2021-07-10T06:33:28</time>
      </trkpt>
      <trkpt lat="44.74633" lon="4.9028">
        <ele>140.8</ele>
        <time>2021-07-10T06:33:29</time>
      </trkpt>
      <trkpt lat="44.74637" lon="4.90273">
        <ele>140.6</ele>
        <time>2021-07-10T06:33:30</time>
      </trkpt>
      <trkpt lat="44.7464" lon="4.90264">
        <ele>140.4</ele>
        <time>2021-07-10T06:33:31</time>
      </trkpt>
      <trkpt lat="44.74644" lon="4.90257">
        <ele>140.4</ele>
        <time>2021-07-10T06:33:32</time>
      </trkpt>
      <trkpt lat="44.74648" lon="4.90249">
        <ele>140.2</ele>
        <time>2021-07-10T06:33:33</time>
      </trkpt>
      <trkpt lat="44.7465" lon="4.9024">
        <ele>140.2</ele>
        <time>2021-07-10T06:33:34</time>
      </trkpt>
      <trkpt lat="44.74656" lon="4.90223">
        <ele>140</ele>
        <time>2021-07-10T06:33:35</time>
      </trkpt>
      <trkpt lat="44.74656" lon="4.90223">
        <ele>140</ele>
        <time>2021-07-10T06:33:36</time>
      </trkpt>
      <trkpt lat="44.74659" lon="4.90216">
        <ele>139.8</ele>
        <time>2021-07-10T06:33:37</time>
      </trkpt>
      <trkpt lat="44.74659" lon="4.90216">
        <ele>139.6</ele>
        <time>2021-07-10T06:33:38</time>
      </trkpt>
      <trkpt lat="44.74663" lon="4.90197">
        <ele>139.6</ele>
        <time>2021-07-10T06:33:39</time>
      </trkpt>
      <trkpt lat="44.74669" lon="4.9018">
        <ele>139.6</ele>
        <time>2021-07-10T06:33:40</time>
      </trkpt>
      <trkpt lat="44.74669" lon="4.9018">
        <ele>139.4</ele>
        <time>2021-07-10T06:33:41</time>
      </trkpt>
      <trkpt lat="44.74673" lon="4.90173">
        <ele>139.4</ele>
        <time>2021-07-10T06:33:42</time>
      </trkpt>
      <trkpt lat="44.74675" lon="4.90166">
        <ele>139.4</ele>
        <time>2021-07-10T06:33:43</time>
      </trkpt>
      <trkpt lat="44.74678" lon="4.90157">
        <ele>139.4</ele>
        <time>2021-07-10T06:33:44</time>
      </trkpt>
      <trkpt lat="44.74685" lon="4.90142">
        <ele>139.2</ele>
        <time>2021-07-10T06:33:45</time>
      </trkpt>
      <trkpt lat="44.74685" lon="4.90142">
        <ele>139.2</ele>
        <time>2021-07-10T06:33:46</time>
      </trkpt>
      <trkpt lat="44.74689" lon="4.90134">
        <ele>139.2</ele>
        <time>2021-07-10T06:33:47</time>
      </trkpt>
      <trkpt lat="44.74692" lon="4.90127">
        <ele>139.2</ele>
        <time>2021-07-10T06:33:48</time>
      </trkpt>
      <trkpt lat="44.74695" lon="4.9012">
        <ele>139.2</ele>
        <time>2021-07-10T06:33:49</time>
      </trkpt>
      <trkpt lat="44.74697" lon="4.90113">
        <ele>139.2</ele>
        <time>2021-07-10T06:33:50</time>
      </trkpt>
      <trkpt lat="44.74701" lon="4.90104">
        <ele>139</ele>
        <time>2021-07-10T06:33:51</time>
      </trkpt>
      <trkpt lat="44.74705" lon="4.90098">
        <ele>139</ele>
        <time>2021-07-10T06:33:52</time>
      </trkpt>
      <trkpt lat="44.7471" lon="4.90091">
        <ele>138.8</ele>
        <time>2021-07-10T06:33:53</time>
      </trkpt>
      <trkpt lat="44.74713" lon="4.90082">
        <ele>138.8</ele>
        <time>2021-07-10T06:33:54</time>
      </trkpt>
      <trkpt lat="44.74715" lon="4.90073">
        <ele>138.6</ele>
        <time>2021-07-10T06:33:55</time>
      </trkpt>
      <trkpt lat="44.74715" lon="4.90073">
        <ele>138.4</ele>
        <time>2021-07-10T06:33:56</time>
      </trkpt>
      <trkpt lat="44.7472" lon="4.90059">
        <ele>138.4</ele>
        <time>2021-07-10T06:33:57</time>
      </trkpt>
      <trkpt lat="44.74723" lon="4.90051">
        <ele>138.4</ele>
        <time>2021-07-10T06:33:58</time>
      </trkpt>
      <trkpt lat="44.74726" lon="4.90043">
        <ele>138.4</ele>
        <time>2021-07-10T06:33:59</time>
      </trkpt>
      <trkpt lat="44.74731" lon="4.90028">
        <ele>138.4</ele>
        <time>2021-07-10T06:34:00</time>
      </trkpt>
      <trkpt lat="44.74731" lon="4.90028">
        <ele>138.4</ele>
        <time>2021-07-10T06:34:01</time>
      </trkpt>
      <trkpt lat="44.74731" lon="4.90022">
        <ele>138.4</ele>
        <time>2021-07-10T06:34:02</time>
      </trkpt>
      <trkpt lat="44.74736" lon="4.90008">
        <ele>138.4</ele>
        <time>2021-07-10T06:34:03</time>
      </trkpt>
      <trkpt lat="44.74736" lon="4.90008">
        <ele>138.4</ele>
        <time>2021-07-10T06:34:04</time>
      </trkpt>
      <trkpt lat="44.74739" lon="4.90001">
        <ele>138.4</ele>
        <time>2021-07-10T06:34:05</time>
      </trkpt>
      <trkpt lat="44.74741" lon="4.89996">
        <ele>138.4</ele>
        <time>2021-07-10T06:34:06</time>
      </trkpt>
      <trkpt lat="44.74744" lon="4.89988">
        <ele>138.4</ele>
        <time>2021-07-10T06:34:07</time>
      </trkpt>
      <trkpt lat="44.74747" lon="4.89981">
        <ele>138.4</ele>
        <time>2021-07-10T06:34:08</time>
      </trkpt>
      <trkpt lat="44.7475" lon="4.89974">
        <ele>138.4</ele>
        <time>2021-07-10T06:34:09</time>
      </trkpt>
      <trkpt lat="44.74755" lon="4.8996">
        <ele>138.4</ele>
        <time>2021-07-10T06:34:10</time>
      </trkpt>
      <trkpt lat="44.74755" lon="4.8996">
        <ele>138.4</ele>
        <time>2021-07-10T06:34:11</time>
      </trkpt>
      <trkpt lat="44.74758" lon="4.89951">
        <ele>138.2</ele>
        <time>2021-07-10T06:34:12</time>
      </trkpt>
      <trkpt lat="44.74765" lon="4.89936">
        <ele>138.2</ele>
        <time>2021-07-10T06:34:13</time>
      </trkpt>
      <trkpt lat="44.74765" lon="4.89936">
        <ele>138.2</ele>
        <time>2021-07-10T06:34:14</time>
      </trkpt>
      <trkpt lat="44.74769" lon="4.89929">
        <ele>138.2</ele>
        <time>2021-07-10T06:34:15</time>
      </trkpt>
      <trkpt lat="44.74776" lon="4.89913">
        <ele>138.2</ele>
        <time>2021-07-10T06:34:16</time>
      </trkpt>
      <trkpt lat="44.74776" lon="4.89913">
        <ele>138.2</ele>
        <time>2021-07-10T06:34:17</time>
      </trkpt>
      <trkpt lat="44.74779" lon="4.89906">
        <ele>138.2</ele>
        <time>2021-07-10T06:34:18</time>
      </trkpt>
      <trkpt lat="44.7478" lon="4.899">
        <ele>138.2</ele>
        <time>2021-07-10T06:34:19</time>
      </trkpt>
      <trkpt lat="44.74786" lon="4.89884">
        <ele>138</ele>
        <time>2021-07-10T06:34:20</time>
      </trkpt>
      <trkpt lat="44.74786" lon="4.89884">
        <ele>138</ele>
        <time>2021-07-10T06:34:21</time>
      </trkpt>
      <trkpt lat="44.74789" lon="4.89876">
        <ele>138</ele>
        <time>2021-07-10T06:34:22</time>
      </trkpt>
      <trkpt lat="44.74791" lon="4.89868">
        <ele>138</ele>
        <time>2021-07-10T06:34:23</time>
      </trkpt>
      <trkpt lat="44.74794" lon="4.89862">
        <ele>138</ele>
        <time>2021-07-10T06:34:24</time>
      </trkpt>
      <trkpt lat="44.74797" lon="4.89854">
        <ele>138</ele>
        <time>2021-07-10T06:34:25</time>
      </trkpt>
      <trkpt lat="44.74799" lon="4.89846">
        <ele>138</ele>
        <time>2021-07-10T06:34:26</time>
      </trkpt>
      <trkpt lat="44.74802" lon="4.89838">
        <ele>138</ele>
        <time>2021-07-10T06:34:27</time>
      </trkpt>
      <trkpt lat="44.74807" lon="4.89824">
        <ele>138</ele>
        <time>2021-07-10T06:34:28</time>
      </trkpt>
      <trkpt lat="44.74807" lon="4.89824">
        <ele>137.8</ele>
        <time>2021-07-10T06:34:29</time>
      </trkpt>
      <trkpt lat="44.74809" lon="4.89816">
        <ele>137.8</ele>
        <time>2021-07-10T06:34:30</time>
      </trkpt>
      <trkpt lat="44.74814" lon="4.89808">
        <ele>137.8</ele>
        <time>2021-07-10T06:34:31</time>
      </trkpt>
      <trkpt lat="44.74816" lon="4.89802">
        <ele>137.8</ele>
        <time>2021-07-10T06:34:32</time>
      </trkpt>
      <trkpt lat="44.74819" lon="4.89795">
        <ele>137.8</ele>
        <time>2021-07-10T06:34:33</time>
      </trkpt>
      <trkpt lat="44.74823" lon="4.89789">
        <ele>137.8</ele>
        <time>2021-07-10T06:34:34</time>
      </trkpt>
      <trkpt lat="44.74826" lon="4.89781">
        <ele>137.8</ele>
        <time>2021-07-10T06:34:35</time>
      </trkpt>
      <trkpt lat="44.74831" lon="4.89767">
        <ele>137.8</ele>
        <time>2021-07-10T06:34:36</time>
      </trkpt>
      <trkpt lat="44.74831" lon="4.89767">
        <ele>137.8</ele>
        <time>2021-07-10T06:34:37</time>
      </trkpt>
      <trkpt lat="44.74833" lon="4.89758">
        <ele>137.8</ele>
        <time>2021-07-10T06:34:38</time>
      </trkpt>
      <trkpt lat="44.74836" lon="4.89751">
        <ele>137.8</ele>
        <time>2021-07-10T06:34:39</time>
      </trkpt>
      <trkpt lat="44.74839" lon="4.89742">
        <ele>137.8</ele>
        <time>2021-07-10T06:34:40</time>
      </trkpt>
      <trkpt lat="44.74841" lon="4.89734">
        <ele>137.8</ele>
        <time>2021-07-10T06:34:41</time>
      </trkpt>
      <trkpt lat="44.74843" lon="4.89727">
        <ele>137.8</ele>
        <time>2021-07-10T06:34:42</time>
      </trkpt>
      <trkpt lat="44.7485" lon="4.89712">
        <ele>137.8</ele>
        <time>2021-07-10T06:34:43</time>
      </trkpt>
      <trkpt lat="44.7485" lon="4.89712">
        <ele>137.8</ele>
        <time>2021-07-10T06:34:44</time>
      </trkpt>
      <trkpt lat="44.74853" lon="4.89703">
        <ele>137.8</ele>
        <time>2021-07-10T06:34:45</time>
      </trkpt>
      <trkpt lat="44.7486" lon="4.89688">
        <ele>137.8</ele>
        <time>2021-07-10T06:34:46</time>
      </trkpt>
      <trkpt lat="44.7486" lon="4.89688">
        <ele>137.8</ele>
        <time>2021-07-10T06:34:47</time>
      </trkpt>
      <trkpt lat="44.74863" lon="4.89682">
        <ele>137.8</ele>
        <time>2021-07-10T06:34:48</time>
      </trkpt>
      <trkpt lat="44.74866" lon="4.89674">
        <ele>137.8</ele>
        <time>2021-07-10T06:34:49</time>
      </trkpt>
      <trkpt lat="44.74874" lon="4.89658">
        <ele>137.8</ele>
        <time>2021-07-10T06:34:50</time>
      </trkpt>
      <trkpt lat="44.74874" lon="4.89658">
        <ele>137.6</ele>
        <time>2021-07-10T06:34:51</time>
      </trkpt>
      <trkpt lat="44.74878" lon="4.89651">
        <ele>137.6</ele>
        <time>2021-07-10T06:34:52</time>
      </trkpt>
      <trkpt lat="44.7488" lon="4.89644">
        <ele>137.6</ele>
        <time>2021-07-10T06:34:53</time>
      </trkpt>
      <trkpt lat="44.74882" lon="4.89636">
        <ele>137.6</ele>
        <time>2021-07-10T06:34:54</time>
      </trkpt>
      <trkpt lat="44.74888" lon="4.89619">
        <ele>137.6</ele>
        <time>2021-07-10T06:34:55</time>
      </trkpt>
      <trkpt lat="44.74888" lon="4.89619">
        <ele>137.8</ele>
        <time>2021-07-10T06:34:56</time>
      </trkpt>
      <trkpt lat="44.74891" lon="4.89611">
        <ele>137.8</ele>
        <time>2021-07-10T06:34:57</time>
      </trkpt>
      <trkpt lat="44.74896" lon="4.89596">
        <ele>137.8</ele>
        <time>2021-07-10T06:34:58</time>
      </trkpt>
      <trkpt lat="44.74896" lon="4.89596">
        <ele>137.8</ele>
        <time>2021-07-10T06:34:59</time>
      </trkpt>
      <trkpt lat="44.74899" lon="4.89587">
        <ele>137.6</ele>
        <time>2021-07-10T06:35:00</time>
      </trkpt>
      <trkpt lat="44.74902" lon="4.89579">
        <ele>137.6</ele>
        <time>2021-07-10T06:35:01</time>
      </trkpt>
      <trkpt lat="44.74907" lon="4.89564">
        <ele>137.6</ele>
        <time>2021-07-10T06:35:02</time>
      </trkpt>
      <trkpt lat="44.74907" lon="4.89564">
        <ele>137.6</ele>
        <time>2021-07-10T06:35:03</time>
      </trkpt>
      <trkpt lat="44.74911" lon="4.89557">
        <ele>137.6</ele>
        <time>2021-07-10T06:35:04</time>
      </trkpt>
      <trkpt lat="44.74915" lon="4.89549">
        <ele>137.6</ele>
        <time>2021-07-10T06:35:05</time>
      </trkpt>
      <trkpt lat="44.74918" lon="4.89542">
        <ele>137.6</ele>
        <time>2021-07-10T06:35:06</time>
      </trkpt>
      <trkpt lat="44.74921" lon="4.89534">
        <ele>137.6</ele>
        <time>2021-07-10T06:35:07</time>
      </trkpt>
      <trkpt lat="44.74924" lon="4.89527">
        <ele>137.6</ele>
        <time>2021-07-10T06:35:08</time>
      </trkpt>
      <trkpt lat="44.74927" lon="4.89519">
        <ele>137.6</ele>
        <time>2021-07-10T06:35:09</time>
      </trkpt>
      <trkpt lat="44.7493" lon="4.89511">
        <ele>137.4</ele>
        <time>2021-07-10T06:35:10</time>
      </trkpt>
      <trkpt lat="44.74934" lon="4.89503">
        <ele>137.4</ele>
        <time>2021-07-10T06:35:11</time>
      </trkpt>
      <trkpt lat="44.74937" lon="4.89496">
        <ele>137.2</ele>
        <time>2021-07-10T06:35:12</time>
      </trkpt>
      <trkpt lat="44.7494" lon="4.89488">
        <ele>137.2</ele>
        <time>2021-07-10T06:35:13</time>
      </trkpt>
      <trkpt lat="44.74944" lon="4.8948">
        <ele>137</ele>
        <time>2021-07-10T06:35:14</time>
      </trkpt>
      <trkpt lat="44.74946" lon="4.89471">
        <ele>137</ele>
        <time>2021-07-10T06:35:15</time>
      </trkpt>
      <trkpt lat="44.74948" lon="4.89463">
        <ele>137</ele>
        <time>2021-07-10T06:35:16</time>
      </trkpt>
      <trkpt lat="44.74951" lon="4.89455">
        <ele>137</ele>
        <time>2021-07-10T06:35:17</time>
      </trkpt>
      <trkpt lat="44.74954" lon="4.89448">
        <ele>136.8</ele>
        <time>2021-07-10T06:35:18</time>
      </trkpt>
      <trkpt lat="44.74957" lon="4.8944">
        <ele>136.8</ele>
        <time>2021-07-10T06:35:19</time>
      </trkpt>
      <trkpt lat="44.7496" lon="4.89432">
        <ele>136.8</ele>
        <time>2021-07-10T06:35:20</time>
      </trkpt>
      <trkpt lat="44.74963" lon="4.89424">
        <ele>136.6</ele>
        <time>2021-07-10T06:35:21</time>
      </trkpt>
      <trkpt lat="44.74966" lon="4.89416">
        <ele>136.6</ele>
        <time>2021-07-10T06:35:22</time>
      </trkpt>
      <trkpt lat="44.74969" lon="4.8941">
        <ele>136.6</ele>
        <time>2021-07-10T06:35:23</time>
      </trkpt>
      <trkpt lat="44.74972" lon="4.89402">
        <ele>136.6</ele>
        <time>2021-07-10T06:35:24</time>
      </trkpt>
      <trkpt lat="44.74975" lon="4.89394">
        <ele>136.6</ele>
        <time>2021-07-10T06:35:25</time>
      </trkpt>
      <trkpt lat="44.74977" lon="4.89386">
        <ele>136.6</ele>
        <time>2021-07-10T06:35:26</time>
      </trkpt>
      <trkpt lat="44.7498" lon="4.8938">
        <ele>136.6</ele>
        <time>2021-07-10T06:35:27</time>
      </trkpt>
      <trkpt lat="44.74982" lon="4.89372">
        <ele>136.6</ele>
        <time>2021-07-10T06:35:28</time>
      </trkpt>
      <trkpt lat="44.74985" lon="4.89365">
        <ele>136.6</ele>
        <time>2021-07-10T06:35:29</time>
      </trkpt>
      <trkpt lat="44.74991" lon="4.8935">
        <ele>136.4</ele>
        <time>2021-07-10T06:35:30</time>
      </trkpt>
      <trkpt lat="44.74991" lon="4.8935">
        <ele>136.4</ele>
        <time>2021-07-10T06:35:31</time>
      </trkpt>
      <trkpt lat="44.74997" lon="4.89335">
        <ele>136.4</ele>
        <time>2021-07-10T06:35:32</time>
      </trkpt>
      <trkpt lat="44.74997" lon="4.89335">
        <ele>136.4</ele>
        <time>2021-07-10T06:35:33</time>
      </trkpt>
      <trkpt lat="44.75" lon="4.89326">
        <ele>136.4</ele>
        <time>2021-07-10T06:35:34</time>
      </trkpt>
      <trkpt lat="44.75003" lon="4.8932">
        <ele>136.4</ele>
        <time>2021-07-10T06:35:35</time>
      </trkpt>
      <trkpt lat="44.75005" lon="4.89312">
        <ele>136.4</ele>
        <time>2021-07-10T06:35:36</time>
      </trkpt>
      <trkpt lat="44.75008" lon="4.89304">
        <ele>136.4</ele>
        <time>2021-07-10T06:35:37</time>
      </trkpt>
      <trkpt lat="44.75013" lon="4.89296">
        <ele>136.2</ele>
        <time>2021-07-10T06:35:38</time>
      </trkpt>
      <trkpt lat="44.75018" lon="4.8928">
        <ele>136.2</ele>
        <time>2021-07-10T06:35:39</time>
      </trkpt>
      <trkpt lat="44.75018" lon="4.8928">
        <ele>136</ele>
        <time>2021-07-10T06:35:40</time>
      </trkpt>
      <trkpt lat="44.75025" lon="4.89266">
        <ele>136</ele>
        <time>2021-07-10T06:35:41</time>
      </trkpt>
      <trkpt lat="44.75025" lon="4.89266">
        <ele>136</ele>
        <time>2021-07-10T06:35:42</time>
      </trkpt>
      <trkpt lat="44.75031" lon="4.8925">
        <ele>136</ele>
        <time>2021-07-10T06:35:43</time>
      </trkpt>
      <trkpt lat="44.75031" lon="4.8925">
        <ele>136</ele>
        <time>2021-07-10T06:35:44</time>
      </trkpt>
      <trkpt lat="44.75037" lon="4.89232">
        <ele>136</ele>
        <time>2021-07-10T06:35:45</time>
      </trkpt>
      <trkpt lat="44.75037" lon="4.89232">
        <ele>135.8</ele>
        <time>2021-07-10T06:35:46</time>
      </trkpt>
      <trkpt lat="44.7504" lon="4.89224">
        <ele>135.8</ele>
        <time>2021-07-10T06:35:47</time>
      </trkpt>
      <trkpt lat="44.75043" lon="4.89215">
        <ele>135.8</ele>
        <time>2021-07-10T06:35:48</time>
      </trkpt>
      <trkpt lat="44.75046" lon="4.89208">
        <ele>135.8</ele>
        <time>2021-07-10T06:35:49</time>
      </trkpt>
      <trkpt lat="44.75048" lon="4.892">
        <ele>135.8</ele>
        <time>2021-07-10T06:35:50</time>
      </trkpt>
      <trkpt lat="44.75051" lon="4.89192">
        <ele>135.8</ele>
        <time>2021-07-10T06:35:51</time>
      </trkpt>
      <trkpt lat="44.75054" lon="4.89184">
        <ele>136</ele>
        <time>2021-07-10T06:35:52</time>
      </trkpt>
      <trkpt lat="44.75054" lon="4.89184">
        <ele>136</ele>
        <time>2021-07-10T06:35:53</time>
      </trkpt>
      <trkpt lat="44.75058" lon="4.89171">
        <ele>136</ele>
        <time>2021-07-10T06:35:54</time>
      </trkpt>
      <trkpt lat="44.75062" lon="4.89163">
        <ele>136</ele>
        <time>2021-07-10T06:35:55</time>
      </trkpt>
      <trkpt lat="44.75065" lon="4.89155">
        <ele>136.2</ele>
        <time>2021-07-10T06:35:56</time>
      </trkpt>
      <trkpt lat="44.75068" lon="4.89147">
        <ele>136.2</ele>
        <time>2021-07-10T06:35:57</time>
      </trkpt>
      <trkpt lat="44.75069" lon="4.89138">
        <ele>136.2</ele>
        <time>2021-07-10T06:35:58</time>
      </trkpt>
      <trkpt lat="44.75071" lon="4.89132">
        <ele>136.2</ele>
        <time>2021-07-10T06:35:59</time>
      </trkpt>
      <trkpt lat="44.75078" lon="4.8912">
        <ele>136.2</ele>
        <time>2021-07-10T06:36:00</time>
      </trkpt>
      <trkpt lat="44.75078" lon="4.8912">
        <ele>136.2</ele>
        <time>2021-07-10T06:36:01</time>
      </trkpt>
      <trkpt lat="44.75081" lon="4.89116">
        <ele>136.2</ele>
        <time>2021-07-10T06:36:02</time>
      </trkpt>
      <trkpt lat="44.75085" lon="4.89107">
        <ele>136.2</ele>
        <time>2021-07-10T06:36:03</time>
      </trkpt>
      <trkpt lat="44.75085" lon="4.89107">
        <ele>136.2</ele>
        <time>2021-07-10T06:36:04</time>
      </trkpt>
      <trkpt lat="44.75092" lon="4.89095">
        <ele>136.2</ele>
        <time>2021-07-10T06:36:05</time>
      </trkpt>
      <trkpt lat="44.75092" lon="4.89095">
        <ele>136.2</ele>
        <time>2021-07-10T06:36:06</time>
      </trkpt>
      <trkpt lat="44.75096" lon="4.89089">
        <ele>136.2</ele>
        <time>2021-07-10T06:36:07</time>
      </trkpt>
      <trkpt lat="44.75097" lon="4.89083">
        <ele>136.4</ele>
        <time>2021-07-10T06:36:08</time>
      </trkpt>
      <trkpt lat="44.75099" lon="4.89076">
        <ele>136.4</ele>
        <time>2021-07-10T06:36:09</time>
      </trkpt>
      <trkpt lat="44.75102" lon="4.8907">
        <ele>136.4</ele>
        <time>2021-07-10T06:36:10</time>
      </trkpt>
      <trkpt lat="44.75104" lon="4.89062">
        <ele>136.4</ele>
        <time>2021-07-10T06:36:11</time>
      </trkpt>
      <trkpt lat="44.75105" lon="4.89055">
        <ele>136.4</ele>
        <time>2021-07-10T06:36:12</time>
      </trkpt>
      <trkpt lat="44.75109" lon="4.89048">
        <ele>136.4</ele>
        <time>2021-07-10T06:36:13</time>
      </trkpt>
      <trkpt lat="44.75111" lon="4.8904">
        <ele>136.2</ele>
        <time>2021-07-10T06:36:14</time>
      </trkpt>
      <trkpt lat="44.75117" lon="4.89027">
        <ele>136.2</ele>
        <time>2021-07-10T06:36:15</time>
      </trkpt>
      <trkpt lat="44.75117" lon="4.89027">
        <ele>136</ele>
        <time>2021-07-10T06:36:16</time>
      </trkpt>
      <trkpt lat="44.7512" lon="4.89019">
        <ele>136</ele>
        <time>2021-07-10T06:36:17</time>
      </trkpt>
      <trkpt lat="44.75123" lon="4.89012">
        <ele>135.8</ele>
        <time>2021-07-10T06:36:18</time>
      </trkpt>
      <trkpt lat="44.75125" lon="4.89005">
        <ele>135.8</ele>
        <time>2021-07-10T06:36:19</time>
      </trkpt>
      <trkpt lat="44.75127" lon="4.88998">
        <ele>135.6</ele>
        <time>2021-07-10T06:36:20</time>
      </trkpt>
      <trkpt lat="44.75128" lon="4.88991">
        <ele>135.6</ele>
        <time>2021-07-10T06:36:21</time>
      </trkpt>
      <trkpt lat="44.75131" lon="4.88983">
        <ele>135.4</ele>
        <time>2021-07-10T06:36:22</time>
      </trkpt>
      <trkpt lat="44.75133" lon="4.88976">
        <ele>135.4</ele>
        <time>2021-07-10T06:36:23</time>
      </trkpt>
      <trkpt lat="44.75135" lon="4.88969">
        <ele>135.4</ele>
        <time>2021-07-10T06:36:24</time>
      </trkpt>
      <trkpt lat="44.75137" lon="4.88963">
        <ele>135.4</ele>
        <time>2021-07-10T06:36:25</time>
      </trkpt>
      <trkpt lat="44.75139" lon="4.88956">
        <ele>135.2</ele>
        <time>2021-07-10T06:36:26</time>
      </trkpt>
      <trkpt lat="44.7514" lon="4.8895">
        <ele>135.2</ele>
        <time>2021-07-10T06:36:27</time>
      </trkpt>
      <trkpt lat="44.75143" lon="4.88942">
        <ele>135.2</ele>
        <time>2021-07-10T06:36:28</time>
      </trkpt>
      <trkpt lat="44.75144" lon="4.88934">
        <ele>135.2</ele>
        <time>2021-07-10T06:36:29</time>
      </trkpt>
      <trkpt lat="44.7515" lon="4.8892">
        <ele>135.2</ele>
        <time>2021-07-10T06:36:30</time>
      </trkpt>
      <trkpt lat="44.7515" lon="4.8892">
        <ele>135.2</ele>
        <time>2021-07-10T06:36:31</time>
      </trkpt>
      <trkpt lat="44.75152" lon="4.88914">
        <ele>135</ele>
        <time>2021-07-10T06:36:32</time>
      </trkpt>
      <trkpt lat="44.75152" lon="4.88914">
        <ele>135.2</ele>
        <time>2021-07-10T06:36:33</time>
      </trkpt>
      <trkpt lat="44.75159" lon="4.88899">
        <ele>135</ele>
        <time>2021-07-10T06:36:34</time>
      </trkpt>
      <trkpt lat="44.75162" lon="4.88891">
        <ele>135</ele>
        <time>2021-07-10T06:36:35</time>
      </trkpt>
      <trkpt lat="44.75165" lon="4.88885">
        <ele>134.8</ele>
        <time>2021-07-10T06:36:36</time>
      </trkpt>
      <trkpt lat="44.75168" lon="4.88878">
        <ele>134.8</ele>
        <time>2021-07-10T06:36:37</time>
      </trkpt>
      <trkpt lat="44.75172" lon="4.88873">
        <ele>134.8</ele>
        <time>2021-07-10T06:36:38</time>
      </trkpt>
      <trkpt lat="44.75174" lon="4.88865">
        <ele>134.8</ele>
        <time>2021-07-10T06:36:39</time>
      </trkpt>
      <trkpt lat="44.75177" lon="4.88857">
        <ele>134.8</ele>
        <time>2021-07-10T06:36:40</time>
      </trkpt>
      <trkpt lat="44.7518" lon="4.88851">
        <ele>134.8</ele>
        <time>2021-07-10T06:36:41</time>
      </trkpt>
      <trkpt lat="44.75185" lon="4.88839">
        <ele>134.8</ele>
        <time>2021-07-10T06:36:42</time>
      </trkpt>
      <trkpt lat="44.75185" lon="4.88839">
        <ele>134.6</ele>
        <time>2021-07-10T06:36:43</time>
      </trkpt>
      <trkpt lat="44.75184" lon="4.88833">
        <ele>134.6</ele>
        <time>2021-07-10T06:36:44</time>
      </trkpt>
      <trkpt lat="44.75182" lon="4.88824">
        <ele>134.4</ele>
        <time>2021-07-10T06:36:45</time>
      </trkpt>
      <trkpt lat="44.75182" lon="4.88824">
        <ele>134.2</ele>
        <time>2021-07-10T06:36:46</time>
      </trkpt>
      <trkpt lat="44.75178" lon="4.88823">
        <ele>134.2</ele>
        <time>2021-07-10T06:36:47</time>
      </trkpt>
      <trkpt lat="44.75174" lon="4.88824">
        <ele>134</ele>
        <time>2021-07-10T06:36:48</time>
      </trkpt>
      <trkpt lat="44.75168" lon="4.88823">
        <ele>134</ele>
        <time>2021-07-10T06:36:49</time>
      </trkpt>
      <trkpt lat="44.75168" lon="4.88823">
        <ele>134</ele>
        <time>2021-07-10T06:36:50</time>
      </trkpt>
      <trkpt lat="44.75159" lon="4.88821">
        <ele>134.2</ele>
        <time>2021-07-10T06:36:51</time>
      </trkpt>
      <trkpt lat="44.75159" lon="4.88821">
        <ele>134.2</ele>
        <time>2021-07-10T06:36:52</time>
      </trkpt>
      <trkpt lat="44.75151" lon="4.88818">
        <ele>134.2</ele>
        <time>2021-07-10T06:36:53</time>
      </trkpt>
      <trkpt lat="44.75151" lon="4.88818">
        <ele>134.2</ele>
        <time>2021-07-10T06:36:54</time>
      </trkpt>
      <trkpt lat="44.75148" lon="4.88817">
        <ele>134.2</ele>
        <time>2021-07-10T06:36:55</time>
      </trkpt>
      <trkpt lat="44.75145" lon="4.88816">
        <ele>134.2</ele>
        <time>2021-07-10T06:36:56</time>
      </trkpt>
      <trkpt lat="44.7514" lon="4.88816">
        <ele>134.2</ele>
        <time>2021-07-10T06:36:57</time>
      </trkpt>
      <trkpt lat="44.7514" lon="4.88816">
        <ele>134.2</ele>
        <time>2021-07-10T06:36:58</time>
      </trkpt>
      <trkpt lat="44.75131" lon="4.88815">
        <ele>134.2</ele>
        <time>2021-07-10T06:36:59</time>
      </trkpt>
      <trkpt lat="44.75127" lon="4.88814">
        <ele>134.4</ele>
        <time>2021-07-10T06:37:00</time>
      </trkpt>
      <trkpt lat="44.75123" lon="4.88814">
        <ele>134.4</ele>
        <time>2021-07-10T06:37:01</time>
      </trkpt>
      <trkpt lat="44.75115" lon="4.88813">
        <ele>134.4</ele>
        <time>2021-07-10T06:37:02</time>
      </trkpt>
      <trkpt lat="44.75115" lon="4.88813">
        <ele>134.4</ele>
        <time>2021-07-10T06:37:03</time>
      </trkpt>
      <trkpt lat="44.75111" lon="4.88812">
        <ele>134.4</ele>
        <time>2021-07-10T06:37:04</time>
      </trkpt>
      <trkpt lat="44.75107" lon="4.88811">
        <ele>134.4</ele>
        <time>2021-07-10T06:37:05</time>
      </trkpt>
      <trkpt lat="44.75103" lon="4.88809">
        <ele>134.4</ele>
        <time>2021-07-10T06:37:06</time>
      </trkpt>
      <trkpt lat="44.75094" lon="4.88806">
        <ele>134.4</ele>
        <time>2021-07-10T06:37:07</time>
      </trkpt>
      <trkpt lat="44.75094" lon="4.88806">
        <ele>134.4</ele>
        <time>2021-07-10T06:37:08</time>
      </trkpt>
      <trkpt lat="44.75094" lon="4.88806">
        <ele>134.4</ele>
        <time>2021-07-10T06:37:09</time>
      </trkpt>
      <trkpt lat="44.75085" lon="4.88804">
        <ele>134.6</ele>
        <time>2021-07-10T06:37:10</time>
      </trkpt>
      <trkpt lat="44.75082" lon="4.88803">
        <ele>134.6</ele>
        <time>2021-07-10T06:37:11</time>
      </trkpt>
      <trkpt lat="44.75077" lon="4.88801">
        <ele>134.6</ele>
        <time>2021-07-10T06:37:12</time>
      </trkpt>
      <trkpt lat="44.75073" lon="4.88799">
        <ele>134.6</ele>
        <time>2021-07-10T06:37:13</time>
      </trkpt>
      <trkpt lat="44.75069" lon="4.88799">
        <ele>134.6</ele>
        <time>2021-07-10T06:37:14</time>
      </trkpt>
      <trkpt lat="44.75064" lon="4.88799">
        <ele>134.6</ele>
        <time>2021-07-10T06:37:15</time>
      </trkpt>
      <trkpt lat="44.7506" lon="4.88796">
        <ele>134.6</ele>
        <time>2021-07-10T06:37:16</time>
      </trkpt>
      <trkpt lat="44.75051" lon="4.88795">
        <ele>134.6</ele>
        <time>2021-07-10T06:37:17</time>
      </trkpt>
      <trkpt lat="44.75051" lon="4.88795">
        <ele>134.8</ele>
        <time>2021-07-10T06:37:18</time>
      </trkpt>
      <trkpt lat="44.75042" lon="4.88791">
        <ele>134.8</ele>
        <time>2021-07-10T06:37:19</time>
      </trkpt>
      <trkpt lat="44.75042" lon="4.88791">
        <ele>134.8</ele>
        <time>2021-07-10T06:37:20</time>
      </trkpt>
      <trkpt lat="44.75038" lon="4.8879">
        <ele>135</ele>
        <time>2021-07-10T06:37:21</time>
      </trkpt>
      <trkpt lat="44.75038" lon="4.8879">
        <ele>135</ele>
        <time>2021-07-10T06:37:22</time>
      </trkpt>
      <trkpt lat="44.75029" lon="4.88789">
        <ele>135</ele>
        <time>2021-07-10T06:37:23</time>
      </trkpt>
      <trkpt lat="44.75025" lon="4.88788">
        <ele>135</ele>
        <time>2021-07-10T06:37:24</time>
      </trkpt>
      <trkpt lat="44.75021" lon="4.88787">
        <ele>135</ele>
        <time>2021-07-10T06:37:25</time>
      </trkpt>
      <trkpt lat="44.75014" lon="4.88784">
        <ele>135.2</ele>
        <time>2021-07-10T06:37:26</time>
      </trkpt>
      <trkpt lat="44.75014" lon="4.88784">
        <ele>135.2</ele>
        <time>2021-07-10T06:37:27</time>
      </trkpt>
      <trkpt lat="44.7501" lon="4.88781">
        <ele>135.4</ele>
        <time>2021-07-10T06:37:28</time>
      </trkpt>
      <trkpt lat="44.75005" lon="4.88781">
        <ele>135.4</ele>
        <time>2021-07-10T06:37:29</time>
      </trkpt>
      <trkpt lat="44.75001" lon="4.8878">
        <ele>135.4</ele>
        <time>2021-07-10T06:37:30</time>
      </trkpt>
      <trkpt lat="44.74996" lon="4.8878">
        <ele>135.4</ele>
        <time>2021-07-10T06:37:31</time>
      </trkpt>
      <trkpt lat="44.74987" lon="4.88778">
        <ele>135.4</ele>
        <time>2021-07-10T06:37:32</time>
      </trkpt>
      <trkpt lat="44.74987" lon="4.88778">
        <ele>135.4</ele>
        <time>2021-07-10T06:37:33</time>
      </trkpt>
      <trkpt lat="44.74978" lon="4.88778">
        <ele>135.6</ele>
        <time>2021-07-10T06:37:34</time>
      </trkpt>
      <trkpt lat="44.74978" lon="4.88778">
        <ele>135.6</ele>
        <time>2021-07-10T06:37:35</time>
      </trkpt>
      <trkpt lat="44.74974" lon="4.88777">
        <ele>135.6</ele>
        <time>2021-07-10T06:37:36</time>
      </trkpt>
      <trkpt lat="44.7497" lon="4.88777">
        <ele>135.8</ele>
        <time>2021-07-10T06:37:37</time>
      </trkpt>
      <trkpt lat="44.74966" lon="4.88777">
        <ele>135.8</ele>
        <time>2021-07-10T06:37:38</time>
      </trkpt>
      <trkpt lat="44.74959" lon="4.88777">
        <ele>136</ele>
        <time>2021-07-10T06:37:39</time>
      </trkpt>
      <trkpt lat="44.74959" lon="4.88777">
        <ele>136</ele>
        <time>2021-07-10T06:37:40</time>
      </trkpt>
      <trkpt lat="44.74955" lon="4.88779">
        <ele>136</ele>
        <time>2021-07-10T06:37:41</time>
      </trkpt>
      <trkpt lat="44.7495" lon="4.88779">
        <ele>136</ele>
        <time>2021-07-10T06:37:42</time>
      </trkpt>
      <trkpt lat="44.74948" lon="4.8878">
        <ele>136</ele>
        <time>2021-07-10T06:37:43</time>
      </trkpt>
      <trkpt lat="44.74942" lon="4.88787">
        <ele>136.2</ele>
        <time>2021-07-10T06:37:44</time>
      </trkpt>
      <trkpt lat="44.74942" lon="4.88787">
        <ele>136.2</ele>
        <time>2021-07-10T06:37:45</time>
      </trkpt>
      <trkpt lat="44.74939" lon="4.88792">
        <ele>136.4</ele>
        <time>2021-07-10T06:37:46</time>
      </trkpt>
      <trkpt lat="44.74935" lon="4.88797">
        <ele>136.4</ele>
        <time>2021-07-10T06:37:47</time>
      </trkpt>
      <trkpt lat="44.74932" lon="4.88807">
        <ele>136.6</ele>
        <time>2021-07-10T06:37:48</time>
      </trkpt>
      <trkpt lat="44.74929" lon="4.88815">
        <ele>136.6</ele>
        <time>2021-07-10T06:37:49</time>
      </trkpt>
      <trkpt lat="44.74929" lon="4.88815">
        <ele>136.6</ele>
        <time>2021-07-10T06:37:50</time>
      </trkpt>
      <trkpt lat="44.74925" lon="4.88818">
        <ele>136.6</ele>
        <time>2021-07-10T06:37:51</time>
      </trkpt>
      <trkpt lat="44.74923" lon="4.88823">
        <ele>136.6</ele>
        <time>2021-07-10T06:37:52</time>
      </trkpt>
      <trkpt lat="44.74921" lon="4.88827">
        <ele>135.2</ele>
        <time>2021-07-10T06:37:53</time>
      </trkpt>
      <trkpt lat="44.74918" lon="4.88832">
        <ele>136.4</ele>
        <time>2021-07-10T06:37:54</time>
      </trkpt>
      <trkpt lat="44.74913" lon="4.88839">
        <ele>137.4</ele>
        <time>2021-07-10T06:37:55</time>
      </trkpt>
      <trkpt lat="44.74913" lon="4.88839">
        <ele>139.4</ele>
        <time>2021-07-10T06:37:56</time>
      </trkpt>
      <trkpt lat="44.74909" lon="4.88846">
        <ele>139</ele>
        <time>2021-07-10T06:37:57</time>
      </trkpt>
      <trkpt lat="44.74906" lon="4.88852">
        <ele>139</ele>
        <time>2021-07-10T06:37:58</time>
      </trkpt>
      <trkpt lat="44.74903" lon="4.88855">
        <ele>138.6</ele>
        <time>2021-07-10T06:37:59</time>
      </trkpt>
      <trkpt lat="44.74899" lon="4.88861">
        <ele>138.4</ele>
        <time>2021-07-10T06:38:00</time>
      </trkpt>
      <trkpt lat="44.74898" lon="4.88866">
        <ele>138</ele>
        <time>2021-07-10T06:38:01</time>
      </trkpt>
      <trkpt lat="44.74892" lon="4.88877">
        <ele>137.6</ele>
        <time>2021-07-10T06:38:02</time>
      </trkpt>
      <trkpt lat="44.74892" lon="4.88877">
        <ele>137.4</ele>
        <time>2021-07-10T06:38:03</time>
      </trkpt>
      <trkpt lat="44.74888" lon="4.88883">
        <ele>137.2</ele>
        <time>2021-07-10T06:38:04</time>
      </trkpt>
      <trkpt lat="44.74884" lon="4.88888">
        <ele>137.2</ele>
        <time>2021-07-10T06:38:05</time>
      </trkpt>
      <trkpt lat="44.74882" lon="4.88894">
        <ele>137</ele>
        <time>2021-07-10T06:38:06</time>
      </trkpt>
      <trkpt lat="44.74879" lon="4.889">
        <ele>137</ele>
        <time>2021-07-10T06:38:07</time>
      </trkpt>
      <trkpt lat="44.74873" lon="4.88906">
        <ele>137</ele>
        <time>2021-07-10T06:38:08</time>
      </trkpt>
      <trkpt lat="44.74873" lon="4.88906">
        <ele>137</ele>
        <time>2021-07-10T06:38:09</time>
      </trkpt>
      <trkpt lat="44.74866" lon="4.8891">
        <ele>137</ele>
        <time>2021-07-10T06:38:10</time>
      </trkpt>
      <trkpt lat="44.74866" lon="4.8891">
        <ele>137</ele>
        <time>2021-07-10T06:38:11</time>
      </trkpt>
      <trkpt lat="44.74862" lon="4.8891">
        <ele>137</ele>
        <time>2021-07-10T06:38:12</time>
      </trkpt>
      <trkpt lat="44.74858" lon="4.88906">
        <ele>137</ele>
        <time>2021-07-10T06:38:13</time>
      </trkpt>
      <trkpt lat="44.74858" lon="4.88906">
        <ele>137</ele>
        <time>2021-07-10T06:38:14</time>
      </trkpt>
      <trkpt lat="44.7485" lon="4.889">
        <ele>137.2</ele>
        <time>2021-07-10T06:38:15</time>
      </trkpt>
      <trkpt lat="44.74847" lon="4.88896">
        <ele>137.4</ele>
        <time>2021-07-10T06:38:16</time>
      </trkpt>
      <trkpt lat="44.74844" lon="4.88891">
        <ele>137.4</ele>
        <time>2021-07-10T06:38:18</time>
      </trkpt>
      <trkpt lat="44.74839" lon="4.88881">
        <ele>137.6</ele>
        <time>2021-07-10T06:38:19</time>
      </trkpt>
      <trkpt lat="44.74835" lon="4.88875">
        <ele>137.8</ele>
        <time>2021-07-10T06:38:20</time>
      </trkpt>
      <trkpt lat="44.74831" lon="4.88867">
        <ele>138</ele>
        <time>2021-07-10T06:38:21</time>
      </trkpt>
      <trkpt lat="44.74831" lon="4.88867">
        <ele>138</ele>
        <time>2021-07-10T06:38:22</time>
      </trkpt>
      <trkpt lat="44.74825" lon="4.88856">
        <ele>138.2</ele>
        <time>2021-07-10T06:38:23</time>
      </trkpt>
      <trkpt lat="44.74825" lon="4.88856">
        <ele>138.4</ele>
        <time>2021-07-10T06:38:24</time>
      </trkpt>
      <trkpt lat="44.74821" lon="4.88847">
        <ele>138.4</ele>
        <time>2021-07-10T06:38:25</time>
      </trkpt>
      <trkpt lat="44.74821" lon="4.88847">
        <ele>138.6</ele>
        <time>2021-07-10T06:38:26</time>
      </trkpt>
      <trkpt lat="44.74819" lon="4.88843">
        <ele>138.6</ele>
        <time>2021-07-10T06:38:27</time>
      </trkpt>
      <trkpt lat="44.74816" lon="4.88837">
        <ele>138.8</ele>
        <time>2021-07-10T06:38:28</time>
      </trkpt>
      <trkpt lat="44.74813" lon="4.8883">
        <ele>139</ele>
        <time>2021-07-10T06:38:29</time>
      </trkpt>
      <trkpt lat="44.74809" lon="4.88822">
        <ele>139</ele>
        <time>2021-07-10T06:38:30</time>
      </trkpt>
      <trkpt lat="44.74807" lon="4.88818">
        <ele>139.2</ele>
        <time>2021-07-10T06:38:31</time>
      </trkpt>
      <trkpt lat="44.74807" lon="4.88818">
        <ele>139.4</ele>
        <time>2021-07-10T06:38:32</time>
      </trkpt>
      <trkpt lat="44.74805" lon="4.88813">
        <ele>139.6</ele>
        <time>2021-07-10T06:38:33</time>
      </trkpt>
      <trkpt lat="44.74802" lon="4.88804">
        <ele>139.6</ele>
        <time>2021-07-10T06:38:34</time>
      </trkpt>
      <trkpt lat="44.74802" lon="4.88804">
        <ele>139.8</ele>
        <time>2021-07-10T06:38:35</time>
      </trkpt>
      <trkpt lat="44.74802" lon="4.88804">
        <ele>139.8</ele>
        <time>2021-07-10T06:38:36</time>
      </trkpt>
      <trkpt lat="-65535" lon="-65535">
        <ele>140</ele>
        <time>2021-07-10T06:38:37</time>
      </trkpt>
      <trkpt lat="-65535" lon="-65535">
        <ele>140</ele>
        <time>2021-07-10T06:38:38</time>
      </trkpt>
      <trkpt lat="-65535" lon="-65535">
        <ele>140</ele>
        <time>2021-07-10T06:38:39</time>
      </trkpt>
      <trkpt lat="-65535" lon="-65535">
        <ele>140.2</ele>
        <time>2021-07-10T06:38:40</time>
      </trkpt>
      <trkpt lat="-65535" lon="-65535">
        <ele>140.4</ele>
        <time>2021-07-10T06:38:41</time>
      </trkpt>
      <trkpt lat="44.74788" lon="4.88776">
        <ele>140.4</ele>
        <time>2021-07-10T06:38:42</time>
      </trkpt>
      <trkpt lat="44.74783" lon="4.88767">
        <ele>140.6</ele>
        <time>2021-07-10T06:38:43</time>
      </trkpt>
      <trkpt lat="44.7478" lon="4.88763">
        <ele>140.8</ele>
        <time>2021-07-10T06:38:44</time>
      </trkpt>
      <trkpt lat="44.7478" lon="4.88763">
        <ele>141</ele>
        <time>2021-07-10T06:38:45</time>
      </trkpt>
      <trkpt lat="44.74776" lon="4.8876">
        <ele>141.2</ele>
        <time>2021-07-10T06:38:46</time>
      </trkpt>
      <trkpt lat="44.74775" lon="4.88756">
        <ele>141.4</ele>
        <time>2021-07-10T06:38:47</time>
      </trkpt>
      <trkpt lat="44.74771" lon="4.88751">
        <ele>141.4</ele>
        <time>2021-07-10T06:38:48</time>
      </trkpt>
      <trkpt lat="44.74769" lon="4.88746">
        <ele>141.6</ele>
        <time>2021-07-10T06:38:49</time>
      </trkpt>
      <trkpt lat="44.74767" lon="4.88742">
        <ele>141.8</ele>
        <time>2021-07-10T06:38:50</time>
      </trkpt>
      <trkpt lat="44.74764" lon="4.8874">
        <ele>141.8</ele>
        <time>2021-07-10T06:38:51</time>
      </trkpt>
      <trkpt lat="44.74758" lon="4.88732">
        <ele>142</ele>
        <time>2021-07-10T06:38:53</time>
      </trkpt>
      <trkpt lat="44.74756" lon="4.88728">
        <ele>142.4</ele>
        <time>2021-07-10T06:38:54</time>
      </trkpt>
      <trkpt lat="44.74755" lon="4.88721">
        <ele>142.4</ele>
        <time>2021-07-10T06:38:55</time>
      </trkpt>
      <trkpt lat="44.74755" lon="4.88721">
        <ele>142.6</ele>
        <time>2021-07-10T06:38:56</time>
      </trkpt>
      <trkpt lat="44.74755" lon="4.88717">
        <ele>142.6</ele>
        <time>2021-07-10T06:38:57</time>
      </trkpt>
      <trkpt lat="44.74757" lon="4.88714">
        <ele>142.6</ele>
        <time>2021-07-10T06:38:58</time>
      </trkpt>
      <trkpt lat="44.74758" lon="4.88712">
        <ele>142.6</ele>
        <time>2021-07-10T06:38:59</time>
      </trkpt>
      <trkpt lat="44.74759" lon="4.8871">
        <ele>142.6</ele>
        <time>2021-07-10T06:39:00</time>
      </trkpt>
      <trkpt lat="44.7476" lon="4.88706">
        <ele>142.8</ele>
        <time>2021-07-10T06:39:01</time>
      </trkpt>
      <trkpt lat="44.74758" lon="4.88701">
        <ele>142.8</ele>
        <time>2021-07-10T06:39:02</time>
      </trkpt>
      <trkpt lat="44.74758" lon="4.88697">
        <ele>142.8</ele>
        <time>2021-07-10T06:39:03</time>
      </trkpt>
      <trkpt lat="44.74756" lon="4.88696">
        <ele>142.8</ele>
        <time>2021-07-10T06:39:04</time>
      </trkpt>
      <trkpt lat="44.74754" lon="4.88696">
        <ele>142.8</ele>
        <time>2021-07-10T06:39:05</time>
      </trkpt>
      <trkpt lat="44.74748" lon="4.88688">
        <ele>142.8</ele>
        <time>2021-07-10T06:39:06</time>
      </trkpt>
      <trkpt lat="44.74748" lon="4.88688">
        <ele>143</ele>
        <time>2021-07-10T06:39:07</time>
      </trkpt>
      <trkpt lat="44.74737" lon="4.88686">
        <ele>143</ele>
        <time>2021-07-10T06:39:08</time>
      </trkpt>
      <trkpt lat="44.74737" lon="4.88686">
        <ele>143</ele>
        <time>2021-07-10T06:39:09</time>
      </trkpt>
      <trkpt lat="44.74735" lon="4.88686">
        <ele>143</ele>
        <time>2021-07-10T06:39:10</time>
      </trkpt>
      <trkpt lat="44.74731" lon="4.88684">
        <ele>143.2</ele>
        <time>2021-07-10T06:39:11</time>
      </trkpt>
      <trkpt lat="44.74729" lon="4.88685">
        <ele>143.4</ele>
        <time>2021-07-10T06:39:12</time>
      </trkpt>
      <trkpt lat="44.74729" lon="4.88685">
        <ele>143.6</ele>
        <time>2021-07-10T06:39:13</time>
      </trkpt>
      <trkpt lat="44.74725" lon="4.88686">
        <ele>143.8</ele>
        <time>2021-07-10T06:39:14</time>
      </trkpt>
      <trkpt lat="44.74724" lon="4.88683">
        <ele>143.8</ele>
        <time>2021-07-10T06:39:15</time>
      </trkpt>
      <trkpt lat="44.74721" lon="4.88682">
        <ele>144</ele>
        <time>2021-07-10T06:39:16</time>
      </trkpt>
      <trkpt lat="44.74717" lon="4.88677">
        <ele>144.2</ele>
        <time>2021-07-10T06:39:17</time>
      </trkpt>
      <trkpt lat="44.74717" lon="4.88677">
        <ele>144.2</ele>
        <time>2021-07-10T06:39:18</time>
      </trkpt>
      <trkpt lat="44.74713" lon="4.88676">
        <ele>144.4</ele>
        <time>2021-07-10T06:39:19</time>
      </trkpt>
      <trkpt lat="44.74713" lon="4.88676">
        <ele>144.6</ele>
        <time>2021-07-10T06:39:20</time>
      </trkpt>
      <trkpt lat="44.74713" lon="4.88676">
        <ele>144.6</ele>
        <time>2021-07-10T06:39:21</time>
      </trkpt>
      <trkpt lat="44.74712" lon="4.88675">
        <ele>144.8</ele>
        <time>2021-07-10T06:39:22</time>
      </trkpt>
      <trkpt lat="44.74707" lon="4.88672">
        <ele>145</ele>
        <time>2021-07-10T06:39:23</time>
      </trkpt>
      <trkpt lat="44.74706" lon="4.88669">
        <ele>145</ele>
        <time>2021-07-10T06:39:24</time>
      </trkpt>
      <trkpt lat="44.74703" lon="4.8867">
        <ele>145.2</ele>
        <time>2021-07-10T06:39:25</time>
      </trkpt>
      <trkpt lat="44.74701" lon="4.88668">
        <ele>145.2</ele>
        <time>2021-07-10T06:39:26</time>
      </trkpt>
      <trkpt lat="44.74698" lon="4.88666">
        <ele>145.4</ele>
        <time>2021-07-10T06:39:28</time>
      </trkpt>
      <trkpt lat="44.74693" lon="4.88662">
        <ele>145.6</ele>
        <time>2021-07-10T06:39:29</time>
      </trkpt>
      <trkpt lat="44.74688" lon="4.8866">
        <ele>145.6</ele>
        <time>2021-07-10T06:39:30</time>
      </trkpt>
      <trkpt lat="44.74688" lon="4.8866">
        <ele>145.8</ele>
        <time>2021-07-10T06:39:31</time>
      </trkpt>
      <trkpt lat="44.74684" lon="4.88656">
        <ele>146</ele>
        <time>2021-07-10T06:39:32</time>
      </trkpt>
      <trkpt lat="44.74684" lon="4.88656">
        <ele>146</ele>
        <time>2021-07-10T06:39:33</time>
      </trkpt>
      <trkpt lat="44.74682" lon="4.88653">
        <ele>146.2</ele>
        <time>2021-07-10T06:39:34</time>
      </trkpt>
      <trkpt lat="44.7468" lon="4.88651">
        <ele>146.4</ele>
        <time>2021-07-10T06:39:35</time>
      </trkpt>
      <trkpt lat="44.74679" lon="4.88649">
        <ele>146.4</ele>
        <time>2021-07-10T06:39:36</time>
      </trkpt>
      <trkpt lat="44.74675" lon="4.88644">
        <ele>146.6</ele>
        <time>2021-07-10T06:39:37</time>
      </trkpt>
      <trkpt lat="44.74675" lon="4.88644">
        <ele>146.8</ele>
        <time>2021-07-10T06:39:38</time>
      </trkpt>
      <trkpt lat="44.74674" lon="4.88643">
        <ele>146.8</ele>
        <time>2021-07-10T06:39:39</time>
      </trkpt>
      <trkpt lat="44.74668" lon="4.88638">
        <ele>147</ele>
        <time>2021-07-10T06:39:40</time>
      </trkpt>
      <trkpt lat="44.74666" lon="4.88636">
        <ele>147</ele>
        <time>2021-07-10T06:39:41</time>
      </trkpt>
      <trkpt lat="44.74664" lon="4.88634">
        <ele>147.2</ele>
        <time>2021-07-10T06:39:42</time>
      </trkpt>
      <trkpt lat="44.74664" lon="4.88634">
        <ele>147.2</ele>
        <time>2021-07-10T06:39:43</time>
      </trkpt>
      <trkpt lat="44.74661" lon="4.88632">
        <ele>147.4</ele>
        <time>2021-07-10T06:39:44</time>
      </trkpt>
      <trkpt lat="44.74655" lon="4.88627">
        <ele>147.4</ele>
        <time>2021-07-10T06:39:45</time>
      </trkpt>
      <trkpt lat="44.74655" lon="4.88627">
        <ele>147.6</ele>
        <time>2021-07-10T06:39:46</time>
      </trkpt>
      <trkpt lat="44.74652" lon="4.88626">
        <ele>147.6</ele>
        <time>2021-07-10T06:39:47</time>
      </trkpt>
      <trkpt lat="44.74647" lon="4.88624">
        <ele>147.8</ele>
        <time>2021-07-10T06:39:48</time>
      </trkpt>
      <trkpt lat="44.74645" lon="4.88623">
        <ele>148</ele>
        <time>2021-07-10T06:39:49</time>
      </trkpt>
      <trkpt lat="44.74641" lon="4.88624">
        <ele>148</ele>
        <time>2021-07-10T06:39:50</time>
      </trkpt>
      <trkpt lat="44.74638" lon="4.88622">
        <ele>148.2</ele>
        <time>2021-07-10T06:39:51</time>
      </trkpt>
      <trkpt lat="44.74633" lon="4.88618">
        <ele>148.2</ele>
        <time>2021-07-10T06:39:52</time>
      </trkpt>
      <trkpt lat="44.74633" lon="4.88618">
        <ele>148.4</ele>
        <time>2021-07-10T06:39:53</time>
      </trkpt>
      <trkpt lat="44.74631" lon="4.88617">
        <ele>148.6</ele>
        <time>2021-07-10T06:39:54</time>
      </trkpt>
      <trkpt lat="44.74628" lon="4.88615">
        <ele>148.8</ele>
        <time>2021-07-10T06:39:55</time>
      </trkpt>
      <trkpt lat="44.74625" lon="4.88614">
        <ele>148.8</ele>
        <time>2021-07-10T06:39:56</time>
      </trkpt>
      <trkpt lat="44.74623" lon="4.88612">
        <ele>149</ele>
        <time>2021-07-10T06:39:57</time>
      </trkpt>
      <trkpt lat="44.74621" lon="4.88609">
        <ele>149.2</ele>
        <time>2021-07-10T06:39:58</time>
      </trkpt>
      <trkpt lat="44.74618" lon="4.88607">
        <ele>149.4</ele>
        <time>2021-07-10T06:39:59</time>
      </trkpt>
      <trkpt lat="44.74615" lon="4.88604">
        <ele>149.6</ele>
        <time>2021-07-10T06:40:00</time>
      </trkpt>
      <trkpt lat="44.74612" lon="4.88602">
        <ele>149.6</ele>
        <time>2021-07-10T06:40:01</time>
      </trkpt>
      <trkpt lat="44.7461" lon="4.886">
        <ele>149.8</ele>
        <time>2021-07-10T06:40:02</time>
      </trkpt>
      <trkpt lat="44.74602" lon="4.88597">
        <ele>150</ele>
        <time>2021-07-10T06:40:03</time>
      </trkpt>
      <trkpt lat="44.74602" lon="4.88597">
        <ele>150</ele>
        <time>2021-07-10T06:40:04</time>
      </trkpt>
      <trkpt lat="44.74599" lon="4.88595">
        <ele>150.2</ele>
        <time>2021-07-10T06:40:05</time>
      </trkpt>
      <trkpt lat="44.74595" lon="4.8859">
        <ele>150.4</ele>
        <time>2021-07-10T06:40:06</time>
      </trkpt>
      <trkpt lat="44.74595" lon="4.8859">
        <ele>150.4</ele>
        <time>2021-07-10T06:40:07</time>
      </trkpt>
      <trkpt lat="44.74588" lon="4.88584">
        <ele>150.6</ele>
        <time>2021-07-10T06:40:08</time>
      </trkpt>
      <trkpt lat="44.74588" lon="4.88584">
        <ele>150.6</ele>
        <time>2021-07-10T06:40:09</time>
      </trkpt>
      <trkpt lat="44.74585" lon="4.88582">
        <ele>150.8</ele>
        <time>2021-07-10T06:40:10</time>
      </trkpt>
      <trkpt lat="44.74582" lon="4.88581">
        <ele>150.8</ele>
        <time>2021-07-10T06:40:11</time>
      </trkpt>
      <trkpt lat="44.74579" lon="4.88578">
        <ele>151</ele>
        <time>2021-07-10T06:40:12</time>
      </trkpt>
      <trkpt lat="44.74576" lon="4.88577">
        <ele>151</ele>
        <time>2021-07-10T06:40:13</time>
      </trkpt>
      <trkpt lat="44.74569" lon="4.88572">
        <ele>151.2</ele>
        <time>2021-07-10T06:40:14</time>
      </trkpt>
      <trkpt lat="44.74569" lon="4.88572">
        <ele>151.4</ele>
        <time>2021-07-10T06:40:15</time>
      </trkpt>
      <trkpt lat="44.74565" lon="4.88567">
        <ele>151.4</ele>
        <time>2021-07-10T06:40:16</time>
      </trkpt>
      <trkpt lat="44.74565" lon="4.88567">
        <ele>151.4</ele>
        <time>2021-07-10T06:40:17</time>
      </trkpt>
      <trkpt lat="44.74559" lon="4.88562">
        <ele>151.6</ele>
        <time>2021-07-10T06:40:18</time>
      </trkpt>
      <trkpt lat="44.74559" lon="4.88562">
        <ele>151.6</ele>
        <time>2021-07-10T06:40:19</time>
      </trkpt>
      <trkpt lat="44.74556" lon="4.88561">
        <ele>151.6</ele>
        <time>2021-07-10T06:40:20</time>
      </trkpt>
      <trkpt lat="44.7455" lon="4.88558">
        <ele>151.6</ele>
        <time>2021-07-10T06:40:21</time>
      </trkpt>
      <trkpt lat="44.74547" lon="4.88555">
        <ele>152</ele>
        <time>2021-07-10T06:40:22</time>
      </trkpt>
      <trkpt lat="44.74547" lon="4.88555">
        <ele>152.4</ele>
        <time>2021-07-10T06:40:23</time>
      </trkpt>
      <trkpt lat="44.74544" lon="4.88554">
        <ele>152.6</ele>
        <time>2021-07-10T06:40:24</time>
      </trkpt>
      <trkpt lat="44.74542" lon="4.8855">
        <ele>152.8</ele>
        <time>2021-07-10T06:40:25</time>
      </trkpt>
      <trkpt lat="44.74538" lon="4.88549">
        <ele>152.8</ele>
        <time>2021-07-10T06:40:26</time>
      </trkpt>
      <trkpt lat="44.74534" lon="4.88547">
        <ele>152.8</ele>
        <time>2021-07-10T06:40:27</time>
      </trkpt>
      <trkpt lat="44.74534" lon="4.88547">
        <ele>152.8</ele>
        <time>2021-07-10T06:40:28</time>
      </trkpt>
      <trkpt lat="44.74532" lon="4.88545">
        <ele>153</ele>
        <time>2021-07-10T06:40:29</time>
      </trkpt>
      <trkpt lat="44.74529" lon="4.88543">
        <ele>153</ele>
        <time>2021-07-10T06:40:30</time>
      </trkpt>
      <trkpt lat="44.74526" lon="4.88539">
        <ele>153.2</ele>
        <time>2021-07-10T06:40:31</time>
      </trkpt>
      <trkpt lat="44.74524" lon="4.88537">
        <ele>153.2</ele>
        <time>2021-07-10T06:40:32</time>
      </trkpt>
      <trkpt lat="44.74521" lon="4.88536">
        <ele>153.2</ele>
        <time>2021-07-10T06:40:33</time>
      </trkpt>
      <trkpt lat="44.74518" lon="4.88534">
        <ele>153.4</ele>
        <time>2021-07-10T06:40:34</time>
      </trkpt>
      <trkpt lat="44.74516" lon="4.88533">
        <ele>153.4</ele>
        <time>2021-07-10T06:40:35</time>
      </trkpt>
      <trkpt lat="44.74511" lon="4.8853">
        <ele>153.6</ele>
        <time>2021-07-10T06:40:36</time>
      </trkpt>
      <trkpt lat="44.74511" lon="4.8853">
        <ele>153.8</ele>
        <time>2021-07-10T06:40:37</time>
      </trkpt>
      <trkpt lat="44.74506" lon="4.88526">
        <ele>153.8</ele>
        <time>2021-07-10T06:40:38</time>
      </trkpt>
      <trkpt lat="44.74506" lon="4.88526">
        <ele>154</ele>
        <time>2021-07-10T06:40:39</time>
      </trkpt>
      <trkpt lat="44.74502" lon="4.88524">
        <ele>154</ele>
        <time>2021-07-10T06:40:40</time>
      </trkpt>
      <trkpt lat="44.74499" lon="4.88523">
        <ele>154.2</ele>
        <time>2021-07-10T06:40:41</time>
      </trkpt>
      <trkpt lat="44.74496" lon="4.88522">
        <ele>154.4</ele>
        <time>2021-07-10T06:40:42</time>
      </trkpt>
      <trkpt lat="44.74492" lon="4.88521">
        <ele>154.4</ele>
        <time>2021-07-10T06:40:43</time>
      </trkpt>
      <trkpt lat="44.74492" lon="4.88521">
        <ele>154.6</ele>
        <time>2021-07-10T06:40:44</time>
      </trkpt>
      <trkpt lat="44.74488" lon="4.88519">
        <ele>154.8</ele>
        <time>2021-07-10T06:40:45</time>
      </trkpt>
      <trkpt lat="44.74488" lon="4.88519">
        <ele>154.8</ele>
        <time>2021-07-10T06:40:46</time>
      </trkpt>
      <trkpt lat="44.74482" lon="4.88517">
        <ele>154.8</ele>
        <time>2021-07-10T06:40:47</time>
      </trkpt>
      <trkpt lat="44.74482" lon="4.88517">
        <ele>155</ele>
        <time>2021-07-10T06:40:48</time>
      </trkpt>
      <trkpt lat="44.74475" lon="4.88514">
        <ele>155</ele>
        <time>2021-07-10T06:40:49</time>
      </trkpt>
      <trkpt lat="44.74475" lon="4.88514">
        <ele>155.2</ele>
        <time>2021-07-10T06:40:50</time>
      </trkpt>
      <trkpt lat="44.74471" lon="4.88513">
        <ele>155.2</ele>
        <time>2021-07-10T06:40:51</time>
      </trkpt>
      <trkpt lat="44.74468" lon="4.88512">
        <ele>155.4</ele>
        <time>2021-07-10T06:40:52</time>
      </trkpt>
      <trkpt lat="44.74465" lon="4.88511">
        <ele>155.6</ele>
        <time>2021-07-10T06:40:53</time>
      </trkpt>
      <trkpt lat="44.74462" lon="4.88511">
        <ele>155.8</ele>
        <time>2021-07-10T06:40:54</time>
      </trkpt>
      <trkpt lat="44.74458" lon="4.88511">
        <ele>156</ele>
        <time>2021-07-10T06:40:55</time>
      </trkpt>
      <trkpt lat="44.74455" lon="4.8851">
        <ele>156</ele>
        <time>2021-07-10T06:40:56</time>
      </trkpt>
      <trkpt lat="44.74453" lon="4.8851">
        <ele>156</ele>
        <time>2021-07-10T06:40:57</time>
      </trkpt>
      <trkpt lat="44.74451" lon="4.88509">
        <ele>156</ele>
        <time>2021-07-10T06:40:58</time>
      </trkpt>
      <trkpt lat="44.74448" lon="4.88508">
        <ele>156.2</ele>
        <time>2021-07-10T06:40:59</time>
      </trkpt>
      <trkpt lat="44.7444" lon="4.88504">
        <ele>156.2</ele>
        <time>2021-07-10T06:41:00</time>
      </trkpt>
      <trkpt lat="44.7444" lon="4.88504">
        <ele>156.4</ele>
        <time>2021-07-10T06:41:01</time>
      </trkpt>
      <trkpt lat="44.74437" lon="4.88503">
        <ele>156.4</ele>
        <time>2021-07-10T06:41:02</time>
      </trkpt>
      <trkpt lat="44.74435" lon="4.88502">
        <ele>156.6</ele>
        <time>2021-07-10T06:41:03</time>
      </trkpt>
      <trkpt lat="44.74428" lon="4.88498">
        <ele>156.6</ele>
        <time>2021-07-10T06:41:04</time>
      </trkpt>
      <trkpt lat="44.74428" lon="4.88498">
        <ele>156.8</ele>
        <time>2021-07-10T06:41:05</time>
      </trkpt>
      <trkpt lat="44.74426" lon="4.88496">
        <ele>156.8</ele>
        <time>2021-07-10T06:41:06</time>
      </trkpt>
      <trkpt lat="44.74423" lon="4.88494">
        <ele>156.8</ele>
        <time>2021-07-10T06:41:07</time>
      </trkpt>
      <trkpt lat="44.74419" lon="4.88493">
        <ele>157</ele>
        <time>2021-07-10T06:41:08</time>
      </trkpt>
      <trkpt lat="44.74416" lon="4.88492">
        <ele>157.2</ele>
        <time>2021-07-10T06:41:09</time>
      </trkpt>
      <trkpt lat="44.74413" lon="4.88491">
        <ele>157.2</ele>
        <time>2021-07-10T06:41:10</time>
      </trkpt>
      <trkpt lat="44.7441" lon="4.8849">
        <ele>157.4</ele>
        <time>2021-07-10T06:41:11</time>
      </trkpt>
      <trkpt lat="44.74403" lon="4.88486">
        <ele>157.4</ele>
        <time>2021-07-10T06:41:12</time>
      </trkpt>
      <trkpt lat="44.74403" lon="4.88486">
        <ele>157.6</ele>
        <time>2021-07-10T06:41:13</time>
      </trkpt>
      <trkpt lat="44.74398" lon="4.88485">
        <ele>157.6</ele>
        <time>2021-07-10T06:41:14</time>
      </trkpt>
      <trkpt lat="44.74398" lon="4.88485">
        <ele>157.8</ele>
        <time>2021-07-10T06:41:15</time>
      </trkpt>
      <trkpt lat="44.74395" lon="4.88484">
        <ele>157.8</ele>
        <time>2021-07-10T06:41:16</time>
      </trkpt>
      <trkpt lat="44.74388" lon="4.88478">
        <ele>158</ele>
        <time>2021-07-10T06:41:17</time>
      </trkpt>
      <trkpt lat="44.74388" lon="4.88478">
        <ele>158.2</ele>
        <time>2021-07-10T06:41:18</time>
      </trkpt>
      <trkpt lat="44.74385" lon="4.88477">
        <ele>158.4</ele>
        <time>2021-07-10T06:41:19</time>
      </trkpt>
      <trkpt lat="44.74379" lon="4.88472">
        <ele>158.6</ele>
        <time>2021-07-10T06:41:20</time>
      </trkpt>
      <trkpt lat="44.74379" lon="4.88472">
        <ele>158.6</ele>
        <time>2021-07-10T06:41:21</time>
      </trkpt>
      <trkpt lat="44.74376" lon="4.8847">
        <ele>158.8</ele>
        <time>2021-07-10T06:41:22</time>
      </trkpt>
      <trkpt lat="44.74372" lon="4.88468">
        <ele>158.8</ele>
        <time>2021-07-10T06:41:23</time>
      </trkpt>
      <trkpt lat="44.74368" lon="4.88466">
        <ele>158.8</ele>
        <time>2021-07-10T06:41:24</time>
      </trkpt>
      <trkpt lat="44.74366" lon="4.88465">
        <ele>159</ele>
        <time>2021-07-10T06:41:25</time>
      </trkpt>
      <trkpt lat="44.74362" lon="4.88463">
        <ele>159</ele>
        <time>2021-07-10T06:41:26</time>
      </trkpt>
      <trkpt lat="44.7436" lon="4.88461">
        <ele>159</ele>
        <time>2021-07-10T06:41:27</time>
      </trkpt>
      <trkpt lat="44.74355" lon="4.88454">
        <ele>159</ele>
        <time>2021-07-10T06:41:28</time>
      </trkpt>
      <trkpt lat="44.74355" lon="4.88454">
        <ele>159</ele>
        <time>2021-07-10T06:41:29</time>
      </trkpt>
      <trkpt lat="44.74354" lon="4.8845">
        <ele>159</ele>
        <time>2021-07-10T06:41:30</time>
      </trkpt>
      <trkpt lat="44.74348" lon="4.88446">
        <ele>159.2</ele>
        <time>2021-07-10T06:41:31</time>
      </trkpt>
      <trkpt lat="44.74348" lon="4.88446">
        <ele>159.2</ele>
        <time>2021-07-10T06:41:32</time>
      </trkpt>
      <trkpt lat="44.74346" lon="4.88442">
        <ele>159.2</ele>
        <time>2021-07-10T06:41:33</time>
      </trkpt>
      <trkpt lat="44.74343" lon="4.88436">
        <ele>159.4</ele>
        <time>2021-07-10T06:41:34</time>
      </trkpt>
      <trkpt lat="44.74343" lon="4.88436">
        <ele>159.6</ele>
        <time>2021-07-10T06:41:35</time>
      </trkpt>
      <trkpt lat="44.74341" lon="4.88432">
        <ele>159.6</ele>
        <time>2021-07-10T06:41:36</time>
      </trkpt>
      <trkpt lat="44.74338" lon="4.88432">
        <ele>159.8</ele>
        <time>2021-07-10T06:41:37</time>
      </trkpt>
      <trkpt lat="44.74338" lon="4.88429">
        <ele>160</ele>
        <time>2021-07-10T06:41:38</time>
      </trkpt>
      <trkpt lat="44.74335" lon="4.88425">
        <ele>160</ele>
        <time>2021-07-10T06:41:39</time>
      </trkpt>
      <trkpt lat="44.74335" lon="4.88425">
        <ele>160.2</ele>
        <time>2021-07-10T06:41:40</time>
      </trkpt>
      <trkpt lat="44.74333" lon="4.88422">
        <ele>160.4</ele>
        <time>2021-07-10T06:41:41</time>
      </trkpt>
      <trkpt lat="44.74332" lon="4.88421">
        <ele>160.6</ele>
        <time>2021-07-10T06:41:42</time>
      </trkpt>
      <trkpt lat="44.7433" lon="4.88418">
        <ele>160.6</ele>
        <time>2021-07-10T06:41:43</time>
      </trkpt>
      <trkpt lat="44.74326" lon="4.88415">
        <ele>160.8</ele>
        <time>2021-07-10T06:41:44</time>
      </trkpt>
      <trkpt lat="44.74324" lon="4.88412">
        <ele>161</ele>
        <time>2021-07-10T06:41:45</time>
      </trkpt>
      <trkpt lat="44.74321" lon="4.88411">
        <ele>161.2</ele>
        <time>2021-07-10T06:41:46</time>
      </trkpt>
      <trkpt lat="44.74318" lon="4.88407">
        <ele>161.2</ele>
        <time>2021-07-10T06:41:47</time>
      </trkpt>
      <trkpt lat="44.74316" lon="4.88404">
        <ele>161.4</ele>
        <time>2021-07-10T06:41:48</time>
      </trkpt>
      <trkpt lat="44.74311" lon="4.88399">
        <ele>161.6</ele>
        <time>2021-07-10T06:41:49</time>
      </trkpt>
      <trkpt lat="44.74311" lon="4.88399">
        <ele>161.8</ele>
        <time>2021-07-10T06:41:50</time>
      </trkpt>
      <trkpt lat="44.74309" lon="4.88396">
        <ele>162</ele>
        <time>2021-07-10T06:41:51</time>
      </trkpt>
      <trkpt lat="44.74306" lon="4.88394">
        <ele>162.2</ele>
        <time>2021-07-10T06:41:52</time>
      </trkpt>
      <trkpt lat="44.743" lon="4.88392">
        <ele>162.4</ele>
        <time>2021-07-10T06:41:53</time>
      </trkpt>
      <trkpt lat="44.743" lon="4.88392">
        <ele>162.6</ele>
        <time>2021-07-10T06:41:54</time>
      </trkpt>
      <trkpt lat="44.74296" lon="4.88389">
        <ele>162.8</ele>
        <time>2021-07-10T06:41:55</time>
      </trkpt>
      <trkpt lat="44.74296" lon="4.88389">
        <ele>163</ele>
        <time>2021-07-10T06:41:56</time>
      </trkpt>
      <trkpt lat="44.74294" lon="4.88388">
        <ele>163.2</ele>
        <time>2021-07-10T06:41:57</time>
      </trkpt>
      <trkpt lat="44.74292" lon="4.88385">
        <ele>163.2</ele>
        <time>2021-07-10T06:41:58</time>
      </trkpt>
      <trkpt lat="44.74288" lon="4.88384">
        <ele>163.4</ele>
        <time>2021-07-10T06:41:59</time>
      </trkpt>
      <trkpt lat="44.74284" lon="4.88382">
        <ele>163.6</ele>
        <time>2021-07-10T06:42:00</time>
      </trkpt>
      <trkpt lat="44.74284" lon="4.88382">
        <ele>163.6</ele>
        <time>2021-07-10T06:42:01</time>
      </trkpt>
      <trkpt lat="44.74282" lon="4.88381">
        <ele>163.8</ele>
        <time>2021-07-10T06:42:02</time>
      </trkpt>
      <trkpt lat="44.74279" lon="4.88378">
        <ele>163.8</ele>
        <time>2021-07-10T06:42:03</time>
      </trkpt>
      <trkpt lat="44.74273" lon="4.88376">
        <ele>164</ele>
        <time>2021-07-10T06:42:04</time>
      </trkpt>
      <trkpt lat="44.74273" lon="4.88376">
        <ele>164.2</ele>
        <time>2021-07-10T06:42:05</time>
      </trkpt>
      <trkpt lat="44.74272" lon="4.88376">
        <ele>164.2</ele>
        <time>2021-07-10T06:42:06</time>
      </trkpt>
      <trkpt lat="44.7427" lon="4.88374">
        <ele>164.4</ele>
        <time>2021-07-10T06:42:07</time>
      </trkpt>
      <trkpt lat="44.74265" lon="4.88369">
        <ele>164.6</ele>
        <time>2021-07-10T06:42:08</time>
      </trkpt>
      <trkpt lat="44.74265" lon="4.88369">
        <ele>164.6</ele>
        <time>2021-07-10T06:42:09</time>
      </trkpt>
      <trkpt lat="44.74263" lon="4.88368">
        <ele>164.8</ele>
        <time>2021-07-10T06:42:10</time>
      </trkpt>
      <trkpt lat="44.7426" lon="4.88367">
        <ele>165</ele>
        <time>2021-07-10T06:42:11</time>
      </trkpt>
      <trkpt lat="44.74253" lon="4.88366">
        <ele>165.2</ele>
        <time>2021-07-10T06:42:12</time>
      </trkpt>
      <trkpt lat="44.74253" lon="4.88366">
        <ele>165.2</ele>
        <time>2021-07-10T06:42:13</time>
      </trkpt>
      <trkpt lat="44.74251" lon="4.88364">
        <ele>165.4</ele>
        <time>2021-07-10T06:42:14</time>
      </trkpt>
      <trkpt lat="44.74249" lon="4.88363">
        <ele>165.4</ele>
        <time>2021-07-10T06:42:15</time>
      </trkpt>
      <trkpt lat="44.74243" lon="4.88361">
        <ele>165.6</ele>
        <time>2021-07-10T06:42:16</time>
      </trkpt>
      <trkpt lat="44.74243" lon="4.88361">
        <ele>165.8</ele>
        <time>2021-07-10T06:42:17</time>
      </trkpt>
      <trkpt lat="44.7424" lon="4.8836">
        <ele>166</ele>
        <time>2021-07-10T06:42:18</time>
      </trkpt>
      <trkpt lat="44.74238" lon="4.88359">
        <ele>166</ele>
        <time>2021-07-10T06:42:19</time>
      </trkpt>
      <trkpt lat="44.74235" lon="4.8836">
        <ele>166</ele>
        <time>2021-07-10T06:42:20</time>
      </trkpt>
      <trkpt lat="44.74232" lon="4.88359">
        <ele>166</ele>
        <time>2021-07-10T06:42:21</time>
      </trkpt>
      <trkpt lat="44.7423" lon="4.88356">
        <ele>166</ele>
        <time>2021-07-10T06:42:22</time>
      </trkpt>
      <trkpt lat="44.74225" lon="4.88352">
        <ele>166.2</ele>
        <time>2021-07-10T06:42:23</time>
      </trkpt>
      <trkpt lat="44.74225" lon="4.88352">
        <ele>166.2</ele>
        <time>2021-07-10T06:42:24</time>
      </trkpt>
      <trkpt lat="44.74223" lon="4.88351">
        <ele>166.4</ele>
        <time>2021-07-10T06:42:25</time>
      </trkpt>
      <trkpt lat="44.74222" lon="4.88348">
        <ele>166.6</ele>
        <time>2021-07-10T06:42:26</time>
      </trkpt>
      <trkpt lat="44.74219" lon="4.88346">
        <ele>166.8</ele>
        <time>2021-07-10T06:42:27</time>
      </trkpt>
      <trkpt lat="44.74217" lon="4.88343">
        <ele>167</ele>
        <time>2021-07-10T06:42:28</time>
      </trkpt>
      <trkpt lat="44.74214" lon="4.88342">
        <ele>167.2</ele>
        <time>2021-07-10T06:42:29</time>
      </trkpt>
      <trkpt lat="44.74212" lon="4.88341">
        <ele>167.2</ele>
        <time>2021-07-10T06:42:30</time>
      </trkpt>
      <trkpt lat="44.7421" lon="4.8834">
        <ele>167.4</ele>
        <time>2021-07-10T06:42:31</time>
      </trkpt>
      <trkpt lat="44.74207" lon="4.88338">
        <ele>167.4</ele>
        <time>2021-07-10T06:42:32</time>
      </trkpt>
      <trkpt lat="44.74205" lon="4.88336">
        <ele>167.6</ele>
        <time>2021-07-10T06:42:33</time>
      </trkpt>
      <trkpt lat="44.74202" lon="4.88335">
        <ele>167.8</ele>
        <time>2021-07-10T06:42:34</time>
      </trkpt>
      <trkpt lat="44.742" lon="4.88332">
        <ele>168</ele>
        <time>2021-07-10T06:42:35</time>
      </trkpt>
      <trkpt lat="44.74198" lon="4.88331">
        <ele>168.2</ele>
        <time>2021-07-10T06:42:36</time>
      </trkpt>
      <trkpt lat="44.74196" lon="4.88329">
        <ele>168.4</ele>
        <time>2021-07-10T06:42:37</time>
      </trkpt>
      <trkpt lat="44.74192" lon="4.88328">
        <ele>168.6</ele>
        <time>2021-07-10T06:42:38</time>
      </trkpt>
      <trkpt lat="44.7419" lon="4.88326">
        <ele>168.8</ele>
        <time>2021-07-10T06:42:39</time>
      </trkpt>
      <trkpt lat="44.74188" lon="4.88326">
        <ele>169</ele>
        <time>2021-07-10T06:42:40</time>
      </trkpt>
      <trkpt lat="44.74186" lon="4.88324">
        <ele>169</ele>
        <time>2021-07-10T06:42:41</time>
      </trkpt>
      <trkpt lat="44.74184" lon="4.88322">
        <ele>169.2</ele>
        <time>2021-07-10T06:42:42</time>
      </trkpt>
      <trkpt lat="44.74182" lon="4.8832">
        <ele>169.4</ele>
        <time>2021-07-10T06:42:43</time>
      </trkpt>
      <trkpt lat="44.74177" lon="4.88316">
        <ele>169.6</ele>
        <time>2021-07-10T06:42:44</time>
      </trkpt>
      <trkpt lat="44.74177" lon="4.88316">
        <ele>169.6</ele>
        <time>2021-07-10T06:42:45</time>
      </trkpt>
      <trkpt lat="44.74173" lon="4.88313">
        <ele>169.8</ele>
        <time>2021-07-10T06:42:46</time>
      </trkpt>
      <trkpt lat="44.74173" lon="4.88313">
        <ele>169.8</ele>
        <time>2021-07-10T06:42:47</time>
      </trkpt>
      <trkpt lat="44.74172" lon="4.8831">
        <ele>170</ele>
        <time>2021-07-10T06:42:48</time>
      </trkpt>
      <trkpt lat="44.74168" lon="4.88311">
        <ele>170</ele>
        <time>2021-07-10T06:42:49</time>
      </trkpt>
      <trkpt lat="44.74167" lon="4.88309">
        <ele>170</ele>
        <time>2021-07-10T06:42:50</time>
      </trkpt>
      <trkpt lat="44.74165" lon="4.88308">
        <ele>170.2</ele>
        <time>2021-07-10T06:42:51</time>
      </trkpt>
      <trkpt lat="44.74162" lon="4.88307">
        <ele>170.4</ele>
        <time>2021-07-10T06:42:52</time>
      </trkpt>
      <trkpt lat="44.74158" lon="4.88304">
        <ele>170.4</ele>
        <time>2021-07-10T06:42:53</time>
      </trkpt>
      <trkpt lat="44.74158" lon="4.88304">
        <ele>170.6</ele>
        <time>2021-07-10T06:42:54</time>
      </trkpt>
      <trkpt lat="44.74155" lon="4.88302">
        <ele>170.8</ele>
        <time>2021-07-10T06:42:55</time>
      </trkpt>
      <trkpt lat="44.74152" lon="4.883">
        <ele>171</ele>
        <time>2021-07-10T06:42:56</time>
      </trkpt>
      <trkpt lat="44.74148" lon="4.88298">
        <ele>171.2</ele>
        <time>2021-07-10T06:42:57</time>
      </trkpt>
      <trkpt lat="44.74145" lon="4.88297">
        <ele>171.4</ele>
        <time>2021-07-10T06:42:58</time>
      </trkpt>
      <trkpt lat="44.74143" lon="4.88294">
        <ele>171.6</ele>
        <time>2021-07-10T06:42:59</time>
      </trkpt>
      <trkpt lat="44.74141" lon="4.88292">
        <ele>171.8</ele>
        <time>2021-07-10T06:43:00</time>
      </trkpt>
      <trkpt lat="44.7414" lon="4.8829">
        <ele>172</ele>
        <time>2021-07-10T06:43:01</time>
      </trkpt>
      <trkpt lat="44.74138" lon="4.88289">
        <ele>172.2</ele>
        <time>2021-07-10T06:43:02</time>
      </trkpt>
      <trkpt lat="44.74136" lon="4.88287">
        <ele>172.4</ele>
        <time>2021-07-10T06:43:03</time>
      </trkpt>
      <trkpt lat="44.74134" lon="4.88286">
        <ele>172.6</ele>
        <time>2021-07-10T06:43:04</time>
      </trkpt>
      <trkpt lat="44.74132" lon="4.88285">
        <ele>172.6</ele>
        <time>2021-07-10T06:43:05</time>
      </trkpt>
      <trkpt lat="44.7413" lon="4.88284">
        <ele>172.8</ele>
        <time>2021-07-10T06:43:06</time>
      </trkpt>
      <trkpt lat="44.74126" lon="4.88281">
        <ele>173</ele>
        <time>2021-07-10T06:43:07</time>
      </trkpt>
      <trkpt lat="44.74126" lon="4.88281">
        <ele>173.2</ele>
        <time>2021-07-10T06:43:08</time>
      </trkpt>
      <trkpt lat="44.74124" lon="4.88278">
        <ele>173.2</ele>
        <time>2021-07-10T06:43:09</time>
      </trkpt>
      <trkpt lat="44.74121" lon="4.88277">
        <ele>173.4</ele>
        <time>2021-07-10T06:43:10</time>
      </trkpt>
      <trkpt lat="44.74115" lon="4.88274">
        <ele>173.6</ele>
        <time>2021-07-10T06:43:11</time>
      </trkpt>
      <trkpt lat="44.74115" lon="4.88274">
        <ele>173.6</ele>
        <time>2021-07-10T06:43:12</time>
      </trkpt>
      <trkpt lat="44.74113" lon="4.88271">
        <ele>173.8</ele>
        <time>2021-07-10T06:43:13</time>
      </trkpt>
      <trkpt lat="44.7411" lon="4.88268">
        <ele>173.8</ele>
        <time>2021-07-10T06:43:14</time>
      </trkpt>
      <trkpt lat="44.74108" lon="4.88266">
        <ele>174</ele>
        <time>2021-07-10T06:43:15</time>
      </trkpt>
      <trkpt lat="44.74105" lon="4.88263">
        <ele>174.2</ele>
        <time>2021-07-10T06:43:16</time>
      </trkpt>
      <trkpt lat="44.74103" lon="4.88261">
        <ele>174.4</ele>
        <time>2021-07-10T06:43:17</time>
      </trkpt>
      <trkpt lat="44.74101" lon="4.8826">
        <ele>174.4</ele>
        <time>2021-07-10T06:43:18</time>
      </trkpt>
      <trkpt lat="44.74096" lon="4.88255">
        <ele>174.6</ele>
        <time>2021-07-10T06:43:19</time>
      </trkpt>
      <trkpt lat="44.74096" lon="4.88255">
        <ele>174.8</ele>
        <time>2021-07-10T06:43:20</time>
      </trkpt>
      <trkpt lat="44.74094" lon="4.88253">
        <ele>174.8</ele>
        <time>2021-07-10T06:43:21</time>
      </trkpt>
      <trkpt lat="44.74092" lon="4.88248">
        <ele>175</ele>
        <time>2021-07-10T06:43:22</time>
      </trkpt>
      <trkpt lat="44.7409" lon="4.88246">
        <ele>175.2</ele>
        <time>2021-07-10T06:43:23</time>
      </trkpt>
      <trkpt lat="44.74088" lon="4.88245">
        <ele>175.2</ele>
        <time>2021-07-10T06:43:24</time>
      </trkpt>
      <trkpt lat="44.74085" lon="4.88244">
        <ele>175.4</ele>
        <time>2021-07-10T06:43:25</time>
      </trkpt>
      <trkpt lat="44.74081" lon="4.88243">
        <ele>175.6</ele>
        <time>2021-07-10T06:43:26</time>
      </trkpt>
      <trkpt lat="44.74076" lon="4.88239">
        <ele>175.6</ele>
        <time>2021-07-10T06:43:27</time>
      </trkpt>
      <trkpt lat="44.74076" lon="4.88239">
        <ele>175.8</ele>
        <time>2021-07-10T06:43:28</time>
      </trkpt>
      <trkpt lat="44.74072" lon="4.88239">
        <ele>176</ele>
        <time>2021-07-10T06:43:29</time>
      </trkpt>
      <trkpt lat="44.74066" lon="4.88236">
        <ele>176.2</ele>
        <time>2021-07-10T06:43:30</time>
      </trkpt>
      <trkpt lat="44.74066" lon="4.88236">
        <ele>176.4</ele>
        <time>2021-07-10T06:43:31</time>
      </trkpt>
      <trkpt lat="44.74064" lon="4.88234">
        <ele>176.6</ele>
        <time>2021-07-10T06:43:32</time>
      </trkpt>
      <trkpt lat="44.74063" lon="4.88231">
        <ele>176.6</ele>
        <time>2021-07-10T06:43:33</time>
      </trkpt>
      <trkpt lat="44.74061" lon="4.88228">
        <ele>176.8</ele>
        <time>2021-07-10T06:43:34</time>
      </trkpt>
      <trkpt lat="44.74059" lon="4.88227">
        <ele>177</ele>
        <time>2021-07-10T06:43:35</time>
      </trkpt>
      <trkpt lat="44.74055" lon="4.88226">
        <ele>177.2</ele>
        <time>2021-07-10T06:43:36</time>
      </trkpt>
      <trkpt lat="44.74053" lon="4.88224">
        <ele>177.4</ele>
        <time>2021-07-10T06:43:37</time>
      </trkpt>
      <trkpt lat="44.74051" lon="4.88221">
        <ele>177.6</ele>
        <time>2021-07-10T06:43:38</time>
      </trkpt>
      <trkpt lat="44.7405" lon="4.88219">
        <ele>177.8</ele>
        <time>2021-07-10T06:43:39</time>
      </trkpt>
      <trkpt lat="44.74047" lon="4.88217">
        <ele>178</ele>
        <time>2021-07-10T06:43:40</time>
      </trkpt>
      <trkpt lat="44.74042" lon="4.88214">
        <ele>178</ele>
        <time>2021-07-10T06:43:41</time>
      </trkpt>
      <trkpt lat="44.74042" lon="4.88214">
        <ele>178.2</ele>
        <time>2021-07-10T06:43:42</time>
      </trkpt>
      <trkpt lat="44.7404" lon="4.88212">
        <ele>178.4</ele>
        <time>2021-07-10T06:43:43</time>
      </trkpt>
      <trkpt lat="44.74034" lon="4.88208">
        <ele>178.6</ele>
        <time>2021-07-10T06:43:44</time>
      </trkpt>
      <trkpt lat="44.74034" lon="4.88208">
        <ele>178.6</ele>
        <time>2021-07-10T06:43:45</time>
      </trkpt>
      <trkpt lat="44.74032" lon="4.88205">
        <ele>178.8</ele>
        <time>2021-07-10T06:43:46</time>
      </trkpt>
      <trkpt lat="44.7403" lon="4.882">
        <ele>179</ele>
        <time>2021-07-10T06:43:47</time>
      </trkpt>
      <trkpt lat="44.74027" lon="4.88195">
        <ele>179.2</ele>
        <time>2021-07-10T06:43:48</time>
      </trkpt>
      <trkpt lat="44.74027" lon="4.88195">
        <ele>179.4</ele>
        <time>2021-07-10T06:43:49</time>
      </trkpt>
      <trkpt lat="44.74026" lon="4.88191">
        <ele>179.6</ele>
        <time>2021-07-10T06:43:50</time>
      </trkpt>
      <trkpt lat="44.74022" lon="4.88185">
        <ele>179.8</ele>
        <time>2021-07-10T06:43:51</time>
      </trkpt>
      <trkpt lat="44.74022" lon="4.88185">
        <ele>179.8</ele>
        <time>2021-07-10T06:43:52</time>
      </trkpt>
      <trkpt lat="44.74021" lon="4.88182">
        <ele>180</ele>
        <time>2021-07-10T06:43:53</time>
      </trkpt>
      <trkpt lat="44.74019" lon="4.8818">
        <ele>180</ele>
        <time>2021-07-10T06:43:54</time>
      </trkpt>
      <trkpt lat="44.74017" lon="4.88178">
        <ele>180.2</ele>
        <time>2021-07-10T06:43:55</time>
      </trkpt>
      <trkpt lat="44.74014" lon="4.88174">
        <ele>180.2</ele>
        <time>2021-07-10T06:43:56</time>
      </trkpt>
      <trkpt lat="44.74013" lon="4.88171">
        <ele>180.4</ele>
        <time>2021-07-10T06:43:57</time>
      </trkpt>
      <trkpt lat="44.74013" lon="4.88168">
        <ele>180.6</ele>
        <time>2021-07-10T06:43:58</time>
      </trkpt>
      <trkpt lat="44.74011" lon="4.88164">
        <ele>180.8</ele>
        <time>2021-07-10T06:43:59</time>
      </trkpt>
      <trkpt lat="44.74009" lon="4.88162">
        <ele>180.8</ele>
        <time>2021-07-10T06:44:00</time>
      </trkpt>
      <trkpt lat="44.74006" lon="4.88157">
        <ele>181</ele>
        <time>2021-07-10T06:44:01</time>
      </trkpt>
      <trkpt lat="44.74006" lon="4.88157">
        <ele>181.2</ele>
        <time>2021-07-10T06:44:02</time>
      </trkpt>
      <trkpt lat="44.74005" lon="4.88154">
        <ele>181.2</ele>
        <time>2021-07-10T06:44:03</time>
      </trkpt>
      <trkpt lat="44.74003" lon="4.8815">
        <ele>181.4</ele>
        <time>2021-07-10T06:44:04</time>
      </trkpt>
      <trkpt lat="44.74002" lon="4.88147">
        <ele>181.6</ele>
        <time>2021-07-10T06:44:05</time>
      </trkpt>
      <trkpt lat="44.74001" lon="4.88144">
        <ele>181.6</ele>
        <time>2021-07-10T06:44:06</time>
      </trkpt>
      <trkpt lat="44.73999" lon="4.88141">
        <ele>181.8</ele>
        <time>2021-07-10T06:44:07</time>
      </trkpt>
      <trkpt lat="44.73998" lon="4.88139">
        <ele>182</ele>
        <time>2021-07-10T06:44:08</time>
      </trkpt>
      <trkpt lat="44.73997" lon="4.88137">
        <ele>182</ele>
        <time>2021-07-10T06:44:09</time>
      </trkpt>
      <trkpt lat="44.73996" lon="4.88134">
        <ele>182.2</ele>
        <time>2021-07-10T06:44:10</time>
      </trkpt>
      <trkpt lat="44.73992" lon="4.88125">
        <ele>182.4</ele>
        <time>2021-07-10T06:44:11</time>
      </trkpt>
      <trkpt lat="44.73992" lon="4.88125">
        <ele>182.6</ele>
        <time>2021-07-10T06:44:12</time>
      </trkpt>
      <trkpt lat="44.73991" lon="4.88122">
        <ele>182.6</ele>
        <time>2021-07-10T06:44:13</time>
      </trkpt>
      <trkpt lat="44.7399" lon="4.88118">
        <ele>182.8</ele>
        <time>2021-07-10T06:44:14</time>
      </trkpt>
      <trkpt lat="44.73989" lon="4.88115">
        <ele>182.8</ele>
        <time>2021-07-10T06:44:15</time>
      </trkpt>
      <trkpt lat="44.73987" lon="4.88109">
        <ele>183</ele>
        <time>2021-07-10T06:44:16</time>
      </trkpt>
      <trkpt lat="44.73987" lon="4.88109">
        <ele>183.2</ele>
        <time>2021-07-10T06:44:17</time>
      </trkpt>
      <trkpt lat="44.73986" lon="4.88102">
        <ele>183.2</ele>
        <time>2021-07-10T06:44:18</time>
      </trkpt>
      <trkpt lat="44.73986" lon="4.88102">
        <ele>183.4</ele>
        <time>2021-07-10T06:44:19</time>
      </trkpt>
      <trkpt lat="44.73984" lon="4.881">
        <ele>183.6</ele>
        <time>2021-07-10T06:44:20</time>
      </trkpt>
      <trkpt lat="44.73982" lon="4.88097">
        <ele>183.8</ele>
        <time>2021-07-10T06:44:21</time>
      </trkpt>
      <trkpt lat="44.73978" lon="4.88092">
        <ele>184</ele>
        <time>2021-07-10T06:44:22</time>
      </trkpt>
      <trkpt lat="44.73978" lon="4.88092">
        <ele>184</ele>
        <time>2021-07-10T06:44:23</time>
      </trkpt>
      <trkpt lat="44.73977" lon="4.88089">
        <ele>184.2</ele>
        <time>2021-07-10T06:44:24</time>
      </trkpt>
      <trkpt lat="44.73976" lon="4.88085">
        <ele>184.4</ele>
        <time>2021-07-10T06:44:25</time>
      </trkpt>
      <trkpt lat="44.73974" lon="4.88078">
        <ele>184.6</ele>
        <time>2021-07-10T06:44:26</time>
      </trkpt>
      <trkpt lat="44.73974" lon="4.88078">
        <ele>184.8</ele>
        <time>2021-07-10T06:44:27</time>
      </trkpt>
      <trkpt lat="44.73973" lon="4.88074">
        <ele>185</ele>
        <time>2021-07-10T06:44:28</time>
      </trkpt>
      <trkpt lat="44.73972" lon="4.88071">
        <ele>185</ele>
        <time>2021-07-10T06:44:29</time>
      </trkpt>
      <trkpt lat="44.73971" lon="4.88067">
        <ele>185.2</ele>
        <time>2021-07-10T06:44:30</time>
      </trkpt>
      <trkpt lat="44.73971" lon="4.88067">
        <ele>185.4</ele>
        <time>2021-07-10T06:44:31</time>
      </trkpt>
      <trkpt lat="44.73971" lon="4.88065">
        <ele>185.6</ele>
        <time>2021-07-10T06:44:32</time>
      </trkpt>
      <trkpt lat="44.73968" lon="4.88064">
        <ele>185.8</ele>
        <time>2021-07-10T06:44:33</time>
      </trkpt>
      <trkpt lat="44.73965" lon="4.88057">
        <ele>186</ele>
        <time>2021-07-10T06:44:34</time>
      </trkpt>
      <trkpt lat="44.73965" lon="4.88057">
        <ele>186</ele>
        <time>2021-07-10T06:44:35</time>
      </trkpt>
      <trkpt lat="44.73964" lon="4.88053">
        <ele>186.2</ele>
        <time>2021-07-10T06:44:36</time>
      </trkpt>
      <trkpt lat="44.73963" lon="4.88049">
        <ele>186.4</ele>
        <time>2021-07-10T06:44:37</time>
      </trkpt>
      <trkpt lat="44.73961" lon="4.88046">
        <ele>186.4</ele>
        <time>2021-07-10T06:44:38</time>
      </trkpt>
      <trkpt lat="44.73959" lon="4.88041">
        <ele>186.6</ele>
        <time>2021-07-10T06:44:39</time>
      </trkpt>
      <trkpt lat="44.73957" lon="4.88035">
        <ele>186.8</ele>
        <time>2021-07-10T06:44:40</time>
      </trkpt>
      <trkpt lat="44.73957" lon="4.88035">
        <ele>186.8</ele>
        <time>2021-07-10T06:44:41</time>
      </trkpt>
      <trkpt lat="44.73955" lon="4.88032">
        <ele>186.8</ele>
        <time>2021-07-10T06:44:42</time>
      </trkpt>
      <trkpt lat="44.73953" lon="4.88029">
        <ele>187</ele>
        <time>2021-07-10T06:44:43</time>
      </trkpt>
      <trkpt lat="44.73952" lon="4.88027">
        <ele>187</ele>
        <time>2021-07-10T06:44:44</time>
      </trkpt>
      <trkpt lat="44.73949" lon="4.88023">
        <ele>187</ele>
        <time>2021-07-10T06:44:45</time>
      </trkpt>
      <trkpt lat="44.73947" lon="4.8802">
        <ele>187.2</ele>
        <time>2021-07-10T06:44:46</time>
      </trkpt>
      <trkpt lat="44.73946" lon="4.88017">
        <ele>187.2</ele>
        <time>2021-07-10T06:44:47</time>
      </trkpt>
      <trkpt lat="44.73945" lon="4.88013">
        <ele>187.4</ele>
        <time>2021-07-10T06:44:48</time>
      </trkpt>
      <trkpt lat="44.73944" lon="4.88011">
        <ele>187.4</ele>
        <time>2021-07-10T06:44:49</time>
      </trkpt>
      <trkpt lat="44.73943" lon="4.88008">
        <ele>187.6</ele>
        <time>2021-07-10T06:44:50</time>
      </trkpt>
      <trkpt lat="44.7394" lon="4.88003">
        <ele>187.6</ele>
        <time>2021-07-10T06:44:51</time>
      </trkpt>
      <trkpt lat="44.7394" lon="4.88003">
        <ele>187.8</ele>
        <time>2021-07-10T06:44:52</time>
      </trkpt>
      <trkpt lat="44.73939" lon="4.88">
        <ele>187.8</ele>
        <time>2021-07-10T06:44:53</time>
      </trkpt>
      <trkpt lat="44.73937" lon="4.87997">
        <ele>188</ele>
        <time>2021-07-10T06:44:54</time>
      </trkpt>
      <trkpt lat="44.73937" lon="4.87995">
        <ele>188.2</ele>
        <time>2021-07-10T06:44:55</time>
      </trkpt>
      <trkpt lat="44.73933" lon="4.87989">
        <ele>188.2</ele>
        <time>2021-07-10T06:44:56</time>
      </trkpt>
      <trkpt lat="44.73933" lon="4.87989">
        <ele>188.4</ele>
        <time>2021-07-10T06:44:57</time>
      </trkpt>
      <trkpt lat="44.7393" lon="4.87983">
        <ele>188.4</ele>
        <time>2021-07-10T06:44:58</time>
      </trkpt>
      <trkpt lat="44.7393" lon="4.87983">
        <ele>188.6</ele>
        <time>2021-07-10T06:44:59</time>
      </trkpt>
      <trkpt lat="44.73928" lon="4.87982">
        <ele>188.8</ele>
        <time>2021-07-10T06:45:00</time>
      </trkpt>
      <trkpt lat="44.73925" lon="4.87976">
        <ele>188.8</ele>
        <time>2021-07-10T06:45:01</time>
      </trkpt>
      <trkpt lat="44.73925" lon="4.87976">
        <ele>188.8</ele>
        <time>2021-07-10T06:45:02</time>
      </trkpt>
      <trkpt lat="44.73923" lon="4.87973">
        <ele>189</ele>
        <time>2021-07-10T06:45:03</time>
      </trkpt>
      <trkpt lat="44.73922" lon="4.87971">
        <ele>189.2</ele>
        <time>2021-07-10T06:45:04</time>
      </trkpt>
      <trkpt lat="44.73921" lon="4.87968">
        <ele>189.2</ele>
        <time>2021-07-10T06:45:05</time>
      </trkpt>
      <trkpt lat="44.73919" lon="4.87965">
        <ele>189.4</ele>
        <time>2021-07-10T06:45:06</time>
      </trkpt>
      <trkpt lat="44.73917" lon="4.87962">
        <ele>189.4</ele>
        <time>2021-07-10T06:45:07</time>
      </trkpt>
      <trkpt lat="44.73916" lon="4.8796">
        <ele>189.6</ele>
        <time>2021-07-10T06:45:08</time>
      </trkpt>
      <trkpt lat="44.73916" lon="4.87957">
        <ele>189.8</ele>
        <time>2021-07-10T06:45:09</time>
      </trkpt>
      <trkpt lat="44.73914" lon="4.87955">
        <ele>189.8</ele>
        <time>2021-07-10T06:45:10</time>
      </trkpt>
      <trkpt lat="44.73912" lon="4.87952">
        <ele>190</ele>
        <time>2021-07-10T06:45:11</time>
      </trkpt>
      <trkpt lat="44.73911" lon="4.8795">
        <ele>190.2</ele>
        <time>2021-07-10T06:45:12</time>
      </trkpt>
      <trkpt lat="44.73909" lon="4.87947">
        <ele>190.4</ele>
        <time>2021-07-10T06:45:13</time>
      </trkpt>
      <trkpt lat="44.73908" lon="4.87944">
        <ele>190.4</ele>
        <time>2021-07-10T06:45:14</time>
      </trkpt>
      <trkpt lat="44.73907" lon="4.87942">
        <ele>190.6</ele>
        <time>2021-07-10T06:45:15</time>
      </trkpt>
      <trkpt lat="44.73905" lon="4.8794">
        <ele>190.8</ele>
        <time>2021-07-10T06:45:16</time>
      </trkpt>
      <trkpt lat="44.73904" lon="4.87936">
        <ele>190.8</ele>
        <time>2021-07-10T06:45:17</time>
      </trkpt>
      <trkpt lat="44.73903" lon="4.87933">
        <ele>191</ele>
        <time>2021-07-10T06:45:18</time>
      </trkpt>
      <trkpt lat="44.73902" lon="4.87931">
        <ele>191</ele>
        <time>2021-07-10T06:45:19</time>
      </trkpt>
      <trkpt lat="44.73899" lon="4.87926">
        <ele>191.2</ele>
        <time>2021-07-10T06:45:20</time>
      </trkpt>
      <trkpt lat="44.73899" lon="4.87926">
        <ele>191.2</ele>
        <time>2021-07-10T06:45:21</time>
      </trkpt>
      <trkpt lat="44.73896" lon="4.87921">
        <ele>191.4</ele>
        <time>2021-07-10T06:45:22</time>
      </trkpt>
      <trkpt lat="44.73896" lon="4.87921">
        <ele>191.4</ele>
        <time>2021-07-10T06:45:23</time>
      </trkpt>
      <trkpt lat="44.73893" lon="4.87917">
        <ele>191.4</ele>
        <time>2021-07-10T06:45:24</time>
      </trkpt>
      <trkpt lat="44.73893" lon="4.87917">
        <ele>191.4</ele>
        <time>2021-07-10T06:45:25</time>
      </trkpt>
      <trkpt lat="44.73891" lon="4.87914">
        <ele>191.4</ele>
        <time>2021-07-10T06:45:26</time>
      </trkpt>
      <trkpt lat="44.73888" lon="4.87912">
        <ele>191.4</ele>
        <time>2021-07-10T06:45:27</time>
      </trkpt>
      <trkpt lat="44.73887" lon="4.87911">
        <ele>191.4</ele>
        <time>2021-07-10T06:45:28</time>
      </trkpt>
      <trkpt lat="44.73884" lon="4.87908">
        <ele>191.4</ele>
        <time>2021-07-10T06:45:29</time>
      </trkpt>
      <trkpt lat="44.73884" lon="4.87908">
        <ele>191.4</ele>
        <time>2021-07-10T06:45:30</time>
      </trkpt>
      <trkpt lat="44.73881" lon="4.87906">
        <ele>191.6</ele>
        <time>2021-07-10T06:45:31</time>
      </trkpt>
      <trkpt lat="44.7388" lon="4.87904">
        <ele>191.6</ele>
        <time>2021-07-10T06:45:32</time>
      </trkpt>
      <trkpt lat="44.73878" lon="4.87902">
        <ele>191.8</ele>
        <time>2021-07-10T06:45:33</time>
      </trkpt>
      <trkpt lat="44.73877" lon="4.879">
        <ele>192</ele>
        <time>2021-07-10T06:45:34</time>
      </trkpt>
      <trkpt lat="44.73877" lon="4.879">
        <ele>192</ele>
        <time>2021-07-10T06:45:35</time>
      </trkpt>
      <trkpt lat="44.73873" lon="4.87896">
        <ele>192.2</ele>
        <time>2021-07-10T06:45:36</time>
      </trkpt>
      <trkpt lat="44.73873" lon="4.87895">
        <ele>192.4</ele>
        <time>2021-07-10T06:45:37</time>
      </trkpt>
      <trkpt lat="44.73871" lon="4.87894">
        <ele>192.6</ele>
        <time>2021-07-10T06:45:38</time>
      </trkpt>
      <trkpt lat="44.73868" lon="4.87893">
        <ele>192.6</ele>
        <time>2021-07-10T06:45:39</time>
      </trkpt>
      <trkpt lat="44.73866" lon="4.8789">
        <ele>192.8</ele>
        <time>2021-07-10T06:45:40</time>
      </trkpt>
      <trkpt lat="44.73864" lon="4.87889">
        <ele>192.8</ele>
        <time>2021-07-10T06:45:41</time>
      </trkpt>
      <trkpt lat="44.7386" lon="4.87886">
        <ele>192.8</ele>
        <time>2021-07-10T06:45:42</time>
      </trkpt>
      <trkpt lat="44.7386" lon="4.87886">
        <ele>193</ele>
        <time>2021-07-10T06:45:43</time>
      </trkpt>
      <trkpt lat="44.73857" lon="4.87884">
        <ele>193.2</ele>
        <time>2021-07-10T06:45:44</time>
      </trkpt>
      <trkpt lat="44.73855" lon="4.87882">
        <ele>193.4</ele>
        <time>2021-07-10T06:45:45</time>
      </trkpt>
      <trkpt lat="44.73853" lon="4.87881">
        <ele>193.6</ele>
        <time>2021-07-10T06:45:46</time>
      </trkpt>
      <trkpt lat="44.73851" lon="4.87879">
        <ele>193.6</ele>
        <time>2021-07-10T06:45:47</time>
      </trkpt>
      <trkpt lat="44.7385" lon="4.87877">
        <ele>193.8</ele>
        <time>2021-07-10T06:45:48</time>
      </trkpt>
      <trkpt lat="44.73847" lon="4.87875">
        <ele>193.8</ele>
        <time>2021-07-10T06:45:49</time>
      </trkpt>
      <trkpt lat="44.73845" lon="4.87873">
        <ele>194</ele>
        <time>2021-07-10T06:45:50</time>
      </trkpt>
      <trkpt lat="44.73842" lon="4.87871">
        <ele>194</ele>
        <time>2021-07-10T06:45:51</time>
      </trkpt>
      <trkpt lat="44.7384" lon="4.87869">
        <ele>194</ele>
        <time>2021-07-10T06:45:52</time>
      </trkpt>
      <trkpt lat="44.73836" lon="4.87865">
        <ele>194.2</ele>
        <time>2021-07-10T06:45:53</time>
      </trkpt>
      <trkpt lat="44.73836" lon="4.87865">
        <ele>194.2</ele>
        <time>2021-07-10T06:45:54</time>
      </trkpt>
      <trkpt lat="44.73834" lon="4.87863">
        <ele>194.4</ele>
        <time>2021-07-10T06:45:55</time>
      </trkpt>
      <trkpt lat="44.73832" lon="4.87861">
        <ele>194.6</ele>
        <time>2021-07-10T06:45:56</time>
      </trkpt>
      <trkpt lat="44.7383" lon="4.8786">
        <ele>194.6</ele>
        <time>2021-07-10T06:45:57</time>
      </trkpt>
      <trkpt lat="44.73827" lon="4.87858">
        <ele>194.6</ele>
        <time>2021-07-10T06:45:58</time>
      </trkpt>
      <trkpt lat="44.73825" lon="4.87857">
        <ele>194.8</ele>
        <time>2021-07-10T06:45:59</time>
      </trkpt>
      <trkpt lat="44.73823" lon="4.87856">
        <ele>194.8</ele>
        <time>2021-07-10T06:46:00</time>
      </trkpt>
      <trkpt lat="44.73821" lon="4.87854">
        <ele>194.8</ele>
        <time>2021-07-10T06:46:01</time>
      </trkpt>
      <trkpt lat="44.73819" lon="4.87852">
        <ele>194.8</ele>
        <time>2021-07-10T06:46:02</time>
      </trkpt>
      <trkpt lat="44.73817" lon="4.87851">
        <ele>194.8</ele>
        <time>2021-07-10T06:46:03</time>
      </trkpt>
      <trkpt lat="44.73815" lon="4.87849">
        <ele>194.8</ele>
        <time>2021-07-10T06:46:04</time>
      </trkpt>
      <trkpt lat="44.73813" lon="4.87847">
        <ele>195</ele>
        <time>2021-07-10T06:46:05</time>
      </trkpt>
      <trkpt lat="44.7381" lon="4.87846">
        <ele>195.2</ele>
        <time>2021-07-10T06:46:06</time>
      </trkpt>
      <trkpt lat="44.73808" lon="4.87843">
        <ele>195.2</ele>
        <time>2021-07-10T06:46:07</time>
      </trkpt>
      <trkpt lat="44.73806" lon="4.87841">
        <ele>195.4</ele>
        <time>2021-07-10T06:46:08</time>
      </trkpt>
      <trkpt lat="44.73803" lon="4.87839">
        <ele>195.6</ele>
        <time>2021-07-10T06:46:09</time>
      </trkpt>
      <trkpt lat="44.73801" lon="4.87837">
        <ele>195.8</ele>
        <time>2021-07-10T06:46:10</time>
      </trkpt>
      <trkpt lat="44.73798" lon="4.87834">
        <ele>195.8</ele>
        <time>2021-07-10T06:46:11</time>
      </trkpt>
      <trkpt lat="44.73795" lon="4.87832">
        <ele>195.8</ele>
        <time>2021-07-10T06:46:12</time>
      </trkpt>
      <trkpt lat="44.73793" lon="4.8783">
        <ele>195.8</ele>
        <time>2021-07-10T06:46:13</time>
      </trkpt>
      <trkpt lat="44.73791" lon="4.87828">
        <ele>196</ele>
        <time>2021-07-10T06:46:14</time>
      </trkpt>
      <trkpt lat="44.73788" lon="4.87824">
        <ele>196</ele>
        <time>2021-07-10T06:46:15</time>
      </trkpt>
      <trkpt lat="44.73785" lon="4.87822">
        <ele>196.2</ele>
        <time>2021-07-10T06:46:16</time>
      </trkpt>
      <trkpt lat="44.73784" lon="4.8782">
        <ele>196.4</ele>
        <time>2021-07-10T06:46:17</time>
      </trkpt>
      <trkpt lat="44.73782" lon="4.87819">
        <ele>196.4</ele>
        <time>2021-07-10T06:46:18</time>
      </trkpt>
      <trkpt lat="44.7378" lon="4.87817">
        <ele>196.6</ele>
        <time>2021-07-10T06:46:19</time>
      </trkpt>
      <trkpt lat="44.73778" lon="4.87815">
        <ele>196.8</ele>
        <time>2021-07-10T06:46:20</time>
      </trkpt>
      <trkpt lat="44.73775" lon="4.87813">
        <ele>196.8</ele>
        <time>2021-07-10T06:46:21</time>
      </trkpt>
      <trkpt lat="44.73774" lon="4.8781">
        <ele>197</ele>
        <time>2021-07-10T06:46:22</time>
      </trkpt>
      <trkpt lat="44.73772" lon="4.87808">
        <ele>197</ele>
        <time>2021-07-10T06:46:23</time>
      </trkpt>
      <trkpt lat="44.7377" lon="4.87805">
        <ele>197</ele>
        <time>2021-07-10T06:46:24</time>
      </trkpt>
      <trkpt lat="44.73768" lon="4.87803">
        <ele>197.2</ele>
        <time>2021-07-10T06:46:25</time>
      </trkpt>
      <trkpt lat="44.73767" lon="4.878">
        <ele>197.2</ele>
        <time>2021-07-10T06:46:26</time>
      </trkpt>
      <trkpt lat="44.73765" lon="4.87798">
        <ele>197.4</ele>
        <time>2021-07-10T06:46:27</time>
      </trkpt>
      <trkpt lat="44.73763" lon="4.87797">
        <ele>197.4</ele>
        <time>2021-07-10T06:46:28</time>
      </trkpt>
      <trkpt lat="44.73761" lon="4.87795">
        <ele>197.6</ele>
        <time>2021-07-10T06:46:29</time>
      </trkpt>
      <trkpt lat="44.73759" lon="4.87793">
        <ele>197.6</ele>
        <time>2021-07-10T06:46:30</time>
      </trkpt>
      <trkpt lat="44.73757" lon="4.87792">
        <ele>197.6</ele>
        <time>2021-07-10T06:46:31</time>
      </trkpt>
      <trkpt lat="44.73755" lon="4.87789">
        <ele>197.6</ele>
        <time>2021-07-10T06:46:32</time>
      </trkpt>
      <trkpt lat="44.73752" lon="4.87787">
        <ele>197.8</ele>
        <time>2021-07-10T06:46:33</time>
      </trkpt>
      <trkpt lat="44.7375" lon="4.87785">
        <ele>197.8</ele>
        <time>2021-07-10T06:46:34</time>
      </trkpt>
      <trkpt lat="44.73748" lon="4.87782">
        <ele>198</ele>
        <time>2021-07-10T06:46:35</time>
      </trkpt>
      <trkpt lat="44.73745" lon="4.8778">
        <ele>198.2</ele>
        <time>2021-07-10T06:46:36</time>
      </trkpt>
      <trkpt lat="44.73744" lon="4.87778">
        <ele>198.2</ele>
        <time>2021-07-10T06:46:37</time>
      </trkpt>
      <trkpt lat="44.73739" lon="4.87775">
        <ele>198.2</ele>
        <time>2021-07-10T06:46:38</time>
      </trkpt>
      <trkpt lat="44.73739" lon="4.87775">
        <ele>198.2</ele>
        <time>2021-07-10T06:46:39</time>
      </trkpt>
      <trkpt lat="44.73737" lon="4.87772">
        <ele>198.2</ele>
        <time>2021-07-10T06:46:40</time>
      </trkpt>
      <trkpt lat="44.73735" lon="4.8777">
        <ele>198.2</ele>
        <time>2021-07-10T06:46:41</time>
      </trkpt>
      <trkpt lat="44.73733" lon="4.87767">
        <ele>198.4</ele>
        <time>2021-07-10T06:46:42</time>
      </trkpt>
      <trkpt lat="44.73731" lon="4.87765">
        <ele>198.6</ele>
        <time>2021-07-10T06:46:43</time>
      </trkpt>
      <trkpt lat="44.73728" lon="4.87764">
        <ele>198.6</ele>
        <time>2021-07-10T06:46:44</time>
      </trkpt>
      <trkpt lat="44.73726" lon="4.87762">
        <ele>198.6</ele>
        <time>2021-07-10T06:46:45</time>
      </trkpt>
      <trkpt lat="44.73721" lon="4.87758">
        <ele>198.8</ele>
        <time>2021-07-10T06:46:46</time>
      </trkpt>
      <trkpt lat="44.73721" lon="4.87758">
        <ele>198.6</ele>
        <time>2021-07-10T06:46:47</time>
      </trkpt>
      <trkpt lat="44.73719" lon="4.87755">
        <ele>198.8</ele>
        <time>2021-07-10T06:46:48</time>
      </trkpt>
      <trkpt lat="44.73716" lon="4.87753">
        <ele>198.8</ele>
        <time>2021-07-10T06:46:49</time>
      </trkpt>
      <trkpt lat="44.73713" lon="4.87751">
        <ele>198.8</ele>
        <time>2021-07-10T06:46:50</time>
      </trkpt>
      <trkpt lat="44.7371" lon="4.87749">
        <ele>198.8</ele>
        <time>2021-07-10T06:46:51</time>
      </trkpt>
      <trkpt lat="44.73705" lon="4.87745">
        <ele>198.8</ele>
        <time>2021-07-10T06:46:52</time>
      </trkpt>
      <trkpt lat="44.73705" lon="4.87745">
        <ele>198.8</ele>
        <time>2021-07-10T06:46:53</time>
      </trkpt>
      <trkpt lat="44.73702" lon="4.87743">
        <ele>199</ele>
        <time>2021-07-10T06:46:54</time>
      </trkpt>
      <trkpt lat="44.73699" lon="4.87741">
        <ele>199</ele>
        <time>2021-07-10T06:46:55</time>
      </trkpt>
      <trkpt lat="44.73696" lon="4.87739">
        <ele>199</ele>
        <time>2021-07-10T06:46:56</time>
      </trkpt>
      <trkpt lat="44.73694" lon="4.87736">
        <ele>199</ele>
        <time>2021-07-10T06:46:57</time>
      </trkpt>
      <trkpt lat="44.73691" lon="4.87734">
        <ele>199.2</ele>
        <time>2021-07-10T06:46:58</time>
      </trkpt>
      <trkpt lat="44.73689" lon="4.87732">
        <ele>199.2</ele>
        <time>2021-07-10T06:46:59</time>
      </trkpt>
      <trkpt lat="44.73687" lon="4.8773">
        <ele>199.2</ele>
        <time>2021-07-10T06:47:00</time>
      </trkpt>
      <trkpt lat="44.73684" lon="4.87728">
        <ele>199.4</ele>
        <time>2021-07-10T06:47:01</time>
      </trkpt>
      <trkpt lat="44.73682" lon="4.87726">
        <ele>199.6</ele>
        <time>2021-07-10T06:47:02</time>
      </trkpt>
      <trkpt lat="44.73679" lon="4.87725">
        <ele>199.6</ele>
        <time>2021-07-10T06:47:03</time>
      </trkpt>
      <trkpt lat="44.73676" lon="4.87724">
        <ele>199.8</ele>
        <time>2021-07-10T06:47:04</time>
      </trkpt>
      <trkpt lat="44.73672" lon="4.87723">
        <ele>199.8</ele>
        <time>2021-07-10T06:47:05</time>
      </trkpt>
      <trkpt lat="44.7367" lon="4.87721">
        <ele>200</ele>
        <time>2021-07-10T06:47:06</time>
      </trkpt>
      <trkpt lat="44.73667" lon="4.8772">
        <ele>200</ele>
        <time>2021-07-10T06:47:07</time>
      </trkpt>
      <trkpt lat="44.73666" lon="4.87716">
        <ele>200.2</ele>
        <time>2021-07-10T06:47:08</time>
      </trkpt>
      <trkpt lat="44.73664" lon="4.87712">
        <ele>200.2</ele>
        <time>2021-07-10T06:47:09</time>
      </trkpt>
      <trkpt lat="44.73661" lon="4.87709">
        <ele>200.4</ele>
        <time>2021-07-10T06:47:10</time>
      </trkpt>
      <trkpt lat="44.73656" lon="4.87708">
        <ele>200.4</ele>
        <time>2021-07-10T06:47:11</time>
      </trkpt>
      <trkpt lat="44.73655" lon="4.87707">
        <ele>200.4</ele>
        <time>2021-07-10T06:47:12</time>
      </trkpt>
      <trkpt lat="44.73652" lon="4.87707">
        <ele>200.6</ele>
        <time>2021-07-10T06:47:13</time>
      </trkpt>
      <trkpt lat="44.73646" lon="4.87705">
        <ele>200.6</ele>
        <time>2021-07-10T06:47:14</time>
      </trkpt>
      <trkpt lat="44.73646" lon="4.87705">
        <ele>200.6</ele>
        <time>2021-07-10T06:47:15</time>
      </trkpt>
      <trkpt lat="44.73641" lon="4.87703">
        <ele>200.6</ele>
        <time>2021-07-10T06:47:16</time>
      </trkpt>
      <trkpt lat="44.73641" lon="4.87703">
        <ele>200.8</ele>
        <time>2021-07-10T06:47:17</time>
      </trkpt>
      <trkpt lat="44.73638" lon="4.87699">
        <ele>200.8</ele>
        <time>2021-07-10T06:47:18</time>
      </trkpt>
      <trkpt lat="44.73638" lon="4.87699">
        <ele>201</ele>
        <time>2021-07-10T06:47:19</time>
      </trkpt>
      <trkpt lat="44.73637" lon="4.87697">
        <ele>201</ele>
        <time>2021-07-10T06:47:20</time>
      </trkpt>
      <trkpt lat="44.73635" lon="4.87696">
        <ele>201</ele>
        <time>2021-07-10T06:47:21</time>
      </trkpt>
      <trkpt lat="44.7363" lon="4.87695">
        <ele>201.2</ele>
        <time>2021-07-10T06:47:22</time>
      </trkpt>
      <trkpt lat="44.7363" lon="4.87695">
        <ele>201.4</ele>
        <time>2021-07-10T06:47:23</time>
      </trkpt>
      <trkpt lat="44.73626" lon="4.87694">
        <ele>201.4</ele>
        <time>2021-07-10T06:47:24</time>
      </trkpt>
      <trkpt lat="44.73623" lon="4.87693">
        <ele>201.4</ele>
        <time>2021-07-10T06:47:25</time>
      </trkpt>
      <trkpt lat="44.73617" lon="4.8769">
        <ele>201.6</ele>
        <time>2021-07-10T06:47:26</time>
      </trkpt>
      <trkpt lat="44.73617" lon="4.8769">
        <ele>201.6</ele>
        <time>2021-07-10T06:47:27</time>
      </trkpt>
      <trkpt lat="44.73614" lon="4.87689">
        <ele>201.6</ele>
        <time>2021-07-10T06:47:28</time>
      </trkpt>
      <trkpt lat="44.73612" lon="4.87687">
        <ele>201.6</ele>
        <time>2021-07-10T06:47:29</time>
      </trkpt>
      <trkpt lat="44.7361" lon="4.87684">
        <ele>201.6</ele>
        <time>2021-07-10T06:47:30</time>
      </trkpt>
      <trkpt lat="44.73603" lon="4.87682">
        <ele>201.8</ele>
        <time>2021-07-10T06:47:31</time>
      </trkpt>
      <trkpt lat="44.73603" lon="4.87682">
        <ele>201.8</ele>
        <time>2021-07-10T06:47:32</time>
      </trkpt>
      <trkpt lat="44.73601" lon="4.87682">
        <ele>201.8</ele>
        <time>2021-07-10T06:47:33</time>
      </trkpt>
      <trkpt lat="44.73598" lon="4.8768">
        <ele>202</ele>
        <time>2021-07-10T06:47:34</time>
      </trkpt>
      <trkpt lat="44.73591" lon="4.87678">
        <ele>202.2</ele>
        <time>2021-07-10T06:47:35</time>
      </trkpt>
      <trkpt lat="44.73591" lon="4.87678">
        <ele>202.2</ele>
        <time>2021-07-10T06:47:36</time>
      </trkpt>
      <trkpt lat="44.73587" lon="4.87678">
        <ele>202.2</ele>
        <time>2021-07-10T06:47:37</time>
      </trkpt>
      <trkpt lat="44.73584" lon="4.87676">
        <ele>202.4</ele>
        <time>2021-07-10T06:47:38</time>
      </trkpt>
      <trkpt lat="44.7358" lon="4.87677">
        <ele>202.4</ele>
        <time>2021-07-10T06:47:39</time>
      </trkpt>
      <trkpt lat="44.73577" lon="4.87675">
        <ele>202.4</ele>
        <time>2021-07-10T06:47:40</time>
      </trkpt>
      <trkpt lat="44.73574" lon="4.87675">
        <ele>202.4</ele>
        <time>2021-07-10T06:47:41</time>
      </trkpt>
      <trkpt lat="44.73574" lon="4.87675">
        <ele>202.4</ele>
        <time>2021-07-10T06:47:42</time>
      </trkpt>
      <trkpt lat="44.73569" lon="4.87674">
        <ele>202.6</ele>
        <time>2021-07-10T06:47:43</time>
      </trkpt>
      <trkpt lat="44.73562" lon="4.87676">
        <ele>202.8</ele>
        <time>2021-07-10T06:47:44</time>
      </trkpt>
      <trkpt lat="44.73562" lon="4.87676">
        <ele>202.8</ele>
        <time>2021-07-10T06:47:45</time>
      </trkpt>
      <trkpt lat="44.73559" lon="4.87676">
        <ele>202.8</ele>
        <time>2021-07-10T06:47:46</time>
      </trkpt>
      <trkpt lat="44.73557" lon="4.87676">
        <ele>203</ele>
        <time>2021-07-10T06:47:47</time>
      </trkpt>
      <trkpt lat="44.73548" lon="4.8768">
        <ele>203</ele>
        <time>2021-07-10T06:47:48</time>
      </trkpt>
      <trkpt lat="44.73548" lon="4.8768">
        <ele>203.2</ele>
        <time>2021-07-10T06:47:49</time>
      </trkpt>
      <trkpt lat="44.73546" lon="4.87677">
        <ele>203.2</ele>
        <time>2021-07-10T06:47:50</time>
      </trkpt>
      <trkpt lat="44.73544" lon="4.87677">
        <ele>203.4</ele>
        <time>2021-07-10T06:47:51</time>
      </trkpt>
      <trkpt lat="44.73541" lon="4.87677">
        <ele>203.4</ele>
        <time>2021-07-10T06:47:52</time>
      </trkpt>
      <trkpt lat="44.73538" lon="4.87678">
        <ele>203.6</ele>
        <time>2021-07-10T06:47:53</time>
      </trkpt>
      <trkpt lat="44.73534" lon="4.87677">
        <ele>203.8</ele>
        <time>2021-07-10T06:47:54</time>
      </trkpt>
      <trkpt lat="44.73531" lon="4.87678">
        <ele>203.8</ele>
        <time>2021-07-10T06:47:55</time>
      </trkpt>
      <trkpt lat="44.73527" lon="4.87677">
        <ele>203.8</ele>
        <time>2021-07-10T06:47:56</time>
      </trkpt>
      <trkpt lat="44.73521" lon="4.87676">
        <ele>204</ele>
        <time>2021-07-10T06:47:57</time>
      </trkpt>
      <trkpt lat="44.73521" lon="4.87676">
        <ele>204</ele>
        <time>2021-07-10T06:47:58</time>
      </trkpt>
      <trkpt lat="44.73518" lon="4.87678">
        <ele>204.2</ele>
        <time>2021-07-10T06:47:59</time>
      </trkpt>
      <trkpt lat="44.73515" lon="4.87679">
        <ele>204.4</ele>
        <time>2021-07-10T06:48:00</time>
      </trkpt>
      <trkpt lat="44.73511" lon="4.87681">
        <ele>204.4</ele>
        <time>2021-07-10T06:48:01</time>
      </trkpt>
      <trkpt lat="44.73511" lon="4.87681">
        <ele>204.6</ele>
        <time>2021-07-10T06:48:02</time>
      </trkpt>
      <trkpt lat="44.73509" lon="4.87681">
        <ele>204.8</ele>
        <time>2021-07-10T06:48:03</time>
      </trkpt>
      <trkpt lat="44.73506" lon="4.87681">
        <ele>204.8</ele>
        <time>2021-07-10T06:48:04</time>
      </trkpt>
      <trkpt lat="44.73504" lon="4.87674">
        <ele>205</ele>
        <time>2021-07-10T06:48:05</time>
      </trkpt>
      <trkpt lat="44.73504" lon="4.87674">
        <ele>205</ele>
        <time>2021-07-10T06:48:06</time>
      </trkpt>
      <trkpt lat="44.73501" lon="4.87675">
        <ele>205</ele>
        <time>2021-07-10T06:48:07</time>
      </trkpt>
      <trkpt lat="44.73492" lon="4.87677">
        <ele>205.2</ele>
        <time>2021-07-10T06:48:08</time>
      </trkpt>
      <trkpt lat="44.73492" lon="4.87677">
        <ele>205.2</ele>
        <time>2021-07-10T06:48:09</time>
      </trkpt>
      <trkpt lat="44.7349" lon="4.87676">
        <ele>205.2</ele>
        <time>2021-07-10T06:48:10</time>
      </trkpt>
      <trkpt lat="44.73488" lon="4.87674">
        <ele>205.4</ele>
        <time>2021-07-10T06:48:11</time>
      </trkpt>
      <trkpt lat="44.73485" lon="4.87674">
        <ele>205.4</ele>
        <time>2021-07-10T06:48:12</time>
      </trkpt>
      <trkpt lat="44.73478" lon="4.87672">
        <ele>205.6</ele>
        <time>2021-07-10T06:48:13</time>
      </trkpt>
      <trkpt lat="44.73478" lon="4.87672">
        <ele>205.6</ele>
        <time>2021-07-10T06:48:14</time>
      </trkpt>
      <trkpt lat="44.73476" lon="4.87669">
        <ele>205.6</ele>
        <time>2021-07-10T06:48:15</time>
      </trkpt>
      <trkpt lat="44.73471" lon="4.87673">
        <ele>205.6</ele>
        <time>2021-07-10T06:48:16</time>
      </trkpt>
      <trkpt lat="44.73471" lon="4.87673">
        <ele>205.6</ele>
        <time>2021-07-10T06:48:17</time>
      </trkpt>
      <trkpt lat="44.73469" lon="4.87673">
        <ele>205.6</ele>
        <time>2021-07-10T06:48:18</time>
      </trkpt>
      <trkpt lat="44.73464" lon="4.87674">
        <ele>205.6</ele>
        <time>2021-07-10T06:48:19</time>
      </trkpt>
      <trkpt lat="44.73464" lon="4.87674">
        <ele>205.4</ele>
        <time>2021-07-10T06:48:20</time>
      </trkpt>
      <trkpt lat="44.73457" lon="4.87675">
        <ele>205.4</ele>
        <time>2021-07-10T06:48:21</time>
      </trkpt>
      <trkpt lat="44.73457" lon="4.87675">
        <ele>205.4</ele>
        <time>2021-07-10T06:48:22</time>
      </trkpt>
      <trkpt lat="44.73454" lon="4.87673">
        <ele>205.4</ele>
        <time>2021-07-10T06:48:23</time>
      </trkpt>
      <trkpt lat="44.73451" lon="4.87672">
        <ele>205.4</ele>
        <time>2021-07-10T06:48:24</time>
      </trkpt>
      <trkpt lat="44.7345" lon="4.87672">
        <ele>205.4</ele>
        <time>2021-07-10T06:48:25</time>
      </trkpt>
      <trkpt lat="44.73447" lon="4.87675">
        <ele>205.6</ele>
        <time>2021-07-10T06:48:26</time>
      </trkpt>
      <trkpt lat="44.73445" lon="4.87674">
        <ele>205.6</ele>
        <time>2021-07-10T06:48:27</time>
      </trkpt>
      <trkpt lat="44.7344" lon="4.87674">
        <ele>205.8</ele>
        <time>2021-07-10T06:48:28</time>
      </trkpt>
      <trkpt lat="44.7344" lon="4.87674">
        <ele>205.8</ele>
        <time>2021-07-10T06:48:29</time>
      </trkpt>
      <trkpt lat="44.73437" lon="4.87677">
        <ele>205.8</ele>
        <time>2021-07-10T06:48:30</time>
      </trkpt>
      <trkpt lat="44.73431" lon="4.87677">
        <ele>205.8</ele>
        <time>2021-07-10T06:48:31</time>
      </trkpt>
      <trkpt lat="44.73426" lon="4.87679">
        <ele>205.8</ele>
        <time>2021-07-10T06:48:32</time>
      </trkpt>
      <trkpt lat="44.73426" lon="4.87679">
        <ele>205.8</ele>
        <time>2021-07-10T06:48:33</time>
      </trkpt>
      <trkpt lat="44.73423" lon="4.87679">
        <ele>205.8</ele>
        <time>2021-07-10T06:48:34</time>
      </trkpt>
      <trkpt lat="44.73415" lon="4.87678">
        <ele>205.8</ele>
        <time>2021-07-10T06:48:35</time>
      </trkpt>
      <trkpt lat="44.73415" lon="4.87678">
        <ele>205.8</ele>
        <time>2021-07-10T06:48:36</time>
      </trkpt>
      <trkpt lat="44.73408" lon="4.87678">
        <ele>205.8</ele>
        <time>2021-07-10T06:48:37</time>
      </trkpt>
      <trkpt lat="44.73408" lon="4.87678">
        <ele>205.8</ele>
        <time>2021-07-10T06:48:38</time>
      </trkpt>
      <trkpt lat="44.73406" lon="4.8768">
        <ele>205.8</ele>
        <time>2021-07-10T06:48:39</time>
      </trkpt>
      <trkpt lat="44.73404" lon="4.87681">
        <ele>205.8</ele>
        <time>2021-07-10T06:48:40</time>
      </trkpt>
      <trkpt lat="44.73402" lon="4.87681">
        <ele>205.8</ele>
        <time>2021-07-10T06:48:41</time>
      </trkpt>
      <trkpt lat="44.73399" lon="4.87682">
        <ele>205.8</ele>
        <time>2021-07-10T06:48:42</time>
      </trkpt>
      <trkpt lat="44.73399" lon="4.87682">
        <ele>206</ele>
        <time>2021-07-10T06:48:43</time>
      </trkpt>
      <trkpt lat="44.73397" lon="4.87682">
        <ele>206</ele>
        <time>2021-07-10T06:48:44</time>
      </trkpt>
      <trkpt lat="44.73395" lon="4.87682">
        <ele>206</ele>
        <time>2021-07-10T06:48:45</time>
      </trkpt>
      <trkpt lat="44.73395" lon="4.87682">
        <ele>206.2</ele>
        <time>2021-07-10T06:48:46</time>
      </trkpt>
      <trkpt lat="44.73393" lon="4.87679">
        <ele>206.2</ele>
        <time>2021-07-10T06:48:47</time>
      </trkpt>
      <trkpt lat="44.73392" lon="4.87675">
        <ele>206.4</ele>
        <time>2021-07-10T06:48:48</time>
      </trkpt>
      <trkpt lat="44.73392" lon="4.8767">
        <ele>206.4</ele>
        <time>2021-07-10T06:48:49</time>
      </trkpt>
      <trkpt lat="44.73391" lon="4.8767">
        <ele>206.6</ele>
        <time>2021-07-10T06:48:50</time>
      </trkpt>
      <trkpt lat="44.73389" lon="4.87669">
        <ele>206.6</ele>
        <time>2021-07-10T06:48:51</time>
      </trkpt>
      <trkpt lat="44.73388" lon="4.87666">
        <ele>206.6</ele>
        <time>2021-07-10T06:48:52</time>
      </trkpt>
      <trkpt lat="44.73385" lon="4.87664">
        <ele>206.8</ele>
        <time>2021-07-10T06:48:53</time>
      </trkpt>
      <trkpt lat="44.73385" lon="4.87664">
        <ele>206.8</ele>
        <time>2021-07-10T06:48:54</time>
      </trkpt>
      <trkpt lat="44.73383" lon="4.87658">
        <ele>206.8</ele>
        <time>2021-07-10T06:48:55</time>
      </trkpt>
      <trkpt lat="44.73379" lon="4.87658">
        <ele>207</ele>
        <time>2021-07-10T06:48:56</time>
      </trkpt>
      <trkpt lat="44.73374" lon="4.87657">
        <ele>207</ele>
        <time>2021-07-10T06:48:57</time>
      </trkpt>
      <trkpt lat="44.73374" lon="4.87657">
        <ele>207.2</ele>
        <time>2021-07-10T06:48:58</time>
      </trkpt>
      <trkpt lat="44.73371" lon="4.87656">
        <ele>207.4</ele>
        <time>2021-07-10T06:48:59</time>
      </trkpt>
      <trkpt lat="44.73365" lon="4.87654">
        <ele>207.4</ele>
        <time>2021-07-10T06:49:00</time>
      </trkpt>
      <trkpt lat="44.73362" lon="4.87653">
        <ele>207.4</ele>
        <time>2021-07-10T06:49:01</time>
      </trkpt>
      <trkpt lat="44.7336" lon="4.8765">
        <ele>207.4</ele>
        <time>2021-07-10T06:49:02</time>
      </trkpt>
      <trkpt lat="44.73357" lon="4.8765">
        <ele>207.4</ele>
        <time>2021-07-10T06:49:03</time>
      </trkpt>
      <trkpt lat="44.73354" lon="4.87647">
        <ele>207.4</ele>
        <time>2021-07-10T06:49:04</time>
      </trkpt>
      <trkpt lat="44.73349" lon="4.87642">
        <ele>207.4</ele>
        <time>2021-07-10T06:49:05</time>
      </trkpt>
      <trkpt lat="44.73349" lon="4.87642">
        <ele>207.4</ele>
        <time>2021-07-10T06:49:06</time>
      </trkpt>
      <trkpt lat="44.73346" lon="4.8764">
        <ele>207.4</ele>
        <time>2021-07-10T06:49:07</time>
      </trkpt>
      <trkpt lat="44.73343" lon="4.87639">
        <ele>207.6</ele>
        <time>2021-07-10T06:49:08</time>
      </trkpt>
      <trkpt lat="44.73339" lon="4.87635">
        <ele>207.6</ele>
        <time>2021-07-10T06:49:09</time>
      </trkpt>
      <trkpt lat="44.73339" lon="4.87635">
        <ele>207.6</ele>
        <time>2021-07-10T06:49:10</time>
      </trkpt>
      <trkpt lat="44.73336" lon="4.87633">
        <ele>207.6</ele>
        <time>2021-07-10T06:49:11</time>
      </trkpt>
      <trkpt lat="44.73334" lon="4.8763">
        <ele>207.6</ele>
        <time>2021-07-10T06:49:12</time>
      </trkpt>
      <trkpt lat="44.7333" lon="4.87629">
        <ele>207.8</ele>
        <time>2021-07-10T06:49:13</time>
      </trkpt>
      <trkpt lat="44.73326" lon="4.87626">
        <ele>208</ele>
        <time>2021-07-10T06:49:14</time>
      </trkpt>
      <trkpt lat="44.73323" lon="4.87623">
        <ele>208.2</ele>
        <time>2021-07-10T06:49:15</time>
      </trkpt>
      <trkpt lat="44.73321" lon="4.8762">
        <ele>208.4</ele>
        <time>2021-07-10T06:49:16</time>
      </trkpt>
      <trkpt lat="44.73314" lon="4.87617">
        <ele>208.6</ele>
        <time>2021-07-10T06:49:17</time>
      </trkpt>
      <trkpt lat="44.73314" lon="4.87617">
        <ele>208.8</ele>
        <time>2021-07-10T06:49:18</time>
      </trkpt>
      <trkpt lat="44.73314" lon="4.87614">
        <ele>209</ele>
        <time>2021-07-10T06:49:19</time>
      </trkpt>
      <trkpt lat="44.73313" lon="4.87612">
        <ele>209</ele>
        <time>2021-07-10T06:49:20</time>
      </trkpt>
      <trkpt lat="44.73309" lon="4.87608">
        <ele>209.2</ele>
        <time>2021-07-10T06:49:21</time>
      </trkpt>
      <trkpt lat="44.73309" lon="4.87608">
        <ele>209.4</ele>
        <time>2021-07-10T06:49:22</time>
      </trkpt>
      <trkpt lat="44.73307" lon="4.87607">
        <ele>209.4</ele>
        <time>2021-07-10T06:49:23</time>
      </trkpt>
      <trkpt lat="44.73306" lon="4.87603">
        <ele>209.6</ele>
        <time>2021-07-10T06:49:24</time>
      </trkpt>
      <trkpt lat="44.73302" lon="4.87604">
        <ele>209.6</ele>
        <time>2021-07-10T06:49:25</time>
      </trkpt>
      <trkpt lat="44.73297" lon="4.87597">
        <ele>209.6</ele>
        <time>2021-07-10T06:49:26</time>
      </trkpt>
      <trkpt lat="44.73297" lon="4.87597">
        <ele>209.8</ele>
        <time>2021-07-10T06:49:27</time>
      </trkpt>
      <trkpt lat="44.73292" lon="4.87595">
        <ele>210</ele>
        <time>2021-07-10T06:49:28</time>
      </trkpt>
      <trkpt lat="44.73292" lon="4.87592">
        <ele>210.2</ele>
        <time>2021-07-10T06:49:29</time>
      </trkpt>
      <trkpt lat="44.73291" lon="4.87589">
        <ele>210.2</ele>
        <time>2021-07-10T06:49:30</time>
      </trkpt>
      <trkpt lat="44.73289" lon="4.87588">
        <ele>210.4</ele>
        <time>2021-07-10T06:49:31</time>
      </trkpt>
      <trkpt lat="44.73289" lon="4.87585">
        <ele>210.6</ele>
        <time>2021-07-10T06:49:32</time>
      </trkpt>
      <trkpt lat="44.73287" lon="4.87582">
        <ele>210.6</ele>
        <time>2021-07-10T06:49:33</time>
      </trkpt>
      <trkpt lat="44.73283" lon="4.87583">
        <ele>210.6</ele>
        <time>2021-07-10T06:49:34</time>
      </trkpt>
      <trkpt lat="44.73277" lon="4.87579">
        <ele>210.6</ele>
        <time>2021-07-10T06:49:35</time>
      </trkpt>
      <trkpt lat="44.73277" lon="4.87579">
        <ele>210.6</ele>
        <time>2021-07-10T06:49:36</time>
      </trkpt>
      <trkpt lat="44.73271" lon="4.87577">
        <ele>210.6</ele>
        <time>2021-07-10T06:49:37</time>
      </trkpt>
      <trkpt lat="44.73271" lon="4.87577">
        <ele>210.8</ele>
        <time>2021-07-10T06:49:38</time>
      </trkpt>
      <trkpt lat="44.73269" lon="4.87572">
        <ele>210.8</ele>
        <time>2021-07-10T06:49:39</time>
      </trkpt>
      <trkpt lat="44.73269" lon="4.87569">
        <ele>211</ele>
        <time>2021-07-10T06:49:40</time>
      </trkpt>
      <trkpt lat="44.73266" lon="4.87567">
        <ele>211.2</ele>
        <time>2021-07-10T06:49:41</time>
      </trkpt>
      <trkpt lat="44.73264" lon="4.87565">
        <ele>211.2</ele>
        <time>2021-07-10T06:49:42</time>
      </trkpt>
      <trkpt lat="44.73263" lon="4.87561">
        <ele>211.2</ele>
        <time>2021-07-10T06:49:43</time>
      </trkpt>
      <trkpt lat="44.73261" lon="4.87557">
        <ele>211.4</ele>
        <time>2021-07-10T06:49:44</time>
      </trkpt>
      <trkpt lat="44.73259" lon="4.87554">
        <ele>211.2</ele>
        <time>2021-07-10T06:49:45</time>
      </trkpt>
      <trkpt lat="44.73257" lon="4.87551">
        <ele>211.2</ele>
        <time>2021-07-10T06:49:46</time>
      </trkpt>
      <trkpt lat="44.73255" lon="4.87549">
        <ele>211.2</ele>
        <time>2021-07-10T06:49:47</time>
      </trkpt>
      <trkpt lat="44.73255" lon="4.87545">
        <ele>211.2</ele>
        <time>2021-07-10T06:49:48</time>
      </trkpt>
      <trkpt lat="44.73254" lon="4.87542">
        <ele>211.2</ele>
        <time>2021-07-10T06:49:49</time>
      </trkpt>
      <trkpt lat="44.73249" lon="4.87539">
        <ele>211.2</ele>
        <time>2021-07-10T06:49:50</time>
      </trkpt>
      <trkpt lat="44.73247" lon="4.87535">
        <ele>211.4</ele>
        <time>2021-07-10T06:49:51</time>
      </trkpt>
      <trkpt lat="44.73245" lon="4.87531">
        <ele>211.4</ele>
        <time>2021-07-10T06:49:52</time>
      </trkpt>
      <trkpt lat="44.73244" lon="4.87528">
        <ele>211.6</ele>
        <time>2021-07-10T06:49:53</time>
      </trkpt>
      <trkpt lat="44.73241" lon="4.87524">
        <ele>211.6</ele>
        <time>2021-07-10T06:49:54</time>
      </trkpt>
      <trkpt lat="44.73239" lon="4.87521">
        <ele>211.8</ele>
        <time>2021-07-10T06:49:55</time>
      </trkpt>
      <trkpt lat="44.73236" lon="4.87517">
        <ele>212</ele>
        <time>2021-07-10T06:49:56</time>
      </trkpt>
      <trkpt lat="44.73233" lon="4.87517">
        <ele>212</ele>
        <time>2021-07-10T06:49:57</time>
      </trkpt>
      <trkpt lat="44.7323" lon="4.87516">
        <ele>212</ele>
        <time>2021-07-10T06:49:58</time>
      </trkpt>
      <trkpt lat="44.73229" lon="4.87514">
        <ele>212.2</ele>
        <time>2021-07-10T06:49:59</time>
      </trkpt>
      <trkpt lat="44.73227" lon="4.87512">
        <ele>212.2</ele>
        <time>2021-07-10T06:50:00</time>
      </trkpt>
      <trkpt lat="44.73227" lon="4.87508">
        <ele>212.2</ele>
        <time>2021-07-10T06:50:01</time>
      </trkpt>
      <trkpt lat="44.73223" lon="4.87506">
        <ele>212.2</ele>
        <time>2021-07-10T06:50:02</time>
      </trkpt>
      <trkpt lat="44.73223" lon="4.87506">
        <ele>212.4</ele>
        <time>2021-07-10T06:50:03</time>
      </trkpt>
      <trkpt lat="44.7322" lon="4.87504">
        <ele>212.4</ele>
        <time>2021-07-10T06:50:04</time>
      </trkpt>
      <trkpt lat="44.73218" lon="4.87502">
        <ele>212.6</ele>
        <time>2021-07-10T06:50:05</time>
      </trkpt>
      <trkpt lat="44.73217" lon="4.87499">
        <ele>212.6</ele>
        <time>2021-07-10T06:50:06</time>
      </trkpt>
      <trkpt lat="44.73214" lon="4.87493">
        <ele>212.8</ele>
        <time>2021-07-10T06:50:07</time>
      </trkpt>
      <trkpt lat="44.73214" lon="4.87488">
        <ele>212.8</ele>
        <time>2021-07-10T06:50:08</time>
      </trkpt>
      <trkpt lat="44.73214" lon="4.87488">
        <ele>213</ele>
        <time>2021-07-10T06:50:09</time>
      </trkpt>
      <trkpt lat="44.73212" lon="4.87487">
        <ele>213</ele>
        <time>2021-07-10T06:50:10</time>
      </trkpt>
      <trkpt lat="44.73208" lon="4.87483">
        <ele>213</ele>
        <time>2021-07-10T06:50:11</time>
      </trkpt>
      <trkpt lat="44.73204" lon="4.87477">
        <ele>213.2</ele>
        <time>2021-07-10T06:50:12</time>
      </trkpt>
      <trkpt lat="44.73204" lon="4.87477">
        <ele>213.2</ele>
        <time>2021-07-10T06:50:13</time>
      </trkpt>
      <trkpt lat="44.732" lon="4.87479">
        <ele>213.2</ele>
        <time>2021-07-10T06:50:14</time>
      </trkpt>
      <trkpt lat="44.73199" lon="4.87475">
        <ele>213.4</ele>
        <time>2021-07-10T06:50:15</time>
      </trkpt>
      <trkpt lat="44.73198" lon="4.87472">
        <ele>213.6</ele>
        <time>2021-07-10T06:50:16</time>
      </trkpt>
      <trkpt lat="44.73197" lon="4.8747">
        <ele>213.8</ele>
        <time>2021-07-10T06:50:17</time>
      </trkpt>
      <trkpt lat="44.73196" lon="4.87468">
        <ele>214</ele>
        <time>2021-07-10T06:50:18</time>
      </trkpt>
      <trkpt lat="44.73195" lon="4.87465">
        <ele>214.2</ele>
        <time>2021-07-10T06:50:19</time>
      </trkpt>
      <trkpt lat="44.73193" lon="4.87461">
        <ele>214.6</ele>
        <time>2021-07-10T06:50:20</time>
      </trkpt>
      <trkpt lat="44.73192" lon="4.87459">
        <ele>214.6</ele>
        <time>2021-07-10T06:50:21</time>
      </trkpt>
      <trkpt lat="44.7319" lon="4.87456">
        <ele>214.8</ele>
        <time>2021-07-10T06:50:22</time>
      </trkpt>
      <trkpt lat="44.73185" lon="4.87457">
        <ele>214.8</ele>
        <time>2021-07-10T06:50:23</time>
      </trkpt>
      <trkpt lat="44.73185" lon="4.87457">
        <ele>214.8</ele>
        <time>2021-07-10T06:50:24</time>
      </trkpt>
      <trkpt lat="44.73181" lon="4.87456">
        <ele>215</ele>
        <time>2021-07-10T06:50:25</time>
      </trkpt>
      <trkpt lat="44.73182" lon="4.8745">
        <ele>215</ele>
        <time>2021-07-10T06:50:26</time>
      </trkpt>
      <trkpt lat="44.73179" lon="4.87452">
        <ele>215.2</ele>
        <time>2021-07-10T06:50:27</time>
      </trkpt>
      <trkpt lat="44.73177" lon="4.87453">
        <ele>215.2</ele>
        <time>2021-07-10T06:50:28</time>
      </trkpt>
      <trkpt lat="44.73175" lon="4.87454">
        <ele>215.4</ele>
        <time>2021-07-10T06:50:29</time>
      </trkpt>
      <trkpt lat="44.73172" lon="4.87452">
        <ele>215.8</ele>
        <time>2021-07-10T06:50:30</time>
      </trkpt>
      <trkpt lat="44.7317" lon="4.87451">
        <ele>216</ele>
        <time>2021-07-10T06:50:31</time>
      </trkpt>
      <trkpt lat="44.73166" lon="4.87455">
        <ele>216.2</ele>
        <time>2021-07-10T06:50:32</time>
      </trkpt>
      <trkpt lat="44.73165" lon="4.87454">
        <ele>216.4</ele>
        <time>2021-07-10T06:50:33</time>
      </trkpt>
      <trkpt lat="44.73163" lon="4.87451">
        <ele>216.6</ele>
        <time>2021-07-10T06:50:34</time>
      </trkpt>
      <trkpt lat="44.73162" lon="4.87447">
        <ele>216.8</ele>
        <time>2021-07-10T06:50:35</time>
      </trkpt>
      <trkpt lat="44.73161" lon="4.87447">
        <ele>217</ele>
        <time>2021-07-10T06:50:36</time>
      </trkpt>
      <trkpt lat="44.73158" lon="4.87445">
        <ele>217.2</ele>
        <time>2021-07-10T06:50:37</time>
      </trkpt>
      <trkpt lat="44.73155" lon="4.87444">
        <ele>217.4</ele>
        <time>2021-07-10T06:50:38</time>
      </trkpt>
      <trkpt lat="44.73155" lon="4.87445">
        <ele>217.6</ele>
        <time>2021-07-10T06:50:39</time>
      </trkpt>
      <trkpt lat="44.73155" lon="4.87443">
        <ele>217.8</ele>
        <time>2021-07-10T06:50:40</time>
      </trkpt>
      <trkpt lat="44.73151" lon="4.87443">
        <ele>218</ele>
        <time>2021-07-10T06:50:41</time>
      </trkpt>
      <trkpt lat="44.7315" lon="4.87444">
        <ele>218.2</ele>
        <time>2021-07-10T06:50:42</time>
      </trkpt>
      <trkpt lat="44.73146" lon="4.87445">
        <ele>218.4</ele>
        <time>2021-07-10T06:50:43</time>
      </trkpt>
      <trkpt lat="44.73144" lon="4.87444">
        <ele>218.6</ele>
        <time>2021-07-10T06:50:44</time>
      </trkpt>
      <trkpt lat="44.73141" lon="4.87442">
        <ele>218.8</ele>
        <time>2021-07-10T06:50:45</time>
      </trkpt>
      <trkpt lat="44.7314" lon="4.87439">
        <ele>219</ele>
        <time>2021-07-10T06:50:46</time>
      </trkpt>
      <trkpt lat="44.73138" lon="4.8744">
        <ele>219.2</ele>
        <time>2021-07-10T06:50:47</time>
      </trkpt>
      <trkpt lat="44.73136" lon="4.87439">
        <ele>219.4</ele>
        <time>2021-07-10T06:50:48</time>
      </trkpt>
      <trkpt lat="44.73134" lon="4.87438">
        <ele>219.6</ele>
        <time>2021-07-10T06:50:49</time>
      </trkpt>
      <trkpt lat="44.73133" lon="4.87435">
        <ele>219.8</ele>
        <time>2021-07-10T06:50:50</time>
      </trkpt>
      <trkpt lat="44.73131" lon="4.87435">
        <ele>220</ele>
        <time>2021-07-10T06:50:51</time>
      </trkpt>
      <trkpt lat="44.7313" lon="4.87436">
        <ele>220.2</ele>
        <time>2021-07-10T06:50:52</time>
      </trkpt>
      <trkpt lat="44.73128" lon="4.87436">
        <ele>220.4</ele>
        <time>2021-07-10T06:50:53</time>
      </trkpt>
      <trkpt lat="44.73126" lon="4.87433">
        <ele>220.6</ele>
        <time>2021-07-10T06:50:54</time>
      </trkpt>
      <trkpt lat="44.73124" lon="4.87431">
        <ele>220.8</ele>
        <time>2021-07-10T06:50:55</time>
      </trkpt>
      <trkpt lat="44.73124" lon="4.87426">
        <ele>221</ele>
        <time>2021-07-10T06:50:56</time>
      </trkpt>
      <trkpt lat="44.73124" lon="4.87426">
        <ele>221.2</ele>
        <time>2021-07-10T06:50:57</time>
      </trkpt>
      <trkpt lat="44.73123" lon="4.87424">
        <ele>221.2</ele>
        <time>2021-07-10T06:50:58</time>
      </trkpt>
      <trkpt lat="44.73123" lon="4.87426">
        <ele>221.4</ele>
        <time>2021-07-10T06:50:59</time>
      </trkpt>
      <trkpt lat="44.7312" lon="4.87423">
        <ele>221.6</ele>
        <time>2021-07-10T06:51:00</time>
      </trkpt>
      <trkpt lat="44.73119" lon="4.87421">
        <ele>221.8</ele>
        <time>2021-07-10T06:51:01</time>
      </trkpt>
      <trkpt lat="44.73116" lon="4.87419">
        <ele>222</ele>
        <time>2021-07-10T06:51:02</time>
      </trkpt>
      <trkpt lat="44.73114" lon="4.87415">
        <ele>222.2</ele>
        <time>2021-07-10T06:51:03</time>
      </trkpt>
      <trkpt lat="44.7311" lon="4.87406">
        <ele>222.4</ele>
        <time>2021-07-10T06:51:04</time>
      </trkpt>
      <trkpt lat="44.7311" lon="4.87406">
        <ele>222.6</ele>
        <time>2021-07-10T06:51:05</time>
      </trkpt>
      <trkpt lat="44.73108" lon="4.87405">
        <ele>222.8</ele>
        <time>2021-07-10T06:51:06</time>
      </trkpt>
      <trkpt lat="44.73106" lon="4.87403">
        <ele>223</ele>
        <time>2021-07-10T06:51:07</time>
      </trkpt>
      <trkpt lat="44.73104" lon="4.87407">
        <ele>223.2</ele>
        <time>2021-07-10T06:51:08</time>
      </trkpt>
      <trkpt lat="44.73101" lon="4.87406">
        <ele>223.4</ele>
        <time>2021-07-10T06:51:09</time>
      </trkpt>
      <trkpt lat="44.73097" lon="4.87403">
        <ele>223.4</ele>
        <time>2021-07-10T06:51:10</time>
      </trkpt>
      <trkpt lat="44.73093" lon="4.874">
        <ele>223.6</ele>
        <time>2021-07-10T06:51:11</time>
      </trkpt>
      <trkpt lat="44.73092" lon="4.874">
        <ele>223.8</ele>
        <time>2021-07-10T06:51:12</time>
      </trkpt>
      <trkpt lat="44.73091" lon="4.874">
        <ele>224</ele>
        <time>2021-07-10T06:51:13</time>
      </trkpt>
      <trkpt lat="44.73092" lon="4.87398">
        <ele>224.2</ele>
        <time>2021-07-10T06:51:14</time>
      </trkpt>
      <trkpt lat="44.73091" lon="4.87396">
        <ele>224.4</ele>
        <time>2021-07-10T06:51:15</time>
      </trkpt>
      <trkpt lat="44.7309" lon="4.87393">
        <ele>224.6</ele>
        <time>2021-07-10T06:51:16</time>
      </trkpt>
      <trkpt lat="44.73091" lon="4.87393">
        <ele>224.8</ele>
        <time>2021-07-10T06:51:17</time>
      </trkpt>
      <trkpt lat="44.73089" lon="4.87389">
        <ele>225</ele>
        <time>2021-07-10T06:51:18</time>
      </trkpt>
      <trkpt lat="44.73084" lon="4.87389">
        <ele>225</ele>
        <time>2021-07-10T06:51:19</time>
      </trkpt>
      <trkpt lat="44.73082" lon="4.87387">
        <ele>225.2</ele>
        <time>2021-07-10T06:51:20</time>
      </trkpt>
      <trkpt lat="44.7308" lon="4.87384">
        <ele>225.4</ele>
        <time>2021-07-10T06:51:21</time>
      </trkpt>
      <trkpt lat="44.73077" lon="4.87382">
        <ele>225.6</ele>
        <time>2021-07-10T06:51:22</time>
      </trkpt>
      <trkpt lat="44.73075" lon="4.87379">
        <ele>225.8</ele>
        <time>2021-07-10T06:51:23</time>
      </trkpt>
      <trkpt lat="44.73076" lon="4.87374">
        <ele>226</ele>
        <time>2021-07-10T06:51:24</time>
      </trkpt>
      <trkpt lat="44.73075" lon="4.87373">
        <ele>226.2</ele>
        <time>2021-07-10T06:51:25</time>
      </trkpt>
      <trkpt lat="44.73073" lon="4.87369">
        <ele>226.4</ele>
        <time>2021-07-10T06:51:26</time>
      </trkpt>
      <trkpt lat="44.73073" lon="4.87369">
        <ele>226.4</ele>
        <time>2021-07-10T06:51:27</time>
      </trkpt>
      <trkpt lat="44.73071" lon="4.87368">
        <ele>226.6</ele>
        <time>2021-07-10T06:51:28</time>
      </trkpt>
      <trkpt lat="44.73069" lon="4.87366">
        <ele>226.8</ele>
        <time>2021-07-10T06:51:29</time>
      </trkpt>
      <trkpt lat="44.73067" lon="4.87364">
        <ele>227</ele>
        <time>2021-07-10T06:51:30</time>
      </trkpt>
      <trkpt lat="44.73065" lon="4.87363">
        <ele>227.2</ele>
        <time>2021-07-10T06:51:31</time>
      </trkpt>
      <trkpt lat="44.73063" lon="4.87361">
        <ele>227.2</ele>
        <time>2021-07-10T06:51:32</time>
      </trkpt>
      <trkpt lat="44.73062" lon="4.87359">
        <ele>227.4</ele>
        <time>2021-07-10T06:51:33</time>
      </trkpt>
      <trkpt lat="44.73062" lon="4.87359">
        <ele>227.6</ele>
        <time>2021-07-10T06:51:34</time>
      </trkpt>
      <trkpt lat="44.7306" lon="4.87359">
        <ele>227.8</ele>
        <time>2021-07-10T06:51:35</time>
      </trkpt>
      <trkpt lat="44.73059" lon="4.87356">
        <ele>228</ele>
        <time>2021-07-10T06:51:36</time>
      </trkpt>
      <trkpt lat="44.73056" lon="4.87354">
        <ele>228.2</ele>
        <time>2021-07-10T06:51:37</time>
      </trkpt>
      <trkpt lat="44.73056" lon="4.87354">
        <ele>228.2</ele>
        <time>2021-07-10T06:51:38</time>
      </trkpt>
      <trkpt lat="44.73054" lon="4.87349">
        <ele>228.4</ele>
        <time>2021-07-10T06:51:39</time>
      </trkpt>
      <trkpt lat="44.73053" lon="4.87345">
        <ele>228.6</ele>
        <time>2021-07-10T06:51:40</time>
      </trkpt>
      <trkpt lat="44.73051" lon="4.87343">
        <ele>228.8</ele>
        <time>2021-07-10T06:51:41</time>
      </trkpt>
      <trkpt lat="44.73048" lon="4.87341">
        <ele>229</ele>
        <time>2021-07-10T06:51:42</time>
      </trkpt>
      <trkpt lat="44.73046" lon="4.8734">
        <ele>229</ele>
        <time>2021-07-10T06:51:43</time>
      </trkpt>
      <trkpt lat="44.73045" lon="4.87338">
        <ele>229.2</ele>
        <time>2021-07-10T06:51:44</time>
      </trkpt>
      <trkpt lat="44.73043" lon="4.87336">
        <ele>229.4</ele>
        <time>2021-07-10T06:51:45</time>
      </trkpt>
      <trkpt lat="44.73043" lon="4.87334">
        <ele>229.6</ele>
        <time>2021-07-10T06:51:46</time>
      </trkpt>
      <trkpt lat="44.73043" lon="4.87331">
        <ele>229.6</ele>
        <time>2021-07-10T06:51:47</time>
      </trkpt>
      <trkpt lat="44.73044" lon="4.8733">
        <ele>229.8</ele>
        <time>2021-07-10T06:51:48</time>
      </trkpt>
      <trkpt lat="44.73045" lon="4.87328">
        <ele>230</ele>
        <time>2021-07-10T06:51:49</time>
      </trkpt>
      <trkpt lat="44.73041" lon="4.87326">
        <ele>230.2</ele>
        <time>2021-07-10T06:51:50</time>
      </trkpt>
      <trkpt lat="44.73041" lon="4.87324">
        <ele>230.2</ele>
        <time>2021-07-10T06:51:51</time>
      </trkpt>
      <trkpt lat="44.73039" lon="4.87324">
        <ele>230.4</ele>
        <time>2021-07-10T06:51:52</time>
      </trkpt>
      <trkpt lat="44.73037" lon="4.87321">
        <ele>230.6</ele>
        <time>2021-07-10T06:51:53</time>
      </trkpt>
      <trkpt lat="44.73037" lon="4.87318">
        <ele>230.8</ele>
        <time>2021-07-10T06:51:54</time>
      </trkpt>
      <trkpt lat="44.73035" lon="4.87315">
        <ele>231</ele>
        <time>2021-07-10T06:51:55</time>
      </trkpt>
      <trkpt lat="44.73034" lon="4.87313">
        <ele>231.2</ele>
        <time>2021-07-10T06:51:56</time>
      </trkpt>
      <trkpt lat="44.73034" lon="4.87309">
        <ele>231.2</ele>
        <time>2021-07-10T06:51:57</time>
      </trkpt>
      <trkpt lat="44.73032" lon="4.87307">
        <ele>231.4</ele>
        <time>2021-07-10T06:51:58</time>
      </trkpt>
      <trkpt lat="44.73031" lon="4.87302">
        <ele>231.6</ele>
        <time>2021-07-10T06:51:59</time>
      </trkpt>
      <trkpt lat="44.73031" lon="4.87302">
        <ele>231.6</ele>
        <time>2021-07-10T06:52:00</time>
      </trkpt>
      <trkpt lat="44.73032" lon="4.87299">
        <ele>231.8</ele>
        <time>2021-07-10T06:52:01</time>
      </trkpt>
      <trkpt lat="44.73033" lon="4.87293">
        <ele>232</ele>
        <time>2021-07-10T06:52:02</time>
      </trkpt>
      <trkpt lat="44.73032" lon="4.87289">
        <ele>232.2</ele>
        <time>2021-07-10T06:52:03</time>
      </trkpt>
      <trkpt lat="44.7303" lon="4.8729">
        <ele>232.4</ele>
        <time>2021-07-10T06:52:04</time>
      </trkpt>
      <trkpt lat="44.73024" lon="4.87288">
        <ele>232.6</ele>
        <time>2021-07-10T06:52:05</time>
      </trkpt>
      <trkpt lat="44.73024" lon="4.87288">
        <ele>232.6</ele>
        <time>2021-07-10T06:52:06</time>
      </trkpt>
      <trkpt lat="44.73022" lon="4.87286">
        <ele>232.8</ele>
        <time>2021-07-10T06:52:07</time>
      </trkpt>
      <trkpt lat="44.73023" lon="4.87282">
        <ele>233</ele>
        <time>2021-07-10T06:52:08</time>
      </trkpt>
      <trkpt lat="44.73017" lon="4.87279">
        <ele>233.2</ele>
        <time>2021-07-10T06:52:09</time>
      </trkpt>
      <trkpt lat="44.73017" lon="4.87279">
        <ele>233.2</ele>
        <time>2021-07-10T06:52:10</time>
      </trkpt>
      <trkpt lat="44.73016" lon="4.87277">
        <ele>233.4</ele>
        <time>2021-07-10T06:52:11</time>
      </trkpt>
      <trkpt lat="44.73014" lon="4.87274">
        <ele>233.6</ele>
        <time>2021-07-10T06:52:12</time>
      </trkpt>
      <trkpt lat="44.73013" lon="4.87275">
        <ele>233.6</ele>
        <time>2021-07-10T06:52:13</time>
      </trkpt>
      <trkpt lat="44.73012" lon="4.87272">
        <ele>233.8</ele>
        <time>2021-07-10T06:52:14</time>
      </trkpt>
      <trkpt lat="44.73011" lon="4.87271">
        <ele>234</ele>
        <time>2021-07-10T06:52:15</time>
      </trkpt>
      <trkpt lat="44.7301" lon="4.87267">
        <ele>234</ele>
        <time>2021-07-10T06:52:16</time>
      </trkpt>
      <trkpt lat="44.73007" lon="4.87264">
        <ele>234.2</ele>
        <time>2021-07-10T06:52:17</time>
      </trkpt>
      <trkpt lat="44.73005" lon="4.87261">
        <ele>234.4</ele>
        <time>2021-07-10T06:52:18</time>
      </trkpt>
      <trkpt lat="44.73004" lon="4.87259">
        <ele>234.4</ele>
        <time>2021-07-10T06:52:19</time>
      </trkpt>
      <trkpt lat="44.73005" lon="4.87257">
        <ele>234.6</ele>
        <time>2021-07-10T06:52:20</time>
      </trkpt>
      <trkpt lat="44.73005" lon="4.87257">
        <ele>234.6</ele>
        <time>2021-07-10T06:52:21</time>
      </trkpt>
      <trkpt lat="44.73004" lon="4.87249">
        <ele>234.8</ele>
        <time>2021-07-10T06:52:22</time>
      </trkpt>
      <trkpt lat="44.73003" lon="4.87246">
        <ele>234.8</ele>
        <time>2021-07-10T06:52:23</time>
      </trkpt>
      <trkpt lat="44.73002" lon="4.87243">
        <ele>235</ele>
        <time>2021-07-10T06:52:24</time>
      </trkpt>
      <trkpt lat="44.73" lon="4.87242">
        <ele>235</ele>
        <time>2021-07-10T06:52:25</time>
      </trkpt>
      <trkpt lat="44.73001" lon="4.87238">
        <ele>235.2</ele>
        <time>2021-07-10T06:52:26</time>
      </trkpt>
      <trkpt lat="44.72997" lon="4.87236">
        <ele>235.4</ele>
        <time>2021-07-10T06:52:27</time>
      </trkpt>
      <trkpt lat="44.72994" lon="4.87233">
        <ele>235.6</ele>
        <time>2021-07-10T06:52:28</time>
      </trkpt>
      <trkpt lat="44.72992" lon="4.87231">
        <ele>235.8</ele>
        <time>2021-07-10T06:52:29</time>
      </trkpt>
      <trkpt lat="44.72989" lon="4.87228">
        <ele>236</ele>
        <time>2021-07-10T06:52:30</time>
      </trkpt>
      <trkpt lat="44.72988" lon="4.87227">
        <ele>236.2</ele>
        <time>2021-07-10T06:52:31</time>
      </trkpt>
      <trkpt lat="44.72987" lon="4.87226">
        <ele>236.4</ele>
        <time>2021-07-10T06:52:32</time>
      </trkpt>
      <trkpt lat="44.72988" lon="4.87226">
        <ele>236.6</ele>
        <time>2021-07-10T06:52:33</time>
      </trkpt>
      <trkpt lat="44.72985" lon="4.87224">
        <ele>236.6</ele>
        <time>2021-07-10T06:52:34</time>
      </trkpt>
      <trkpt lat="44.72987" lon="4.87225">
        <ele>236.6</ele>
        <time>2021-07-10T06:52:35</time>
      </trkpt>
      <trkpt lat="44.72987" lon="4.87223">
        <ele>236.6</ele>
        <time>2021-07-10T06:52:36</time>
      </trkpt>
      <trkpt lat="44.72986" lon="4.87222">
        <ele>236.6</ele>
        <time>2021-07-10T06:52:37</time>
      </trkpt>
      <trkpt lat="44.72986" lon="4.87223">
        <ele>236.6</ele>
        <time>2021-07-10T06:52:38</time>
      </trkpt>
      <trkpt lat="44.72988" lon="4.87223">
        <ele>236.6</ele>
        <time>2021-07-10T06:52:39</time>
      </trkpt>
      <trkpt lat="44.7299" lon="4.87222">
        <ele>236.6</ele>
        <time>2021-07-10T06:52:40</time>
      </trkpt>
      <trkpt lat="44.72992" lon="4.87223">
        <ele>236.6</ele>
        <time>2021-07-10T06:52:41</time>
      </trkpt>
      <trkpt lat="44.72987" lon="4.87195">
        <ele>237.4</ele>
        <time>2021-07-10T06:53:04</time>
      </trkpt>
      <trkpt lat="44.72984" lon="4.87193">
        <ele>237.6</ele>
        <time>2021-07-10T06:53:05</time>
      </trkpt>
      <trkpt lat="44.72984" lon="4.87191">
        <ele>237.8</ele>
        <time>2021-07-10T06:53:06</time>
      </trkpt>
      <trkpt lat="44.72985" lon="4.87187">
        <ele>238</ele>
        <time>2021-07-10T06:53:07</time>
      </trkpt>
      <trkpt lat="44.72984" lon="4.87186">
        <ele>238.2</ele>
        <time>2021-07-10T06:53:08</time>
      </trkpt>
      <trkpt lat="44.72983" lon="4.87183">
        <ele>238.4</ele>
        <time>2021-07-10T06:53:09</time>
      </trkpt>
      <trkpt lat="44.72984" lon="4.8718">
        <ele>238.6</ele>
        <time>2021-07-10T06:53:10</time>
      </trkpt>
      <trkpt lat="44.72981" lon="4.87176">
        <ele>238.6</ele>
        <time>2021-07-10T06:53:11</time>
      </trkpt>
      <trkpt lat="44.72981" lon="4.87176">
        <ele>238.8</ele>
        <time>2021-07-10T06:53:12</time>
      </trkpt>
      <trkpt lat="44.72981" lon="4.87173">
        <ele>239</ele>
        <time>2021-07-10T06:53:13</time>
      </trkpt>
      <trkpt lat="44.72982" lon="4.87169">
        <ele>239.2</ele>
        <time>2021-07-10T06:53:14</time>
      </trkpt>
      <trkpt lat="44.72979" lon="4.87166">
        <ele>239.4</ele>
        <time>2021-07-10T06:53:15</time>
      </trkpt>
      <trkpt lat="44.72974" lon="4.8716">
        <ele>239.4</ele>
        <time>2021-07-10T06:53:16</time>
      </trkpt>
      <trkpt lat="44.72974" lon="4.8716">
        <ele>239.6</ele>
        <time>2021-07-10T06:53:17</time>
      </trkpt>
      <trkpt lat="44.72972" lon="4.87158">
        <ele>239.6</ele>
        <time>2021-07-10T06:53:18</time>
      </trkpt>
      <trkpt lat="44.72968" lon="4.87152">
        <ele>239.8</ele>
        <time>2021-07-10T06:53:19</time>
      </trkpt>
      <trkpt lat="44.72968" lon="4.87152">
        <ele>240</ele>
        <time>2021-07-10T06:53:20</time>
      </trkpt>
      <trkpt lat="44.72967" lon="4.87147">
        <ele>240.4</ele>
        <time>2021-07-10T06:53:21</time>
      </trkpt>
      <trkpt lat="44.72968" lon="4.87143">
        <ele>240.6</ele>
        <time>2021-07-10T06:53:22</time>
      </trkpt>
      <trkpt lat="44.72964" lon="4.87139">
        <ele>240.8</ele>
        <time>2021-07-10T06:53:23</time>
      </trkpt>
      <trkpt lat="44.72964" lon="4.87139">
        <ele>240.8</ele>
        <time>2021-07-10T06:53:24</time>
      </trkpt>
      <trkpt lat="44.72962" lon="4.87138">
        <ele>241</ele>
        <time>2021-07-10T06:53:25</time>
      </trkpt>
      <trkpt lat="44.72961" lon="4.87135">
        <ele>241.2</ele>
        <time>2021-07-10T06:53:26</time>
      </trkpt>
      <trkpt lat="44.7296" lon="4.87134">
        <ele>241.4</ele>
        <time>2021-07-10T06:53:27</time>
      </trkpt>
      <trkpt lat="44.72958" lon="4.87132">
        <ele>241.8</ele>
        <time>2021-07-10T06:53:28</time>
      </trkpt>
      <trkpt lat="44.72957" lon="4.87131">
        <ele>242</ele>
        <time>2021-07-10T06:53:29</time>
      </trkpt>
      <trkpt lat="44.72954" lon="4.87127">
        <ele>242</ele>
        <time>2021-07-10T06:53:30</time>
      </trkpt>
      <trkpt lat="44.72953" lon="4.87122">
        <ele>242.2</ele>
        <time>2021-07-10T06:53:31</time>
      </trkpt>
      <trkpt lat="44.72952" lon="4.87118">
        <ele>242.2</ele>
        <time>2021-07-10T06:53:32</time>
      </trkpt>
      <trkpt lat="44.72953" lon="4.87115">
        <ele>242.4</ele>
        <time>2021-07-10T06:53:33</time>
      </trkpt>
      <trkpt lat="44.72953" lon="4.87112">
        <ele>242.6</ele>
        <time>2021-07-10T06:53:34</time>
      </trkpt>
      <trkpt lat="44.72952" lon="4.8711">
        <ele>242.8</ele>
        <time>2021-07-10T06:53:35</time>
      </trkpt>
      <trkpt lat="44.72951" lon="4.87103">
        <ele>243</ele>
        <time>2021-07-10T06:53:36</time>
      </trkpt>
      <trkpt lat="44.72949" lon="4.87099">
        <ele>243.2</ele>
        <time>2021-07-10T06:53:37</time>
      </trkpt>
      <trkpt lat="44.72948" lon="4.87094">
        <ele>243.4</ele>
        <time>2021-07-10T06:53:38</time>
      </trkpt>
      <trkpt lat="44.72947" lon="4.87089">
        <ele>243.6</ele>
        <time>2021-07-10T06:53:39</time>
      </trkpt>
      <trkpt lat="44.72944" lon="4.87085">
        <ele>243.8</ele>
        <time>2021-07-10T06:53:40</time>
      </trkpt>
      <trkpt lat="44.72942" lon="4.87082">
        <ele>243.8</ele>
        <time>2021-07-10T06:53:41</time>
      </trkpt>
      <trkpt lat="44.72941" lon="4.8708">
        <ele>244</ele>
        <time>2021-07-10T06:53:42</time>
      </trkpt>
      <trkpt lat="44.7294" lon="4.87077">
        <ele>244.2</ele>
        <time>2021-07-10T06:53:43</time>
      </trkpt>
      <trkpt lat="44.7294" lon="4.87071">
        <ele>244.2</ele>
        <time>2021-07-10T06:53:44</time>
      </trkpt>
      <trkpt lat="44.72937" lon="4.87068">
        <ele>244.4</ele>
        <time>2021-07-10T06:53:45</time>
      </trkpt>
      <trkpt lat="44.72937" lon="4.87064">
        <ele>244.4</ele>
        <time>2021-07-10T06:53:46</time>
      </trkpt>
      <trkpt lat="44.72935" lon="4.87062">
        <ele>244.4</ele>
        <time>2021-07-10T06:53:47</time>
      </trkpt>
      <trkpt lat="44.72938" lon="4.87058">
        <ele>244.6</ele>
        <time>2021-07-10T06:53:48</time>
      </trkpt>
      <trkpt lat="44.7294" lon="4.87053">
        <ele>244.6</ele>
        <time>2021-07-10T06:53:49</time>
      </trkpt>
      <trkpt lat="44.72938" lon="4.8705">
        <ele>244.8</ele>
        <time>2021-07-10T06:53:50</time>
      </trkpt>
      <trkpt lat="44.72938" lon="4.87046">
        <ele>245</ele>
        <time>2021-07-10T06:53:51</time>
      </trkpt>
      <trkpt lat="44.72939" lon="4.87042">
        <ele>245</ele>
        <time>2021-07-10T06:53:52</time>
      </trkpt>
      <trkpt lat="44.72939" lon="4.87037">
        <ele>245.2</ele>
        <time>2021-07-10T06:53:53</time>
      </trkpt>
      <trkpt lat="44.72939" lon="4.87036">
        <ele>245.4</ele>
        <time>2021-07-10T06:53:54</time>
      </trkpt>
      <trkpt lat="44.72938" lon="4.87037">
        <ele>245.4</ele>
        <time>2021-07-10T06:53:55</time>
      </trkpt>
      <trkpt lat="44.72939" lon="4.87034">
        <ele>245.6</ele>
        <time>2021-07-10T06:53:56</time>
      </trkpt>
      <trkpt lat="44.7294" lon="4.87033">
        <ele>245.8</ele>
        <time>2021-07-10T06:53:57</time>
      </trkpt>
      <trkpt lat="44.7294" lon="4.87029">
        <ele>245.8</ele>
        <time>2021-07-10T06:53:58</time>
      </trkpt>
      <trkpt lat="44.7294" lon="4.87026">
        <ele>246</ele>
        <time>2021-07-10T06:53:59</time>
      </trkpt>
      <trkpt lat="44.72939" lon="4.87025">
        <ele>246.2</ele>
        <time>2021-07-10T06:54:00</time>
      </trkpt>
      <trkpt lat="44.72938" lon="4.87022">
        <ele>246.4</ele>
        <time>2021-07-10T06:54:01</time>
      </trkpt>
      <trkpt lat="44.72938" lon="4.8702">
        <ele>246.6</ele>
        <time>2021-07-10T06:54:02</time>
      </trkpt>
      <trkpt lat="44.72941" lon="4.87018">
        <ele>246.8</ele>
        <time>2021-07-10T06:54:03</time>
      </trkpt>
      <trkpt lat="44.72937" lon="4.87015">
        <ele>247</ele>
        <time>2021-07-10T06:54:04</time>
      </trkpt>
      <trkpt lat="44.72935" lon="4.87013">
        <ele>247</ele>
        <time>2021-07-10T06:54:05</time>
      </trkpt>
      <trkpt lat="44.72932" lon="4.87003">
        <ele>247.2</ele>
        <time>2021-07-10T06:54:06</time>
      </trkpt>
      <trkpt lat="44.72932" lon="4.87003">
        <ele>247.2</ele>
        <time>2021-07-10T06:54:07</time>
      </trkpt>
      <trkpt lat="44.72934" lon="4.87001">
        <ele>247.4</ele>
        <time>2021-07-10T06:54:08</time>
      </trkpt>
      <trkpt lat="44.72931" lon="4.86997">
        <ele>247.6</ele>
        <time>2021-07-10T06:54:09</time>
      </trkpt>
      <trkpt lat="44.72929" lon="4.86995">
        <ele>247.8</ele>
        <time>2021-07-10T06:54:10</time>
      </trkpt>
      <trkpt lat="44.72932" lon="4.86994">
        <ele>248</ele>
        <time>2021-07-10T06:54:11</time>
      </trkpt>
      <trkpt lat="44.72931" lon="4.86989">
        <ele>248</ele>
        <time>2021-07-10T06:54:12</time>
      </trkpt>
      <trkpt lat="44.72931" lon="4.86989">
        <ele>248.2</ele>
        <time>2021-07-10T06:54:13</time>
      </trkpt>
      <trkpt lat="44.72928" lon="4.86987">
        <ele>248.4</ele>
        <time>2021-07-10T06:54:14</time>
      </trkpt>
      <trkpt lat="44.72928" lon="4.86984">
        <ele>248.4</ele>
        <time>2021-07-10T06:54:15</time>
      </trkpt>
      <trkpt lat="44.72927" lon="4.86981">
        <ele>248.6</ele>
        <time>2021-07-10T06:54:16</time>
      </trkpt>
      <trkpt lat="44.72925" lon="4.86981">
        <ele>248.6</ele>
        <time>2021-07-10T06:54:17</time>
      </trkpt>
      <trkpt lat="44.72923" lon="4.86978">
        <ele>248.8</ele>
        <time>2021-07-10T06:54:18</time>
      </trkpt>
      <trkpt lat="44.7292" lon="4.86974">
        <ele>248.8</ele>
        <time>2021-07-10T06:54:19</time>
      </trkpt>
      <trkpt lat="44.72919" lon="4.86973">
        <ele>249</ele>
        <time>2021-07-10T06:54:20</time>
      </trkpt>
      <trkpt lat="44.72918" lon="4.86968">
        <ele>249</ele>
        <time>2021-07-10T06:54:21</time>
      </trkpt>
      <trkpt lat="44.72917" lon="4.86965">
        <ele>249.2</ele>
        <time>2021-07-10T06:54:22</time>
      </trkpt>
      <trkpt lat="44.72917" lon="4.86963">
        <ele>249.4</ele>
        <time>2021-07-10T06:54:23</time>
      </trkpt>
      <trkpt lat="44.72913" lon="4.8696">
        <ele>249.4</ele>
        <time>2021-07-10T06:54:24</time>
      </trkpt>
      <trkpt lat="44.72911" lon="4.86958">
        <ele>249.6</ele>
        <time>2021-07-10T06:54:25</time>
      </trkpt>
      <trkpt lat="44.72912" lon="4.86953">
        <ele>249.8</ele>
        <time>2021-07-10T06:54:26</time>
      </trkpt>
      <trkpt lat="44.72912" lon="4.86953">
        <ele>249.8</ele>
        <time>2021-07-10T06:54:27</time>
      </trkpt>
      <trkpt lat="44.72913" lon="4.86949">
        <ele>250</ele>
        <time>2021-07-10T06:54:28</time>
      </trkpt>
      <trkpt lat="44.72915" lon="4.86948">
        <ele>250.2</ele>
        <time>2021-07-10T06:54:29</time>
      </trkpt>
      <trkpt lat="44.72914" lon="4.86945">
        <ele>250.4</ele>
        <time>2021-07-10T06:54:30</time>
      </trkpt>
      <trkpt lat="44.7291" lon="4.86939">
        <ele>250.4</ele>
        <time>2021-07-10T06:54:31</time>
      </trkpt>
      <trkpt lat="44.7291" lon="4.86939">
        <ele>250.6</ele>
        <time>2021-07-10T06:54:32</time>
      </trkpt>
      <trkpt lat="44.72907" lon="4.86933">
        <ele>250.8</ele>
        <time>2021-07-10T06:54:33</time>
      </trkpt>
      <trkpt lat="44.72907" lon="4.86933">
        <ele>250.8</ele>
        <time>2021-07-10T06:54:34</time>
      </trkpt>
      <trkpt lat="44.72907" lon="4.86929">
        <ele>251</ele>
        <time>2021-07-10T06:54:35</time>
      </trkpt>
      <trkpt lat="44.72909" lon="4.86925">
        <ele>251</ele>
        <time>2021-07-10T06:54:36</time>
      </trkpt>
      <trkpt lat="44.72909" lon="4.86925">
        <ele>251.2</ele>
        <time>2021-07-10T06:54:37</time>
      </trkpt>
      <trkpt lat="44.72908" lon="4.86922">
        <ele>251.4</ele>
        <time>2021-07-10T06:54:38</time>
      </trkpt>
      <trkpt lat="44.72904" lon="4.86918">
        <ele>251.4</ele>
        <time>2021-07-10T06:54:39</time>
      </trkpt>
      <trkpt lat="44.72902" lon="4.86918">
        <ele>251.6</ele>
        <time>2021-07-10T06:54:40</time>
      </trkpt>
      <trkpt lat="44.729" lon="4.86917">
        <ele>251.6</ele>
        <time>2021-07-10T06:54:41</time>
      </trkpt>
      <trkpt lat="44.72901" lon="4.86913">
        <ele>251.8</ele>
        <time>2021-07-10T06:54:42</time>
      </trkpt>
      <trkpt lat="44.729" lon="4.86912">
        <ele>252</ele>
        <time>2021-07-10T06:54:43</time>
      </trkpt>
      <trkpt lat="44.729" lon="4.86909">
        <ele>252.2</ele>
        <time>2021-07-10T06:54:44</time>
      </trkpt>
      <trkpt lat="44.72899" lon="4.86905">
        <ele>252.4</ele>
        <time>2021-07-10T06:54:45</time>
      </trkpt>
      <trkpt lat="44.72899" lon="4.86905">
        <ele>252.4</ele>
        <time>2021-07-10T06:54:46</time>
      </trkpt>
      <trkpt lat="44.72897" lon="4.86903">
        <ele>252.6</ele>
        <time>2021-07-10T06:54:47</time>
      </trkpt>
      <trkpt lat="44.72895" lon="4.86897">
        <ele>252.8</ele>
        <time>2021-07-10T06:54:48</time>
      </trkpt>
      <trkpt lat="44.72895" lon="4.86897">
        <ele>252.8</ele>
        <time>2021-07-10T06:54:49</time>
      </trkpt>
      <trkpt lat="44.72895" lon="4.86897">
        <ele>253</ele>
        <time>2021-07-10T06:54:50</time>
      </trkpt>
      <trkpt lat="44.7289" lon="4.86892">
        <ele>253.2</ele>
        <time>2021-07-10T06:54:51</time>
      </trkpt>
      <trkpt lat="44.7289" lon="4.86892">
        <ele>253.2</ele>
        <time>2021-07-10T06:54:52</time>
      </trkpt>
      <trkpt lat="44.72888" lon="4.8689">
        <ele>253.4</ele>
        <time>2021-07-10T06:54:53</time>
      </trkpt>
      <trkpt lat="44.72887" lon="4.86889">
        <ele>253.6</ele>
        <time>2021-07-10T06:54:54</time>
      </trkpt>
      <trkpt lat="44.72885" lon="4.86886">
        <ele>253.8</ele>
        <time>2021-07-10T06:54:55</time>
      </trkpt>
      <trkpt lat="44.72882" lon="4.86884">
        <ele>253.8</ele>
        <time>2021-07-10T06:54:56</time>
      </trkpt>
      <trkpt lat="44.7288" lon="4.86878">
        <ele>253.8</ele>
        <time>2021-07-10T06:54:57</time>
      </trkpt>
      <trkpt lat="44.7288" lon="4.86878">
        <ele>253.8</ele>
        <time>2021-07-10T06:54:58</time>
      </trkpt>
      <trkpt lat="44.72877" lon="4.86877">
        <ele>253.8</ele>
        <time>2021-07-10T06:54:59</time>
      </trkpt>
      <trkpt lat="44.72873" lon="4.86875">
        <ele>253.6</ele>
        <time>2021-07-10T06:55:00</time>
      </trkpt>
      <trkpt lat="44.72873" lon="4.86875">
        <ele>253.8</ele>
        <time>2021-07-10T06:55:01</time>
      </trkpt>
      <trkpt lat="44.72871" lon="4.86874">
        <ele>254.6</ele>
        <time>2021-07-10T06:55:02</time>
      </trkpt>
      <trkpt lat="44.72871" lon="4.86872">
        <ele>255.6</ele>
        <time>2021-07-10T06:55:03</time>
      </trkpt>
      <trkpt lat="44.72871" lon="4.86867">
        <ele>256.2</ele>
        <time>2021-07-10T06:55:04</time>
      </trkpt>
      <trkpt lat="44.72871" lon="4.86865">
        <ele>256.2</ele>
        <time>2021-07-10T06:55:05</time>
      </trkpt>
      <trkpt lat="44.7287" lon="4.86862">
        <ele>256</ele>
        <time>2021-07-10T06:55:07</time>
      </trkpt>
      <trkpt lat="44.72866" lon="4.86857">
        <ele>256</ele>
        <time>2021-07-10T06:55:08</time>
      </trkpt>
      <trkpt lat="44.72864" lon="4.86854">
        <ele>256.2</ele>
        <time>2021-07-10T06:55:09</time>
      </trkpt>
      <trkpt lat="44.72864" lon="4.86854">
        <ele>256.4</ele>
        <time>2021-07-10T06:55:10</time>
      </trkpt>
      <trkpt lat="44.72863" lon="4.86854">
        <ele>256.4</ele>
        <time>2021-07-10T06:55:11</time>
      </trkpt>
      <trkpt lat="44.72861" lon="4.86851">
        <ele>256.2</ele>
        <time>2021-07-10T06:55:12</time>
      </trkpt>
      <trkpt lat="44.72861" lon="4.86851">
        <ele>256</ele>
        <time>2021-07-10T06:55:13</time>
      </trkpt>
      <trkpt lat="44.72858" lon="4.86849">
        <ele>256</ele>
        <time>2021-07-10T06:55:14</time>
      </trkpt>
      <trkpt lat="44.72858" lon="4.86849">
        <ele>256</ele>
        <time>2021-07-10T06:55:15</time>
      </trkpt>
      <trkpt lat="44.72856" lon="4.86848">
        <ele>256</ele>
        <time>2021-07-10T06:55:16</time>
      </trkpt>
      <trkpt lat="44.72853" lon="4.86844">
        <ele>256.2</ele>
        <time>2021-07-10T06:55:17</time>
      </trkpt>
      <trkpt lat="44.72853" lon="4.86844">
        <ele>256.4</ele>
        <time>2021-07-10T06:55:18</time>
      </trkpt>
      <trkpt lat="44.72849" lon="4.86845">
        <ele>256.4</ele>
        <time>2021-07-10T06:55:19</time>
      </trkpt>
      <trkpt lat="44.72849" lon="4.86845">
        <ele>256.6</ele>
        <time>2021-07-10T06:55:20</time>
      </trkpt>
      <trkpt lat="44.72848" lon="4.86843">
        <ele>257.2</ele>
        <time>2021-07-10T06:55:21</time>
      </trkpt>
      <trkpt lat="44.72845" lon="4.86844">
        <ele>257.8</ele>
        <time>2021-07-10T06:55:22</time>
      </trkpt>
      <trkpt lat="44.7284" lon="4.86842">
        <ele>259</ele>
        <time>2021-07-10T06:55:23</time>
      </trkpt>
      <trkpt lat="44.72837" lon="4.8684">
        <ele>259.4</ele>
        <time>2021-07-10T06:55:24</time>
      </trkpt>
      <trkpt lat="44.72837" lon="4.8684">
        <ele>259.8</ele>
        <time>2021-07-10T06:55:25</time>
      </trkpt>
      <trkpt lat="44.72835" lon="4.86841">
        <ele>259.8</ele>
        <time>2021-07-10T06:55:26</time>
      </trkpt>
      <trkpt lat="44.72834" lon="4.86839">
        <ele>259.4</ele>
        <time>2021-07-10T06:55:27</time>
      </trkpt>
      <trkpt lat="44.72833" lon="4.86841">
        <ele>259.4</ele>
        <time>2021-07-10T06:55:28</time>
      </trkpt>
      <trkpt lat="44.72832" lon="4.8684">
        <ele>259.4</ele>
        <time>2021-07-10T06:55:29</time>
      </trkpt>
      <trkpt lat="44.72833" lon="4.86839">
        <ele>259.4</ele>
        <time>2021-07-10T06:55:30</time>
      </trkpt>
      <trkpt lat="44.72831" lon="4.86839">
        <ele>259.4</ele>
        <time>2021-07-10T06:55:31</time>
      </trkpt>
      <trkpt lat="44.7283" lon="4.86838">
        <ele>259.6</ele>
        <time>2021-07-10T06:55:32</time>
      </trkpt>
      <trkpt lat="44.7283" lon="4.86835">
        <ele>259.6</ele>
        <time>2021-07-10T06:55:33</time>
      </trkpt>
      <trkpt lat="44.72829" lon="4.86833">
        <ele>259.8</ele>
        <time>2021-07-10T06:55:34</time>
      </trkpt>
      <trkpt lat="44.72828" lon="4.86832">
        <ele>260</ele>
        <time>2021-07-10T06:55:35</time>
      </trkpt>
      <trkpt lat="44.72827" lon="4.86832">
        <ele>260.2</ele>
        <time>2021-07-10T06:55:36</time>
      </trkpt>
      <trkpt lat="44.72826" lon="4.86831">
        <ele>260.4</ele>
        <time>2021-07-10T06:55:37</time>
      </trkpt>
      <trkpt lat="44.72826" lon="4.8683">
        <ele>260.6</ele>
        <time>2021-07-10T06:55:38</time>
      </trkpt>
      <trkpt lat="44.72826" lon="4.86829">
        <ele>260.8</ele>
        <time>2021-07-10T06:55:39</time>
      </trkpt>
      <trkpt lat="44.72825" lon="4.86826">
        <ele>261</ele>
        <time>2021-07-10T06:55:40</time>
      </trkpt>
      <trkpt lat="44.72823" lon="4.86825">
        <ele>261.2</ele>
        <time>2021-07-10T06:55:41</time>
      </trkpt>
      <trkpt lat="44.72821" lon="4.86826">
        <ele>261.4</ele>
        <time>2021-07-10T06:55:42</time>
      </trkpt>
      <trkpt lat="44.7282" lon="4.86824">
        <ele>261.6</ele>
        <time>2021-07-10T06:55:43</time>
      </trkpt>
      <trkpt lat="44.72819" lon="4.86826">
        <ele>261.8</ele>
        <time>2021-07-10T06:55:44</time>
      </trkpt>
      <trkpt lat="44.72818" lon="4.86824">
        <ele>262</ele>
        <time>2021-07-10T06:55:45</time>
      </trkpt>
      <trkpt lat="44.72815" lon="4.86821">
        <ele>262.2</ele>
        <time>2021-07-10T06:55:46</time>
      </trkpt>
      <trkpt lat="44.72814" lon="4.86818">
        <ele>262.6</ele>
        <time>2021-07-10T06:55:47</time>
      </trkpt>
      <trkpt lat="44.72814" lon="4.86818">
        <ele>262.8</ele>
        <time>2021-07-10T06:55:48</time>
      </trkpt>
      <trkpt lat="44.72814" lon="4.86818">
        <ele>263</ele>
        <time>2021-07-10T06:55:49</time>
      </trkpt>
      <trkpt lat="44.72809" lon="4.86815">
        <ele>263.2</ele>
        <time>2021-07-10T06:55:50</time>
      </trkpt>
      <trkpt lat="44.72809" lon="4.86815">
        <ele>263.4</ele>
        <time>2021-07-10T06:55:51</time>
      </trkpt>
      <trkpt lat="44.72806" lon="4.86816">
        <ele>263.4</ele>
        <time>2021-07-10T06:55:52</time>
      </trkpt>
      <trkpt lat="44.72805" lon="4.86817">
        <ele>263.6</ele>
        <time>2021-07-10T06:55:53</time>
      </trkpt>
      <trkpt lat="44.72805" lon="4.86815">
        <ele>263.8</ele>
        <time>2021-07-10T06:55:54</time>
      </trkpt>
      <trkpt lat="44.72801" lon="4.86814">
        <ele>264</ele>
        <time>2021-07-10T06:55:55</time>
      </trkpt>
      <trkpt lat="44.72799" lon="4.86813">
        <ele>264</ele>
        <time>2021-07-10T06:55:56</time>
      </trkpt>
      <trkpt lat="44.72799" lon="4.86813">
        <ele>264.2</ele>
        <time>2021-07-10T06:55:57</time>
      </trkpt>
      <trkpt lat="44.72797" lon="4.86812">
        <ele>264.4</ele>
        <time>2021-07-10T06:55:58</time>
      </trkpt>
      <trkpt lat="44.72795" lon="4.86809">
        <ele>264.6</ele>
        <time>2021-07-10T06:55:59</time>
      </trkpt>
      <trkpt lat="44.72792" lon="4.86805">
        <ele>264.8</ele>
        <time>2021-07-10T06:56:00</time>
      </trkpt>
      <trkpt lat="44.72792" lon="4.86805">
        <ele>265</ele>
        <time>2021-07-10T06:56:01</time>
      </trkpt>
      <trkpt lat="44.72791" lon="4.86804">
        <ele>265.2</ele>
        <time>2021-07-10T06:56:02</time>
      </trkpt>
      <trkpt lat="44.72789" lon="4.86801">
        <ele>265.4</ele>
        <time>2021-07-10T06:56:03</time>
      </trkpt>
      <trkpt lat="44.72789" lon="4.86799">
        <ele>265.4</ele>
        <time>2021-07-10T06:56:04</time>
      </trkpt>
      <trkpt lat="44.72787" lon="4.86798">
        <ele>265.4</ele>
        <time>2021-07-10T06:56:05</time>
      </trkpt>
      <trkpt lat="44.72786" lon="4.86798">
        <ele>265.6</ele>
        <time>2021-07-10T06:56:06</time>
      </trkpt>
      <trkpt lat="44.72784" lon="4.86796">
        <ele>265.6</ele>
        <time>2021-07-10T06:56:07</time>
      </trkpt>
      <trkpt lat="44.72782" lon="4.86796">
        <ele>265.8</ele>
        <time>2021-07-10T06:56:08</time>
      </trkpt>
      <trkpt lat="44.72782" lon="4.86793">
        <ele>266.2</ele>
        <time>2021-07-10T06:56:09</time>
      </trkpt>
      <trkpt lat="44.72779" lon="4.86793">
        <ele>266.4</ele>
        <time>2021-07-10T06:56:10</time>
      </trkpt>
      <trkpt lat="44.7278" lon="4.8679">
        <ele>266.8</ele>
        <time>2021-07-10T06:56:11</time>
      </trkpt>
      <trkpt lat="44.72778" lon="4.86788">
        <ele>267</ele>
        <time>2021-07-10T06:56:12</time>
      </trkpt>
      <trkpt lat="44.72777" lon="4.86788">
        <ele>267.4</ele>
        <time>2021-07-10T06:56:13</time>
      </trkpt>
      <trkpt lat="44.72777" lon="4.86788">
        <ele>267.6</ele>
        <time>2021-07-10T06:56:14</time>
      </trkpt>
      <trkpt lat="44.72774" lon="4.86786">
        <ele>267.6</ele>
        <time>2021-07-10T06:56:15</time>
      </trkpt>
      <trkpt lat="44.72774" lon="4.86786">
        <ele>267.8</ele>
        <time>2021-07-10T06:56:16</time>
      </trkpt>
      <trkpt lat="44.72771" lon="4.86786">
        <ele>268</ele>
        <time>2021-07-10T06:56:17</time>
      </trkpt>
      <trkpt lat="44.72771" lon="4.86784">
        <ele>268.2</ele>
        <time>2021-07-10T06:56:18</time>
      </trkpt>
      <trkpt lat="44.7277" lon="4.86783">
        <ele>268.4</ele>
        <time>2021-07-10T06:56:19</time>
      </trkpt>
      <trkpt lat="44.72769" lon="4.8678">
        <ele>268.6</ele>
        <time>2021-07-10T06:56:20</time>
      </trkpt>
      <trkpt lat="44.72768" lon="4.8678">
        <ele>268.6</ele>
        <time>2021-07-10T06:56:21</time>
      </trkpt>
      <trkpt lat="44.72768" lon="4.8678">
        <ele>268.8</ele>
        <time>2021-07-10T06:56:22</time>
      </trkpt>
      <trkpt lat="44.72764" lon="4.8678">
        <ele>269</ele>
        <time>2021-07-10T06:56:23</time>
      </trkpt>
      <trkpt lat="44.72764" lon="4.8678">
        <ele>269.2</ele>
        <time>2021-07-10T06:56:24</time>
      </trkpt>
      <trkpt lat="44.72764" lon="4.86779">
        <ele>269.6</ele>
        <time>2021-07-10T06:56:25</time>
      </trkpt>
      <trkpt lat="44.72763" lon="4.86776">
        <ele>270</ele>
        <time>2021-07-10T06:56:26</time>
      </trkpt>
      <trkpt lat="44.72761" lon="4.86776">
        <ele>270.2</ele>
        <time>2021-07-10T06:56:27</time>
      </trkpt>
      <trkpt lat="44.72761" lon="4.86776">
        <ele>270.6</ele>
        <time>2021-07-10T06:56:28</time>
      </trkpt>
      <trkpt lat="44.7276" lon="4.86774">
        <ele>270.8</ele>
        <time>2021-07-10T06:56:29</time>
      </trkpt>
      <trkpt lat="44.72759" lon="4.86771">
        <ele>271</ele>
        <time>2021-07-10T06:56:30</time>
      </trkpt>
      <trkpt lat="44.72758" lon="4.86772">
        <ele>271.2</ele>
        <time>2021-07-10T06:56:31</time>
      </trkpt>
      <trkpt lat="44.72757" lon="4.86768">
        <ele>271.4</ele>
        <time>2021-07-10T06:56:32</time>
      </trkpt>
      <trkpt lat="44.72753" lon="4.86767">
        <ele>271.8</ele>
        <time>2021-07-10T06:56:33</time>
      </trkpt>
      <trkpt lat="44.72753" lon="4.86767">
        <ele>272</ele>
        <time>2021-07-10T06:56:34</time>
      </trkpt>
      <trkpt lat="44.72752" lon="4.86765">
        <ele>272</ele>
        <time>2021-07-10T06:56:35</time>
      </trkpt>
      <trkpt lat="44.7275" lon="4.86766">
        <ele>272.2</ele>
        <time>2021-07-10T06:56:36</time>
      </trkpt>
      <trkpt lat="44.72749" lon="4.86763">
        <ele>272.4</ele>
        <time>2021-07-10T06:56:37</time>
      </trkpt>
      <trkpt lat="44.72749" lon="4.86759">
        <ele>272.6</ele>
        <time>2021-07-10T06:56:38</time>
      </trkpt>
      <trkpt lat="44.72748" lon="4.86757">
        <ele>273</ele>
        <time>2021-07-10T06:56:39</time>
      </trkpt>
      <trkpt lat="44.72747" lon="4.86754">
        <ele>273.2</ele>
        <time>2021-07-10T06:56:40</time>
      </trkpt>
      <trkpt lat="44.72746" lon="4.86755">
        <ele>273.6</ele>
        <time>2021-07-10T06:56:41</time>
      </trkpt>
      <trkpt lat="44.72745" lon="4.86754">
        <ele>273.8</ele>
        <time>2021-07-10T06:56:42</time>
      </trkpt>
      <trkpt lat="44.72744" lon="4.86753">
        <ele>274.2</ele>
        <time>2021-07-10T06:56:43</time>
      </trkpt>
      <trkpt lat="44.72744" lon="4.8675">
        <ele>274.4</ele>
        <time>2021-07-10T06:56:44</time>
      </trkpt>
      <trkpt lat="44.72743" lon="4.86748">
        <ele>274.6</ele>
        <time>2021-07-10T06:56:45</time>
      </trkpt>
      <trkpt lat="44.7274" lon="4.86747">
        <ele>274.8</ele>
        <time>2021-07-10T06:56:46</time>
      </trkpt>
      <trkpt lat="44.7274" lon="4.86747">
        <ele>275</ele>
        <time>2021-07-10T06:56:47</time>
      </trkpt>
      <trkpt lat="44.72739" lon="4.86743">
        <ele>275</ele>
        <time>2021-07-10T06:56:48</time>
      </trkpt>
      <trkpt lat="44.72738" lon="4.86742">
        <ele>275.4</ele>
        <time>2021-07-10T06:56:49</time>
      </trkpt>
      <trkpt lat="44.72738" lon="4.86739">
        <ele>275.6</ele>
        <time>2021-07-10T06:56:50</time>
      </trkpt>
      <trkpt lat="44.72738" lon="4.86739">
        <ele>275.8</ele>
        <time>2021-07-10T06:56:51</time>
      </trkpt>
      <trkpt lat="44.72738" lon="4.86737">
        <ele>276</ele>
        <time>2021-07-10T06:56:52</time>
      </trkpt>
      <trkpt lat="44.72738" lon="4.86737">
        <ele>276.2</ele>
        <time>2021-07-10T06:56:53</time>
      </trkpt>
      <trkpt lat="44.72736" lon="4.86732">
        <ele>276.6</ele>
        <time>2021-07-10T06:56:54</time>
      </trkpt>
      <trkpt lat="44.72734" lon="4.86732">
        <ele>276.8</ele>
        <time>2021-07-10T06:56:55</time>
      </trkpt>
      <trkpt lat="44.72733" lon="4.8673">
        <ele>277</ele>
        <time>2021-07-10T06:56:56</time>
      </trkpt>
      <trkpt lat="44.72733" lon="4.86728">
        <ele>277.2</ele>
        <time>2021-07-10T06:56:57</time>
      </trkpt>
      <trkpt lat="44.7273" lon="4.86726">
        <ele>277.4</ele>
        <time>2021-07-10T06:56:58</time>
      </trkpt>
      <trkpt lat="44.72728" lon="4.86726">
        <ele>277.6</ele>
        <time>2021-07-10T06:56:59</time>
      </trkpt>
      <trkpt lat="44.72726" lon="4.86724">
        <ele>277.8</ele>
        <time>2021-07-10T06:57:00</time>
      </trkpt>
      <trkpt lat="44.72723" lon="4.86723">
        <ele>278</ele>
        <time>2021-07-10T06:57:01</time>
      </trkpt>
      <trkpt lat="44.72723" lon="4.86723">
        <ele>278</ele>
        <time>2021-07-10T06:57:02</time>
      </trkpt>
      <trkpt lat="44.72721" lon="4.86719">
        <ele>278.2</ele>
        <time>2021-07-10T06:57:03</time>
      </trkpt>
      <trkpt lat="44.7272" lon="4.86717">
        <ele>278.4</ele>
        <time>2021-07-10T06:57:04</time>
      </trkpt>
      <trkpt lat="44.72719" lon="4.86716">
        <ele>278.6</ele>
        <time>2021-07-10T06:57:05</time>
      </trkpt>
      <trkpt lat="44.72719" lon="4.86713">
        <ele>278.8</ele>
        <time>2021-07-10T06:57:06</time>
      </trkpt>
      <trkpt lat="44.72718" lon="4.86713">
        <ele>279</ele>
        <time>2021-07-10T06:57:07</time>
      </trkpt>
      <trkpt lat="44.72717" lon="4.8671">
        <ele>279.2</ele>
        <time>2021-07-10T06:57:08</time>
      </trkpt>
      <trkpt lat="44.72717" lon="4.86709">
        <ele>279.6</ele>
        <time>2021-07-10T06:57:09</time>
      </trkpt>
      <trkpt lat="44.72717" lon="4.86707">
        <ele>279.8</ele>
        <time>2021-07-10T06:57:10</time>
      </trkpt>
      <trkpt lat="44.72719" lon="4.86705">
        <ele>280</ele>
        <time>2021-07-10T06:57:11</time>
      </trkpt>
      <trkpt lat="44.72716" lon="4.86704">
        <ele>280.2</ele>
        <time>2021-07-10T06:57:12</time>
      </trkpt>
      <trkpt lat="44.72716" lon="4.86704">
        <ele>280.4</ele>
        <time>2021-07-10T06:57:13</time>
      </trkpt>
      <trkpt lat="44.72717" lon="4.86702">
        <ele>280.6</ele>
        <time>2021-07-10T06:57:14</time>
      </trkpt>
      <trkpt lat="44.72715" lon="4.86702">
        <ele>280.8</ele>
        <time>2021-07-10T06:57:15</time>
      </trkpt>
      <trkpt lat="44.72714" lon="4.86695">
        <ele>281</ele>
        <time>2021-07-10T06:57:16</time>
      </trkpt>
      <trkpt lat="44.72714" lon="4.86695">
        <ele>281.2</ele>
        <time>2021-07-10T06:57:17</time>
      </trkpt>
      <trkpt lat="44.72712" lon="4.86694">
        <ele>281.4</ele>
        <time>2021-07-10T06:57:18</time>
      </trkpt>
      <trkpt lat="44.72709" lon="4.86693">
        <ele>281.6</ele>
        <time>2021-07-10T06:57:19</time>
      </trkpt>
      <trkpt lat="44.7271" lon="4.8669">
        <ele>281.8</ele>
        <time>2021-07-10T06:57:20</time>
      </trkpt>
      <trkpt lat="44.72711" lon="4.86689">
        <ele>282</ele>
        <time>2021-07-10T06:57:21</time>
      </trkpt>
      <trkpt lat="44.72709" lon="4.86686">
        <ele>282.2</ele>
        <time>2021-07-10T06:57:22</time>
      </trkpt>
      <trkpt lat="44.72711" lon="4.86686">
        <ele>282.4</ele>
        <time>2021-07-10T06:57:23</time>
      </trkpt>
      <trkpt lat="44.7271" lon="4.86684">
        <ele>282.6</ele>
        <time>2021-07-10T06:57:24</time>
      </trkpt>
      <trkpt lat="44.72709" lon="4.86682">
        <ele>282.8</ele>
        <time>2021-07-10T06:57:25</time>
      </trkpt>
      <trkpt lat="44.72707" lon="4.8668">
        <ele>283.2</ele>
        <time>2021-07-10T06:57:26</time>
      </trkpt>
      <trkpt lat="44.72705" lon="4.86678">
        <ele>283.4</ele>
        <time>2021-07-10T06:57:27</time>
      </trkpt>
      <trkpt lat="44.72705" lon="4.86677">
        <ele>283.6</ele>
        <time>2021-07-10T06:57:28</time>
      </trkpt>
      <trkpt lat="44.72704" lon="4.86676">
        <ele>283.8</ele>
        <time>2021-07-10T06:57:29</time>
      </trkpt>
      <trkpt lat="44.72701" lon="4.86673">
        <ele>284.2</ele>
        <time>2021-07-10T06:57:30</time>
      </trkpt>
      <trkpt lat="44.72701" lon="4.86672">
        <ele>284.4</ele>
        <time>2021-07-10T06:57:31</time>
      </trkpt>
      <trkpt lat="44.727" lon="4.86671">
        <ele>284.6</ele>
        <time>2021-07-10T06:57:32</time>
      </trkpt>
      <trkpt lat="44.72699" lon="4.8667">
        <ele>284.6</ele>
        <time>2021-07-10T06:57:33</time>
      </trkpt>
      <trkpt lat="44.72698" lon="4.86667">
        <ele>284.8</ele>
        <time>2021-07-10T06:57:34</time>
      </trkpt>
      <trkpt lat="44.72696" lon="4.86664">
        <ele>284.8</ele>
        <time>2021-07-10T06:57:35</time>
      </trkpt>
      <trkpt lat="44.72695" lon="4.86663">
        <ele>285.2</ele>
        <time>2021-07-10T06:57:36</time>
      </trkpt>
      <trkpt lat="44.72694" lon="4.8666">
        <ele>285.4</ele>
        <time>2021-07-10T06:57:37</time>
      </trkpt>
      <trkpt lat="44.72694" lon="4.8666">
        <ele>285.8</ele>
        <time>2021-07-10T06:57:38</time>
      </trkpt>
      <trkpt lat="44.72693" lon="4.8666">
        <ele>286</ele>
        <time>2021-07-10T06:57:39</time>
      </trkpt>
      <trkpt lat="44.72692" lon="4.8666">
        <ele>286.4</ele>
        <time>2021-07-10T06:57:40</time>
      </trkpt>
      <trkpt lat="44.72691" lon="4.86658">
        <ele>286.6</ele>
        <time>2021-07-10T06:57:41</time>
      </trkpt>
      <trkpt lat="44.72689" lon="4.86656">
        <ele>286.8</ele>
        <time>2021-07-10T06:57:42</time>
      </trkpt>
      <trkpt lat="44.72686" lon="4.86648">
        <ele>287</ele>
        <time>2021-07-10T06:57:43</time>
      </trkpt>
      <trkpt lat="44.72686" lon="4.86648">
        <ele>287.2</ele>
        <time>2021-07-10T06:57:44</time>
      </trkpt>
      <trkpt lat="44.72685" lon="4.86645">
        <ele>287.4</ele>
        <time>2021-07-10T06:57:45</time>
      </trkpt>
      <trkpt lat="44.72684" lon="4.86643">
        <ele>287.6</ele>
        <time>2021-07-10T06:57:46</time>
      </trkpt>
      <trkpt lat="44.72681" lon="4.86641">
        <ele>287.8</ele>
        <time>2021-07-10T06:57:47</time>
      </trkpt>
      <trkpt lat="44.72681" lon="4.86637">
        <ele>288</ele>
        <time>2021-07-10T06:57:48</time>
      </trkpt>
      <trkpt lat="44.72678" lon="4.86637">
        <ele>288</ele>
        <time>2021-07-10T06:57:49</time>
      </trkpt>
      <trkpt lat="44.72675" lon="4.86637">
        <ele>288.2</ele>
        <time>2021-07-10T06:57:50</time>
      </trkpt>
      <trkpt lat="44.72675" lon="4.86637">
        <ele>288.2</ele>
        <time>2021-07-10T06:57:51</time>
      </trkpt>
      <trkpt lat="44.72676" lon="4.86635">
        <ele>288.4</ele>
        <time>2021-07-10T06:57:52</time>
      </trkpt>
      <trkpt lat="44.72676" lon="4.86635">
        <ele>288.4</ele>
        <time>2021-07-10T06:57:53</time>
      </trkpt>
      <trkpt lat="44.72676" lon="4.86635">
        <ele>288.6</ele>
        <time>2021-07-10T06:57:54</time>
      </trkpt>
      <trkpt lat="44.72673" lon="4.86634">
        <ele>288.8</ele>
        <time>2021-07-10T06:57:55</time>
      </trkpt>
      <trkpt lat="44.72671" lon="4.86632">
        <ele>288.8</ele>
        <time>2021-07-10T06:57:56</time>
      </trkpt>
      <trkpt lat="44.72668" lon="4.86631">
        <ele>289</ele>
        <time>2021-07-10T06:57:57</time>
      </trkpt>
      <trkpt lat="44.72668" lon="4.86631">
        <ele>289.2</ele>
        <time>2021-07-10T06:57:58</time>
      </trkpt>
      <trkpt lat="44.72665" lon="4.86627">
        <ele>289.4</ele>
        <time>2021-07-10T06:57:59</time>
      </trkpt>
      <trkpt lat="44.72665" lon="4.86627">
        <ele>289.8</ele>
        <time>2021-07-10T06:58:00</time>
      </trkpt>
      <trkpt lat="44.72665" lon="4.86626">
        <ele>290</ele>
        <time>2021-07-10T06:58:01</time>
      </trkpt>
      <trkpt lat="44.72664" lon="4.86625">
        <ele>290</ele>
        <time>2021-07-10T06:58:02</time>
      </trkpt>
      <trkpt lat="44.72661" lon="4.86624">
        <ele>290.2</ele>
        <time>2021-07-10T06:58:03</time>
      </trkpt>
      <trkpt lat="44.7266" lon="4.86624">
        <ele>290.4</ele>
        <time>2021-07-10T06:58:04</time>
      </trkpt>
      <trkpt lat="44.72658" lon="4.86622">
        <ele>290.6</ele>
        <time>2021-07-10T06:58:05</time>
      </trkpt>
      <trkpt lat="44.72654" lon="4.86621">
        <ele>291</ele>
        <time>2021-07-10T06:58:06</time>
      </trkpt>
      <trkpt lat="44.72655" lon="4.86618">
        <ele>291.2</ele>
        <time>2021-07-10T06:58:07</time>
      </trkpt>
      <trkpt lat="44.72655" lon="4.86615">
        <ele>291.4</ele>
        <time>2021-07-10T06:58:08</time>
      </trkpt>
      <trkpt lat="44.72654" lon="4.86614">
        <ele>291.8</ele>
        <time>2021-07-10T06:58:09</time>
      </trkpt>
      <trkpt lat="44.72652" lon="4.86612">
        <ele>292.2</ele>
        <time>2021-07-10T06:58:10</time>
      </trkpt>
      <trkpt lat="44.72651" lon="4.86609">
        <ele>292.4</ele>
        <time>2021-07-10T06:58:11</time>
      </trkpt>
      <trkpt lat="44.72651" lon="4.86609">
        <ele>292.6</ele>
        <time>2021-07-10T06:58:12</time>
      </trkpt>
      <trkpt lat="44.72647" lon="4.86606">
        <ele>292.8</ele>
        <time>2021-07-10T06:58:13</time>
      </trkpt>
      <trkpt lat="44.72647" lon="4.86606">
        <ele>293</ele>
        <time>2021-07-10T06:58:14</time>
      </trkpt>
      <trkpt lat="44.72646" lon="4.86605">
        <ele>293.2</ele>
        <time>2021-07-10T06:58:15</time>
      </trkpt>
      <trkpt lat="44.72645" lon="4.86603">
        <ele>293.4</ele>
        <time>2021-07-10T06:58:16</time>
      </trkpt>
      <trkpt lat="44.72644" lon="4.86602">
        <ele>293.8</ele>
        <time>2021-07-10T06:58:17</time>
      </trkpt>
      <trkpt lat="44.72643" lon="4.86603">
        <ele>294</ele>
        <time>2021-07-10T06:58:18</time>
      </trkpt>
      <trkpt lat="44.72643" lon="4.86603">
        <ele>294.2</ele>
        <time>2021-07-10T06:58:19</time>
      </trkpt>
      <trkpt lat="44.7264" lon="4.866">
        <ele>294.4</ele>
        <time>2021-07-10T06:58:20</time>
      </trkpt>
      <trkpt lat="44.7264" lon="4.866">
        <ele>294.6</ele>
        <time>2021-07-10T06:58:21</time>
      </trkpt>
      <trkpt lat="44.72638" lon="4.866">
        <ele>294.8</ele>
        <time>2021-07-10T06:58:22</time>
      </trkpt>
      <trkpt lat="44.72634" lon="4.86602">
        <ele>295</ele>
        <time>2021-07-10T06:58:23</time>
      </trkpt>
      <trkpt lat="44.72633" lon="4.86603">
        <ele>295.2</ele>
        <time>2021-07-10T06:58:24</time>
      </trkpt>
      <trkpt lat="44.72632" lon="4.86599">
        <ele>295.4</ele>
        <time>2021-07-10T06:58:25</time>
      </trkpt>
      <trkpt lat="44.72632" lon="4.86595">
        <ele>295.6</ele>
        <time>2021-07-10T06:58:26</time>
      </trkpt>
      <trkpt lat="44.72631" lon="4.86594">
        <ele>295.8</ele>
        <time>2021-07-10T06:58:27</time>
      </trkpt>
      <trkpt lat="44.72629" lon="4.86591">
        <ele>296</ele>
        <time>2021-07-10T06:58:28</time>
      </trkpt>
      <trkpt lat="44.72629" lon="4.86591">
        <ele>296</ele>
        <time>2021-07-10T06:58:29</time>
      </trkpt>
      <trkpt lat="44.72628" lon="4.8659">
        <ele>296.2</ele>
        <time>2021-07-10T06:58:30</time>
      </trkpt>
      <trkpt lat="44.72625" lon="4.86589">
        <ele>296.4</ele>
        <time>2021-07-10T06:58:31</time>
      </trkpt>
      <trkpt lat="44.72624" lon="4.86586">
        <ele>296.6</ele>
        <time>2021-07-10T06:58:32</time>
      </trkpt>
      <trkpt lat="44.72621" lon="4.86586">
        <ele>296.8</ele>
        <time>2021-07-10T06:58:33</time>
      </trkpt>
      <trkpt lat="44.7262" lon="4.86585">
        <ele>296.8</ele>
        <time>2021-07-10T06:58:34</time>
      </trkpt>
      <trkpt lat="44.72618" lon="4.86584">
        <ele>297</ele>
        <time>2021-07-10T06:58:35</time>
      </trkpt>
      <trkpt lat="44.72615" lon="4.86581">
        <ele>297</ele>
        <time>2021-07-10T06:58:36</time>
      </trkpt>
      <trkpt lat="44.72615" lon="4.86581">
        <ele>297.2</ele>
        <time>2021-07-10T06:58:37</time>
      </trkpt>
      <trkpt lat="44.72614" lon="4.8658">
        <ele>297.4</ele>
        <time>2021-07-10T06:58:38</time>
      </trkpt>
      <trkpt lat="44.72614" lon="4.86579">
        <ele>297.6</ele>
        <time>2021-07-10T06:58:39</time>
      </trkpt>
      <trkpt lat="44.72613" lon="4.86577">
        <ele>298</ele>
        <time>2021-07-10T06:58:40</time>
      </trkpt>
      <trkpt lat="44.72611" lon="4.86576">
        <ele>298.2</ele>
        <time>2021-07-10T06:58:41</time>
      </trkpt>
      <trkpt lat="44.72611" lon="4.8657">
        <ele>298.4</ele>
        <time>2021-07-10T06:58:42</time>
      </trkpt>
      <trkpt lat="44.72611" lon="4.8657">
        <ele>298.6</ele>
        <time>2021-07-10T06:58:43</time>
      </trkpt>
      <trkpt lat="44.72611" lon="4.86568">
        <ele>298.8</ele>
        <time>2021-07-10T06:58:44</time>
      </trkpt>
      <trkpt lat="44.72611" lon="4.86566">
        <ele>298.8</ele>
        <time>2021-07-10T06:58:45</time>
      </trkpt>
      <trkpt lat="44.72608" lon="4.86563">
        <ele>299</ele>
        <time>2021-07-10T06:58:46</time>
      </trkpt>
      <trkpt lat="44.72608" lon="4.86563">
        <ele>299.2</ele>
        <time>2021-07-10T06:58:47</time>
      </trkpt>
      <trkpt lat="44.72606" lon="4.86564">
        <ele>299.4</ele>
        <time>2021-07-10T06:58:48</time>
      </trkpt>
      <trkpt lat="44.72607" lon="4.86562">
        <ele>299.6</ele>
        <time>2021-07-10T06:58:49</time>
      </trkpt>
      <trkpt lat="44.72606" lon="4.86561">
        <ele>299.8</ele>
        <time>2021-07-10T06:58:50</time>
      </trkpt>
      <trkpt lat="44.72604" lon="4.86559">
        <ele>300</ele>
        <time>2021-07-10T06:58:51</time>
      </trkpt>
      <trkpt lat="44.72602" lon="4.8656">
        <ele>300</ele>
        <time>2021-07-10T06:58:52</time>
      </trkpt>
      <trkpt lat="44.726" lon="4.86559">
        <ele>300.2</ele>
        <time>2021-07-10T06:58:53</time>
      </trkpt>
      <trkpt lat="44.72598" lon="4.8656">
        <ele>300.4</ele>
        <time>2021-07-10T06:58:54</time>
      </trkpt>
      <trkpt lat="44.72597" lon="4.86559">
        <ele>300.6</ele>
        <time>2021-07-10T06:58:55</time>
      </trkpt>
      <trkpt lat="44.72595" lon="4.86558">
        <ele>300.8</ele>
        <time>2021-07-10T06:58:56</time>
      </trkpt>
      <trkpt lat="44.72594" lon="4.86556">
        <ele>301.2</ele>
        <time>2021-07-10T06:58:57</time>
      </trkpt>
      <trkpt lat="44.72592" lon="4.86554">
        <ele>301.4</ele>
        <time>2021-07-10T06:58:58</time>
      </trkpt>
      <trkpt lat="44.72592" lon="4.86554">
        <ele>301.6</ele>
        <time>2021-07-10T06:58:59</time>
      </trkpt>
      <trkpt lat="44.72591" lon="4.86553">
        <ele>301.8</ele>
        <time>2021-07-10T06:59:00</time>
      </trkpt>
      <trkpt lat="44.72591" lon="4.86553">
        <ele>302</ele>
        <time>2021-07-10T06:59:01</time>
      </trkpt>
      <trkpt lat="44.72588" lon="4.8655">
        <ele>302</ele>
        <time>2021-07-10T06:59:02</time>
      </trkpt>
      <trkpt lat="44.72585" lon="4.8655">
        <ele>302.2</ele>
        <time>2021-07-10T06:59:03</time>
      </trkpt>
      <trkpt lat="44.72582" lon="4.8655">
        <ele>302.4</ele>
        <time>2021-07-10T06:59:04</time>
      </trkpt>
      <trkpt lat="44.72582" lon="4.86549">
        <ele>302.6</ele>
        <time>2021-07-10T06:59:05</time>
      </trkpt>
      <trkpt lat="44.72581" lon="4.86548">
        <ele>302.8</ele>
        <time>2021-07-10T06:59:06</time>
      </trkpt>
      <trkpt lat="44.72579" lon="4.86547">
        <ele>303</ele>
        <time>2021-07-10T06:59:07</time>
      </trkpt>
      <trkpt lat="44.72579" lon="4.86545">
        <ele>303.4</ele>
        <time>2021-07-10T06:59:08</time>
      </trkpt>
      <trkpt lat="44.72576" lon="4.86544">
        <ele>303.6</ele>
        <time>2021-07-10T06:59:09</time>
      </trkpt>
      <trkpt lat="44.72575" lon="4.86539">
        <ele>303.8</ele>
        <time>2021-07-10T06:59:10</time>
      </trkpt>
      <trkpt lat="44.72575" lon="4.86539">
        <ele>304</ele>
        <time>2021-07-10T06:59:11</time>
      </trkpt>
      <trkpt lat="44.72574" lon="4.86536">
        <ele>304.2</ele>
        <time>2021-07-10T06:59:12</time>
      </trkpt>
      <trkpt lat="44.72572" lon="4.86535">
        <ele>304.2</ele>
        <time>2021-07-10T06:59:13</time>
      </trkpt>
      <trkpt lat="44.72571" lon="4.86535">
        <ele>304.2</ele>
        <time>2021-07-10T06:59:14</time>
      </trkpt>
      <trkpt lat="44.72569" lon="4.86533">
        <ele>304.4</ele>
        <time>2021-07-10T06:59:15</time>
      </trkpt>
      <trkpt lat="44.72568" lon="4.86533">
        <ele>304.4</ele>
        <time>2021-07-10T06:59:16</time>
      </trkpt>
      <trkpt lat="44.72568" lon="4.86532">
        <ele>304.6</ele>
        <time>2021-07-10T06:59:17</time>
      </trkpt>
      <trkpt lat="44.72566" lon="4.86531">
        <ele>304.6</ele>
        <time>2021-07-10T06:59:18</time>
      </trkpt>
      <trkpt lat="44.72566" lon="4.86531">
        <ele>304.8</ele>
        <time>2021-07-10T06:59:19</time>
      </trkpt>
      <trkpt lat="44.72564" lon="4.86531">
        <ele>305</ele>
        <time>2021-07-10T06:59:20</time>
      </trkpt>
      <trkpt lat="44.72561" lon="4.86531">
        <ele>305.4</ele>
        <time>2021-07-10T06:59:21</time>
      </trkpt>
      <trkpt lat="44.72561" lon="4.86531">
        <ele>305.6</ele>
        <time>2021-07-10T06:59:22</time>
      </trkpt>
      <trkpt lat="44.72561" lon="4.8653">
        <ele>306</ele>
        <time>2021-07-10T06:59:23</time>
      </trkpt>
      <trkpt lat="44.72559" lon="4.86531">
        <ele>306.2</ele>
        <time>2021-07-10T06:59:24</time>
      </trkpt>
      <trkpt lat="44.72558" lon="4.86527">
        <ele>306.4</ele>
        <time>2021-07-10T06:59:25</time>
      </trkpt>
      <trkpt lat="44.72557" lon="4.86525">
        <ele>306.6</ele>
        <time>2021-07-10T06:59:26</time>
      </trkpt>
      <trkpt lat="44.72555" lon="4.86525">
        <ele>306.8</ele>
        <time>2021-07-10T06:59:27</time>
      </trkpt>
      <trkpt lat="44.72554" lon="4.86524">
        <ele>307</ele>
        <time>2021-07-10T06:59:28</time>
      </trkpt>
      <trkpt lat="44.72552" lon="4.86526">
        <ele>307</ele>
        <time>2021-07-10T06:59:29</time>
      </trkpt>
      <trkpt lat="44.7255" lon="4.86526">
        <ele>307.2</ele>
        <time>2021-07-10T06:59:30</time>
      </trkpt>
      <trkpt lat="44.72547" lon="4.86527">
        <ele>307.4</ele>
        <time>2021-07-10T06:59:31</time>
      </trkpt>
      <trkpt lat="44.72545" lon="4.86527">
        <ele>307.8</ele>
        <time>2021-07-10T06:59:32</time>
      </trkpt>
      <trkpt lat="44.72543" lon="4.86525">
        <ele>308.2</ele>
        <time>2021-07-10T06:59:33</time>
      </trkpt>
      <trkpt lat="44.72543" lon="4.86525">
        <ele>308.4</ele>
        <time>2021-07-10T06:59:34</time>
      </trkpt>
      <trkpt lat="44.72541" lon="4.86525">
        <ele>308.6</ele>
        <time>2021-07-10T06:59:35</time>
      </trkpt>
      <trkpt lat="44.72539" lon="4.86524">
        <ele>308.8</ele>
        <time>2021-07-10T06:59:36</time>
      </trkpt>
      <trkpt lat="44.72539" lon="4.86524">
        <ele>309</ele>
        <time>2021-07-10T06:59:37</time>
      </trkpt>
      <trkpt lat="44.72536" lon="4.86524">
        <ele>309.2</ele>
        <time>2021-07-10T06:59:38</time>
      </trkpt>
      <trkpt lat="44.72534" lon="4.86523">
        <ele>309.2</ele>
        <time>2021-07-10T06:59:39</time>
      </trkpt>
      <trkpt lat="44.72532" lon="4.86522">
        <ele>309.4</ele>
        <time>2021-07-10T06:59:40</time>
      </trkpt>
      <trkpt lat="44.72531" lon="4.8652">
        <ele>309.4</ele>
        <time>2021-07-10T06:59:41</time>
      </trkpt>
      <trkpt lat="44.7253" lon="4.86517">
        <ele>309.6</ele>
        <time>2021-07-10T06:59:42</time>
      </trkpt>
      <trkpt lat="44.72529" lon="4.86517">
        <ele>310</ele>
        <time>2021-07-10T06:59:43</time>
      </trkpt>
      <trkpt lat="44.72528" lon="4.86513">
        <ele>310.4</ele>
        <time>2021-07-10T06:59:44</time>
      </trkpt>
      <trkpt lat="44.72527" lon="4.86512">
        <ele>310.8</ele>
        <time>2021-07-10T06:59:45</time>
      </trkpt>
      <trkpt lat="44.72527" lon="4.86512">
        <ele>311</ele>
        <time>2021-07-10T06:59:46</time>
      </trkpt>
      <trkpt lat="44.72527" lon="4.86512">
        <ele>311.4</ele>
        <time>2021-07-10T06:59:47</time>
      </trkpt>
      <trkpt lat="44.72527" lon="4.8651">
        <ele>311.6</ele>
        <time>2021-07-10T06:59:48</time>
      </trkpt>
      <trkpt lat="44.72525" lon="4.86508">
        <ele>311.8</ele>
        <time>2021-07-10T06:59:49</time>
      </trkpt>
      <trkpt lat="44.72523" lon="4.8651">
        <ele>312</ele>
        <time>2021-07-10T06:59:50</time>
      </trkpt>
      <trkpt lat="44.7252" lon="4.86509">
        <ele>312.2</ele>
        <time>2021-07-10T06:59:51</time>
      </trkpt>
      <trkpt lat="44.72518" lon="4.86509">
        <ele>312.4</ele>
        <time>2021-07-10T06:59:52</time>
      </trkpt>
      <trkpt lat="44.72515" lon="4.86507">
        <ele>312.6</ele>
        <time>2021-07-10T06:59:53</time>
      </trkpt>
      <trkpt lat="44.72513" lon="4.86508">
        <ele>312.8</ele>
        <time>2021-07-10T06:59:54</time>
      </trkpt>
      <trkpt lat="44.72512" lon="4.86507">
        <ele>313</ele>
        <time>2021-07-10T06:59:55</time>
      </trkpt>
      <trkpt lat="44.72511" lon="4.86505">
        <ele>313.2</ele>
        <time>2021-07-10T06:59:56</time>
      </trkpt>
      <trkpt lat="44.7251" lon="4.86503">
        <ele>313.4</ele>
        <time>2021-07-10T06:59:57</time>
      </trkpt>
      <trkpt lat="44.72509" lon="4.86503">
        <ele>313.4</ele>
        <time>2021-07-10T06:59:58</time>
      </trkpt>
      <trkpt lat="44.72509" lon="4.86503">
        <ele>313.6</ele>
        <time>2021-07-10T06:59:59</time>
      </trkpt>
      <trkpt lat="44.72507" lon="4.86502">
        <ele>313.6</ele>
        <time>2021-07-10T07:00:00</time>
      </trkpt>
      <trkpt lat="44.72505" lon="4.86501">
        <ele>313.8</ele>
        <time>2021-07-10T07:00:01</time>
      </trkpt>
      <trkpt lat="44.72504" lon="4.865">
        <ele>314</ele>
        <time>2021-07-10T07:00:02</time>
      </trkpt>
      <trkpt lat="44.72503" lon="4.86499">
        <ele>314.2</ele>
        <time>2021-07-10T07:00:03</time>
      </trkpt>
      <trkpt lat="44.72502" lon="4.86495">
        <ele>314.6</ele>
        <time>2021-07-10T07:00:04</time>
      </trkpt>
      <trkpt lat="44.72502" lon="4.86494">
        <ele>314.8</ele>
        <time>2021-07-10T07:00:05</time>
      </trkpt>
      <trkpt lat="44.72499" lon="4.86494">
        <ele>314.8</ele>
        <time>2021-07-10T07:00:06</time>
      </trkpt>
      <trkpt lat="44.72497" lon="4.86493">
        <ele>315</ele>
        <time>2021-07-10T07:00:07</time>
      </trkpt>
      <trkpt lat="44.72496" lon="4.86492">
        <ele>315.2</ele>
        <time>2021-07-10T07:00:08</time>
      </trkpt>
      <trkpt lat="44.72494" lon="4.8649">
        <ele>315.4</ele>
        <time>2021-07-10T07:00:09</time>
      </trkpt>
      <trkpt lat="44.72493" lon="4.86489">
        <ele>315.8</ele>
        <time>2021-07-10T07:00:10</time>
      </trkpt>
      <trkpt lat="44.72491" lon="4.86488">
        <ele>316</ele>
        <time>2021-07-10T07:00:11</time>
      </trkpt>
      <trkpt lat="44.7249" lon="4.86488">
        <ele>316.2</ele>
        <time>2021-07-10T07:00:12</time>
      </trkpt>
      <trkpt lat="44.72488" lon="4.86487">
        <ele>316.4</ele>
        <time>2021-07-10T07:00:13</time>
      </trkpt>
      <trkpt lat="44.72487" lon="4.86486">
        <ele>316.8</ele>
        <time>2021-07-10T07:00:14</time>
      </trkpt>
      <trkpt lat="44.72485" lon="4.86484">
        <ele>317</ele>
        <time>2021-07-10T07:00:15</time>
      </trkpt>
      <trkpt lat="44.72484" lon="4.86483">
        <ele>317</ele>
        <time>2021-07-10T07:00:16</time>
      </trkpt>
      <trkpt lat="44.72482" lon="4.86482">
        <ele>317.2</ele>
        <time>2021-07-10T07:00:17</time>
      </trkpt>
      <trkpt lat="44.72481" lon="4.86481">
        <ele>317.4</ele>
        <time>2021-07-10T07:00:18</time>
      </trkpt>
      <trkpt lat="44.7248" lon="4.8648">
        <ele>317.6</ele>
        <time>2021-07-10T07:00:19</time>
      </trkpt>
      <trkpt lat="44.72479" lon="4.86479">
        <ele>317.8</ele>
        <time>2021-07-10T07:00:20</time>
      </trkpt>
      <trkpt lat="44.72477" lon="4.86478">
        <ele>317.8</ele>
        <time>2021-07-10T07:00:21</time>
      </trkpt>
      <trkpt lat="44.72476" lon="4.86476">
        <ele>318</ele>
        <time>2021-07-10T07:00:22</time>
      </trkpt>
      <trkpt lat="44.72475" lon="4.86475">
        <ele>318.4</ele>
        <time>2021-07-10T07:00:23</time>
      </trkpt>
      <trkpt lat="44.72473" lon="4.86474">
        <ele>318.6</ele>
        <time>2021-07-10T07:00:24</time>
      </trkpt>
      <trkpt lat="44.72472" lon="4.86474">
        <ele>318.8</ele>
        <time>2021-07-10T07:00:25</time>
      </trkpt>
      <trkpt lat="44.7247" lon="4.86473">
        <ele>319</ele>
        <time>2021-07-10T07:00:26</time>
      </trkpt>
      <trkpt lat="44.72468" lon="4.86472">
        <ele>319.2</ele>
        <time>2021-07-10T07:00:27</time>
      </trkpt>
      <trkpt lat="44.72467" lon="4.86471">
        <ele>319.4</ele>
        <time>2021-07-10T07:00:28</time>
      </trkpt>
      <trkpt lat="44.72465" lon="4.8647">
        <ele>319.6</ele>
        <time>2021-07-10T07:00:29</time>
      </trkpt>
      <trkpt lat="44.72464" lon="4.86469">
        <ele>320</ele>
        <time>2021-07-10T07:00:30</time>
      </trkpt>
      <trkpt lat="44.72463" lon="4.86468">
        <ele>320.2</ele>
        <time>2021-07-10T07:00:31</time>
      </trkpt>
      <trkpt lat="44.72461" lon="4.86467">
        <ele>320.2</ele>
        <time>2021-07-10T07:00:32</time>
      </trkpt>
      <trkpt lat="44.7246" lon="4.86466">
        <ele>320.4</ele>
        <time>2021-07-10T07:00:33</time>
      </trkpt>
      <trkpt lat="44.72459" lon="4.86465">
        <ele>320.6</ele>
        <time>2021-07-10T07:00:34</time>
      </trkpt>
      <trkpt lat="44.72457" lon="4.86464">
        <ele>320.8</ele>
        <time>2021-07-10T07:00:35</time>
      </trkpt>
      <trkpt lat="44.72456" lon="4.86463">
        <ele>321</ele>
        <time>2021-07-10T07:00:36</time>
      </trkpt>
      <trkpt lat="44.72455" lon="4.86462">
        <ele>321.2</ele>
        <time>2021-07-10T07:00:37</time>
      </trkpt>
      <trkpt lat="44.72454" lon="4.86461">
        <ele>321.6</ele>
        <time>2021-07-10T07:00:38</time>
      </trkpt>
      <trkpt lat="44.72452" lon="4.86458">
        <ele>321.8</ele>
        <time>2021-07-10T07:00:39</time>
      </trkpt>
      <trkpt lat="44.72452" lon="4.86458">
        <ele>322</ele>
        <time>2021-07-10T07:00:40</time>
      </trkpt>
      <trkpt lat="44.72451" lon="4.86457">
        <ele>322.2</ele>
        <time>2021-07-10T07:00:41</time>
      </trkpt>
      <trkpt lat="44.7245" lon="4.86456">
        <ele>322.4</ele>
        <time>2021-07-10T07:00:42</time>
      </trkpt>
      <trkpt lat="44.72449" lon="4.86456">
        <ele>322.6</ele>
        <time>2021-07-10T07:00:43</time>
      </trkpt>
      <trkpt lat="44.72448" lon="4.86454">
        <ele>323</ele>
        <time>2021-07-10T07:00:44</time>
      </trkpt>
      <trkpt lat="44.72446" lon="4.86453">
        <ele>323.2</ele>
        <time>2021-07-10T07:00:45</time>
      </trkpt>
      <trkpt lat="44.72445" lon="4.86451">
        <ele>323.4</ele>
        <time>2021-07-10T07:00:46</time>
      </trkpt>
      <trkpt lat="44.72443" lon="4.8645">
        <ele>323.6</ele>
        <time>2021-07-10T07:00:47</time>
      </trkpt>
      <trkpt lat="44.72443" lon="4.86447">
        <ele>323.8</ele>
        <time>2021-07-10T07:00:48</time>
      </trkpt>
      <trkpt lat="44.72442" lon="4.86447">
        <ele>324.2</ele>
        <time>2021-07-10T07:00:49</time>
      </trkpt>
      <trkpt lat="44.7244" lon="4.86445">
        <ele>324.4</ele>
        <time>2021-07-10T07:00:50</time>
      </trkpt>
      <trkpt lat="44.72439" lon="4.86444">
        <ele>324.4</ele>
        <time>2021-07-10T07:00:51</time>
      </trkpt>
      <trkpt lat="44.72437" lon="4.86443">
        <ele>324.8</ele>
        <time>2021-07-10T07:00:52</time>
      </trkpt>
      <trkpt lat="44.72435" lon="4.86442">
        <ele>325</ele>
        <time>2021-07-10T07:00:53</time>
      </trkpt>
      <trkpt lat="44.72435" lon="4.8644">
        <ele>325.2</ele>
        <time>2021-07-10T07:00:54</time>
      </trkpt>
      <trkpt lat="44.72433" lon="4.86442">
        <ele>325.2</ele>
        <time>2021-07-10T07:00:55</time>
      </trkpt>
      <trkpt lat="44.72431" lon="4.8644">
        <ele>325.4</ele>
        <time>2021-07-10T07:00:56</time>
      </trkpt>
      <trkpt lat="44.7243" lon="4.86441">
        <ele>325.6</ele>
        <time>2021-07-10T07:00:57</time>
      </trkpt>
      <trkpt lat="44.72428" lon="4.8644">
        <ele>325.8</ele>
        <time>2021-07-10T07:00:58</time>
      </trkpt>
      <trkpt lat="44.72428" lon="4.86437">
        <ele>326</ele>
        <time>2021-07-10T07:00:59</time>
      </trkpt>
      <trkpt lat="44.72427" lon="4.86437">
        <ele>326.2</ele>
        <time>2021-07-10T07:01:00</time>
      </trkpt>
      <trkpt lat="44.72424" lon="4.86436">
        <ele>326.4</ele>
        <time>2021-07-10T07:01:01</time>
      </trkpt>
      <trkpt lat="44.72423" lon="4.86436">
        <ele>326.6</ele>
        <time>2021-07-10T07:01:02</time>
      </trkpt>
      <trkpt lat="44.7242" lon="4.86435">
        <ele>326.8</ele>
        <time>2021-07-10T07:01:03</time>
      </trkpt>
      <trkpt lat="44.72419" lon="4.86433">
        <ele>327</ele>
        <time>2021-07-10T07:01:04</time>
      </trkpt>
      <trkpt lat="44.72419" lon="4.86432">
        <ele>327.2</ele>
        <time>2021-07-10T07:01:05</time>
      </trkpt>
      <trkpt lat="44.72419" lon="4.8643">
        <ele>327.4</ele>
        <time>2021-07-10T07:01:06</time>
      </trkpt>
      <trkpt lat="44.72417" lon="4.86427">
        <ele>327.6</ele>
        <time>2021-07-10T07:01:07</time>
      </trkpt>
      <trkpt lat="44.72416" lon="4.86425">
        <ele>327.6</ele>
        <time>2021-07-10T07:01:08</time>
      </trkpt>
      <trkpt lat="44.72416" lon="4.86425">
        <ele>327.8</ele>
        <time>2021-07-10T07:01:09</time>
      </trkpt>
      <trkpt lat="44.72415" lon="4.86421">
        <ele>328</ele>
        <time>2021-07-10T07:01:10</time>
      </trkpt>
      <trkpt lat="44.72414" lon="4.86421">
        <ele>328</ele>
        <time>2021-07-10T07:01:11</time>
      </trkpt>
      <trkpt lat="44.72413" lon="4.8642">
        <ele>328.2</ele>
        <time>2021-07-10T07:01:12</time>
      </trkpt>
      <trkpt lat="44.72411" lon="4.8642">
        <ele>328.2</ele>
        <time>2021-07-10T07:01:13</time>
      </trkpt>
      <trkpt lat="44.72408" lon="4.86418">
        <ele>328.4</ele>
        <time>2021-07-10T07:01:14</time>
      </trkpt>
      <trkpt lat="44.72408" lon="4.86418">
        <ele>328.4</ele>
        <time>2021-07-10T07:01:15</time>
      </trkpt>
      <trkpt lat="44.72406" lon="4.86417">
        <ele>328.6</ele>
        <time>2021-07-10T07:01:16</time>
      </trkpt>
      <trkpt lat="44.72406" lon="4.86414">
        <ele>328.8</ele>
        <time>2021-07-10T07:01:17</time>
      </trkpt>
      <trkpt lat="44.72404" lon="4.86413">
        <ele>329</ele>
        <time>2021-07-10T07:01:18</time>
      </trkpt>
      <trkpt lat="44.72404" lon="4.86413">
        <ele>329</ele>
        <time>2021-07-10T07:01:19</time>
      </trkpt>
      <trkpt lat="44.72403" lon="4.8641">
        <ele>329.2</ele>
        <time>2021-07-10T07:01:20</time>
      </trkpt>
      <trkpt lat="44.72401" lon="4.86408">
        <ele>329.4</ele>
        <time>2021-07-10T07:01:21</time>
      </trkpt>
      <trkpt lat="44.72401" lon="4.86408">
        <ele>329.6</ele>
        <time>2021-07-10T07:01:22</time>
      </trkpt>
      <trkpt lat="44.72399" lon="4.86407">
        <ele>329.8</ele>
        <time>2021-07-10T07:01:23</time>
      </trkpt>
      <trkpt lat="44.72397" lon="4.86406">
        <ele>330</ele>
        <time>2021-07-10T07:01:24</time>
      </trkpt>
      <trkpt lat="44.72395" lon="4.86405">
        <ele>330.2</ele>
        <time>2021-07-10T07:01:25</time>
      </trkpt>
      <trkpt lat="44.72395" lon="4.86403">
        <ele>330.4</ele>
        <time>2021-07-10T07:01:26</time>
      </trkpt>
      <trkpt lat="44.72393" lon="4.86402">
        <ele>330.6</ele>
        <time>2021-07-10T07:01:27</time>
      </trkpt>
      <trkpt lat="44.72393" lon="4.864">
        <ele>330.8</ele>
        <time>2021-07-10T07:01:28</time>
      </trkpt>
      <trkpt lat="44.72392" lon="4.86398">
        <ele>330.8</ele>
        <time>2021-07-10T07:01:29</time>
      </trkpt>
      <trkpt lat="44.72392" lon="4.86394">
        <ele>331</ele>
        <time>2021-07-10T07:01:30</time>
      </trkpt>
      <trkpt lat="44.72392" lon="4.86394">
        <ele>331.2</ele>
        <time>2021-07-10T07:01:31</time>
      </trkpt>
      <trkpt lat="44.72391" lon="4.86394">
        <ele>331.4</ele>
        <time>2021-07-10T07:01:32</time>
      </trkpt>
      <trkpt lat="44.7239" lon="4.86394">
        <ele>331.6</ele>
        <time>2021-07-10T07:01:33</time>
      </trkpt>
      <trkpt lat="44.72386" lon="4.86394">
        <ele>331.8</ele>
        <time>2021-07-10T07:01:34</time>
      </trkpt>
      <trkpt lat="44.72386" lon="4.86394">
        <ele>332</ele>
        <time>2021-07-10T07:01:35</time>
      </trkpt>
      <trkpt lat="44.72384" lon="4.86393">
        <ele>332.2</ele>
        <time>2021-07-10T07:01:36</time>
      </trkpt>
      <trkpt lat="44.72384" lon="4.86391">
        <ele>332.4</ele>
        <time>2021-07-10T07:01:37</time>
      </trkpt>
      <trkpt lat="44.72382" lon="4.86389">
        <ele>332.6</ele>
        <time>2021-07-10T07:01:38</time>
      </trkpt>
      <trkpt lat="44.72381" lon="4.86387">
        <ele>332.8</ele>
        <time>2021-07-10T07:01:39</time>
      </trkpt>
      <trkpt lat="44.72379" lon="4.86386">
        <ele>333</ele>
        <time>2021-07-10T07:01:40</time>
      </trkpt>
      <trkpt lat="44.72377" lon="4.86386">
        <ele>333.2</ele>
        <time>2021-07-10T07:01:41</time>
      </trkpt>
      <trkpt lat="44.72375" lon="4.86385">
        <ele>333.4</ele>
        <time>2021-07-10T07:01:42</time>
      </trkpt>
      <trkpt lat="44.72374" lon="4.86382">
        <ele>333.6</ele>
        <time>2021-07-10T07:01:43</time>
      </trkpt>
      <trkpt lat="44.72373" lon="4.8638">
        <ele>333.8</ele>
        <time>2021-07-10T07:01:44</time>
      </trkpt>
      <trkpt lat="44.72371" lon="4.86381">
        <ele>334</ele>
        <time>2021-07-10T07:01:45</time>
      </trkpt>
      <trkpt lat="44.72371" lon="4.8638">
        <ele>334</ele>
        <time>2021-07-10T07:01:46</time>
      </trkpt>
      <trkpt lat="44.7237" lon="4.86377">
        <ele>334.2</ele>
        <time>2021-07-10T07:01:47</time>
      </trkpt>
      <trkpt lat="44.72368" lon="4.86378">
        <ele>334.4</ele>
        <time>2021-07-10T07:01:48</time>
      </trkpt>
      <trkpt lat="44.72366" lon="4.86375">
        <ele>334.6</ele>
        <time>2021-07-10T07:01:49</time>
      </trkpt>
      <trkpt lat="44.72366" lon="4.86375">
        <ele>334.8</ele>
        <time>2021-07-10T07:01:50</time>
      </trkpt>
      <trkpt lat="44.72364" lon="4.86374">
        <ele>335.2</ele>
        <time>2021-07-10T07:01:51</time>
      </trkpt>
      <trkpt lat="44.72362" lon="4.86372">
        <ele>335.6</ele>
        <time>2021-07-10T07:01:52</time>
      </trkpt>
      <trkpt lat="44.72362" lon="4.86372">
        <ele>335.8</ele>
        <time>2021-07-10T07:01:53</time>
      </trkpt>
      <trkpt lat="44.72363" lon="4.86367">
        <ele>336</ele>
        <time>2021-07-10T07:01:54</time>
      </trkpt>
      <trkpt lat="44.72362" lon="4.86362">
        <ele>336.2</ele>
        <time>2021-07-10T07:01:55</time>
      </trkpt>
      <trkpt lat="44.72362" lon="4.86362">
        <ele>336.4</ele>
        <time>2021-07-10T07:01:56</time>
      </trkpt>
      <trkpt lat="44.7236" lon="4.86362">
        <ele>336.8</ele>
        <time>2021-07-10T07:01:57</time>
      </trkpt>
      <trkpt lat="44.72359" lon="4.86361">
        <ele>336.8</ele>
        <time>2021-07-10T07:01:58</time>
      </trkpt>
      <trkpt lat="44.72356" lon="4.86361">
        <ele>337</ele>
        <time>2021-07-10T07:01:59</time>
      </trkpt>
      <trkpt lat="44.72355" lon="4.86358">
        <ele>337.2</ele>
        <time>2021-07-10T07:02:00</time>
      </trkpt>
      <trkpt lat="44.72355" lon="4.86358">
        <ele>337.2</ele>
        <time>2021-07-10T07:02:01</time>
      </trkpt>
      <trkpt lat="44.72354" lon="4.86356">
        <ele>337.4</ele>
        <time>2021-07-10T07:02:02</time>
      </trkpt>
      <trkpt lat="44.72353" lon="4.86355">
        <ele>337.8</ele>
        <time>2021-07-10T07:02:03</time>
      </trkpt>
      <trkpt lat="44.72352" lon="4.86354">
        <ele>338</ele>
        <time>2021-07-10T07:02:04</time>
      </trkpt>
      <trkpt lat="44.72349" lon="4.86355">
        <ele>338.4</ele>
        <time>2021-07-10T07:02:05</time>
      </trkpt>
      <trkpt lat="44.72347" lon="4.86354">
        <ele>338.6</ele>
        <time>2021-07-10T07:02:06</time>
      </trkpt>
      <trkpt lat="44.72347" lon="4.86354">
        <ele>338.8</ele>
        <time>2021-07-10T07:02:07</time>
      </trkpt>
      <trkpt lat="44.72348" lon="4.8635">
        <ele>339</ele>
        <time>2021-07-10T07:02:08</time>
      </trkpt>
      <trkpt lat="44.72344" lon="4.8635">
        <ele>339.2</ele>
        <time>2021-07-10T07:02:09</time>
      </trkpt>
      <trkpt lat="44.72343" lon="4.8635">
        <ele>339.6</ele>
        <time>2021-07-10T07:02:10</time>
      </trkpt>
      <trkpt lat="44.72339" lon="4.86348">
        <ele>339.6</ele>
        <time>2021-07-10T07:02:11</time>
      </trkpt>
      <trkpt lat="44.72339" lon="4.86348">
        <ele>339.8</ele>
        <time>2021-07-10T07:02:12</time>
      </trkpt>
      <trkpt lat="44.72338" lon="4.86349">
        <ele>340.2</ele>
        <time>2021-07-10T07:02:13</time>
      </trkpt>
      <trkpt lat="44.72338" lon="4.86348">
        <ele>340.4</ele>
        <time>2021-07-10T07:02:14</time>
      </trkpt>
      <trkpt lat="44.72338" lon="4.86348">
        <ele>340.6</ele>
        <time>2021-07-10T07:02:15</time>
      </trkpt>
      <trkpt lat="44.72336" lon="4.86347">
        <ele>340.8</ele>
        <time>2021-07-10T07:02:16</time>
      </trkpt>
      <trkpt lat="44.72335" lon="4.86346">
        <ele>341</ele>
        <time>2021-07-10T07:02:17</time>
      </trkpt>
      <trkpt lat="44.72334" lon="4.86346">
        <ele>341.2</ele>
        <time>2021-07-10T07:02:18</time>
      </trkpt>
      <trkpt lat="44.72332" lon="4.86345">
        <ele>341.4</ele>
        <time>2021-07-10T07:02:19</time>
      </trkpt>
      <trkpt lat="44.72328" lon="4.86342">
        <ele>341.6</ele>
        <time>2021-07-10T07:02:20</time>
      </trkpt>
      <trkpt lat="44.72326" lon="4.86342">
        <ele>341.8</ele>
        <time>2021-07-10T07:02:21</time>
      </trkpt>
      <trkpt lat="44.72322" lon="4.86342">
        <ele>342</ele>
        <time>2021-07-10T07:02:22</time>
      </trkpt>
      <trkpt lat="44.72319" lon="4.86338">
        <ele>342.2</ele>
        <time>2021-07-10T07:02:23</time>
      </trkpt>
      <trkpt lat="44.72319" lon="4.86338">
        <ele>342.2</ele>
        <time>2021-07-10T07:02:24</time>
      </trkpt>
      <trkpt lat="44.7232" lon="4.86334">
        <ele>342.4</ele>
        <time>2021-07-10T07:02:25</time>
      </trkpt>
      <trkpt lat="44.72318" lon="4.86332">
        <ele>342.4</ele>
        <time>2021-07-10T07:02:26</time>
      </trkpt>
      <trkpt lat="44.72317" lon="4.86334">
        <ele>342.4</ele>
        <time>2021-07-10T07:02:27</time>
      </trkpt>
      <trkpt lat="44.72315" lon="4.86333">
        <ele>342.8</ele>
        <time>2021-07-10T07:02:28</time>
      </trkpt>
      <trkpt lat="44.72314" lon="4.86334">
        <ele>343</ele>
        <time>2021-07-10T07:02:29</time>
      </trkpt>
      <trkpt lat="44.72312" lon="4.86335">
        <ele>343.4</ele>
        <time>2021-07-10T07:02:30</time>
      </trkpt>
      <trkpt lat="44.72311" lon="4.86334">
        <ele>343.6</ele>
        <time>2021-07-10T07:02:31</time>
      </trkpt>
      <trkpt lat="44.7231" lon="4.86333">
        <ele>343.8</ele>
        <time>2021-07-10T07:02:32</time>
      </trkpt>
      <trkpt lat="44.72309" lon="4.86331">
        <ele>344.2</ele>
        <time>2021-07-10T07:02:33</time>
      </trkpt>
      <trkpt lat="44.7231" lon="4.86328">
        <ele>344.4</ele>
        <time>2021-07-10T07:02:34</time>
      </trkpt>
      <trkpt lat="44.72308" lon="4.86327">
        <ele>344.8</ele>
        <time>2021-07-10T07:02:35</time>
      </trkpt>
      <trkpt lat="44.72306" lon="4.86325">
        <ele>345</ele>
        <time>2021-07-10T07:02:36</time>
      </trkpt>
      <trkpt lat="44.72306" lon="4.86324">
        <ele>345.4</ele>
        <time>2021-07-10T07:02:37</time>
      </trkpt>
      <trkpt lat="44.72305" lon="4.86323">
        <ele>345.6</ele>
        <time>2021-07-10T07:02:38</time>
      </trkpt>
      <trkpt lat="44.72304" lon="4.86322">
        <ele>345.6</ele>
        <time>2021-07-10T07:02:39</time>
      </trkpt>
      <trkpt lat="44.72301" lon="4.8632">
        <ele>345.8</ele>
        <time>2021-07-10T07:02:40</time>
      </trkpt>
      <trkpt lat="44.72299" lon="4.86318">
        <ele>346</ele>
        <time>2021-07-10T07:02:41</time>
      </trkpt>
      <trkpt lat="44.72299" lon="4.86317">
        <ele>346.2</ele>
        <time>2021-07-10T07:02:42</time>
      </trkpt>
      <trkpt lat="44.72296" lon="4.86315">
        <ele>346.4</ele>
        <time>2021-07-10T07:02:43</time>
      </trkpt>
      <trkpt lat="44.72294" lon="4.86314">
        <ele>346.8</ele>
        <time>2021-07-10T07:02:44</time>
      </trkpt>
      <trkpt lat="44.72292" lon="4.86314">
        <ele>347</ele>
        <time>2021-07-10T07:02:45</time>
      </trkpt>
      <trkpt lat="44.72291" lon="4.86312">
        <ele>347.2</ele>
        <time>2021-07-10T07:02:46</time>
      </trkpt>
      <trkpt lat="44.72291" lon="4.86312">
        <ele>347.4</ele>
        <time>2021-07-10T07:02:47</time>
      </trkpt>
      <trkpt lat="44.72288" lon="4.8631">
        <ele>347.8</ele>
        <time>2021-07-10T07:02:48</time>
      </trkpt>
      <trkpt lat="44.72288" lon="4.86306">
        <ele>347.8</ele>
        <time>2021-07-10T07:02:49</time>
      </trkpt>
      <trkpt lat="44.72287" lon="4.86302">
        <ele>348</ele>
        <time>2021-07-10T07:02:50</time>
      </trkpt>
      <trkpt lat="44.72287" lon="4.86302">
        <ele>348.4</ele>
        <time>2021-07-10T07:02:51</time>
      </trkpt>
      <trkpt lat="44.72286" lon="4.86302">
        <ele>348.6</ele>
        <time>2021-07-10T07:02:52</time>
      </trkpt>
      <trkpt lat="44.72282" lon="4.86297">
        <ele>348.8</ele>
        <time>2021-07-10T07:02:53</time>
      </trkpt>
      <trkpt lat="44.72282" lon="4.86297">
        <ele>349</ele>
        <time>2021-07-10T07:02:54</time>
      </trkpt>
      <trkpt lat="44.7228" lon="4.86296">
        <ele>349.2</ele>
        <time>2021-07-10T07:02:55</time>
      </trkpt>
      <trkpt lat="44.7228" lon="4.86293">
        <ele>349.4</ele>
        <time>2021-07-10T07:02:56</time>
      </trkpt>
      <trkpt lat="44.7228" lon="4.86293">
        <ele>349.4</ele>
        <time>2021-07-10T07:02:57</time>
      </trkpt>
      <trkpt lat="44.7228" lon="4.86289">
        <ele>349.6</ele>
        <time>2021-07-10T07:02:58</time>
      </trkpt>
      <trkpt lat="44.72281" lon="4.86283">
        <ele>349.8</ele>
        <time>2021-07-10T07:02:59</time>
      </trkpt>
      <trkpt lat="44.72281" lon="4.86283">
        <ele>350</ele>
        <time>2021-07-10T07:03:00</time>
      </trkpt>
      <trkpt lat="44.72282" lon="4.86281">
        <ele>350.2</ele>
        <time>2021-07-10T07:03:01</time>
      </trkpt>
      <trkpt lat="44.72282" lon="4.86279">
        <ele>350.6</ele>
        <time>2021-07-10T07:03:02</time>
      </trkpt>
      <trkpt lat="44.72281" lon="4.86276">
        <ele>350.8</ele>
        <time>2021-07-10T07:03:03</time>
      </trkpt>
      <trkpt lat="44.72281" lon="4.86276">
        <ele>351</ele>
        <time>2021-07-10T07:03:04</time>
      </trkpt>
      <trkpt lat="44.72281" lon="4.86274">
        <ele>351.2</ele>
        <time>2021-07-10T07:03:05</time>
      </trkpt>
      <trkpt lat="44.72281" lon="4.86272">
        <ele>351.4</ele>
        <time>2021-07-10T07:03:06</time>
      </trkpt>
      <trkpt lat="44.72281" lon="4.86271">
        <ele>351.6</ele>
        <time>2021-07-10T07:03:07</time>
      </trkpt>
      <trkpt lat="44.7228" lon="4.86269">
        <ele>351.6</ele>
        <time>2021-07-10T07:03:08</time>
      </trkpt>
      <trkpt lat="44.72278" lon="4.86268">
        <ele>351.8</ele>
        <time>2021-07-10T07:03:09</time>
      </trkpt>
      <trkpt lat="44.72277" lon="4.86267">
        <ele>351.8</ele>
        <time>2021-07-10T07:03:10</time>
      </trkpt>
      <trkpt lat="44.72273" lon="4.86267">
        <ele>351.8</ele>
        <time>2021-07-10T07:03:11</time>
      </trkpt>
      <trkpt lat="44.7227" lon="4.86268">
        <ele>351.8</ele>
        <time>2021-07-10T07:03:12</time>
      </trkpt>
      <trkpt lat="44.7227" lon="4.86268">
        <ele>351.8</ele>
        <time>2021-07-10T07:03:13</time>
      </trkpt>
      <trkpt lat="44.72268" lon="4.86268">
        <ele>351.8</ele>
        <time>2021-07-10T07:03:14</time>
      </trkpt>
      <trkpt lat="44.72267" lon="4.86264">
        <ele>351.8</ele>
        <time>2021-07-10T07:03:15</time>
      </trkpt>
      <trkpt lat="44.72266" lon="4.86263">
        <ele>352</ele>
        <time>2021-07-10T07:03:16</time>
      </trkpt>
      <trkpt lat="44.72264" lon="4.86266">
        <ele>352</ele>
        <time>2021-07-10T07:03:17</time>
      </trkpt>
      <trkpt lat="44.72262" lon="4.86265">
        <ele>352.2</ele>
        <time>2021-07-10T07:03:18</time>
      </trkpt>
      <trkpt lat="44.72262" lon="4.86263">
        <ele>352.6</ele>
        <time>2021-07-10T07:03:19</time>
      </trkpt>
      <trkpt lat="44.72261" lon="4.86263">
        <ele>352.8</ele>
        <time>2021-07-10T07:03:20</time>
      </trkpt>
      <trkpt lat="44.72262" lon="4.8626">
        <ele>353</ele>
        <time>2021-07-10T07:03:21</time>
      </trkpt>
      <trkpt lat="44.72258" lon="4.8626">
        <ele>353.2</ele>
        <time>2021-07-10T07:03:22</time>
      </trkpt>
      <trkpt lat="44.72257" lon="4.86261">
        <ele>353.2</ele>
        <time>2021-07-10T07:03:23</time>
      </trkpt>
      <trkpt lat="44.72254" lon="4.8626">
        <ele>353.4</ele>
        <time>2021-07-10T07:03:24</time>
      </trkpt>
      <trkpt lat="44.72254" lon="4.86259">
        <ele>353.4</ele>
        <time>2021-07-10T07:03:25</time>
      </trkpt>
      <trkpt lat="44.72252" lon="4.86261">
        <ele>353.6</ele>
        <time>2021-07-10T07:03:26</time>
      </trkpt>
      <trkpt lat="44.72252" lon="4.86261">
        <ele>353.8</ele>
        <time>2021-07-10T07:03:27</time>
      </trkpt>
      <trkpt lat="44.72248" lon="4.86258">
        <ele>353.8</ele>
        <time>2021-07-10T07:03:28</time>
      </trkpt>
      <trkpt lat="44.72246" lon="4.86257">
        <ele>354</ele>
        <time>2021-07-10T07:03:29</time>
      </trkpt>
      <trkpt lat="44.72245" lon="4.86256">
        <ele>354</ele>
        <time>2021-07-10T07:03:30</time>
      </trkpt>
      <trkpt lat="44.72244" lon="4.86255">
        <ele>354.2</ele>
        <time>2021-07-10T07:03:31</time>
      </trkpt>
      <trkpt lat="44.72241" lon="4.86254">
        <ele>354.2</ele>
        <time>2021-07-10T07:03:32</time>
      </trkpt>
      <trkpt lat="44.7224" lon="4.86251">
        <ele>354.4</ele>
        <time>2021-07-10T07:03:33</time>
      </trkpt>
      <trkpt lat="44.72239" lon="4.86249">
        <ele>354.4</ele>
        <time>2021-07-10T07:03:34</time>
      </trkpt>
      <trkpt lat="44.72237" lon="4.86249">
        <ele>354.6</ele>
        <time>2021-07-10T07:03:35</time>
      </trkpt>
      <trkpt lat="44.72235" lon="4.86249">
        <ele>354.8</ele>
        <time>2021-07-10T07:03:36</time>
      </trkpt>
      <trkpt lat="44.72233" lon="4.86248">
        <ele>355</ele>
        <time>2021-07-10T07:03:37</time>
      </trkpt>
      <trkpt lat="44.72232" lon="4.86245">
        <ele>355.2</ele>
        <time>2021-07-10T07:03:38</time>
      </trkpt>
      <trkpt lat="44.72233" lon="4.86241">
        <ele>355.4</ele>
        <time>2021-07-10T07:03:39</time>
      </trkpt>
      <trkpt lat="44.72233" lon="4.86239">
        <ele>355.6</ele>
        <time>2021-07-10T07:03:40</time>
      </trkpt>
      <trkpt lat="44.72231" lon="4.86241">
        <ele>355.8</ele>
        <time>2021-07-10T07:03:41</time>
      </trkpt>
      <trkpt lat="44.7223" lon="4.86239">
        <ele>356</ele>
        <time>2021-07-10T07:03:42</time>
      </trkpt>
      <trkpt lat="44.72226" lon="4.86236">
        <ele>356</ele>
        <time>2021-07-10T07:03:43</time>
      </trkpt>
      <trkpt lat="44.72226" lon="4.86236">
        <ele>356.2</ele>
        <time>2021-07-10T07:03:44</time>
      </trkpt>
      <trkpt lat="44.72223" lon="4.86237">
        <ele>356.4</ele>
        <time>2021-07-10T07:03:45</time>
      </trkpt>
      <trkpt lat="44.72223" lon="4.86237">
        <ele>356.6</ele>
        <time>2021-07-10T07:03:46</time>
      </trkpt>
      <trkpt lat="44.72221" lon="4.86236">
        <ele>356.6</ele>
        <time>2021-07-10T07:03:47</time>
      </trkpt>
      <trkpt lat="44.72219" lon="4.86234">
        <ele>356.8</ele>
        <time>2021-07-10T07:03:48</time>
      </trkpt>
      <trkpt lat="44.72217" lon="4.86233">
        <ele>357</ele>
        <time>2021-07-10T07:03:49</time>
      </trkpt>
      <trkpt lat="44.72216" lon="4.86231">
        <ele>357.2</ele>
        <time>2021-07-10T07:03:50</time>
      </trkpt>
      <trkpt lat="44.72211" lon="4.86228">
        <ele>357.4</ele>
        <time>2021-07-10T07:03:51</time>
      </trkpt>
      <trkpt lat="44.72211" lon="4.86228">
        <ele>357.4</ele>
        <time>2021-07-10T07:03:52</time>
      </trkpt>
      <trkpt lat="44.72212" lon="4.86228">
        <ele>357.6</ele>
        <time>2021-07-10T07:03:53</time>
      </trkpt>
      <trkpt lat="44.7221" lon="4.86227">
        <ele>357.8</ele>
        <time>2021-07-10T07:03:54</time>
      </trkpt>
      <trkpt lat="44.72205" lon="4.8623">
        <ele>358</ele>
        <time>2021-07-10T07:03:55</time>
      </trkpt>
      <trkpt lat="44.72204" lon="4.86227">
        <ele>358.2</ele>
        <time>2021-07-10T07:03:56</time>
      </trkpt>
      <trkpt lat="44.72204" lon="4.86227">
        <ele>358.4</ele>
        <time>2021-07-10T07:03:57</time>
      </trkpt>
      <trkpt lat="44.72204" lon="4.86227">
        <ele>358.6</ele>
        <time>2021-07-10T07:03:58</time>
      </trkpt>
      <trkpt lat="44.72201" lon="4.86226">
        <ele>358.6</ele>
        <time>2021-07-10T07:03:59</time>
      </trkpt>
      <trkpt lat="44.72201" lon="4.86223">
        <ele>358.8</ele>
        <time>2021-07-10T07:04:00</time>
      </trkpt>
      <trkpt lat="44.72199" lon="4.86222">
        <ele>358.8</ele>
        <time>2021-07-10T07:04:01</time>
      </trkpt>
      <trkpt lat="44.72196" lon="4.86224">
        <ele>359</ele>
        <time>2021-07-10T07:04:02</time>
      </trkpt>
      <trkpt lat="44.72196" lon="4.86224">
        <ele>359</ele>
        <time>2021-07-10T07:04:03</time>
      </trkpt>
      <trkpt lat="44.72195" lon="4.86219">
        <ele>359.2</ele>
        <time>2021-07-10T07:04:04</time>
      </trkpt>
      <trkpt lat="44.72192" lon="4.86218">
        <ele>359.4</ele>
        <time>2021-07-10T07:04:05</time>
      </trkpt>
      <trkpt lat="44.7219" lon="4.86219">
        <ele>359.4</ele>
        <time>2021-07-10T07:04:06</time>
      </trkpt>
      <trkpt lat="44.72187" lon="4.86218">
        <ele>359.6</ele>
        <time>2021-07-10T07:04:07</time>
      </trkpt>
      <trkpt lat="44.72184" lon="4.86219">
        <ele>359.8</ele>
        <time>2021-07-10T07:04:08</time>
      </trkpt>
      <trkpt lat="44.72185" lon="4.86219">
        <ele>359.8</ele>
        <time>2021-07-10T07:04:09</time>
      </trkpt>
      <trkpt lat="44.72182" lon="4.8622">
        <ele>360</ele>
        <time>2021-07-10T07:04:10</time>
      </trkpt>
      <trkpt lat="44.72181" lon="4.86221">
        <ele>360</ele>
        <time>2021-07-10T07:04:11</time>
      </trkpt>
      <trkpt lat="44.7218" lon="4.86223">
        <ele>360.2</ele>
        <time>2021-07-10T07:04:12</time>
      </trkpt>
      <trkpt lat="44.72178" lon="4.86222">
        <ele>360.4</ele>
        <time>2021-07-10T07:04:13</time>
      </trkpt>
      <trkpt lat="44.72177" lon="4.86225">
        <ele>360.4</ele>
        <time>2021-07-10T07:04:14</time>
      </trkpt>
      <trkpt lat="44.72177" lon="4.86223">
        <ele>360.6</ele>
        <time>2021-07-10T07:04:15</time>
      </trkpt>
      <trkpt lat="44.72174" lon="4.86221">
        <ele>360.6</ele>
        <time>2021-07-10T07:04:16</time>
      </trkpt>
      <trkpt lat="44.72173" lon="4.86219">
        <ele>360.6</ele>
        <time>2021-07-10T07:04:17</time>
      </trkpt>
      <trkpt lat="44.72171" lon="4.86222">
        <ele>360.8</ele>
        <time>2021-07-10T07:04:18</time>
      </trkpt>
      <trkpt lat="44.72169" lon="4.86222">
        <ele>361</ele>
        <time>2021-07-10T07:04:19</time>
      </trkpt>
      <trkpt lat="44.72167" lon="4.86222">
        <ele>361</ele>
        <time>2021-07-10T07:04:20</time>
      </trkpt>
      <trkpt lat="44.72164" lon="4.86224">
        <ele>361.2</ele>
        <time>2021-07-10T07:04:21</time>
      </trkpt>
      <trkpt lat="44.72162" lon="4.86226">
        <ele>361.4</ele>
        <time>2021-07-10T07:04:22</time>
      </trkpt>
      <trkpt lat="44.72159" lon="4.86226">
        <ele>361.4</ele>
        <time>2021-07-10T07:04:23</time>
      </trkpt>
      <trkpt lat="44.72158" lon="4.86225">
        <ele>361.6</ele>
        <time>2021-07-10T07:04:24</time>
      </trkpt>
      <trkpt lat="44.72158" lon="4.86225">
        <ele>361.8</ele>
        <time>2021-07-10T07:04:25</time>
      </trkpt>
      <trkpt lat="44.72158" lon="4.86224">
        <ele>361.8</ele>
        <time>2021-07-10T07:04:26</time>
      </trkpt>
      <trkpt lat="44.72157" lon="4.86223">
        <ele>362</ele>
        <time>2021-07-10T07:04:27</time>
      </trkpt>
      <trkpt lat="44.72155" lon="4.86227">
        <ele>362</ele>
        <time>2021-07-10T07:04:28</time>
      </trkpt>
      <trkpt lat="44.72153" lon="4.86225">
        <ele>362.2</ele>
        <time>2021-07-10T07:04:29</time>
      </trkpt>
      <trkpt lat="44.72154" lon="4.86223">
        <ele>362.2</ele>
        <time>2021-07-10T07:04:30</time>
      </trkpt>
      <trkpt lat="44.72152" lon="4.86223">
        <ele>362.4</ele>
        <time>2021-07-10T07:04:31</time>
      </trkpt>
      <trkpt lat="44.72149" lon="4.86222">
        <ele>362.6</ele>
        <time>2021-07-10T07:04:32</time>
      </trkpt>
      <trkpt lat="44.72149" lon="4.86223">
        <ele>362.8</ele>
        <time>2021-07-10T07:04:33</time>
      </trkpt>
      <trkpt lat="44.72147" lon="4.86224">
        <ele>363</ele>
        <time>2021-07-10T07:04:34</time>
      </trkpt>
      <trkpt lat="44.72145" lon="4.86224">
        <ele>363</ele>
        <time>2021-07-10T07:04:35</time>
      </trkpt>
      <trkpt lat="44.72145" lon="4.86223">
        <ele>363.2</ele>
        <time>2021-07-10T07:04:36</time>
      </trkpt>
      <trkpt lat="44.72143" lon="4.86225">
        <ele>363.4</ele>
        <time>2021-07-10T07:04:37</time>
      </trkpt>
      <trkpt lat="44.72143" lon="4.86222">
        <ele>363.6</ele>
        <time>2021-07-10T07:04:38</time>
      </trkpt>
      <trkpt lat="44.7214" lon="4.86223">
        <ele>363.8</ele>
        <time>2021-07-10T07:04:39</time>
      </trkpt>
      <trkpt lat="44.7214" lon="4.86223">
        <ele>363.8</ele>
        <time>2021-07-10T07:04:40</time>
      </trkpt>
      <trkpt lat="44.72138" lon="4.86222">
        <ele>364</ele>
        <time>2021-07-10T07:04:41</time>
      </trkpt>
      <trkpt lat="44.72136" lon="4.86221">
        <ele>364.2</ele>
        <time>2021-07-10T07:04:42</time>
      </trkpt>
      <trkpt lat="44.72137" lon="4.86222">
        <ele>364.4</ele>
        <time>2021-07-10T07:04:43</time>
      </trkpt>
      <trkpt lat="44.72137" lon="4.86222">
        <ele>364.4</ele>
        <time>2021-07-10T07:04:44</time>
      </trkpt>
      <trkpt lat="44.72136" lon="4.86222">
        <ele>364.6</ele>
        <time>2021-07-10T07:04:45</time>
      </trkpt>
      <trkpt lat="44.72136" lon="4.86222">
        <ele>364.6</ele>
        <time>2021-07-10T07:04:46</time>
      </trkpt>
      <trkpt lat="44.72133" lon="4.86224">
        <ele>364.8</ele>
        <time>2021-07-10T07:04:47</time>
      </trkpt>
      <trkpt lat="44.72131" lon="4.86224">
        <ele>365</ele>
        <time>2021-07-10T07:04:48</time>
      </trkpt>
      <trkpt lat="44.72128" lon="4.86221">
        <ele>365.2</ele>
        <time>2021-07-10T07:04:49</time>
      </trkpt>
      <trkpt lat="44.72128" lon="4.86221">
        <ele>365.4</ele>
        <time>2021-07-10T07:04:50</time>
      </trkpt>
      <trkpt lat="44.72126" lon="4.86219">
        <ele>365.6</ele>
        <time>2021-07-10T07:04:51</time>
      </trkpt>
      <trkpt lat="44.72127" lon="4.86218">
        <ele>365.8</ele>
        <time>2021-07-10T07:04:52</time>
      </trkpt>
      <trkpt lat="44.72123" lon="4.86219">
        <ele>365.8</ele>
        <time>2021-07-10T07:04:53</time>
      </trkpt>
      <trkpt lat="44.72123" lon="4.86219">
        <ele>366</ele>
        <time>2021-07-10T07:04:54</time>
      </trkpt>
      <trkpt lat="44.72121" lon="4.86222">
        <ele>366.2</ele>
        <time>2021-07-10T07:04:55</time>
      </trkpt>
      <trkpt lat="44.72121" lon="4.8622">
        <ele>366.4</ele>
        <time>2021-07-10T07:04:56</time>
      </trkpt>
      <trkpt lat="44.72116" lon="4.86219">
        <ele>366.6</ele>
        <time>2021-07-10T07:04:57</time>
      </trkpt>
      <trkpt lat="44.72116" lon="4.86219">
        <ele>366.8</ele>
        <time>2021-07-10T07:04:58</time>
      </trkpt>
      <trkpt lat="44.72114" lon="4.8622">
        <ele>366.8</ele>
        <time>2021-07-10T07:04:59</time>
      </trkpt>
      <trkpt lat="44.72111" lon="4.86223">
        <ele>367</ele>
        <time>2021-07-10T07:05:00</time>
      </trkpt>
      <trkpt lat="44.72108" lon="4.86224">
        <ele>367.2</ele>
        <time>2021-07-10T07:05:01</time>
      </trkpt>
      <trkpt lat="44.72108" lon="4.86224">
        <ele>367.4</ele>
        <time>2021-07-10T07:05:02</time>
      </trkpt>
      <trkpt lat="44.72106" lon="4.86226">
        <ele>367.6</ele>
        <time>2021-07-10T07:05:03</time>
      </trkpt>
      <trkpt lat="44.72103" lon="4.86228">
        <ele>367.8</ele>
        <time>2021-07-10T07:05:04</time>
      </trkpt>
      <trkpt lat="44.72102" lon="4.86228">
        <ele>367.8</ele>
        <time>2021-07-10T07:05:05</time>
      </trkpt>
      <trkpt lat="44.72103" lon="4.86227">
        <ele>368</ele>
        <time>2021-07-10T07:05:06</time>
      </trkpt>
      <trkpt lat="44.721" lon="4.86227">
        <ele>368.2</ele>
        <time>2021-07-10T07:05:07</time>
      </trkpt>
      <trkpt lat="44.721" lon="4.86227">
        <ele>368.4</ele>
        <time>2021-07-10T07:05:08</time>
      </trkpt>
      <trkpt lat="44.72099" lon="4.86228">
        <ele>368.6</ele>
        <time>2021-07-10T07:05:09</time>
      </trkpt>
      <trkpt lat="44.72096" lon="4.8623">
        <ele>368.8</ele>
        <time>2021-07-10T07:05:10</time>
      </trkpt>
      <trkpt lat="44.72096" lon="4.86229">
        <ele>369</ele>
        <time>2021-07-10T07:05:11</time>
      </trkpt>
      <trkpt lat="44.72094" lon="4.86228">
        <ele>369</ele>
        <time>2021-07-10T07:05:12</time>
      </trkpt>
      <trkpt lat="44.72094" lon="4.86228">
        <ele>369.2</ele>
        <time>2021-07-10T07:05:13</time>
      </trkpt>
      <trkpt lat="44.72089" lon="4.86228">
        <ele>369.4</ele>
        <time>2021-07-10T07:05:14</time>
      </trkpt>
      <trkpt lat="44.72089" lon="4.86228">
        <ele>369.6</ele>
        <time>2021-07-10T07:05:15</time>
      </trkpt>
      <trkpt lat="44.72087" lon="4.86226">
        <ele>369.8</ele>
        <time>2021-07-10T07:05:16</time>
      </trkpt>
      <trkpt lat="44.72085" lon="4.86227">
        <ele>370</ele>
        <time>2021-07-10T07:05:17</time>
      </trkpt>
      <trkpt lat="44.72083" lon="4.86228">
        <ele>370.2</ele>
        <time>2021-07-10T07:05:18</time>
      </trkpt>
      <trkpt lat="44.72084" lon="4.86228">
        <ele>370.2</ele>
        <time>2021-07-10T07:05:19</time>
      </trkpt>
      <trkpt lat="44.72081" lon="4.8623">
        <ele>370.4</ele>
        <time>2021-07-10T07:05:20</time>
      </trkpt>
      <trkpt lat="44.72081" lon="4.86231">
        <ele>370.6</ele>
        <time>2021-07-10T07:05:21</time>
      </trkpt>
      <trkpt lat="44.72079" lon="4.86231">
        <ele>370.8</ele>
        <time>2021-07-10T07:05:22</time>
      </trkpt>
      <trkpt lat="44.72076" lon="4.86233">
        <ele>371</ele>
        <time>2021-07-10T07:05:23</time>
      </trkpt>
      <trkpt lat="44.72073" lon="4.86234">
        <ele>371.2</ele>
        <time>2021-07-10T07:05:24</time>
      </trkpt>
      <trkpt lat="44.72069" lon="4.86234">
        <ele>371.4</ele>
        <time>2021-07-10T07:05:25</time>
      </trkpt>
      <trkpt lat="44.72067" lon="4.86235">
        <ele>371.4</ele>
        <time>2021-07-10T07:05:26</time>
      </trkpt>
      <trkpt lat="44.72066" lon="4.86233">
        <ele>371.6</ele>
        <time>2021-07-10T07:05:27</time>
      </trkpt>
      <trkpt lat="44.72064" lon="4.86232">
        <ele>371.8</ele>
        <time>2021-07-10T07:05:28</time>
      </trkpt>
      <trkpt lat="44.72062" lon="4.86231">
        <ele>372</ele>
        <time>2021-07-10T07:05:29</time>
      </trkpt>
      <trkpt lat="44.72062" lon="4.86234">
        <ele>372</ele>
        <time>2021-07-10T07:05:30</time>
      </trkpt>
      <trkpt lat="44.72059" lon="4.86234">
        <ele>372.2</ele>
        <time>2021-07-10T07:05:31</time>
      </trkpt>
      <trkpt lat="44.72058" lon="4.86232">
        <ele>372.4</ele>
        <time>2021-07-10T07:05:32</time>
      </trkpt>
      <trkpt lat="44.72056" lon="4.86232">
        <ele>372.6</ele>
        <time>2021-07-10T07:05:33</time>
      </trkpt>
      <trkpt lat="44.72054" lon="4.86232">
        <ele>372.8</ele>
        <time>2021-07-10T07:05:34</time>
      </trkpt>
      <trkpt lat="44.72052" lon="4.86232">
        <ele>372.8</ele>
        <time>2021-07-10T07:05:35</time>
      </trkpt>
      <trkpt lat="44.72049" lon="4.86233">
        <ele>373</ele>
        <time>2021-07-10T07:05:36</time>
      </trkpt>
      <trkpt lat="44.72049" lon="4.86233">
        <ele>373</ele>
        <time>2021-07-10T07:05:37</time>
      </trkpt>
      <trkpt lat="44.72047" lon="4.86232">
        <ele>373.2</ele>
        <time>2021-07-10T07:05:38</time>
      </trkpt>
      <trkpt lat="44.72047" lon="4.86233">
        <ele>373.4</ele>
        <time>2021-07-10T07:05:39</time>
      </trkpt>
      <trkpt lat="44.72045" lon="4.86231">
        <ele>373.6</ele>
        <time>2021-07-10T07:05:40</time>
      </trkpt>
      <trkpt lat="44.72045" lon="4.86231">
        <ele>373.8</ele>
        <time>2021-07-10T07:05:41</time>
      </trkpt>
      <trkpt lat="44.72044" lon="4.86234">
        <ele>373.8</ele>
        <time>2021-07-10T07:05:42</time>
      </trkpt>
      <trkpt lat="44.72043" lon="4.86233">
        <ele>374</ele>
        <time>2021-07-10T07:05:43</time>
      </trkpt>
      <trkpt lat="44.72039" lon="4.86234">
        <ele>374</ele>
        <time>2021-07-10T07:05:44</time>
      </trkpt>
      <trkpt lat="44.72039" lon="4.86234">
        <ele>374.2</ele>
        <time>2021-07-10T07:05:45</time>
      </trkpt>
      <trkpt lat="44.72038" lon="4.86233">
        <ele>374.4</ele>
        <time>2021-07-10T07:05:46</time>
      </trkpt>
      <trkpt lat="44.72037" lon="4.86232">
        <ele>374.6</ele>
        <time>2021-07-10T07:05:47</time>
      </trkpt>
      <trkpt lat="44.72034" lon="4.86234">
        <ele>374.6</ele>
        <time>2021-07-10T07:05:48</time>
      </trkpt>
      <trkpt lat="44.7203" lon="4.86234">
        <ele>374.6</ele>
        <time>2021-07-10T07:05:49</time>
      </trkpt>
      <trkpt lat="44.7203" lon="4.86234">
        <ele>374.8</ele>
        <time>2021-07-10T07:05:50</time>
      </trkpt>
      <trkpt lat="44.72028" lon="4.86234">
        <ele>375</ele>
        <time>2021-07-10T07:05:51</time>
      </trkpt>
      <trkpt lat="44.72024" lon="4.86236">
        <ele>375</ele>
        <time>2021-07-10T07:05:52</time>
      </trkpt>
      <trkpt lat="44.72024" lon="4.86236">
        <ele>375.2</ele>
        <time>2021-07-10T07:05:53</time>
      </trkpt>
      <trkpt lat="44.72023" lon="4.86238">
        <ele>375.2</ele>
        <time>2021-07-10T07:05:54</time>
      </trkpt>
      <trkpt lat="44.7202" lon="4.86238">
        <ele>375.4</ele>
        <time>2021-07-10T07:05:55</time>
      </trkpt>
      <trkpt lat="44.7202" lon="4.86235">
        <ele>375.6</ele>
        <time>2021-07-10T07:05:56</time>
      </trkpt>
      <trkpt lat="44.72017" lon="4.86235">
        <ele>375.8</ele>
        <time>2021-07-10T07:05:57</time>
      </trkpt>
      <trkpt lat="44.72015" lon="4.86234">
        <ele>375.8</ele>
        <time>2021-07-10T07:05:58</time>
      </trkpt>
      <trkpt lat="44.72012" lon="4.86234">
        <ele>375.8</ele>
        <time>2021-07-10T07:05:59</time>
      </trkpt>
      <trkpt lat="44.72008" lon="4.86237">
        <ele>376</ele>
        <time>2021-07-10T07:06:00</time>
      </trkpt>
      <trkpt lat="44.72008" lon="4.86237">
        <ele>376</ele>
        <time>2021-07-10T07:06:01</time>
      </trkpt>
      <trkpt lat="44.72007" lon="4.86238">
        <ele>376.2</ele>
        <time>2021-07-10T07:06:02</time>
      </trkpt>
      <trkpt lat="44.72006" lon="4.86237">
        <ele>376.2</ele>
        <time>2021-07-10T07:06:03</time>
      </trkpt>
      <trkpt lat="44.72004" lon="4.86237">
        <ele>376.4</ele>
        <time>2021-07-10T07:06:04</time>
      </trkpt>
      <trkpt lat="44.72004" lon="4.86235">
        <ele>376.4</ele>
        <time>2021-07-10T07:06:05</time>
      </trkpt>
      <trkpt lat="44.72002" lon="4.86236">
        <ele>376.6</ele>
        <time>2021-07-10T07:06:06</time>
      </trkpt>
      <trkpt lat="44.72001" lon="4.86236">
        <ele>376.6</ele>
        <time>2021-07-10T07:06:07</time>
      </trkpt>
      <trkpt lat="44.71997" lon="4.86238">
        <ele>376.8</ele>
        <time>2021-07-10T07:06:08</time>
      </trkpt>
      <trkpt lat="44.71996" lon="4.86239">
        <ele>376.8</ele>
        <time>2021-07-10T07:06:09</time>
      </trkpt>
      <trkpt lat="44.71995" lon="4.86239">
        <ele>377</ele>
        <time>2021-07-10T07:06:10</time>
      </trkpt>
      <trkpt lat="44.71993" lon="4.8624">
        <ele>377</ele>
        <time>2021-07-10T07:06:11</time>
      </trkpt>
      <trkpt lat="44.71992" lon="4.86239">
        <ele>377.2</ele>
        <time>2021-07-10T07:06:12</time>
      </trkpt>
      <trkpt lat="44.71989" lon="4.86239">
        <ele>377.2</ele>
        <time>2021-07-10T07:06:13</time>
      </trkpt>
      <trkpt lat="44.71987" lon="4.86238">
        <ele>377.4</ele>
        <time>2021-07-10T07:06:14</time>
      </trkpt>
      <trkpt lat="44.71985" lon="4.86238">
        <ele>377.4</ele>
        <time>2021-07-10T07:06:15</time>
      </trkpt>
      <trkpt lat="44.71983" lon="4.86239">
        <ele>377.6</ele>
        <time>2021-07-10T07:06:16</time>
      </trkpt>
      <trkpt lat="44.71982" lon="4.86239">
        <ele>377.6</ele>
        <time>2021-07-10T07:06:17</time>
      </trkpt>
      <trkpt lat="44.71981" lon="4.86239">
        <ele>377.6</ele>
        <time>2021-07-10T07:06:18</time>
      </trkpt>
      <trkpt lat="44.71979" lon="4.8624">
        <ele>377.8</ele>
        <time>2021-07-10T07:06:19</time>
      </trkpt>
      <trkpt lat="44.71977" lon="4.86242">
        <ele>377.8</ele>
        <time>2021-07-10T07:06:20</time>
      </trkpt>
      <trkpt lat="44.71975" lon="4.86241">
        <ele>377.8</ele>
        <time>2021-07-10T07:06:21</time>
      </trkpt>
      <trkpt lat="44.71972" lon="4.86242">
        <ele>378</ele>
        <time>2021-07-10T07:06:22</time>
      </trkpt>
      <trkpt lat="44.71972" lon="4.86242">
        <ele>378</ele>
        <time>2021-07-10T07:06:23</time>
      </trkpt>
      <trkpt lat="44.7197" lon="4.86241">
        <ele>378</ele>
        <time>2021-07-10T07:06:24</time>
      </trkpt>
      <trkpt lat="44.7197" lon="4.86239">
        <ele>378</ele>
        <time>2021-07-10T07:06:25</time>
      </trkpt>
      <trkpt lat="44.71968" lon="4.86239">
        <ele>378.2</ele>
        <time>2021-07-10T07:06:26</time>
      </trkpt>
      <trkpt lat="44.71965" lon="4.8624">
        <ele>378.2</ele>
        <time>2021-07-10T07:06:27</time>
      </trkpt>
      <trkpt lat="44.71965" lon="4.8624">
        <ele>378.4</ele>
        <time>2021-07-10T07:06:28</time>
      </trkpt>
      <trkpt lat="44.71963" lon="4.8624">
        <ele>378.4</ele>
        <time>2021-07-10T07:06:29</time>
      </trkpt>
      <trkpt lat="44.71961" lon="4.86241">
        <ele>378.4</ele>
        <time>2021-07-10T07:06:30</time>
      </trkpt>
      <trkpt lat="44.71957" lon="4.86242">
        <ele>378.4</ele>
        <time>2021-07-10T07:06:31</time>
      </trkpt>
      <trkpt lat="44.71957" lon="4.86242">
        <ele>378.6</ele>
        <time>2021-07-10T07:06:32</time>
      </trkpt>
      <trkpt lat="44.71955" lon="4.86243">
        <ele>378.6</ele>
        <time>2021-07-10T07:06:33</time>
      </trkpt>
      <trkpt lat="44.71953" lon="4.86243">
        <ele>378.8</ele>
        <time>2021-07-10T07:06:34</time>
      </trkpt>
      <trkpt lat="44.71953" lon="4.86243">
        <ele>379</ele>
        <time>2021-07-10T07:06:35</time>
      </trkpt>
      <trkpt lat="44.71951" lon="4.86244">
        <ele>379.2</ele>
        <time>2021-07-10T07:06:36</time>
      </trkpt>
      <trkpt lat="44.7195" lon="4.86243">
        <ele>379.2</ele>
        <time>2021-07-10T07:06:37</time>
      </trkpt>
      <trkpt lat="44.71947" lon="4.86242">
        <ele>379.4</ele>
        <time>2021-07-10T07:06:38</time>
      </trkpt>
      <trkpt lat="44.71944" lon="4.86241">
        <ele>379.4</ele>
        <time>2021-07-10T07:06:39</time>
      </trkpt>
      <trkpt lat="44.71943" lon="4.8624">
        <ele>379.6</ele>
        <time>2021-07-10T07:06:40</time>
      </trkpt>
      <trkpt lat="44.7194" lon="4.8624">
        <ele>379.8</ele>
        <time>2021-07-10T07:06:41</time>
      </trkpt>
      <trkpt lat="44.71939" lon="4.86239">
        <ele>380</ele>
        <time>2021-07-10T07:06:42</time>
      </trkpt>
      <trkpt lat="44.71938" lon="4.86238">
        <ele>380.2</ele>
        <time>2021-07-10T07:06:43</time>
      </trkpt>
      <trkpt lat="44.71936" lon="4.86237">
        <ele>380.4</ele>
        <time>2021-07-10T07:06:44</time>
      </trkpt>
      <trkpt lat="44.71935" lon="4.86236">
        <ele>380.6</ele>
        <time>2021-07-10T07:06:45</time>
      </trkpt>
      <trkpt lat="44.71934" lon="4.86234">
        <ele>380.8</ele>
        <time>2021-07-10T07:06:46</time>
      </trkpt>
      <trkpt lat="44.71932" lon="4.86231">
        <ele>381</ele>
        <time>2021-07-10T07:06:47</time>
      </trkpt>
      <trkpt lat="44.71931" lon="4.86231">
        <ele>381.2</ele>
        <time>2021-07-10T07:06:48</time>
      </trkpt>
      <trkpt lat="44.7193" lon="4.86231">
        <ele>381.2</ele>
        <time>2021-07-10T07:06:49</time>
      </trkpt>
      <trkpt lat="44.71929" lon="4.86231">
        <ele>381.4</ele>
        <time>2021-07-10T07:06:50</time>
      </trkpt>
      <trkpt lat="44.71928" lon="4.86232">
        <ele>381.6</ele>
        <time>2021-07-10T07:06:51</time>
      </trkpt>
      <trkpt lat="44.71927" lon="4.86231">
        <ele>381.6</ele>
        <time>2021-07-10T07:06:52</time>
      </trkpt>
      <trkpt lat="44.71928" lon="4.86232">
        <ele>381.6</ele>
        <time>2021-07-10T07:06:53</time>
      </trkpt>
      <trkpt lat="44.71928" lon="4.86232">
        <ele>381.4</ele>
        <time>2021-07-10T07:06:54</time>
      </trkpt>
      <trkpt lat="44.71927" lon="4.86232">
        <ele>381.4</ele>
        <time>2021-07-10T07:06:55</time>
      </trkpt>
      <trkpt lat="44.71928" lon="4.86231">
        <ele>381.4</ele>
        <time>2021-07-10T07:06:56</time>
      </trkpt>
      <trkpt lat="44.71927" lon="4.8623">
        <ele>381.4</ele>
        <time>2021-07-10T07:06:57</time>
      </trkpt>
      <trkpt lat="44.71927" lon="4.8623">
        <ele>381.4</ele>
        <time>2021-07-10T07:06:58</time>
      </trkpt>
      <trkpt lat="44.71941" lon="4.86194">
        <ele>384.2</ele>
        <time>2021-07-10T07:07:22</time>
      </trkpt>
      <trkpt lat="44.7194" lon="4.86192">
        <ele>384.4</ele>
        <time>2021-07-10T07:07:23</time>
      </trkpt>
      <trkpt lat="44.71941" lon="4.8619">
        <ele>384.6</ele>
        <time>2021-07-10T07:07:24</time>
      </trkpt>
      <trkpt lat="44.71939" lon="4.86187">
        <ele>384.8</ele>
        <time>2021-07-10T07:07:25</time>
      </trkpt>
      <trkpt lat="44.71938" lon="4.86184">
        <ele>385</ele>
        <time>2021-07-10T07:07:26</time>
      </trkpt>
      <trkpt lat="44.7194" lon="4.86182">
        <ele>385.2</ele>
        <time>2021-07-10T07:07:27</time>
      </trkpt>
      <trkpt lat="44.71942" lon="4.8618">
        <ele>385.4</ele>
        <time>2021-07-10T07:07:28</time>
      </trkpt>
      <trkpt lat="44.71941" lon="4.86178">
        <ele>385.6</ele>
        <time>2021-07-10T07:07:29</time>
      </trkpt>
      <trkpt lat="44.71942" lon="4.86178">
        <ele>385.8</ele>
        <time>2021-07-10T07:07:30</time>
      </trkpt>
      <trkpt lat="44.71942" lon="4.86176">
        <ele>386</ele>
        <time>2021-07-10T07:07:31</time>
      </trkpt>
      <trkpt lat="44.71941" lon="4.86173">
        <ele>386.2</ele>
        <time>2021-07-10T07:07:32</time>
      </trkpt>
      <trkpt lat="44.71942" lon="4.86171">
        <ele>386.4</ele>
        <time>2021-07-10T07:07:33</time>
      </trkpt>
      <trkpt lat="44.71942" lon="4.86169">
        <ele>386.8</ele>
        <time>2021-07-10T07:07:34</time>
      </trkpt>
      <trkpt lat="44.71943" lon="4.86169">
        <ele>387</ele>
        <time>2021-07-10T07:07:35</time>
      </trkpt>
      <trkpt lat="44.71941" lon="4.86167">
        <ele>387.2</ele>
        <time>2021-07-10T07:07:36</time>
      </trkpt>
      <trkpt lat="44.71941" lon="4.86163">
        <ele>387.4</ele>
        <time>2021-07-10T07:07:37</time>
      </trkpt>
      <trkpt lat="44.7194" lon="4.8616">
        <ele>387.6</ele>
        <time>2021-07-10T07:07:38</time>
      </trkpt>
      <trkpt lat="44.71941" lon="4.86156">
        <ele>387.8</ele>
        <time>2021-07-10T07:07:39</time>
      </trkpt>
      <trkpt lat="44.71941" lon="4.86155">
        <ele>388</ele>
        <time>2021-07-10T07:07:40</time>
      </trkpt>
      <trkpt lat="44.71942" lon="4.86155">
        <ele>388.2</ele>
        <time>2021-07-10T07:07:41</time>
      </trkpt>
      <trkpt lat="44.71943" lon="4.86153">
        <ele>388.4</ele>
        <time>2021-07-10T07:07:42</time>
      </trkpt>
      <trkpt lat="44.71944" lon="4.8615">
        <ele>388.6</ele>
        <time>2021-07-10T07:07:43</time>
      </trkpt>
      <trkpt lat="44.71941" lon="4.86148">
        <ele>388.8</ele>
        <time>2021-07-10T07:07:44</time>
      </trkpt>
      <trkpt lat="44.71939" lon="4.86144">
        <ele>389</ele>
        <time>2021-07-10T07:07:45</time>
      </trkpt>
      <trkpt lat="44.71938" lon="4.86145">
        <ele>389.2</ele>
        <time>2021-07-10T07:07:46</time>
      </trkpt>
      <trkpt lat="44.71942" lon="4.86144">
        <ele>389.4</ele>
        <time>2021-07-10T07:07:47</time>
      </trkpt>
      <trkpt lat="44.71944" lon="4.86141">
        <ele>389.6</ele>
        <time>2021-07-10T07:07:48</time>
      </trkpt>
      <trkpt lat="44.71944" lon="4.86141">
        <ele>390</ele>
        <time>2021-07-10T07:07:49</time>
      </trkpt>
      <trkpt lat="44.71943" lon="4.86139">
        <ele>390.2</ele>
        <time>2021-07-10T07:07:50</time>
      </trkpt>
      <trkpt lat="44.71942" lon="4.86137">
        <ele>390.6</ele>
        <time>2021-07-10T07:07:51</time>
      </trkpt>
      <trkpt lat="44.71942" lon="4.86132">
        <ele>390.8</ele>
        <time>2021-07-10T07:07:52</time>
      </trkpt>
      <trkpt lat="44.71943" lon="4.8613">
        <ele>391.2</ele>
        <time>2021-07-10T07:07:53</time>
      </trkpt>
      <trkpt lat="44.71944" lon="4.86128">
        <ele>391.4</ele>
        <time>2021-07-10T07:07:54</time>
      </trkpt>
      <trkpt lat="44.71944" lon="4.86128">
        <ele>391.6</ele>
        <time>2021-07-10T07:07:55</time>
      </trkpt>
      <trkpt lat="44.71945" lon="4.86128">
        <ele>392</ele>
        <time>2021-07-10T07:07:56</time>
      </trkpt>
      <trkpt lat="44.71945" lon="4.86126">
        <ele>392.2</ele>
        <time>2021-07-10T07:07:57</time>
      </trkpt>
      <trkpt lat="44.71945" lon="4.86121">
        <ele>392.4</ele>
        <time>2021-07-10T07:07:58</time>
      </trkpt>
      <trkpt lat="44.71945" lon="4.86117">
        <ele>392.6</ele>
        <time>2021-07-10T07:07:59</time>
      </trkpt>
      <trkpt lat="44.71944" lon="4.86116">
        <ele>392.8</ele>
        <time>2021-07-10T07:08:00</time>
      </trkpt>
      <trkpt lat="44.71944" lon="4.86114">
        <ele>393</ele>
        <time>2021-07-10T07:08:01</time>
      </trkpt>
      <trkpt lat="44.71944" lon="4.86113">
        <ele>393.2</ele>
        <time>2021-07-10T07:08:02</time>
      </trkpt>
      <trkpt lat="44.71943" lon="4.86109">
        <ele>393.4</ele>
        <time>2021-07-10T07:08:03</time>
      </trkpt>
      <trkpt lat="44.71944" lon="4.8611">
        <ele>393.6</ele>
        <time>2021-07-10T07:08:04</time>
      </trkpt>
      <trkpt lat="44.71946" lon="4.8611">
        <ele>393.8</ele>
        <time>2021-07-10T07:08:05</time>
      </trkpt>
      <trkpt lat="44.71947" lon="4.86108">
        <ele>394</ele>
        <time>2021-07-10T07:08:06</time>
      </trkpt>
      <trkpt lat="44.71947" lon="4.86106">
        <ele>394.2</ele>
        <time>2021-07-10T07:08:07</time>
      </trkpt>
      <trkpt lat="44.71948" lon="4.86105">
        <ele>394.4</ele>
        <time>2021-07-10T07:08:08</time>
      </trkpt>
      <trkpt lat="44.71948" lon="4.86102">
        <ele>394.6</ele>
        <time>2021-07-10T07:08:09</time>
      </trkpt>
      <trkpt lat="44.71948" lon="4.86101">
        <ele>394.8</ele>
        <time>2021-07-10T07:08:10</time>
      </trkpt>
      <trkpt lat="44.71948" lon="4.86098">
        <ele>395</ele>
        <time>2021-07-10T07:08:11</time>
      </trkpt>
      <trkpt lat="44.71951" lon="4.86096">
        <ele>395.2</ele>
        <time>2021-07-10T07:08:12</time>
      </trkpt>
      <trkpt lat="44.71952" lon="4.86095">
        <ele>395.4</ele>
        <time>2021-07-10T07:08:13</time>
      </trkpt>
      <trkpt lat="44.71953" lon="4.86091">
        <ele>395.6</ele>
        <time>2021-07-10T07:08:14</time>
      </trkpt>
      <trkpt lat="44.71953" lon="4.86091">
        <ele>395.8</ele>
        <time>2021-07-10T07:08:15</time>
      </trkpt>
      <trkpt lat="44.71953" lon="4.86089">
        <ele>396</ele>
        <time>2021-07-10T07:08:16</time>
      </trkpt>
      <trkpt lat="44.71953" lon="4.86089">
        <ele>396.2</ele>
        <time>2021-07-10T07:08:17</time>
      </trkpt>
      <trkpt lat="44.71953" lon="4.86087">
        <ele>396.2</ele>
        <time>2021-07-10T07:08:18</time>
      </trkpt>
      <trkpt lat="44.71956" lon="4.86083">
        <ele>396.4</ele>
        <time>2021-07-10T07:08:19</time>
      </trkpt>
      <trkpt lat="44.71955" lon="4.86082">
        <ele>396.4</ele>
        <time>2021-07-10T07:08:20</time>
      </trkpt>
      <trkpt lat="44.71956" lon="4.86081">
        <ele>396.6</ele>
        <time>2021-07-10T07:08:21</time>
      </trkpt>
      <trkpt lat="44.71958" lon="4.86078">
        <ele>396.6</ele>
        <time>2021-07-10T07:08:22</time>
      </trkpt>
      <trkpt lat="44.71958" lon="4.86078">
        <ele>396.8</ele>
        <time>2021-07-10T07:08:23</time>
      </trkpt>
      <trkpt lat="44.71959" lon="4.86078">
        <ele>396.8</ele>
        <time>2021-07-10T07:08:24</time>
      </trkpt>
      <trkpt lat="44.7196" lon="4.86077">
        <ele>396.8</ele>
        <time>2021-07-10T07:08:25</time>
      </trkpt>
      <trkpt lat="44.71961" lon="4.86078">
        <ele>396.8</ele>
        <time>2021-07-10T07:08:26</time>
      </trkpt>
      <trkpt lat="44.71962" lon="4.86081">
        <ele>397</ele>
        <time>2021-07-10T07:08:27</time>
      </trkpt>
      <trkpt lat="44.71962" lon="4.86081">
        <ele>397</ele>
        <time>2021-07-10T07:08:28</time>
      </trkpt>
      <trkpt lat="44.71962" lon="4.86079">
        <ele>397.2</ele>
        <time>2021-07-10T07:08:29</time>
      </trkpt>
      <trkpt lat="44.7196" lon="4.8608">
        <ele>397.2</ele>
        <time>2021-07-10T07:08:30</time>
      </trkpt>
      <trkpt lat="44.71946" lon="4.86069">
        <ele>400.4</ele>
        <time>2021-07-10T07:12:01</time>
      </trkpt>
      <trkpt lat="44.71944" lon="4.86067">
        <ele>400.6</ele>
        <time>2021-07-10T07:12:02</time>
      </trkpt>
      <trkpt lat="44.71942" lon="4.86067">
        <ele>400.8</ele>
        <time>2021-07-10T07:12:03</time>
      </trkpt>
      <trkpt lat="44.71938" lon="4.86068">
        <ele>401.2</ele>
        <time>2021-07-10T07:12:04</time>
      </trkpt>
      <trkpt lat="44.71938" lon="4.86068">
        <ele>401.4</ele>
        <time>2021-07-10T07:12:05</time>
      </trkpt>
      <trkpt lat="44.71936" lon="4.86066">
        <ele>401.6</ele>
        <time>2021-07-10T07:12:06</time>
      </trkpt>
      <trkpt lat="44.71927" lon="4.86062">
        <ele>403.8</ele>
        <time>2021-07-10T07:12:13</time>
      </trkpt>
      <trkpt lat="44.71924" lon="4.86058">
        <ele>404.2</ele>
        <time>2021-07-10T07:12:14</time>
      </trkpt>
      <trkpt lat="44.71924" lon="4.86058">
        <ele>404.4</ele>
        <time>2021-07-10T07:12:15</time>
      </trkpt>
      <trkpt lat="44.71923" lon="4.86057">
        <ele>404.6</ele>
        <time>2021-07-10T07:12:16</time>
      </trkpt>
      <trkpt lat="44.71922" lon="4.86056">
        <ele>404.8</ele>
        <time>2021-07-10T07:12:17</time>
      </trkpt>
      <trkpt lat="44.71922" lon="4.86056">
        <ele>405</ele>
        <time>2021-07-10T07:12:18</time>
      </trkpt>
      <trkpt lat="44.7192" lon="4.86056">
        <ele>405.4</ele>
        <time>2021-07-10T07:12:19</time>
      </trkpt>
      <trkpt lat="44.71922" lon="4.86048">
        <ele>405.6</ele>
        <time>2021-07-10T07:12:20</time>
      </trkpt>
      <trkpt lat="44.71922" lon="4.86048">
        <ele>405.8</ele>
        <time>2021-07-10T07:12:21</time>
      </trkpt>
      <trkpt lat="44.71922" lon="4.86045">
        <ele>406</ele>
        <time>2021-07-10T07:12:22</time>
      </trkpt>
      <trkpt lat="44.71922" lon="4.86045">
        <ele>406.2</ele>
        <time>2021-07-10T07:12:23</time>
      </trkpt>
      <trkpt lat="44.7192" lon="4.86045">
        <ele>406.4</ele>
        <time>2021-07-10T07:12:24</time>
      </trkpt>
      <trkpt lat="44.71919" lon="4.86043">
        <ele>406.6</ele>
        <time>2021-07-10T07:12:25</time>
      </trkpt>
      <trkpt lat="44.71916" lon="4.86042">
        <ele>406.8</ele>
        <time>2021-07-10T07:12:26</time>
      </trkpt>
      <trkpt lat="44.71914" lon="4.86038">
        <ele>407</ele>
        <time>2021-07-10T07:12:27</time>
      </trkpt>
      <trkpt lat="44.71914" lon="4.86038">
        <ele>407.2</ele>
        <time>2021-07-10T07:12:28</time>
      </trkpt>
      <trkpt lat="44.71915" lon="4.86038">
        <ele>407.4</ele>
        <time>2021-07-10T07:12:29</time>
      </trkpt>
      <trkpt lat="44.71913" lon="4.86035">
        <ele>407.6</ele>
        <time>2021-07-10T07:12:30</time>
      </trkpt>
      <trkpt lat="44.71912" lon="4.86034">
        <ele>407.8</ele>
        <time>2021-07-10T07:12:31</time>
      </trkpt>
      <trkpt lat="44.71912" lon="4.86033">
        <ele>408</ele>
        <time>2021-07-10T07:12:32</time>
      </trkpt>
      <trkpt lat="44.71911" lon="4.86029">
        <ele>408.2</ele>
        <time>2021-07-10T07:12:33</time>
      </trkpt>
      <trkpt lat="44.71911" lon="4.86026">
        <ele>408.6</ele>
        <time>2021-07-10T07:12:34</time>
      </trkpt>
      <trkpt lat="44.71911" lon="4.86026">
        <ele>408.8</ele>
        <time>2021-07-10T07:12:35</time>
      </trkpt>
      <trkpt lat="44.7191" lon="4.86025">
        <ele>409</ele>
        <time>2021-07-10T07:12:36</time>
      </trkpt>
      <trkpt lat="44.71909" lon="4.86026">
        <ele>409.2</ele>
        <time>2021-07-10T07:12:37</time>
      </trkpt>
      <trkpt lat="44.7191" lon="4.86025">
        <ele>409.4</ele>
        <time>2021-07-10T07:12:38</time>
      </trkpt>
      <trkpt lat="44.71909" lon="4.86023">
        <ele>409.6</ele>
        <time>2021-07-10T07:12:39</time>
      </trkpt>
      <trkpt lat="44.71907" lon="4.86021">
        <ele>409.8</ele>
        <time>2021-07-10T07:12:40</time>
      </trkpt>
      <trkpt lat="44.71904" lon="4.86019">
        <ele>410.2</ele>
        <time>2021-07-10T07:12:41</time>
      </trkpt>
      <trkpt lat="44.71905" lon="4.86018">
        <ele>410.4</ele>
        <time>2021-07-10T07:12:42</time>
      </trkpt>
      <trkpt lat="44.71904" lon="4.86017">
        <ele>410.6</ele>
        <time>2021-07-10T07:12:43</time>
      </trkpt>
      <trkpt lat="44.71903" lon="4.86014">
        <ele>410.8</ele>
        <time>2021-07-10T07:12:44</time>
      </trkpt>
      <trkpt lat="44.71903" lon="4.86011">
        <ele>411</ele>
        <time>2021-07-10T07:12:45</time>
      </trkpt>
      <trkpt lat="44.71904" lon="4.86008">
        <ele>411.2</ele>
        <time>2021-07-10T07:12:46</time>
      </trkpt>
      <trkpt lat="44.71902" lon="4.86001">
        <ele>411.2</ele>
        <time>2021-07-10T07:12:47</time>
      </trkpt>
      <trkpt lat="44.71902" lon="4.86001">
        <ele>411.4</ele>
        <time>2021-07-10T07:12:48</time>
      </trkpt>
      <trkpt lat="44.71901" lon="4.86">
        <ele>411.6</ele>
        <time>2021-07-10T07:12:49</time>
      </trkpt>
      <trkpt lat="44.71898" lon="4.86001">
        <ele>411.8</ele>
        <time>2021-07-10T07:12:50</time>
      </trkpt>
      <trkpt lat="44.71898" lon="4.85999">
        <ele>412</ele>
        <time>2021-07-10T07:12:51</time>
      </trkpt>
      <trkpt lat="44.71897" lon="4.85998">
        <ele>412.4</ele>
        <time>2021-07-10T07:12:52</time>
      </trkpt>
      <trkpt lat="44.71897" lon="4.85998">
        <ele>412.6</ele>
        <time>2021-07-10T07:12:53</time>
      </trkpt>
      <trkpt lat="44.71894" lon="4.85994">
        <ele>412.8</ele>
        <time>2021-07-10T07:12:54</time>
      </trkpt>
      <trkpt lat="44.71894" lon="4.85994">
        <ele>412.8</ele>
        <time>2021-07-10T07:12:55</time>
      </trkpt>
      <trkpt lat="44.71893" lon="4.85993">
        <ele>413</ele>
        <time>2021-07-10T07:12:56</time>
      </trkpt>
      <trkpt lat="44.71892" lon="4.8599">
        <ele>413</ele>
        <time>2021-07-10T07:12:57</time>
      </trkpt>
      <trkpt lat="44.71892" lon="4.8599">
        <ele>413.2</ele>
        <time>2021-07-10T07:12:58</time>
      </trkpt>
      <trkpt lat="44.71891" lon="4.85986">
        <ele>413.4</ele>
        <time>2021-07-10T07:12:59</time>
      </trkpt>
      <trkpt lat="44.71888" lon="4.85986">
        <ele>413.6</ele>
        <time>2021-07-10T07:13:00</time>
      </trkpt>
      <trkpt lat="44.71886" lon="4.85984">
        <ele>413.8</ele>
        <time>2021-07-10T07:13:01</time>
      </trkpt>
      <trkpt lat="44.71884" lon="4.85984">
        <ele>414</ele>
        <time>2021-07-10T07:13:02</time>
      </trkpt>
      <trkpt lat="44.71884" lon="4.85984">
        <ele>414.2</ele>
        <time>2021-07-10T07:13:03</time>
      </trkpt>
      <trkpt lat="44.71883" lon="4.85982">
        <ele>414.4</ele>
        <time>2021-07-10T07:13:04</time>
      </trkpt>
      <trkpt lat="44.71883" lon="4.85981">
        <ele>414.4</ele>
        <time>2021-07-10T07:13:05</time>
      </trkpt>
      <trkpt lat="44.71883" lon="4.85979">
        <ele>414.6</ele>
        <time>2021-07-10T07:13:06</time>
      </trkpt>
      <trkpt lat="44.71882" lon="4.85977">
        <ele>414.8</ele>
        <time>2021-07-10T07:13:07</time>
      </trkpt>
      <trkpt lat="44.71882" lon="4.85977">
        <ele>415</ele>
        <time>2021-07-10T07:13:08</time>
      </trkpt>
      <trkpt lat="44.71881" lon="4.8597">
        <ele>415.2</ele>
        <time>2021-07-10T07:13:09</time>
      </trkpt>
      <trkpt lat="44.71879" lon="4.85969">
        <ele>415.4</ele>
        <time>2021-07-10T07:13:10</time>
      </trkpt>
      <trkpt lat="44.71877" lon="4.85968">
        <ele>415.4</ele>
        <time>2021-07-10T07:13:11</time>
      </trkpt>
      <trkpt lat="44.71875" lon="4.85968">
        <ele>415.6</ele>
        <time>2021-07-10T07:13:12</time>
      </trkpt>
      <trkpt lat="44.71874" lon="4.85966">
        <ele>415.8</ele>
        <time>2021-07-10T07:13:13</time>
      </trkpt>
      <trkpt lat="44.71873" lon="4.85964">
        <ele>416</ele>
        <time>2021-07-10T07:13:14</time>
      </trkpt>
      <trkpt lat="44.71873" lon="4.85964">
        <ele>416.2</ele>
        <time>2021-07-10T07:13:15</time>
      </trkpt>
      <trkpt lat="44.71872" lon="4.85964">
        <ele>416.4</ele>
        <time>2021-07-10T07:13:16</time>
      </trkpt>
      <trkpt lat="44.71871" lon="4.85964">
        <ele>416.6</ele>
        <time>2021-07-10T07:13:17</time>
      </trkpt>
      <trkpt lat="44.7187" lon="4.85962">
        <ele>416.8</ele>
        <time>2021-07-10T07:13:18</time>
      </trkpt>
      <trkpt lat="44.71868" lon="4.8596">
        <ele>417</ele>
        <time>2021-07-10T07:13:19</time>
      </trkpt>
      <trkpt lat="44.71869" lon="4.85955">
        <ele>417.2</ele>
        <time>2021-07-10T07:13:20</time>
      </trkpt>
      <trkpt lat="44.71869" lon="4.85955">
        <ele>417.2</ele>
        <time>2021-07-10T07:13:21</time>
      </trkpt>
      <trkpt lat="44.7187" lon="4.85953">
        <ele>417.4</ele>
        <time>2021-07-10T07:13:22</time>
      </trkpt>
      <trkpt lat="44.71868" lon="4.85952">
        <ele>417.6</ele>
        <time>2021-07-10T07:13:23</time>
      </trkpt>
      <trkpt lat="44.71865" lon="4.85951">
        <ele>417.8</ele>
        <time>2021-07-10T07:13:24</time>
      </trkpt>
      <trkpt lat="44.71866" lon="4.8595">
        <ele>418</ele>
        <time>2021-07-10T07:13:25</time>
      </trkpt>
      <trkpt lat="44.71866" lon="4.85946">
        <ele>418.2</ele>
        <time>2021-07-10T07:13:26</time>
      </trkpt>
      <trkpt lat="44.71865" lon="4.85942">
        <ele>418.4</ele>
        <time>2021-07-10T07:13:27</time>
      </trkpt>
      <trkpt lat="44.71865" lon="4.85942">
        <ele>418.8</ele>
        <time>2021-07-10T07:13:28</time>
      </trkpt>
      <trkpt lat="44.71865" lon="4.85941">
        <ele>419</ele>
        <time>2021-07-10T07:13:29</time>
      </trkpt>
      <trkpt lat="44.71863" lon="4.8594">
        <ele>419.2</ele>
        <time>2021-07-10T07:13:30</time>
      </trkpt>
      <trkpt lat="44.71862" lon="4.85938">
        <ele>419.4</ele>
        <time>2021-07-10T07:13:31</time>
      </trkpt>
      <trkpt lat="44.71861" lon="4.85936">
        <ele>419.6</ele>
        <time>2021-07-10T07:13:32</time>
      </trkpt>
      <trkpt lat="44.7186" lon="4.85933">
        <ele>419.8</ele>
        <time>2021-07-10T07:13:33</time>
      </trkpt>
      <trkpt lat="44.71859" lon="4.85929">
        <ele>419.8</ele>
        <time>2021-07-10T07:13:34</time>
      </trkpt>
      <trkpt lat="44.71859" lon="4.85929">
        <ele>420</ele>
        <time>2021-07-10T07:13:35</time>
      </trkpt>
      <trkpt lat="44.71858" lon="4.85927">
        <ele>420</ele>
        <time>2021-07-10T07:13:36</time>
      </trkpt>
      <trkpt lat="44.71858" lon="4.85923">
        <ele>420.2</ele>
        <time>2021-07-10T07:13:37</time>
      </trkpt>
      <trkpt lat="44.71859" lon="4.85922">
        <ele>420.4</ele>
        <time>2021-07-10T07:13:38</time>
      </trkpt>
      <trkpt lat="44.71859" lon="4.85921">
        <ele>420.6</ele>
        <time>2021-07-10T07:13:39</time>
      </trkpt>
      <trkpt lat="44.71856" lon="4.85916">
        <ele>420.8</ele>
        <time>2021-07-10T07:13:40</time>
      </trkpt>
      <trkpt lat="44.71856" lon="4.85916">
        <ele>421.2</ele>
        <time>2021-07-10T07:13:41</time>
      </trkpt>
      <trkpt lat="44.71854" lon="4.85914">
        <ele>421.4</ele>
        <time>2021-07-10T07:13:42</time>
      </trkpt>
      <trkpt lat="44.71852" lon="4.85913">
        <ele>421.6</ele>
        <time>2021-07-10T07:13:43</time>
      </trkpt>
      <trkpt lat="44.71852" lon="4.85914">
        <ele>421.6</ele>
        <time>2021-07-10T07:13:44</time>
      </trkpt>
      <trkpt lat="44.71851" lon="4.85915">
        <ele>421.8</ele>
        <time>2021-07-10T07:13:45</time>
      </trkpt>
      <trkpt lat="44.71849" lon="4.85914">
        <ele>421.8</ele>
        <time>2021-07-10T07:13:46</time>
      </trkpt>
      <trkpt lat="44.71848" lon="4.8591">
        <ele>422</ele>
        <time>2021-07-10T07:13:47</time>
      </trkpt>
      <trkpt lat="44.71848" lon="4.8591">
        <ele>422.2</ele>
        <time>2021-07-10T07:13:48</time>
      </trkpt>
      <trkpt lat="44.71847" lon="4.85907">
        <ele>422.4</ele>
        <time>2021-07-10T07:13:49</time>
      </trkpt>
      <trkpt lat="44.71848" lon="4.85906">
        <ele>422.6</ele>
        <time>2021-07-10T07:13:50</time>
      </trkpt>
      <trkpt lat="44.71845" lon="4.85903">
        <ele>422.8</ele>
        <time>2021-07-10T07:13:51</time>
      </trkpt>
      <trkpt lat="44.71845" lon="4.85903">
        <ele>423</ele>
        <time>2021-07-10T07:13:52</time>
      </trkpt>
      <trkpt lat="44.71845" lon="4.85902">
        <ele>423.2</ele>
        <time>2021-07-10T07:13:53</time>
      </trkpt>
      <trkpt lat="44.71842" lon="4.85898">
        <ele>423.4</ele>
        <time>2021-07-10T07:13:54</time>
      </trkpt>
      <trkpt lat="44.71842" lon="4.85898">
        <ele>423.6</ele>
        <time>2021-07-10T07:13:55</time>
      </trkpt>
      <trkpt lat="44.71839" lon="4.85898">
        <ele>423.8</ele>
        <time>2021-07-10T07:13:56</time>
      </trkpt>
      <trkpt lat="44.71837" lon="4.85896">
        <ele>423.8</ele>
        <time>2021-07-10T07:13:57</time>
      </trkpt>
      <trkpt lat="44.71836" lon="4.85896">
        <ele>424</ele>
        <time>2021-07-10T07:13:58</time>
      </trkpt>
      <trkpt lat="44.71835" lon="4.85894">
        <ele>424.2</ele>
        <time>2021-07-10T07:13:59</time>
      </trkpt>
      <trkpt lat="44.71832" lon="4.85893">
        <ele>424.2</ele>
        <time>2021-07-10T07:14:00</time>
      </trkpt>
      <trkpt lat="44.71832" lon="4.85893">
        <ele>424.4</ele>
        <time>2021-07-10T07:14:01</time>
      </trkpt>
      <trkpt lat="44.7183" lon="4.85891">
        <ele>424.4</ele>
        <time>2021-07-10T07:14:02</time>
      </trkpt>
      <trkpt lat="44.7183" lon="4.85888">
        <ele>424.6</ele>
        <time>2021-07-10T07:14:03</time>
      </trkpt>
      <trkpt lat="44.71828" lon="4.85887">
        <ele>424.6</ele>
        <time>2021-07-10T07:14:04</time>
      </trkpt>
      <trkpt lat="44.71827" lon="4.85885">
        <ele>424.8</ele>
        <time>2021-07-10T07:14:05</time>
      </trkpt>
      <trkpt lat="44.7183" lon="4.85883">
        <ele>424.8</ele>
        <time>2021-07-10T07:14:06</time>
      </trkpt>
      <trkpt lat="44.71827" lon="4.85883">
        <ele>425</ele>
        <time>2021-07-10T07:14:07</time>
      </trkpt>
      <trkpt lat="44.71827" lon="4.85883">
        <ele>425</ele>
        <time>2021-07-10T07:14:08</time>
      </trkpt>
      <trkpt lat="44.71826" lon="4.85881">
        <ele>425</ele>
        <time>2021-07-10T07:14:09</time>
      </trkpt>
      <trkpt lat="44.71825" lon="4.8588">
        <ele>425</ele>
        <time>2021-07-10T07:14:10</time>
      </trkpt>
      <trkpt lat="44.71823" lon="4.8588">
        <ele>425.2</ele>
        <time>2021-07-10T07:14:11</time>
      </trkpt>
      <trkpt lat="44.71821" lon="4.85878">
        <ele>425.2</ele>
        <time>2021-07-10T07:14:12</time>
      </trkpt>
      <trkpt lat="44.7182" lon="4.85878">
        <ele>425.2</ele>
        <time>2021-07-10T07:14:13</time>
      </trkpt>
      <trkpt lat="44.71817" lon="4.85874">
        <ele>425.2</ele>
        <time>2021-07-10T07:14:14</time>
      </trkpt>
      <trkpt lat="44.71817" lon="4.85874">
        <ele>425.4</ele>
        <time>2021-07-10T07:14:15</time>
      </trkpt>
      <trkpt lat="44.71813" lon="4.8587">
        <ele>425.4</ele>
        <time>2021-07-10T07:14:16</time>
      </trkpt>
      <trkpt lat="44.71813" lon="4.8587">
        <ele>425.4</ele>
        <time>2021-07-10T07:14:17</time>
      </trkpt>
      <trkpt lat="44.71813" lon="4.85868">
        <ele>425.4</ele>
        <time>2021-07-10T07:14:18</time>
      </trkpt>
      <trkpt lat="44.71812" lon="4.85866">
        <ele>425.4</ele>
        <time>2021-07-10T07:14:19</time>
      </trkpt>
      <trkpt lat="44.7181" lon="4.85867">
        <ele>425.4</ele>
        <time>2021-07-10T07:14:20</time>
      </trkpt>
      <trkpt lat="44.7181" lon="4.85867">
        <ele>425.4</ele>
        <time>2021-07-10T07:14:21</time>
      </trkpt>
      <trkpt lat="44.71807" lon="4.85868">
        <ele>425.4</ele>
        <time>2021-07-10T07:14:22</time>
      </trkpt>
      <trkpt lat="44.71805" lon="4.85871">
        <ele>425.4</ele>
        <time>2021-07-10T07:14:23</time>
      </trkpt>
      <trkpt lat="44.71803" lon="4.85868">
        <ele>425.2</ele>
        <time>2021-07-10T07:14:24</time>
      </trkpt>
      <trkpt lat="44.71801" lon="4.85865">
        <ele>425.2</ele>
        <time>2021-07-10T07:14:25</time>
      </trkpt>
      <trkpt lat="44.71798" lon="4.85864">
        <ele>425</ele>
        <time>2021-07-10T07:14:26</time>
      </trkpt>
      <trkpt lat="44.71796" lon="4.85862">
        <ele>425</ele>
        <time>2021-07-10T07:14:27</time>
      </trkpt>
      <trkpt lat="44.71792" lon="4.85861">
        <ele>424.8</ele>
        <time>2021-07-10T07:14:28</time>
      </trkpt>
      <trkpt lat="44.71789" lon="4.85861">
        <ele>424.6</ele>
        <time>2021-07-10T07:14:29</time>
      </trkpt>
      <trkpt lat="44.71786" lon="4.85858">
        <ele>424.4</ele>
        <time>2021-07-10T07:14:30</time>
      </trkpt>
      <trkpt lat="44.71781" lon="4.85855">
        <ele>424</ele>
        <time>2021-07-10T07:14:31</time>
      </trkpt>
      <trkpt lat="44.71778" lon="4.85855">
        <ele>423.6</ele>
        <time>2021-07-10T07:14:32</time>
      </trkpt>
      <trkpt lat="44.71768" lon="4.85856">
        <ele>423.4</ele>
        <time>2021-07-10T07:14:33</time>
      </trkpt>
      <trkpt lat="44.71768" lon="4.85856">
        <ele>423.2</ele>
        <time>2021-07-10T07:14:34</time>
      </trkpt>
      <trkpt lat="44.71766" lon="4.85854">
        <ele>423</ele>
        <time>2021-07-10T07:14:35</time>
      </trkpt>
      <trkpt lat="44.71765" lon="4.85851">
        <ele>422.8</ele>
        <time>2021-07-10T07:14:36</time>
      </trkpt>
      <trkpt lat="44.71764" lon="4.85848">
        <ele>422.6</ele>
        <time>2021-07-10T07:14:37</time>
      </trkpt>
      <trkpt lat="44.71764" lon="4.85848">
        <ele>422.2</ele>
        <time>2021-07-10T07:14:38</time>
      </trkpt>
      <trkpt lat="44.71764" lon="4.85849">
        <ele>422</ele>
        <time>2021-07-10T07:14:39</time>
      </trkpt>
      <trkpt lat="44.71765" lon="4.85848">
        <ele>421.8</ele>
        <time>2021-07-10T07:14:40</time>
      </trkpt>
      <trkpt lat="44.7176" lon="4.8584">
        <ele>421.6</ele>
        <time>2021-07-10T07:14:41</time>
      </trkpt>
      <trkpt lat="44.7176" lon="4.85837">
        <ele>421.2</ele>
        <time>2021-07-10T07:14:42</time>
      </trkpt>
      <trkpt lat="44.71758" lon="4.85833">
        <ele>421</ele>
        <time>2021-07-10T07:14:43</time>
      </trkpt>
      <trkpt lat="44.71759" lon="4.85833">
        <ele>420.8</ele>
        <time>2021-07-10T07:14:44</time>
      </trkpt>
      <trkpt lat="44.71757" lon="4.85829">
        <ele>420.6</ele>
        <time>2021-07-10T07:14:45</time>
      </trkpt>
      <trkpt lat="44.71755" lon="4.85824">
        <ele>420.6</ele>
        <time>2021-07-10T07:14:46</time>
      </trkpt>
      <trkpt lat="44.71755" lon="4.85824">
        <ele>420.4</ele>
        <time>2021-07-10T07:14:47</time>
      </trkpt>
      <trkpt lat="44.71751" lon="4.85821">
        <ele>420</ele>
        <time>2021-07-10T07:14:48</time>
      </trkpt>
      <trkpt lat="44.71748" lon="4.85816">
        <ele>419.8</ele>
        <time>2021-07-10T07:14:49</time>
      </trkpt>
      <trkpt lat="44.71745" lon="4.85815">
        <ele>419.4</ele>
        <time>2021-07-10T07:14:50</time>
      </trkpt>
      <trkpt lat="44.71741" lon="4.85814">
        <ele>418.8</ele>
        <time>2021-07-10T07:14:51</time>
      </trkpt>
      <trkpt lat="44.71734" lon="4.85811">
        <ele>418.4</ele>
        <time>2021-07-10T07:14:52</time>
      </trkpt>
      <trkpt lat="44.71727" lon="4.85804">
        <ele>418</ele>
        <time>2021-07-10T07:14:53</time>
      </trkpt>
      <trkpt lat="44.71723" lon="4.85804">
        <ele>417.6</ele>
        <time>2021-07-10T07:14:54</time>
      </trkpt>
      <trkpt lat="44.71708" lon="4.85804">
        <ele>417</ele>
        <time>2021-07-10T07:14:55</time>
      </trkpt>
      <trkpt lat="44.71708" lon="4.85804">
        <ele>416.6</ele>
        <time>2021-07-10T07:14:56</time>
      </trkpt>
      <trkpt lat="44.71702" lon="4.85801">
        <ele>416.2</ele>
        <time>2021-07-10T07:14:57</time>
      </trkpt>
      <trkpt lat="44.71699" lon="4.858">
        <ele>416</ele>
        <time>2021-07-10T07:14:58</time>
      </trkpt>
      <trkpt lat="44.71695" lon="4.85797">
        <ele>415.4</ele>
        <time>2021-07-10T07:14:59</time>
      </trkpt>
      <trkpt lat="44.71691" lon="4.85795">
        <ele>415</ele>
        <time>2021-07-10T07:15:00</time>
      </trkpt>
      <trkpt lat="44.71687" lon="4.85797">
        <ele>414.6</ele>
        <time>2021-07-10T07:15:01</time>
      </trkpt>
      <trkpt lat="44.71683" lon="4.85798">
        <ele>414.2</ele>
        <time>2021-07-10T07:15:02</time>
      </trkpt>
      <trkpt lat="44.71677" lon="4.85798">
        <ele>414</ele>
        <time>2021-07-10T07:15:03</time>
      </trkpt>
      <trkpt lat="44.71673" lon="4.85798">
        <ele>414</ele>
        <time>2021-07-10T07:15:04</time>
      </trkpt>
      <trkpt lat="44.71667" lon="4.85798">
        <ele>413.8</ele>
        <time>2021-07-10T07:15:05</time>
      </trkpt>
      <trkpt lat="44.71663" lon="4.85802">
        <ele>413.6</ele>
        <time>2021-07-10T07:15:06</time>
      </trkpt>
      <trkpt lat="44.7166" lon="4.85802">
        <ele>413.4</ele>
        <time>2021-07-10T07:15:07</time>
      </trkpt>
      <trkpt lat="44.71655" lon="4.85802">
        <ele>413.4</ele>
        <time>2021-07-10T07:15:08</time>
      </trkpt>
      <trkpt lat="44.71655" lon="4.85802">
        <ele>413.4</ele>
        <time>2021-07-10T07:15:09</time>
      </trkpt>
      <trkpt lat="44.71653" lon="4.85802">
        <ele>413.4</ele>
        <time>2021-07-10T07:15:10</time>
      </trkpt>
      <trkpt lat="44.7165" lon="4.85804">
        <ele>413.4</ele>
        <time>2021-07-10T07:15:11</time>
      </trkpt>
      <trkpt lat="44.71645" lon="4.85807">
        <ele>413.6</ele>
        <time>2021-07-10T07:15:12</time>
      </trkpt>
      <trkpt lat="44.71642" lon="4.8581">
        <ele>413.8</ele>
        <time>2021-07-10T07:15:13</time>
      </trkpt>
      <trkpt lat="44.71637" lon="4.85809">
        <ele>413.8</ele>
        <time>2021-07-10T07:15:14</time>
      </trkpt>
      <trkpt lat="44.71637" lon="4.85809">
        <ele>414</ele>
        <time>2021-07-10T07:15:15</time>
      </trkpt>
      <trkpt lat="44.71633" lon="4.85811">
        <ele>414.2</ele>
        <time>2021-07-10T07:15:16</time>
      </trkpt>
      <trkpt lat="44.7163" lon="4.85811">
        <ele>414.4</ele>
        <time>2021-07-10T07:15:17</time>
      </trkpt>
      <trkpt lat="44.71628" lon="4.85808">
        <ele>414.6</ele>
        <time>2021-07-10T07:15:18</time>
      </trkpt>
      <trkpt lat="44.71625" lon="4.85805">
        <ele>414.8</ele>
        <time>2021-07-10T07:15:19</time>
      </trkpt>
      <trkpt lat="44.71624" lon="4.85805">
        <ele>415</ele>
        <time>2021-07-10T07:15:20</time>
      </trkpt>
      <trkpt lat="44.71624" lon="4.85805">
        <ele>415.2</ele>
        <time>2021-07-10T07:15:21</time>
      </trkpt>
      <trkpt lat="44.7162" lon="4.85803">
        <ele>415.4</ele>
        <time>2021-07-10T07:15:22</time>
      </trkpt>
      <trkpt lat="44.71617" lon="4.85803">
        <ele>415.6</ele>
        <time>2021-07-10T07:15:23</time>
      </trkpt>
      <trkpt lat="44.71615" lon="4.85803">
        <ele>415.8</ele>
        <time>2021-07-10T07:15:24</time>
      </trkpt>
      <trkpt lat="44.71614" lon="4.85806">
        <ele>416</ele>
        <time>2021-07-10T07:15:25</time>
      </trkpt>
      <trkpt lat="44.71612" lon="4.85807">
        <ele>416.4</ele>
        <time>2021-07-10T07:15:26</time>
      </trkpt>
      <trkpt lat="44.71609" lon="4.85803">
        <ele>416.6</ele>
        <time>2021-07-10T07:15:27</time>
      </trkpt>
      <trkpt lat="44.71609" lon="4.85803">
        <ele>416.8</ele>
        <time>2021-07-10T07:15:28</time>
      </trkpt>
      <trkpt lat="44.71609" lon="4.85803">
        <ele>417</ele>
        <time>2021-07-10T07:15:29</time>
      </trkpt>
      <trkpt lat="44.71607" lon="4.85802">
        <ele>417.2</ele>
        <time>2021-07-10T07:15:30</time>
      </trkpt>
      <trkpt lat="44.71605" lon="4.85802">
        <ele>417.4</ele>
        <time>2021-07-10T07:15:31</time>
      </trkpt>
      <trkpt lat="44.71602" lon="4.858">
        <ele>417.6</ele>
        <time>2021-07-10T07:15:32</time>
      </trkpt>
      <trkpt lat="44.71602" lon="4.858">
        <ele>418</ele>
        <time>2021-07-10T07:15:33</time>
      </trkpt>
      <trkpt lat="44.716" lon="4.85802">
        <ele>418.2</ele>
        <time>2021-07-10T07:15:34</time>
      </trkpt>
      <trkpt lat="44.71599" lon="4.85801">
        <ele>418.4</ele>
        <time>2021-07-10T07:15:35</time>
      </trkpt>
      <trkpt lat="44.71597" lon="4.858">
        <ele>418.6</ele>
        <time>2021-07-10T07:15:36</time>
      </trkpt>
      <trkpt lat="44.71597" lon="4.85801">
        <ele>418.8</ele>
        <time>2021-07-10T07:15:37</time>
      </trkpt>
      <trkpt lat="44.71596" lon="4.85801">
        <ele>419.2</ele>
        <time>2021-07-10T07:15:38</time>
      </trkpt>
      <trkpt lat="44.71593" lon="4.858">
        <ele>419.4</ele>
        <time>2021-07-10T07:15:39</time>
      </trkpt>
      <trkpt lat="44.71591" lon="4.85801">
        <ele>419.6</ele>
        <time>2021-07-10T07:15:40</time>
      </trkpt>
      <trkpt lat="44.71591" lon="4.85801">
        <ele>419.8</ele>
        <time>2021-07-10T07:15:41</time>
      </trkpt>
      <trkpt lat="44.7159" lon="4.85801">
        <ele>420.2</ele>
        <time>2021-07-10T07:15:42</time>
      </trkpt>
      <trkpt lat="44.71586" lon="4.85802">
        <ele>420.4</ele>
        <time>2021-07-10T07:15:43</time>
      </trkpt>
      <trkpt lat="44.71583" lon="4.85801">
        <ele>420.8</ele>
        <time>2021-07-10T07:15:44</time>
      </trkpt>
      <trkpt lat="44.71582" lon="4.85799">
        <ele>421</ele>
        <time>2021-07-10T07:15:45</time>
      </trkpt>
      <trkpt lat="44.7158" lon="4.85799">
        <ele>421.2</ele>
        <time>2021-07-10T07:15:46</time>
      </trkpt>
      <trkpt lat="44.7158" lon="4.85799">
        <ele>421.6</ele>
        <time>2021-07-10T07:15:47</time>
      </trkpt>
      <trkpt lat="44.71578" lon="4.858">
        <ele>422</ele>
        <time>2021-07-10T07:15:48</time>
      </trkpt>
      <trkpt lat="44.71578" lon="4.858">
        <ele>422.2</ele>
        <time>2021-07-10T07:15:49</time>
      </trkpt>
      <trkpt lat="44.71575" lon="4.858">
        <ele>422.6</ele>
        <time>2021-07-10T07:15:50</time>
      </trkpt>
      <trkpt lat="44.71575" lon="4.85799">
        <ele>422.8</ele>
        <time>2021-07-10T07:15:51</time>
      </trkpt>
      <trkpt lat="44.71572" lon="4.85798">
        <ele>423.2</ele>
        <time>2021-07-10T07:15:52</time>
      </trkpt>
      <trkpt lat="44.7157" lon="4.85798">
        <ele>423.4</ele>
        <time>2021-07-10T07:15:53</time>
      </trkpt>
      <trkpt lat="44.7157" lon="4.85798">
        <ele>423.8</ele>
        <time>2021-07-10T07:15:54</time>
      </trkpt>
      <trkpt lat="44.71568" lon="4.85798">
        <ele>424</ele>
        <time>2021-07-10T07:15:55</time>
      </trkpt>
      <trkpt lat="44.71566" lon="4.85797">
        <ele>424.4</ele>
        <time>2021-07-10T07:15:56</time>
      </trkpt>
      <trkpt lat="44.71563" lon="4.85796">
        <ele>424.6</ele>
        <time>2021-07-10T07:15:57</time>
      </trkpt>
      <trkpt lat="44.71562" lon="4.85795">
        <ele>425</ele>
        <time>2021-07-10T07:15:58</time>
      </trkpt>
      <trkpt lat="44.71558" lon="4.85795">
        <ele>425.2</ele>
        <time>2021-07-10T07:15:59</time>
      </trkpt>
      <trkpt lat="44.71558" lon="4.85795">
        <ele>425.6</ele>
        <time>2021-07-10T07:16:00</time>
      </trkpt>
      <trkpt lat="44.71555" lon="4.85799">
        <ele>425.8</ele>
        <time>2021-07-10T07:16:01</time>
      </trkpt>
      <trkpt lat="44.71555" lon="4.85799">
        <ele>426.2</ele>
        <time>2021-07-10T07:16:02</time>
      </trkpt>
      <trkpt lat="44.71552" lon="4.85798">
        <ele>426.6</ele>
        <time>2021-07-10T07:16:03</time>
      </trkpt>
      <trkpt lat="44.7155" lon="4.85801">
        <ele>426.8</ele>
        <time>2021-07-10T07:16:04</time>
      </trkpt>
      <trkpt lat="44.7155" lon="4.85801">
        <ele>427.2</ele>
        <time>2021-07-10T07:16:05</time>
      </trkpt>
      <trkpt lat="44.71551" lon="4.85801">
        <ele>427.4</ele>
        <time>2021-07-10T07:16:06</time>
      </trkpt>
      <trkpt lat="44.71551" lon="4.85801">
        <ele>427.8</ele>
        <time>2021-07-10T07:16:07</time>
      </trkpt>
      <trkpt lat="44.71548" lon="4.85799">
        <ele>428</ele>
        <time>2021-07-10T07:16:08</time>
      </trkpt>
      <trkpt lat="44.71546" lon="4.85797">
        <ele>428.4</ele>
        <time>2021-07-10T07:16:09</time>
      </trkpt>
      <trkpt lat="44.71545" lon="4.85797">
        <ele>428.8</ele>
        <time>2021-07-10T07:16:10</time>
      </trkpt>
      <trkpt lat="44.71544" lon="4.85799">
        <ele>429.2</ele>
        <time>2021-07-10T07:16:11</time>
      </trkpt>
      <trkpt lat="44.71542" lon="4.85799">
        <ele>429.6</ele>
        <time>2021-07-10T07:16:12</time>
      </trkpt>
      <trkpt lat="44.71544" lon="4.85798">
        <ele>430</ele>
        <time>2021-07-10T07:16:13</time>
      </trkpt>
      <trkpt lat="44.71542" lon="4.85799">
        <ele>430.2</ele>
        <time>2021-07-10T07:16:14</time>
      </trkpt>
      <trkpt lat="44.71542" lon="4.85798">
        <ele>430.4</ele>
        <time>2021-07-10T07:16:15</time>
      </trkpt>
      <trkpt lat="44.71541" lon="4.85798">
        <ele>430.6</ele>
        <time>2021-07-10T07:16:16</time>
      </trkpt>
      <trkpt lat="44.71541" lon="4.85797">
        <ele>431</ele>
        <time>2021-07-10T07:16:17</time>
      </trkpt>
      <trkpt lat="44.71538" lon="4.85798">
        <ele>431.2</ele>
        <time>2021-07-10T07:16:18</time>
      </trkpt>
      <trkpt lat="44.71537" lon="4.85797">
        <ele>431.6</ele>
        <time>2021-07-10T07:16:19</time>
      </trkpt>
      <trkpt lat="44.71537" lon="4.85797">
        <ele>431.8</ele>
        <time>2021-07-10T07:16:20</time>
      </trkpt>
      <trkpt lat="44.71537" lon="4.85797">
        <ele>432</ele>
        <time>2021-07-10T07:16:21</time>
      </trkpt>
      <trkpt lat="44.71536" lon="4.85796">
        <ele>432.2</ele>
        <time>2021-07-10T07:16:22</time>
      </trkpt>
      <trkpt lat="44.71535" lon="4.85796">
        <ele>432.6</ele>
        <time>2021-07-10T07:16:23</time>
      </trkpt>
      <trkpt lat="44.71534" lon="4.85794">
        <ele>432.8</ele>
        <time>2021-07-10T07:16:24</time>
      </trkpt>
      <trkpt lat="44.71531" lon="4.85796">
        <ele>433</ele>
        <time>2021-07-10T07:16:25</time>
      </trkpt>
      <trkpt lat="44.7153" lon="4.85795">
        <ele>433.4</ele>
        <time>2021-07-10T07:16:26</time>
      </trkpt>
      <trkpt lat="44.71528" lon="4.85793">
        <ele>433.6</ele>
        <time>2021-07-10T07:16:27</time>
      </trkpt>
      <trkpt lat="44.71529" lon="4.8579">
        <ele>433.8</ele>
        <time>2021-07-10T07:16:28</time>
      </trkpt>
      <trkpt lat="44.71527" lon="4.85791">
        <ele>434.2</ele>
        <time>2021-07-10T07:16:29</time>
      </trkpt>
      <trkpt lat="44.71527" lon="4.85793">
        <ele>434.4</ele>
        <time>2021-07-10T07:16:30</time>
      </trkpt>
      <trkpt lat="44.71524" lon="4.85792">
        <ele>434.6</ele>
        <time>2021-07-10T07:16:31</time>
      </trkpt>
      <trkpt lat="44.71524" lon="4.85792">
        <ele>434.8</ele>
        <time>2021-07-10T07:16:32</time>
      </trkpt>
      <trkpt lat="44.71524" lon="4.85792">
        <ele>435.2</ele>
        <time>2021-07-10T07:16:33</time>
      </trkpt>
      <trkpt lat="44.71522" lon="4.8579">
        <ele>435.6</ele>
        <time>2021-07-10T07:16:34</time>
      </trkpt>
      <trkpt lat="44.71522" lon="4.8579">
        <ele>435.8</ele>
        <time>2021-07-10T07:16:35</time>
      </trkpt>
      <trkpt lat="44.71521" lon="4.85789">
        <ele>436.2</ele>
        <time>2021-07-10T07:16:36</time>
      </trkpt>
      <trkpt lat="44.71519" lon="4.85789">
        <ele>436.2</ele>
        <time>2021-07-10T07:16:37</time>
      </trkpt>
      <trkpt lat="44.71519" lon="4.8579">
        <ele>436.4</ele>
        <time>2021-07-10T07:16:38</time>
      </trkpt>
      <trkpt lat="44.71517" lon="4.8579">
        <ele>436.8</ele>
        <time>2021-07-10T07:16:39</time>
      </trkpt>
      <trkpt lat="44.71517" lon="4.85793">
        <ele>437</ele>
        <time>2021-07-10T07:16:40</time>
      </trkpt>
      <trkpt lat="44.71515" lon="4.85795">
        <ele>437.2</ele>
        <time>2021-07-10T07:16:41</time>
      </trkpt>
      <trkpt lat="44.71514" lon="4.85795">
        <ele>437.4</ele>
        <time>2021-07-10T07:16:42</time>
      </trkpt>
      <trkpt lat="44.71512" lon="4.85795">
        <ele>437.6</ele>
        <time>2021-07-10T07:16:43</time>
      </trkpt>
      <trkpt lat="44.7151" lon="4.85794">
        <ele>437.8</ele>
        <time>2021-07-10T07:16:44</time>
      </trkpt>
      <trkpt lat="44.71509" lon="4.85791">
        <ele>438</ele>
        <time>2021-07-10T07:16:45</time>
      </trkpt>
      <trkpt lat="44.71509" lon="4.85793">
        <ele>438.2</ele>
        <time>2021-07-10T07:16:46</time>
      </trkpt>
      <trkpt lat="44.71505" lon="4.85794">
        <ele>438.4</ele>
        <time>2021-07-10T07:16:47</time>
      </trkpt>
      <trkpt lat="44.71505" lon="4.85793">
        <ele>438.6</ele>
        <time>2021-07-10T07:16:48</time>
      </trkpt>
      <trkpt lat="44.71503" lon="4.85792">
        <ele>438.8</ele>
        <time>2021-07-10T07:16:49</time>
      </trkpt>
      <trkpt lat="44.71501" lon="4.85792">
        <ele>439</ele>
        <time>2021-07-10T07:16:50</time>
      </trkpt>
      <trkpt lat="44.71501" lon="4.85792">
        <ele>439.2</ele>
        <time>2021-07-10T07:16:51</time>
      </trkpt>
      <trkpt lat="44.71498" lon="4.85791">
        <ele>439.2</ele>
        <time>2021-07-10T07:16:52</time>
      </trkpt>
      <trkpt lat="44.71498" lon="4.85791">
        <ele>439.4</ele>
        <time>2021-07-10T07:16:53</time>
      </trkpt>
      <trkpt lat="44.71497" lon="4.85789">
        <ele>439.6</ele>
        <time>2021-07-10T07:16:54</time>
      </trkpt>
      <trkpt lat="44.71498" lon="4.85786">
        <ele>439.8</ele>
        <time>2021-07-10T07:16:55</time>
      </trkpt>
      <trkpt lat="44.71496" lon="4.85784">
        <ele>440</ele>
        <time>2021-07-10T07:16:56</time>
      </trkpt>
      <trkpt lat="44.71496" lon="4.85784">
        <ele>440</ele>
        <time>2021-07-10T07:16:57</time>
      </trkpt>
      <trkpt lat="44.71494" lon="4.85785">
        <ele>440.2</ele>
        <time>2021-07-10T07:16:58</time>
      </trkpt>
      <trkpt lat="44.71492" lon="4.85785">
        <ele>440.4</ele>
        <time>2021-07-10T07:16:59</time>
      </trkpt>
      <trkpt lat="44.71489" lon="4.85786">
        <ele>440.4</ele>
        <time>2021-07-10T07:17:00</time>
      </trkpt>
      <trkpt lat="44.71489" lon="4.85786">
        <ele>440.6</ele>
        <time>2021-07-10T07:17:01</time>
      </trkpt>
      <trkpt lat="44.71487" lon="4.85787">
        <ele>440.8</ele>
        <time>2021-07-10T07:17:02</time>
      </trkpt>
      <trkpt lat="44.71486" lon="4.85788">
        <ele>441</ele>
        <time>2021-07-10T07:17:03</time>
      </trkpt>
      <trkpt lat="44.71486" lon="4.85786">
        <ele>441.2</ele>
        <time>2021-07-10T07:17:04</time>
      </trkpt>
      <trkpt lat="44.71482" lon="4.85787">
        <ele>441.2</ele>
        <time>2021-07-10T07:17:05</time>
      </trkpt>
      <trkpt lat="44.71481" lon="4.85785">
        <ele>441.4</ele>
        <time>2021-07-10T07:17:06</time>
      </trkpt>
      <trkpt lat="44.7148" lon="4.85784">
        <ele>441.6</ele>
        <time>2021-07-10T07:17:07</time>
      </trkpt>
      <trkpt lat="44.7148" lon="4.85785">
        <ele>441.8</ele>
        <time>2021-07-10T07:17:08</time>
      </trkpt>
      <trkpt lat="44.7148" lon="4.85785">
        <ele>442</ele>
        <time>2021-07-10T07:17:09</time>
      </trkpt>
      <trkpt lat="44.7148" lon="4.85785">
        <ele>442</ele>
        <time>2021-07-10T07:17:10</time>
      </trkpt>
      <trkpt lat="44.71478" lon="4.85784">
        <ele>442.2</ele>
        <time>2021-07-10T07:17:11</time>
      </trkpt>
      <trkpt lat="44.71477" lon="4.85781">
        <ele>442.4</ele>
        <time>2021-07-10T07:17:12</time>
      </trkpt>
      <trkpt lat="44.71473" lon="4.85778">
        <ele>442.6</ele>
        <time>2021-07-10T07:17:13</time>
      </trkpt>
      <trkpt lat="44.71473" lon="4.85778">
        <ele>442.6</ele>
        <time>2021-07-10T07:17:14</time>
      </trkpt>
      <trkpt lat="44.71472" lon="4.85778">
        <ele>442.8</ele>
        <time>2021-07-10T07:17:15</time>
      </trkpt>
      <trkpt lat="44.71471" lon="4.85777">
        <ele>443</ele>
        <time>2021-07-10T07:17:16</time>
      </trkpt>
      <trkpt lat="44.7147" lon="4.85777">
        <ele>443.2</ele>
        <time>2021-07-10T07:17:17</time>
      </trkpt>
      <trkpt lat="44.71468" lon="4.85777">
        <ele>443.4</ele>
        <time>2021-07-10T07:17:18</time>
      </trkpt>
      <trkpt lat="44.71468" lon="4.85776">
        <ele>443.6</ele>
        <time>2021-07-10T07:17:19</time>
      </trkpt>
      <trkpt lat="44.71467" lon="4.85777">
        <ele>443.8</ele>
        <time>2021-07-10T07:17:20</time>
      </trkpt>
      <trkpt lat="44.71466" lon="4.85776">
        <ele>443.8</ele>
        <time>2021-07-10T07:17:21</time>
      </trkpt>
      <trkpt lat="44.71466" lon="4.85775">
        <ele>444</ele>
        <time>2021-07-10T07:17:22</time>
      </trkpt>
      <trkpt lat="44.71463" lon="4.85775">
        <ele>444.2</ele>
        <time>2021-07-10T07:17:23</time>
      </trkpt>
      <trkpt lat="44.7146" lon="4.85778">
        <ele>444.4</ele>
        <time>2021-07-10T07:17:24</time>
      </trkpt>
      <trkpt lat="44.7146" lon="4.85778">
        <ele>444.6</ele>
        <time>2021-07-10T07:17:25</time>
      </trkpt>
      <trkpt lat="44.71459" lon="4.85779">
        <ele>444.8</ele>
        <time>2021-07-10T07:17:26</time>
      </trkpt>
      <trkpt lat="44.71456" lon="4.85778">
        <ele>445</ele>
        <time>2021-07-10T07:17:27</time>
      </trkpt>
      <trkpt lat="44.71453" lon="4.85775">
        <ele>445</ele>
        <time>2021-07-10T07:17:28</time>
      </trkpt>
      <trkpt lat="44.71453" lon="4.85775">
        <ele>445.2</ele>
        <time>2021-07-10T07:17:29</time>
      </trkpt>
      <trkpt lat="44.71453" lon="4.85775">
        <ele>445.4</ele>
        <time>2021-07-10T07:17:30</time>
      </trkpt>
      <trkpt lat="44.71452" lon="4.85772">
        <ele>445.6</ele>
        <time>2021-07-10T07:17:31</time>
      </trkpt>
      <trkpt lat="44.7145" lon="4.85774">
        <ele>445.8</ele>
        <time>2021-07-10T07:17:32</time>
      </trkpt>
      <trkpt lat="44.71448" lon="4.85772">
        <ele>446</ele>
        <time>2021-07-10T07:17:33</time>
      </trkpt>
      <trkpt lat="44.71444" lon="4.85774">
        <ele>446.2</ele>
        <time>2021-07-10T07:17:34</time>
      </trkpt>
      <trkpt lat="44.71444" lon="4.85774">
        <ele>446.2</ele>
        <time>2021-07-10T07:17:35</time>
      </trkpt>
      <trkpt lat="44.71443" lon="4.85771">
        <ele>446.4</ele>
        <time>2021-07-10T07:17:36</time>
      </trkpt>
      <trkpt lat="44.71441" lon="4.85771">
        <ele>446.6</ele>
        <time>2021-07-10T07:17:37</time>
      </trkpt>
      <trkpt lat="44.71439" lon="4.85771">
        <ele>446.8</ele>
        <time>2021-07-10T07:17:38</time>
      </trkpt>
      <trkpt lat="44.71438" lon="4.8577">
        <ele>447</ele>
        <time>2021-07-10T07:17:39</time>
      </trkpt>
      <trkpt lat="44.71436" lon="4.8577">
        <ele>447.2</ele>
        <time>2021-07-10T07:17:40</time>
      </trkpt>
      <trkpt lat="44.71434" lon="4.8577">
        <ele>447.2</ele>
        <time>2021-07-10T07:17:41</time>
      </trkpt>
      <trkpt lat="44.71434" lon="4.8577">
        <ele>447.4</ele>
        <time>2021-07-10T07:17:42</time>
      </trkpt>
      <trkpt lat="44.71432" lon="4.85768">
        <ele>447.6</ele>
        <time>2021-07-10T07:17:43</time>
      </trkpt>
      <trkpt lat="44.7143" lon="4.85766">
        <ele>447.8</ele>
        <time>2021-07-10T07:17:44</time>
      </trkpt>
      <trkpt lat="44.71427" lon="4.85766">
        <ele>448</ele>
        <time>2021-07-10T07:17:45</time>
      </trkpt>
      <trkpt lat="44.71427" lon="4.85766">
        <ele>448</ele>
        <time>2021-07-10T07:17:46</time>
      </trkpt>
      <trkpt lat="44.71425" lon="4.85768">
        <ele>448.2</ele>
        <time>2021-07-10T07:17:47</time>
      </trkpt>
      <trkpt lat="44.71423" lon="4.85765">
        <ele>448.4</ele>
        <time>2021-07-10T07:17:48</time>
      </trkpt>
      <trkpt lat="44.7142" lon="4.85765">
        <ele>448.6</ele>
        <time>2021-07-10T07:17:49</time>
      </trkpt>
      <trkpt lat="44.7142" lon="4.85765">
        <ele>448.8</ele>
        <time>2021-07-10T07:17:50</time>
      </trkpt>
      <trkpt lat="44.71418" lon="4.85765">
        <ele>449</ele>
        <time>2021-07-10T07:17:51</time>
      </trkpt>
      <trkpt lat="44.71417" lon="4.85764">
        <ele>449.2</ele>
        <time>2021-07-10T07:17:52</time>
      </trkpt>
      <trkpt lat="44.71416" lon="4.85764">
        <ele>449.2</ele>
        <time>2021-07-10T07:17:53</time>
      </trkpt>
      <trkpt lat="44.71416" lon="4.85764">
        <ele>449.4</ele>
        <time>2021-07-10T07:17:54</time>
      </trkpt>
      <trkpt lat="44.71416" lon="4.85763">
        <ele>449.6</ele>
        <time>2021-07-10T07:17:55</time>
      </trkpt>
      <trkpt lat="44.71411" lon="4.85762">
        <ele>449.8</ele>
        <time>2021-07-10T07:17:56</time>
      </trkpt>
      <trkpt lat="44.71411" lon="4.85762">
        <ele>449.8</ele>
        <time>2021-07-10T07:17:57</time>
      </trkpt>
      <trkpt lat="44.7141" lon="4.85761">
        <ele>450</ele>
        <time>2021-07-10T07:17:58</time>
      </trkpt>
      <trkpt lat="44.71409" lon="4.8576">
        <ele>450.2</ele>
        <time>2021-07-10T07:17:59</time>
      </trkpt>
      <trkpt lat="44.71407" lon="4.85761">
        <ele>450.2</ele>
        <time>2021-07-10T07:18:00</time>
      </trkpt>
      <trkpt lat="44.71405" lon="4.85761">
        <ele>450.4</ele>
        <time>2021-07-10T07:18:01</time>
      </trkpt>
      <trkpt lat="44.71403" lon="4.85759">
        <ele>450.6</ele>
        <time>2021-07-10T07:18:02</time>
      </trkpt>
      <trkpt lat="44.71402" lon="4.85758">
        <ele>450.6</ele>
        <time>2021-07-10T07:18:03</time>
      </trkpt>
      <trkpt lat="44.71402" lon="4.85758">
        <ele>450.8</ele>
        <time>2021-07-10T07:18:04</time>
      </trkpt>
      <trkpt lat="44.714" lon="4.85757">
        <ele>450.8</ele>
        <time>2021-07-10T07:18:05</time>
      </trkpt>
      <trkpt lat="44.71398" lon="4.85755">
        <ele>451</ele>
        <time>2021-07-10T07:18:06</time>
      </trkpt>
      <trkpt lat="44.71397" lon="4.85754">
        <ele>451.2</ele>
        <time>2021-07-10T07:18:07</time>
      </trkpt>
      <trkpt lat="44.71396" lon="4.85756">
        <ele>451.4</ele>
        <time>2021-07-10T07:18:08</time>
      </trkpt>
      <trkpt lat="44.71393" lon="4.85755">
        <ele>451.4</ele>
        <time>2021-07-10T07:18:09</time>
      </trkpt>
      <trkpt lat="44.71392" lon="4.85756">
        <ele>451.6</ele>
        <time>2021-07-10T07:18:10</time>
      </trkpt>
      <trkpt lat="44.71391" lon="4.85755">
        <ele>451.6</ele>
        <time>2021-07-10T07:18:11</time>
      </trkpt>
      <trkpt lat="44.71391" lon="4.85755">
        <ele>451.8</ele>
        <time>2021-07-10T07:18:12</time>
      </trkpt>
      <trkpt lat="44.71387" lon="4.85753">
        <ele>452</ele>
        <time>2021-07-10T07:18:13</time>
      </trkpt>
      <trkpt lat="44.71385" lon="4.85753">
        <ele>452</ele>
        <time>2021-07-10T07:18:14</time>
      </trkpt>
      <trkpt lat="44.71384" lon="4.85753">
        <ele>452</ele>
        <time>2021-07-10T07:18:15</time>
      </trkpt>
      <trkpt lat="44.71384" lon="4.85755">
        <ele>452.2</ele>
        <time>2021-07-10T07:18:16</time>
      </trkpt>
      <trkpt lat="44.71381" lon="4.85755">
        <ele>452.4</ele>
        <time>2021-07-10T07:18:17</time>
      </trkpt>
      <trkpt lat="44.71379" lon="4.85755">
        <ele>452.4</ele>
        <time>2021-07-10T07:18:18</time>
      </trkpt>
      <trkpt lat="44.71378" lon="4.85757">
        <ele>452.6</ele>
        <time>2021-07-10T07:18:19</time>
      </trkpt>
      <trkpt lat="44.71376" lon="4.85758">
        <ele>452.8</ele>
        <time>2021-07-10T07:18:20</time>
      </trkpt>
      <trkpt lat="44.71376" lon="4.85758">
        <ele>452.8</ele>
        <time>2021-07-10T07:18:21</time>
      </trkpt>
      <trkpt lat="44.71375" lon="4.85757">
        <ele>453</ele>
        <time>2021-07-10T07:18:22</time>
      </trkpt>
      <trkpt lat="44.71375" lon="4.85755">
        <ele>453.2</ele>
        <time>2021-07-10T07:18:23</time>
      </trkpt>
      <trkpt lat="44.71373" lon="4.85756">
        <ele>453.2</ele>
        <time>2021-07-10T07:18:24</time>
      </trkpt>
      <trkpt lat="44.71371" lon="4.85757">
        <ele>453.4</ele>
        <time>2021-07-10T07:18:25</time>
      </trkpt>
      <trkpt lat="44.71371" lon="4.85758">
        <ele>453.6</ele>
        <time>2021-07-10T07:18:26</time>
      </trkpt>
      <trkpt lat="44.71368" lon="4.85761">
        <ele>453.6</ele>
        <time>2021-07-10T07:18:27</time>
      </trkpt>
      <trkpt lat="44.71367" lon="4.85758">
        <ele>453.8</ele>
        <time>2021-07-10T07:18:28</time>
      </trkpt>
      <trkpt lat="44.71364" lon="4.85757">
        <ele>453.8</ele>
        <time>2021-07-10T07:18:29</time>
      </trkpt>
      <trkpt lat="44.71362" lon="4.85756">
        <ele>453.8</ele>
        <time>2021-07-10T07:18:30</time>
      </trkpt>
      <trkpt lat="44.7136" lon="4.85756">
        <ele>453.8</ele>
        <time>2021-07-10T07:18:31</time>
      </trkpt>
      <trkpt lat="44.71359" lon="4.85755">
        <ele>454</ele>
        <time>2021-07-10T07:18:32</time>
      </trkpt>
      <trkpt lat="44.71357" lon="4.85755">
        <ele>454</ele>
        <time>2021-07-10T07:18:33</time>
      </trkpt>
      <trkpt lat="44.71355" lon="4.85755">
        <ele>454</ele>
        <time>2021-07-10T07:18:34</time>
      </trkpt>
      <trkpt lat="44.71352" lon="4.85753">
        <ele>454</ele>
        <time>2021-07-10T07:18:35</time>
      </trkpt>
      <trkpt lat="44.71352" lon="4.85753">
        <ele>454.2</ele>
        <time>2021-07-10T07:18:36</time>
      </trkpt>
      <trkpt lat="44.7135" lon="4.85751">
        <ele>454.2</ele>
        <time>2021-07-10T07:18:37</time>
      </trkpt>
      <trkpt lat="44.71347" lon="4.8575">
        <ele>454.2</ele>
        <time>2021-07-10T07:18:38</time>
      </trkpt>
      <trkpt lat="44.71346" lon="4.8575">
        <ele>454.2</ele>
        <time>2021-07-10T07:18:39</time>
      </trkpt>
      <trkpt lat="44.71346" lon="4.8575">
        <ele>454.4</ele>
        <time>2021-07-10T07:18:40</time>
      </trkpt>
      <trkpt lat="44.71347" lon="4.8575">
        <ele>454.4</ele>
        <time>2021-07-10T07:18:41</time>
      </trkpt>
      <trkpt lat="44.71348" lon="4.85747">
        <ele>454.4</ele>
        <time>2021-07-10T07:18:42</time>
      </trkpt>
      <trkpt lat="44.71348" lon="4.85747">
        <ele>454.4</ele>
        <time>2021-07-10T07:18:43</time>
      </trkpt>
      <trkpt lat="44.7135" lon="4.85748">
        <ele>454.2</ele>
        <time>2021-07-10T07:18:44</time>
      </trkpt>
      <trkpt lat="44.71349" lon="4.85749">
        <ele>454.2</ele>
        <time>2021-07-10T07:18:45</time>
      </trkpt>
      <trkpt lat="44.7135" lon="4.85748">
        <ele>454.2</ele>
        <time>2021-07-10T07:18:46</time>
      </trkpt>
      <trkpt lat="44.7135" lon="4.85747">
        <ele>454.2</ele>
        <time>2021-07-10T07:18:47</time>
      </trkpt>
      <trkpt lat="44.71349" lon="4.85745">
        <ele>454.2</ele>
        <time>2021-07-10T07:18:48</time>
      </trkpt>
      <trkpt lat="44.71328" lon="4.85715">
        <ele>453.6</ele>
        <time>2021-07-10T07:21:17</time>
      </trkpt>
      <trkpt lat="44.71328" lon="4.85714">
        <ele>453.6</ele>
        <time>2021-07-10T07:21:18</time>
      </trkpt>
      <trkpt lat="44.71326" lon="4.85711">
        <ele>453.6</ele>
        <time>2021-07-10T07:21:19</time>
      </trkpt>
      <trkpt lat="44.71322" lon="4.85706">
        <ele>453.6</ele>
        <time>2021-07-10T07:21:20</time>
      </trkpt>
      <trkpt lat="44.71322" lon="4.85706">
        <ele>453.6</ele>
        <time>2021-07-10T07:21:21</time>
      </trkpt>
      <trkpt lat="44.71321" lon="4.85706">
        <ele>453.6</ele>
        <time>2021-07-10T07:21:22</time>
      </trkpt>
      <trkpt lat="44.71319" lon="4.85705">
        <ele>453.6</ele>
        <time>2021-07-10T07:21:23</time>
      </trkpt>
      <trkpt lat="44.71318" lon="4.85703">
        <ele>453.6</ele>
        <time>2021-07-10T07:21:24</time>
      </trkpt>
      <trkpt lat="44.71312" lon="4.85701">
        <ele>453.6</ele>
        <time>2021-07-10T07:21:25</time>
      </trkpt>
      <trkpt lat="44.71307" lon="4.85695">
        <ele>453.4</ele>
        <time>2021-07-10T07:21:26</time>
      </trkpt>
      <trkpt lat="44.71307" lon="4.85695">
        <ele>453.4</ele>
        <time>2021-07-10T07:21:27</time>
      </trkpt>
      <trkpt lat="44.71304" lon="4.85691">
        <ele>453.4</ele>
        <time>2021-07-10T07:21:28</time>
      </trkpt>
      <trkpt lat="44.71303" lon="4.85688">
        <ele>453.4</ele>
        <time>2021-07-10T07:21:29</time>
      </trkpt>
      <trkpt lat="44.71301" lon="4.85685">
        <ele>453.2</ele>
        <time>2021-07-10T07:21:30</time>
      </trkpt>
      <trkpt lat="44.71298" lon="4.85683">
        <ele>453.2</ele>
        <time>2021-07-10T07:21:31</time>
      </trkpt>
      <trkpt lat="44.71289" lon="4.85678">
        <ele>453.2</ele>
        <time>2021-07-10T07:21:32</time>
      </trkpt>
      <trkpt lat="44.71289" lon="4.85678">
        <ele>453.2</ele>
        <time>2021-07-10T07:21:33</time>
      </trkpt>
      <trkpt lat="44.71287" lon="4.85676">
        <ele>453</ele>
        <time>2021-07-10T07:21:34</time>
      </trkpt>
      <trkpt lat="44.71284" lon="4.85672">
        <ele>452.8</ele>
        <time>2021-07-10T07:21:35</time>
      </trkpt>
      <trkpt lat="44.71278" lon="4.85665">
        <ele>452.6</ele>
        <time>2021-07-10T07:21:36</time>
      </trkpt>
      <trkpt lat="44.71278" lon="4.85665">
        <ele>452.4</ele>
        <time>2021-07-10T07:21:37</time>
      </trkpt>
      <trkpt lat="44.71277" lon="4.8566">
        <ele>452.2</ele>
        <time>2021-07-10T07:21:38</time>
      </trkpt>
      <trkpt lat="44.71279" lon="4.85657">
        <ele>452</ele>
        <time>2021-07-10T07:21:39</time>
      </trkpt>
      <trkpt lat="44.71279" lon="4.85657">
        <ele>451.8</ele>
        <time>2021-07-10T07:21:40</time>
      </trkpt>
      <trkpt lat="44.71281" lon="4.85652">
        <ele>451.6</ele>
        <time>2021-07-10T07:21:41</time>
      </trkpt>
      <trkpt lat="44.71282" lon="4.85649">
        <ele>451.2</ele>
        <time>2021-07-10T07:21:42</time>
      </trkpt>
      <trkpt lat="44.71283" lon="4.85645">
        <ele>450.8</ele>
        <time>2021-07-10T07:21:43</time>
      </trkpt>
      <trkpt lat="44.71285" lon="4.85638">
        <ele>450.6</ele>
        <time>2021-07-10T07:21:44</time>
      </trkpt>
      <trkpt lat="44.71285" lon="4.85634">
        <ele>450</ele>
        <time>2021-07-10T07:21:45</time>
      </trkpt>
      <trkpt lat="44.71285" lon="4.85634">
        <ele>449.6</ele>
        <time>2021-07-10T07:21:46</time>
      </trkpt>
      <trkpt lat="44.71286" lon="4.85627">
        <ele>449.2</ele>
        <time>2021-07-10T07:21:47</time>
      </trkpt>
      <trkpt lat="44.71282" lon="4.85622">
        <ele>448.8</ele>
        <time>2021-07-10T07:21:48</time>
      </trkpt>
      <trkpt lat="44.71281" lon="4.85617">
        <ele>448.4</ele>
        <time>2021-07-10T07:21:49</time>
      </trkpt>
      <trkpt lat="44.71278" lon="4.85608">
        <ele>448.2</ele>
        <time>2021-07-10T07:21:50</time>
      </trkpt>
      <trkpt lat="44.71278" lon="4.85604">
        <ele>448</ele>
        <time>2021-07-10T07:21:51</time>
      </trkpt>
      <trkpt lat="44.71278" lon="4.85604">
        <ele>447.8</ele>
        <time>2021-07-10T07:21:52</time>
      </trkpt>
      <trkpt lat="44.7128" lon="4.85593">
        <ele>447.8</ele>
        <time>2021-07-10T07:21:53</time>
      </trkpt>
      <trkpt lat="44.71276" lon="4.85591">
        <ele>447.8</ele>
        <time>2021-07-10T07:21:54</time>
      </trkpt>
      <trkpt lat="44.71274" lon="4.85588">
        <ele>447.8</ele>
        <time>2021-07-10T07:21:55</time>
      </trkpt>
      <trkpt lat="44.71274" lon="4.85587">
        <ele>448</ele>
        <time>2021-07-10T07:21:56</time>
      </trkpt>
      <trkpt lat="44.71272" lon="4.85584">
        <ele>448.2</ele>
        <time>2021-07-10T07:21:57</time>
      </trkpt>
      <trkpt lat="44.7127" lon="4.85583">
        <ele>448.4</ele>
        <time>2021-07-10T07:21:58</time>
      </trkpt>
      <trkpt lat="44.7127" lon="4.85583">
        <ele>448.4</ele>
        <time>2021-07-10T07:21:59</time>
      </trkpt>
      <trkpt lat="44.71267" lon="4.85579">
        <ele>448.6</ele>
        <time>2021-07-10T07:22:00</time>
      </trkpt>
      <trkpt lat="44.71266" lon="4.85575">
        <ele>448.8</ele>
        <time>2021-07-10T07:22:01</time>
      </trkpt>
      <trkpt lat="44.71266" lon="4.85572">
        <ele>449</ele>
        <time>2021-07-10T07:22:02</time>
      </trkpt>
      <trkpt lat="44.71262" lon="4.85569">
        <ele>449</ele>
        <time>2021-07-10T07:22:03</time>
      </trkpt>
      <trkpt lat="44.71261" lon="4.85568">
        <ele>449.2</ele>
        <time>2021-07-10T07:22:04</time>
      </trkpt>
      <trkpt lat="44.71261" lon="4.85568">
        <ele>449.6</ele>
        <time>2021-07-10T07:22:05</time>
      </trkpt>
      <trkpt lat="44.71259" lon="4.85566">
        <ele>449.6</ele>
        <time>2021-07-10T07:22:06</time>
      </trkpt>
      <trkpt lat="44.71258" lon="4.85564">
        <ele>449.8</ele>
        <time>2021-07-10T07:22:07</time>
      </trkpt>
      <trkpt lat="44.71258" lon="4.85564">
        <ele>450</ele>
        <time>2021-07-10T07:22:08</time>
      </trkpt>
      <trkpt lat="44.71259" lon="4.85564">
        <ele>450.2</ele>
        <time>2021-07-10T07:22:09</time>
      </trkpt>
      <trkpt lat="44.71261" lon="4.85564">
        <ele>450.2</ele>
        <time>2021-07-10T07:22:10</time>
      </trkpt>
      <trkpt lat="44.71261" lon="4.85564">
        <ele>450.2</ele>
        <time>2021-07-10T07:22:11</time>
      </trkpt>
      <trkpt lat="44.71257" lon="4.85563">
        <ele>450.2</ele>
        <time>2021-07-10T07:22:12</time>
      </trkpt>
      <trkpt lat="44.71257" lon="4.85563">
        <ele>450.2</ele>
        <time>2021-07-10T07:22:13</time>
      </trkpt>
      <trkpt lat="44.71257" lon="4.85562">
        <ele>450.2</ele>
        <time>2021-07-10T07:22:14</time>
      </trkpt>
      <trkpt lat="44.71254" lon="4.85562">
        <ele>450.2</ele>
        <time>2021-07-10T07:22:15</time>
      </trkpt>
      <trkpt lat="44.71254" lon="4.85514">
        <ele>450.2</ele>
        <time>2021-07-10T07:22:52</time>
      </trkpt>
      <trkpt lat="44.71254" lon="4.85501">
        <ele>450.2</ele>
        <time>2021-07-10T07:22:53</time>
      </trkpt>
      <trkpt lat="44.71255" lon="4.85497">
        <ele>450.2</ele>
        <time>2021-07-10T07:22:54</time>
      </trkpt>
      <trkpt lat="44.71255" lon="4.85497">
        <ele>450.2</ele>
        <time>2021-07-10T07:22:55</time>
      </trkpt>
      <trkpt lat="44.71255" lon="4.85495">
        <ele>450.4</ele>
        <time>2021-07-10T07:22:56</time>
      </trkpt>
      <trkpt lat="44.71251" lon="4.85486">
        <ele>450.4</ele>
        <time>2021-07-10T07:22:57</time>
      </trkpt>
      <trkpt lat="44.71251" lon="4.85486">
        <ele>450.4</ele>
        <time>2021-07-10T07:22:58</time>
      </trkpt>
      <trkpt lat="44.71249" lon="4.85481">
        <ele>450.6</ele>
        <time>2021-07-10T07:22:59</time>
      </trkpt>
      <trkpt lat="44.71247" lon="4.85475">
        <ele>450.8</ele>
        <time>2021-07-10T07:23:00</time>
      </trkpt>
      <trkpt lat="44.71247" lon="4.85475">
        <ele>451</ele>
        <time>2021-07-10T07:23:01</time>
      </trkpt>
      <trkpt lat="44.7125" lon="4.85467">
        <ele>451</ele>
        <time>2021-07-10T07:23:02</time>
      </trkpt>
      <trkpt lat="44.7125" lon="4.85467">
        <ele>451</ele>
        <time>2021-07-10T07:23:03</time>
      </trkpt>
      <trkpt lat="44.71252" lon="4.85464">
        <ele>451</ele>
        <time>2021-07-10T07:23:04</time>
      </trkpt>
      <trkpt lat="44.71253" lon="4.85462">
        <ele>451</ele>
        <time>2021-07-10T07:23:05</time>
      </trkpt>
      <trkpt lat="44.71255" lon="4.85461">
        <ele>451</ele>
        <time>2021-07-10T07:23:06</time>
      </trkpt>
      <trkpt lat="44.71256" lon="4.85457">
        <ele>451</ele>
        <time>2021-07-10T07:23:07</time>
      </trkpt>
      <trkpt lat="44.71256" lon="4.85457">
        <ele>450.8</ele>
        <time>2021-07-10T07:23:08</time>
      </trkpt>
      <trkpt lat="44.71256" lon="4.85454">
        <ele>450.8</ele>
        <time>2021-07-10T07:23:09</time>
      </trkpt>
      <trkpt lat="44.71255" lon="4.8545">
        <ele>450.6</ele>
        <time>2021-07-10T07:23:10</time>
      </trkpt>
      <trkpt lat="44.71257" lon="4.85446">
        <ele>450.2</ele>
        <time>2021-07-10T07:23:11</time>
      </trkpt>
      <trkpt lat="44.71257" lon="4.85442">
        <ele>449.8</ele>
        <time>2021-07-10T07:23:12</time>
      </trkpt>
      <trkpt lat="44.71257" lon="4.8544">
        <ele>449.4</ele>
        <time>2021-07-10T07:23:13</time>
      </trkpt>
      <trkpt lat="44.71257" lon="4.8544">
        <ele>449</ele>
        <time>2021-07-10T07:23:14</time>
      </trkpt>
      <trkpt lat="44.71262" lon="4.85436">
        <ele>448.6</ele>
        <time>2021-07-10T07:23:15</time>
      </trkpt>
      <trkpt lat="44.7126" lon="4.85431">
        <ele>448.4</ele>
        <time>2021-07-10T07:23:16</time>
      </trkpt>
      <trkpt lat="44.7126" lon="4.85431">
        <ele>448.2</ele>
        <time>2021-07-10T07:23:17</time>
      </trkpt>
      <trkpt lat="44.71262" lon="4.8543">
        <ele>448</ele>
        <time>2021-07-10T07:23:18</time>
      </trkpt>
      <trkpt lat="44.71259" lon="4.85418">
        <ele>448</ele>
        <time>2021-07-10T07:23:19</time>
      </trkpt>
      <trkpt lat="44.71259" lon="4.85418">
        <ele>448</ele>
        <time>2021-07-10T07:23:20</time>
      </trkpt>
      <trkpt lat="44.71256" lon="4.85418">
        <ele>448</ele>
        <time>2021-07-10T07:23:21</time>
      </trkpt>
      <trkpt lat="44.71255" lon="4.85415">
        <ele>448.2</ele>
        <time>2021-07-10T07:23:22</time>
      </trkpt>
      <trkpt lat="44.71251" lon="4.8541">
        <ele>448.2</ele>
        <time>2021-07-10T07:23:23</time>
      </trkpt>
      <trkpt lat="44.71251" lon="4.8541">
        <ele>448.2</ele>
        <time>2021-07-10T07:23:24</time>
      </trkpt>
      <trkpt lat="44.71249" lon="4.85404">
        <ele>448.2</ele>
        <time>2021-07-10T07:23:25</time>
      </trkpt>
      <trkpt lat="44.71249" lon="4.85404">
        <ele>448.2</ele>
        <time>2021-07-10T07:23:26</time>
      </trkpt>
      <trkpt lat="44.71246" lon="4.854">
        <ele>448.2</ele>
        <time>2021-07-10T07:23:27</time>
      </trkpt>
      <trkpt lat="44.7124" lon="4.8539">
        <ele>448</ele>
        <time>2021-07-10T07:23:28</time>
      </trkpt>
      <trkpt lat="44.7124" lon="4.8539">
        <ele>448</ele>
        <time>2021-07-10T07:23:29</time>
      </trkpt>
      <trkpt lat="44.71239" lon="4.85378">
        <ele>447.8</ele>
        <time>2021-07-10T07:23:30</time>
      </trkpt>
      <trkpt lat="44.71239" lon="4.85378">
        <ele>447.4</ele>
        <time>2021-07-10T07:23:31</time>
      </trkpt>
      <trkpt lat="44.71239" lon="4.85369">
        <ele>447.2</ele>
        <time>2021-07-10T07:23:32</time>
      </trkpt>
      <trkpt lat="44.71235" lon="4.85362">
        <ele>446.8</ele>
        <time>2021-07-10T07:23:33</time>
      </trkpt>
      <trkpt lat="44.71235" lon="4.85362">
        <ele>446.4</ele>
        <time>2021-07-10T07:23:34</time>
      </trkpt>
      <trkpt lat="44.71233" lon="4.85353">
        <ele>446</ele>
        <time>2021-07-10T07:23:35</time>
      </trkpt>
      <trkpt lat="44.71231" lon="4.85347">
        <ele>445.6</ele>
        <time>2021-07-10T07:23:36</time>
      </trkpt>
      <trkpt lat="44.71231" lon="4.85338">
        <ele>445</ele>
        <time>2021-07-10T07:23:37</time>
      </trkpt>
      <trkpt lat="44.71224" lon="4.85325">
        <ele>444.4</ele>
        <time>2021-07-10T07:23:38</time>
      </trkpt>
      <trkpt lat="44.71224" lon="4.85325">
        <ele>443.6</ele>
        <time>2021-07-10T07:23:39</time>
      </trkpt>
      <trkpt lat="44.71222" lon="4.85319">
        <ele>443.2</ele>
        <time>2021-07-10T07:23:40</time>
      </trkpt>
      <trkpt lat="44.71223" lon="4.85315">
        <ele>442.6</ele>
        <time>2021-07-10T07:23:41</time>
      </trkpt>
      <trkpt lat="44.71218" lon="4.85307">
        <ele>442</ele>
        <time>2021-07-10T07:23:42</time>
      </trkpt>
      <trkpt lat="44.71214" lon="4.85292">
        <ele>441.4</ele>
        <time>2021-07-10T07:23:43</time>
      </trkpt>
      <trkpt lat="44.71215" lon="4.85274">
        <ele>441</ele>
        <time>2021-07-10T07:23:44</time>
      </trkpt>
      <trkpt lat="44.71215" lon="4.85274">
        <ele>440.6</ele>
        <time>2021-07-10T07:23:45</time>
      </trkpt>
      <trkpt lat="44.71215" lon="4.85265">
        <ele>440.2</ele>
        <time>2021-07-10T07:23:46</time>
      </trkpt>
      <trkpt lat="44.71217" lon="4.85259">
        <ele>439.8</ele>
        <time>2021-07-10T07:23:47</time>
      </trkpt>
      <trkpt lat="44.71219" lon="4.85252">
        <ele>439.6</ele>
        <time>2021-07-10T07:23:48</time>
      </trkpt>
      <trkpt lat="44.71217" lon="4.85245">
        <ele>439.4</ele>
        <time>2021-07-10T07:23:49</time>
      </trkpt>
      <trkpt lat="44.71215" lon="4.85234">
        <ele>439.4</ele>
        <time>2021-07-10T07:23:50</time>
      </trkpt>
      <trkpt lat="44.71215" lon="4.85234">
        <ele>439.4</ele>
        <time>2021-07-10T07:23:52</time>
      </trkpt>
      <trkpt lat="44.71214" lon="4.85221">
        <ele>439.6</ele>
        <time>2021-07-10T07:23:53</time>
      </trkpt>
      <trkpt lat="44.71213" lon="4.85217">
        <ele>439.8</ele>
        <time>2021-07-10T07:23:54</time>
      </trkpt>
      <trkpt lat="44.71214" lon="4.8521">
        <ele>440.2</ele>
        <time>2021-07-10T07:23:55</time>
      </trkpt>
      <trkpt lat="44.71214" lon="4.8521">
        <ele>440.2</ele>
        <time>2021-07-10T07:23:56</time>
      </trkpt>
      <trkpt lat="44.71214" lon="4.85205">
        <ele>440.2</ele>
        <time>2021-07-10T07:23:57</time>
      </trkpt>
      <trkpt lat="44.71213" lon="4.85201">
        <ele>440.4</ele>
        <time>2021-07-10T07:23:58</time>
      </trkpt>
      <trkpt lat="44.71214" lon="4.85197">
        <ele>440.4</ele>
        <time>2021-07-10T07:23:59</time>
      </trkpt>
      <trkpt lat="44.71215" lon="4.85196">
        <ele>440.4</ele>
        <time>2021-07-10T07:24:00</time>
      </trkpt>
      <trkpt lat="44.71214" lon="4.85195">
        <ele>440.6</ele>
        <time>2021-07-10T07:24:01</time>
      </trkpt>
      <trkpt lat="44.71214" lon="4.85196">
        <ele>440.6</ele>
        <time>2021-07-10T07:24:02</time>
      </trkpt>
      <trkpt lat="44.71214" lon="4.85191">
        <ele>440.8</ele>
        <time>2021-07-10T07:24:03</time>
      </trkpt>
      <trkpt lat="44.71216" lon="4.85183">
        <ele>440.8</ele>
        <time>2021-07-10T07:24:04</time>
      </trkpt>
      <trkpt lat="44.71216" lon="4.85183">
        <ele>441</ele>
        <time>2021-07-10T07:24:05</time>
      </trkpt>
      <trkpt lat="44.71218" lon="4.85177">
        <ele>441</ele>
        <time>2021-07-10T07:24:06</time>
      </trkpt>
      <trkpt lat="44.71218" lon="4.85172">
        <ele>441</ele>
        <time>2021-07-10T07:24:07</time>
      </trkpt>
      <trkpt lat="44.71218" lon="4.85169">
        <ele>441.2</ele>
        <time>2021-07-10T07:24:08</time>
      </trkpt>
      <trkpt lat="44.71218" lon="4.85165">
        <ele>441.2</ele>
        <time>2021-07-10T07:24:09</time>
      </trkpt>
      <trkpt lat="44.71219" lon="4.85164">
        <ele>441.2</ele>
        <time>2021-07-10T07:24:10</time>
      </trkpt>
      <trkpt lat="44.71221" lon="4.85162">
        <ele>441.4</ele>
        <time>2021-07-10T07:24:11</time>
      </trkpt>
      <trkpt lat="44.71224" lon="4.85156">
        <ele>441.6</ele>
        <time>2021-07-10T07:24:12</time>
      </trkpt>
      <trkpt lat="44.71224" lon="4.85154">
        <ele>441.8</ele>
        <time>2021-07-10T07:24:13</time>
      </trkpt>
      <trkpt lat="44.71225" lon="4.85153">
        <ele>442</ele>
        <time>2021-07-10T07:24:14</time>
      </trkpt>
      <trkpt lat="44.71225" lon="4.85149">
        <ele>442.2</ele>
        <time>2021-07-10T07:24:15</time>
      </trkpt>
      <trkpt lat="44.71226" lon="4.85147">
        <ele>442.4</ele>
        <time>2021-07-10T07:24:16</time>
      </trkpt>
      <trkpt lat="44.71229" lon="4.85144">
        <ele>442.6</ele>
        <time>2021-07-10T07:24:17</time>
      </trkpt>
      <trkpt lat="44.71229" lon="4.85144">
        <ele>442.8</ele>
        <time>2021-07-10T07:24:18</time>
      </trkpt>
      <trkpt lat="44.71229" lon="4.85143">
        <ele>443.2</ele>
        <time>2021-07-10T07:24:19</time>
      </trkpt>
      <trkpt lat="44.7123" lon="4.85142">
        <ele>443.4</ele>
        <time>2021-07-10T07:24:20</time>
      </trkpt>
      <trkpt lat="44.71233" lon="4.8514">
        <ele>443.6</ele>
        <time>2021-07-10T07:24:21</time>
      </trkpt>
      <trkpt lat="44.71235" lon="4.85138">
        <ele>444</ele>
        <time>2021-07-10T07:24:22</time>
      </trkpt>
      <trkpt lat="44.71237" lon="4.85137">
        <ele>444.2</ele>
        <time>2021-07-10T07:24:23</time>
      </trkpt>
      <trkpt lat="44.7124" lon="4.85135">
        <ele>444.6</ele>
        <time>2021-07-10T07:24:24</time>
      </trkpt>
      <trkpt lat="44.71242" lon="4.85136">
        <ele>444.8</ele>
        <time>2021-07-10T07:24:25</time>
      </trkpt>
      <trkpt lat="44.71242" lon="4.85136">
        <ele>445</ele>
        <time>2021-07-10T07:24:26</time>
      </trkpt>
      <trkpt lat="44.71241" lon="4.85134">
        <ele>445.2</ele>
        <time>2021-07-10T07:24:27</time>
      </trkpt>
      <trkpt lat="44.71246" lon="4.8513">
        <ele>445.4</ele>
        <time>2021-07-10T07:24:28</time>
      </trkpt>
      <trkpt lat="44.71247" lon="4.8513">
        <ele>445.6</ele>
        <time>2021-07-10T07:24:29</time>
      </trkpt>
      <trkpt lat="44.71247" lon="4.85127">
        <ele>445.8</ele>
        <time>2021-07-10T07:24:30</time>
      </trkpt>
      <trkpt lat="44.71248" lon="4.85124">
        <ele>446</ele>
        <time>2021-07-10T07:24:31</time>
      </trkpt>
      <trkpt lat="44.71249" lon="4.8512">
        <ele>446.2</ele>
        <time>2021-07-10T07:24:32</time>
      </trkpt>
      <trkpt lat="44.71249" lon="4.8512">
        <ele>446.4</ele>
        <time>2021-07-10T07:24:33</time>
      </trkpt>
      <trkpt lat="44.7125" lon="4.8512">
        <ele>446.8</ele>
        <time>2021-07-10T07:24:34</time>
      </trkpt>
      <trkpt lat="44.7125" lon="4.85117">
        <ele>447</ele>
        <time>2021-07-10T07:24:35</time>
      </trkpt>
      <trkpt lat="44.71251" lon="4.85115">
        <ele>447.2</ele>
        <time>2021-07-10T07:24:36</time>
      </trkpt>
      <trkpt lat="44.71251" lon="4.85114">
        <ele>447.4</ele>
        <time>2021-07-10T07:24:37</time>
      </trkpt>
      <trkpt lat="44.71251" lon="4.85114">
        <ele>447.8</ele>
        <time>2021-07-10T07:24:38</time>
      </trkpt>
      <trkpt lat="44.71251" lon="4.85113">
        <ele>448</ele>
        <time>2021-07-10T07:24:39</time>
      </trkpt>
      <trkpt lat="44.71249" lon="4.8511">
        <ele>448.2</ele>
        <time>2021-07-10T07:24:40</time>
      </trkpt>
      <trkpt lat="44.71251" lon="4.85109">
        <ele>448.4</ele>
        <time>2021-07-10T07:24:41</time>
      </trkpt>
      <trkpt lat="44.7125" lon="4.85098">
        <ele>448.6</ele>
        <time>2021-07-10T07:24:42</time>
      </trkpt>
      <trkpt lat="44.7125" lon="4.85098">
        <ele>449</ele>
        <time>2021-07-10T07:24:43</time>
      </trkpt>
      <trkpt lat="44.71251" lon="4.85094">
        <ele>449.2</ele>
        <time>2021-07-10T07:24:44</time>
      </trkpt>
      <trkpt lat="44.7125" lon="4.85091">
        <ele>449.6</ele>
        <time>2021-07-10T07:24:45</time>
      </trkpt>
      <trkpt lat="44.71247" lon="4.85082">
        <ele>450.8</ele>
        <time>2021-07-10T07:24:50</time>
      </trkpt>
      <trkpt lat="44.71245" lon="4.85081">
        <ele>451</ele>
        <time>2021-07-10T07:24:51</time>
      </trkpt>
      <trkpt lat="44.71244" lon="4.85082">
        <ele>451.2</ele>
        <time>2021-07-10T07:24:52</time>
      </trkpt>
      <trkpt lat="44.71245" lon="4.85077">
        <ele>451.6</ele>
        <time>2021-07-10T07:24:53</time>
      </trkpt>
      <trkpt lat="44.71245" lon="4.85077">
        <ele>451.8</ele>
        <time>2021-07-10T07:24:54</time>
      </trkpt>
      <trkpt lat="44.71245" lon="4.85076">
        <ele>452</ele>
        <time>2021-07-10T07:24:55</time>
      </trkpt>
      <trkpt lat="44.71245" lon="4.85073">
        <ele>452.2</ele>
        <time>2021-07-10T07:24:56</time>
      </trkpt>
      <trkpt lat="44.71245" lon="4.8507">
        <ele>452.4</ele>
        <time>2021-07-10T07:24:57</time>
      </trkpt>
      <trkpt lat="44.71245" lon="4.85066">
        <ele>452.6</ele>
        <time>2021-07-10T07:24:58</time>
      </trkpt>
      <trkpt lat="44.71245" lon="4.85066">
        <ele>452.8</ele>
        <time>2021-07-10T07:24:59</time>
      </trkpt>
      <trkpt lat="44.71243" lon="4.85062">
        <ele>453</ele>
        <time>2021-07-10T07:25:00</time>
      </trkpt>
      <trkpt lat="44.71242" lon="4.85059">
        <ele>453.2</ele>
        <time>2021-07-10T07:25:01</time>
      </trkpt>
      <trkpt lat="44.71242" lon="4.85059">
        <ele>453.4</ele>
        <time>2021-07-10T07:25:02</time>
      </trkpt>
      <trkpt lat="44.7124" lon="4.85057">
        <ele>453.6</ele>
        <time>2021-07-10T07:25:03</time>
      </trkpt>
      <trkpt lat="44.71241" lon="4.85054">
        <ele>454</ele>
        <time>2021-07-10T07:25:04</time>
      </trkpt>
      <trkpt lat="44.7124" lon="4.85051">
        <ele>454.2</ele>
        <time>2021-07-10T07:25:05</time>
      </trkpt>
      <trkpt lat="44.7124" lon="4.85051">
        <ele>454.2</ele>
        <time>2021-07-10T07:25:06</time>
      </trkpt>
      <trkpt lat="44.7124" lon="4.85052">
        <ele>454.4</ele>
        <time>2021-07-10T07:25:07</time>
      </trkpt>
      <trkpt lat="44.71238" lon="4.85049">
        <ele>454.6</ele>
        <time>2021-07-10T07:25:08</time>
      </trkpt>
      <trkpt lat="44.71237" lon="4.85047">
        <ele>454.8</ele>
        <time>2021-07-10T07:25:09</time>
      </trkpt>
      <trkpt lat="44.71237" lon="4.85043">
        <ele>455</ele>
        <time>2021-07-10T07:25:10</time>
      </trkpt>
      <trkpt lat="44.71235" lon="4.85039">
        <ele>455.2</ele>
        <time>2021-07-10T07:25:11</time>
      </trkpt>
      <trkpt lat="44.71234" lon="4.85037">
        <ele>455.4</ele>
        <time>2021-07-10T07:25:12</time>
      </trkpt>
      <trkpt lat="44.71233" lon="4.85033">
        <ele>455.6</ele>
        <time>2021-07-10T07:25:13</time>
      </trkpt>
      <trkpt lat="44.71233" lon="4.85033">
        <ele>455.8</ele>
        <time>2021-07-10T07:25:14</time>
      </trkpt>
      <trkpt lat="44.71233" lon="4.85032">
        <ele>456</ele>
        <time>2021-07-10T07:25:15</time>
      </trkpt>
      <trkpt lat="44.71232" lon="4.85032">
        <ele>456</ele>
        <time>2021-07-10T07:25:16</time>
      </trkpt>
      <trkpt lat="44.7123" lon="4.85032">
        <ele>456.2</ele>
        <time>2021-07-10T07:25:17</time>
      </trkpt>
      <trkpt lat="44.71228" lon="4.8503">
        <ele>456.2</ele>
        <time>2021-07-10T07:25:18</time>
      </trkpt>
      <trkpt lat="44.71228" lon="4.85026">
        <ele>456.4</ele>
        <time>2021-07-10T07:25:19</time>
      </trkpt>
      <trkpt lat="44.71226" lon="4.85025">
        <ele>456.6</ele>
        <time>2021-07-10T07:25:20</time>
      </trkpt>
      <trkpt lat="44.71226" lon="4.85021">
        <ele>456.6</ele>
        <time>2021-07-10T07:25:21</time>
      </trkpt>
      <trkpt lat="44.71225" lon="4.85019">
        <ele>456.8</ele>
        <time>2021-07-10T07:25:22</time>
      </trkpt>
      <trkpt lat="44.71225" lon="4.85017">
        <ele>457</ele>
        <time>2021-07-10T07:25:23</time>
      </trkpt>
      <trkpt lat="44.71223" lon="4.85015">
        <ele>457.2</ele>
        <time>2021-07-10T07:25:24</time>
      </trkpt>
      <trkpt lat="44.71223" lon="4.85013">
        <ele>457.2</ele>
        <time>2021-07-10T07:25:25</time>
      </trkpt>
      <trkpt lat="44.71225" lon="4.85009">
        <ele>457.2</ele>
        <time>2021-07-10T07:25:26</time>
      </trkpt>
      <trkpt lat="44.71223" lon="4.85004">
        <ele>457.4</ele>
        <time>2021-07-10T07:25:27</time>
      </trkpt>
      <trkpt lat="44.7122" lon="4.85003">
        <ele>457.4</ele>
        <time>2021-07-10T07:25:28</time>
      </trkpt>
      <trkpt lat="44.7122" lon="4.85003">
        <ele>457.4</ele>
        <time>2021-07-10T07:25:29</time>
      </trkpt>
      <trkpt lat="44.71218" lon="4.85001">
        <ele>457.4</ele>
        <time>2021-07-10T07:25:30</time>
      </trkpt>
      <trkpt lat="44.71216" lon="4.84997">
        <ele>457.6</ele>
        <time>2021-07-10T07:25:31</time>
      </trkpt>
      <trkpt lat="44.71216" lon="4.84997">
        <ele>457.6</ele>
        <time>2021-07-10T07:25:32</time>
      </trkpt>
      <trkpt lat="44.71213" lon="4.84994">
        <ele>457.6</ele>
        <time>2021-07-10T07:25:33</time>
      </trkpt>
      <trkpt lat="44.71211" lon="4.84989">
        <ele>457.6</ele>
        <time>2021-07-10T07:25:34</time>
      </trkpt>
      <trkpt lat="44.71211" lon="4.84985">
        <ele>457.8</ele>
        <time>2021-07-10T07:25:35</time>
      </trkpt>
      <trkpt lat="44.71211" lon="4.84984">
        <ele>457.8</ele>
        <time>2021-07-10T07:25:36</time>
      </trkpt>
      <trkpt lat="44.71213" lon="4.84981">
        <ele>458</ele>
        <time>2021-07-10T07:25:37</time>
      </trkpt>
      <trkpt lat="44.71213" lon="4.84979">
        <ele>458.2</ele>
        <time>2021-07-10T07:25:38</time>
      </trkpt>
      <trkpt lat="44.71213" lon="4.84975">
        <ele>458.2</ele>
        <time>2021-07-10T07:25:39</time>
      </trkpt>
      <trkpt lat="44.71213" lon="4.84975">
        <ele>458.4</ele>
        <time>2021-07-10T07:25:40</time>
      </trkpt>
      <trkpt lat="44.71212" lon="4.84965">
        <ele>458.6</ele>
        <time>2021-07-10T07:25:41</time>
      </trkpt>
      <trkpt lat="44.71212" lon="4.84965">
        <ele>458.8</ele>
        <time>2021-07-10T07:25:42</time>
      </trkpt>
      <trkpt lat="44.71213" lon="4.84964">
        <ele>459</ele>
        <time>2021-07-10T07:25:43</time>
      </trkpt>
      <trkpt lat="44.71214" lon="4.84961">
        <ele>459.2</ele>
        <time>2021-07-10T07:25:44</time>
      </trkpt>
      <trkpt lat="44.71215" lon="4.84961">
        <ele>459.2</ele>
        <time>2021-07-10T07:25:45</time>
      </trkpt>
      <trkpt lat="44.71215" lon="4.84958">
        <ele>459.4</ele>
        <time>2021-07-10T07:25:46</time>
      </trkpt>
      <trkpt lat="44.71214" lon="4.84951">
        <ele>459.4</ele>
        <time>2021-07-10T07:25:47</time>
      </trkpt>
      <trkpt lat="44.71215" lon="4.84948">
        <ele>459.6</ele>
        <time>2021-07-10T07:25:48</time>
      </trkpt>
      <trkpt lat="44.71216" lon="4.84945">
        <ele>459.6</ele>
        <time>2021-07-10T07:25:49</time>
      </trkpt>
      <trkpt lat="44.71215" lon="4.84943">
        <ele>459.8</ele>
        <time>2021-07-10T07:25:50</time>
      </trkpt>
      <trkpt lat="44.71211" lon="4.84937">
        <ele>459.8</ele>
        <time>2021-07-10T07:25:51</time>
      </trkpt>
      <trkpt lat="44.71211" lon="4.84937">
        <ele>459.8</ele>
        <time>2021-07-10T07:25:52</time>
      </trkpt>
      <trkpt lat="44.71211" lon="4.84935">
        <ele>460</ele>
        <time>2021-07-10T07:25:53</time>
      </trkpt>
      <trkpt lat="44.71211" lon="4.84935">
        <ele>460</ele>
        <time>2021-07-10T07:25:54</time>
      </trkpt>
      <trkpt lat="44.71208" lon="4.8493">
        <ele>460</ele>
        <time>2021-07-10T07:25:55</time>
      </trkpt>
      <trkpt lat="44.71205" lon="4.84923">
        <ele>460.2</ele>
        <time>2021-07-10T07:25:56</time>
      </trkpt>
      <trkpt lat="44.71205" lon="4.84923">
        <ele>460.2</ele>
        <time>2021-07-10T07:25:57</time>
      </trkpt>
      <trkpt lat="44.71204" lon="4.8492">
        <ele>460.2</ele>
        <time>2021-07-10T07:25:58</time>
      </trkpt>
      <trkpt lat="44.71205" lon="4.84917">
        <ele>460.4</ele>
        <time>2021-07-10T07:25:59</time>
      </trkpt>
      <trkpt lat="44.71207" lon="4.84913">
        <ele>460.4</ele>
        <time>2021-07-10T07:26:00</time>
      </trkpt>
      <trkpt lat="44.71207" lon="4.84913">
        <ele>460.4</ele>
        <time>2021-07-10T07:26:01</time>
      </trkpt>
      <trkpt lat="44.71206" lon="4.84909">
        <ele>460.4</ele>
        <time>2021-07-10T07:26:02</time>
      </trkpt>
      <trkpt lat="44.71207" lon="4.84902">
        <ele>460.4</ele>
        <time>2021-07-10T07:26:03</time>
      </trkpt>
      <trkpt lat="44.71207" lon="4.84897">
        <ele>460.4</ele>
        <time>2021-07-10T07:26:04</time>
      </trkpt>
      <trkpt lat="44.71207" lon="4.84894">
        <ele>460.6</ele>
        <time>2021-07-10T07:26:05</time>
      </trkpt>
      <trkpt lat="44.71207" lon="4.84893">
        <ele>460.8</ele>
        <time>2021-07-10T07:26:06</time>
      </trkpt>
      <trkpt lat="44.71206" lon="4.84888">
        <ele>460.8</ele>
        <time>2021-07-10T07:26:07</time>
      </trkpt>
      <trkpt lat="44.71206" lon="4.84886">
        <ele>461</ele>
        <time>2021-07-10T07:26:08</time>
      </trkpt>
      <trkpt lat="44.71206" lon="4.84881">
        <ele>461.2</ele>
        <time>2021-07-10T07:26:09</time>
      </trkpt>
      <trkpt lat="44.71206" lon="4.84881">
        <ele>461.2</ele>
        <time>2021-07-10T07:26:10</time>
      </trkpt>
      <trkpt lat="44.71206" lon="4.84879">
        <ele>461.4</ele>
        <time>2021-07-10T07:26:11</time>
      </trkpt>
      <trkpt lat="44.71206" lon="4.84876">
        <ele>461.6</ele>
        <time>2021-07-10T07:26:12</time>
      </trkpt>
      <trkpt lat="44.71206" lon="4.84875">
        <ele>461.8</ele>
        <time>2021-07-10T07:26:13</time>
      </trkpt>
      <trkpt lat="44.71207" lon="4.84876">
        <ele>461.8</ele>
        <time>2021-07-10T07:26:14</time>
      </trkpt>
      <trkpt lat="44.71204" lon="4.84867">
        <ele>462</ele>
        <time>2021-07-10T07:26:15</time>
      </trkpt>
      <trkpt lat="44.71204" lon="4.84867">
        <ele>462.2</ele>
        <time>2021-07-10T07:26:16</time>
      </trkpt>
      <trkpt lat="44.71204" lon="4.84864">
        <ele>462.4</ele>
        <time>2021-07-10T07:26:17</time>
      </trkpt>
      <trkpt lat="44.71203" lon="4.84862">
        <ele>462.6</ele>
        <time>2021-07-10T07:26:18</time>
      </trkpt>
      <trkpt lat="44.71203" lon="4.84859">
        <ele>462.8</ele>
        <time>2021-07-10T07:26:19</time>
      </trkpt>
      <trkpt lat="44.71204" lon="4.84858">
        <ele>462.8</ele>
        <time>2021-07-10T07:26:20</time>
      </trkpt>
      <trkpt lat="44.71206" lon="4.84855">
        <ele>463</ele>
        <time>2021-07-10T07:26:21</time>
      </trkpt>
      <trkpt lat="44.71207" lon="4.84852">
        <ele>463</ele>
        <time>2021-07-10T07:26:22</time>
      </trkpt>
      <trkpt lat="44.71207" lon="4.84848">
        <ele>463.2</ele>
        <time>2021-07-10T07:26:23</time>
      </trkpt>
      <trkpt lat="44.71208" lon="4.84845">
        <ele>463.4</ele>
        <time>2021-07-10T07:26:24</time>
      </trkpt>
      <trkpt lat="44.71208" lon="4.84845">
        <ele>463.6</ele>
        <time>2021-07-10T07:26:25</time>
      </trkpt>
      <trkpt lat="44.71209" lon="4.84835">
        <ele>463.8</ele>
        <time>2021-07-10T07:26:26</time>
      </trkpt>
      <trkpt lat="44.71209" lon="4.84835">
        <ele>464</ele>
        <time>2021-07-10T07:26:27</time>
      </trkpt>
      <trkpt lat="44.71206" lon="4.84832">
        <ele>464.2</ele>
        <time>2021-07-10T07:26:28</time>
      </trkpt>
      <trkpt lat="44.71205" lon="4.84829">
        <ele>464.2</ele>
        <time>2021-07-10T07:26:29</time>
      </trkpt>
      <trkpt lat="44.71204" lon="4.84828">
        <ele>464.4</ele>
        <time>2021-07-10T07:26:30</time>
      </trkpt>
      <trkpt lat="44.71202" lon="4.84825">
        <ele>464.8</ele>
        <time>2021-07-10T07:26:31</time>
      </trkpt>
      <trkpt lat="44.71203" lon="4.84822">
        <ele>465</ele>
        <time>2021-07-10T07:26:32</time>
      </trkpt>
      <trkpt lat="44.71203" lon="4.84822">
        <ele>465.2</ele>
        <time>2021-07-10T07:26:33</time>
      </trkpt>
      <trkpt lat="44.71203" lon="4.8482">
        <ele>465.2</ele>
        <time>2021-07-10T07:26:34</time>
      </trkpt>
      <trkpt lat="44.71202" lon="4.84817">
        <ele>465.4</ele>
        <time>2021-07-10T07:26:35</time>
      </trkpt>
      <trkpt lat="44.71203" lon="4.84815">
        <ele>465.6</ele>
        <time>2021-07-10T07:26:36</time>
      </trkpt>
      <trkpt lat="44.71202" lon="4.84811">
        <ele>465.8</ele>
        <time>2021-07-10T07:26:37</time>
      </trkpt>
      <trkpt lat="44.71202" lon="4.84811">
        <ele>465.8</ele>
        <time>2021-07-10T07:26:38</time>
      </trkpt>
      <trkpt lat="44.71201" lon="4.84809">
        <ele>466</ele>
        <time>2021-07-10T07:26:39</time>
      </trkpt>
      <trkpt lat="44.71201" lon="4.84806">
        <ele>466.2</ele>
        <time>2021-07-10T07:26:40</time>
      </trkpt>
      <trkpt lat="44.71202" lon="4.848">
        <ele>466.4</ele>
        <time>2021-07-10T07:26:41</time>
      </trkpt>
      <trkpt lat="44.71202" lon="4.848">
        <ele>466.4</ele>
        <time>2021-07-10T07:26:42</time>
      </trkpt>
      <trkpt lat="44.71203" lon="4.84798">
        <ele>466.6</ele>
        <time>2021-07-10T07:26:43</time>
      </trkpt>
      <trkpt lat="44.71204" lon="4.84796">
        <ele>466.6</ele>
        <time>2021-07-10T07:26:44</time>
      </trkpt>
      <trkpt lat="44.71204" lon="4.84792">
        <ele>466.8</ele>
        <time>2021-07-10T07:26:45</time>
      </trkpt>
      <trkpt lat="44.71205" lon="4.8479">
        <ele>466.8</ele>
        <time>2021-07-10T07:26:46</time>
      </trkpt>
      <trkpt lat="44.71206" lon="4.84787">
        <ele>467</ele>
        <time>2021-07-10T07:26:47</time>
      </trkpt>
      <trkpt lat="44.71207" lon="4.84785">
        <ele>467</ele>
        <time>2021-07-10T07:26:48</time>
      </trkpt>
      <trkpt lat="44.71207" lon="4.84782">
        <ele>467.2</ele>
        <time>2021-07-10T07:26:49</time>
      </trkpt>
      <trkpt lat="44.71209" lon="4.8478">
        <ele>467.2</ele>
        <time>2021-07-10T07:26:50</time>
      </trkpt>
      <trkpt lat="44.7121" lon="4.84778">
        <ele>467.2</ele>
        <time>2021-07-10T07:26:51</time>
      </trkpt>
      <trkpt lat="44.71214" lon="4.84776">
        <ele>467.2</ele>
        <time>2021-07-10T07:26:52</time>
      </trkpt>
      <trkpt lat="44.71214" lon="4.84776">
        <ele>467.2</ele>
        <time>2021-07-10T07:26:53</time>
      </trkpt>
      <trkpt lat="44.71217" lon="4.84775">
        <ele>467.4</ele>
        <time>2021-07-10T07:26:54</time>
      </trkpt>
      <trkpt lat="44.71217" lon="4.84773">
        <ele>467.4</ele>
        <time>2021-07-10T07:26:55</time>
      </trkpt>
      <trkpt lat="44.71218" lon="4.84771">
        <ele>467.4</ele>
        <time>2021-07-10T07:26:56</time>
      </trkpt>
      <trkpt lat="44.71218" lon="4.8477">
        <ele>467.4</ele>
        <time>2021-07-10T07:26:57</time>
      </trkpt>
      <trkpt lat="44.71218" lon="4.84769">
        <ele>467.2</ele>
        <time>2021-07-10T07:26:58</time>
      </trkpt>
      <trkpt lat="44.71218" lon="4.84765">
        <ele>467.2</ele>
        <time>2021-07-10T07:26:59</time>
      </trkpt>
      <trkpt lat="44.71217" lon="4.84763">
        <ele>467.2</ele>
        <time>2021-07-10T07:27:00</time>
      </trkpt>
      <trkpt lat="44.71217" lon="4.84763">
        <ele>467</ele>
        <time>2021-07-10T07:27:01</time>
      </trkpt>
      <trkpt lat="44.71216" lon="4.84761">
        <ele>467</ele>
        <time>2021-07-10T07:27:02</time>
      </trkpt>
      <trkpt lat="44.71216" lon="4.84761">
        <ele>466.8</ele>
        <time>2021-07-10T07:27:03</time>
      </trkpt>
      <trkpt lat="44.71213" lon="4.84757">
        <ele>466.6</ele>
        <time>2021-07-10T07:27:04</time>
      </trkpt>
      <trkpt lat="44.71209" lon="4.84755">
        <ele>466.4</ele>
        <time>2021-07-10T07:27:05</time>
      </trkpt>
      <trkpt lat="44.71205" lon="4.84736">
        <ele>459.6</ele>
        <time>2021-07-10T07:27:14</time>
      </trkpt>
      <trkpt lat="44.71205" lon="4.84735">
        <ele>458.6</ele>
        <time>2021-07-10T07:27:15</time>
      </trkpt>
      <trkpt lat="44.71204" lon="4.84732">
        <ele>457.4</ele>
        <time>2021-07-10T07:27:16</time>
      </trkpt>
      <trkpt lat="44.71202" lon="4.8473">
        <ele>456.4</ele>
        <time>2021-07-10T07:27:17</time>
      </trkpt>
      <trkpt lat="44.712" lon="4.84728">
        <ele>455.4</ele>
        <time>2021-07-10T07:27:18</time>
      </trkpt>
      <trkpt lat="44.712" lon="4.84728">
        <ele>454.4</ele>
        <time>2021-07-10T07:27:19</time>
      </trkpt>
      <trkpt lat="44.712" lon="4.84726">
        <ele>453.4</ele>
        <time>2021-07-10T07:27:20</time>
      </trkpt>
      <trkpt lat="44.71198" lon="4.84723">
        <ele>452.4</ele>
        <time>2021-07-10T07:27:21</time>
      </trkpt>
      <trkpt lat="44.71198" lon="4.84723">
        <ele>451.6</ele>
        <time>2021-07-10T07:27:22</time>
      </trkpt>
      <trkpt lat="44.71198" lon="4.84724">
        <ele>450.8</ele>
        <time>2021-07-10T07:27:23</time>
      </trkpt>
      <trkpt lat="44.71197" lon="4.84724">
        <ele>450.2</ele>
        <time>2021-07-10T07:27:24</time>
      </trkpt>
      <trkpt lat="44.71194" lon="4.84722">
        <ele>449.4</ele>
        <time>2021-07-10T07:27:25</time>
      </trkpt>
      <trkpt lat="44.71193" lon="4.84721">
        <ele>448.6</ele>
        <time>2021-07-10T07:27:26</time>
      </trkpt>
      <trkpt lat="44.71188" lon="4.8472">
        <ele>447.6</ele>
        <time>2021-07-10T07:27:27</time>
      </trkpt>
      <trkpt lat="44.71183" lon="4.84717">
        <ele>446.8</ele>
        <time>2021-07-10T07:27:28</time>
      </trkpt>
      <trkpt lat="44.7118" lon="4.84717">
        <ele>446</ele>
        <time>2021-07-10T07:27:29</time>
      </trkpt>
      <trkpt lat="44.71165" lon="4.84653">
        <ele>423.8</ele>
        <time>2021-07-10T07:27:51</time>
      </trkpt>
      <trkpt lat="44.71167" lon="4.84647">
        <ele>422.6</ele>
        <time>2021-07-10T07:27:52</time>
      </trkpt>
      <trkpt lat="44.71166" lon="4.84639">
        <ele>421.2</ele>
        <time>2021-07-10T07:27:53</time>
      </trkpt>
      <trkpt lat="44.71168" lon="4.84632">
        <ele>420</ele>
        <time>2021-07-10T07:27:54</time>
      </trkpt>
      <trkpt lat="44.71167" lon="4.84626">
        <ele>418.8</ele>
        <time>2021-07-10T07:27:55</time>
      </trkpt>
      <trkpt lat="44.71168" lon="4.84618">
        <ele>417.6</ele>
        <time>2021-07-10T07:27:56</time>
      </trkpt>
      <trkpt lat="44.71168" lon="4.8461">
        <ele>416.4</ele>
        <time>2021-07-10T07:27:57</time>
      </trkpt>
      <trkpt lat="44.71169" lon="4.84603">
        <ele>415.2</ele>
        <time>2021-07-10T07:27:58</time>
      </trkpt>
      <trkpt lat="44.71169" lon="4.8459">
        <ele>414</ele>
        <time>2021-07-10T07:27:59</time>
      </trkpt>
      <trkpt lat="44.71169" lon="4.8459">
        <ele>412.6</ele>
        <time>2021-07-10T07:28:00</time>
      </trkpt>
      <trkpt lat="44.71169" lon="4.84583">
        <ele>411.4</ele>
        <time>2021-07-10T07:28:01</time>
      </trkpt>
      <trkpt lat="44.71167" lon="4.84574">
        <ele>410</ele>
        <time>2021-07-10T07:28:02</time>
      </trkpt>
      <trkpt lat="44.71168" lon="4.84568">
        <ele>408.4</ele>
        <time>2021-07-10T07:28:03</time>
      </trkpt>
      <trkpt lat="44.71169" lon="4.84564">
        <ele>407</ele>
        <time>2021-07-10T07:28:04</time>
      </trkpt>
      <trkpt lat="44.71167" lon="4.84546">
        <ele>405.6</ele>
        <time>2021-07-10T07:28:05</time>
      </trkpt>
      <trkpt lat="44.71167" lon="4.84546">
        <ele>404.2</ele>
        <time>2021-07-10T07:28:06</time>
      </trkpt>
      <trkpt lat="44.71167" lon="4.84538">
        <ele>402.8</ele>
        <time>2021-07-10T07:28:07</time>
      </trkpt>
      <trkpt lat="44.71168" lon="4.84533">
        <ele>401.4</ele>
        <time>2021-07-10T07:28:08</time>
      </trkpt>
      <trkpt lat="44.7117" lon="4.84526">
        <ele>399.8</ele>
        <time>2021-07-10T07:28:09</time>
      </trkpt>
      <trkpt lat="44.71171" lon="4.84521">
        <ele>398.4</ele>
        <time>2021-07-10T07:28:10</time>
      </trkpt>
      <trkpt lat="44.71172" lon="4.84516">
        <ele>397</ele>
        <time>2021-07-10T07:28:11</time>
      </trkpt>
      <trkpt lat="44.71172" lon="4.84511">
        <ele>395.8</ele>
        <time>2021-07-10T07:28:12</time>
      </trkpt>
      <trkpt lat="44.71173" lon="4.84503">
        <ele>394.4</ele>
        <time>2021-07-10T07:28:13</time>
      </trkpt>
      <trkpt lat="44.71175" lon="4.84495">
        <ele>393.2</ele>
        <time>2021-07-10T07:28:14</time>
      </trkpt>
      <trkpt lat="44.71175" lon="4.84495">
        <ele>392</ele>
        <time>2021-07-10T07:28:15</time>
      </trkpt>
      <trkpt lat="44.71175" lon="4.84491">
        <ele>390.8</ele>
        <time>2021-07-10T07:28:16</time>
      </trkpt>
      <trkpt lat="44.71175" lon="4.84486">
        <ele>389.6</ele>
        <time>2021-07-10T07:28:17</time>
      </trkpt>
      <trkpt lat="44.71176" lon="4.84482">
        <ele>388.2</ele>
        <time>2021-07-10T07:28:18</time>
      </trkpt>
      <trkpt lat="44.71177" lon="4.84478">
        <ele>387</ele>
        <time>2021-07-10T07:28:19</time>
      </trkpt>
      <trkpt lat="44.71178" lon="4.84474">
        <ele>385.6</ele>
        <time>2021-07-10T07:28:20</time>
      </trkpt>
      <trkpt lat="44.71178" lon="4.84469">
        <ele>384.2</ele>
        <time>2021-07-10T07:28:21</time>
      </trkpt>
      <trkpt lat="44.71179" lon="4.84465">
        <ele>382.8</ele>
        <time>2021-07-10T07:28:22</time>
      </trkpt>
      <trkpt lat="44.71182" lon="4.84461">
        <ele>381.2</ele>
        <time>2021-07-10T07:28:23</time>
      </trkpt>
      <trkpt lat="44.71182" lon="4.84461">
        <ele>379.8</ele>
        <time>2021-07-10T07:28:24</time>
      </trkpt>
      <trkpt lat="44.71184" lon="4.84455">
        <ele>378.2</ele>
        <time>2021-07-10T07:28:25</time>
      </trkpt>
      <trkpt lat="44.71184" lon="4.84451">
        <ele>376.8</ele>
        <time>2021-07-10T07:28:26</time>
      </trkpt>
      <trkpt lat="44.71185" lon="4.84447">
        <ele>375.2</ele>
        <time>2021-07-10T07:28:27</time>
      </trkpt>
      <trkpt lat="44.71185" lon="4.84444">
        <ele>373.6</ele>
        <time>2021-07-10T07:28:28</time>
      </trkpt>
      <trkpt lat="44.71185" lon="4.84437">
        <ele>372</ele>
        <time>2021-07-10T07:28:29</time>
      </trkpt>
      <trkpt lat="44.71185" lon="4.84429">
        <ele>370.6</ele>
        <time>2021-07-10T07:28:30</time>
      </trkpt>
      <trkpt lat="44.71185" lon="4.84421">
        <ele>369.2</ele>
        <time>2021-07-10T07:28:31</time>
      </trkpt>
      <trkpt lat="44.71185" lon="4.84421">
        <ele>368.2</ele>
        <time>2021-07-10T07:28:32</time>
      </trkpt>
      <trkpt lat="44.71185" lon="4.84415">
        <ele>367.4</ele>
        <time>2021-07-10T07:28:33</time>
      </trkpt>
      <trkpt lat="44.71187" lon="4.84408">
        <ele>366.6</ele>
        <time>2021-07-10T07:28:34</time>
      </trkpt>
      <trkpt lat="44.71187" lon="4.84408">
        <ele>365.6</ele>
        <time>2021-07-10T07:28:35</time>
      </trkpt>
      <trkpt lat="44.71187" lon="4.84402">
        <ele>364.6</ele>
        <time>2021-07-10T07:28:36</time>
      </trkpt>
      <trkpt lat="44.71189" lon="4.84398">
        <ele>363.4</ele>
        <time>2021-07-10T07:28:37</time>
      </trkpt>
      <trkpt lat="44.71189" lon="4.84394">
        <ele>362.4</ele>
        <time>2021-07-10T07:28:38</time>
      </trkpt>
      <trkpt lat="44.71192" lon="4.84391">
        <ele>361.2</ele>
        <time>2021-07-10T07:28:39</time>
      </trkpt>
      <trkpt lat="44.71193" lon="4.84386">
        <ele>360.2</ele>
        <time>2021-07-10T07:28:40</time>
      </trkpt>
      <trkpt lat="44.71195" lon="4.84383">
        <ele>359.2</ele>
        <time>2021-07-10T07:28:41</time>
      </trkpt>
      <trkpt lat="44.71197" lon="4.84375">
        <ele>358.2</ele>
        <time>2021-07-10T07:28:42</time>
      </trkpt>
      <trkpt lat="44.712" lon="4.84372">
        <ele>357</ele>
        <time>2021-07-10T07:28:43</time>
      </trkpt>
      <trkpt lat="44.71205" lon="4.84369">
        <ele>356</ele>
        <time>2021-07-10T07:28:44</time>
      </trkpt>
      <trkpt lat="44.7121" lon="4.84358">
        <ele>354.6</ele>
        <time>2021-07-10T07:28:45</time>
      </trkpt>
      <trkpt lat="44.7121" lon="4.84358">
        <ele>353.2</ele>
        <time>2021-07-10T07:28:46</time>
      </trkpt>
      <trkpt lat="44.71214" lon="4.84356">
        <ele>351.8</ele>
        <time>2021-07-10T07:28:47</time>
      </trkpt>
      <trkpt lat="44.71216" lon="4.84356">
        <ele>350.6</ele>
        <time>2021-07-10T07:28:48</time>
      </trkpt>
      <trkpt lat="44.71218" lon="4.84352">
        <ele>349.2</ele>
        <time>2021-07-10T07:28:49</time>
      </trkpt>
      <trkpt lat="44.71219" lon="4.84349">
        <ele>348.2</ele>
        <time>2021-07-10T07:28:50</time>
      </trkpt>
      <trkpt lat="44.71217" lon="4.84343">
        <ele>347.4</ele>
        <time>2021-07-10T07:28:51</time>
      </trkpt>
      <trkpt lat="44.71217" lon="4.84343">
        <ele>346.8</ele>
        <time>2021-07-10T07:28:52</time>
      </trkpt>
      <trkpt lat="44.71214" lon="4.8434">
        <ele>346</ele>
        <time>2021-07-10T07:28:53</time>
      </trkpt>
      <trkpt lat="44.71214" lon="4.84337">
        <ele>345.2</ele>
        <time>2021-07-10T07:28:54</time>
      </trkpt>
      <trkpt lat="44.7121" lon="4.8433">
        <ele>344.4</ele>
        <time>2021-07-10T07:28:55</time>
      </trkpt>
      <trkpt lat="44.71209" lon="4.84326">
        <ele>343.6</ele>
        <time>2021-07-10T07:28:56</time>
      </trkpt>
      <trkpt lat="44.71207" lon="4.84323">
        <ele>342.4</ele>
        <time>2021-07-10T07:28:57</time>
      </trkpt>
      <trkpt lat="44.71204" lon="4.84314">
        <ele>341.2</ele>
        <time>2021-07-10T07:28:58</time>
      </trkpt>
      <trkpt lat="44.71204" lon="4.84314">
        <ele>340</ele>
        <time>2021-07-10T07:28:59</time>
      </trkpt>
      <trkpt lat="44.71201" lon="4.84307">
        <ele>338.6</ele>
        <time>2021-07-10T07:29:00</time>
      </trkpt>
      <trkpt lat="44.712" lon="4.84302">
        <ele>337</ele>
        <time>2021-07-10T07:29:01</time>
      </trkpt>
      <trkpt lat="44.71198" lon="4.84297">
        <ele>335.6</ele>
        <time>2021-07-10T07:29:02</time>
      </trkpt>
      <trkpt lat="44.71196" lon="4.84288">
        <ele>334</ele>
        <time>2021-07-10T07:29:03</time>
      </trkpt>
      <trkpt lat="44.71196" lon="4.84288">
        <ele>332.4</ele>
        <time>2021-07-10T07:29:04</time>
      </trkpt>
      <trkpt lat="44.71196" lon="4.84284">
        <ele>331</ele>
        <time>2021-07-10T07:29:05</time>
      </trkpt>
      <trkpt lat="44.71195" lon="4.84282">
        <ele>329.4</ele>
        <time>2021-07-10T07:29:06</time>
      </trkpt>
      <trkpt lat="44.71189" lon="4.84265">
        <ele>327.8</ele>
        <time>2021-07-10T07:29:07</time>
      </trkpt>
      <trkpt lat="44.71189" lon="4.84265">
        <ele>326.2</ele>
        <time>2021-07-10T07:29:08</time>
      </trkpt>
      <trkpt lat="44.71185" lon="4.84251">
        <ele>324.8</ele>
        <time>2021-07-10T07:29:09</time>
      </trkpt>
      <trkpt lat="44.71185" lon="4.84251">
        <ele>323.2</ele>
        <time>2021-07-10T07:29:10</time>
      </trkpt>
      <trkpt lat="44.71184" lon="4.84246">
        <ele>321.8</ele>
        <time>2021-07-10T07:29:11</time>
      </trkpt>
      <trkpt lat="44.71181" lon="4.84241">
        <ele>320.2</ele>
        <time>2021-07-10T07:29:12</time>
      </trkpt>
      <trkpt lat="44.71179" lon="4.84232">
        <ele>318.8</ele>
        <time>2021-07-10T07:29:13</time>
      </trkpt>
      <trkpt lat="44.71179" lon="4.84232">
        <ele>317.4</ele>
        <time>2021-07-10T07:29:14</time>
      </trkpt>
      <trkpt lat="44.71178" lon="4.84228">
        <ele>316</ele>
        <time>2021-07-10T07:29:15</time>
      </trkpt>
      <trkpt lat="44.71178" lon="4.84225">
        <ele>314.8</ele>
        <time>2021-07-10T07:29:16</time>
      </trkpt>
      <trkpt lat="44.71175" lon="4.84219">
        <ele>313.6</ele>
        <time>2021-07-10T07:29:17</time>
      </trkpt>
      <trkpt lat="44.71175" lon="4.84216">
        <ele>312.4</ele>
        <time>2021-07-10T07:29:18</time>
      </trkpt>
      <trkpt lat="44.71172" lon="4.84213">
        <ele>311.2</ele>
        <time>2021-07-10T07:29:19</time>
      </trkpt>
      <trkpt lat="44.71168" lon="4.84203">
        <ele>310.2</ele>
        <time>2021-07-10T07:29:20</time>
      </trkpt>
      <trkpt lat="44.71168" lon="4.84203">
        <ele>309</ele>
        <time>2021-07-10T07:29:21</time>
      </trkpt>
      <trkpt lat="44.71165" lon="4.84198">
        <ele>307.8</ele>
        <time>2021-07-10T07:29:22</time>
      </trkpt>
      <trkpt lat="44.71167" lon="4.84195">
        <ele>306.6</ele>
        <time>2021-07-10T07:29:23</time>
      </trkpt>
      <trkpt lat="44.71168" lon="4.84192">
        <ele>305.4</ele>
        <time>2021-07-10T07:29:24</time>
      </trkpt>
      <trkpt lat="44.71169" lon="4.84186">
        <ele>304.2</ele>
        <time>2021-07-10T07:29:25</time>
      </trkpt>
      <trkpt lat="44.71169" lon="4.84181">
        <ele>303</ele>
        <time>2021-07-10T07:29:26</time>
      </trkpt>
      <trkpt lat="44.7117" lon="4.84176">
        <ele>301.8</ele>
        <time>2021-07-10T07:29:27</time>
      </trkpt>
      <trkpt lat="44.71169" lon="4.84167">
        <ele>300.6</ele>
        <time>2021-07-10T07:29:28</time>
      </trkpt>
      <trkpt lat="44.71166" lon="4.84158">
        <ele>299.4</ele>
        <time>2021-07-10T07:29:29</time>
      </trkpt>
      <trkpt lat="44.71165" lon="4.84152">
        <ele>298</ele>
        <time>2021-07-10T07:29:30</time>
      </trkpt>
      <trkpt lat="44.71161" lon="4.84143">
        <ele>296.6</ele>
        <time>2021-07-10T07:29:31</time>
      </trkpt>
      <trkpt lat="44.71161" lon="4.84143">
        <ele>295.6</ele>
        <time>2021-07-10T07:29:32</time>
      </trkpt>
      <trkpt lat="44.7116" lon="4.84142">
        <ele>294.6</ele>
        <time>2021-07-10T07:29:33</time>
      </trkpt>
      <trkpt lat="44.7116" lon="4.84139">
        <ele>293.8</ele>
        <time>2021-07-10T07:29:34</time>
      </trkpt>
      <trkpt lat="44.71158" lon="4.84135">
        <ele>293</ele>
        <time>2021-07-10T07:29:35</time>
      </trkpt>
      <trkpt lat="44.71157" lon="4.84132">
        <ele>292.4</ele>
        <time>2021-07-10T07:29:36</time>
      </trkpt>
      <trkpt lat="44.71156" lon="4.84129">
        <ele>291.8</ele>
        <time>2021-07-10T07:29:37</time>
      </trkpt>
      <trkpt lat="44.71155" lon="4.84127">
        <ele>291.2</ele>
        <time>2021-07-10T07:29:38</time>
      </trkpt>
      <trkpt lat="44.71155" lon="4.84122">
        <ele>290.8</ele>
        <time>2021-07-10T07:29:39</time>
      </trkpt>
      <trkpt lat="44.71155" lon="4.84122">
        <ele>290.4</ele>
        <time>2021-07-10T07:29:40</time>
      </trkpt>
      <trkpt lat="44.71156" lon="4.8412">
        <ele>290.2</ele>
        <time>2021-07-10T07:29:41</time>
      </trkpt>
      <trkpt lat="44.71156" lon="4.84118">
        <ele>290</ele>
        <time>2021-07-10T07:29:42</time>
      </trkpt>
      <trkpt lat="44.71156" lon="4.84118">
        <ele>289.8</ele>
        <time>2021-07-10T07:29:43</time>
      </trkpt>
      <trkpt lat="44.71154" lon="4.84115">
        <ele>289.8</ele>
        <time>2021-07-10T07:29:44</time>
      </trkpt>
      <trkpt lat="44.71134" lon="4.84054">
        <ele>282.6</ele>
        <time>2021-07-10T07:30:30</time>
      </trkpt>
      <trkpt lat="44.71133" lon="4.84049">
        <ele>282</ele>
        <time>2021-07-10T07:30:31</time>
      </trkpt>
      <trkpt lat="44.71134" lon="4.84044">
        <ele>281.2</ele>
        <time>2021-07-10T07:30:32</time>
      </trkpt>
      <trkpt lat="44.71134" lon="4.84037">
        <ele>280.4</ele>
        <time>2021-07-10T07:30:33</time>
      </trkpt>
      <trkpt lat="44.71136" lon="4.84031">
        <ele>279.8</ele>
        <time>2021-07-10T07:30:34</time>
      </trkpt>
      <trkpt lat="44.71136" lon="4.84025">
        <ele>279.2</ele>
        <time>2021-07-10T07:30:35</time>
      </trkpt>
      <trkpt lat="44.71136" lon="4.84019">
        <ele>278.8</ele>
        <time>2021-07-10T07:30:36</time>
      </trkpt>
      <trkpt lat="44.71138" lon="4.84005">
        <ele>278</ele>
        <time>2021-07-10T07:30:37</time>
      </trkpt>
      <trkpt lat="44.71138" lon="4.84005">
        <ele>277.2</ele>
        <time>2021-07-10T07:30:38</time>
      </trkpt>
      <trkpt lat="44.71137" lon="4.83998">
        <ele>276.6</ele>
        <time>2021-07-10T07:30:39</time>
      </trkpt>
      <trkpt lat="44.71137" lon="4.83992">
        <ele>275.4</ele>
        <time>2021-07-10T07:30:40</time>
      </trkpt>
      <trkpt lat="44.71137" lon="4.83986">
        <ele>274.2</ele>
        <time>2021-07-10T07:30:41</time>
      </trkpt>
      <trkpt lat="44.71136" lon="4.8398">
        <ele>273</ele>
        <time>2021-07-10T07:30:42</time>
      </trkpt>
      <trkpt lat="44.71136" lon="4.83974">
        <ele>272</ele>
        <time>2021-07-10T07:30:43</time>
      </trkpt>
      <trkpt lat="44.71137" lon="4.83968">
        <ele>271</ele>
        <time>2021-07-10T07:30:44</time>
      </trkpt>
      <trkpt lat="44.71135" lon="4.83962">
        <ele>269.8</ele>
        <time>2021-07-10T07:30:45</time>
      </trkpt>
      <trkpt lat="44.71134" lon="4.83955">
        <ele>268.6</ele>
        <time>2021-07-10T07:30:46</time>
      </trkpt>
      <trkpt lat="44.71134" lon="4.8395">
        <ele>267.2</ele>
        <time>2021-07-10T07:30:47</time>
      </trkpt>
      <trkpt lat="44.71134" lon="4.83936">
        <ele>266</ele>
        <time>2021-07-10T07:30:48</time>
      </trkpt>
      <trkpt lat="44.71134" lon="4.83936">
        <ele>264.6</ele>
        <time>2021-07-10T07:30:49</time>
      </trkpt>
      <trkpt lat="44.71133" lon="4.83927">
        <ele>263.4</ele>
        <time>2021-07-10T07:30:50</time>
      </trkpt>
      <trkpt lat="44.71131" lon="4.83918">
        <ele>262</ele>
        <time>2021-07-10T07:30:51</time>
      </trkpt>
      <trkpt lat="44.71129" lon="4.83908">
        <ele>260.8</ele>
        <time>2021-07-10T07:30:52</time>
      </trkpt>
      <trkpt lat="44.71128" lon="4.839">
        <ele>259.4</ele>
        <time>2021-07-10T07:30:53</time>
      </trkpt>
      <trkpt lat="44.71127" lon="4.8389">
        <ele>258.2</ele>
        <time>2021-07-10T07:30:54</time>
      </trkpt>
      <trkpt lat="44.71124" lon="4.8387">
        <ele>257.2</ele>
        <time>2021-07-10T07:30:55</time>
      </trkpt>
      <trkpt lat="44.71124" lon="4.8387">
        <ele>256.2</ele>
        <time>2021-07-10T07:30:56</time>
      </trkpt>
      <trkpt lat="44.71124" lon="4.83858">
        <ele>255</ele>
        <time>2021-07-10T07:30:57</time>
      </trkpt>
      <trkpt lat="44.71123" lon="4.83847">
        <ele>254.2</ele>
        <time>2021-07-10T07:30:58</time>
      </trkpt>
      <trkpt lat="44.71123" lon="4.83831">
        <ele>253.2</ele>
        <time>2021-07-10T07:30:59</time>
      </trkpt>
      <trkpt lat="44.71123" lon="4.83831">
        <ele>252.2</ele>
        <time>2021-07-10T07:31:00</time>
      </trkpt>
      <trkpt lat="44.7112" lon="4.83825">
        <ele>251.4</ele>
        <time>2021-07-10T07:31:01</time>
      </trkpt>
      <trkpt lat="44.71117" lon="4.83817">
        <ele>250.4</ele>
        <time>2021-07-10T07:31:02</time>
      </trkpt>
      <trkpt lat="44.71116" lon="4.83812">
        <ele>249.6</ele>
        <time>2021-07-10T07:31:03</time>
      </trkpt>
      <trkpt lat="44.71115" lon="4.83808">
        <ele>249</ele>
        <time>2021-07-10T07:31:04</time>
      </trkpt>
      <trkpt lat="44.71113" lon="4.83802">
        <ele>248.4</ele>
        <time>2021-07-10T07:31:05</time>
      </trkpt>
      <trkpt lat="44.71112" lon="4.83797">
        <ele>248</ele>
        <time>2021-07-10T07:31:06</time>
      </trkpt>
      <trkpt lat="44.71109" lon="4.83794">
        <ele>247.6</ele>
        <time>2021-07-10T07:31:07</time>
      </trkpt>
      <trkpt lat="44.71104" lon="4.83787">
        <ele>247.2</ele>
        <time>2021-07-10T07:31:08</time>
      </trkpt>
      <trkpt lat="44.71101" lon="4.83782">
        <ele>246.8</ele>
        <time>2021-07-10T07:31:09</time>
      </trkpt>
      <trkpt lat="44.71095" lon="4.83778">
        <ele>246.6</ele>
        <time>2021-07-10T07:31:10</time>
      </trkpt>
      <trkpt lat="44.71095" lon="4.83778">
        <ele>246.2</ele>
        <time>2021-07-10T07:31:11</time>
      </trkpt>
      <trkpt lat="44.71093" lon="4.83775">
        <ele>246</ele>
        <time>2021-07-10T07:31:12</time>
      </trkpt>
      <trkpt lat="44.7109" lon="4.83772">
        <ele>245.8</ele>
        <time>2021-07-10T07:31:13</time>
      </trkpt>
      <trkpt lat="44.71088" lon="4.83768">
        <ele>245.6</ele>
        <time>2021-07-10T07:31:14</time>
      </trkpt>
      <trkpt lat="44.71086" lon="4.83766">
        <ele>245.2</ele>
        <time>2021-07-10T07:31:15</time>
      </trkpt>
      <trkpt lat="44.71085" lon="4.83764">
        <ele>245.2</ele>
        <time>2021-07-10T07:31:16</time>
      </trkpt>
      <trkpt lat="44.71085" lon="4.83762">
        <ele>245</ele>
        <time>2021-07-10T07:31:17</time>
      </trkpt>
      <trkpt lat="44.71084" lon="4.83763">
        <ele>244.8</ele>
        <time>2021-07-10T07:31:18</time>
      </trkpt>
      <trkpt lat="44.71082" lon="4.83761">
        <ele>244.8</ele>
        <time>2021-07-10T07:31:19</time>
      </trkpt>
      <trkpt lat="44.71082" lon="4.83759">
        <ele>244.6</ele>
        <time>2021-07-10T07:31:20</time>
      </trkpt>
      <trkpt lat="44.7108" lon="4.83758">
        <ele>244.6</ele>
        <time>2021-07-10T07:31:21</time>
      </trkpt>
      <trkpt lat="44.7108" lon="4.83758">
        <ele>244.6</ele>
        <time>2021-07-10T07:31:22</time>
      </trkpt>
      <trkpt lat="44.71079" lon="4.83757">
        <ele>244.6</ele>
        <time>2021-07-10T07:31:23</time>
      </trkpt>
      <trkpt lat="44.71077" lon="4.83757">
        <ele>244.6</ele>
        <time>2021-07-10T07:31:24</time>
      </trkpt>
      <trkpt lat="44.7105" lon="4.83695">
        <ele>238.4</ele>
        <time>2021-07-10T07:32:18</time>
      </trkpt>
      <trkpt lat="44.71049" lon="4.83689">
        <ele>237.6</ele>
        <time>2021-07-10T07:32:19</time>
      </trkpt>
      <trkpt lat="44.71047" lon="4.83682">
        <ele>236.8</ele>
        <time>2021-07-10T07:32:20</time>
      </trkpt>
      <trkpt lat="44.71047" lon="4.83676">
        <ele>235.8</ele>
        <time>2021-07-10T07:32:21</time>
      </trkpt>
      <trkpt lat="44.71048" lon="4.83671">
        <ele>234.6</ele>
        <time>2021-07-10T07:32:22</time>
      </trkpt>
      <trkpt lat="44.71048" lon="4.83665">
        <ele>233.6</ele>
        <time>2021-07-10T07:32:23</time>
      </trkpt>
      <trkpt lat="44.71046" lon="4.83656">
        <ele>232.4</ele>
        <time>2021-07-10T07:32:24</time>
      </trkpt>
      <trkpt lat="44.71046" lon="4.83656">
        <ele>231.2</ele>
        <time>2021-07-10T07:32:25</time>
      </trkpt>
      <trkpt lat="44.71043" lon="4.83647">
        <ele>230</ele>
        <time>2021-07-10T07:32:26</time>
      </trkpt>
      <trkpt lat="44.71034" lon="4.83638">
        <ele>228.6</ele>
        <time>2021-07-10T07:32:27</time>
      </trkpt>
      <trkpt lat="44.71034" lon="4.83638">
        <ele>227.4</ele>
        <time>2021-07-10T07:32:28</time>
      </trkpt>
      <trkpt lat="44.71029" lon="4.83634">
        <ele>226</ele>
        <time>2021-07-10T07:32:29</time>
      </trkpt>
      <trkpt lat="44.71029" lon="4.83634">
        <ele>225</ele>
        <time>2021-07-10T07:32:30</time>
      </trkpt>
      <trkpt lat="44.71026" lon="4.83631">
        <ele>223.8</ele>
        <time>2021-07-10T07:32:31</time>
      </trkpt>
      <trkpt lat="44.71024" lon="4.83629">
        <ele>222.8</ele>
        <time>2021-07-10T07:32:32</time>
      </trkpt>
      <trkpt lat="44.71022" lon="4.83627">
        <ele>221.8</ele>
        <time>2021-07-10T07:32:33</time>
      </trkpt>
      <trkpt lat="44.7102" lon="4.83625">
        <ele>221</ele>
        <time>2021-07-10T07:32:34</time>
      </trkpt>
      <trkpt lat="44.71017" lon="4.8362">
        <ele>220.4</ele>
        <time>2021-07-10T07:32:35</time>
      </trkpt>
      <trkpt lat="44.71016" lon="4.83617">
        <ele>220</ele>
        <time>2021-07-10T07:32:36</time>
      </trkpt>
      <trkpt lat="44.71016" lon="4.83614">
        <ele>219.4</ele>
        <time>2021-07-10T07:32:37</time>
      </trkpt>
      <trkpt lat="44.71015" lon="4.83604">
        <ele>218.8</ele>
        <time>2021-07-10T07:32:38</time>
      </trkpt>
      <trkpt lat="44.71015" lon="4.83604">
        <ele>218.2</ele>
        <time>2021-07-10T07:32:39</time>
      </trkpt>
      <trkpt lat="44.71015" lon="4.836">
        <ele>217.4</ele>
        <time>2021-07-10T07:32:40</time>
      </trkpt>
      <trkpt lat="44.71014" lon="4.83596">
        <ele>217</ele>
        <time>2021-07-10T07:32:41</time>
      </trkpt>
      <trkpt lat="44.71014" lon="4.83592">
        <ele>216.4</ele>
        <time>2021-07-10T07:32:42</time>
      </trkpt>
      <trkpt lat="44.71013" lon="4.83586">
        <ele>216.2</ele>
        <time>2021-07-10T07:32:43</time>
      </trkpt>
      <trkpt lat="44.7101" lon="4.83582">
        <ele>216</ele>
        <time>2021-07-10T07:32:44</time>
      </trkpt>
      <trkpt lat="44.71009" lon="4.8358">
        <ele>215.8</ele>
        <time>2021-07-10T07:32:45</time>
      </trkpt>
      <trkpt lat="44.71008" lon="4.83577">
        <ele>215.4</ele>
        <time>2021-07-10T07:32:46</time>
      </trkpt>
      <trkpt lat="44.71006" lon="4.83574">
        <ele>215.2</ele>
        <time>2021-07-10T07:32:47</time>
      </trkpt>
      <trkpt lat="44.71005" lon="4.83571">
        <ele>215</ele>
        <time>2021-07-10T07:32:48</time>
      </trkpt>
      <trkpt lat="44.71001" lon="4.83568">
        <ele>215</ele>
        <time>2021-07-10T07:32:49</time>
      </trkpt>
      <trkpt lat="44.71001" lon="4.83568">
        <ele>215</ele>
        <time>2021-07-10T07:32:50</time>
      </trkpt>
      <trkpt lat="44.70998" lon="4.83566">
        <ele>215</ele>
        <time>2021-07-10T07:32:51</time>
      </trkpt>
      <trkpt lat="44.70996" lon="4.83566">
        <ele>215.2</ele>
        <time>2021-07-10T07:32:52</time>
      </trkpt>
      <trkpt lat="44.70994" lon="4.83565">
        <ele>215.2</ele>
        <time>2021-07-10T07:32:53</time>
      </trkpt>
      <trkpt lat="44.70992" lon="4.83562">
        <ele>215.4</ele>
        <time>2021-07-10T07:32:54</time>
      </trkpt>
      <trkpt lat="44.7099" lon="4.83561">
        <ele>215.4</ele>
        <time>2021-07-10T07:32:55</time>
      </trkpt>
      <trkpt lat="44.70989" lon="4.83558">
        <ele>215.4</ele>
        <time>2021-07-10T07:32:56</time>
      </trkpt>
      <trkpt lat="44.70987" lon="4.83556">
        <ele>215.4</ele>
        <time>2021-07-10T07:32:57</time>
      </trkpt>
      <trkpt lat="44.70986" lon="4.83554">
        <ele>215.4</ele>
        <time>2021-07-10T07:32:58</time>
      </trkpt>
      <trkpt lat="44.70985" lon="4.83552">
        <ele>215.6</ele>
        <time>2021-07-10T07:32:59</time>
      </trkpt>
      <trkpt lat="44.7098" lon="4.8355">
        <ele>215.6</ele>
        <time>2021-07-10T07:33:00</time>
      </trkpt>
      <trkpt lat="44.7098" lon="4.8355">
        <ele>215.6</ele>
        <time>2021-07-10T07:33:01</time>
      </trkpt>
      <trkpt lat="44.70978" lon="4.83549">
        <ele>215.8</ele>
        <time>2021-07-10T07:33:02</time>
      </trkpt>
      <trkpt lat="44.70977" lon="4.83547">
        <ele>215.8</ele>
        <time>2021-07-10T07:33:03</time>
      </trkpt>
      <trkpt lat="44.70976" lon="4.83547">
        <ele>215.8</ele>
        <time>2021-07-10T07:33:04</time>
      </trkpt>
      <trkpt lat="44.70974" lon="4.83548">
        <ele>215.8</ele>
        <time>2021-07-10T07:33:05</time>
      </trkpt>
      <trkpt lat="44.70971" lon="4.83548">
        <ele>215.8</ele>
        <time>2021-07-10T07:33:06</time>
      </trkpt>
      <trkpt lat="44.70969" lon="4.83548">
        <ele>216</ele>
        <time>2021-07-10T07:33:07</time>
      </trkpt>
      <trkpt lat="44.70966" lon="4.83548">
        <ele>216</ele>
        <time>2021-07-10T07:33:08</time>
      </trkpt>
      <trkpt lat="44.70964" lon="4.83548">
        <ele>216</ele>
        <time>2021-07-10T07:33:09</time>
      </trkpt>
      <trkpt lat="44.70961" lon="4.83546">
        <ele>215.8</ele>
        <time>2021-07-10T07:33:10</time>
      </trkpt>
      <trkpt lat="44.70954" lon="4.83544">
        <ele>215.8</ele>
        <time>2021-07-10T07:33:11</time>
      </trkpt>
      <trkpt lat="44.70954" lon="4.83544">
        <ele>215.6</ele>
        <time>2021-07-10T07:33:12</time>
      </trkpt>
      <trkpt lat="44.7095" lon="4.83542">
        <ele>215.4</ele>
        <time>2021-07-10T07:33:13</time>
      </trkpt>
      <trkpt lat="44.70947" lon="4.8354">
        <ele>215.4</ele>
        <time>2021-07-10T07:33:14</time>
      </trkpt>
      <trkpt lat="44.70944" lon="4.83539">
        <ele>215.2</ele>
        <time>2021-07-10T07:33:15</time>
      </trkpt>
      <trkpt lat="44.70942" lon="4.83539">
        <ele>215.2</ele>
        <time>2021-07-10T07:33:16</time>
      </trkpt>
      <trkpt lat="44.70939" lon="4.83536">
        <ele>215.2</ele>
        <time>2021-07-10T07:33:17</time>
      </trkpt>
      <trkpt lat="44.70936" lon="4.83533">
        <ele>215</ele>
        <time>2021-07-10T07:33:18</time>
      </trkpt>
      <trkpt lat="44.70933" lon="4.83531">
        <ele>214.8</ele>
        <time>2021-07-10T07:33:19</time>
      </trkpt>
      <trkpt lat="44.70929" lon="4.83528">
        <ele>214.4</ele>
        <time>2021-07-10T07:33:20</time>
      </trkpt>
      <trkpt lat="44.70924" lon="4.83525">
        <ele>214.4</ele>
        <time>2021-07-10T07:33:21</time>
      </trkpt>
      <trkpt lat="44.70913" lon="4.83521">
        <ele>214.2</ele>
        <time>2021-07-10T07:33:22</time>
      </trkpt>
      <trkpt lat="44.70913" lon="4.83521">
        <ele>214</ele>
        <time>2021-07-10T07:33:23</time>
      </trkpt>
      <trkpt lat="44.70903" lon="4.83519">
        <ele>214</ele>
        <time>2021-07-10T07:33:24</time>
      </trkpt>
      <trkpt lat="44.70903" lon="4.83519">
        <ele>213.8</ele>
        <time>2021-07-10T07:33:25</time>
      </trkpt>
      <trkpt lat="44.70898" lon="4.83517">
        <ele>213.6</ele>
        <time>2021-07-10T07:33:26</time>
      </trkpt>
      <trkpt lat="44.70893" lon="4.83516">
        <ele>213.4</ele>
        <time>2021-07-10T07:33:27</time>
      </trkpt>
      <trkpt lat="44.70893" lon="4.83516">
        <ele>213.4</ele>
        <time>2021-07-10T07:33:28</time>
      </trkpt>
      <trkpt lat="44.70879" lon="4.83515">
        <ele>213.2</ele>
        <time>2021-07-10T07:33:29</time>
      </trkpt>
      <trkpt lat="44.70873" lon="4.83514">
        <ele>213</ele>
        <time>2021-07-10T07:33:30</time>
      </trkpt>
      <trkpt lat="44.70867" lon="4.83512">
        <ele>212.8</ele>
        <time>2021-07-10T07:33:31</time>
      </trkpt>
      <trkpt lat="44.7086" lon="4.83511">
        <ele>212.4</ele>
        <time>2021-07-10T07:33:32</time>
      </trkpt>
      <trkpt lat="44.70848" lon="4.83508">
        <ele>212.2</ele>
        <time>2021-07-10T07:33:33</time>
      </trkpt>
      <trkpt lat="44.70848" lon="4.83508">
        <ele>212.2</ele>
        <time>2021-07-10T07:33:34</time>
      </trkpt>
      <trkpt lat="44.70841" lon="4.83507">
        <ele>212.2</ele>
        <time>2021-07-10T07:33:35</time>
      </trkpt>
      <trkpt lat="44.70834" lon="4.83507">
        <ele>212</ele>
        <time>2021-07-10T07:33:36</time>
      </trkpt>
      <trkpt lat="44.70828" lon="4.83506">
        <ele>212</ele>
        <time>2021-07-10T07:33:37</time>
      </trkpt>
      <trkpt lat="44.70821" lon="4.83505">
        <ele>211.8</ele>
        <time>2021-07-10T07:33:38</time>
      </trkpt>
      <trkpt lat="44.70814" lon="4.83504">
        <ele>211.6</ele>
        <time>2021-07-10T07:33:39</time>
      </trkpt>
      <trkpt lat="44.70811" lon="4.83504">
        <ele>211.6</ele>
        <time>2021-07-10T07:33:40</time>
      </trkpt>
      <trkpt lat="44.70804" lon="4.83502">
        <ele>211.6</ele>
        <time>2021-07-10T07:33:41</time>
      </trkpt>
      <trkpt lat="44.70804" lon="4.83502">
        <ele>211.6</ele>
        <time>2021-07-10T07:33:42</time>
      </trkpt>
      <trkpt lat="44.70791" lon="4.83499">
        <ele>211.6</ele>
        <time>2021-07-10T07:33:43</time>
      </trkpt>
      <trkpt lat="44.70781" lon="4.83498">
        <ele>211.6</ele>
        <time>2021-07-10T07:33:44</time>
      </trkpt>
      <trkpt lat="44.70781" lon="4.83498">
        <ele>211.4</ele>
        <time>2021-07-10T07:33:45</time>
      </trkpt>
      <trkpt lat="44.7077" lon="4.83496">
        <ele>211.4</ele>
        <time>2021-07-10T07:33:46</time>
      </trkpt>
      <trkpt lat="44.7077" lon="4.83496">
        <ele>211.4</ele>
        <time>2021-07-10T07:33:47</time>
      </trkpt>
      <trkpt lat="44.70765" lon="4.83493">
        <ele>211.4</ele>
        <time>2021-07-10T07:33:48</time>
      </trkpt>
      <trkpt lat="44.70759" lon="4.83492">
        <ele>211.2</ele>
        <time>2021-07-10T07:33:49</time>
      </trkpt>
      <trkpt lat="44.70753" lon="4.83491">
        <ele>211.2</ele>
        <time>2021-07-10T07:33:50</time>
      </trkpt>
      <trkpt lat="44.70741" lon="4.83484">
        <ele>211.2</ele>
        <time>2021-07-10T07:33:51</time>
      </trkpt>
      <trkpt lat="44.70741" lon="4.83484">
        <ele>211</ele>
        <time>2021-07-10T07:33:52</time>
      </trkpt>
      <trkpt lat="44.70736" lon="4.83482">
        <ele>211</ele>
        <time>2021-07-10T07:33:53</time>
      </trkpt>
      <trkpt lat="44.70731" lon="4.83478">
        <ele>211</ele>
        <time>2021-07-10T07:33:54</time>
      </trkpt>
      <trkpt lat="44.70726" lon="4.83476">
        <ele>210.8</ele>
        <time>2021-07-10T07:33:55</time>
      </trkpt>
      <trkpt lat="44.7072" lon="4.83473">
        <ele>210.8</ele>
        <time>2021-07-10T07:33:56</time>
      </trkpt>
      <trkpt lat="44.7071" lon="4.8347">
        <ele>210.8</ele>
        <time>2021-07-10T07:33:57</time>
      </trkpt>
      <trkpt lat="44.7071" lon="4.8347">
        <ele>210.8</ele>
        <time>2021-07-10T07:33:58</time>
      </trkpt>
      <trkpt lat="44.70704" lon="4.83467">
        <ele>210.8</ele>
        <time>2021-07-10T07:33:59</time>
      </trkpt>
      <trkpt lat="44.70694" lon="4.83459">
        <ele>210.6</ele>
        <time>2021-07-10T07:34:00</time>
      </trkpt>
      <trkpt lat="44.70694" lon="4.83459">
        <ele>210.4</ele>
        <time>2021-07-10T07:34:01</time>
      </trkpt>
      <trkpt lat="44.70688" lon="4.83456">
        <ele>210.4</ele>
        <time>2021-07-10T07:34:02</time>
      </trkpt>
      <trkpt lat="44.70683" lon="4.83455">
        <ele>210.2</ele>
        <time>2021-07-10T07:34:03</time>
      </trkpt>
      <trkpt lat="44.70677" lon="4.83453">
        <ele>210.2</ele>
        <time>2021-07-10T07:34:04</time>
      </trkpt>
      <trkpt lat="44.70672" lon="4.8345">
        <ele>210</ele>
        <time>2021-07-10T07:34:05</time>
      </trkpt>
      <trkpt lat="44.70666" lon="4.83449">
        <ele>210</ele>
        <time>2021-07-10T07:34:06</time>
      </trkpt>
      <trkpt lat="44.70659" lon="4.83446">
        <ele>210</ele>
        <time>2021-07-10T07:34:07</time>
      </trkpt>
      <trkpt lat="44.70652" lon="4.83444">
        <ele>209.8</ele>
        <time>2021-07-10T07:34:08</time>
      </trkpt>
      <trkpt lat="44.70645" lon="4.8344">
        <ele>209.6</ele>
        <time>2021-07-10T07:34:09</time>
      </trkpt>
      <trkpt lat="44.70645" lon="4.8344">
        <ele>209.2</ele>
        <time>2021-07-10T07:34:10</time>
      </trkpt>
      <trkpt lat="44.70633" lon="4.83439">
        <ele>208.8</ele>
        <time>2021-07-10T07:34:11</time>
      </trkpt>
      <trkpt lat="44.70633" lon="4.83439">
        <ele>208.6</ele>
        <time>2021-07-10T07:34:12</time>
      </trkpt>
      <trkpt lat="44.70629" lon="4.83437">
        <ele>208.2</ele>
        <time>2021-07-10T07:34:13</time>
      </trkpt>
      <trkpt lat="44.70624" lon="4.83435">
        <ele>208</ele>
        <time>2021-07-10T07:34:14</time>
      </trkpt>
      <trkpt lat="44.7062" lon="4.83433">
        <ele>208</ele>
        <time>2021-07-10T07:34:15</time>
      </trkpt>
      <trkpt lat="44.70617" lon="4.83433">
        <ele>207.6</ele>
        <time>2021-07-10T07:34:16</time>
      </trkpt>
      <trkpt lat="44.70613" lon="4.8343">
        <ele>207.4</ele>
        <time>2021-07-10T07:34:17</time>
      </trkpt>
      <trkpt lat="44.70611" lon="4.83429">
        <ele>207.2</ele>
        <time>2021-07-10T07:34:18</time>
      </trkpt>
      <trkpt lat="44.7061" lon="4.83428">
        <ele>207.2</ele>
        <time>2021-07-10T07:34:19</time>
      </trkpt>
      <trkpt lat="44.70605" lon="4.83425">
        <ele>207</ele>
        <time>2021-07-10T07:34:20</time>
      </trkpt>
      <trkpt lat="44.70605" lon="4.83425">
        <ele>206.8</ele>
        <time>2021-07-10T07:34:21</time>
      </trkpt>
      <trkpt lat="44.70602" lon="4.83424">
        <ele>206.6</ele>
        <time>2021-07-10T07:34:22</time>
      </trkpt>
      <trkpt lat="44.70597" lon="4.83422">
        <ele>206.4</ele>
        <time>2021-07-10T07:34:23</time>
      </trkpt>
      <trkpt lat="44.70593" lon="4.83423">
        <ele>206.2</ele>
        <time>2021-07-10T07:34:24</time>
      </trkpt>
      <trkpt lat="44.7059" lon="4.83421">
        <ele>206</ele>
        <time>2021-07-10T07:34:25</time>
      </trkpt>
      <trkpt lat="44.70588" lon="4.83418">
        <ele>205.8</ele>
        <time>2021-07-10T07:34:26</time>
      </trkpt>
      <trkpt lat="44.70582" lon="4.8342">
        <ele>205.6</ele>
        <time>2021-07-10T07:34:27</time>
      </trkpt>
      <trkpt lat="44.70577" lon="4.83416">
        <ele>205.4</ele>
        <time>2021-07-10T07:34:28</time>
      </trkpt>
      <trkpt lat="44.70567" lon="4.83415">
        <ele>205.2</ele>
        <time>2021-07-10T07:34:29</time>
      </trkpt>
      <trkpt lat="44.70567" lon="4.83415">
        <ele>205</ele>
        <time>2021-07-10T07:34:30</time>
      </trkpt>
      <trkpt lat="44.70561" lon="4.83416">
        <ele>204.6</ele>
        <time>2021-07-10T07:34:31</time>
      </trkpt>
      <trkpt lat="44.70555" lon="4.83417">
        <ele>204.2</ele>
        <time>2021-07-10T07:34:32</time>
      </trkpt>
      <trkpt lat="44.70552" lon="4.8342">
        <ele>203.6</ele>
        <time>2021-07-10T07:34:33</time>
      </trkpt>
      <trkpt lat="44.70543" lon="4.83418">
        <ele>202.6</ele>
        <time>2021-07-10T07:34:34</time>
      </trkpt>
      <trkpt lat="44.70536" lon="4.83416">
        <ele>201.8</ele>
        <time>2021-07-10T07:34:35</time>
      </trkpt>
      <trkpt lat="44.70529" lon="4.83413">
        <ele>200.8</ele>
        <time>2021-07-10T07:34:36</time>
      </trkpt>
      <trkpt lat="44.70521" lon="4.83412">
        <ele>200.2</ele>
        <time>2021-07-10T07:34:37</time>
      </trkpt>
      <trkpt lat="44.70502" lon="4.83411">
        <ele>199</ele>
        <time>2021-07-10T07:34:38</time>
      </trkpt>
      <trkpt lat="44.70502" lon="4.83411">
        <ele>198</ele>
        <time>2021-07-10T07:34:39</time>
      </trkpt>
      <trkpt lat="44.70496" lon="4.8341">
        <ele>196.4</ele>
        <time>2021-07-10T07:34:40</time>
      </trkpt>
      <trkpt lat="44.70492" lon="4.83409">
        <ele>194.8</ele>
        <time>2021-07-10T07:34:41</time>
      </trkpt>
      <trkpt lat="44.70483" lon="4.83409">
        <ele>193.4</ele>
        <time>2021-07-10T07:34:42</time>
      </trkpt>
      <trkpt lat="44.70478" lon="4.8341">
        <ele>192.2</ele>
        <time>2021-07-10T07:34:43</time>
      </trkpt>
      <trkpt lat="44.70472" lon="4.83408">
        <ele>191</ele>
        <time>2021-07-10T07:34:44</time>
      </trkpt>
      <trkpt lat="44.70463" lon="4.83402">
        <ele>190</ele>
        <time>2021-07-10T07:34:45</time>
      </trkpt>
      <trkpt lat="44.70458" lon="4.83406">
        <ele>188.8</ele>
        <time>2021-07-10T07:34:46</time>
      </trkpt>
      <trkpt lat="44.7045" lon="4.834">
        <ele>187.8</ele>
        <time>2021-07-10T07:34:47</time>
      </trkpt>
      <trkpt lat="44.7045" lon="4.834">
        <ele>186.6</ele>
        <time>2021-07-10T07:34:48</time>
      </trkpt>
      <trkpt lat="44.70445" lon="4.83397">
        <ele>185.4</ele>
        <time>2021-07-10T07:34:49</time>
      </trkpt>
      <trkpt lat="44.70434" lon="4.83391">
        <ele>184.2</ele>
        <time>2021-07-10T07:34:50</time>
      </trkpt>
      <trkpt lat="44.70428" lon="4.83383">
        <ele>183</ele>
        <time>2021-07-10T07:34:51</time>
      </trkpt>
      <trkpt lat="44.70426" lon="4.83376">
        <ele>182</ele>
        <time>2021-07-10T07:34:52</time>
      </trkpt>
      <trkpt lat="44.70419" lon="4.8337">
        <ele>181</ele>
        <time>2021-07-10T07:34:53</time>
      </trkpt>
      <trkpt lat="44.70415" lon="4.83355">
        <ele>180.4</ele>
        <time>2021-07-10T07:34:54</time>
      </trkpt>
      <trkpt lat="44.70415" lon="4.83355">
        <ele>179.6</ele>
        <time>2021-07-10T07:34:55</time>
      </trkpt>
      <trkpt lat="44.70415" lon="4.83351">
        <ele>179</ele>
        <time>2021-07-10T07:34:56</time>
      </trkpt>
      <trkpt lat="44.7041" lon="4.83342">
        <ele>178.6</ele>
        <time>2021-07-10T07:34:57</time>
      </trkpt>
      <trkpt lat="44.70408" lon="4.83337">
        <ele>178.2</ele>
        <time>2021-07-10T07:34:58</time>
      </trkpt>
      <trkpt lat="44.70407" lon="4.83335">
        <ele>177.8</ele>
        <time>2021-07-10T07:34:59</time>
      </trkpt>
      <trkpt lat="44.70399" lon="4.83331">
        <ele>177.4</ele>
        <time>2021-07-10T07:35:00</time>
      </trkpt>
      <trkpt lat="44.70397" lon="4.8333">
        <ele>177.2</ele>
        <time>2021-07-10T07:35:01</time>
      </trkpt>
      <trkpt lat="44.70393" lon="4.83327">
        <ele>176.8</ele>
        <time>2021-07-10T07:35:02</time>
      </trkpt>
      <trkpt lat="44.70388" lon="4.83326">
        <ele>176.6</ele>
        <time>2021-07-10T07:35:03</time>
      </trkpt>
      <trkpt lat="44.70388" lon="4.83326">
        <ele>176.2</ele>
        <time>2021-07-10T07:35:04</time>
      </trkpt>
      <trkpt lat="44.70386" lon="4.83327">
        <ele>175.8</ele>
        <time>2021-07-10T07:35:05</time>
      </trkpt>
      <trkpt lat="44.70383" lon="4.83327">
        <ele>175.4</ele>
        <time>2021-07-10T07:35:06</time>
      </trkpt>
      <trkpt lat="44.7038" lon="4.83323">
        <ele>175</ele>
        <time>2021-07-10T07:35:07</time>
      </trkpt>
      <trkpt lat="44.7038" lon="4.83323">
        <ele>174.4</ele>
        <time>2021-07-10T07:35:08</time>
      </trkpt>
      <trkpt lat="44.70374" lon="4.83322">
        <ele>173.6</ele>
        <time>2021-07-10T07:35:09</time>
      </trkpt>
      <trkpt lat="44.70369" lon="4.83318">
        <ele>172.8</ele>
        <time>2021-07-10T07:35:10</time>
      </trkpt>
      <trkpt lat="44.70358" lon="4.83318">
        <ele>172</ele>
        <time>2021-07-10T07:35:11</time>
      </trkpt>
      <trkpt lat="44.70334" lon="4.83314">
        <ele>171.2</ele>
        <time>2021-07-10T07:35:12</time>
      </trkpt>
      <trkpt lat="44.70334" lon="4.83314">
        <ele>170.2</ele>
        <time>2021-07-10T07:35:13</time>
      </trkpt>
      <trkpt lat="44.7032" lon="4.8331">
        <ele>169.4</ele>
        <time>2021-07-10T07:35:14</time>
      </trkpt>
      <trkpt lat="44.7031" lon="4.83307">
        <ele>168.4</ele>
        <time>2021-07-10T07:35:15</time>
      </trkpt>
      <trkpt lat="44.70298" lon="4.83306">
        <ele>167.6</ele>
        <time>2021-07-10T07:35:16</time>
      </trkpt>
      <trkpt lat="44.70287" lon="4.83304">
        <ele>166.6</ele>
        <time>2021-07-10T07:35:17</time>
      </trkpt>
      <trkpt lat="44.70276" lon="4.83298">
        <ele>165.4</ele>
        <time>2021-07-10T07:35:18</time>
      </trkpt>
      <trkpt lat="44.70254" lon="4.8329">
        <ele>164.4</ele>
        <time>2021-07-10T07:35:19</time>
      </trkpt>
      <trkpt lat="44.70254" lon="4.8329">
        <ele>163.4</ele>
        <time>2021-07-10T07:35:20</time>
      </trkpt>
      <trkpt lat="44.70242" lon="4.83288">
        <ele>162.4</ele>
        <time>2021-07-10T07:35:21</time>
      </trkpt>
      <trkpt lat="44.70232" lon="4.83285">
        <ele>161.6</ele>
        <time>2021-07-10T07:35:22</time>
      </trkpt>
      <trkpt lat="44.70232" lon="4.83285">
        <ele>161</ele>
        <time>2021-07-10T07:35:23</time>
      </trkpt>
      <trkpt lat="44.70211" lon="4.83273">
        <ele>160.4</ele>
        <time>2021-07-10T07:35:24</time>
      </trkpt>
      <trkpt lat="44.70195" lon="4.83265">
        <ele>159.8</ele>
        <time>2021-07-10T07:35:25</time>
      </trkpt>
      <trkpt lat="44.70195" lon="4.83265">
        <ele>159.4</ele>
        <time>2021-07-10T07:35:26</time>
      </trkpt>
      <trkpt lat="44.70183" lon="4.83259">
        <ele>159</ele>
        <time>2021-07-10T07:35:27</time>
      </trkpt>
      <trkpt lat="44.70164" lon="4.83264">
        <ele>158.4</ele>
        <time>2021-07-10T07:35:28</time>
      </trkpt>
      <trkpt lat="44.70164" lon="4.83264">
        <ele>158.2</ele>
        <time>2021-07-10T07:35:29</time>
      </trkpt>
      <trkpt lat="44.70164" lon="4.83264">
        <ele>158</ele>
        <time>2021-07-10T07:35:30</time>
      </trkpt>
      <trkpt lat="44.70145" lon="4.83268">
        <ele>157.8</ele>
        <time>2021-07-10T07:35:31</time>
      </trkpt>
      <trkpt lat="44.70135" lon="4.8327">
        <ele>157.6</ele>
        <time>2021-07-10T07:35:32</time>
      </trkpt>
      <trkpt lat="44.70128" lon="4.8327">
        <ele>157.4</ele>
        <time>2021-07-10T07:35:33</time>
      </trkpt>
      <trkpt lat="44.70121" lon="4.8327">
        <ele>157.4</ele>
        <time>2021-07-10T07:35:34</time>
      </trkpt>
      <trkpt lat="44.70109" lon="4.83268">
        <ele>157.4</ele>
        <time>2021-07-10T07:35:35</time>
      </trkpt>
      <trkpt lat="44.70109" lon="4.83268">
        <ele>157.6</ele>
        <time>2021-07-10T07:35:36</time>
      </trkpt>
      <trkpt lat="44.70102" lon="4.8327">
        <ele>157.8</ele>
        <time>2021-07-10T07:35:37</time>
      </trkpt>
      <trkpt lat="44.70094" lon="4.83272">
        <ele>158</ele>
        <time>2021-07-10T07:35:38</time>
      </trkpt>
      <trkpt lat="44.70094" lon="4.83272">
        <ele>158.2</ele>
        <time>2021-07-10T07:35:39</time>
      </trkpt>
      <trkpt lat="44.7009" lon="4.83273">
        <ele>158.4</ele>
        <time>2021-07-10T07:35:40</time>
      </trkpt>
      <trkpt lat="44.70085" lon="4.83274">
        <ele>158.6</ele>
        <time>2021-07-10T07:35:41</time>
      </trkpt>
      <trkpt lat="44.7008" lon="4.83276">
        <ele>158.8</ele>
        <time>2021-07-10T07:35:42</time>
      </trkpt>
      <trkpt lat="44.70072" lon="4.83279">
        <ele>159</ele>
        <time>2021-07-10T07:35:43</time>
      </trkpt>
      <trkpt lat="44.70069" lon="4.83279">
        <ele>159.4</ele>
        <time>2021-07-10T07:35:44</time>
      </trkpt>
      <trkpt lat="44.70069" lon="4.83279">
        <ele>159.6</ele>
        <time>2021-07-10T07:35:45</time>
      </trkpt>
      <trkpt lat="44.70066" lon="4.8328">
        <ele>159.8</ele>
        <time>2021-07-10T07:35:46</time>
      </trkpt>
      <trkpt lat="44.70063" lon="4.83281">
        <ele>160</ele>
        <time>2021-07-10T07:35:47</time>
      </trkpt>
      <trkpt lat="44.70058" lon="4.83283">
        <ele>160.2</ele>
        <time>2021-07-10T07:35:48</time>
      </trkpt>
      <trkpt lat="44.70051" lon="4.83283">
        <ele>160.6</ele>
        <time>2021-07-10T07:35:49</time>
      </trkpt>
      <trkpt lat="44.70051" lon="4.83283">
        <ele>160.8</ele>
        <time>2021-07-10T07:35:50</time>
      </trkpt>
      <trkpt lat="44.70045" lon="4.83286">
        <ele>161</ele>
        <time>2021-07-10T07:35:51</time>
      </trkpt>
      <trkpt lat="44.70045" lon="4.83286">
        <ele>161.2</ele>
        <time>2021-07-10T07:35:52</time>
      </trkpt>
      <trkpt lat="44.70044" lon="4.83285">
        <ele>161.4</ele>
        <time>2021-07-10T07:35:53</time>
      </trkpt>
      <trkpt lat="44.70042" lon="4.83284">
        <ele>161.6</ele>
        <time>2021-07-10T07:35:54</time>
      </trkpt>
      <trkpt lat="44.70038" lon="4.83284">
        <ele>161.8</ele>
        <time>2021-07-10T07:35:55</time>
      </trkpt>
      <trkpt lat="44.70035" lon="4.83285">
        <ele>162</ele>
        <time>2021-07-10T07:35:56</time>
      </trkpt>
      <trkpt lat="44.70033" lon="4.83287">
        <ele>162.2</ele>
        <time>2021-07-10T07:35:57</time>
      </trkpt>
      <trkpt lat="44.70031" lon="4.83289">
        <ele>162.4</ele>
        <time>2021-07-10T07:35:58</time>
      </trkpt>
      <trkpt lat="44.70027" lon="4.83289">
        <ele>162.6</ele>
        <time>2021-07-10T07:35:59</time>
      </trkpt>
      <trkpt lat="44.70022" lon="4.83291">
        <ele>163</ele>
        <time>2021-07-10T07:36:00</time>
      </trkpt>
      <trkpt lat="44.70022" lon="4.83291">
        <ele>163.2</ele>
        <time>2021-07-10T07:36:01</time>
      </trkpt>
      <trkpt lat="44.7002" lon="4.83293">
        <ele>163.4</ele>
        <time>2021-07-10T07:36:02</time>
      </trkpt>
      <trkpt lat="44.70018" lon="4.83293">
        <ele>163.8</ele>
        <time>2021-07-10T07:36:03</time>
      </trkpt>
      <trkpt lat="44.70017" lon="4.83294">
        <ele>164</ele>
        <time>2021-07-10T07:36:04</time>
      </trkpt>
      <trkpt lat="44.70014" lon="4.83294">
        <ele>164.2</ele>
        <time>2021-07-10T07:36:05</time>
      </trkpt>
      <trkpt lat="44.70009" lon="4.83294">
        <ele>164.4</ele>
        <time>2021-07-10T07:36:06</time>
      </trkpt>
      <trkpt lat="44.70007" lon="4.83294">
        <ele>164.6</ele>
        <time>2021-07-10T07:36:07</time>
      </trkpt>
      <trkpt lat="44.70007" lon="4.83294">
        <ele>164.8</ele>
        <time>2021-07-10T07:36:08</time>
      </trkpt>
      <trkpt lat="44.70006" lon="4.83295">
        <ele>165</ele>
        <time>2021-07-10T07:36:09</time>
      </trkpt>
      <trkpt lat="44.70004" lon="4.83296">
        <ele>165</ele>
        <time>2021-07-10T07:36:10</time>
      </trkpt>
      <trkpt lat="44.70003" lon="4.83295">
        <ele>165.2</ele>
        <time>2021-07-10T07:36:11</time>
      </trkpt>
      <trkpt lat="44.70001" lon="4.83295">
        <ele>165.4</ele>
        <time>2021-07-10T07:36:12</time>
      </trkpt>
      <trkpt lat="44.69995" lon="4.83295">
        <ele>165.6</ele>
        <time>2021-07-10T07:36:13</time>
      </trkpt>
      <trkpt lat="44.69995" lon="4.83295">
        <ele>165.8</ele>
        <time>2021-07-10T07:36:14</time>
      </trkpt>
      <trkpt lat="44.69992" lon="4.83297">
        <ele>166</ele>
        <time>2021-07-10T07:36:15</time>
      </trkpt>
      <trkpt lat="44.69988" lon="4.83298">
        <ele>166</ele>
        <time>2021-07-10T07:36:16</time>
      </trkpt>
      <trkpt lat="44.69988" lon="4.83298">
        <ele>166.2</ele>
        <time>2021-07-10T07:36:17</time>
      </trkpt>
      <trkpt lat="44.69987" lon="4.83299">
        <ele>166.4</ele>
        <time>2021-07-10T07:36:18</time>
      </trkpt>
      <trkpt lat="44.69984" lon="4.83298">
        <ele>166.6</ele>
        <time>2021-07-10T07:36:19</time>
      </trkpt>
      <trkpt lat="44.69982" lon="4.83299">
        <ele>166.8</ele>
        <time>2021-07-10T07:36:20</time>
      </trkpt>
      <trkpt lat="44.6998" lon="4.83298">
        <ele>166.8</ele>
        <time>2021-07-10T07:36:21</time>
      </trkpt>
      <trkpt lat="44.6998" lon="4.83298">
        <ele>166.8</ele>
        <time>2021-07-10T07:36:22</time>
      </trkpt>
      <trkpt lat="44.6998" lon="4.83295">
        <ele>166.8</ele>
        <time>2021-07-10T07:36:23</time>
      </trkpt>
      <trkpt lat="44.69979" lon="4.83294">
        <ele>166.8</ele>
        <time>2021-07-10T07:36:24</time>
      </trkpt>
      <trkpt lat="44.69977" lon="4.83295">
        <ele>166.8</ele>
        <time>2021-07-10T07:36:25</time>
      </trkpt>
      <trkpt lat="44.69975" lon="4.83294">
        <ele>166.8</ele>
        <time>2021-07-10T07:36:26</time>
      </trkpt>
      <trkpt lat="44.69975" lon="4.83293">
        <ele>166.8</ele>
        <time>2021-07-10T07:36:27</time>
      </trkpt>
      <trkpt lat="44.69975" lon="4.83291">
        <ele>167</ele>
        <time>2021-07-10T07:36:28</time>
      </trkpt>
      <trkpt lat="44.69974" lon="4.83291">
        <ele>167</ele>
        <time>2021-07-10T07:36:29</time>
      </trkpt>
      <trkpt lat="44.69969" lon="4.83292">
        <ele>167.2</ele>
        <time>2021-07-10T07:36:30</time>
      </trkpt>
      <trkpt lat="44.69969" lon="4.83292">
        <ele>167.4</ele>
        <time>2021-07-10T07:36:31</time>
      </trkpt>
      <trkpt lat="44.69967" lon="4.83294">
        <ele>167.6</ele>
        <time>2021-07-10T07:36:32</time>
      </trkpt>
      <trkpt lat="44.69965" lon="4.83294">
        <ele>167.8</ele>
        <time>2021-07-10T07:36:33</time>
      </trkpt>
      <trkpt lat="44.69964" lon="4.83296">
        <ele>168</ele>
        <time>2021-07-10T07:36:34</time>
      </trkpt>
      <trkpt lat="44.69961" lon="4.83294">
        <ele>168.2</ele>
        <time>2021-07-10T07:36:35</time>
      </trkpt>
      <trkpt lat="44.6996" lon="4.83295">
        <ele>168.4</ele>
        <time>2021-07-10T07:36:36</time>
      </trkpt>
      <trkpt lat="44.69958" lon="4.83298">
        <ele>168.6</ele>
        <time>2021-07-10T07:36:37</time>
      </trkpt>
      <trkpt lat="44.69958" lon="4.83298">
        <ele>169</ele>
        <time>2021-07-10T07:36:38</time>
      </trkpt>
      <trkpt lat="44.69958" lon="4.833">
        <ele>169.2</ele>
        <time>2021-07-10T07:36:39</time>
      </trkpt>
      <trkpt lat="44.69956" lon="4.83299">
        <ele>169.4</ele>
        <time>2021-07-10T07:36:40</time>
      </trkpt>
      <trkpt lat="44.69953" lon="4.83303">
        <ele>169.6</ele>
        <time>2021-07-10T07:36:41</time>
      </trkpt>
      <trkpt lat="44.69953" lon="4.83303">
        <ele>169.8</ele>
        <time>2021-07-10T07:36:42</time>
      </trkpt>
      <trkpt lat="44.69951" lon="4.83304">
        <ele>169.8</ele>
        <time>2021-07-10T07:36:43</time>
      </trkpt>
      <trkpt lat="44.69948" lon="4.83305">
        <ele>170</ele>
        <time>2021-07-10T07:36:44</time>
      </trkpt>
      <trkpt lat="44.69948" lon="4.83305">
        <ele>170.2</ele>
        <time>2021-07-10T07:36:45</time>
      </trkpt>
      <trkpt lat="44.69945" lon="4.83308">
        <ele>170.2</ele>
        <time>2021-07-10T07:36:46</time>
      </trkpt>
      <trkpt lat="44.69945" lon="4.83308">
        <ele>170.4</ele>
        <time>2021-07-10T07:36:47</time>
      </trkpt>
      <trkpt lat="44.69942" lon="4.83307">
        <ele>170.4</ele>
        <time>2021-07-10T07:36:48</time>
      </trkpt>
      <trkpt lat="44.69941" lon="4.83305">
        <ele>170.6</ele>
        <time>2021-07-10T07:36:49</time>
      </trkpt>
      <trkpt lat="44.69938" lon="4.83303">
        <ele>170.6</ele>
        <time>2021-07-10T07:36:50</time>
      </trkpt>
      <trkpt lat="44.69936" lon="4.83303">
        <ele>170.6</ele>
        <time>2021-07-10T07:36:51</time>
      </trkpt>
      <trkpt lat="44.69935" lon="4.83302">
        <ele>170.6</ele>
        <time>2021-07-10T07:36:52</time>
      </trkpt>
      <trkpt lat="44.69932" lon="4.833">
        <ele>170.6</ele>
        <time>2021-07-10T07:36:53</time>
      </trkpt>
      <trkpt lat="44.69932" lon="4.833">
        <ele>170.6</ele>
        <time>2021-07-10T07:36:54</time>
      </trkpt>
      <trkpt lat="44.69929" lon="4.833">
        <ele>170.6</ele>
        <time>2021-07-10T07:36:55</time>
      </trkpt>
      <trkpt lat="44.69926" lon="4.833">
        <ele>170.8</ele>
        <time>2021-07-10T07:36:56</time>
      </trkpt>
      <trkpt lat="44.69923" lon="4.83299">
        <ele>170.8</ele>
        <time>2021-07-10T07:36:57</time>
      </trkpt>
      <trkpt lat="44.69923" lon="4.83299">
        <ele>171</ele>
        <time>2021-07-10T07:36:58</time>
      </trkpt>
      <trkpt lat="44.69922" lon="4.83298">
        <ele>171</ele>
        <time>2021-07-10T07:36:59</time>
      </trkpt>
      <trkpt lat="44.6992" lon="4.83298">
        <ele>171.2</ele>
        <time>2021-07-10T07:37:00</time>
      </trkpt>
      <trkpt lat="44.6992" lon="4.83298">
        <ele>171.2</ele>
        <time>2021-07-10T07:37:01</time>
      </trkpt>
      <trkpt lat="44.69917" lon="4.83298">
        <ele>171.4</ele>
        <time>2021-07-10T07:37:02</time>
      </trkpt>
      <trkpt lat="44.69916" lon="4.83296">
        <ele>171.6</ele>
        <time>2021-07-10T07:37:03</time>
      </trkpt>
      <trkpt lat="44.69914" lon="4.83295">
        <ele>171.8</ele>
        <time>2021-07-10T07:37:04</time>
      </trkpt>
      <trkpt lat="44.69913" lon="4.83294">
        <ele>172</ele>
        <time>2021-07-10T07:37:05</time>
      </trkpt>
      <trkpt lat="44.69911" lon="4.83294">
        <ele>172.2</ele>
        <time>2021-07-10T07:37:06</time>
      </trkpt>
      <trkpt lat="44.6991" lon="4.83293">
        <ele>172.2</ele>
        <time>2021-07-10T07:37:07</time>
      </trkpt>
      <trkpt lat="44.69909" lon="4.83292">
        <ele>172.4</ele>
        <time>2021-07-10T07:37:08</time>
      </trkpt>
      <trkpt lat="44.69906" lon="4.83289">
        <ele>172.6</ele>
        <time>2021-07-10T07:37:09</time>
      </trkpt>
      <trkpt lat="44.69906" lon="4.83289">
        <ele>172.8</ele>
        <time>2021-07-10T07:37:10</time>
      </trkpt>
      <trkpt lat="44.69905" lon="4.83288">
        <ele>173</ele>
        <time>2021-07-10T07:37:11</time>
      </trkpt>
      <trkpt lat="44.69903" lon="4.83288">
        <ele>173</ele>
        <time>2021-07-10T07:37:12</time>
      </trkpt>
      <trkpt lat="44.69901" lon="4.83288">
        <ele>173.2</ele>
        <time>2021-07-10T07:37:13</time>
      </trkpt>
      <trkpt lat="44.69901" lon="4.83289">
        <ele>173.4</ele>
        <time>2021-07-10T07:37:14</time>
      </trkpt>
      <trkpt lat="44.69898" lon="4.83287">
        <ele>173.6</ele>
        <time>2021-07-10T07:37:15</time>
      </trkpt>
      <trkpt lat="44.69895" lon="4.83283">
        <ele>173.8</ele>
        <time>2021-07-10T07:37:16</time>
      </trkpt>
      <trkpt lat="44.69895" lon="4.83283">
        <ele>173.8</ele>
        <time>2021-07-10T07:37:17</time>
      </trkpt>
      <trkpt lat="44.69893" lon="4.83283">
        <ele>174</ele>
        <time>2021-07-10T07:37:18</time>
      </trkpt>
      <trkpt lat="44.6989" lon="4.83281">
        <ele>174.2</ele>
        <time>2021-07-10T07:37:19</time>
      </trkpt>
      <trkpt lat="44.69889" lon="4.8328">
        <ele>174.4</ele>
        <time>2021-07-10T07:37:20</time>
      </trkpt>
      <trkpt lat="44.69887" lon="4.83278">
        <ele>174.6</ele>
        <time>2021-07-10T07:37:21</time>
      </trkpt>
      <trkpt lat="44.69887" lon="4.83278">
        <ele>174.6</ele>
        <time>2021-07-10T07:37:22</time>
      </trkpt>
      <trkpt lat="44.69885" lon="4.83275">
        <ele>174.8</ele>
        <time>2021-07-10T07:37:23</time>
      </trkpt>
      <trkpt lat="44.69883" lon="4.83274">
        <ele>174.8</ele>
        <time>2021-07-10T07:37:24</time>
      </trkpt>
      <trkpt lat="44.69881" lon="4.83271">
        <ele>175</ele>
        <time>2021-07-10T07:37:25</time>
      </trkpt>
      <trkpt lat="44.69881" lon="4.83271">
        <ele>175</ele>
        <time>2021-07-10T07:37:26</time>
      </trkpt>
      <trkpt lat="44.6988" lon="4.8327">
        <ele>175</ele>
        <time>2021-07-10T07:37:27</time>
      </trkpt>
      <trkpt lat="44.69876" lon="4.8327">
        <ele>175</ele>
        <time>2021-07-10T07:37:28</time>
      </trkpt>
      <trkpt lat="44.69876" lon="4.83271">
        <ele>175.2</ele>
        <time>2021-07-10T07:37:29</time>
      </trkpt>
      <trkpt lat="44.69874" lon="4.8327">
        <ele>175.4</ele>
        <time>2021-07-10T07:37:30</time>
      </trkpt>
      <trkpt lat="44.69872" lon="4.8327">
        <ele>175.6</ele>
        <time>2021-07-10T07:37:31</time>
      </trkpt>
      <trkpt lat="44.6987" lon="4.83272">
        <ele>175.8</ele>
        <time>2021-07-10T07:37:32</time>
      </trkpt>
      <trkpt lat="44.6987" lon="4.83272">
        <ele>176.2</ele>
        <time>2021-07-10T07:37:33</time>
      </trkpt>
      <trkpt lat="44.69867" lon="4.83273">
        <ele>176.4</ele>
        <time>2021-07-10T07:37:34</time>
      </trkpt>
      <trkpt lat="44.69867" lon="4.83274">
        <ele>176.8</ele>
        <time>2021-07-10T07:37:35</time>
      </trkpt>
      <trkpt lat="44.69866" lon="4.83277">
        <ele>177</ele>
        <time>2021-07-10T07:37:36</time>
      </trkpt>
      <trkpt lat="44.69866" lon="4.83278">
        <ele>177.4</ele>
        <time>2021-07-10T07:37:37</time>
      </trkpt>
      <trkpt lat="44.69864" lon="4.83279">
        <ele>177.6</ele>
        <time>2021-07-10T07:37:38</time>
      </trkpt>
      <trkpt lat="44.69864" lon="4.83278">
        <ele>178</ele>
        <time>2021-07-10T07:37:39</time>
      </trkpt>
      <trkpt lat="44.69863" lon="4.83279">
        <ele>178.2</ele>
        <time>2021-07-10T07:37:40</time>
      </trkpt>
      <trkpt lat="44.6986" lon="4.83283">
        <ele>178.4</ele>
        <time>2021-07-10T07:37:41</time>
      </trkpt>
      <trkpt lat="44.6986" lon="4.83283">
        <ele>178.6</ele>
        <time>2021-07-10T07:37:42</time>
      </trkpt>
      <trkpt lat="44.69858" lon="4.83284">
        <ele>178.8</ele>
        <time>2021-07-10T07:37:43</time>
      </trkpt>
      <trkpt lat="44.69857" lon="4.83286">
        <ele>179</ele>
        <time>2021-07-10T07:37:44</time>
      </trkpt>
      <trkpt lat="44.69853" lon="4.83289">
        <ele>179.2</ele>
        <time>2021-07-10T07:37:45</time>
      </trkpt>
      <trkpt lat="44.69853" lon="4.83289">
        <ele>179.4</ele>
        <time>2021-07-10T07:37:46</time>
      </trkpt>
      <trkpt lat="44.69852" lon="4.83291">
        <ele>179.6</ele>
        <time>2021-07-10T07:37:47</time>
      </trkpt>
      <trkpt lat="44.6985" lon="4.83293">
        <ele>179.8</ele>
        <time>2021-07-10T07:37:48</time>
      </trkpt>
      <trkpt lat="44.6985" lon="4.83293">
        <ele>180</ele>
        <time>2021-07-10T07:37:49</time>
      </trkpt>
      <trkpt lat="44.69849" lon="4.83293">
        <ele>180.2</ele>
        <time>2021-07-10T07:37:50</time>
      </trkpt>
      <trkpt lat="44.69848" lon="4.83292">
        <ele>180.4</ele>
        <time>2021-07-10T07:37:51</time>
      </trkpt>
      <trkpt lat="44.69847" lon="4.83292">
        <ele>180.6</ele>
        <time>2021-07-10T07:37:52</time>
      </trkpt>
      <trkpt lat="44.69846" lon="4.83291">
        <ele>180.8</ele>
        <time>2021-07-10T07:37:53</time>
      </trkpt>
      <trkpt lat="44.69846" lon="4.83293">
        <ele>181</ele>
        <time>2021-07-10T07:37:54</time>
      </trkpt>
      <trkpt lat="44.69842" lon="4.83297">
        <ele>181.2</ele>
        <time>2021-07-10T07:37:55</time>
      </trkpt>
      <trkpt lat="44.69842" lon="4.83297">
        <ele>181.4</ele>
        <time>2021-07-10T07:37:56</time>
      </trkpt>
      <trkpt lat="44.69841" lon="4.83299">
        <ele>181.6</ele>
        <time>2021-07-10T07:37:57</time>
      </trkpt>
      <trkpt lat="44.69841" lon="4.83299">
        <ele>181.8</ele>
        <time>2021-07-10T07:37:58</time>
      </trkpt>
      <trkpt lat="44.6984" lon="4.83299">
        <ele>182</ele>
        <time>2021-07-10T07:37:59</time>
      </trkpt>
      <trkpt lat="44.69839" lon="4.833">
        <ele>182.4</ele>
        <time>2021-07-10T07:38:00</time>
      </trkpt>
      <trkpt lat="44.69838" lon="4.83302">
        <ele>182.6</ele>
        <time>2021-07-10T07:38:01</time>
      </trkpt>
      <trkpt lat="44.69836" lon="4.83304">
        <ele>182.8</ele>
        <time>2021-07-10T07:38:02</time>
      </trkpt>
      <trkpt lat="44.69834" lon="4.83305">
        <ele>183</ele>
        <time>2021-07-10T07:38:03</time>
      </trkpt>
      <trkpt lat="44.69834" lon="4.83308">
        <ele>183</ele>
        <time>2021-07-10T07:38:04</time>
      </trkpt>
      <trkpt lat="44.69832" lon="4.83311">
        <ele>183.4</ele>
        <time>2021-07-10T07:38:05</time>
      </trkpt>
      <trkpt lat="44.69832" lon="4.83313">
        <ele>183.6</ele>
        <time>2021-07-10T07:38:06</time>
      </trkpt>
      <trkpt lat="44.69831" lon="4.83315">
        <ele>183.8</ele>
        <time>2021-07-10T07:38:07</time>
      </trkpt>
      <trkpt lat="44.6983" lon="4.83318">
        <ele>184</ele>
        <time>2021-07-10T07:38:08</time>
      </trkpt>
      <trkpt lat="44.69829" lon="4.83319">
        <ele>184.2</ele>
        <time>2021-07-10T07:38:09</time>
      </trkpt>
      <trkpt lat="44.69827" lon="4.83321">
        <ele>184.4</ele>
        <time>2021-07-10T07:38:10</time>
      </trkpt>
      <trkpt lat="44.69826" lon="4.83323">
        <ele>184.6</ele>
        <time>2021-07-10T07:38:11</time>
      </trkpt>
      <trkpt lat="44.69826" lon="4.83323">
        <ele>184.8</ele>
        <time>2021-07-10T07:38:12</time>
      </trkpt>
      <trkpt lat="44.69825" lon="4.83327">
        <ele>185</ele>
        <time>2021-07-10T07:38:13</time>
      </trkpt>
      <trkpt lat="44.69823" lon="4.83327">
        <ele>185.2</ele>
        <time>2021-07-10T07:38:14</time>
      </trkpt>
      <trkpt lat="44.69822" lon="4.83328">
        <ele>185.4</ele>
        <time>2021-07-10T07:38:15</time>
      </trkpt>
      <trkpt lat="44.69821" lon="4.83328">
        <ele>185.6</ele>
        <time>2021-07-10T07:38:16</time>
      </trkpt>
      <trkpt lat="44.69821" lon="4.83328">
        <ele>185.8</ele>
        <time>2021-07-10T07:38:17</time>
      </trkpt>
      <trkpt lat="44.69817" lon="4.83329">
        <ele>186</ele>
        <time>2021-07-10T07:38:18</time>
      </trkpt>
      <trkpt lat="44.69817" lon="4.83329">
        <ele>186.2</ele>
        <time>2021-07-10T07:38:19</time>
      </trkpt>
      <trkpt lat="44.69817" lon="4.83328">
        <ele>186.4</ele>
        <time>2021-07-10T07:38:20</time>
      </trkpt>
      <trkpt lat="44.69815" lon="4.83331">
        <ele>186.6</ele>
        <time>2021-07-10T07:38:21</time>
      </trkpt>
      <trkpt lat="44.69811" lon="4.83337">
        <ele>186.8</ele>
        <time>2021-07-10T07:38:22</time>
      </trkpt>
      <trkpt lat="44.69811" lon="4.83337">
        <ele>187.2</ele>
        <time>2021-07-10T07:38:23</time>
      </trkpt>
      <trkpt lat="44.69809" lon="4.83338">
        <ele>187.4</ele>
        <time>2021-07-10T07:38:24</time>
      </trkpt>
      <trkpt lat="44.69806" lon="4.83344">
        <ele>187.6</ele>
        <time>2021-07-10T07:38:25</time>
      </trkpt>
      <trkpt lat="44.69806" lon="4.83344">
        <ele>187.8</ele>
        <time>2021-07-10T07:38:26</time>
      </trkpt>
      <trkpt lat="44.69805" lon="4.83346">
        <ele>188</ele>
        <time>2021-07-10T07:38:27</time>
      </trkpt>
      <trkpt lat="44.69805" lon="4.83348">
        <ele>188.2</ele>
        <time>2021-07-10T07:38:28</time>
      </trkpt>
      <trkpt lat="44.69806" lon="4.83348">
        <ele>188.4</ele>
        <time>2021-07-10T07:38:29</time>
      </trkpt>
      <trkpt lat="44.69806" lon="4.8335">
        <ele>188.6</ele>
        <time>2021-07-10T07:38:30</time>
      </trkpt>
      <trkpt lat="44.69805" lon="4.83352">
        <ele>188.8</ele>
        <time>2021-07-10T07:38:31</time>
      </trkpt>
      <trkpt lat="44.69804" lon="4.83353">
        <ele>189</ele>
        <time>2021-07-10T07:38:32</time>
      </trkpt>
      <trkpt lat="44.69803" lon="4.83354">
        <ele>189.2</ele>
        <time>2021-07-10T07:38:33</time>
      </trkpt>
      <trkpt lat="44.69801" lon="4.83358">
        <ele>189.4</ele>
        <time>2021-07-10T07:38:34</time>
      </trkpt>
      <trkpt lat="44.69801" lon="4.8336">
        <ele>189.6</ele>
        <time>2021-07-10T07:38:35</time>
      </trkpt>
      <trkpt lat="44.69799" lon="4.83361">
        <ele>189.8</ele>
        <time>2021-07-10T07:38:36</time>
      </trkpt>
      <trkpt lat="44.69797" lon="4.83363">
        <ele>190</ele>
        <time>2021-07-10T07:38:37</time>
      </trkpt>
      <trkpt lat="44.69796" lon="4.83365">
        <ele>190</ele>
        <time>2021-07-10T07:38:38</time>
      </trkpt>
      <trkpt lat="44.69796" lon="4.83366">
        <ele>190.2</ele>
        <time>2021-07-10T07:38:39</time>
      </trkpt>
      <trkpt lat="44.69794" lon="4.83366">
        <ele>190.4</ele>
        <time>2021-07-10T07:38:40</time>
      </trkpt>
      <trkpt lat="44.69791" lon="4.83367">
        <ele>190.6</ele>
        <time>2021-07-10T07:38:41</time>
      </trkpt>
      <trkpt lat="44.69791" lon="4.83367">
        <ele>190.8</ele>
        <time>2021-07-10T07:38:42</time>
      </trkpt>
      <trkpt lat="44.6979" lon="4.83369">
        <ele>191.2</ele>
        <time>2021-07-10T07:38:43</time>
      </trkpt>
      <trkpt lat="44.6979" lon="4.8337">
        <ele>191.4</ele>
        <time>2021-07-10T07:38:44</time>
      </trkpt>
      <trkpt lat="44.69789" lon="4.83373">
        <ele>191.6</ele>
        <time>2021-07-10T07:38:45</time>
      </trkpt>
      <trkpt lat="44.69787" lon="4.83375">
        <ele>191.8</ele>
        <time>2021-07-10T07:38:46</time>
      </trkpt>
      <trkpt lat="44.69786" lon="4.83377">
        <ele>191.8</ele>
        <time>2021-07-10T07:38:47</time>
      </trkpt>
      <trkpt lat="44.69784" lon="4.83383">
        <ele>192.2</ele>
        <time>2021-07-10T07:38:48</time>
      </trkpt>
      <trkpt lat="44.69784" lon="4.83383">
        <ele>192.4</ele>
        <time>2021-07-10T07:38:49</time>
      </trkpt>
      <trkpt lat="44.69783" lon="4.83383">
        <ele>192.6</ele>
        <time>2021-07-10T07:38:50</time>
      </trkpt>
      <trkpt lat="44.69782" lon="4.83382">
        <ele>192.8</ele>
        <time>2021-07-10T07:38:51</time>
      </trkpt>
      <trkpt lat="44.69779" lon="4.83386">
        <ele>192.8</ele>
        <time>2021-07-10T07:38:52</time>
      </trkpt>
      <trkpt lat="44.69778" lon="4.8339">
        <ele>193</ele>
        <time>2021-07-10T07:38:53</time>
      </trkpt>
      <trkpt lat="44.69778" lon="4.8339">
        <ele>193.2</ele>
        <time>2021-07-10T07:38:54</time>
      </trkpt>
      <trkpt lat="44.69775" lon="4.83392">
        <ele>193.4</ele>
        <time>2021-07-10T07:38:55</time>
      </trkpt>
      <trkpt lat="44.69775" lon="4.83392">
        <ele>193.6</ele>
        <time>2021-07-10T07:38:56</time>
      </trkpt>
      <trkpt lat="44.69774" lon="4.83392">
        <ele>193.8</ele>
        <time>2021-07-10T07:38:57</time>
      </trkpt>
      <trkpt lat="44.69772" lon="4.83393">
        <ele>194</ele>
        <time>2021-07-10T07:38:58</time>
      </trkpt>
      <trkpt lat="44.69772" lon="4.83393">
        <ele>194</ele>
        <time>2021-07-10T07:38:59</time>
      </trkpt>
      <trkpt lat="44.69772" lon="4.83396">
        <ele>194.2</ele>
        <time>2021-07-10T07:39:00</time>
      </trkpt>
      <trkpt lat="44.69771" lon="4.83399">
        <ele>194.4</ele>
        <time>2021-07-10T07:39:01</time>
      </trkpt>
      <trkpt lat="44.69767" lon="4.83401">
        <ele>194.6</ele>
        <time>2021-07-10T07:39:02</time>
      </trkpt>
      <trkpt lat="44.69767" lon="4.83401">
        <ele>194.8</ele>
        <time>2021-07-10T07:39:03</time>
      </trkpt>
      <trkpt lat="44.69767" lon="4.83403">
        <ele>195</ele>
        <time>2021-07-10T07:39:04</time>
      </trkpt>
      <trkpt lat="44.69765" lon="4.83401">
        <ele>195</ele>
        <time>2021-07-10T07:39:05</time>
      </trkpt>
      <trkpt lat="44.69763" lon="4.83403">
        <ele>195.2</ele>
        <time>2021-07-10T07:39:06</time>
      </trkpt>
      <trkpt lat="44.69763" lon="4.83403">
        <ele>195.4</ele>
        <time>2021-07-10T07:39:07</time>
      </trkpt>
      <trkpt lat="44.69761" lon="4.83404">
        <ele>195.6</ele>
        <time>2021-07-10T07:39:08</time>
      </trkpt>
      <trkpt lat="44.69758" lon="4.83406">
        <ele>195.8</ele>
        <time>2021-07-10T07:39:09</time>
      </trkpt>
      <trkpt lat="44.69758" lon="4.83406">
        <ele>196</ele>
        <time>2021-07-10T07:39:10</time>
      </trkpt>
      <trkpt lat="44.69757" lon="4.83407">
        <ele>196.2</ele>
        <time>2021-07-10T07:39:11</time>
      </trkpt>
      <trkpt lat="44.69756" lon="4.83409">
        <ele>196.4</ele>
        <time>2021-07-10T07:39:12</time>
      </trkpt>
      <trkpt lat="44.69754" lon="4.8341">
        <ele>196.6</ele>
        <time>2021-07-10T07:39:13</time>
      </trkpt>
      <trkpt lat="44.69752" lon="4.83414">
        <ele>196.8</ele>
        <time>2021-07-10T07:39:14</time>
      </trkpt>
      <trkpt lat="44.69753" lon="4.83417">
        <ele>197</ele>
        <time>2021-07-10T07:39:15</time>
      </trkpt>
      <trkpt lat="44.69751" lon="4.8342">
        <ele>197.2</ele>
        <time>2021-07-10T07:39:16</time>
      </trkpt>
      <trkpt lat="44.69751" lon="4.8342">
        <ele>197.4</ele>
        <time>2021-07-10T07:39:17</time>
      </trkpt>
      <trkpt lat="44.6975" lon="4.83422">
        <ele>197.6</ele>
        <time>2021-07-10T07:39:18</time>
      </trkpt>
      <trkpt lat="44.69747" lon="4.83423">
        <ele>197.8</ele>
        <time>2021-07-10T07:39:19</time>
      </trkpt>
      <trkpt lat="44.69745" lon="4.83424">
        <ele>198</ele>
        <time>2021-07-10T07:39:20</time>
      </trkpt>
      <trkpt lat="44.69745" lon="4.83425">
        <ele>198.2</ele>
        <time>2021-07-10T07:39:21</time>
      </trkpt>
      <trkpt lat="44.69744" lon="4.83427">
        <ele>198.6</ele>
        <time>2021-07-10T07:39:22</time>
      </trkpt>
      <trkpt lat="44.69743" lon="4.8343">
        <ele>198.8</ele>
        <time>2021-07-10T07:39:23</time>
      </trkpt>
      <trkpt lat="44.69744" lon="4.83432">
        <ele>199</ele>
        <time>2021-07-10T07:39:24</time>
      </trkpt>
      <trkpt lat="44.69741" lon="4.83433">
        <ele>199</ele>
        <time>2021-07-10T07:39:25</time>
      </trkpt>
      <trkpt lat="44.6974" lon="4.83433">
        <ele>199.2</ele>
        <time>2021-07-10T07:39:26</time>
      </trkpt>
      <trkpt lat="44.69739" lon="4.83435">
        <ele>199.6</ele>
        <time>2021-07-10T07:39:27</time>
      </trkpt>
      <trkpt lat="44.69738" lon="4.83435">
        <ele>199.8</ele>
        <time>2021-07-10T07:39:28</time>
      </trkpt>
      <trkpt lat="44.69736" lon="4.83435">
        <ele>200</ele>
        <time>2021-07-10T07:39:29</time>
      </trkpt>
      <trkpt lat="44.69735" lon="4.83435">
        <ele>200.2</ele>
        <time>2021-07-10T07:39:30</time>
      </trkpt>
      <trkpt lat="44.69735" lon="4.83435">
        <ele>200.4</ele>
        <time>2021-07-10T07:39:31</time>
      </trkpt>
      <trkpt lat="44.69734" lon="4.83438">
        <ele>200.6</ele>
        <time>2021-07-10T07:39:32</time>
      </trkpt>
      <trkpt lat="44.69734" lon="4.83438">
        <ele>200.6</ele>
        <time>2021-07-10T07:39:33</time>
      </trkpt>
      <trkpt lat="44.69732" lon="4.8344">
        <ele>200.8</ele>
        <time>2021-07-10T07:39:34</time>
      </trkpt>
      <trkpt lat="44.69731" lon="4.83443">
        <ele>201</ele>
        <time>2021-07-10T07:39:35</time>
      </trkpt>
      <trkpt lat="44.6973" lon="4.83442">
        <ele>201.2</ele>
        <time>2021-07-10T07:39:36</time>
      </trkpt>
      <trkpt lat="44.6973" lon="4.83444">
        <ele>201.4</ele>
        <time>2021-07-10T07:39:37</time>
      </trkpt>
      <trkpt lat="44.6973" lon="4.83448">
        <ele>201.6</ele>
        <time>2021-07-10T07:39:38</time>
      </trkpt>
      <trkpt lat="44.69726" lon="4.83451">
        <ele>201.8</ele>
        <time>2021-07-10T07:39:39</time>
      </trkpt>
      <trkpt lat="44.69726" lon="4.83451">
        <ele>202</ele>
        <time>2021-07-10T07:39:40</time>
      </trkpt>
      <trkpt lat="44.69725" lon="4.83453">
        <ele>202.2</ele>
        <time>2021-07-10T07:39:41</time>
      </trkpt>
      <trkpt lat="44.69725" lon="4.83455">
        <ele>202.4</ele>
        <time>2021-07-10T07:39:42</time>
      </trkpt>
      <trkpt lat="44.69724" lon="4.83457">
        <ele>202.6</ele>
        <time>2021-07-10T07:39:43</time>
      </trkpt>
      <trkpt lat="44.69723" lon="4.83458">
        <ele>202.8</ele>
        <time>2021-07-10T07:39:44</time>
      </trkpt>
      <trkpt lat="44.69723" lon="4.83461">
        <ele>202.8</ele>
        <time>2021-07-10T07:39:45</time>
      </trkpt>
      <trkpt lat="44.69722" lon="4.83464">
        <ele>203</ele>
        <time>2021-07-10T07:39:46</time>
      </trkpt>
      <trkpt lat="44.69722" lon="4.83464">
        <ele>203.2</ele>
        <time>2021-07-10T07:39:47</time>
      </trkpt>
      <trkpt lat="44.69721" lon="4.83466">
        <ele>203.2</ele>
        <time>2021-07-10T07:39:48</time>
      </trkpt>
      <trkpt lat="44.69721" lon="4.83469">
        <ele>203.4</ele>
        <time>2021-07-10T07:39:49</time>
      </trkpt>
      <trkpt lat="44.69718" lon="4.83472">
        <ele>203.6</ele>
        <time>2021-07-10T07:39:50</time>
      </trkpt>
      <trkpt lat="44.69718" lon="4.83472">
        <ele>203.8</ele>
        <time>2021-07-10T07:39:51</time>
      </trkpt>
      <trkpt lat="44.69715" lon="4.83477">
        <ele>203.8</ele>
        <time>2021-07-10T07:39:52</time>
      </trkpt>
      <trkpt lat="44.69715" lon="4.83478">
        <ele>204</ele>
        <time>2021-07-10T07:39:53</time>
      </trkpt>
      <trkpt lat="44.69714" lon="4.83479">
        <ele>204.2</ele>
        <time>2021-07-10T07:39:54</time>
      </trkpt>
      <trkpt lat="44.69714" lon="4.83483">
        <ele>204.4</ele>
        <time>2021-07-10T07:39:55</time>
      </trkpt>
      <trkpt lat="44.69714" lon="4.83483">
        <ele>204.6</ele>
        <time>2021-07-10T07:39:56</time>
      </trkpt>
      <trkpt lat="44.69712" lon="4.83486">
        <ele>204.8</ele>
        <time>2021-07-10T07:39:57</time>
      </trkpt>
      <trkpt lat="44.69712" lon="4.83487">
        <ele>205</ele>
        <time>2021-07-10T07:39:58</time>
      </trkpt>
      <trkpt lat="44.69711" lon="4.8349">
        <ele>205</ele>
        <time>2021-07-10T07:39:59</time>
      </trkpt>
      <trkpt lat="44.69711" lon="4.8349">
        <ele>205.2</ele>
        <time>2021-07-10T07:40:00</time>
      </trkpt>
      <trkpt lat="44.69711" lon="4.83492">
        <ele>205.4</ele>
        <time>2021-07-10T07:40:01</time>
      </trkpt>
      <trkpt lat="44.69708" lon="4.83496">
        <ele>205.4</ele>
        <time>2021-07-10T07:40:02</time>
      </trkpt>
      <trkpt lat="44.69708" lon="4.83496">
        <ele>205.4</ele>
        <time>2021-07-10T07:40:03</time>
      </trkpt>
      <trkpt lat="44.69705" lon="4.83503">
        <ele>205.2</ele>
        <time>2021-07-10T07:40:04</time>
      </trkpt>
      <trkpt lat="44.69705" lon="4.83504">
        <ele>204.8</ele>
        <time>2021-07-10T07:40:05</time>
      </trkpt>
      <trkpt lat="44.69704" lon="4.83506">
        <ele>204.8</ele>
        <time>2021-07-10T07:40:06</time>
      </trkpt>
      <trkpt lat="44.69704" lon="4.83507">
        <ele>205</ele>
        <time>2021-07-10T07:40:07</time>
      </trkpt>
      <trkpt lat="44.69705" lon="4.83509">
        <ele>205.6</ele>
        <time>2021-07-10T07:40:08</time>
      </trkpt>
      <trkpt lat="44.69704" lon="4.83512">
        <ele>206.4</ele>
        <time>2021-07-10T07:40:09</time>
      </trkpt>
      <trkpt lat="44.69704" lon="4.83514">
        <ele>206.4</ele>
        <time>2021-07-10T07:40:10</time>
      </trkpt>
      <trkpt lat="44.69704" lon="4.83515">
        <ele>206.6</ele>
        <time>2021-07-10T07:40:11</time>
      </trkpt>
      <trkpt lat="44.69703" lon="4.83517">
        <ele>206.6</ele>
        <time>2021-07-10T07:40:12</time>
      </trkpt>
      <trkpt lat="44.69703" lon="4.83519">
        <ele>206.4</ele>
        <time>2021-07-10T07:40:13</time>
      </trkpt>
      <trkpt lat="44.69702" lon="4.83521">
        <ele>206.4</ele>
        <time>2021-07-10T07:40:14</time>
      </trkpt>
      <trkpt lat="44.69701" lon="4.83524">
        <ele>206.6</ele>
        <time>2021-07-10T07:40:15</time>
      </trkpt>
      <trkpt lat="44.697" lon="4.83526">
        <ele>207.2</ele>
        <time>2021-07-10T07:40:16</time>
      </trkpt>
      <trkpt lat="44.697" lon="4.83528">
        <ele>208</ele>
        <time>2021-07-10T07:40:17</time>
      </trkpt>
      <trkpt lat="44.69699" lon="4.8353">
        <ele>208</ele>
        <time>2021-07-10T07:40:18</time>
      </trkpt>
      <trkpt lat="44.69699" lon="4.83532">
        <ele>208</ele>
        <time>2021-07-10T07:40:19</time>
      </trkpt>
      <trkpt lat="44.69698" lon="4.83534">
        <ele>208</ele>
        <time>2021-07-10T07:40:20</time>
      </trkpt>
      <trkpt lat="44.69697" lon="4.83536">
        <ele>208.4</ele>
        <time>2021-07-10T07:40:21</time>
      </trkpt>
      <trkpt lat="44.69695" lon="4.8354">
        <ele>208.6</ele>
        <time>2021-07-10T07:40:22</time>
      </trkpt>
      <trkpt lat="44.69695" lon="4.8354">
        <ele>209</ele>
        <time>2021-07-10T07:40:23</time>
      </trkpt>
      <trkpt lat="44.69694" lon="4.83542">
        <ele>209.2</ele>
        <time>2021-07-10T07:40:24</time>
      </trkpt>
      <trkpt lat="44.69694" lon="4.83544">
        <ele>209.2</ele>
        <time>2021-07-10T07:40:25</time>
      </trkpt>
      <trkpt lat="44.69692" lon="4.83546">
        <ele>209.2</ele>
        <time>2021-07-10T07:40:26</time>
      </trkpt>
      <trkpt lat="44.69691" lon="4.83548">
        <ele>209.2</ele>
        <time>2021-07-10T07:40:27</time>
      </trkpt>
      <trkpt lat="44.6969" lon="4.8355">
        <ele>209.2</ele>
        <time>2021-07-10T07:40:28</time>
      </trkpt>
      <trkpt lat="44.69688" lon="4.83554">
        <ele>209.2</ele>
        <time>2021-07-10T07:40:29</time>
      </trkpt>
      <trkpt lat="44.69688" lon="4.83554">
        <ele>209</ele>
        <time>2021-07-10T07:40:30</time>
      </trkpt>
      <trkpt lat="44.69687" lon="4.83556">
        <ele>209</ele>
        <time>2021-07-10T07:40:31</time>
      </trkpt>
      <trkpt lat="44.69686" lon="4.83557">
        <ele>209</ele>
        <time>2021-07-10T07:40:32</time>
      </trkpt>
      <trkpt lat="44.69686" lon="4.83559">
        <ele>209</ele>
        <time>2021-07-10T07:40:33</time>
      </trkpt>
      <trkpt lat="44.69685" lon="4.83561">
        <ele>209.2</ele>
        <time>2021-07-10T07:40:34</time>
      </trkpt>
      <trkpt lat="44.69683" lon="4.83565">
        <ele>209.2</ele>
        <time>2021-07-10T07:40:35</time>
      </trkpt>
      <trkpt lat="44.69683" lon="4.83565">
        <ele>209.4</ele>
        <time>2021-07-10T07:40:36</time>
      </trkpt>
      <trkpt lat="44.69682" lon="4.83566">
        <ele>209.6</ele>
        <time>2021-07-10T07:40:37</time>
      </trkpt>
      <trkpt lat="44.69681" lon="4.83568">
        <ele>209.6</ele>
        <time>2021-07-10T07:40:38</time>
      </trkpt>
      <trkpt lat="44.6968" lon="4.8357">
        <ele>209.8</ele>
        <time>2021-07-10T07:40:39</time>
      </trkpt>
      <trkpt lat="44.69679" lon="4.83572">
        <ele>210</ele>
        <time>2021-07-10T07:40:40</time>
      </trkpt>
      <trkpt lat="44.69677" lon="4.83577">
        <ele>210.2</ele>
        <time>2021-07-10T07:40:41</time>
      </trkpt>
      <trkpt lat="44.69677" lon="4.83577">
        <ele>210.4</ele>
        <time>2021-07-10T07:40:42</time>
      </trkpt>
      <trkpt lat="44.69676" lon="4.83578">
        <ele>210.6</ele>
        <time>2021-07-10T07:40:43</time>
      </trkpt>
      <trkpt lat="44.69675" lon="4.83581">
        <ele>210.8</ele>
        <time>2021-07-10T07:40:44</time>
      </trkpt>
      <trkpt lat="44.69674" lon="4.83584">
        <ele>211</ele>
        <time>2021-07-10T07:40:45</time>
      </trkpt>
      <trkpt lat="44.69674" lon="4.83585">
        <ele>211.2</ele>
        <time>2021-07-10T07:40:46</time>
      </trkpt>
      <trkpt lat="44.69672" lon="4.83589">
        <ele>211.2</ele>
        <time>2021-07-10T07:40:47</time>
      </trkpt>
      <trkpt lat="44.69671" lon="4.83591">
        <ele>211.4</ele>
        <time>2021-07-10T07:40:48</time>
      </trkpt>
      <trkpt lat="44.69671" lon="4.83591">
        <ele>211.6</ele>
        <time>2021-07-10T07:40:49</time>
      </trkpt>
      <trkpt lat="44.69669" lon="4.83593">
        <ele>211.8</ele>
        <time>2021-07-10T07:40:50</time>
      </trkpt>
      <trkpt lat="44.69668" lon="4.83594">
        <ele>211.8</ele>
        <time>2021-07-10T07:40:51</time>
      </trkpt>
      <trkpt lat="44.69668" lon="4.83598">
        <ele>212</ele>
        <time>2021-07-10T07:40:52</time>
      </trkpt>
      <trkpt lat="44.69667" lon="4.83602">
        <ele>212.2</ele>
        <time>2021-07-10T07:40:53</time>
      </trkpt>
      <trkpt lat="44.69667" lon="4.83607">
        <ele>212.2</ele>
        <time>2021-07-10T07:40:54</time>
      </trkpt>
      <trkpt lat="44.69667" lon="4.83607">
        <ele>212.4</ele>
        <time>2021-07-10T07:40:55</time>
      </trkpt>
      <trkpt lat="44.69668" lon="4.83608">
        <ele>212.4</ele>
        <time>2021-07-10T07:40:56</time>
      </trkpt>
      <trkpt lat="44.69669" lon="4.83608">
        <ele>212.6</ele>
        <time>2021-07-10T07:40:57</time>
      </trkpt>
      <trkpt lat="44.69671" lon="4.83613">
        <ele>212.6</ele>
        <time>2021-07-10T07:40:58</time>
      </trkpt>
      <trkpt lat="44.69671" lon="4.83613">
        <ele>212.8</ele>
        <time>2021-07-10T07:40:59</time>
      </trkpt>
      <trkpt lat="44.69674" lon="4.83615">
        <ele>213</ele>
        <time>2021-07-10T07:41:00</time>
      </trkpt>
      <trkpt lat="44.69674" lon="4.83615">
        <ele>213.2</ele>
        <time>2021-07-10T07:41:01</time>
      </trkpt>
      <trkpt lat="44.69677" lon="4.83618">
        <ele>213.4</ele>
        <time>2021-07-10T07:41:02</time>
      </trkpt>
      <trkpt lat="44.69678" lon="4.83621">
        <ele>213.6</ele>
        <time>2021-07-10T07:41:03</time>
      </trkpt>
      <trkpt lat="44.69678" lon="4.83623">
        <ele>213.6</ele>
        <time>2021-07-10T07:41:04</time>
      </trkpt>
      <trkpt lat="44.69678" lon="4.83624">
        <ele>213.8</ele>
        <time>2021-07-10T07:41:05</time>
      </trkpt>
      <trkpt lat="44.6968" lon="4.83629">
        <ele>214</ele>
        <time>2021-07-10T07:41:06</time>
      </trkpt>
      <trkpt lat="44.6968" lon="4.83629">
        <ele>214.2</ele>
        <time>2021-07-10T07:41:07</time>
      </trkpt>
      <trkpt lat="44.6968" lon="4.83629">
        <ele>214.4</ele>
        <time>2021-07-10T07:41:08</time>
      </trkpt>
      <trkpt lat="44.69679" lon="4.83629">
        <ele>214.6</ele>
        <time>2021-07-10T07:41:09</time>
      </trkpt>
      <trkpt lat="44.6968" lon="4.83633">
        <ele>215</ele>
        <time>2021-07-10T07:41:10</time>
      </trkpt>
      <trkpt lat="44.69678" lon="4.83635">
        <ele>215.4</ele>
        <time>2021-07-10T07:41:11</time>
      </trkpt>
      <trkpt lat="44.69679" lon="4.83637">
        <ele>215.8</ele>
        <time>2021-07-10T07:41:12</time>
      </trkpt>
      <trkpt lat="44.69679" lon="4.83639">
        <ele>216</ele>
        <time>2021-07-10T07:41:13</time>
      </trkpt>
      <trkpt lat="44.69677" lon="4.83645">
        <ele>216.2</ele>
        <time>2021-07-10T07:41:14</time>
      </trkpt>
      <trkpt lat="44.69677" lon="4.83645">
        <ele>216.2</ele>
        <time>2021-07-10T07:41:15</time>
      </trkpt>
      <trkpt lat="44.69676" lon="4.83646">
        <ele>216.4</ele>
        <time>2021-07-10T07:41:16</time>
      </trkpt>
      <trkpt lat="44.69675" lon="4.83649">
        <ele>216.4</ele>
        <time>2021-07-10T07:41:17</time>
      </trkpt>
      <trkpt lat="44.69674" lon="4.83648">
        <ele>216.6</ele>
        <time>2021-07-10T07:41:18</time>
      </trkpt>
      <trkpt lat="44.69673" lon="4.8365">
        <ele>216.8</ele>
        <time>2021-07-10T07:41:19</time>
      </trkpt>
      <trkpt lat="44.69673" lon="4.83652">
        <ele>216.8</ele>
        <time>2021-07-10T07:41:20</time>
      </trkpt>
      <trkpt lat="44.6967" lon="4.83656">
        <ele>217</ele>
        <time>2021-07-10T07:41:21</time>
      </trkpt>
      <trkpt lat="44.6967" lon="4.83656">
        <ele>217.2</ele>
        <time>2021-07-10T07:41:22</time>
      </trkpt>
      <trkpt lat="44.6967" lon="4.83658">
        <ele>217.4</ele>
        <time>2021-07-10T07:41:23</time>
      </trkpt>
      <trkpt lat="44.69669" lon="4.83658">
        <ele>217.6</ele>
        <time>2021-07-10T07:41:24</time>
      </trkpt>
      <trkpt lat="44.69667" lon="4.83658">
        <ele>217.8</ele>
        <time>2021-07-10T07:41:25</time>
      </trkpt>
      <trkpt lat="44.69666" lon="4.8366">
        <ele>218.2</ele>
        <time>2021-07-10T07:41:26</time>
      </trkpt>
      <trkpt lat="44.69668" lon="4.83661">
        <ele>218.4</ele>
        <time>2021-07-10T07:41:27</time>
      </trkpt>
      <trkpt lat="44.69668" lon="4.83665">
        <ele>218.6</ele>
        <time>2021-07-10T07:41:28</time>
      </trkpt>
      <trkpt lat="44.69668" lon="4.83665">
        <ele>219</ele>
        <time>2021-07-10T07:41:29</time>
      </trkpt>
      <trkpt lat="44.69665" lon="4.83665">
        <ele>219.2</ele>
        <time>2021-07-10T07:41:30</time>
      </trkpt>
      <trkpt lat="44.69664" lon="4.83666">
        <ele>219.4</ele>
        <time>2021-07-10T07:41:31</time>
      </trkpt>
      <trkpt lat="44.69661" lon="4.83669">
        <ele>219.6</ele>
        <time>2021-07-10T07:41:32</time>
      </trkpt>
      <trkpt lat="44.6966" lon="4.83669">
        <ele>219.8</ele>
        <time>2021-07-10T07:41:33</time>
      </trkpt>
      <trkpt lat="44.69658" lon="4.83673">
        <ele>220</ele>
        <time>2021-07-10T07:41:34</time>
      </trkpt>
      <trkpt lat="44.69657" lon="4.83675">
        <ele>220.2</ele>
        <time>2021-07-10T07:41:35</time>
      </trkpt>
      <trkpt lat="44.69657" lon="4.83675">
        <ele>220.4</ele>
        <time>2021-07-10T07:41:36</time>
      </trkpt>
      <trkpt lat="44.69655" lon="4.83676">
        <ele>220.6</ele>
        <time>2021-07-10T07:41:37</time>
      </trkpt>
      <trkpt lat="44.69655" lon="4.83676">
        <ele>220.8</ele>
        <time>2021-07-10T07:41:38</time>
      </trkpt>
      <trkpt lat="44.69653" lon="4.83676">
        <ele>221</ele>
        <time>2021-07-10T07:41:39</time>
      </trkpt>
      <trkpt lat="44.69654" lon="4.83682">
        <ele>221.2</ele>
        <time>2021-07-10T07:41:40</time>
      </trkpt>
      <trkpt lat="44.69655" lon="4.83684">
        <ele>221.4</ele>
        <time>2021-07-10T07:41:41</time>
      </trkpt>
      <trkpt lat="44.69655" lon="4.83684">
        <ele>221.6</ele>
        <time>2021-07-10T07:41:42</time>
      </trkpt>
      <trkpt lat="44.69653" lon="4.83688">
        <ele>222</ele>
        <time>2021-07-10T07:41:43</time>
      </trkpt>
      <trkpt lat="44.69648" lon="4.83691">
        <ele>222.2</ele>
        <time>2021-07-10T07:41:44</time>
      </trkpt>
      <trkpt lat="44.69648" lon="4.83691">
        <ele>222.2</ele>
        <time>2021-07-10T07:41:45</time>
      </trkpt>
      <trkpt lat="44.69647" lon="4.83692">
        <ele>222.6</ele>
        <time>2021-07-10T07:41:46</time>
      </trkpt>
      <trkpt lat="44.69646" lon="4.83696">
        <ele>222.8</ele>
        <time>2021-07-10T07:41:47</time>
      </trkpt>
      <trkpt lat="44.69646" lon="4.83696">
        <ele>223</ele>
        <time>2021-07-10T07:41:48</time>
      </trkpt>
      <trkpt lat="44.69642" lon="4.837">
        <ele>223.2</ele>
        <time>2021-07-10T07:41:49</time>
      </trkpt>
      <trkpt lat="44.69642" lon="4.837">
        <ele>223.4</ele>
        <time>2021-07-10T07:41:50</time>
      </trkpt>
      <trkpt lat="44.6964" lon="4.83701">
        <ele>223.6</ele>
        <time>2021-07-10T07:41:51</time>
      </trkpt>
      <trkpt lat="44.69639" lon="4.83702">
        <ele>223.8</ele>
        <time>2021-07-10T07:41:52</time>
      </trkpt>
      <trkpt lat="44.69637" lon="4.83705">
        <ele>224</ele>
        <time>2021-07-10T07:41:53</time>
      </trkpt>
      <trkpt lat="44.69637" lon="4.83705">
        <ele>224.2</ele>
        <time>2021-07-10T07:41:54</time>
      </trkpt>
      <trkpt lat="44.69636" lon="4.83706">
        <ele>224.4</ele>
        <time>2021-07-10T07:41:55</time>
      </trkpt>
      <trkpt lat="44.69635" lon="4.83707">
        <ele>224.6</ele>
        <time>2021-07-10T07:41:56</time>
      </trkpt>
      <trkpt lat="44.69634" lon="4.8371">
        <ele>224.8</ele>
        <time>2021-07-10T07:41:57</time>
      </trkpt>
      <trkpt lat="44.69632" lon="4.83712">
        <ele>225</ele>
        <time>2021-07-10T07:41:58</time>
      </trkpt>
      <trkpt lat="44.69632" lon="4.83712">
        <ele>225.2</ele>
        <time>2021-07-10T07:41:59</time>
      </trkpt>
      <trkpt lat="44.69632" lon="4.83713">
        <ele>225.2</ele>
        <time>2021-07-10T07:42:00</time>
      </trkpt>
      <trkpt lat="44.6963" lon="4.83713">
        <ele>225.2</ele>
        <time>2021-07-10T07:42:01</time>
      </trkpt>
      <trkpt lat="44.69627" lon="4.83716">
        <ele>225.2</ele>
        <time>2021-07-10T07:42:02</time>
      </trkpt>
      <trkpt lat="44.69627" lon="4.83716">
        <ele>226</ele>
        <time>2021-07-10T07:42:03</time>
      </trkpt>
      <trkpt lat="44.69627" lon="4.83716">
        <ele>227.2</ele>
        <time>2021-07-10T07:42:04</time>
      </trkpt>
      <trkpt lat="44.69627" lon="4.83716">
        <ele>228.4</ele>
        <time>2021-07-10T07:42:05</time>
      </trkpt>
      <trkpt lat="44.69624" lon="4.83718">
        <ele>228.4</ele>
        <time>2021-07-10T07:42:06</time>
      </trkpt>
      <trkpt lat="44.69624" lon="4.83718">
        <ele>228.8</ele>
        <time>2021-07-10T07:42:07</time>
      </trkpt>
      <trkpt lat="44.69623" lon="4.83719">
        <ele>228.4</ele>
        <time>2021-07-10T07:42:08</time>
      </trkpt>
      <trkpt lat="44.69621" lon="4.83718">
        <ele>227.8</ele>
        <time>2021-07-10T07:42:09</time>
      </trkpt>
      <trkpt lat="44.6962" lon="4.83719">
        <ele>227.8</ele>
        <time>2021-07-10T07:42:10</time>
      </trkpt>
      <trkpt lat="44.69619" lon="4.83719">
        <ele>228.2</ele>
        <time>2021-07-10T07:42:11</time>
      </trkpt>
      <trkpt lat="44.69615" lon="4.8372">
        <ele>228.2</ele>
        <time>2021-07-10T07:42:12</time>
      </trkpt>
      <trkpt lat="44.69615" lon="4.8372">
        <ele>228.2</ele>
        <time>2021-07-10T07:42:13</time>
      </trkpt>
      <trkpt lat="44.69614" lon="4.83719">
        <ele>228.2</ele>
        <time>2021-07-10T07:42:14</time>
      </trkpt>
      <trkpt lat="44.69612" lon="4.83722">
        <ele>228.2</ele>
        <time>2021-07-10T07:42:15</time>
      </trkpt>
      <trkpt lat="44.6961" lon="4.83723">
        <ele>228</ele>
        <time>2021-07-10T07:42:16</time>
      </trkpt>
      <trkpt lat="44.69609" lon="4.83724">
        <ele>228</ele>
        <time>2021-07-10T07:42:17</time>
      </trkpt>
      <trkpt lat="44.69608" lon="4.83726">
        <ele>228.2</ele>
        <time>2021-07-10T07:42:18</time>
      </trkpt>
      <trkpt lat="44.69607" lon="4.83727">
        <ele>228.2</ele>
        <time>2021-07-10T07:42:19</time>
      </trkpt>
      <trkpt lat="44.69607" lon="4.83728">
        <ele>228.4</ele>
        <time>2021-07-10T07:42:20</time>
      </trkpt>
      <trkpt lat="44.69607" lon="4.83731">
        <ele>228.6</ele>
        <time>2021-07-10T07:42:21</time>
      </trkpt>
      <trkpt lat="44.69607" lon="4.83731">
        <ele>228.8</ele>
        <time>2021-07-10T07:42:22</time>
      </trkpt>
      <trkpt lat="44.69607" lon="4.83731">
        <ele>229</ele>
        <time>2021-07-10T07:42:23</time>
      </trkpt>
      <trkpt lat="44.69608" lon="4.83732">
        <ele>229.2</ele>
        <time>2021-07-10T07:42:24</time>
      </trkpt>
      <trkpt lat="44.69608" lon="4.83732">
        <ele>229.4</ele>
        <time>2021-07-10T07:42:25</time>
      </trkpt>
      <trkpt lat="44.69609" lon="4.8373">
        <ele>229.6</ele>
        <time>2021-07-10T07:42:26</time>
      </trkpt>
      <trkpt lat="44.6961" lon="4.83731">
        <ele>229.8</ele>
        <time>2021-07-10T07:42:27</time>
      </trkpt>
      <trkpt lat="44.69612" lon="4.83732">
        <ele>230</ele>
        <time>2021-07-10T07:42:28</time>
      </trkpt>
      <trkpt lat="44.69614" lon="4.83732">
        <ele>230</ele>
        <time>2021-07-10T07:42:29</time>
      </trkpt>
      <trkpt lat="44.69614" lon="4.83732">
        <ele>230.2</ele>
        <time>2021-07-10T07:42:30</time>
      </trkpt>
      <trkpt lat="44.69617" lon="4.8373">
        <ele>230.4</ele>
        <time>2021-07-10T07:42:31</time>
      </trkpt>
      <trkpt lat="44.69619" lon="4.8373">
        <ele>230.4</ele>
        <time>2021-07-10T07:42:32</time>
      </trkpt>
      <trkpt lat="44.69621" lon="4.8373">
        <ele>230.6</ele>
        <time>2021-07-10T07:42:33</time>
      </trkpt>
      <trkpt lat="44.69623" lon="4.83728">
        <ele>230.6</ele>
        <time>2021-07-10T07:42:34</time>
      </trkpt>
      <trkpt lat="44.69625" lon="4.83727">
        <ele>230.8</ele>
        <time>2021-07-10T07:42:35</time>
      </trkpt>
      <trkpt lat="44.69625" lon="4.83727">
        <ele>231</ele>
        <time>2021-07-10T07:42:36</time>
      </trkpt>
      <trkpt lat="44.69628" lon="4.83728">
        <ele>231</ele>
        <time>2021-07-10T07:42:37</time>
      </trkpt>
      <trkpt lat="44.6963" lon="4.83727">
        <ele>231.2</ele>
        <time>2021-07-10T07:42:38</time>
      </trkpt>
      <trkpt lat="44.69632" lon="4.83727">
        <ele>231.2</ele>
        <time>2021-07-10T07:42:39</time>
      </trkpt>
      <trkpt lat="44.69634" lon="4.83726">
        <ele>231.4</ele>
        <time>2021-07-10T07:42:40</time>
      </trkpt>
      <trkpt lat="44.69638" lon="4.83724">
        <ele>231.6</ele>
        <time>2021-07-10T07:42:41</time>
      </trkpt>
      <trkpt lat="44.69638" lon="4.83724">
        <ele>231.8</ele>
        <time>2021-07-10T07:42:42</time>
      </trkpt>
      <trkpt lat="44.6964" lon="4.83724">
        <ele>232</ele>
        <time>2021-07-10T07:42:43</time>
      </trkpt>
      <trkpt lat="44.69642" lon="4.83724">
        <ele>232</ele>
        <time>2021-07-10T07:42:44</time>
      </trkpt>
      <trkpt lat="44.69646" lon="4.83722">
        <ele>232.2</ele>
        <time>2021-07-10T07:42:45</time>
      </trkpt>
      <trkpt lat="44.69646" lon="4.83722">
        <ele>232.4</ele>
        <time>2021-07-10T07:42:46</time>
      </trkpt>
      <trkpt lat="44.69647" lon="4.8372">
        <ele>232.4</ele>
        <time>2021-07-10T07:42:47</time>
      </trkpt>
      <trkpt lat="44.69649" lon="4.83719">
        <ele>232.6</ele>
        <time>2021-07-10T07:42:48</time>
      </trkpt>
      <trkpt lat="44.69652" lon="4.83717">
        <ele>232.8</ele>
        <time>2021-07-10T07:42:49</time>
      </trkpt>
      <trkpt lat="44.69655" lon="4.83717">
        <ele>233</ele>
        <time>2021-07-10T07:42:50</time>
      </trkpt>
      <trkpt lat="44.69655" lon="4.83717">
        <ele>233.2</ele>
        <time>2021-07-10T07:42:51</time>
      </trkpt>
      <trkpt lat="44.69657" lon="4.83718">
        <ele>233.6</ele>
        <time>2021-07-10T07:42:52</time>
      </trkpt>
      <trkpt lat="44.69657" lon="4.8372">
        <ele>233.8</ele>
        <time>2021-07-10T07:42:53</time>
      </trkpt>
      <trkpt lat="44.69657" lon="4.83721">
        <ele>234</ele>
        <time>2021-07-10T07:42:54</time>
      </trkpt>
      <trkpt lat="44.69657" lon="4.83722">
        <ele>234.4</ele>
        <time>2021-07-10T07:42:55</time>
      </trkpt>
      <trkpt lat="44.69655" lon="4.83725">
        <ele>234.6</ele>
        <time>2021-07-10T07:42:56</time>
      </trkpt>
      <trkpt lat="44.69655" lon="4.83725">
        <ele>234.8</ele>
        <time>2021-07-10T07:42:57</time>
      </trkpt>
      <trkpt lat="44.69654" lon="4.83726">
        <ele>235</ele>
        <time>2021-07-10T07:42:58</time>
      </trkpt>
      <trkpt lat="44.69651" lon="4.83729">
        <ele>235.2</ele>
        <time>2021-07-10T07:42:59</time>
      </trkpt>
      <trkpt lat="44.69651" lon="4.83729">
        <ele>235.4</ele>
        <time>2021-07-10T07:43:00</time>
      </trkpt>
      <trkpt lat="44.6965" lon="4.8373">
        <ele>235.6</ele>
        <time>2021-07-10T07:43:01</time>
      </trkpt>
      <trkpt lat="44.69648" lon="4.8373">
        <ele>235.8</ele>
        <time>2021-07-10T07:43:02</time>
      </trkpt>
      <trkpt lat="44.69645" lon="4.83732">
        <ele>235.8</ele>
        <time>2021-07-10T07:43:03</time>
      </trkpt>
      <trkpt lat="44.69643" lon="4.83732">
        <ele>236</ele>
        <time>2021-07-10T07:43:04</time>
      </trkpt>
      <trkpt lat="44.69642" lon="4.83733">
        <ele>236.2</ele>
        <time>2021-07-10T07:43:05</time>
      </trkpt>
      <trkpt lat="44.69639" lon="4.83735">
        <ele>236.4</ele>
        <time>2021-07-10T07:43:06</time>
      </trkpt>
      <trkpt lat="44.69639" lon="4.83735">
        <ele>236.6</ele>
        <time>2021-07-10T07:43:07</time>
      </trkpt>
      <trkpt lat="44.69637" lon="4.83738">
        <ele>236.8</ele>
        <time>2021-07-10T07:43:08</time>
      </trkpt>
      <trkpt lat="44.69637" lon="4.83738">
        <ele>237</ele>
        <time>2021-07-10T07:43:09</time>
      </trkpt>
      <trkpt lat="44.69633" lon="4.8374">
        <ele>237.2</ele>
        <time>2021-07-10T07:43:10</time>
      </trkpt>
      <trkpt lat="44.69633" lon="4.8374">
        <ele>237.2</ele>
        <time>2021-07-10T07:43:11</time>
      </trkpt>
      <trkpt lat="44.69632" lon="4.8374">
        <ele>237.4</ele>
        <time>2021-07-10T07:43:12</time>
      </trkpt>
      <trkpt lat="44.69631" lon="4.83741">
        <ele>237.6</ele>
        <time>2021-07-10T07:43:13</time>
      </trkpt>
      <trkpt lat="44.69628" lon="4.83743">
        <ele>237.8</ele>
        <time>2021-07-10T07:43:14</time>
      </trkpt>
      <trkpt lat="44.69627" lon="4.83742">
        <ele>238</ele>
        <time>2021-07-10T07:43:15</time>
      </trkpt>
      <trkpt lat="44.69625" lon="4.83742">
        <ele>238.2</ele>
        <time>2021-07-10T07:43:16</time>
      </trkpt>
      <trkpt lat="44.69623" lon="4.83744">
        <ele>238.2</ele>
        <time>2021-07-10T07:43:17</time>
      </trkpt>
      <trkpt lat="44.69623" lon="4.83744">
        <ele>238.4</ele>
        <time>2021-07-10T07:43:18</time>
      </trkpt>
      <trkpt lat="44.69621" lon="4.83746">
        <ele>238.6</ele>
        <time>2021-07-10T07:43:19</time>
      </trkpt>
      <trkpt lat="44.69618" lon="4.83746">
        <ele>238.8</ele>
        <time>2021-07-10T07:43:20</time>
      </trkpt>
      <trkpt lat="44.69617" lon="4.83746">
        <ele>239</ele>
        <time>2021-07-10T07:43:21</time>
      </trkpt>
      <trkpt lat="44.69616" lon="4.83747">
        <ele>239.2</ele>
        <time>2021-07-10T07:43:22</time>
      </trkpt>
      <trkpt lat="44.69615" lon="4.83746">
        <ele>239.4</ele>
        <time>2021-07-10T07:43:23</time>
      </trkpt>
      <trkpt lat="44.69612" lon="4.83746">
        <ele>239.6</ele>
        <time>2021-07-10T07:43:24</time>
      </trkpt>
      <trkpt lat="44.6961" lon="4.83748">
        <ele>239.8</ele>
        <time>2021-07-10T07:43:25</time>
      </trkpt>
      <trkpt lat="44.69609" lon="4.83749">
        <ele>240</ele>
        <time>2021-07-10T07:43:26</time>
      </trkpt>
      <trkpt lat="44.69608" lon="4.8375">
        <ele>240.2</ele>
        <time>2021-07-10T07:43:27</time>
      </trkpt>
      <trkpt lat="44.69605" lon="4.8375">
        <ele>240.4</ele>
        <time>2021-07-10T07:43:28</time>
      </trkpt>
      <trkpt lat="44.69605" lon="4.8375">
        <ele>240.6</ele>
        <time>2021-07-10T07:43:29</time>
      </trkpt>
      <trkpt lat="44.69605" lon="4.83749">
        <ele>240.8</ele>
        <time>2021-07-10T07:43:30</time>
      </trkpt>
      <trkpt lat="44.69603" lon="4.8375">
        <ele>241</ele>
        <time>2021-07-10T07:43:31</time>
      </trkpt>
      <trkpt lat="44.69602" lon="4.83752">
        <ele>241.2</ele>
        <time>2021-07-10T07:43:32</time>
      </trkpt>
      <trkpt lat="44.69599" lon="4.83754">
        <ele>241.4</ele>
        <time>2021-07-10T07:43:33</time>
      </trkpt>
      <trkpt lat="44.69599" lon="4.83754">
        <ele>241.6</ele>
        <time>2021-07-10T07:43:34</time>
      </trkpt>
      <trkpt lat="44.69596" lon="4.83755">
        <ele>241.6</ele>
        <time>2021-07-10T07:43:35</time>
      </trkpt>
      <trkpt lat="44.69595" lon="4.83755">
        <ele>241.8</ele>
        <time>2021-07-10T07:43:36</time>
      </trkpt>
      <trkpt lat="44.69595" lon="4.83756">
        <ele>242</ele>
        <time>2021-07-10T07:43:37</time>
      </trkpt>
      <trkpt lat="44.69593" lon="4.83756">
        <ele>242.4</ele>
        <time>2021-07-10T07:43:38</time>
      </trkpt>
      <trkpt lat="44.69591" lon="4.83757">
        <ele>243</ele>
        <time>2021-07-10T07:43:39</time>
      </trkpt>
      <trkpt lat="44.69589" lon="4.83759">
        <ele>243.4</ele>
        <time>2021-07-10T07:43:40</time>
      </trkpt>
      <trkpt lat="44.69584" lon="4.8376">
        <ele>243.6</ele>
        <time>2021-07-10T07:43:41</time>
      </trkpt>
      <trkpt lat="44.69584" lon="4.8376">
        <ele>243.6</ele>
        <time>2021-07-10T07:43:42</time>
      </trkpt>
      <trkpt lat="44.69583" lon="4.83759">
        <ele>243.6</ele>
        <time>2021-07-10T07:43:43</time>
      </trkpt>
      <trkpt lat="44.69581" lon="4.83759">
        <ele>243.8</ele>
        <time>2021-07-10T07:43:44</time>
      </trkpt>
      <trkpt lat="44.6958" lon="4.8376">
        <ele>244</ele>
        <time>2021-07-10T07:43:45</time>
      </trkpt>
      <trkpt lat="44.6958" lon="4.8376">
        <ele>244.2</ele>
        <time>2021-07-10T07:43:46</time>
      </trkpt>
      <trkpt lat="44.69579" lon="4.83761">
        <ele>244.4</ele>
        <time>2021-07-10T07:43:47</time>
      </trkpt>
      <trkpt lat="44.69579" lon="4.83762">
        <ele>244.4</ele>
        <time>2021-07-10T07:43:48</time>
      </trkpt>
      <trkpt lat="44.69578" lon="4.83766">
        <ele>244.6</ele>
        <time>2021-07-10T07:43:49</time>
      </trkpt>
      <trkpt lat="44.69578" lon="4.83766">
        <ele>244.8</ele>
        <time>2021-07-10T07:43:50</time>
      </trkpt>
      <trkpt lat="44.69579" lon="4.83767">
        <ele>245</ele>
        <time>2021-07-10T07:43:51</time>
      </trkpt>
      <trkpt lat="44.69579" lon="4.83767">
        <ele>245.2</ele>
        <time>2021-07-10T07:43:52</time>
      </trkpt>
      <trkpt lat="44.69579" lon="4.83768">
        <ele>245.4</ele>
        <time>2021-07-10T07:43:53</time>
      </trkpt>
      <trkpt lat="44.69578" lon="4.83769">
        <ele>245.6</ele>
        <time>2021-07-10T07:43:54</time>
      </trkpt>
      <trkpt lat="44.6958" lon="4.83771">
        <ele>245.8</ele>
        <time>2021-07-10T07:43:55</time>
      </trkpt>
      <trkpt lat="44.6958" lon="4.83771">
        <ele>246</ele>
        <time>2021-07-10T07:43:56</time>
      </trkpt>
      <trkpt lat="44.69583" lon="4.83771">
        <ele>246.2</ele>
        <time>2021-07-10T07:43:57</time>
      </trkpt>
      <trkpt lat="44.69584" lon="4.83772">
        <ele>246.4</ele>
        <time>2021-07-10T07:43:58</time>
      </trkpt>
      <trkpt lat="44.69586" lon="4.83772">
        <ele>246.6</ele>
        <time>2021-07-10T07:43:59</time>
      </trkpt>
      <trkpt lat="44.69614" lon="4.83774">
        <ele>247.8</ele>
        <time>2021-07-10T07:44:15</time>
      </trkpt>
      <trkpt lat="44.69617" lon="4.83774">
        <ele>247.8</ele>
        <time>2021-07-10T07:44:16</time>
      </trkpt>
      <trkpt lat="44.69617" lon="4.83777">
        <ele>246</ele>
        <time>2021-07-10T07:44:17</time>
      </trkpt>
      <trkpt lat="44.6962" lon="4.83778">
        <ele>245</ele>
        <time>2021-07-10T07:44:18</time>
      </trkpt>
      <trkpt lat="44.69622" lon="4.83779">
        <ele>244.8</ele>
        <time>2021-07-10T07:44:19</time>
      </trkpt>
      <trkpt lat="44.69622" lon="4.83779">
        <ele>244.8</ele>
        <time>2021-07-10T07:44:20</time>
      </trkpt>
      <trkpt lat="44.69624" lon="4.83778">
        <ele>247.4</ele>
        <time>2021-07-10T07:44:21</time>
      </trkpt>
      <trkpt lat="44.69626" lon="4.83779">
        <ele>249.4</ele>
        <time>2021-07-10T07:44:22</time>
      </trkpt>
      <trkpt lat="44.69629" lon="4.83779">
        <ele>250.2</ele>
        <time>2021-07-10T07:44:23</time>
      </trkpt>
      <trkpt lat="44.69631" lon="4.8378">
        <ele>250.2</ele>
        <time>2021-07-10T07:44:24</time>
      </trkpt>
      <trkpt lat="44.69632" lon="4.8378">
        <ele>250.2</ele>
        <time>2021-07-10T07:44:25</time>
      </trkpt>
      <trkpt lat="44.69632" lon="4.8378">
        <ele>249.8</ele>
        <time>2021-07-10T07:44:26</time>
      </trkpt>
      <trkpt lat="44.69633" lon="4.83779">
        <ele>249.6</ele>
        <time>2021-07-10T07:44:27</time>
      </trkpt>
      <trkpt lat="44.69639" lon="4.83777">
        <ele>249.6</ele>
        <time>2021-07-10T07:44:28</time>
      </trkpt>
      <trkpt lat="44.69639" lon="4.83777">
        <ele>249.6</ele>
        <time>2021-07-10T07:44:29</time>
      </trkpt>
      <trkpt lat="44.69639" lon="4.83776">
        <ele>249.6</ele>
        <time>2021-07-10T07:44:30</time>
      </trkpt>
      <trkpt lat="44.69642" lon="4.83774">
        <ele>249.6</ele>
        <time>2021-07-10T07:44:31</time>
      </trkpt>
      <trkpt lat="44.69644" lon="4.83772">
        <ele>249.8</ele>
        <time>2021-07-10T07:44:32</time>
      </trkpt>
      <trkpt lat="44.69647" lon="4.83772">
        <ele>249.8</ele>
        <time>2021-07-10T07:44:33</time>
      </trkpt>
      <trkpt lat="44.69655" lon="4.83775">
        <ele>250.8</ele>
        <time>2021-07-10T07:44:38</time>
      </trkpt>
      <trkpt lat="44.69657" lon="4.83774">
        <ele>250.8</ele>
        <time>2021-07-10T07:44:39</time>
      </trkpt>
      <trkpt lat="44.69658" lon="4.83775">
        <ele>251</ele>
        <time>2021-07-10T07:44:40</time>
      </trkpt>
      <trkpt lat="44.69658" lon="4.83777">
        <ele>251.2</ele>
        <time>2021-07-10T07:44:41</time>
      </trkpt>
      <trkpt lat="44.69658" lon="4.83778">
        <ele>251.2</ele>
        <time>2021-07-10T07:44:42</time>
      </trkpt>
      <trkpt lat="44.69658" lon="4.83779">
        <ele>251.4</ele>
        <time>2021-07-10T07:44:43</time>
      </trkpt>
      <trkpt lat="44.69657" lon="4.83782">
        <ele>251.4</ele>
        <time>2021-07-10T07:44:44</time>
      </trkpt>
      <trkpt lat="44.69657" lon="4.83783">
        <ele>251.6</ele>
        <time>2021-07-10T07:44:45</time>
      </trkpt>
      <trkpt lat="44.69655" lon="4.83786">
        <ele>251.6</ele>
        <time>2021-07-10T07:44:46</time>
      </trkpt>
      <trkpt lat="44.69655" lon="4.83786">
        <ele>251.8</ele>
        <time>2021-07-10T07:44:47</time>
      </trkpt>
      <trkpt lat="44.69655" lon="4.83787">
        <ele>252</ele>
        <time>2021-07-10T07:44:48</time>
      </trkpt>
      <trkpt lat="44.69655" lon="4.83788">
        <ele>252.2</ele>
        <time>2021-07-10T07:44:49</time>
      </trkpt>
      <trkpt lat="44.69654" lon="4.8379">
        <ele>252.4</ele>
        <time>2021-07-10T07:44:50</time>
      </trkpt>
      <trkpt lat="44.69652" lon="4.83791">
        <ele>252.4</ele>
        <time>2021-07-10T07:44:51</time>
      </trkpt>
      <trkpt lat="44.69652" lon="4.83793">
        <ele>252.6</ele>
        <time>2021-07-10T07:44:52</time>
      </trkpt>
      <trkpt lat="44.69651" lon="4.83793">
        <ele>252.8</ele>
        <time>2021-07-10T07:44:53</time>
      </trkpt>
      <trkpt lat="44.6965" lon="4.83795">
        <ele>252.8</ele>
        <time>2021-07-10T07:44:54</time>
      </trkpt>
      <trkpt lat="44.69649" lon="4.83796">
        <ele>253</ele>
        <time>2021-07-10T07:44:55</time>
      </trkpt>
      <trkpt lat="44.69648" lon="4.83796">
        <ele>253.2</ele>
        <time>2021-07-10T07:44:56</time>
      </trkpt>
      <trkpt lat="44.69646" lon="4.83797">
        <ele>253.4</ele>
        <time>2021-07-10T07:44:57</time>
      </trkpt>
      <trkpt lat="44.69645" lon="4.83797">
        <ele>253.4</ele>
        <time>2021-07-10T07:44:58</time>
      </trkpt>
      <trkpt lat="44.69644" lon="4.83796">
        <ele>253.6</ele>
        <time>2021-07-10T07:44:59</time>
      </trkpt>
      <trkpt lat="44.69644" lon="4.83796">
        <ele>253.8</ele>
        <time>2021-07-10T07:45:00</time>
      </trkpt>
      <trkpt lat="44.69643" lon="4.83797">
        <ele>253.8</ele>
        <time>2021-07-10T07:45:01</time>
      </trkpt>
      <trkpt lat="44.69641" lon="4.83798">
        <ele>254</ele>
        <time>2021-07-10T07:45:02</time>
      </trkpt>
      <trkpt lat="44.69639" lon="4.83797">
        <ele>254</ele>
        <time>2021-07-10T07:45:03</time>
      </trkpt>
      <trkpt lat="44.6964" lon="4.83796">
        <ele>254.2</ele>
        <time>2021-07-10T07:45:04</time>
      </trkpt>
      <trkpt lat="44.69639" lon="4.83797">
        <ele>254.4</ele>
        <time>2021-07-10T07:45:05</time>
      </trkpt>
      <trkpt lat="44.69636" lon="4.83798">
        <ele>254.6</ele>
        <time>2021-07-10T07:45:06</time>
      </trkpt>
      <trkpt lat="44.69636" lon="4.83798">
        <ele>254.6</ele>
        <time>2021-07-10T07:45:07</time>
      </trkpt>
      <trkpt lat="44.6962" lon="4.83807">
        <ele>255.8</ele>
        <time>2021-07-10T07:45:15</time>
      </trkpt>
      <trkpt lat="44.6962" lon="4.83807">
        <ele>256</ele>
        <time>2021-07-10T07:45:16</time>
      </trkpt>
      <trkpt lat="44.69618" lon="4.83807">
        <ele>256</ele>
        <time>2021-07-10T07:45:17</time>
      </trkpt>
      <trkpt lat="44.69617" lon="4.83808">
        <ele>256.2</ele>
        <time>2021-07-10T07:45:18</time>
      </trkpt>
      <trkpt lat="44.69615" lon="4.83808">
        <ele>256.4</ele>
        <time>2021-07-10T07:45:19</time>
      </trkpt>
      <trkpt lat="44.69613" lon="4.83809">
        <ele>256.4</ele>
        <time>2021-07-10T07:45:20</time>
      </trkpt>
      <trkpt lat="44.69612" lon="4.8381">
        <ele>256.6</ele>
        <time>2021-07-10T07:45:21</time>
      </trkpt>
      <trkpt lat="44.69612" lon="4.8381">
        <ele>256.8</ele>
        <time>2021-07-10T07:45:22</time>
      </trkpt>
      <trkpt lat="44.6961" lon="4.8381">
        <ele>257</ele>
        <time>2021-07-10T07:45:23</time>
      </trkpt>
      <trkpt lat="44.69607" lon="4.83811">
        <ele>257</ele>
        <time>2021-07-10T07:45:24</time>
      </trkpt>
      <trkpt lat="44.69606" lon="4.8381">
        <ele>257.2</ele>
        <time>2021-07-10T07:45:25</time>
      </trkpt>
      <trkpt lat="44.69606" lon="4.83812">
        <ele>257.4</ele>
        <time>2021-07-10T07:45:26</time>
      </trkpt>
      <trkpt lat="44.69603" lon="4.83814">
        <ele>257.6</ele>
        <time>2021-07-10T07:45:27</time>
      </trkpt>
      <trkpt lat="44.69602" lon="4.83815">
        <ele>257.6</ele>
        <time>2021-07-10T07:45:28</time>
      </trkpt>
      <trkpt lat="44.69601" lon="4.83815">
        <ele>257.8</ele>
        <time>2021-07-10T07:45:29</time>
      </trkpt>
      <trkpt lat="44.69599" lon="4.83817">
        <ele>258</ele>
        <time>2021-07-10T07:45:30</time>
      </trkpt>
      <trkpt lat="44.69597" lon="4.83818">
        <ele>258</ele>
        <time>2021-07-10T07:45:31</time>
      </trkpt>
      <trkpt lat="44.69595" lon="4.8382">
        <ele>258.2</ele>
        <time>2021-07-10T07:45:32</time>
      </trkpt>
      <trkpt lat="44.69593" lon="4.8382">
        <ele>258.4</ele>
        <time>2021-07-10T07:45:33</time>
      </trkpt>
      <trkpt lat="44.69591" lon="4.8382">
        <ele>258.4</ele>
        <time>2021-07-10T07:45:34</time>
      </trkpt>
      <trkpt lat="44.69587" lon="4.83822">
        <ele>258.6</ele>
        <time>2021-07-10T07:45:35</time>
      </trkpt>
      <trkpt lat="44.69587" lon="4.83822">
        <ele>258.8</ele>
        <time>2021-07-10T07:45:36</time>
      </trkpt>
      <trkpt lat="44.69585" lon="4.83822">
        <ele>258.8</ele>
        <time>2021-07-10T07:45:37</time>
      </trkpt>
      <trkpt lat="44.69584" lon="4.83822">
        <ele>259.2</ele>
        <time>2021-07-10T07:45:38</time>
      </trkpt>
      <trkpt lat="44.69583" lon="4.83824">
        <ele>259.4</ele>
        <time>2021-07-10T07:45:39</time>
      </trkpt>
      <trkpt lat="44.69579" lon="4.83824">
        <ele>259.6</ele>
        <time>2021-07-10T07:45:40</time>
      </trkpt>
      <trkpt lat="44.69578" lon="4.83825">
        <ele>259.8</ele>
        <time>2021-07-10T07:45:41</time>
      </trkpt>
      <trkpt lat="44.69574" lon="4.83826">
        <ele>260</ele>
        <time>2021-07-10T07:45:42</time>
      </trkpt>
      <trkpt lat="44.69574" lon="4.83826">
        <ele>260.2</ele>
        <time>2021-07-10T07:45:43</time>
      </trkpt>
      <trkpt lat="44.69569" lon="4.83829">
        <ele>260.4</ele>
        <time>2021-07-10T07:45:44</time>
      </trkpt>
      <trkpt lat="44.69569" lon="4.83829">
        <ele>260.6</ele>
        <time>2021-07-10T07:45:45</time>
      </trkpt>
      <trkpt lat="44.69569" lon="4.83831">
        <ele>260.6</ele>
        <time>2021-07-10T07:45:46</time>
      </trkpt>
      <trkpt lat="44.69567" lon="4.8383">
        <ele>260.6</ele>
        <time>2021-07-10T07:45:47</time>
      </trkpt>
      <trkpt lat="44.69565" lon="4.83832">
        <ele>260.6</ele>
        <time>2021-07-10T07:45:48</time>
      </trkpt>
      <trkpt lat="44.69563" lon="4.83832">
        <ele>260.8</ele>
        <time>2021-07-10T07:45:49</time>
      </trkpt>
      <trkpt lat="44.69561" lon="4.83833">
        <ele>260.8</ele>
        <time>2021-07-10T07:45:50</time>
      </trkpt>
      <trkpt lat="44.6956" lon="4.83835">
        <ele>261</ele>
        <time>2021-07-10T07:45:51</time>
      </trkpt>
      <trkpt lat="44.69558" lon="4.83836">
        <ele>261</ele>
        <time>2021-07-10T07:45:52</time>
      </trkpt>
      <trkpt lat="44.69556" lon="4.83837">
        <ele>261</ele>
        <time>2021-07-10T07:45:53</time>
      </trkpt>
      <trkpt lat="44.69553" lon="4.83838">
        <ele>261</ele>
        <time>2021-07-10T07:45:54</time>
      </trkpt>
      <trkpt lat="44.69549" lon="4.83839">
        <ele>261</ele>
        <time>2021-07-10T07:45:55</time>
      </trkpt>
      <trkpt lat="44.69549" lon="4.83839">
        <ele>261</ele>
        <time>2021-07-10T07:45:56</time>
      </trkpt>
      <trkpt lat="44.69547" lon="4.83842">
        <ele>261</ele>
        <time>2021-07-10T07:45:57</time>
      </trkpt>
      <trkpt lat="44.69544" lon="4.83845">
        <ele>261</ele>
        <time>2021-07-10T07:45:58</time>
      </trkpt>
      <trkpt lat="44.69541" lon="4.83846">
        <ele>261</ele>
        <time>2021-07-10T07:45:59</time>
      </trkpt>
      <trkpt lat="44.69538" lon="4.83847">
        <ele>261</ele>
        <time>2021-07-10T07:46:00</time>
      </trkpt>
      <trkpt lat="44.69535" lon="4.83848">
        <ele>261</ele>
        <time>2021-07-10T07:46:01</time>
      </trkpt>
      <trkpt lat="44.69533" lon="4.83849">
        <ele>261</ele>
        <time>2021-07-10T07:46:02</time>
      </trkpt>
      <trkpt lat="44.69531" lon="4.83851">
        <ele>261</ele>
        <time>2021-07-10T07:46:03</time>
      </trkpt>
      <trkpt lat="44.69526" lon="4.83855">
        <ele>261</ele>
        <time>2021-07-10T07:46:04</time>
      </trkpt>
      <trkpt lat="44.69526" lon="4.83855">
        <ele>261.2</ele>
        <time>2021-07-10T07:46:05</time>
      </trkpt>
      <trkpt lat="44.69522" lon="4.83856">
        <ele>261.2</ele>
        <time>2021-07-10T07:46:06</time>
      </trkpt>
      <trkpt lat="44.69519" lon="4.83859">
        <ele>261.2</ele>
        <time>2021-07-10T07:46:07</time>
      </trkpt>
      <trkpt lat="44.69516" lon="4.83863">
        <ele>261.2</ele>
        <time>2021-07-10T07:46:08</time>
      </trkpt>
      <trkpt lat="44.69514" lon="4.83864">
        <ele>261.2</ele>
        <time>2021-07-10T07:46:09</time>
      </trkpt>
      <trkpt lat="44.69511" lon="4.83865">
        <ele>261</ele>
        <time>2021-07-10T07:46:10</time>
      </trkpt>
      <trkpt lat="44.69508" lon="4.83868">
        <ele>261</ele>
        <time>2021-07-10T07:46:11</time>
      </trkpt>
      <trkpt lat="44.69504" lon="4.8387">
        <ele>261</ele>
        <time>2021-07-10T07:46:12</time>
      </trkpt>
      <trkpt lat="44.69502" lon="4.83871">
        <ele>261.2</ele>
        <time>2021-07-10T07:46:13</time>
      </trkpt>
      <trkpt lat="44.69499" lon="4.83874">
        <ele>261.2</ele>
        <time>2021-07-10T07:46:14</time>
      </trkpt>
      <trkpt lat="44.69495" lon="4.83876">
        <ele>261.4</ele>
        <time>2021-07-10T07:46:15</time>
      </trkpt>
      <trkpt lat="44.69495" lon="4.83876">
        <ele>261.4</ele>
        <time>2021-07-10T07:46:16</time>
      </trkpt>
      <trkpt lat="44.69492" lon="4.83883">
        <ele>261.6</ele>
        <time>2021-07-10T07:46:17</time>
      </trkpt>
      <trkpt lat="44.69489" lon="4.83888">
        <ele>261.6</ele>
        <time>2021-07-10T07:46:18</time>
      </trkpt>
      <trkpt lat="44.69485" lon="4.83885">
        <ele>261.6</ele>
        <time>2021-07-10T07:46:19</time>
      </trkpt>
      <trkpt lat="44.69485" lon="4.83885">
        <ele>261.8</ele>
        <time>2021-07-10T07:46:20</time>
      </trkpt>
      <trkpt lat="44.69481" lon="4.83888">
        <ele>261.8</ele>
        <time>2021-07-10T07:46:21</time>
      </trkpt>
      <trkpt lat="44.69479" lon="4.83891">
        <ele>261.8</ele>
        <time>2021-07-10T07:46:22</time>
      </trkpt>
      <trkpt lat="44.69473" lon="4.83888">
        <ele>261.8</ele>
        <time>2021-07-10T07:46:23</time>
      </trkpt>
      <trkpt lat="44.69469" lon="4.83893">
        <ele>261.8</ele>
        <time>2021-07-10T07:46:24</time>
      </trkpt>
      <trkpt lat="44.69467" lon="4.83895">
        <ele>261.8</ele>
        <time>2021-07-10T07:46:25</time>
      </trkpt>
      <trkpt lat="44.69463" lon="4.83901">
        <ele>261.8</ele>
        <time>2021-07-10T07:46:26</time>
      </trkpt>
      <trkpt lat="44.69463" lon="4.83901">
        <ele>261.8</ele>
        <time>2021-07-10T07:46:27</time>
      </trkpt>
      <trkpt lat="44.69458" lon="4.83905">
        <ele>262</ele>
        <time>2021-07-10T07:46:28</time>
      </trkpt>
      <trkpt lat="44.69456" lon="4.83905">
        <ele>262</ele>
        <time>2021-07-10T07:46:29</time>
      </trkpt>
      <trkpt lat="44.69455" lon="4.83909">
        <ele>262.2</ele>
        <time>2021-07-10T07:46:30</time>
      </trkpt>
      <trkpt lat="44.69452" lon="4.8391">
        <ele>262.2</ele>
        <time>2021-07-10T07:46:31</time>
      </trkpt>
      <trkpt lat="44.69451" lon="4.83911">
        <ele>262.4</ele>
        <time>2021-07-10T07:46:32</time>
      </trkpt>
      <trkpt lat="44.6945" lon="4.83912">
        <ele>262.4</ele>
        <time>2021-07-10T07:46:33</time>
      </trkpt>
      <trkpt lat="44.69449" lon="4.83913">
        <ele>262.6</ele>
        <time>2021-07-10T07:46:34</time>
      </trkpt>
      <trkpt lat="44.69446" lon="4.83917">
        <ele>262.6</ele>
        <time>2021-07-10T07:46:35</time>
      </trkpt>
      <trkpt lat="44.69446" lon="4.83917">
        <ele>262.8</ele>
        <time>2021-07-10T07:46:36</time>
      </trkpt>
      <trkpt lat="44.69445" lon="4.83922">
        <ele>263</ele>
        <time>2021-07-10T07:46:37</time>
      </trkpt>
      <trkpt lat="44.69441" lon="4.83926">
        <ele>263.2</ele>
        <time>2021-07-10T07:46:38</time>
      </trkpt>
      <trkpt lat="44.69441" lon="4.83926">
        <ele>263.6</ele>
        <time>2021-07-10T07:46:39</time>
      </trkpt>
      <trkpt lat="44.6944" lon="4.83926">
        <ele>263.6</ele>
        <time>2021-07-10T07:46:40</time>
      </trkpt>
      <trkpt lat="44.6944" lon="4.83926">
        <ele>263.8</ele>
        <time>2021-07-10T07:46:41</time>
      </trkpt>
      <trkpt lat="44.69438" lon="4.83928">
        <ele>264</ele>
        <time>2021-07-10T07:46:42</time>
      </trkpt>
      <trkpt lat="44.69435" lon="4.8393">
        <ele>264</ele>
        <time>2021-07-10T07:46:43</time>
      </trkpt>
      <trkpt lat="44.69433" lon="4.83932">
        <ele>264.2</ele>
        <time>2021-07-10T07:46:44</time>
      </trkpt>
      <trkpt lat="44.69432" lon="4.83935">
        <ele>264.4</ele>
        <time>2021-07-10T07:46:45</time>
      </trkpt>
      <trkpt lat="44.69427" lon="4.83936">
        <ele>264.6</ele>
        <time>2021-07-10T07:46:46</time>
      </trkpt>
      <trkpt lat="44.69427" lon="4.83936">
        <ele>264.8</ele>
        <time>2021-07-10T07:46:47</time>
      </trkpt>
      <trkpt lat="44.69427" lon="4.83939">
        <ele>265</ele>
        <time>2021-07-10T07:46:48</time>
      </trkpt>
      <trkpt lat="44.69425" lon="4.8394">
        <ele>265</ele>
        <time>2021-07-10T07:46:49</time>
      </trkpt>
      <trkpt lat="44.69423" lon="4.83942">
        <ele>265.2</ele>
        <time>2021-07-10T07:46:50</time>
      </trkpt>
      <trkpt lat="44.69419" lon="4.83943">
        <ele>265.4</ele>
        <time>2021-07-10T07:46:51</time>
      </trkpt>
      <trkpt lat="44.69418" lon="4.83943">
        <ele>265.4</ele>
        <time>2021-07-10T07:46:52</time>
      </trkpt>
      <trkpt lat="44.69417" lon="4.83944">
        <ele>265.6</ele>
        <time>2021-07-10T07:46:53</time>
      </trkpt>
      <trkpt lat="44.69416" lon="4.83946">
        <ele>265.6</ele>
        <time>2021-07-10T07:46:54</time>
      </trkpt>
      <trkpt lat="44.69415" lon="4.83946">
        <ele>265.8</ele>
        <time>2021-07-10T07:46:55</time>
      </trkpt>
      <trkpt lat="44.69413" lon="4.83947">
        <ele>266</ele>
        <time>2021-07-10T07:46:56</time>
      </trkpt>
      <trkpt lat="44.69412" lon="4.8395">
        <ele>266</ele>
        <time>2021-07-10T07:46:57</time>
      </trkpt>
      <trkpt lat="44.69412" lon="4.8395">
        <ele>266</ele>
        <time>2021-07-10T07:46:58</time>
      </trkpt>
      <trkpt lat="44.6941" lon="4.83951">
        <ele>266.2</ele>
        <time>2021-07-10T07:46:59</time>
      </trkpt>
      <trkpt lat="44.69408" lon="4.83953">
        <ele>266.2</ele>
        <time>2021-07-10T07:47:00</time>
      </trkpt>
      <trkpt lat="44.69405" lon="4.83954">
        <ele>266.4</ele>
        <time>2021-07-10T07:47:01</time>
      </trkpt>
      <trkpt lat="44.69404" lon="4.83954">
        <ele>266.6</ele>
        <time>2021-07-10T07:47:02</time>
      </trkpt>
      <trkpt lat="44.69402" lon="4.83954">
        <ele>266.6</ele>
        <time>2021-07-10T07:47:03</time>
      </trkpt>
      <trkpt lat="44.694" lon="4.83954">
        <ele>266.8</ele>
        <time>2021-07-10T07:47:04</time>
      </trkpt>
      <trkpt lat="44.694" lon="4.83954">
        <ele>266.8</ele>
        <time>2021-07-10T07:47:05</time>
      </trkpt>
      <trkpt lat="44.69399" lon="4.83955">
        <ele>267</ele>
        <time>2021-07-10T07:47:06</time>
      </trkpt>
      <trkpt lat="44.69397" lon="4.83956">
        <ele>267.2</ele>
        <time>2021-07-10T07:47:07</time>
      </trkpt>
      <trkpt lat="44.69393" lon="4.83958">
        <ele>267.4</ele>
        <time>2021-07-10T07:47:08</time>
      </trkpt>
      <trkpt lat="44.69393" lon="4.83958">
        <ele>267.6</ele>
        <time>2021-07-10T07:47:09</time>
      </trkpt>
      <trkpt lat="44.69392" lon="4.83958">
        <ele>267.6</ele>
        <time>2021-07-10T07:47:10</time>
      </trkpt>
      <trkpt lat="44.69391" lon="4.83956">
        <ele>267.8</ele>
        <time>2021-07-10T07:47:11</time>
      </trkpt>
      <trkpt lat="44.69388" lon="4.83958">
        <ele>267.8</ele>
        <time>2021-07-10T07:47:12</time>
      </trkpt>
      <trkpt lat="44.69385" lon="4.8396">
        <ele>268</ele>
        <time>2021-07-10T07:47:13</time>
      </trkpt>
      <trkpt lat="44.69383" lon="4.83962">
        <ele>268</ele>
        <time>2021-07-10T07:47:14</time>
      </trkpt>
      <trkpt lat="44.69381" lon="4.83961">
        <ele>268.2</ele>
        <time>2021-07-10T07:47:15</time>
      </trkpt>
      <trkpt lat="44.6938" lon="4.83961">
        <ele>268.4</ele>
        <time>2021-07-10T07:47:16</time>
      </trkpt>
      <trkpt lat="44.69378" lon="4.83964">
        <ele>268.6</ele>
        <time>2021-07-10T07:47:17</time>
      </trkpt>
      <trkpt lat="44.69376" lon="4.83964">
        <ele>268.8</ele>
        <time>2021-07-10T07:47:18</time>
      </trkpt>
      <trkpt lat="44.69374" lon="4.83963">
        <ele>269</ele>
        <time>2021-07-10T07:47:19</time>
      </trkpt>
      <trkpt lat="44.69374" lon="4.83963">
        <ele>269.2</ele>
        <time>2021-07-10T07:47:20</time>
      </trkpt>
      <trkpt lat="44.69372" lon="4.83963">
        <ele>269.4</ele>
        <time>2021-07-10T07:47:21</time>
      </trkpt>
      <trkpt lat="44.6937" lon="4.83963">
        <ele>269.6</ele>
        <time>2021-07-10T07:47:22</time>
      </trkpt>
      <trkpt lat="44.69369" lon="4.83961">
        <ele>269.8</ele>
        <time>2021-07-10T07:47:23</time>
      </trkpt>
      <trkpt lat="44.69366" lon="4.83963">
        <ele>270</ele>
        <time>2021-07-10T07:47:24</time>
      </trkpt>
      <trkpt lat="44.69364" lon="4.83964">
        <ele>270</ele>
        <time>2021-07-10T07:47:25</time>
      </trkpt>
      <trkpt lat="44.69362" lon="4.83965">
        <ele>270.2</ele>
        <time>2021-07-10T07:47:26</time>
      </trkpt>
      <trkpt lat="44.69361" lon="4.83965">
        <ele>270.2</ele>
        <time>2021-07-10T07:47:27</time>
      </trkpt>
      <trkpt lat="44.69359" lon="4.83966">
        <ele>270.4</ele>
        <time>2021-07-10T07:47:28</time>
      </trkpt>
      <trkpt lat="44.69357" lon="4.83968">
        <ele>270.4</ele>
        <time>2021-07-10T07:47:29</time>
      </trkpt>
      <trkpt lat="44.69357" lon="4.83966">
        <ele>270.6</ele>
        <time>2021-07-10T07:47:30</time>
      </trkpt>
      <trkpt lat="44.69357" lon="4.83966">
        <ele>270.8</ele>
        <time>2021-07-10T07:47:31</time>
      </trkpt>
      <trkpt lat="44.69355" lon="4.83966">
        <ele>270.8</ele>
        <time>2021-07-10T07:47:32</time>
      </trkpt>
      <trkpt lat="44.69353" lon="4.83968">
        <ele>271</ele>
        <time>2021-07-10T07:47:33</time>
      </trkpt>
      <trkpt lat="44.6935" lon="4.83972">
        <ele>271</ele>
        <time>2021-07-10T07:47:34</time>
      </trkpt>
      <trkpt lat="44.6935" lon="4.83972">
        <ele>271</ele>
        <time>2021-07-10T07:47:35</time>
      </trkpt>
      <trkpt lat="44.69349" lon="4.83975">
        <ele>271.2</ele>
        <time>2021-07-10T07:47:36</time>
      </trkpt>
      <trkpt lat="44.69347" lon="4.83979">
        <ele>271.2</ele>
        <time>2021-07-10T07:47:37</time>
      </trkpt>
      <trkpt lat="44.69347" lon="4.83982">
        <ele>271.4</ele>
        <time>2021-07-10T07:47:38</time>
      </trkpt>
      <trkpt lat="44.69348" lon="4.83985">
        <ele>271.6</ele>
        <time>2021-07-10T07:47:39</time>
      </trkpt>
      <trkpt lat="44.6935" lon="4.83988">
        <ele>271.6</ele>
        <time>2021-07-10T07:47:40</time>
      </trkpt>
      <trkpt lat="44.6935" lon="4.83988">
        <ele>271.8</ele>
        <time>2021-07-10T07:47:41</time>
      </trkpt>
      <trkpt lat="44.6935" lon="4.83988">
        <ele>272</ele>
        <time>2021-07-10T07:47:42</time>
      </trkpt>
      <trkpt lat="44.6935" lon="4.83991">
        <ele>272.2</ele>
        <time>2021-07-10T07:47:43</time>
      </trkpt>
      <trkpt lat="44.69347" lon="4.83992">
        <ele>272.4</ele>
        <time>2021-07-10T07:47:44</time>
      </trkpt>
      <trkpt lat="44.69346" lon="4.83999">
        <ele>272.4</ele>
        <time>2021-07-10T07:47:45</time>
      </trkpt>
      <trkpt lat="44.69346" lon="4.83999">
        <ele>272.6</ele>
        <time>2021-07-10T07:47:46</time>
      </trkpt>
      <trkpt lat="44.69342" lon="4.84001">
        <ele>272.8</ele>
        <time>2021-07-10T07:47:47</time>
      </trkpt>
      <trkpt lat="44.69342" lon="4.84001">
        <ele>272.8</ele>
        <time>2021-07-10T07:47:48</time>
      </trkpt>
      <trkpt lat="44.69341" lon="4.84005">
        <ele>273</ele>
        <time>2021-07-10T07:47:49</time>
      </trkpt>
      <trkpt lat="44.69339" lon="4.84007">
        <ele>273</ele>
        <time>2021-07-10T07:47:50</time>
      </trkpt>
      <trkpt lat="44.69336" lon="4.84011">
        <ele>273</ele>
        <time>2021-07-10T07:47:51</time>
      </trkpt>
      <trkpt lat="44.69337" lon="4.84016">
        <ele>273</ele>
        <time>2021-07-10T07:47:52</time>
      </trkpt>
      <trkpt lat="44.69337" lon="4.84016">
        <ele>273.2</ele>
        <time>2021-07-10T07:47:53</time>
      </trkpt>
      <trkpt lat="44.69335" lon="4.84017">
        <ele>273.2</ele>
        <time>2021-07-10T07:47:54</time>
      </trkpt>
      <trkpt lat="44.69333" lon="4.84019">
        <ele>273.2</ele>
        <time>2021-07-10T07:47:55</time>
      </trkpt>
      <trkpt lat="44.69329" lon="4.84025">
        <ele>273.2</ele>
        <time>2021-07-10T07:47:56</time>
      </trkpt>
      <trkpt lat="44.69329" lon="4.84025">
        <ele>273.4</ele>
        <time>2021-07-10T07:47:57</time>
      </trkpt>
      <trkpt lat="44.69328" lon="4.84028">
        <ele>273.4</ele>
        <time>2021-07-10T07:47:58</time>
      </trkpt>
      <trkpt lat="44.69328" lon="4.84028">
        <ele>273.6</ele>
        <time>2021-07-10T07:47:59</time>
      </trkpt>
      <trkpt lat="44.69329" lon="4.84029">
        <ele>273.6</ele>
        <time>2021-07-10T07:48:00</time>
      </trkpt>
      <trkpt lat="44.69327" lon="4.8403">
        <ele>273.8</ele>
        <time>2021-07-10T07:48:01</time>
      </trkpt>
      <trkpt lat="44.69325" lon="4.84032">
        <ele>273.8</ele>
        <time>2021-07-10T07:48:02</time>
      </trkpt>
      <trkpt lat="44.69323" lon="4.84035">
        <ele>274</ele>
        <time>2021-07-10T07:48:03</time>
      </trkpt>
      <trkpt lat="44.69323" lon="4.84035">
        <ele>274</ele>
        <time>2021-07-10T07:48:04</time>
      </trkpt>
      <trkpt lat="44.69323" lon="4.84037">
        <ele>274.2</ele>
        <time>2021-07-10T07:48:05</time>
      </trkpt>
      <trkpt lat="44.69322" lon="4.84037">
        <ele>274.2</ele>
        <time>2021-07-10T07:48:06</time>
      </trkpt>
      <trkpt lat="44.69321" lon="4.84042">
        <ele>274.4</ele>
        <time>2021-07-10T07:48:07</time>
      </trkpt>
      <trkpt lat="44.69319" lon="4.84043">
        <ele>274.4</ele>
        <time>2021-07-10T07:48:08</time>
      </trkpt>
      <trkpt lat="44.69318" lon="4.84043">
        <ele>274.6</ele>
        <time>2021-07-10T07:48:09</time>
      </trkpt>
      <trkpt lat="44.69315" lon="4.84043">
        <ele>274.6</ele>
        <time>2021-07-10T07:48:10</time>
      </trkpt>
      <trkpt lat="44.69312" lon="4.84047">
        <ele>274.8</ele>
        <time>2021-07-10T07:48:11</time>
      </trkpt>
      <trkpt lat="44.69312" lon="4.84049">
        <ele>274.8</ele>
        <time>2021-07-10T07:48:12</time>
      </trkpt>
      <trkpt lat="44.69306" lon="4.84054">
        <ele>274.8</ele>
        <time>2021-07-10T07:48:13</time>
      </trkpt>
      <trkpt lat="44.69304" lon="4.84058">
        <ele>275</ele>
        <time>2021-07-10T07:48:14</time>
      </trkpt>
      <trkpt lat="44.69304" lon="4.84058">
        <ele>275</ele>
        <time>2021-07-10T07:48:15</time>
      </trkpt>
      <trkpt lat="44.69303" lon="4.8406">
        <ele>275.2</ele>
        <time>2021-07-10T07:48:16</time>
      </trkpt>
      <trkpt lat="44.69302" lon="4.84062">
        <ele>275.2</ele>
        <time>2021-07-10T07:48:17</time>
      </trkpt>
      <trkpt lat="44.69299" lon="4.84061">
        <ele>275.4</ele>
        <time>2021-07-10T07:48:18</time>
      </trkpt>
      <trkpt lat="44.69297" lon="4.84062">
        <ele>275.4</ele>
        <time>2021-07-10T07:48:19</time>
      </trkpt>
      <trkpt lat="44.69295" lon="4.84063">
        <ele>275.6</ele>
        <time>2021-07-10T07:48:20</time>
      </trkpt>
      <trkpt lat="44.69294" lon="4.84068">
        <ele>275.8</ele>
        <time>2021-07-10T07:48:21</time>
      </trkpt>
      <trkpt lat="44.69293" lon="4.8407">
        <ele>276</ele>
        <time>2021-07-10T07:48:22</time>
      </trkpt>
      <trkpt lat="44.69291" lon="4.84071">
        <ele>276.2</ele>
        <time>2021-07-10T07:48:23</time>
      </trkpt>
      <trkpt lat="44.6929" lon="4.84074">
        <ele>276.4</ele>
        <time>2021-07-10T07:48:24</time>
      </trkpt>
      <trkpt lat="44.69287" lon="4.84077">
        <ele>276.6</ele>
        <time>2021-07-10T07:48:25</time>
      </trkpt>
      <trkpt lat="44.69287" lon="4.84077">
        <ele>276.8</ele>
        <time>2021-07-10T07:48:26</time>
      </trkpt>
      <trkpt lat="44.69285" lon="4.84072">
        <ele>277</ele>
        <time>2021-07-10T07:48:27</time>
      </trkpt>
      <trkpt lat="44.69283" lon="4.84072">
        <ele>277.2</ele>
        <time>2021-07-10T07:48:28</time>
      </trkpt>
      <trkpt lat="44.69282" lon="4.84076">
        <ele>277.6</ele>
        <time>2021-07-10T07:48:29</time>
      </trkpt>
      <trkpt lat="44.69283" lon="4.84075">
        <ele>277.8</ele>
        <time>2021-07-10T07:48:30</time>
      </trkpt>
      <trkpt lat="44.69282" lon="4.84074">
        <ele>278.2</ele>
        <time>2021-07-10T07:48:31</time>
      </trkpt>
      <trkpt lat="44.69282" lon="4.84076">
        <ele>278.4</ele>
        <time>2021-07-10T07:48:32</time>
      </trkpt>
      <trkpt lat="44.69281" lon="4.84075">
        <ele>278.8</ele>
        <time>2021-07-10T07:48:33</time>
      </trkpt>
      <trkpt lat="44.69281" lon="4.84074">
        <ele>279</ele>
        <time>2021-07-10T07:48:34</time>
      </trkpt>
      <trkpt lat="44.69279" lon="4.84074">
        <ele>279.2</ele>
        <time>2021-07-10T07:48:35</time>
      </trkpt>
      <trkpt lat="44.69276" lon="4.84076">
        <ele>279.4</ele>
        <time>2021-07-10T07:48:36</time>
      </trkpt>
      <trkpt lat="44.69274" lon="4.84078">
        <ele>279.8</ele>
        <time>2021-07-10T07:48:37</time>
      </trkpt>
      <trkpt lat="44.69272" lon="4.84075">
        <ele>280.2</ele>
        <time>2021-07-10T07:48:38</time>
      </trkpt>
      <trkpt lat="44.69271" lon="4.84075">
        <ele>280.4</ele>
        <time>2021-07-10T07:48:39</time>
      </trkpt>
      <trkpt lat="44.69273" lon="4.84074">
        <ele>280.8</ele>
        <time>2021-07-10T07:48:40</time>
      </trkpt>
      <trkpt lat="44.69273" lon="4.84073">
        <ele>281.2</ele>
        <time>2021-07-10T07:48:41</time>
      </trkpt>
      <trkpt lat="44.69272" lon="4.84072">
        <ele>281.4</ele>
        <time>2021-07-10T07:48:42</time>
      </trkpt>
      <trkpt lat="44.69271" lon="4.84072">
        <ele>281.6</ele>
        <time>2021-07-10T07:48:43</time>
      </trkpt>
      <trkpt lat="44.6927" lon="4.84073">
        <ele>282</ele>
        <time>2021-07-10T07:48:44</time>
      </trkpt>
      <trkpt lat="44.69268" lon="4.84073">
        <ele>282.2</ele>
        <time>2021-07-10T07:48:45</time>
      </trkpt>
      <trkpt lat="44.69266" lon="4.84072">
        <ele>282.6</ele>
        <time>2021-07-10T07:48:46</time>
      </trkpt>
      <trkpt lat="44.69265" lon="4.8407">
        <ele>282.8</ele>
        <time>2021-07-10T07:48:47</time>
      </trkpt>
      <trkpt lat="44.69258" lon="4.84068">
        <ele>284.4</ele>
        <time>2021-07-10T07:48:53</time>
      </trkpt>
      <trkpt lat="44.69256" lon="4.84068">
        <ele>284.6</ele>
        <time>2021-07-10T07:48:54</time>
      </trkpt>
      <trkpt lat="44.69254" lon="4.84067">
        <ele>284.8</ele>
        <time>2021-07-10T07:48:55</time>
      </trkpt>
      <trkpt lat="44.69253" lon="4.84067">
        <ele>285.2</ele>
        <time>2021-07-10T07:48:56</time>
      </trkpt>
      <trkpt lat="44.69251" lon="4.84067">
        <ele>285.4</ele>
        <time>2021-07-10T07:48:57</time>
      </trkpt>
      <trkpt lat="44.6925" lon="4.84067">
        <ele>285.6</ele>
        <time>2021-07-10T07:48:58</time>
      </trkpt>
      <trkpt lat="44.69249" lon="4.84067">
        <ele>286</ele>
        <time>2021-07-10T07:48:59</time>
      </trkpt>
      <trkpt lat="44.69246" lon="4.84067">
        <ele>286.2</ele>
        <time>2021-07-10T07:49:00</time>
      </trkpt>
      <trkpt lat="44.69246" lon="4.84067">
        <ele>286.4</ele>
        <time>2021-07-10T07:49:01</time>
      </trkpt>
      <trkpt lat="44.69244" lon="4.84067">
        <ele>286.8</ele>
        <time>2021-07-10T07:49:02</time>
      </trkpt>
      <trkpt lat="44.69243" lon="4.84067">
        <ele>287.2</ele>
        <time>2021-07-10T07:49:03</time>
      </trkpt>
      <trkpt lat="44.69243" lon="4.84067">
        <ele>287.6</ele>
        <time>2021-07-10T07:49:04</time>
      </trkpt>
      <trkpt lat="44.69241" lon="4.84066">
        <ele>288</ele>
        <time>2021-07-10T07:49:05</time>
      </trkpt>
      <trkpt lat="44.69239" lon="4.84066">
        <ele>288.4</ele>
        <time>2021-07-10T07:49:06</time>
      </trkpt>
      <trkpt lat="44.69239" lon="4.84066">
        <ele>288.8</ele>
        <time>2021-07-10T07:49:07</time>
      </trkpt>
      <trkpt lat="44.69238" lon="4.84065">
        <ele>289</ele>
        <time>2021-07-10T07:49:08</time>
      </trkpt>
      <trkpt lat="44.69236" lon="4.84064">
        <ele>289.4</ele>
        <time>2021-07-10T07:49:09</time>
      </trkpt>
      <trkpt lat="44.69235" lon="4.84064">
        <ele>289.8</ele>
        <time>2021-07-10T07:49:10</time>
      </trkpt>
      <trkpt lat="44.69235" lon="4.84064">
        <ele>290</ele>
        <time>2021-07-10T07:49:11</time>
      </trkpt>
      <trkpt lat="44.69235" lon="4.84064">
        <ele>290.4</ele>
        <time>2021-07-10T07:49:12</time>
      </trkpt>
      <trkpt lat="44.69203" lon="4.84092">
        <ele>303.4</ele>
        <time>2021-07-10T07:50:30</time>
      </trkpt>
      <trkpt lat="44.69203" lon="4.84092">
        <ele>303.6</ele>
        <time>2021-07-10T07:50:31</time>
      </trkpt>
      <trkpt lat="44.69204" lon="4.84094">
        <ele>303.8</ele>
        <time>2021-07-10T07:50:32</time>
      </trkpt>
      <trkpt lat="44.69205" lon="4.84095">
        <ele>304</ele>
        <time>2021-07-10T07:50:33</time>
      </trkpt>
      <trkpt lat="44.69205" lon="4.84097">
        <ele>304</ele>
        <time>2021-07-10T07:50:34</time>
      </trkpt>
      <trkpt lat="44.69206" lon="4.84098">
        <ele>304.2</ele>
        <time>2021-07-10T07:50:35</time>
      </trkpt>
      <trkpt lat="44.69206" lon="4.84099">
        <ele>304.2</ele>
        <time>2021-07-10T07:50:36</time>
      </trkpt>
      <trkpt lat="44.69207" lon="4.84101">
        <ele>304.4</ele>
        <time>2021-07-10T07:50:37</time>
      </trkpt>
      <trkpt lat="44.69207" lon="4.84103">
        <ele>304.6</ele>
        <time>2021-07-10T07:50:38</time>
      </trkpt>
      <trkpt lat="44.69208" lon="4.84104">
        <ele>304.8</ele>
        <time>2021-07-10T07:50:39</time>
      </trkpt>
      <trkpt lat="44.69208" lon="4.84106">
        <ele>305</ele>
        <time>2021-07-10T07:50:40</time>
      </trkpt>
      <trkpt lat="44.69208" lon="4.84108">
        <ele>305.2</ele>
        <time>2021-07-10T07:50:41</time>
      </trkpt>
      <trkpt lat="44.69208" lon="4.84108">
        <ele>305.4</ele>
        <time>2021-07-10T07:50:42</time>
      </trkpt>
      <trkpt lat="44.69208" lon="4.84111">
        <ele>305.8</ele>
        <time>2021-07-10T07:50:43</time>
      </trkpt>
      <trkpt lat="44.69208" lon="4.84111">
        <ele>306</ele>
        <time>2021-07-10T07:50:44</time>
      </trkpt>
      <trkpt lat="44.69208" lon="4.84113">
        <ele>306.2</ele>
        <time>2021-07-10T07:50:45</time>
      </trkpt>
      <trkpt lat="44.69208" lon="4.84115">
        <ele>306.4</ele>
        <time>2021-07-10T07:50:46</time>
      </trkpt>
      <trkpt lat="44.69207" lon="4.84116">
        <ele>306.6</ele>
        <time>2021-07-10T07:50:47</time>
      </trkpt>
      <trkpt lat="44.69207" lon="4.84117">
        <ele>306.8</ele>
        <time>2021-07-10T07:50:48</time>
      </trkpt>
      <trkpt lat="44.69207" lon="4.84119">
        <ele>307</ele>
        <time>2021-07-10T07:50:49</time>
      </trkpt>
      <trkpt lat="44.69207" lon="4.8412">
        <ele>307.2</ele>
        <time>2021-07-10T07:50:50</time>
      </trkpt>
      <trkpt lat="44.69207" lon="4.84121">
        <ele>307.4</ele>
        <time>2021-07-10T07:50:51</time>
      </trkpt>
      <trkpt lat="44.69207" lon="4.84123">
        <ele>307.8</ele>
        <time>2021-07-10T07:50:52</time>
      </trkpt>
      <trkpt lat="44.69208" lon="4.84124">
        <ele>308</ele>
        <time>2021-07-10T07:50:53</time>
      </trkpt>
      <trkpt lat="44.69208" lon="4.84126">
        <ele>308.2</ele>
        <time>2021-07-10T07:50:54</time>
      </trkpt>
      <trkpt lat="44.69208" lon="4.84127">
        <ele>308.4</ele>
        <time>2021-07-10T07:50:55</time>
      </trkpt>
      <trkpt lat="44.69211" lon="4.84129">
        <ele>308.6</ele>
        <time>2021-07-10T07:50:56</time>
      </trkpt>
      <trkpt lat="44.69211" lon="4.84129">
        <ele>308.8</ele>
        <time>2021-07-10T07:50:57</time>
      </trkpt>
      <trkpt lat="44.69212" lon="4.84131">
        <ele>309</ele>
        <time>2021-07-10T07:50:58</time>
      </trkpt>
      <trkpt lat="44.69212" lon="4.84132">
        <ele>309.2</ele>
        <time>2021-07-10T07:50:59</time>
      </trkpt>
      <trkpt lat="44.69213" lon="4.84133">
        <ele>309.4</ele>
        <time>2021-07-10T07:51:00</time>
      </trkpt>
      <trkpt lat="44.69214" lon="4.84135">
        <ele>309.6</ele>
        <time>2021-07-10T07:51:01</time>
      </trkpt>
      <trkpt lat="44.69214" lon="4.84136">
        <ele>310</ele>
        <time>2021-07-10T07:51:02</time>
      </trkpt>
      <trkpt lat="44.69215" lon="4.84137">
        <ele>310.2</ele>
        <time>2021-07-10T07:51:03</time>
      </trkpt>
      <trkpt lat="44.69215" lon="4.84139">
        <ele>310.4</ele>
        <time>2021-07-10T07:51:04</time>
      </trkpt>
      <trkpt lat="44.69216" lon="4.84144">
        <ele>310.6</ele>
        <time>2021-07-10T07:51:05</time>
      </trkpt>
      <trkpt lat="44.69216" lon="4.84144">
        <ele>310.8</ele>
        <time>2021-07-10T07:51:06</time>
      </trkpt>
      <trkpt lat="44.69216" lon="4.84144">
        <ele>311</ele>
        <time>2021-07-10T07:51:07</time>
      </trkpt>
      <trkpt lat="44.69216" lon="4.84148">
        <ele>311.2</ele>
        <time>2021-07-10T07:51:08</time>
      </trkpt>
      <trkpt lat="44.69216" lon="4.84148">
        <ele>311.6</ele>
        <time>2021-07-10T07:51:09</time>
      </trkpt>
      <trkpt lat="44.69217" lon="4.84151">
        <ele>311.8</ele>
        <time>2021-07-10T07:51:10</time>
      </trkpt>
      <trkpt lat="44.69217" lon="4.84152">
        <ele>312</ele>
        <time>2021-07-10T07:51:11</time>
      </trkpt>
      <trkpt lat="44.69217" lon="4.84155">
        <ele>312.2</ele>
        <time>2021-07-10T07:51:12</time>
      </trkpt>
      <trkpt lat="44.69217" lon="4.84156">
        <ele>312.4</ele>
        <time>2021-07-10T07:51:13</time>
      </trkpt>
      <trkpt lat="44.69217" lon="4.84159">
        <ele>312.6</ele>
        <time>2021-07-10T07:51:14</time>
      </trkpt>
      <trkpt lat="44.69217" lon="4.84159">
        <ele>312.8</ele>
        <time>2021-07-10T07:51:15</time>
      </trkpt>
      <trkpt lat="44.69218" lon="4.84161">
        <ele>313</ele>
        <time>2021-07-10T07:51:16</time>
      </trkpt>
      <trkpt lat="44.69218" lon="4.84161">
        <ele>313.4</ele>
        <time>2021-07-10T07:51:17</time>
      </trkpt>
      <trkpt lat="44.6922" lon="4.84165">
        <ele>313.6</ele>
        <time>2021-07-10T07:51:18</time>
      </trkpt>
      <trkpt lat="44.6922" lon="4.84165">
        <ele>313.8</ele>
        <time>2021-07-10T07:51:19</time>
      </trkpt>
      <trkpt lat="44.69222" lon="4.84166">
        <ele>313.8</ele>
        <time>2021-07-10T07:51:20</time>
      </trkpt>
      <trkpt lat="44.69222" lon="4.84168">
        <ele>314</ele>
        <time>2021-07-10T07:51:21</time>
      </trkpt>
      <trkpt lat="44.69222" lon="4.8417">
        <ele>314.2</ele>
        <time>2021-07-10T07:51:22</time>
      </trkpt>
      <trkpt lat="44.69222" lon="4.84172">
        <ele>314.4</ele>
        <time>2021-07-10T07:51:23</time>
      </trkpt>
      <trkpt lat="44.69222" lon="4.84172">
        <ele>314.6</ele>
        <time>2021-07-10T07:51:24</time>
      </trkpt>
      <trkpt lat="44.69224" lon="4.84177">
        <ele>314.8</ele>
        <time>2021-07-10T07:51:25</time>
      </trkpt>
      <trkpt lat="44.69224" lon="4.84177">
        <ele>315</ele>
        <time>2021-07-10T07:51:26</time>
      </trkpt>
      <trkpt lat="44.69225" lon="4.84179">
        <ele>315.4</ele>
        <time>2021-07-10T07:51:27</time>
      </trkpt>
      <trkpt lat="44.69226" lon="4.8418">
        <ele>315.6</ele>
        <time>2021-07-10T07:51:28</time>
      </trkpt>
      <trkpt lat="44.69226" lon="4.84183">
        <ele>315.8</ele>
        <time>2021-07-10T07:51:29</time>
      </trkpt>
      <trkpt lat="44.69226" lon="4.84183">
        <ele>316</ele>
        <time>2021-07-10T07:51:30</time>
      </trkpt>
      <trkpt lat="44.69227" lon="4.84185">
        <ele>316.2</ele>
        <time>2021-07-10T07:51:31</time>
      </trkpt>
      <trkpt lat="44.69227" lon="4.84185">
        <ele>316.6</ele>
        <time>2021-07-10T07:51:32</time>
      </trkpt>
      <trkpt lat="44.69227" lon="4.84186">
        <ele>316.8</ele>
        <time>2021-07-10T07:51:33</time>
      </trkpt>
      <trkpt lat="44.69229" lon="4.84188">
        <ele>317</ele>
        <time>2021-07-10T07:51:34</time>
      </trkpt>
      <trkpt lat="44.69229" lon="4.84188">
        <ele>317.4</ele>
        <time>2021-07-10T07:51:35</time>
      </trkpt>
      <trkpt lat="44.6923" lon="4.8419">
        <ele>317.6</ele>
        <time>2021-07-10T07:51:36</time>
      </trkpt>
      <trkpt lat="44.6923" lon="4.8419">
        <ele>317.8</ele>
        <time>2021-07-10T07:51:37</time>
      </trkpt>
      <trkpt lat="44.69231" lon="4.84191">
        <ele>318</ele>
        <time>2021-07-10T07:51:38</time>
      </trkpt>
      <trkpt lat="44.69231" lon="4.84194">
        <ele>318.4</ele>
        <time>2021-07-10T07:51:39</time>
      </trkpt>
      <trkpt lat="44.69231" lon="4.84196">
        <ele>318.6</ele>
        <time>2021-07-10T07:51:40</time>
      </trkpt>
      <trkpt lat="44.69232" lon="4.842">
        <ele>319</ele>
        <time>2021-07-10T07:51:41</time>
      </trkpt>
      <trkpt lat="44.69233" lon="4.84202">
        <ele>319.2</ele>
        <time>2021-07-10T07:51:42</time>
      </trkpt>
      <trkpt lat="44.69234" lon="4.84203">
        <ele>319.4</ele>
        <time>2021-07-10T07:51:43</time>
      </trkpt>
      <trkpt lat="44.69234" lon="4.84206">
        <ele>319.8</ele>
        <time>2021-07-10T07:51:44</time>
      </trkpt>
      <trkpt lat="44.69234" lon="4.84208">
        <ele>320</ele>
        <time>2021-07-10T07:51:45</time>
      </trkpt>
      <trkpt lat="44.69234" lon="4.84208">
        <ele>320.4</ele>
        <time>2021-07-10T07:51:46</time>
      </trkpt>
      <trkpt lat="44.69235" lon="4.8421">
        <ele>320.6</ele>
        <time>2021-07-10T07:51:47</time>
      </trkpt>
      <trkpt lat="44.69235" lon="4.84211">
        <ele>320.8</ele>
        <time>2021-07-10T07:51:48</time>
      </trkpt>
      <trkpt lat="44.69234" lon="4.84213">
        <ele>321</ele>
        <time>2021-07-10T07:51:49</time>
      </trkpt>
      <trkpt lat="44.69235" lon="4.84214">
        <ele>321.4</ele>
        <time>2021-07-10T07:51:50</time>
      </trkpt>
      <trkpt lat="44.69235" lon="4.84217">
        <ele>321.6</ele>
        <time>2021-07-10T07:51:51</time>
      </trkpt>
      <trkpt lat="44.69236" lon="4.84219">
        <ele>321.8</ele>
        <time>2021-07-10T07:51:52</time>
      </trkpt>
      <trkpt lat="44.69236" lon="4.8422">
        <ele>322.2</ele>
        <time>2021-07-10T07:51:53</time>
      </trkpt>
      <trkpt lat="44.69237" lon="4.8422">
        <ele>322.4</ele>
        <time>2021-07-10T07:51:54</time>
      </trkpt>
      <trkpt lat="44.69237" lon="4.84221">
        <ele>322.8</ele>
        <time>2021-07-10T07:51:55</time>
      </trkpt>
      <trkpt lat="44.69239" lon="4.84221">
        <ele>323</ele>
        <time>2021-07-10T07:51:56</time>
      </trkpt>
      <trkpt lat="44.69253" lon="4.84253">
        <ele>327</ele>
        <time>2021-07-10T07:52:15</time>
      </trkpt>
      <trkpt lat="44.69252" lon="4.84255">
        <ele>326.8</ele>
        <time>2021-07-10T07:52:16</time>
      </trkpt>
      <trkpt lat="44.69252" lon="4.84255">
        <ele>326.8</ele>
        <time>2021-07-10T07:52:17</time>
      </trkpt>
      <trkpt lat="44.69254" lon="4.84256">
        <ele>326.8</ele>
        <time>2021-07-10T07:52:18</time>
      </trkpt>
      <trkpt lat="44.69255" lon="4.84257">
        <ele>327</ele>
        <time>2021-07-10T07:52:19</time>
      </trkpt>
      <trkpt lat="44.69257" lon="4.84257">
        <ele>327.2</ele>
        <time>2021-07-10T07:52:20</time>
      </trkpt>
      <trkpt lat="44.69257" lon="4.84257">
        <ele>327.2</ele>
        <time>2021-07-10T07:52:21</time>
      </trkpt>
      <trkpt lat="44.69259" lon="4.84258">
        <ele>327.2</ele>
        <time>2021-07-10T07:52:22</time>
      </trkpt>
      <trkpt lat="44.6926" lon="4.84259">
        <ele>327.2</ele>
        <time>2021-07-10T07:52:23</time>
      </trkpt>
      <trkpt lat="44.6926" lon="4.8426">
        <ele>327.2</ele>
        <time>2021-07-10T07:52:24</time>
      </trkpt>
      <trkpt lat="44.69262" lon="4.84263">
        <ele>327.4</ele>
        <time>2021-07-10T07:52:25</time>
      </trkpt>
      <trkpt lat="44.69262" lon="4.84263">
        <ele>327.8</ele>
        <time>2021-07-10T07:52:26</time>
      </trkpt>
      <trkpt lat="44.69262" lon="4.84264">
        <ele>328</ele>
        <time>2021-07-10T07:52:27</time>
      </trkpt>
      <trkpt lat="44.6926" lon="4.84266">
        <ele>328.4</ele>
        <time>2021-07-10T07:52:28</time>
      </trkpt>
      <trkpt lat="44.6926" lon="4.84266">
        <ele>328.6</ele>
        <time>2021-07-10T07:52:29</time>
      </trkpt>
      <trkpt lat="44.69259" lon="4.84266">
        <ele>328.8</ele>
        <time>2021-07-10T07:52:30</time>
      </trkpt>
      <trkpt lat="44.69258" lon="4.84266">
        <ele>328.8</ele>
        <time>2021-07-10T07:52:31</time>
      </trkpt>
      <trkpt lat="44.69258" lon="4.84266">
        <ele>329</ele>
        <time>2021-07-10T07:52:32</time>
      </trkpt>
      <trkpt lat="44.69258" lon="4.84266">
        <ele>329</ele>
        <time>2021-07-10T07:52:33</time>
      </trkpt>
      <trkpt lat="44.69258" lon="4.84266">
        <ele>329</ele>
        <time>2021-07-10T07:52:34</time>
      </trkpt>
      <trkpt lat="44.69258" lon="4.84267">
        <ele>329</ele>
        <time>2021-07-10T07:52:35</time>
      </trkpt>
      <trkpt lat="44.69257" lon="4.84268">
        <ele>329</ele>
        <time>2021-07-10T07:52:36</time>
      </trkpt>
      <trkpt lat="44.69294" lon="4.8428">
        <ele>329</ele>
        <time>2021-07-10T08:00:00</time>
      </trkpt>
      <trkpt lat="44.69297" lon="4.8428">
        <ele>329</ele>
        <time>2021-07-10T08:00:01</time>
      </trkpt>
      <trkpt lat="44.69298" lon="4.84281">
        <ele>329</ele>
        <time>2021-07-10T08:00:02</time>
      </trkpt>
      <trkpt lat="44.693" lon="4.84281">
        <ele>329.2</ele>
        <time>2021-07-10T08:00:03</time>
      </trkpt>
      <trkpt lat="44.69301" lon="4.84283">
        <ele>329.2</ele>
        <time>2021-07-10T08:00:04</time>
      </trkpt>
      <trkpt lat="44.69304" lon="4.84283">
        <ele>329.2</ele>
        <time>2021-07-10T08:00:05</time>
      </trkpt>
      <trkpt lat="44.69306" lon="4.84284">
        <ele>329.2</ele>
        <time>2021-07-10T08:00:06</time>
      </trkpt>
      <trkpt lat="44.69307" lon="4.84283">
        <ele>329.2</ele>
        <time>2021-07-10T08:00:07</time>
      </trkpt>
      <trkpt lat="44.69309" lon="4.84284">
        <ele>329.2</ele>
        <time>2021-07-10T08:00:08</time>
      </trkpt>
      <trkpt lat="44.69312" lon="4.84284">
        <ele>329.2</ele>
        <time>2021-07-10T08:00:09</time>
      </trkpt>
      <trkpt lat="44.69315" lon="4.84285">
        <ele>329.2</ele>
        <time>2021-07-10T08:00:10</time>
      </trkpt>
      <trkpt lat="44.69318" lon="4.84286">
        <ele>329.2</ele>
        <time>2021-07-10T08:00:11</time>
      </trkpt>
      <trkpt lat="44.69323" lon="4.84289">
        <ele>329.2</ele>
        <time>2021-07-10T08:00:12</time>
      </trkpt>
      <trkpt lat="44.69323" lon="4.84289">
        <ele>329.2</ele>
        <time>2021-07-10T08:00:13</time>
      </trkpt>
      <trkpt lat="44.69326" lon="4.8429">
        <ele>329.4</ele>
        <time>2021-07-10T08:00:14</time>
      </trkpt>
      <trkpt lat="44.69329" lon="4.84292">
        <ele>329.4</ele>
        <time>2021-07-10T08:00:15</time>
      </trkpt>
      <trkpt lat="44.69331" lon="4.84292">
        <ele>329.4</ele>
        <time>2021-07-10T08:00:16</time>
      </trkpt>
      <trkpt lat="44.69334" lon="4.84294">
        <ele>329.4</ele>
        <time>2021-07-10T08:00:17</time>
      </trkpt>
      <trkpt lat="44.69336" lon="4.84297">
        <ele>329.4</ele>
        <time>2021-07-10T08:00:18</time>
      </trkpt>
      <trkpt lat="44.69339" lon="4.84299">
        <ele>329.4</ele>
        <time>2021-07-10T08:00:19</time>
      </trkpt>
      <trkpt lat="44.69342" lon="4.84303">
        <ele>329.2</ele>
        <time>2021-07-10T08:00:20</time>
      </trkpt>
      <trkpt lat="44.69344" lon="4.84306">
        <ele>329.2</ele>
        <time>2021-07-10T08:00:21</time>
      </trkpt>
      <trkpt lat="44.69347" lon="4.8431">
        <ele>329</ele>
        <time>2021-07-10T08:00:22</time>
      </trkpt>
      <trkpt lat="44.69349" lon="4.84314">
        <ele>329</ele>
        <time>2021-07-10T08:00:23</time>
      </trkpt>
      <trkpt lat="44.69351" lon="4.84317">
        <ele>329.2</ele>
        <time>2021-07-10T08:00:24</time>
      </trkpt>
      <trkpt lat="44.69354" lon="4.84321">
        <ele>329.4</ele>
        <time>2021-07-10T08:00:25</time>
      </trkpt>
      <trkpt lat="44.69356" lon="4.84325">
        <ele>329.4</ele>
        <time>2021-07-10T08:00:26</time>
      </trkpt>
      <trkpt lat="44.69358" lon="4.84329">
        <ele>329.4</ele>
        <time>2021-07-10T08:00:27</time>
      </trkpt>
      <trkpt lat="44.69361" lon="4.84333">
        <ele>329.4</ele>
        <time>2021-07-10T08:00:28</time>
      </trkpt>
      <trkpt lat="44.69363" lon="4.84337">
        <ele>329.2</ele>
        <time>2021-07-10T08:00:29</time>
      </trkpt>
      <trkpt lat="44.69368" lon="4.84345">
        <ele>329.2</ele>
        <time>2021-07-10T08:00:30</time>
      </trkpt>
      <trkpt lat="44.69368" lon="4.84345">
        <ele>329.2</ele>
        <time>2021-07-10T08:00:31</time>
      </trkpt>
      <trkpt lat="44.69371" lon="4.84348">
        <ele>329.2</ele>
        <time>2021-07-10T08:00:32</time>
      </trkpt>
      <trkpt lat="44.69374" lon="4.8435">
        <ele>329</ele>
        <time>2021-07-10T08:00:33</time>
      </trkpt>
      <trkpt lat="44.69378" lon="4.84353">
        <ele>328.8</ele>
        <time>2021-07-10T08:00:34</time>
      </trkpt>
      <trkpt lat="44.69382" lon="4.84352">
        <ele>328.6</ele>
        <time>2021-07-10T08:00:35</time>
      </trkpt>
      <trkpt lat="44.69393" lon="4.84347">
        <ele>328.2</ele>
        <time>2021-07-10T08:00:36</time>
      </trkpt>
      <trkpt lat="44.69393" lon="4.84347">
        <ele>328</ele>
        <time>2021-07-10T08:00:37</time>
      </trkpt>
      <trkpt lat="44.694" lon="4.84346">
        <ele>327.6</ele>
        <time>2021-07-10T08:00:38</time>
      </trkpt>
      <trkpt lat="44.69406" lon="4.84344">
        <ele>327.4</ele>
        <time>2021-07-10T08:00:39</time>
      </trkpt>
      <trkpt lat="44.69412" lon="4.84341">
        <ele>327.2</ele>
        <time>2021-07-10T08:00:40</time>
      </trkpt>
      <trkpt lat="44.69417" lon="4.84339">
        <ele>327</ele>
        <time>2021-07-10T08:00:41</time>
      </trkpt>
      <trkpt lat="44.69421" lon="4.84338">
        <ele>327</ele>
        <time>2021-07-10T08:00:42</time>
      </trkpt>
      <trkpt lat="44.69421" lon="4.84338">
        <ele>327</ele>
        <time>2021-07-10T08:00:43</time>
      </trkpt>
      <trkpt lat="44.69426" lon="4.84342">
        <ele>327</ele>
        <time>2021-07-10T08:00:44</time>
      </trkpt>
      <trkpt lat="44.69427" lon="4.84346">
        <ele>327</ele>
        <time>2021-07-10T08:00:45</time>
      </trkpt>
      <trkpt lat="44.69427" lon="4.84349">
        <ele>327</ele>
        <time>2021-07-10T08:00:46</time>
      </trkpt>
      <trkpt lat="44.69427" lon="4.84352">
        <ele>327.2</ele>
        <time>2021-07-10T08:00:47</time>
      </trkpt>
      <trkpt lat="44.69427" lon="4.84357">
        <ele>327.2</ele>
        <time>2021-07-10T08:00:48</time>
      </trkpt>
      <trkpt lat="44.69427" lon="4.84357">
        <ele>327.2</ele>
        <time>2021-07-10T08:00:49</time>
      </trkpt>
      <trkpt lat="44.69426" lon="4.8436">
        <ele>327.2</ele>
        <time>2021-07-10T08:00:50</time>
      </trkpt>
      <trkpt lat="44.69426" lon="4.84363">
        <ele>327.2</ele>
        <time>2021-07-10T08:00:51</time>
      </trkpt>
      <trkpt lat="44.69425" lon="4.84366">
        <ele>327.2</ele>
        <time>2021-07-10T08:00:52</time>
      </trkpt>
      <trkpt lat="44.69425" lon="4.84369">
        <ele>327</ele>
        <time>2021-07-10T08:00:53</time>
      </trkpt>
      <trkpt lat="44.69424" lon="4.84371">
        <ele>327.2</ele>
        <time>2021-07-10T08:00:54</time>
      </trkpt>
      <trkpt lat="44.69423" lon="4.84375">
        <ele>327.4</ele>
        <time>2021-07-10T08:00:55</time>
      </trkpt>
      <trkpt lat="44.69422" lon="4.84378">
        <ele>327.6</ele>
        <time>2021-07-10T08:00:56</time>
      </trkpt>
      <trkpt lat="44.69422" lon="4.84378">
        <ele>328</ele>
        <time>2021-07-10T08:00:57</time>
      </trkpt>
      <trkpt lat="44.69422" lon="4.84385">
        <ele>328</ele>
        <time>2021-07-10T08:00:58</time>
      </trkpt>
      <trkpt lat="44.69422" lon="4.84389">
        <ele>328</ele>
        <time>2021-07-10T08:00:59</time>
      </trkpt>
      <trkpt lat="44.69422" lon="4.84394">
        <ele>327.8</ele>
        <time>2021-07-10T08:01:00</time>
      </trkpt>
      <trkpt lat="44.69423" lon="4.84398">
        <ele>327.6</ele>
        <time>2021-07-10T08:01:01</time>
      </trkpt>
      <trkpt lat="44.69424" lon="4.84403">
        <ele>327.6</ele>
        <time>2021-07-10T08:01:02</time>
      </trkpt>
      <trkpt lat="44.69425" lon="4.84407">
        <ele>327.6</ele>
        <time>2021-07-10T08:01:03</time>
      </trkpt>
      <trkpt lat="44.69427" lon="4.84411">
        <ele>327.6</ele>
        <time>2021-07-10T08:01:04</time>
      </trkpt>
      <trkpt lat="44.69429" lon="4.84415">
        <ele>327.6</ele>
        <time>2021-07-10T08:01:05</time>
      </trkpt>
      <trkpt lat="44.69431" lon="4.84418">
        <ele>327.8</ele>
        <time>2021-07-10T08:01:06</time>
      </trkpt>
      <trkpt lat="44.69433" lon="4.84422">
        <ele>327.8</ele>
        <time>2021-07-10T08:01:07</time>
      </trkpt>
      <trkpt lat="44.69434" lon="4.84425">
        <ele>328</ele>
        <time>2021-07-10T08:01:08</time>
      </trkpt>
      <trkpt lat="44.69436" lon="4.84429">
        <ele>328.2</ele>
        <time>2021-07-10T08:01:09</time>
      </trkpt>
      <trkpt lat="44.69437" lon="4.84432">
        <ele>328.4</ele>
        <time>2021-07-10T08:01:10</time>
      </trkpt>
      <trkpt lat="44.69438" lon="4.84436">
        <ele>328.4</ele>
        <time>2021-07-10T08:01:11</time>
      </trkpt>
      <trkpt lat="44.69439" lon="4.84439">
        <ele>328.6</ele>
        <time>2021-07-10T08:01:12</time>
      </trkpt>
      <trkpt lat="44.6944" lon="4.84442">
        <ele>328.6</ele>
        <time>2021-07-10T08:01:13</time>
      </trkpt>
      <trkpt lat="44.69441" lon="4.84444">
        <ele>328.8</ele>
        <time>2021-07-10T08:01:14</time>
      </trkpt>
      <trkpt lat="44.69442" lon="4.84447">
        <ele>328.8</ele>
        <time>2021-07-10T08:01:15</time>
      </trkpt>
      <trkpt lat="44.69444" lon="4.84453">
        <ele>329</ele>
        <time>2021-07-10T08:01:16</time>
      </trkpt>
      <trkpt lat="44.69444" lon="4.84453">
        <ele>329.2</ele>
        <time>2021-07-10T08:01:17</time>
      </trkpt>
      <trkpt lat="44.69444" lon="4.84457">
        <ele>329.2</ele>
        <time>2021-07-10T08:01:18</time>
      </trkpt>
      <trkpt lat="44.69444" lon="4.8446">
        <ele>329.4</ele>
        <time>2021-07-10T08:01:19</time>
      </trkpt>
      <trkpt lat="44.69445" lon="4.84463">
        <ele>329.6</ele>
        <time>2021-07-10T08:01:20</time>
      </trkpt>
      <trkpt lat="44.69446" lon="4.84464">
        <ele>329.8</ele>
        <time>2021-07-10T08:01:21</time>
      </trkpt>
      <trkpt lat="44.69446" lon="4.84467">
        <ele>330</ele>
        <time>2021-07-10T08:01:22</time>
      </trkpt>
      <trkpt lat="44.69448" lon="4.84471">
        <ele>330.2</ele>
        <time>2021-07-10T08:01:23</time>
      </trkpt>
      <trkpt lat="44.69449" lon="4.84474">
        <ele>330.2</ele>
        <time>2021-07-10T08:01:24</time>
      </trkpt>
      <trkpt lat="44.69452" lon="4.84479">
        <ele>330.4</ele>
        <time>2021-07-10T08:01:25</time>
      </trkpt>
      <trkpt lat="44.69452" lon="4.84479">
        <ele>330.4</ele>
        <time>2021-07-10T08:01:26</time>
      </trkpt>
      <trkpt lat="44.69453" lon="4.84483">
        <ele>330.6</ele>
        <time>2021-07-10T08:01:27</time>
      </trkpt>
      <trkpt lat="44.69454" lon="4.84486">
        <ele>330.8</ele>
        <time>2021-07-10T08:01:28</time>
      </trkpt>
      <trkpt lat="44.69456" lon="4.84488">
        <ele>330.8</ele>
        <time>2021-07-10T08:01:29</time>
      </trkpt>
      <trkpt lat="44.69458" lon="4.84491">
        <ele>331</ele>
        <time>2021-07-10T08:01:30</time>
      </trkpt>
      <trkpt lat="44.6946" lon="4.84494">
        <ele>331</ele>
        <time>2021-07-10T08:01:31</time>
      </trkpt>
      <trkpt lat="44.69462" lon="4.84497">
        <ele>331.2</ele>
        <time>2021-07-10T08:01:32</time>
      </trkpt>
      <trkpt lat="44.69464" lon="4.845">
        <ele>331.2</ele>
        <time>2021-07-10T08:01:33</time>
      </trkpt>
      <trkpt lat="44.69468" lon="4.84506">
        <ele>331.4</ele>
        <time>2021-07-10T08:01:34</time>
      </trkpt>
      <trkpt lat="44.69468" lon="4.84506">
        <ele>331.4</ele>
        <time>2021-07-10T08:01:35</time>
      </trkpt>
      <trkpt lat="44.69469" lon="4.84509">
        <ele>331.6</ele>
        <time>2021-07-10T08:01:36</time>
      </trkpt>
      <trkpt lat="44.6947" lon="4.84512">
        <ele>331.6</ele>
        <time>2021-07-10T08:01:37</time>
      </trkpt>
      <trkpt lat="44.69471" lon="4.84516">
        <ele>331.8</ele>
        <time>2021-07-10T08:01:38</time>
      </trkpt>
      <trkpt lat="44.69471" lon="4.84519">
        <ele>332</ele>
        <time>2021-07-10T08:01:39</time>
      </trkpt>
      <trkpt lat="44.69471" lon="4.84523">
        <ele>332</ele>
        <time>2021-07-10T08:01:40</time>
      </trkpt>
      <trkpt lat="44.69471" lon="4.84527">
        <ele>332</ele>
        <time>2021-07-10T08:01:41</time>
      </trkpt>
      <trkpt lat="44.6947" lon="4.8453">
        <ele>332</ele>
        <time>2021-07-10T08:01:42</time>
      </trkpt>
      <trkpt lat="44.69469" lon="4.84533">
        <ele>332</ele>
        <time>2021-07-10T08:01:43</time>
      </trkpt>
      <trkpt lat="44.69468" lon="4.84536">
        <ele>332</ele>
        <time>2021-07-10T08:01:44</time>
      </trkpt>
      <trkpt lat="44.69464" lon="4.84543">
        <ele>332</ele>
        <time>2021-07-10T08:01:45</time>
      </trkpt>
      <trkpt lat="44.69464" lon="4.84543">
        <ele>331.8</ele>
        <time>2021-07-10T08:01:46</time>
      </trkpt>
      <trkpt lat="44.69462" lon="4.84546">
        <ele>331.8</ele>
        <time>2021-07-10T08:01:47</time>
      </trkpt>
      <trkpt lat="44.69457" lon="4.84553">
        <ele>331.6</ele>
        <time>2021-07-10T08:01:48</time>
      </trkpt>
      <trkpt lat="44.69457" lon="4.84553">
        <ele>331.6</ele>
        <time>2021-07-10T08:01:49</time>
      </trkpt>
      <trkpt lat="44.69454" lon="4.84557">
        <ele>331.6</ele>
        <time>2021-07-10T08:01:50</time>
      </trkpt>
      <trkpt lat="44.69452" lon="4.84563">
        <ele>331.6</ele>
        <time>2021-07-10T08:01:51</time>
      </trkpt>
      <trkpt lat="44.6945" lon="4.84565">
        <ele>331.6</ele>
        <time>2021-07-10T08:01:52</time>
      </trkpt>
      <trkpt lat="44.69449" lon="4.84568">
        <ele>331.8</ele>
        <time>2021-07-10T08:01:53</time>
      </trkpt>
      <trkpt lat="44.69446" lon="4.8457">
        <ele>331.8</ele>
        <time>2021-07-10T08:01:54</time>
      </trkpt>
      <trkpt lat="44.69446" lon="4.8457">
        <ele>331.8</ele>
        <time>2021-07-10T08:01:55</time>
      </trkpt>
      <trkpt lat="44.69443" lon="4.84576">
        <ele>332</ele>
        <time>2021-07-10T08:01:56</time>
      </trkpt>
      <trkpt lat="44.69443" lon="4.84576">
        <ele>332</ele>
        <time>2021-07-10T08:01:57</time>
      </trkpt>
      <trkpt lat="44.69443" lon="4.84581">
        <ele>332.2</ele>
        <time>2021-07-10T08:01:58</time>
      </trkpt>
      <trkpt lat="44.69443" lon="4.84581">
        <ele>332.4</ele>
        <time>2021-07-10T08:01:59</time>
      </trkpt>
      <trkpt lat="44.69444" lon="4.84583">
        <ele>332.8</ele>
        <time>2021-07-10T08:02:00</time>
      </trkpt>
      <trkpt lat="44.69444" lon="4.84586">
        <ele>333</ele>
        <time>2021-07-10T08:02:01</time>
      </trkpt>
      <trkpt lat="44.69444" lon="4.84589">
        <ele>333.2</ele>
        <time>2021-07-10T08:02:02</time>
      </trkpt>
      <trkpt lat="44.69446" lon="4.84592">
        <ele>333.4</ele>
        <time>2021-07-10T08:02:03</time>
      </trkpt>
      <trkpt lat="44.69446" lon="4.84594">
        <ele>333.6</ele>
        <time>2021-07-10T08:02:04</time>
      </trkpt>
      <trkpt lat="44.69449" lon="4.84594">
        <ele>334</ele>
        <time>2021-07-10T08:02:05</time>
      </trkpt>
      <trkpt lat="44.69448" lon="4.84597">
        <ele>334.4</ele>
        <time>2021-07-10T08:02:06</time>
      </trkpt>
      <trkpt lat="44.69448" lon="4.846">
        <ele>334.6</ele>
        <time>2021-07-10T08:02:07</time>
      </trkpt>
      <trkpt lat="44.6945" lon="4.84601">
        <ele>334.8</ele>
        <time>2021-07-10T08:02:08</time>
      </trkpt>
      <trkpt lat="44.69452" lon="4.84605">
        <ele>334.8</ele>
        <time>2021-07-10T08:02:09</time>
      </trkpt>
      <trkpt lat="44.69452" lon="4.84609">
        <ele>335</ele>
        <time>2021-07-10T08:02:10</time>
      </trkpt>
      <trkpt lat="44.69452" lon="4.84612">
        <ele>335</ele>
        <time>2021-07-10T08:02:11</time>
      </trkpt>
      <trkpt lat="44.69452" lon="4.84612">
        <ele>335.2</ele>
        <time>2021-07-10T08:02:12</time>
      </trkpt>
      <trkpt lat="44.69453" lon="4.84616">
        <ele>335.2</ele>
        <time>2021-07-10T08:02:13</time>
      </trkpt>
      <trkpt lat="44.69454" lon="4.84621">
        <ele>335.4</ele>
        <time>2021-07-10T08:02:14</time>
      </trkpt>
      <trkpt lat="44.69456" lon="4.84622">
        <ele>335.4</ele>
        <time>2021-07-10T08:02:15</time>
      </trkpt>
      <trkpt lat="44.69457" lon="4.84626">
        <ele>335.6</ele>
        <time>2021-07-10T08:02:16</time>
      </trkpt>
      <trkpt lat="44.6946" lon="4.8463">
        <ele>335.6</ele>
        <time>2021-07-10T08:02:17</time>
      </trkpt>
      <trkpt lat="44.69459" lon="4.84635">
        <ele>335.6</ele>
        <time>2021-07-10T08:02:18</time>
      </trkpt>
      <trkpt lat="44.69461" lon="4.84642">
        <ele>335.8</ele>
        <time>2021-07-10T08:02:19</time>
      </trkpt>
      <trkpt lat="44.69461" lon="4.84642">
        <ele>335.8</ele>
        <time>2021-07-10T08:02:20</time>
      </trkpt>
      <trkpt lat="44.6946" lon="4.84645">
        <ele>335.8</ele>
        <time>2021-07-10T08:02:21</time>
      </trkpt>
      <trkpt lat="44.69462" lon="4.84651">
        <ele>336</ele>
        <time>2021-07-10T08:02:22</time>
      </trkpt>
      <trkpt lat="44.69462" lon="4.84651">
        <ele>336</ele>
        <time>2021-07-10T08:02:23</time>
      </trkpt>
      <trkpt lat="44.69462" lon="4.84655">
        <ele>336</ele>
        <time>2021-07-10T08:02:24</time>
      </trkpt>
      <trkpt lat="44.69463" lon="4.84658">
        <ele>336.2</ele>
        <time>2021-07-10T08:02:25</time>
      </trkpt>
      <trkpt lat="44.69465" lon="4.84661">
        <ele>336.2</ele>
        <time>2021-07-10T08:02:26</time>
      </trkpt>
      <trkpt lat="44.69466" lon="4.84667">
        <ele>336.2</ele>
        <time>2021-07-10T08:02:27</time>
      </trkpt>
      <trkpt lat="44.69469" lon="4.84671">
        <ele>336.4</ele>
        <time>2021-07-10T08:02:28</time>
      </trkpt>
      <trkpt lat="44.69469" lon="4.84671">
        <ele>336.4</ele>
        <time>2021-07-10T08:02:29</time>
      </trkpt>
      <trkpt lat="44.6947" lon="4.8468">
        <ele>336.6</ele>
        <time>2021-07-10T08:02:30</time>
      </trkpt>
      <trkpt lat="44.6947" lon="4.8468">
        <ele>336.6</ele>
        <time>2021-07-10T08:02:31</time>
      </trkpt>
      <trkpt lat="44.69474" lon="4.84682">
        <ele>336.6</ele>
        <time>2021-07-10T08:02:32</time>
      </trkpt>
      <trkpt lat="44.69475" lon="4.84685">
        <ele>336.8</ele>
        <time>2021-07-10T08:02:33</time>
      </trkpt>
      <trkpt lat="44.69478" lon="4.84686">
        <ele>336.8</ele>
        <time>2021-07-10T08:02:34</time>
      </trkpt>
      <trkpt lat="44.69479" lon="4.84691">
        <ele>336.8</ele>
        <time>2021-07-10T08:02:35</time>
      </trkpt>
      <trkpt lat="44.69479" lon="4.84691">
        <ele>337</ele>
        <time>2021-07-10T08:02:36</time>
      </trkpt>
      <trkpt lat="44.69478" lon="4.84694">
        <ele>337</ele>
        <time>2021-07-10T08:02:37</time>
      </trkpt>
      <trkpt lat="44.69478" lon="4.84697">
        <ele>337.2</ele>
        <time>2021-07-10T08:02:38</time>
      </trkpt>
      <trkpt lat="44.69476" lon="4.84698">
        <ele>337.2</ele>
        <time>2021-07-10T08:02:39</time>
      </trkpt>
      <trkpt lat="44.69475" lon="4.84698">
        <ele>337.2</ele>
        <time>2021-07-10T08:02:40</time>
      </trkpt>
      <trkpt lat="44.69474" lon="4.847">
        <ele>337.4</ele>
        <time>2021-07-10T08:02:41</time>
      </trkpt>
      <trkpt lat="44.69473" lon="4.84702">
        <ele>337.4</ele>
        <time>2021-07-10T08:02:42</time>
      </trkpt>
      <trkpt lat="44.69472" lon="4.84701">
        <ele>337.4</ele>
        <time>2021-07-10T08:02:43</time>
      </trkpt>
      <trkpt lat="44.69471" lon="4.847">
        <ele>337.2</ele>
        <time>2021-07-10T08:02:44</time>
      </trkpt>
      <trkpt lat="44.6947" lon="4.84699">
        <ele>337.2</ele>
        <time>2021-07-10T08:02:45</time>
      </trkpt>
      <trkpt lat="44.6947" lon="4.847">
        <ele>337.2</ele>
        <time>2021-07-10T08:02:46</time>
      </trkpt>
      <trkpt lat="44.69467" lon="4.84698">
        <ele>337.2</ele>
        <time>2021-07-10T08:02:47</time>
      </trkpt>
      <trkpt lat="44.69466" lon="4.84695">
        <ele>337.4</ele>
        <time>2021-07-10T08:02:48</time>
      </trkpt>
      <trkpt lat="44.69466" lon="4.84695">
        <ele>337.4</ele>
        <time>2021-07-10T08:02:49</time>
      </trkpt>
      <trkpt lat="44.69464" lon="4.84694">
        <ele>337.4</ele>
        <time>2021-07-10T08:02:50</time>
      </trkpt>
      <trkpt lat="44.69463" lon="4.84694">
        <ele>337.4</ele>
        <time>2021-07-10T08:02:51</time>
      </trkpt>
      <trkpt lat="44.69462" lon="4.84693">
        <ele>337.4</ele>
        <time>2021-07-10T08:02:52</time>
      </trkpt>
      <trkpt lat="44.6946" lon="4.84691">
        <ele>337.4</ele>
        <time>2021-07-10T08:02:53</time>
      </trkpt>
      <trkpt lat="44.69457" lon="4.8469">
        <ele>337.4</ele>
        <time>2021-07-10T08:02:54</time>
      </trkpt>
      <trkpt lat="44.69457" lon="4.84688">
        <ele>337.4</ele>
        <time>2021-07-10T08:02:55</time>
      </trkpt>
      <trkpt lat="44.69456" lon="4.84688">
        <ele>337.6</ele>
        <time>2021-07-10T08:02:56</time>
      </trkpt>
      <trkpt lat="44.69455" lon="4.84685">
        <ele>337.6</ele>
        <time>2021-07-10T08:02:57</time>
      </trkpt>
      <trkpt lat="44.69455" lon="4.84681">
        <ele>337.8</ele>
        <time>2021-07-10T08:02:58</time>
      </trkpt>
      <trkpt lat="44.69452" lon="4.84678">
        <ele>337.8</ele>
        <time>2021-07-10T08:02:59</time>
      </trkpt>
      <trkpt lat="44.69452" lon="4.84678">
        <ele>338</ele>
        <time>2021-07-10T08:03:00</time>
      </trkpt>
      <trkpt lat="44.6945" lon="4.84676">
        <ele>338.2</ele>
        <time>2021-07-10T08:03:01</time>
      </trkpt>
      <trkpt lat="44.69448" lon="4.84677">
        <ele>338.4</ele>
        <time>2021-07-10T08:03:02</time>
      </trkpt>
      <trkpt lat="44.69446" lon="4.84676">
        <ele>338.8</ele>
        <time>2021-07-10T08:03:03</time>
      </trkpt>
      <trkpt lat="44.69444" lon="4.84676">
        <ele>339</ele>
        <time>2021-07-10T08:03:04</time>
      </trkpt>
      <trkpt lat="44.69444" lon="4.84674">
        <ele>339.4</ele>
        <time>2021-07-10T08:03:05</time>
      </trkpt>
      <trkpt lat="44.69443" lon="4.84672">
        <ele>339.6</ele>
        <time>2021-07-10T08:03:06</time>
      </trkpt>
      <trkpt lat="44.69442" lon="4.8467">
        <ele>339.8</ele>
        <time>2021-07-10T08:03:07</time>
      </trkpt>
      <trkpt lat="44.6944" lon="4.84671">
        <ele>340</ele>
        <time>2021-07-10T08:03:08</time>
      </trkpt>
      <trkpt lat="44.69439" lon="4.84668">
        <ele>340.2</ele>
        <time>2021-07-10T08:03:09</time>
      </trkpt>
      <trkpt lat="44.69438" lon="4.84667">
        <ele>340.4</ele>
        <time>2021-07-10T08:03:10</time>
      </trkpt>
      <trkpt lat="44.69438" lon="4.84667">
        <ele>340.8</ele>
        <time>2021-07-10T08:03:11</time>
      </trkpt>
      <trkpt lat="44.69437" lon="4.84666">
        <ele>341</ele>
        <time>2021-07-10T08:03:12</time>
      </trkpt>
      <trkpt lat="44.69437" lon="4.84666">
        <ele>341.4</ele>
        <time>2021-07-10T08:03:13</time>
      </trkpt>
      <trkpt lat="44.69436" lon="4.84665">
        <ele>341.6</ele>
        <time>2021-07-10T08:03:14</time>
      </trkpt>
      <trkpt lat="44.69434" lon="4.84665">
        <ele>341.8</ele>
        <time>2021-07-10T08:03:15</time>
      </trkpt>
      <trkpt lat="44.69433" lon="4.84666">
        <ele>342</ele>
        <time>2021-07-10T08:03:16</time>
      </trkpt>
      <trkpt lat="44.69432" lon="4.84666">
        <ele>342.4</ele>
        <time>2021-07-10T08:03:17</time>
      </trkpt>
      <trkpt lat="44.69429" lon="4.84666">
        <ele>342.6</ele>
        <time>2021-07-10T08:03:18</time>
      </trkpt>
      <trkpt lat="44.69427" lon="4.84668">
        <ele>343</ele>
        <time>2021-07-10T08:03:19</time>
      </trkpt>
      <trkpt lat="44.69425" lon="4.84667">
        <ele>343.2</ele>
        <time>2021-07-10T08:03:20</time>
      </trkpt>
      <trkpt lat="44.69424" lon="4.84666">
        <ele>343.6</ele>
        <time>2021-07-10T08:03:21</time>
      </trkpt>
      <trkpt lat="44.69423" lon="4.84665">
        <ele>344</ele>
        <time>2021-07-10T08:03:22</time>
      </trkpt>
      <trkpt lat="44.6942" lon="4.84665">
        <ele>344.4</ele>
        <time>2021-07-10T08:03:23</time>
      </trkpt>
      <trkpt lat="44.6942" lon="4.84665">
        <ele>344.8</ele>
        <time>2021-07-10T08:03:24</time>
      </trkpt>
      <trkpt lat="44.6942" lon="4.84664">
        <ele>345.2</ele>
        <time>2021-07-10T08:03:25</time>
      </trkpt>
      <trkpt lat="44.6942" lon="4.84662">
        <ele>345.4</ele>
        <time>2021-07-10T08:03:26</time>
      </trkpt>
      <trkpt lat="44.69419" lon="4.84662">
        <ele>345.8</ele>
        <time>2021-07-10T08:03:27</time>
      </trkpt>
      <trkpt lat="44.69417" lon="4.84661">
        <ele>346</ele>
        <time>2021-07-10T08:03:28</time>
      </trkpt>
      <trkpt lat="44.69416" lon="4.8466">
        <ele>346.2</ele>
        <time>2021-07-10T08:03:29</time>
      </trkpt>
      <trkpt lat="44.69415" lon="4.84661">
        <ele>346.4</ele>
        <time>2021-07-10T08:03:30</time>
      </trkpt>
      <trkpt lat="44.69414" lon="4.84661">
        <ele>346.6</ele>
        <time>2021-07-10T08:03:31</time>
      </trkpt>
      <trkpt lat="44.69413" lon="4.84659">
        <ele>347</ele>
        <time>2021-07-10T08:03:32</time>
      </trkpt>
      <trkpt lat="44.69411" lon="4.8466">
        <ele>347.2</ele>
        <time>2021-07-10T08:03:33</time>
      </trkpt>
      <trkpt lat="44.6941" lon="4.8466">
        <ele>347.6</ele>
        <time>2021-07-10T08:03:34</time>
      </trkpt>
      <trkpt lat="44.6941" lon="4.8466">
        <ele>348</ele>
        <time>2021-07-10T08:03:35</time>
      </trkpt>
      <trkpt lat="44.69407" lon="4.8466">
        <ele>348.2</ele>
        <time>2021-07-10T08:03:36</time>
      </trkpt>
      <trkpt lat="44.69407" lon="4.8466">
        <ele>348.6</ele>
        <time>2021-07-10T08:03:37</time>
      </trkpt>
      <trkpt lat="44.69405" lon="4.84659">
        <ele>348.8</ele>
        <time>2021-07-10T08:03:38</time>
      </trkpt>
      <trkpt lat="44.69403" lon="4.84658">
        <ele>349.2</ele>
        <time>2021-07-10T08:03:39</time>
      </trkpt>
      <trkpt lat="44.69402" lon="4.84658">
        <ele>349.4</ele>
        <time>2021-07-10T08:03:40</time>
      </trkpt>
      <trkpt lat="44.69401" lon="4.84657">
        <ele>349.6</ele>
        <time>2021-07-10T08:03:41</time>
      </trkpt>
      <trkpt lat="44.69399" lon="4.84656">
        <ele>350</ele>
        <time>2021-07-10T08:03:42</time>
      </trkpt>
      <trkpt lat="44.69399" lon="4.8466">
        <ele>350.2</ele>
        <time>2021-07-10T08:03:43</time>
      </trkpt>
      <trkpt lat="44.69398" lon="4.8466">
        <ele>350.4</ele>
        <time>2021-07-10T08:03:44</time>
      </trkpt>
      <trkpt lat="44.69397" lon="4.84656">
        <ele>350.6</ele>
        <time>2021-07-10T08:03:45</time>
      </trkpt>
      <trkpt lat="44.69396" lon="4.84655">
        <ele>351</ele>
        <time>2021-07-10T08:03:46</time>
      </trkpt>
      <trkpt lat="44.69392" lon="4.84655">
        <ele>351.2</ele>
        <time>2021-07-10T08:03:47</time>
      </trkpt>
      <trkpt lat="44.69392" lon="4.84655">
        <ele>351.6</ele>
        <time>2021-07-10T08:03:48</time>
      </trkpt>
      <trkpt lat="44.69391" lon="4.84657">
        <ele>352</ele>
        <time>2021-07-10T08:03:49</time>
      </trkpt>
      <trkpt lat="44.69391" lon="4.84659">
        <ele>352.2</ele>
        <time>2021-07-10T08:03:50</time>
      </trkpt>
      <trkpt lat="44.69388" lon="4.84658">
        <ele>352.6</ele>
        <time>2021-07-10T08:03:51</time>
      </trkpt>
      <trkpt lat="44.69387" lon="4.84656">
        <ele>352.6</ele>
        <time>2021-07-10T08:03:52</time>
      </trkpt>
      <trkpt lat="44.69387" lon="4.84656">
        <ele>352.8</ele>
        <time>2021-07-10T08:03:53</time>
      </trkpt>
      <trkpt lat="44.69385" lon="4.84656">
        <ele>352.8</ele>
        <time>2021-07-10T08:03:54</time>
      </trkpt>
      <trkpt lat="44.69384" lon="4.84655">
        <ele>353.2</ele>
        <time>2021-07-10T08:03:55</time>
      </trkpt>
      <trkpt lat="44.69383" lon="4.84655">
        <ele>353.4</ele>
        <time>2021-07-10T08:03:56</time>
      </trkpt>
      <trkpt lat="44.69382" lon="4.84656">
        <ele>353.8</ele>
        <time>2021-07-10T08:03:57</time>
      </trkpt>
      <trkpt lat="44.69379" lon="4.84659">
        <ele>354</ele>
        <time>2021-07-10T08:03:58</time>
      </trkpt>
      <trkpt lat="44.69379" lon="4.84659">
        <ele>354.4</ele>
        <time>2021-07-10T08:03:59</time>
      </trkpt>
      <trkpt lat="44.69378" lon="4.84658">
        <ele>354.6</ele>
        <time>2021-07-10T08:04:00</time>
      </trkpt>
      <trkpt lat="44.69379" lon="4.84659">
        <ele>354.6</ele>
        <time>2021-07-10T08:04:01</time>
      </trkpt>
      <trkpt lat="44.69377" lon="4.84661">
        <ele>354.8</ele>
        <time>2021-07-10T08:04:02</time>
      </trkpt>
      <trkpt lat="44.69376" lon="4.84661">
        <ele>355</ele>
        <time>2021-07-10T08:04:03</time>
      </trkpt>
      <trkpt lat="44.69375" lon="4.84659">
        <ele>355.4</ele>
        <time>2021-07-10T08:04:04</time>
      </trkpt>
      <trkpt lat="44.69373" lon="4.84657">
        <ele>355.6</ele>
        <time>2021-07-10T08:04:05</time>
      </trkpt>
      <trkpt lat="44.69374" lon="4.84657">
        <ele>356</ele>
        <time>2021-07-10T08:04:06</time>
      </trkpt>
      <trkpt lat="44.69372" lon="4.84659">
        <ele>356</ele>
        <time>2021-07-10T08:04:07</time>
      </trkpt>
      <trkpt lat="44.6937" lon="4.84661">
        <ele>356.2</ele>
        <time>2021-07-10T08:04:08</time>
      </trkpt>
      <trkpt lat="44.6937" lon="4.84665">
        <ele>356.4</ele>
        <time>2021-07-10T08:04:09</time>
      </trkpt>
      <trkpt lat="44.69369" lon="4.84662">
        <ele>356.4</ele>
        <time>2021-07-10T08:04:10</time>
      </trkpt>
      <trkpt lat="44.69367" lon="4.8466">
        <ele>356.6</ele>
        <time>2021-07-10T08:04:11</time>
      </trkpt>
      <trkpt lat="44.69367" lon="4.8466">
        <ele>356.8</ele>
        <time>2021-07-10T08:04:12</time>
      </trkpt>
      <trkpt lat="44.69366" lon="4.84662">
        <ele>357</ele>
        <time>2021-07-10T08:04:13</time>
      </trkpt>
      <trkpt lat="44.69364" lon="4.84664">
        <ele>357</ele>
        <time>2021-07-10T08:04:14</time>
      </trkpt>
      <trkpt lat="44.69362" lon="4.84664">
        <ele>357.2</ele>
        <time>2021-07-10T08:04:15</time>
      </trkpt>
      <trkpt lat="44.69362" lon="4.84664">
        <ele>357.4</ele>
        <time>2021-07-10T08:04:16</time>
      </trkpt>
      <trkpt lat="44.69361" lon="4.84663">
        <ele>357.6</ele>
        <time>2021-07-10T08:04:17</time>
      </trkpt>
      <trkpt lat="44.69359" lon="4.84663">
        <ele>357.6</ele>
        <time>2021-07-10T08:04:18</time>
      </trkpt>
      <trkpt lat="44.69358" lon="4.84665">
        <ele>357.8</ele>
        <time>2021-07-10T08:04:19</time>
      </trkpt>
      <trkpt lat="44.69357" lon="4.84664">
        <ele>358</ele>
        <time>2021-07-10T08:04:20</time>
      </trkpt>
      <trkpt lat="44.69355" lon="4.84666">
        <ele>358.2</ele>
        <time>2021-07-10T08:04:21</time>
      </trkpt>
      <trkpt lat="44.69354" lon="4.84664">
        <ele>358.2</ele>
        <time>2021-07-10T08:04:22</time>
      </trkpt>
      <trkpt lat="44.69354" lon="4.84664">
        <ele>358.4</ele>
        <time>2021-07-10T08:04:23</time>
      </trkpt>
      <trkpt lat="44.69352" lon="4.84664">
        <ele>358.6</ele>
        <time>2021-07-10T08:04:24</time>
      </trkpt>
      <trkpt lat="44.69352" lon="4.84664">
        <ele>358.8</ele>
        <time>2021-07-10T08:04:25</time>
      </trkpt>
      <trkpt lat="44.69352" lon="4.84665">
        <ele>359</ele>
        <time>2021-07-10T08:04:26</time>
      </trkpt>
      <trkpt lat="44.69349" lon="4.84665">
        <ele>359</ele>
        <time>2021-07-10T08:04:27</time>
      </trkpt>
      <trkpt lat="44.69348" lon="4.84665">
        <ele>359</ele>
        <time>2021-07-10T08:04:28</time>
      </trkpt>
      <trkpt lat="44.69347" lon="4.84665">
        <ele>359.2</ele>
        <time>2021-07-10T08:04:29</time>
      </trkpt>
      <trkpt lat="44.69346" lon="4.84666">
        <ele>359.4</ele>
        <time>2021-07-10T08:04:30</time>
      </trkpt>
      <trkpt lat="44.69345" lon="4.84664">
        <ele>359.6</ele>
        <time>2021-07-10T08:04:31</time>
      </trkpt>
      <trkpt lat="44.69344" lon="4.84667">
        <ele>359.8</ele>
        <time>2021-07-10T08:04:32</time>
      </trkpt>
      <trkpt lat="44.69343" lon="4.84667">
        <ele>360</ele>
        <time>2021-07-10T08:04:33</time>
      </trkpt>
      <trkpt lat="44.69341" lon="4.84669">
        <ele>360.2</ele>
        <time>2021-07-10T08:04:34</time>
      </trkpt>
      <trkpt lat="44.69338" lon="4.84672">
        <ele>360.4</ele>
        <time>2021-07-10T08:04:35</time>
      </trkpt>
      <trkpt lat="44.69338" lon="4.84672">
        <ele>360.6</ele>
        <time>2021-07-10T08:04:36</time>
      </trkpt>
      <trkpt lat="44.69337" lon="4.84671">
        <ele>360.8</ele>
        <time>2021-07-10T08:04:37</time>
      </trkpt>
      <trkpt lat="44.69334" lon="4.84671">
        <ele>361.2</ele>
        <time>2021-07-10T08:04:38</time>
      </trkpt>
      <trkpt lat="44.69333" lon="4.84672">
        <ele>361.4</ele>
        <time>2021-07-10T08:04:39</time>
      </trkpt>
      <trkpt lat="44.69332" lon="4.84673">
        <ele>361.6</ele>
        <time>2021-07-10T08:04:40</time>
      </trkpt>
      <trkpt lat="44.69332" lon="4.84674">
        <ele>361.8</ele>
        <time>2021-07-10T08:04:41</time>
      </trkpt>
      <trkpt lat="44.6933" lon="4.84674">
        <ele>362</ele>
        <time>2021-07-10T08:04:42</time>
      </trkpt>
      <trkpt lat="44.69329" lon="4.84675">
        <ele>362.2</ele>
        <time>2021-07-10T08:04:43</time>
      </trkpt>
      <trkpt lat="44.69328" lon="4.84675">
        <ele>362.6</ele>
        <time>2021-07-10T08:04:44</time>
      </trkpt>
      <trkpt lat="44.69327" lon="4.84677">
        <ele>362.8</ele>
        <time>2021-07-10T08:04:45</time>
      </trkpt>
      <trkpt lat="44.69326" lon="4.84684">
        <ele>363</ele>
        <time>2021-07-10T08:04:46</time>
      </trkpt>
      <trkpt lat="44.69326" lon="4.84684">
        <ele>363.2</ele>
        <time>2021-07-10T08:04:47</time>
      </trkpt>
      <trkpt lat="44.69324" lon="4.84682">
        <ele>363.4</ele>
        <time>2021-07-10T08:04:48</time>
      </trkpt>
      <trkpt lat="44.69321" lon="4.84683">
        <ele>363.6</ele>
        <time>2021-07-10T08:04:49</time>
      </trkpt>
      <trkpt lat="44.69321" lon="4.84683">
        <ele>363.8</ele>
        <time>2021-07-10T08:04:50</time>
      </trkpt>
      <trkpt lat="44.6932" lon="4.84686">
        <ele>364.2</ele>
        <time>2021-07-10T08:04:51</time>
      </trkpt>
      <trkpt lat="44.6932" lon="4.84686">
        <ele>364.4</ele>
        <time>2021-07-10T08:04:52</time>
      </trkpt>
      <trkpt lat="44.69319" lon="4.84688">
        <ele>364.6</ele>
        <time>2021-07-10T08:04:53</time>
      </trkpt>
      <trkpt lat="44.69318" lon="4.84688">
        <ele>364.8</ele>
        <time>2021-07-10T08:04:54</time>
      </trkpt>
      <trkpt lat="44.69316" lon="4.84685">
        <ele>365</ele>
        <time>2021-07-10T08:04:55</time>
      </trkpt>
      <trkpt lat="44.69315" lon="4.84686">
        <ele>365.2</ele>
        <time>2021-07-10T08:04:56</time>
      </trkpt>
      <trkpt lat="44.69313" lon="4.84687">
        <ele>365.4</ele>
        <time>2021-07-10T08:04:57</time>
      </trkpt>
      <trkpt lat="44.6931" lon="4.84688">
        <ele>365.6</ele>
        <time>2021-07-10T08:04:58</time>
      </trkpt>
      <trkpt lat="44.69309" lon="4.8469">
        <ele>365.8</ele>
        <time>2021-07-10T08:04:59</time>
      </trkpt>
      <trkpt lat="44.69309" lon="4.8469">
        <ele>366</ele>
        <time>2021-07-10T08:05:00</time>
      </trkpt>
      <trkpt lat="44.69307" lon="4.84688">
        <ele>366.2</ele>
        <time>2021-07-10T08:05:01</time>
      </trkpt>
      <trkpt lat="44.69306" lon="4.84689">
        <ele>366.4</ele>
        <time>2021-07-10T08:05:02</time>
      </trkpt>
      <trkpt lat="44.69306" lon="4.84689">
        <ele>366.6</ele>
        <time>2021-07-10T08:05:03</time>
      </trkpt>
      <trkpt lat="44.69305" lon="4.84692">
        <ele>366.8</ele>
        <time>2021-07-10T08:05:04</time>
      </trkpt>
      <trkpt lat="44.69302" lon="4.84695">
        <ele>367</ele>
        <time>2021-07-10T08:05:05</time>
      </trkpt>
      <trkpt lat="44.69302" lon="4.84695">
        <ele>367</ele>
        <time>2021-07-10T08:05:06</time>
      </trkpt>
      <trkpt lat="44.69299" lon="4.84695">
        <ele>367.2</ele>
        <time>2021-07-10T08:05:07</time>
      </trkpt>
      <trkpt lat="44.69297" lon="4.84697">
        <ele>367.6</ele>
        <time>2021-07-10T08:05:08</time>
      </trkpt>
      <trkpt lat="44.69297" lon="4.84698">
        <ele>367.8</ele>
        <time>2021-07-10T08:05:09</time>
      </trkpt>
      <trkpt lat="44.69295" lon="4.84699">
        <ele>368</ele>
        <time>2021-07-10T08:05:10</time>
      </trkpt>
      <trkpt lat="44.69292" lon="4.847">
        <ele>368</ele>
        <time>2021-07-10T08:05:11</time>
      </trkpt>
      <trkpt lat="44.69291" lon="4.847">
        <ele>368.2</ele>
        <time>2021-07-10T08:05:12</time>
      </trkpt>
      <trkpt lat="44.69291" lon="4.847">
        <ele>368.4</ele>
        <time>2021-07-10T08:05:13</time>
      </trkpt>
      <trkpt lat="44.69291" lon="4.847">
        <ele>368.4</ele>
        <time>2021-07-10T08:05:14</time>
      </trkpt>
      <trkpt lat="44.69289" lon="4.84699">
        <ele>368.6</ele>
        <time>2021-07-10T08:05:15</time>
      </trkpt>
      <trkpt lat="44.69289" lon="4.84699">
        <ele>368.8</ele>
        <time>2021-07-10T08:05:16</time>
      </trkpt>
      <trkpt lat="44.69285" lon="4.84703">
        <ele>369</ele>
        <time>2021-07-10T08:05:17</time>
      </trkpt>
      <trkpt lat="44.69285" lon="4.84702">
        <ele>369</ele>
        <time>2021-07-10T08:05:18</time>
      </trkpt>
      <trkpt lat="44.69284" lon="4.84703">
        <ele>369.2</ele>
        <time>2021-07-10T08:05:19</time>
      </trkpt>
      <trkpt lat="44.69282" lon="4.84702">
        <ele>369.4</ele>
        <time>2021-07-10T08:05:20</time>
      </trkpt>
      <trkpt lat="44.69279" lon="4.84703">
        <ele>369.6</ele>
        <time>2021-07-10T08:05:21</time>
      </trkpt>
      <trkpt lat="44.69279" lon="4.84705">
        <ele>369.8</ele>
        <time>2021-07-10T08:05:22</time>
      </trkpt>
      <trkpt lat="44.69278" lon="4.84706">
        <ele>370</ele>
        <time>2021-07-10T08:05:23</time>
      </trkpt>
      <trkpt lat="44.69277" lon="4.84706">
        <ele>370.2</ele>
        <time>2021-07-10T08:05:24</time>
      </trkpt>
      <trkpt lat="44.69276" lon="4.84706">
        <ele>370.2</ele>
        <time>2021-07-10T08:05:25</time>
      </trkpt>
      <trkpt lat="44.69273" lon="4.84708">
        <ele>370.4</ele>
        <time>2021-07-10T08:05:26</time>
      </trkpt>
      <trkpt lat="44.69273" lon="4.84708">
        <ele>370.6</ele>
        <time>2021-07-10T08:05:27</time>
      </trkpt>
      <trkpt lat="44.69271" lon="4.84709">
        <ele>370.8</ele>
        <time>2021-07-10T08:05:28</time>
      </trkpt>
      <trkpt lat="44.69267" lon="4.84709">
        <ele>370.8</ele>
        <time>2021-07-10T08:05:29</time>
      </trkpt>
      <trkpt lat="44.69267" lon="4.84709">
        <ele>370.8</ele>
        <time>2021-07-10T08:05:30</time>
      </trkpt>
      <trkpt lat="44.69266" lon="4.8471">
        <ele>371</ele>
        <time>2021-07-10T08:05:31</time>
      </trkpt>
      <trkpt lat="44.69264" lon="4.84712">
        <ele>371.2</ele>
        <time>2021-07-10T08:05:32</time>
      </trkpt>
      <trkpt lat="44.69263" lon="4.84714">
        <ele>371.2</ele>
        <time>2021-07-10T08:05:33</time>
      </trkpt>
      <trkpt lat="44.69262" lon="4.84717">
        <ele>371.2</ele>
        <time>2021-07-10T08:05:34</time>
      </trkpt>
      <trkpt lat="44.69261" lon="4.84715">
        <ele>371.4</ele>
        <time>2021-07-10T08:05:35</time>
      </trkpt>
      <trkpt lat="44.69258" lon="4.84721">
        <ele>371.4</ele>
        <time>2021-07-10T08:05:36</time>
      </trkpt>
      <trkpt lat="44.69258" lon="4.84721">
        <ele>371.6</ele>
        <time>2021-07-10T08:05:37</time>
      </trkpt>
      <trkpt lat="44.69254" lon="4.84722">
        <ele>371.8</ele>
        <time>2021-07-10T08:05:38</time>
      </trkpt>
      <trkpt lat="44.69254" lon="4.84722">
        <ele>371.8</ele>
        <time>2021-07-10T08:05:39</time>
      </trkpt>
      <trkpt lat="44.69253" lon="4.84724">
        <ele>372</ele>
        <time>2021-07-10T08:05:40</time>
      </trkpt>
      <trkpt lat="44.69252" lon="4.84726">
        <ele>372</ele>
        <time>2021-07-10T08:05:41</time>
      </trkpt>
      <trkpt lat="44.69249" lon="4.84727">
        <ele>372.2</ele>
        <time>2021-07-10T08:05:42</time>
      </trkpt>
      <trkpt lat="44.69249" lon="4.84727">
        <ele>372.4</ele>
        <time>2021-07-10T08:05:43</time>
      </trkpt>
      <trkpt lat="44.69248" lon="4.84729">
        <ele>372.6</ele>
        <time>2021-07-10T08:05:44</time>
      </trkpt>
      <trkpt lat="44.69247" lon="4.8473">
        <ele>372.8</ele>
        <time>2021-07-10T08:05:45</time>
      </trkpt>
      <trkpt lat="44.69245" lon="4.84728">
        <ele>373</ele>
        <time>2021-07-10T08:05:46</time>
      </trkpt>
      <trkpt lat="44.69243" lon="4.84731">
        <ele>373</ele>
        <time>2021-07-10T08:05:47</time>
      </trkpt>
      <trkpt lat="44.69242" lon="4.84732">
        <ele>373.2</ele>
        <time>2021-07-10T08:05:48</time>
      </trkpt>
      <trkpt lat="44.69238" lon="4.84735">
        <ele>373.2</ele>
        <time>2021-07-10T08:05:49</time>
      </trkpt>
      <trkpt lat="44.69238" lon="4.84735">
        <ele>373.2</ele>
        <time>2021-07-10T08:05:50</time>
      </trkpt>
      <trkpt lat="44.69236" lon="4.84735">
        <ele>373.2</ele>
        <time>2021-07-10T08:05:51</time>
      </trkpt>
      <trkpt lat="44.69234" lon="4.84735">
        <ele>373.4</ele>
        <time>2021-07-10T08:05:52</time>
      </trkpt>
      <trkpt lat="44.69232" lon="4.84734">
        <ele>373.6</ele>
        <time>2021-07-10T08:05:53</time>
      </trkpt>
      <trkpt lat="44.6923" lon="4.84734">
        <ele>373.8</ele>
        <time>2021-07-10T08:05:54</time>
      </trkpt>
      <trkpt lat="44.69228" lon="4.84735">
        <ele>374</ele>
        <time>2021-07-10T08:05:55</time>
      </trkpt>
      <trkpt lat="44.69226" lon="4.84738">
        <ele>374</ele>
        <time>2021-07-10T08:05:56</time>
      </trkpt>
      <trkpt lat="44.69224" lon="4.84736">
        <ele>374.2</ele>
        <time>2021-07-10T08:05:57</time>
      </trkpt>
      <trkpt lat="44.69222" lon="4.84736">
        <ele>374.4</ele>
        <time>2021-07-10T08:05:58</time>
      </trkpt>
      <trkpt lat="44.6922" lon="4.84736">
        <ele>374.6</ele>
        <time>2021-07-10T08:05:59</time>
      </trkpt>
      <trkpt lat="44.69219" lon="4.84737">
        <ele>374.6</ele>
        <time>2021-07-10T08:06:00</time>
      </trkpt>
      <trkpt lat="44.69217" lon="4.84735">
        <ele>374.8</ele>
        <time>2021-07-10T08:06:01</time>
      </trkpt>
      <trkpt lat="44.69214" lon="4.84738">
        <ele>375</ele>
        <time>2021-07-10T08:06:02</time>
      </trkpt>
      <trkpt lat="44.69214" lon="4.84738">
        <ele>375.2</ele>
        <time>2021-07-10T08:06:03</time>
      </trkpt>
      <trkpt lat="44.69212" lon="4.84737">
        <ele>375.4</ele>
        <time>2021-07-10T08:06:04</time>
      </trkpt>
      <trkpt lat="44.69211" lon="4.84737">
        <ele>375.6</ele>
        <time>2021-07-10T08:06:05</time>
      </trkpt>
      <trkpt lat="44.69208" lon="4.84736">
        <ele>375.8</ele>
        <time>2021-07-10T08:06:06</time>
      </trkpt>
      <trkpt lat="44.69206" lon="4.84737">
        <ele>376</ele>
        <time>2021-07-10T08:06:07</time>
      </trkpt>
      <trkpt lat="44.69205" lon="4.84735">
        <ele>376.2</ele>
        <time>2021-07-10T08:06:08</time>
      </trkpt>
      <trkpt lat="44.69204" lon="4.84737">
        <ele>376.2</ele>
        <time>2021-07-10T08:06:09</time>
      </trkpt>
      <trkpt lat="44.69204" lon="4.84737">
        <ele>376.4</ele>
        <time>2021-07-10T08:06:10</time>
      </trkpt>
      <trkpt lat="44.69199" lon="4.84746">
        <ele>376.6</ele>
        <time>2021-07-10T08:06:11</time>
      </trkpt>
      <trkpt lat="44.69199" lon="4.84746">
        <ele>376.6</ele>
        <time>2021-07-10T08:06:12</time>
      </trkpt>
      <trkpt lat="44.69198" lon="4.84742">
        <ele>376.8</ele>
        <time>2021-07-10T08:06:13</time>
      </trkpt>
      <trkpt lat="44.69196" lon="4.84743">
        <ele>377</ele>
        <time>2021-07-10T08:06:14</time>
      </trkpt>
      <trkpt lat="44.69193" lon="4.84741">
        <ele>377.2</ele>
        <time>2021-07-10T08:06:15</time>
      </trkpt>
      <trkpt lat="44.69191" lon="4.84741">
        <ele>377.4</ele>
        <time>2021-07-10T08:06:16</time>
      </trkpt>
      <trkpt lat="44.69191" lon="4.84742">
        <ele>377.6</ele>
        <time>2021-07-10T08:06:17</time>
      </trkpt>
      <trkpt lat="44.6919" lon="4.84741">
        <ele>377.6</ele>
        <time>2021-07-10T08:06:18</time>
      </trkpt>
      <trkpt lat="44.69188" lon="4.84742">
        <ele>377.8</ele>
        <time>2021-07-10T08:06:19</time>
      </trkpt>
      <trkpt lat="44.69188" lon="4.84742">
        <ele>377.8</ele>
        <time>2021-07-10T08:06:20</time>
      </trkpt>
      <trkpt lat="44.69186" lon="4.84742">
        <ele>378</ele>
        <time>2021-07-10T08:06:21</time>
      </trkpt>
      <trkpt lat="44.69185" lon="4.84743">
        <ele>378.2</ele>
        <time>2021-07-10T08:06:22</time>
      </trkpt>
      <trkpt lat="44.69182" lon="4.84743">
        <ele>378.4</ele>
        <time>2021-07-10T08:06:23</time>
      </trkpt>
      <trkpt lat="44.69179" lon="4.84744">
        <ele>378.6</ele>
        <time>2021-07-10T08:06:24</time>
      </trkpt>
      <trkpt lat="44.69179" lon="4.84744">
        <ele>378.8</ele>
        <time>2021-07-10T08:06:25</time>
      </trkpt>
      <trkpt lat="44.69177" lon="4.84742">
        <ele>378.8</ele>
        <time>2021-07-10T08:06:26</time>
      </trkpt>
      <trkpt lat="44.69176" lon="4.8474">
        <ele>379</ele>
        <time>2021-07-10T08:06:27</time>
      </trkpt>
      <trkpt lat="44.69174" lon="4.84742">
        <ele>379</ele>
        <time>2021-07-10T08:06:28</time>
      </trkpt>
      <trkpt lat="44.69173" lon="4.84744">
        <ele>379.2</ele>
        <time>2021-07-10T08:06:29</time>
      </trkpt>
      <trkpt lat="44.6917" lon="4.84744">
        <ele>379.2</ele>
        <time>2021-07-10T08:06:30</time>
      </trkpt>
      <trkpt lat="44.6917" lon="4.84744">
        <ele>379.4</ele>
        <time>2021-07-10T08:06:31</time>
      </trkpt>
      <trkpt lat="44.69167" lon="4.84745">
        <ele>379.6</ele>
        <time>2021-07-10T08:06:32</time>
      </trkpt>
      <trkpt lat="44.69165" lon="4.84747">
        <ele>379.8</ele>
        <time>2021-07-10T08:06:33</time>
      </trkpt>
      <trkpt lat="44.69163" lon="4.84745">
        <ele>380.2</ele>
        <time>2021-07-10T08:06:34</time>
      </trkpt>
      <trkpt lat="44.69162" lon="4.84745">
        <ele>380.4</ele>
        <time>2021-07-10T08:06:35</time>
      </trkpt>
      <trkpt lat="44.69159" lon="4.84743">
        <ele>380.6</ele>
        <time>2021-07-10T08:06:36</time>
      </trkpt>
      <trkpt lat="44.69155" lon="4.84744">
        <ele>380.8</ele>
        <time>2021-07-10T08:06:37</time>
      </trkpt>
      <trkpt lat="44.69155" lon="4.84744">
        <ele>381</ele>
        <time>2021-07-10T08:06:38</time>
      </trkpt>
      <trkpt lat="44.69153" lon="4.84744">
        <ele>381.2</ele>
        <time>2021-07-10T08:06:39</time>
      </trkpt>
      <trkpt lat="44.6915" lon="4.84742">
        <ele>381.4</ele>
        <time>2021-07-10T08:06:40</time>
      </trkpt>
      <trkpt lat="44.69147" lon="4.84741">
        <ele>381.8</ele>
        <time>2021-07-10T08:06:41</time>
      </trkpt>
      <trkpt lat="44.69147" lon="4.84741">
        <ele>381.8</ele>
        <time>2021-07-10T08:06:42</time>
      </trkpt>
      <trkpt lat="44.69145" lon="4.84742">
        <ele>382</ele>
        <time>2021-07-10T08:06:43</time>
      </trkpt>
      <trkpt lat="44.69144" lon="4.84745">
        <ele>382.2</ele>
        <time>2021-07-10T08:06:44</time>
      </trkpt>
      <trkpt lat="44.69141" lon="4.84745">
        <ele>382.2</ele>
        <time>2021-07-10T08:06:45</time>
      </trkpt>
      <trkpt lat="44.69141" lon="4.84745">
        <ele>382.4</ele>
        <time>2021-07-10T08:06:46</time>
      </trkpt>
      <trkpt lat="44.69139" lon="4.84745">
        <ele>382.4</ele>
        <time>2021-07-10T08:06:47</time>
      </trkpt>
      <trkpt lat="44.69138" lon="4.84745">
        <ele>382.6</ele>
        <time>2021-07-10T08:06:48</time>
      </trkpt>
      <trkpt lat="44.69136" lon="4.84746">
        <ele>382.6</ele>
        <time>2021-07-10T08:06:49</time>
      </trkpt>
      <trkpt lat="44.69132" lon="4.84747">
        <ele>382.8</ele>
        <time>2021-07-10T08:06:50</time>
      </trkpt>
      <trkpt lat="44.69132" lon="4.84747">
        <ele>383</ele>
        <time>2021-07-10T08:06:51</time>
      </trkpt>
      <trkpt lat="44.6913" lon="4.84745">
        <ele>383.2</ele>
        <time>2021-07-10T08:06:52</time>
      </trkpt>
      <trkpt lat="44.69129" lon="4.84747">
        <ele>383.4</ele>
        <time>2021-07-10T08:06:53</time>
      </trkpt>
      <trkpt lat="44.69127" lon="4.84747">
        <ele>383.4</ele>
        <time>2021-07-10T08:06:54</time>
      </trkpt>
      <trkpt lat="44.69125" lon="4.84746">
        <ele>383.6</ele>
        <time>2021-07-10T08:06:55</time>
      </trkpt>
      <trkpt lat="44.69122" lon="4.84744">
        <ele>383.6</ele>
        <time>2021-07-10T08:06:56</time>
      </trkpt>
      <trkpt lat="44.69119" lon="4.84744">
        <ele>383.6</ele>
        <time>2021-07-10T08:06:57</time>
      </trkpt>
      <trkpt lat="44.69117" lon="4.84744">
        <ele>383.8</ele>
        <time>2021-07-10T08:06:58</time>
      </trkpt>
      <trkpt lat="44.69116" lon="4.84745">
        <ele>383.8</ele>
        <time>2021-07-10T08:06:59</time>
      </trkpt>
      <trkpt lat="44.69114" lon="4.84747">
        <ele>384</ele>
        <time>2021-07-10T08:07:00</time>
      </trkpt>
      <trkpt lat="44.69112" lon="4.84747">
        <ele>384</ele>
        <time>2021-07-10T08:07:01</time>
      </trkpt>
      <trkpt lat="44.69111" lon="4.84746">
        <ele>384.2</ele>
        <time>2021-07-10T08:07:02</time>
      </trkpt>
      <trkpt lat="44.69106" lon="4.84745">
        <ele>384.2</ele>
        <time>2021-07-10T08:07:03</time>
      </trkpt>
      <trkpt lat="44.69106" lon="4.84745">
        <ele>384.2</ele>
        <time>2021-07-10T08:07:04</time>
      </trkpt>
      <trkpt lat="44.69103" lon="4.84747">
        <ele>384.4</ele>
        <time>2021-07-10T08:07:05</time>
      </trkpt>
      <trkpt lat="44.69101" lon="4.84749">
        <ele>384.6</ele>
        <time>2021-07-10T08:07:06</time>
      </trkpt>
      <trkpt lat="44.691" lon="4.84749">
        <ele>384.8</ele>
        <time>2021-07-10T08:07:07</time>
      </trkpt>
      <trkpt lat="44.69097" lon="4.84748">
        <ele>385</ele>
        <time>2021-07-10T08:07:08</time>
      </trkpt>
      <trkpt lat="44.69096" lon="4.84747">
        <ele>385.2</ele>
        <time>2021-07-10T08:07:09</time>
      </trkpt>
      <trkpt lat="44.69094" lon="4.84748">
        <ele>385.4</ele>
        <time>2021-07-10T08:07:10</time>
      </trkpt>
      <trkpt lat="44.69092" lon="4.84749">
        <ele>385.6</ele>
        <time>2021-07-10T08:07:11</time>
      </trkpt>
      <trkpt lat="44.69089" lon="4.84749">
        <ele>385.6</ele>
        <time>2021-07-10T08:07:12</time>
      </trkpt>
      <trkpt lat="44.69086" lon="4.84749">
        <ele>385.8</ele>
        <time>2021-07-10T08:07:13</time>
      </trkpt>
      <trkpt lat="44.69083" lon="4.84749">
        <ele>385.8</ele>
        <time>2021-07-10T08:07:14</time>
      </trkpt>
      <trkpt lat="44.69083" lon="4.84749">
        <ele>385.8</ele>
        <time>2021-07-10T08:07:15</time>
      </trkpt>
      <trkpt lat="44.69079" lon="4.84751">
        <ele>385.8</ele>
        <time>2021-07-10T08:07:16</time>
      </trkpt>
      <trkpt lat="44.69079" lon="4.84751">
        <ele>386</ele>
        <time>2021-07-10T08:07:17</time>
      </trkpt>
      <trkpt lat="44.69076" lon="4.8475">
        <ele>386.2</ele>
        <time>2021-07-10T08:07:18</time>
      </trkpt>
      <trkpt lat="44.69074" lon="4.84747">
        <ele>386.2</ele>
        <time>2021-07-10T08:07:19</time>
      </trkpt>
      <trkpt lat="44.69071" lon="4.84746">
        <ele>386.4</ele>
        <time>2021-07-10T08:07:20</time>
      </trkpt>
      <trkpt lat="44.69069" lon="4.84745">
        <ele>386.6</ele>
        <time>2021-07-10T08:07:21</time>
      </trkpt>
      <trkpt lat="44.69067" lon="4.84743">
        <ele>386.8</ele>
        <time>2021-07-10T08:07:22</time>
      </trkpt>
      <trkpt lat="44.69064" lon="4.84745">
        <ele>386.8</ele>
        <time>2021-07-10T08:07:23</time>
      </trkpt>
      <trkpt lat="44.69061" lon="4.84745">
        <ele>387.2</ele>
        <time>2021-07-10T08:07:24</time>
      </trkpt>
      <trkpt lat="44.69059" lon="4.84743">
        <ele>387.4</ele>
        <time>2021-07-10T08:07:25</time>
      </trkpt>
      <trkpt lat="44.69056" lon="4.84744">
        <ele>387.6</ele>
        <time>2021-07-10T08:07:26</time>
      </trkpt>
      <trkpt lat="44.69055" lon="4.84742">
        <ele>387.6</ele>
        <time>2021-07-10T08:07:27</time>
      </trkpt>
      <trkpt lat="44.69053" lon="4.84741">
        <ele>387.8</ele>
        <time>2021-07-10T08:07:28</time>
      </trkpt>
      <trkpt lat="44.69048" lon="4.84736">
        <ele>387.8</ele>
        <time>2021-07-10T08:07:29</time>
      </trkpt>
      <trkpt lat="44.69048" lon="4.84736">
        <ele>387.8</ele>
        <time>2021-07-10T08:07:30</time>
      </trkpt>
      <trkpt lat="44.69046" lon="4.84737">
        <ele>388</ele>
        <time>2021-07-10T08:07:31</time>
      </trkpt>
      <trkpt lat="44.69046" lon="4.84734">
        <ele>388</ele>
        <time>2021-07-10T08:07:32</time>
      </trkpt>
      <trkpt lat="44.69045" lon="4.84732">
        <ele>388.2</ele>
        <time>2021-07-10T08:07:33</time>
      </trkpt>
      <trkpt lat="44.69043" lon="4.84733">
        <ele>388.4</ele>
        <time>2021-07-10T08:07:34</time>
      </trkpt>
      <trkpt lat="44.69042" lon="4.84733">
        <ele>388.6</ele>
        <time>2021-07-10T08:07:35</time>
      </trkpt>
      <trkpt lat="44.69039" lon="4.84734">
        <ele>388.8</ele>
        <time>2021-07-10T08:07:36</time>
      </trkpt>
      <trkpt lat="44.69038" lon="4.84736">
        <ele>389.2</ele>
        <time>2021-07-10T08:07:37</time>
      </trkpt>
      <trkpt lat="44.69036" lon="4.84737">
        <ele>389.4</ele>
        <time>2021-07-10T08:07:38</time>
      </trkpt>
      <trkpt lat="44.69034" lon="4.84738">
        <ele>389.4</ele>
        <time>2021-07-10T08:07:39</time>
      </trkpt>
      <trkpt lat="44.69031" lon="4.84738">
        <ele>389.4</ele>
        <time>2021-07-10T08:07:40</time>
      </trkpt>
      <trkpt lat="44.69029" lon="4.84739">
        <ele>389.6</ele>
        <time>2021-07-10T08:07:41</time>
      </trkpt>
      <trkpt lat="44.69025" lon="4.84739">
        <ele>389.8</ele>
        <time>2021-07-10T08:07:42</time>
      </trkpt>
      <trkpt lat="44.69025" lon="4.84739">
        <ele>389.8</ele>
        <time>2021-07-10T08:07:43</time>
      </trkpt>
      <trkpt lat="44.69022" lon="4.84738">
        <ele>390</ele>
        <time>2021-07-10T08:07:44</time>
      </trkpt>
      <trkpt lat="44.6902" lon="4.84739">
        <ele>390</ele>
        <time>2021-07-10T08:07:45</time>
      </trkpt>
      <trkpt lat="44.69018" lon="4.84741">
        <ele>390.2</ele>
        <time>2021-07-10T08:07:46</time>
      </trkpt>
      <trkpt lat="44.69016" lon="4.84742">
        <ele>390.2</ele>
        <time>2021-07-10T08:07:47</time>
      </trkpt>
      <trkpt lat="44.69014" lon="4.84743">
        <ele>390.2</ele>
        <time>2021-07-10T08:07:48</time>
      </trkpt>
      <trkpt lat="44.69011" lon="4.84742">
        <ele>390.4</ele>
        <time>2021-07-10T08:07:49</time>
      </trkpt>
      <trkpt lat="44.69011" lon="4.84742">
        <ele>390.6</ele>
        <time>2021-07-10T08:07:50</time>
      </trkpt>
      <trkpt lat="44.69009" lon="4.84742">
        <ele>390.6</ele>
        <time>2021-07-10T08:07:51</time>
      </trkpt>
      <trkpt lat="44.69005" lon="4.84742">
        <ele>390.6</ele>
        <time>2021-07-10T08:07:52</time>
      </trkpt>
      <trkpt lat="44.69003" lon="4.84742">
        <ele>390.8</ele>
        <time>2021-07-10T08:07:53</time>
      </trkpt>
      <trkpt lat="44.69002" lon="4.84744">
        <ele>391</ele>
        <time>2021-07-10T08:07:54</time>
      </trkpt>
      <trkpt lat="44.69" lon="4.84744">
        <ele>391.2</ele>
        <time>2021-07-10T08:07:55</time>
      </trkpt>
      <trkpt lat="44.68999" lon="4.84742">
        <ele>391.4</ele>
        <time>2021-07-10T08:07:56</time>
      </trkpt>
      <trkpt lat="44.68998" lon="4.84742">
        <ele>391.6</ele>
        <time>2021-07-10T08:07:57</time>
      </trkpt>
      <trkpt lat="44.68996" lon="4.84745">
        <ele>391.8</ele>
        <time>2021-07-10T08:07:58</time>
      </trkpt>
      <trkpt lat="44.68993" lon="4.84746">
        <ele>392</ele>
        <time>2021-07-10T08:07:59</time>
      </trkpt>
      <trkpt lat="44.68992" lon="4.84745">
        <ele>392</ele>
        <time>2021-07-10T08:08:00</time>
      </trkpt>
      <trkpt lat="44.68991" lon="4.84747">
        <ele>392.2</ele>
        <time>2021-07-10T08:08:01</time>
      </trkpt>
      <trkpt lat="44.68988" lon="4.84747">
        <ele>392.4</ele>
        <time>2021-07-10T08:08:02</time>
      </trkpt>
      <trkpt lat="44.68987" lon="4.84746">
        <ele>392.8</ele>
        <time>2021-07-10T08:08:03</time>
      </trkpt>
      <trkpt lat="44.68985" lon="4.84746">
        <ele>393</ele>
        <time>2021-07-10T08:08:04</time>
      </trkpt>
      <trkpt lat="44.68984" lon="4.84745">
        <ele>393.2</ele>
        <time>2021-07-10T08:08:05</time>
      </trkpt>
      <trkpt lat="44.68982" lon="4.84746">
        <ele>393.4</ele>
        <time>2021-07-10T08:08:06</time>
      </trkpt>
      <trkpt lat="44.68981" lon="4.84745">
        <ele>393.6</ele>
        <time>2021-07-10T08:08:07</time>
      </trkpt>
      <trkpt lat="44.68978" lon="4.84745">
        <ele>393.8</ele>
        <time>2021-07-10T08:08:08</time>
      </trkpt>
      <trkpt lat="44.68978" lon="4.84745">
        <ele>394</ele>
        <time>2021-07-10T08:08:09</time>
      </trkpt>
      <trkpt lat="44.68974" lon="4.84745">
        <ele>394.4</ele>
        <time>2021-07-10T08:08:10</time>
      </trkpt>
      <trkpt lat="44.68973" lon="4.84746">
        <ele>394.6</ele>
        <time>2021-07-10T08:08:11</time>
      </trkpt>
      <trkpt lat="44.68972" lon="4.84743">
        <ele>394.8</ele>
        <time>2021-07-10T08:08:12</time>
      </trkpt>
      <trkpt lat="44.6897" lon="4.8474">
        <ele>395</ele>
        <time>2021-07-10T08:08:13</time>
      </trkpt>
      <trkpt lat="44.68969" lon="4.84739">
        <ele>395.2</ele>
        <time>2021-07-10T08:08:14</time>
      </trkpt>
      <trkpt lat="44.68967" lon="4.84739">
        <ele>395.4</ele>
        <time>2021-07-10T08:08:15</time>
      </trkpt>
      <trkpt lat="44.68965" lon="4.84738">
        <ele>395.6</ele>
        <time>2021-07-10T08:08:16</time>
      </trkpt>
      <trkpt lat="44.68962" lon="4.84738">
        <ele>395.8</ele>
        <time>2021-07-10T08:08:17</time>
      </trkpt>
      <trkpt lat="44.68962" lon="4.84739">
        <ele>396</ele>
        <time>2021-07-10T08:08:18</time>
      </trkpt>
      <trkpt lat="44.68959" lon="4.84738">
        <ele>396.2</ele>
        <time>2021-07-10T08:08:19</time>
      </trkpt>
      <trkpt lat="44.68958" lon="4.84736">
        <ele>396.4</ele>
        <time>2021-07-10T08:08:20</time>
      </trkpt>
      <trkpt lat="44.68955" lon="4.84737">
        <ele>396.8</ele>
        <time>2021-07-10T08:08:21</time>
      </trkpt>
      <trkpt lat="44.68955" lon="4.84737">
        <ele>397</ele>
        <time>2021-07-10T08:08:22</time>
      </trkpt>
      <trkpt lat="44.68953" lon="4.8474">
        <ele>397.2</ele>
        <time>2021-07-10T08:08:23</time>
      </trkpt>
      <trkpt lat="44.68951" lon="4.84739">
        <ele>397.4</ele>
        <time>2021-07-10T08:08:24</time>
      </trkpt>
      <trkpt lat="44.6895" lon="4.84739">
        <ele>397.8</ele>
        <time>2021-07-10T08:08:25</time>
      </trkpt>
      <trkpt lat="44.68949" lon="4.84737">
        <ele>398</ele>
        <time>2021-07-10T08:08:26</time>
      </trkpt>
      <trkpt lat="44.68948" lon="4.84734">
        <ele>398.2</ele>
        <time>2021-07-10T08:08:27</time>
      </trkpt>
      <trkpt lat="44.68948" lon="4.84733">
        <ele>398.4</ele>
        <time>2021-07-10T08:08:28</time>
      </trkpt>
      <trkpt lat="44.68946" lon="4.8473">
        <ele>398.6</ele>
        <time>2021-07-10T08:08:29</time>
      </trkpt>
      <trkpt lat="44.68944" lon="4.84729">
        <ele>398.8</ele>
        <time>2021-07-10T08:08:30</time>
      </trkpt>
      <trkpt lat="44.68944" lon="4.8473">
        <ele>399.2</ele>
        <time>2021-07-10T08:08:31</time>
      </trkpt>
      <trkpt lat="44.6894" lon="4.84732">
        <ele>399.4</ele>
        <time>2021-07-10T08:08:32</time>
      </trkpt>
      <trkpt lat="44.68938" lon="4.84732">
        <ele>399.6</ele>
        <time>2021-07-10T08:08:33</time>
      </trkpt>
      <trkpt lat="44.68933" lon="4.84729">
        <ele>400</ele>
        <time>2021-07-10T08:08:34</time>
      </trkpt>
      <trkpt lat="44.68933" lon="4.84729">
        <ele>400.2</ele>
        <time>2021-07-10T08:08:35</time>
      </trkpt>
      <trkpt lat="44.68932" lon="4.84728">
        <ele>400.4</ele>
        <time>2021-07-10T08:08:36</time>
      </trkpt>
      <trkpt lat="44.6893" lon="4.84728">
        <ele>400.6</ele>
        <time>2021-07-10T08:08:37</time>
      </trkpt>
      <trkpt lat="44.68927" lon="4.84726">
        <ele>400.8</ele>
        <time>2021-07-10T08:08:38</time>
      </trkpt>
      <trkpt lat="44.68926" lon="4.84727">
        <ele>400.8</ele>
        <time>2021-07-10T08:08:39</time>
      </trkpt>
      <trkpt lat="44.68923" lon="4.84725">
        <ele>401</ele>
        <time>2021-07-10T08:08:40</time>
      </trkpt>
      <trkpt lat="44.6892" lon="4.84724">
        <ele>401.2</ele>
        <time>2021-07-10T08:08:41</time>
      </trkpt>
      <trkpt lat="44.6892" lon="4.84722">
        <ele>401.2</ele>
        <time>2021-07-10T08:08:42</time>
      </trkpt>
      <trkpt lat="44.68917" lon="4.84722">
        <ele>401.2</ele>
        <time>2021-07-10T08:08:43</time>
      </trkpt>
      <trkpt lat="44.68915" lon="4.84722">
        <ele>401.2</ele>
        <time>2021-07-10T08:08:44</time>
      </trkpt>
      <trkpt lat="44.68914" lon="4.84722">
        <ele>401.4</ele>
        <time>2021-07-10T08:08:45</time>
      </trkpt>
      <trkpt lat="44.6891" lon="4.8472">
        <ele>401.4</ele>
        <time>2021-07-10T08:08:46</time>
      </trkpt>
      <trkpt lat="44.68908" lon="4.8472">
        <ele>401.6</ele>
        <time>2021-07-10T08:08:47</time>
      </trkpt>
      <trkpt lat="44.68908" lon="4.8472">
        <ele>401.8</ele>
        <time>2021-07-10T08:08:48</time>
      </trkpt>
      <trkpt lat="44.68906" lon="4.84719">
        <ele>402</ele>
        <time>2021-07-10T08:08:49</time>
      </trkpt>
      <trkpt lat="44.68904" lon="4.84717">
        <ele>402.2</ele>
        <time>2021-07-10T08:08:50</time>
      </trkpt>
      <trkpt lat="44.68902" lon="4.84713">
        <ele>402.4</ele>
        <time>2021-07-10T08:08:51</time>
      </trkpt>
      <trkpt lat="44.68901" lon="4.8471">
        <ele>402.6</ele>
        <time>2021-07-10T08:08:52</time>
      </trkpt>
      <trkpt lat="44.68899" lon="4.8471">
        <ele>402.6</ele>
        <time>2021-07-10T08:08:53</time>
      </trkpt>
      <trkpt lat="44.68897" lon="4.84708">
        <ele>402.8</ele>
        <time>2021-07-10T08:08:54</time>
      </trkpt>
      <trkpt lat="44.68896" lon="4.84708">
        <ele>402.8</ele>
        <time>2021-07-10T08:08:55</time>
      </trkpt>
      <trkpt lat="44.68894" lon="4.84706">
        <ele>402.8</ele>
        <time>2021-07-10T08:08:56</time>
      </trkpt>
      <trkpt lat="44.68891" lon="4.84706">
        <ele>402.8</ele>
        <time>2021-07-10T08:08:57</time>
      </trkpt>
      <trkpt lat="44.68886" lon="4.84702">
        <ele>403</ele>
        <time>2021-07-10T08:08:58</time>
      </trkpt>
      <trkpt lat="44.68886" lon="4.84702">
        <ele>403</ele>
        <time>2021-07-10T08:08:59</time>
      </trkpt>
      <trkpt lat="44.68883" lon="4.84697">
        <ele>403.2</ele>
        <time>2021-07-10T08:09:00</time>
      </trkpt>
      <trkpt lat="44.68883" lon="4.84697">
        <ele>403.4</ele>
        <time>2021-07-10T08:09:01</time>
      </trkpt>
      <trkpt lat="44.68882" lon="4.84694">
        <ele>403.4</ele>
        <time>2021-07-10T08:09:02</time>
      </trkpt>
      <trkpt lat="44.6888" lon="4.84689">
        <ele>403.4</ele>
        <time>2021-07-10T08:09:03</time>
      </trkpt>
      <trkpt lat="44.68877" lon="4.84688">
        <ele>403.4</ele>
        <time>2021-07-10T08:09:04</time>
      </trkpt>
      <trkpt lat="44.68876" lon="4.84684">
        <ele>403.4</ele>
        <time>2021-07-10T08:09:05</time>
      </trkpt>
      <trkpt lat="44.68876" lon="4.84684">
        <ele>403.2</ele>
        <time>2021-07-10T08:09:06</time>
      </trkpt>
      <trkpt lat="44.68873" lon="4.84683">
        <ele>403.2</ele>
        <time>2021-07-10T08:09:07</time>
      </trkpt>
      <trkpt lat="44.68872" lon="4.84679">
        <ele>403</ele>
        <time>2021-07-10T08:09:08</time>
      </trkpt>
      <trkpt lat="44.68869" lon="4.84676">
        <ele>403</ele>
        <time>2021-07-10T08:09:09</time>
      </trkpt>
      <trkpt lat="44.68866" lon="4.84675">
        <ele>403</ele>
        <time>2021-07-10T08:09:10</time>
      </trkpt>
      <trkpt lat="44.68861" lon="4.84666">
        <ele>403</ele>
        <time>2021-07-10T08:09:11</time>
      </trkpt>
      <trkpt lat="44.68861" lon="4.84666">
        <ele>403</ele>
        <time>2021-07-10T08:09:12</time>
      </trkpt>
      <trkpt lat="44.68859" lon="4.84662">
        <ele>403</ele>
        <time>2021-07-10T08:09:13</time>
      </trkpt>
      <trkpt lat="44.68856" lon="4.84659">
        <ele>403</ele>
        <time>2021-07-10T08:09:14</time>
      </trkpt>
      <trkpt lat="44.68853" lon="4.84655">
        <ele>403</ele>
        <time>2021-07-10T08:09:15</time>
      </trkpt>
      <trkpt lat="44.68849" lon="4.84652">
        <ele>403</ele>
        <time>2021-07-10T08:09:16</time>
      </trkpt>
      <trkpt lat="44.68846" lon="4.84648">
        <ele>402.8</ele>
        <time>2021-07-10T08:09:17</time>
      </trkpt>
      <trkpt lat="44.68842" lon="4.84644">
        <ele>402.6</ele>
        <time>2021-07-10T08:09:18</time>
      </trkpt>
      <trkpt lat="44.6884" lon="4.84641">
        <ele>402.4</ele>
        <time>2021-07-10T08:09:19</time>
      </trkpt>
      <trkpt lat="44.68837" lon="4.84638">
        <ele>402.2</ele>
        <time>2021-07-10T08:09:20</time>
      </trkpt>
      <trkpt lat="44.68833" lon="4.84635">
        <ele>402.2</ele>
        <time>2021-07-10T08:09:21</time>
      </trkpt>
      <trkpt lat="44.68826" lon="4.84626">
        <ele>402.2</ele>
        <time>2021-07-10T08:09:22</time>
      </trkpt>
      <trkpt lat="44.68826" lon="4.84626">
        <ele>402.2</ele>
        <time>2021-07-10T08:09:23</time>
      </trkpt>
      <trkpt lat="44.68823" lon="4.84622">
        <ele>402.2</ele>
        <time>2021-07-10T08:09:24</time>
      </trkpt>
      <trkpt lat="44.68822" lon="4.84619">
        <ele>402.4</ele>
        <time>2021-07-10T08:09:25</time>
      </trkpt>
      <trkpt lat="44.68817" lon="4.84615">
        <ele>402.4</ele>
        <time>2021-07-10T08:09:26</time>
      </trkpt>
      <trkpt lat="44.68814" lon="4.84614">
        <ele>402.4</ele>
        <time>2021-07-10T08:09:27</time>
      </trkpt>
      <trkpt lat="44.68811" lon="4.8461">
        <ele>402.4</ele>
        <time>2021-07-10T08:09:28</time>
      </trkpt>
      <trkpt lat="44.68806" lon="4.84604">
        <ele>402.2</ele>
        <time>2021-07-10T08:09:29</time>
      </trkpt>
      <trkpt lat="44.68802" lon="4.84601">
        <ele>402</ele>
        <time>2021-07-10T08:09:30</time>
      </trkpt>
      <trkpt lat="44.68798" lon="4.84596">
        <ele>401.8</ele>
        <time>2021-07-10T08:09:31</time>
      </trkpt>
      <trkpt lat="44.68795" lon="4.84593">
        <ele>401.4</ele>
        <time>2021-07-10T08:09:32</time>
      </trkpt>
      <trkpt lat="44.6879" lon="4.84591">
        <ele>401.2</ele>
        <time>2021-07-10T08:09:33</time>
      </trkpt>
      <trkpt lat="44.68786" lon="4.84586">
        <ele>401</ele>
        <time>2021-07-10T08:09:34</time>
      </trkpt>
      <trkpt lat="44.68779" lon="4.84579">
        <ele>400.8</ele>
        <time>2021-07-10T08:09:35</time>
      </trkpt>
      <trkpt lat="44.68779" lon="4.84579">
        <ele>400.6</ele>
        <time>2021-07-10T08:09:36</time>
      </trkpt>
      <trkpt lat="44.68778" lon="4.84574">
        <ele>400.6</ele>
        <time>2021-07-10T08:09:37</time>
      </trkpt>
      <trkpt lat="44.68771" lon="4.84564">
        <ele>400.4</ele>
        <time>2021-07-10T08:09:38</time>
      </trkpt>
      <trkpt lat="44.68771" lon="4.84564">
        <ele>400.4</ele>
        <time>2021-07-10T08:09:39</time>
      </trkpt>
      <trkpt lat="44.68766" lon="4.84559">
        <ele>400.2</ele>
        <time>2021-07-10T08:09:40</time>
      </trkpt>
      <trkpt lat="44.6876" lon="4.84553">
        <ele>400</ele>
        <time>2021-07-10T08:09:41</time>
      </trkpt>
      <trkpt lat="44.68755" lon="4.84549">
        <ele>399.8</ele>
        <time>2021-07-10T08:09:42</time>
      </trkpt>
      <trkpt lat="44.68748" lon="4.84546">
        <ele>399.8</ele>
        <time>2021-07-10T08:09:43</time>
      </trkpt>
      <trkpt lat="44.68734" lon="4.84532">
        <ele>399.6</ele>
        <time>2021-07-10T08:09:44</time>
      </trkpt>
      <trkpt lat="44.68734" lon="4.84532">
        <ele>399.4</ele>
        <time>2021-07-10T08:09:45</time>
      </trkpt>
      <trkpt lat="44.68722" lon="4.84526">
        <ele>399.2</ele>
        <time>2021-07-10T08:09:46</time>
      </trkpt>
      <trkpt lat="44.68722" lon="4.84526">
        <ele>399</ele>
        <time>2021-07-10T08:09:47</time>
      </trkpt>
      <trkpt lat="44.68712" lon="4.84517">
        <ele>398.8</ele>
        <time>2021-07-10T08:09:48</time>
      </trkpt>
      <trkpt lat="44.68712" lon="4.84517">
        <ele>398.6</ele>
        <time>2021-07-10T08:09:49</time>
      </trkpt>
      <trkpt lat="44.68707" lon="4.84511">
        <ele>398.4</ele>
        <time>2021-07-10T08:09:50</time>
      </trkpt>
      <trkpt lat="44.68703" lon="4.84507">
        <ele>398.4</ele>
        <time>2021-07-10T08:09:51</time>
      </trkpt>
      <trkpt lat="44.68697" lon="4.84502">
        <ele>398.2</ele>
        <time>2021-07-10T08:09:52</time>
      </trkpt>
      <trkpt lat="44.68692" lon="4.84499">
        <ele>398.2</ele>
        <time>2021-07-10T08:09:53</time>
      </trkpt>
      <trkpt lat="44.68687" lon="4.84495">
        <ele>398</ele>
        <time>2021-07-10T08:09:54</time>
      </trkpt>
      <trkpt lat="44.68677" lon="4.84485">
        <ele>397.8</ele>
        <time>2021-07-10T08:09:55</time>
      </trkpt>
      <trkpt lat="44.68677" lon="4.84485">
        <ele>397.6</ele>
        <time>2021-07-10T08:09:56</time>
      </trkpt>
      <trkpt lat="44.68672" lon="4.84483">
        <ele>397.2</ele>
        <time>2021-07-10T08:09:57</time>
      </trkpt>
      <trkpt lat="44.68667" lon="4.84477">
        <ele>397</ele>
        <time>2021-07-10T08:09:58</time>
      </trkpt>
      <trkpt lat="44.68663" lon="4.84474">
        <ele>397</ele>
        <time>2021-07-10T08:09:59</time>
      </trkpt>
      <trkpt lat="44.68658" lon="4.84468">
        <ele>396.8</ele>
        <time>2021-07-10T08:10:00</time>
      </trkpt>
      <trkpt lat="44.68653" lon="4.84464">
        <ele>396.4</ele>
        <time>2021-07-10T08:10:01</time>
      </trkpt>
      <trkpt lat="44.6865" lon="4.84459">
        <ele>395.8</ele>
        <time>2021-07-10T08:10:02</time>
      </trkpt>
      <trkpt lat="44.68644" lon="4.84454">
        <ele>395.6</ele>
        <time>2021-07-10T08:10:03</time>
      </trkpt>
      <trkpt lat="44.68641" lon="4.8445">
        <ele>395.4</ele>
        <time>2021-07-10T08:10:04</time>
      </trkpt>
      <trkpt lat="44.68637" lon="4.84446">
        <ele>395.2</ele>
        <time>2021-07-10T08:10:05</time>
      </trkpt>
      <trkpt lat="44.68627" lon="4.84437">
        <ele>395</ele>
        <time>2021-07-10T08:10:06</time>
      </trkpt>
      <trkpt lat="44.68627" lon="4.84437">
        <ele>394.8</ele>
        <time>2021-07-10T08:10:07</time>
      </trkpt>
      <trkpt lat="44.68623" lon="4.84432">
        <ele>394.6</ele>
        <time>2021-07-10T08:10:08</time>
      </trkpt>
      <trkpt lat="44.68619" lon="4.84429">
        <ele>394.6</ele>
        <time>2021-07-10T08:10:09</time>
      </trkpt>
      <trkpt lat="44.68615" lon="4.84424">
        <ele>394.4</ele>
        <time>2021-07-10T08:10:10</time>
      </trkpt>
      <trkpt lat="44.68611" lon="4.8442">
        <ele>394.2</ele>
        <time>2021-07-10T08:10:11</time>
      </trkpt>
      <trkpt lat="44.68606" lon="4.84416">
        <ele>394.2</ele>
        <time>2021-07-10T08:10:12</time>
      </trkpt>
      <trkpt lat="44.68602" lon="4.84413">
        <ele>394.2</ele>
        <time>2021-07-10T08:10:13</time>
      </trkpt>
      <trkpt lat="44.68598" lon="4.84409">
        <ele>394.2</ele>
        <time>2021-07-10T08:10:14</time>
      </trkpt>
      <trkpt lat="44.68595" lon="4.84406">
        <ele>394.2</ele>
        <time>2021-07-10T08:10:15</time>
      </trkpt>
      <trkpt lat="44.68592" lon="4.84404">
        <ele>394.4</ele>
        <time>2021-07-10T08:10:16</time>
      </trkpt>
      <trkpt lat="44.68587" lon="4.844">
        <ele>394.4</ele>
        <time>2021-07-10T08:10:17</time>
      </trkpt>
      <trkpt lat="44.68587" lon="4.844">
        <ele>394.6</ele>
        <time>2021-07-10T08:10:18</time>
      </trkpt>
      <trkpt lat="44.68584" lon="4.84399">
        <ele>395</ele>
        <time>2021-07-10T08:10:19</time>
      </trkpt>
      <trkpt lat="44.68582" lon="4.84397">
        <ele>395.2</ele>
        <time>2021-07-10T08:10:20</time>
      </trkpt>
      <trkpt lat="44.6858" lon="4.84395">
        <ele>395.4</ele>
        <time>2021-07-10T08:10:21</time>
      </trkpt>
      <trkpt lat="44.68577" lon="4.84393">
        <ele>395.4</ele>
        <time>2021-07-10T08:10:22</time>
      </trkpt>
      <trkpt lat="44.68574" lon="4.84391">
        <ele>395.4</ele>
        <time>2021-07-10T08:10:23</time>
      </trkpt>
      <trkpt lat="44.68571" lon="4.8439">
        <ele>395.4</ele>
        <time>2021-07-10T08:10:24</time>
      </trkpt>
      <trkpt lat="44.68568" lon="4.84388">
        <ele>395.4</ele>
        <time>2021-07-10T08:10:25</time>
      </trkpt>
      <trkpt lat="44.68562" lon="4.84386">
        <ele>395.4</ele>
        <time>2021-07-10T08:10:26</time>
      </trkpt>
      <trkpt lat="44.68562" lon="4.84386">
        <ele>395.6</ele>
        <time>2021-07-10T08:10:27</time>
      </trkpt>
      <trkpt lat="44.68559" lon="4.84385">
        <ele>395.6</ele>
        <time>2021-07-10T08:10:28</time>
      </trkpt>
      <trkpt lat="44.68557" lon="4.84385">
        <ele>395.8</ele>
        <time>2021-07-10T08:10:29</time>
      </trkpt>
      <trkpt lat="44.68555" lon="4.84385">
        <ele>396</ele>
        <time>2021-07-10T08:10:30</time>
      </trkpt>
      <trkpt lat="44.68553" lon="4.84385">
        <ele>396.2</ele>
        <time>2021-07-10T08:10:31</time>
      </trkpt>
      <trkpt lat="44.68551" lon="4.84385">
        <ele>396.4</ele>
        <time>2021-07-10T08:10:32</time>
      </trkpt>
      <trkpt lat="44.68549" lon="4.84385">
        <ele>396.6</ele>
        <time>2021-07-10T08:10:33</time>
      </trkpt>
      <trkpt lat="44.68547" lon="4.84385">
        <ele>396.8</ele>
        <time>2021-07-10T08:10:34</time>
      </trkpt>
      <trkpt lat="44.68546" lon="4.84386">
        <ele>396.8</ele>
        <time>2021-07-10T08:10:35</time>
      </trkpt>
      <trkpt lat="44.68544" lon="4.84386">
        <ele>397</ele>
        <time>2021-07-10T08:10:36</time>
      </trkpt>
      <trkpt lat="44.68542" lon="4.84386">
        <ele>397.2</ele>
        <time>2021-07-10T08:10:37</time>
      </trkpt>
      <trkpt lat="44.68542" lon="4.84386">
        <ele>397.4</ele>
        <time>2021-07-10T08:10:38</time>
      </trkpt>
      <trkpt lat="44.68541" lon="4.84386">
        <ele>397.6</ele>
        <time>2021-07-10T08:10:39</time>
      </trkpt>
      <trkpt lat="44.68539" lon="4.84387">
        <ele>397.8</ele>
        <time>2021-07-10T08:10:40</time>
      </trkpt>
      <trkpt lat="44.68538" lon="4.84388">
        <ele>397.8</ele>
        <time>2021-07-10T08:10:41</time>
      </trkpt>
      <trkpt lat="44.68538" lon="4.84387">
        <ele>398</ele>
        <time>2021-07-10T08:10:42</time>
      </trkpt>
      <trkpt lat="44.68536" lon="4.84386">
        <ele>398.2</ele>
        <time>2021-07-10T08:10:43</time>
      </trkpt>
      <trkpt lat="44.68534" lon="4.84386">
        <ele>398.2</ele>
        <time>2021-07-10T08:10:44</time>
      </trkpt>
      <trkpt lat="44.68533" lon="4.84385">
        <ele>398.4</ele>
        <time>2021-07-10T08:10:45</time>
      </trkpt>
      <trkpt lat="44.6853" lon="4.84386">
        <ele>398.4</ele>
        <time>2021-07-10T08:10:46</time>
      </trkpt>
      <trkpt lat="44.6853" lon="4.84386">
        <ele>398.4</ele>
        <time>2021-07-10T08:10:47</time>
      </trkpt>
      <trkpt lat="44.68528" lon="4.84386">
        <ele>398.6</ele>
        <time>2021-07-10T08:10:48</time>
      </trkpt>
      <trkpt lat="44.68528" lon="4.84387">
        <ele>398.8</ele>
        <time>2021-07-10T08:10:49</time>
      </trkpt>
      <trkpt lat="44.68527" lon="4.84388">
        <ele>399</ele>
        <time>2021-07-10T08:10:50</time>
      </trkpt>
      <trkpt lat="44.68523" lon="4.84387">
        <ele>399.2</ele>
        <time>2021-07-10T08:10:51</time>
      </trkpt>
      <trkpt lat="44.68523" lon="4.84387">
        <ele>399.4</ele>
        <time>2021-07-10T08:10:52</time>
      </trkpt>
      <trkpt lat="44.68521" lon="4.84388">
        <ele>399.6</ele>
        <time>2021-07-10T08:10:53</time>
      </trkpt>
      <trkpt lat="44.68518" lon="4.84386">
        <ele>399.8</ele>
        <time>2021-07-10T08:10:54</time>
      </trkpt>
      <trkpt lat="44.68518" lon="4.84386">
        <ele>400</ele>
        <time>2021-07-10T08:10:55</time>
      </trkpt>
      <trkpt lat="44.68515" lon="4.84387">
        <ele>400.2</ele>
        <time>2021-07-10T08:10:56</time>
      </trkpt>
      <trkpt lat="44.68513" lon="4.84389">
        <ele>400.4</ele>
        <time>2021-07-10T08:10:57</time>
      </trkpt>
      <trkpt lat="44.68513" lon="4.84389">
        <ele>400.6</ele>
        <time>2021-07-10T08:10:58</time>
      </trkpt>
      <trkpt lat="44.68508" lon="4.84388">
        <ele>400.8</ele>
        <time>2021-07-10T08:10:59</time>
      </trkpt>
      <trkpt lat="44.68508" lon="4.84388">
        <ele>401</ele>
        <time>2021-07-10T08:11:00</time>
      </trkpt>
      <trkpt lat="44.68508" lon="4.84387">
        <ele>401.4</ele>
        <time>2021-07-10T08:11:01</time>
      </trkpt>
      <trkpt lat="44.68507" lon="4.84389">
        <ele>401.6</ele>
        <time>2021-07-10T08:11:02</time>
      </trkpt>
      <trkpt lat="44.68505" lon="4.84389">
        <ele>401.8</ele>
        <time>2021-07-10T08:11:03</time>
      </trkpt>
      <trkpt lat="44.68504" lon="4.8439">
        <ele>402.2</ele>
        <time>2021-07-10T08:11:04</time>
      </trkpt>
      <trkpt lat="44.68502" lon="4.8439">
        <ele>402.4</ele>
        <time>2021-07-10T08:11:05</time>
      </trkpt>
      <trkpt lat="44.68501" lon="4.84392">
        <ele>402.6</ele>
        <time>2021-07-10T08:11:06</time>
      </trkpt>
      <trkpt lat="44.68501" lon="4.84392">
        <ele>403</ele>
        <time>2021-07-10T08:11:07</time>
      </trkpt>
      <trkpt lat="44.685" lon="4.84395">
        <ele>403.2</ele>
        <time>2021-07-10T08:11:08</time>
      </trkpt>
      <trkpt lat="44.685" lon="4.84395">
        <ele>403.4</ele>
        <time>2021-07-10T08:11:09</time>
      </trkpt>
      <trkpt lat="44.685" lon="4.84396">
        <ele>403.8</ele>
        <time>2021-07-10T08:11:10</time>
      </trkpt>
      <trkpt lat="44.68499" lon="4.84402">
        <ele>404.2</ele>
        <time>2021-07-10T08:11:11</time>
      </trkpt>
      <trkpt lat="44.685" lon="4.84399">
        <ele>404.6</ele>
        <time>2021-07-10T08:11:12</time>
      </trkpt>
      <trkpt lat="44.68497" lon="4.844">
        <ele>405</ele>
        <time>2021-07-10T08:11:13</time>
      </trkpt>
      <trkpt lat="44.68496" lon="4.84401">
        <ele>405.2</ele>
        <time>2021-07-10T08:11:14</time>
      </trkpt>
      <trkpt lat="44.68495" lon="4.84403">
        <ele>405.4</ele>
        <time>2021-07-10T08:11:15</time>
      </trkpt>
      <trkpt lat="44.68494" lon="4.84406">
        <ele>405.6</ele>
        <time>2021-07-10T08:11:16</time>
      </trkpt>
      <trkpt lat="44.68489" lon="4.84405">
        <ele>406</ele>
        <time>2021-07-10T08:11:17</time>
      </trkpt>
      <trkpt lat="44.68489" lon="4.84405">
        <ele>406.2</ele>
        <time>2021-07-10T08:11:18</time>
      </trkpt>
      <trkpt lat="44.68488" lon="4.84405">
        <ele>406.4</ele>
        <time>2021-07-10T08:11:19</time>
      </trkpt>
      <trkpt lat="44.68486" lon="4.84401">
        <ele>406.6</ele>
        <time>2021-07-10T08:11:20</time>
      </trkpt>
      <trkpt lat="44.68486" lon="4.84401">
        <ele>406.8</ele>
        <time>2021-07-10T08:11:21</time>
      </trkpt>
      <trkpt lat="44.68484" lon="4.84402">
        <ele>407</ele>
        <time>2021-07-10T08:11:22</time>
      </trkpt>
      <trkpt lat="44.68484" lon="4.84402">
        <ele>407.2</ele>
        <time>2021-07-10T08:11:23</time>
      </trkpt>
      <trkpt lat="44.6848" lon="4.84402">
        <ele>407.4</ele>
        <time>2021-07-10T08:11:24</time>
      </trkpt>
      <trkpt lat="44.68479" lon="4.844">
        <ele>407.4</ele>
        <time>2021-07-10T08:11:25</time>
      </trkpt>
      <trkpt lat="44.68479" lon="4.844">
        <ele>407.6</ele>
        <time>2021-07-10T08:11:26</time>
      </trkpt>
      <trkpt lat="44.68478" lon="4.84402">
        <ele>408</ele>
        <time>2021-07-10T08:11:27</time>
      </trkpt>
      <trkpt lat="44.68475" lon="4.84402">
        <ele>408.2</ele>
        <time>2021-07-10T08:11:28</time>
      </trkpt>
      <trkpt lat="44.68475" lon="4.84402">
        <ele>408.4</ele>
        <time>2021-07-10T08:11:29</time>
      </trkpt>
      <trkpt lat="44.68473" lon="4.84402">
        <ele>408.6</ele>
        <time>2021-07-10T08:11:30</time>
      </trkpt>
      <trkpt lat="44.68472" lon="4.84401">
        <ele>408.6</ele>
        <time>2021-07-10T08:11:31</time>
      </trkpt>
      <trkpt lat="44.68471" lon="4.84402">
        <ele>408.8</ele>
        <time>2021-07-10T08:11:32</time>
      </trkpt>
      <trkpt lat="44.68469" lon="4.84404">
        <ele>408.8</ele>
        <time>2021-07-10T08:11:33</time>
      </trkpt>
      <trkpt lat="44.68467" lon="4.84403">
        <ele>409</ele>
        <time>2021-07-10T08:11:34</time>
      </trkpt>
      <trkpt lat="44.68465" lon="4.84403">
        <ele>409.2</ele>
        <time>2021-07-10T08:11:35</time>
      </trkpt>
      <trkpt lat="44.68462" lon="4.84403">
        <ele>409.6</ele>
        <time>2021-07-10T08:11:36</time>
      </trkpt>
      <trkpt lat="44.68462" lon="4.84403">
        <ele>409.8</ele>
        <time>2021-07-10T08:11:37</time>
      </trkpt>
      <trkpt lat="44.68462" lon="4.84403">
        <ele>410.2</ele>
        <time>2021-07-10T08:11:38</time>
      </trkpt>
      <trkpt lat="44.6846" lon="4.84406">
        <ele>410.6</ele>
        <time>2021-07-10T08:11:39</time>
      </trkpt>
      <trkpt lat="44.6846" lon="4.84406">
        <ele>411</ele>
        <time>2021-07-10T08:11:40</time>
      </trkpt>
      <trkpt lat="44.68459" lon="4.84409">
        <ele>411.2</ele>
        <time>2021-07-10T08:11:41</time>
      </trkpt>
      <trkpt lat="44.68456" lon="4.84409">
        <ele>411.6</ele>
        <time>2021-07-10T08:11:42</time>
      </trkpt>
      <trkpt lat="44.68456" lon="4.84409">
        <ele>411.8</ele>
        <time>2021-07-10T08:11:43</time>
      </trkpt>
      <trkpt lat="44.68455" lon="4.8441">
        <ele>412.2</ele>
        <time>2021-07-10T08:11:44</time>
      </trkpt>
      <trkpt lat="44.68454" lon="4.84411">
        <ele>412.4</ele>
        <time>2021-07-10T08:11:45</time>
      </trkpt>
      <trkpt lat="44.68453" lon="4.8441">
        <ele>412.6</ele>
        <time>2021-07-10T08:11:46</time>
      </trkpt>
      <trkpt lat="44.68453" lon="4.8441">
        <ele>413</ele>
        <time>2021-07-10T08:11:47</time>
      </trkpt>
      <trkpt lat="44.68451" lon="4.84412">
        <ele>413.2</ele>
        <time>2021-07-10T08:11:48</time>
      </trkpt>
      <trkpt lat="44.68451" lon="4.84412">
        <ele>413.6</ele>
        <time>2021-07-10T08:11:49</time>
      </trkpt>
      <trkpt lat="44.6845" lon="4.84414">
        <ele>413.8</ele>
        <time>2021-07-10T08:11:50</time>
      </trkpt>
      <trkpt lat="44.68449" lon="4.84414">
        <ele>414</ele>
        <time>2021-07-10T08:11:51</time>
      </trkpt>
      <trkpt lat="44.68447" lon="4.84417">
        <ele>414.4</ele>
        <time>2021-07-10T08:11:52</time>
      </trkpt>
      <trkpt lat="44.68447" lon="4.84417">
        <ele>414.8</ele>
        <time>2021-07-10T08:11:53</time>
      </trkpt>
      <trkpt lat="44.68447" lon="4.84416">
        <ele>415</ele>
        <time>2021-07-10T08:11:54</time>
      </trkpt>
      <trkpt lat="44.68447" lon="4.84415">
        <ele>415.4</ele>
        <time>2021-07-10T08:11:55</time>
      </trkpt>
      <trkpt lat="44.68445" lon="4.84416">
        <ele>415.6</ele>
        <time>2021-07-10T08:11:56</time>
      </trkpt>
      <trkpt lat="44.68445" lon="4.84416">
        <ele>415.8</ele>
        <time>2021-07-10T08:11:57</time>
      </trkpt>
      <trkpt lat="44.68443" lon="4.84419">
        <ele>416</ele>
        <time>2021-07-10T08:11:58</time>
      </trkpt>
      <trkpt lat="44.68441" lon="4.84419">
        <ele>416.2</ele>
        <time>2021-07-10T08:11:59</time>
      </trkpt>
      <trkpt lat="44.68441" lon="4.84419">
        <ele>416.4</ele>
        <time>2021-07-10T08:12:00</time>
      </trkpt>
      <trkpt lat="44.68438" lon="4.84424">
        <ele>416.6</ele>
        <time>2021-07-10T08:12:01</time>
      </trkpt>
      <trkpt lat="44.68436" lon="4.84421">
        <ele>416.8</ele>
        <time>2021-07-10T08:12:02</time>
      </trkpt>
      <trkpt lat="44.68436" lon="4.84422">
        <ele>417.2</ele>
        <time>2021-07-10T08:12:03</time>
      </trkpt>
      <trkpt lat="44.68433" lon="4.84422">
        <ele>417.4</ele>
        <time>2021-07-10T08:12:04</time>
      </trkpt>
      <trkpt lat="44.68432" lon="4.84424">
        <ele>417.8</ele>
        <time>2021-07-10T08:12:05</time>
      </trkpt>
      <trkpt lat="44.68433" lon="4.84424">
        <ele>418</ele>
        <time>2021-07-10T08:12:06</time>
      </trkpt>
      <trkpt lat="44.68431" lon="4.84424">
        <ele>418.2</ele>
        <time>2021-07-10T08:12:07</time>
      </trkpt>
      <trkpt lat="44.68429" lon="4.84427">
        <ele>418.6</ele>
        <time>2021-07-10T08:12:08</time>
      </trkpt>
      <trkpt lat="44.68429" lon="4.84428">
        <ele>418.8</ele>
        <time>2021-07-10T08:12:09</time>
      </trkpt>
      <trkpt lat="44.68427" lon="4.84426">
        <ele>419.2</ele>
        <time>2021-07-10T08:12:10</time>
      </trkpt>
      <trkpt lat="44.68427" lon="4.84426">
        <ele>419.4</ele>
        <time>2021-07-10T08:12:11</time>
      </trkpt>
      <trkpt lat="44.68426" lon="4.84428">
        <ele>419.6</ele>
        <time>2021-07-10T08:12:12</time>
      </trkpt>
      <trkpt lat="44.68425" lon="4.84427">
        <ele>419.8</ele>
        <time>2021-07-10T08:12:13</time>
      </trkpt>
      <trkpt lat="44.68424" lon="4.84426">
        <ele>420.2</ele>
        <time>2021-07-10T08:12:14</time>
      </trkpt>
      <trkpt lat="44.68423" lon="4.84427">
        <ele>420.4</ele>
        <time>2021-07-10T08:12:15</time>
      </trkpt>
      <trkpt lat="44.68421" lon="4.84425">
        <ele>420.6</ele>
        <time>2021-07-10T08:12:16</time>
      </trkpt>
      <trkpt lat="44.68418" lon="4.84426">
        <ele>421</ele>
        <time>2021-07-10T08:12:17</time>
      </trkpt>
      <trkpt lat="44.68418" lon="4.84426">
        <ele>421.2</ele>
        <time>2021-07-10T08:12:18</time>
      </trkpt>
      <trkpt lat="44.68417" lon="4.84428">
        <ele>421.4</ele>
        <time>2021-07-10T08:12:19</time>
      </trkpt>
      <trkpt lat="44.68416" lon="4.84424">
        <ele>421.4</ele>
        <time>2021-07-10T08:12:20</time>
      </trkpt>
      <trkpt lat="44.68415" lon="4.84423">
        <ele>421.4</ele>
        <time>2021-07-10T08:12:21</time>
      </trkpt>
      <trkpt lat="44.68409" lon="4.8443">
        <ele>421.4</ele>
        <time>2021-07-10T08:12:22</time>
      </trkpt>
      <trkpt lat="44.68409" lon="4.8443">
        <ele>421.6</ele>
        <time>2021-07-10T08:12:23</time>
      </trkpt>
      <trkpt lat="44.68408" lon="4.84433">
        <ele>421.8</ele>
        <time>2021-07-10T08:12:24</time>
      </trkpt>
      <trkpt lat="44.68407" lon="4.84435">
        <ele>422</ele>
        <time>2021-07-10T08:12:25</time>
      </trkpt>
      <trkpt lat="44.68407" lon="4.84435">
        <ele>422.2</ele>
        <time>2021-07-10T08:12:26</time>
      </trkpt>
      <trkpt lat="44.68406" lon="4.84437">
        <ele>422.4</ele>
        <time>2021-07-10T08:12:27</time>
      </trkpt>
      <trkpt lat="44.68408" lon="4.84437">
        <ele>422.6</ele>
        <time>2021-07-10T08:12:28</time>
      </trkpt>
      <trkpt lat="44.68408" lon="4.84437">
        <ele>422.6</ele>
        <time>2021-07-10T08:12:29</time>
      </trkpt>
      <trkpt lat="44.68407" lon="4.8444">
        <ele>422.8</ele>
        <time>2021-07-10T08:12:30</time>
      </trkpt>
      <trkpt lat="44.68408" lon="4.84443">
        <ele>423</ele>
        <time>2021-07-10T08:12:31</time>
      </trkpt>
      <trkpt lat="44.68406" lon="4.84449">
        <ele>423.2</ele>
        <time>2021-07-10T08:12:32</time>
      </trkpt>
      <trkpt lat="44.68406" lon="4.84449">
        <ele>423.4</ele>
        <time>2021-07-10T08:12:33</time>
      </trkpt>
      <trkpt lat="44.68406" lon="4.84453">
        <ele>423.6</ele>
        <time>2021-07-10T08:12:34</time>
      </trkpt>
      <trkpt lat="44.68406" lon="4.84455">
        <ele>423.8</ele>
        <time>2021-07-10T08:12:35</time>
      </trkpt>
      <trkpt lat="44.68408" lon="4.84455">
        <ele>424</ele>
        <time>2021-07-10T08:12:36</time>
      </trkpt>
      <trkpt lat="44.68409" lon="4.84457">
        <ele>424.2</ele>
        <time>2021-07-10T08:12:37</time>
      </trkpt>
      <trkpt lat="44.68409" lon="4.84458">
        <ele>424.4</ele>
        <time>2021-07-10T08:12:38</time>
      </trkpt>
      <trkpt lat="44.68411" lon="4.84461">
        <ele>424.6</ele>
        <time>2021-07-10T08:12:39</time>
      </trkpt>
      <trkpt lat="44.68411" lon="4.84461">
        <ele>424.6</ele>
        <time>2021-07-10T08:12:40</time>
      </trkpt>
      <trkpt lat="44.68412" lon="4.84463">
        <ele>424.8</ele>
        <time>2021-07-10T08:12:41</time>
      </trkpt>
      <trkpt lat="44.68412" lon="4.84463">
        <ele>425</ele>
        <time>2021-07-10T08:12:42</time>
      </trkpt>
      <trkpt lat="-65535" lon="-65535">
        <ele>425.2</ele>
        <time>2021-07-10T08:12:43</time>
      </trkpt>
      <trkpt lat="-65535" lon="-65535">
        <ele>425.2</ele>
        <time>2021-07-10T08:12:44</time>
      </trkpt>
      <trkpt lat="-65535" lon="-65535">
        <ele>425.4</ele>
        <time>2021-07-10T08:12:45</time>
      </trkpt>
      <trkpt lat="-65535" lon="-65535">
        <ele>425.6</ele>
        <time>2021-07-10T08:12:46</time>
      </trkpt>
      <trkpt lat="-65535" lon="-65535">
        <ele>425.6</ele>
        <time>2021-07-10T08:12:47</time>
      </trkpt>
      <trkpt lat="44.68417" lon="4.84475">
        <ele>425.8</ele>
        <time>2021-07-10T08:12:48</time>
      </trkpt>
      <trkpt lat="44.68418" lon="4.8448">
        <ele>426</ele>
        <time>2021-07-10T08:12:49</time>
      </trkpt>
      <trkpt lat="44.68421" lon="4.84483">
        <ele>426.2</ele>
        <time>2021-07-10T08:12:50</time>
      </trkpt>
      <trkpt lat="44.68421" lon="4.84483">
        <ele>426.2</ele>
        <time>2021-07-10T08:12:51</time>
      </trkpt>
      <trkpt lat="44.68423" lon="4.84487">
        <ele>426.4</ele>
        <time>2021-07-10T08:12:52</time>
      </trkpt>
      <trkpt lat="44.68423" lon="4.84487">
        <ele>426.6</ele>
        <time>2021-07-10T08:12:53</time>
      </trkpt>
      <trkpt lat="44.68423" lon="4.84488">
        <ele>426.6</ele>
        <time>2021-07-10T08:12:54</time>
      </trkpt>
      <trkpt lat="44.68424" lon="4.84491">
        <ele>426.8</ele>
        <time>2021-07-10T08:12:55</time>
      </trkpt>
      <trkpt lat="44.68425" lon="4.84494">
        <ele>427</ele>
        <time>2021-07-10T08:12:56</time>
      </trkpt>
      <trkpt lat="44.68425" lon="4.84497">
        <ele>427</ele>
        <time>2021-07-10T08:12:57</time>
      </trkpt>
      <trkpt lat="44.68426" lon="4.84499">
        <ele>427.2</ele>
        <time>2021-07-10T08:12:58</time>
      </trkpt>
      <trkpt lat="44.68426" lon="4.84499">
        <ele>427.4</ele>
        <time>2021-07-10T08:12:59</time>
      </trkpt>
      <trkpt lat="44.68426" lon="4.84499">
        <ele>427.6</ele>
        <time>2021-07-10T08:13:00</time>
      </trkpt>
      <trkpt lat="44.68426" lon="4.84502">
        <ele>427.8</ele>
        <time>2021-07-10T08:13:01</time>
      </trkpt>
      <trkpt lat="44.68426" lon="4.84502">
        <ele>428</ele>
        <time>2021-07-10T08:13:02</time>
      </trkpt>
      <trkpt lat="44.68425" lon="4.84506">
        <ele>428.2</ele>
        <time>2021-07-10T08:13:03</time>
      </trkpt>
      <trkpt lat="44.68424" lon="4.84508">
        <ele>428.4</ele>
        <time>2021-07-10T08:13:04</time>
      </trkpt>
      <trkpt lat="44.68426" lon="4.84508">
        <ele>428.6</ele>
        <time>2021-07-10T08:13:05</time>
      </trkpt>
      <trkpt lat="44.68429" lon="4.84508">
        <ele>428.8</ele>
        <time>2021-07-10T08:13:06</time>
      </trkpt>
      <trkpt lat="44.68431" lon="4.84511">
        <ele>428.8</ele>
        <time>2021-07-10T08:13:07</time>
      </trkpt>
      <trkpt lat="44.6843" lon="4.84516">
        <ele>429</ele>
        <time>2021-07-10T08:13:08</time>
      </trkpt>
      <trkpt lat="44.6843" lon="4.84516">
        <ele>429</ele>
        <time>2021-07-10T08:13:09</time>
      </trkpt>
      <trkpt lat="44.68433" lon="4.8452">
        <ele>429.2</ele>
        <time>2021-07-10T08:13:10</time>
      </trkpt>
      <trkpt lat="44.68433" lon="4.8452">
        <ele>429.4</ele>
        <time>2021-07-10T08:13:11</time>
      </trkpt>
      <trkpt lat="44.68433" lon="4.84524">
        <ele>429.6</ele>
        <time>2021-07-10T08:13:12</time>
      </trkpt>
      <trkpt lat="44.68435" lon="4.84532">
        <ele>429.8</ele>
        <time>2021-07-10T08:13:13</time>
      </trkpt>
      <trkpt lat="44.68435" lon="4.84532">
        <ele>430</ele>
        <time>2021-07-10T08:13:14</time>
      </trkpt>
      <trkpt lat="44.68437" lon="4.84534">
        <ele>430</ele>
        <time>2021-07-10T08:13:15</time>
      </trkpt>
      <trkpt lat="44.68436" lon="4.84536">
        <ele>430.2</ele>
        <time>2021-07-10T08:13:16</time>
      </trkpt>
      <trkpt lat="44.68436" lon="4.84539">
        <ele>430.4</ele>
        <time>2021-07-10T08:13:17</time>
      </trkpt>
      <trkpt lat="44.68435" lon="4.84538">
        <ele>430.4</ele>
        <time>2021-07-10T08:13:18</time>
      </trkpt>
      <trkpt lat="44.68435" lon="4.84539">
        <ele>430.6</ele>
        <time>2021-07-10T08:13:19</time>
      </trkpt>
      <trkpt lat="44.68434" lon="4.84541">
        <ele>430.8</ele>
        <time>2021-07-10T08:13:20</time>
      </trkpt>
      <trkpt lat="44.68434" lon="4.84541">
        <ele>430.8</ele>
        <time>2021-07-10T08:13:21</time>
      </trkpt>
      <trkpt lat="44.68432" lon="4.84542">
        <ele>431</ele>
        <time>2021-07-10T08:13:22</time>
      </trkpt>
      <trkpt lat="44.68428" lon="4.84546">
        <ele>431</ele>
        <time>2021-07-10T08:13:23</time>
      </trkpt>
      <trkpt lat="44.68428" lon="4.84546">
        <ele>431.2</ele>
        <time>2021-07-10T08:13:24</time>
      </trkpt>
      <trkpt lat="44.68426" lon="4.84547">
        <ele>431.4</ele>
        <time>2021-07-10T08:13:25</time>
      </trkpt>
      <trkpt lat="44.68424" lon="4.84548">
        <ele>431.6</ele>
        <time>2021-07-10T08:13:26</time>
      </trkpt>
      <trkpt lat="44.68424" lon="4.84548">
        <ele>431.8</ele>
        <time>2021-07-10T08:13:27</time>
      </trkpt>
      <trkpt lat="44.68422" lon="4.84549">
        <ele>431.8</ele>
        <time>2021-07-10T08:13:28</time>
      </trkpt>
      <trkpt lat="44.68422" lon="4.8455">
        <ele>431.8</ele>
        <time>2021-07-10T08:13:29</time>
      </trkpt>
      <trkpt lat="44.6842" lon="4.8455">
        <ele>431.8</ele>
        <time>2021-07-10T08:13:30</time>
      </trkpt>
      <trkpt lat="44.6842" lon="4.84551">
        <ele>432</ele>
        <time>2021-07-10T08:13:31</time>
      </trkpt>
      <trkpt lat="44.68418" lon="4.84549">
        <ele>432</ele>
        <time>2021-07-10T08:13:32</time>
      </trkpt>
      <trkpt lat="44.68418" lon="4.84549">
        <ele>432</ele>
        <time>2021-07-10T08:13:33</time>
      </trkpt>
      <trkpt lat="44.68418" lon="4.84551">
        <ele>432.2</ele>
        <time>2021-07-10T08:13:34</time>
      </trkpt>
      <trkpt lat="44.68418" lon="4.84551">
        <ele>432.2</ele>
        <time>2021-07-10T08:13:35</time>
      </trkpt>
      <trkpt lat="44.68418" lon="4.84554">
        <ele>432.2</ele>
        <time>2021-07-10T08:13:36</time>
      </trkpt>
      <trkpt lat="44.68417" lon="4.84556">
        <ele>432.2</ele>
        <time>2021-07-10T08:13:37</time>
      </trkpt>
      <trkpt lat="44.68416" lon="4.84559">
        <ele>432.2</ele>
        <time>2021-07-10T08:13:38</time>
      </trkpt>
      <trkpt lat="44.68416" lon="4.84559">
        <ele>432.2</ele>
        <time>2021-07-10T08:13:39</time>
      </trkpt>
      <trkpt lat="44.68415" lon="4.8456">
        <ele>432.2</ele>
        <time>2021-07-10T08:13:40</time>
      </trkpt>
      <trkpt lat="44.68413" lon="4.84564">
        <ele>432.2</ele>
        <time>2021-07-10T08:13:41</time>
      </trkpt>
      <trkpt lat="44.68413" lon="4.84564">
        <ele>432.4</ele>
        <time>2021-07-10T08:13:42</time>
      </trkpt>
      <trkpt lat="44.68412" lon="4.84564">
        <ele>432.4</ele>
        <time>2021-07-10T08:13:43</time>
      </trkpt>
      <trkpt lat="44.6841" lon="4.84568">
        <ele>432.6</ele>
        <time>2021-07-10T08:13:44</time>
      </trkpt>
      <trkpt lat="44.6841" lon="4.84571">
        <ele>432.8</ele>
        <time>2021-07-10T08:13:45</time>
      </trkpt>
      <trkpt lat="44.6841" lon="4.84571">
        <ele>432.8</ele>
        <time>2021-07-10T08:13:46</time>
      </trkpt>
      <trkpt lat="44.68408" lon="4.84573">
        <ele>433</ele>
        <time>2021-07-10T08:13:47</time>
      </trkpt>
      <trkpt lat="44.68406" lon="4.84574">
        <ele>433</ele>
        <time>2021-07-10T08:13:48</time>
      </trkpt>
      <trkpt lat="44.68406" lon="4.84574">
        <ele>433</ele>
        <time>2021-07-10T08:13:49</time>
      </trkpt>
      <trkpt lat="44.68405" lon="4.84575">
        <ele>433.2</ele>
        <time>2021-07-10T08:13:50</time>
      </trkpt>
      <trkpt lat="44.68405" lon="4.84575">
        <ele>433.2</ele>
        <time>2021-07-10T08:13:51</time>
      </trkpt>
      <trkpt lat="44.68403" lon="4.84574">
        <ele>433.2</ele>
        <time>2021-07-10T08:13:52</time>
      </trkpt>
      <trkpt lat="44.68403" lon="4.84574">
        <ele>433.4</ele>
        <time>2021-07-10T08:13:53</time>
      </trkpt>
      <trkpt lat="44.684" lon="4.84577">
        <ele>433.4</ele>
        <time>2021-07-10T08:13:54</time>
      </trkpt>
      <trkpt lat="44.684" lon="4.84575">
        <ele>433.6</ele>
        <time>2021-07-10T08:13:55</time>
      </trkpt>
      <trkpt lat="44.684" lon="4.84575">
        <ele>433.8</ele>
        <time>2021-07-10T08:13:56</time>
      </trkpt>
      <trkpt lat="44.68399" lon="4.84577">
        <ele>434</ele>
        <time>2021-07-10T08:13:57</time>
      </trkpt>
      <trkpt lat="44.68398" lon="4.84577">
        <ele>434</ele>
        <time>2021-07-10T08:13:58</time>
      </trkpt>
      <trkpt lat="44.68398" lon="4.84579">
        <ele>434</ele>
        <time>2021-07-10T08:13:59</time>
      </trkpt>
      <trkpt lat="44.68398" lon="4.84581">
        <ele>434</ele>
        <time>2021-07-10T08:14:00</time>
      </trkpt>
      <trkpt lat="44.68396" lon="4.84579">
        <ele>434</ele>
        <time>2021-07-10T08:14:01</time>
      </trkpt>
      <trkpt lat="44.68396" lon="4.84579">
        <ele>434</ele>
        <time>2021-07-10T08:14:02</time>
      </trkpt>
      <trkpt lat="44.68396" lon="4.84582">
        <ele>434.2</ele>
        <time>2021-07-10T08:14:03</time>
      </trkpt>
      <trkpt lat="44.68387" lon="4.84584">
        <ele>435</ele>
        <time>2021-07-10T08:14:10</time>
      </trkpt>
      <trkpt lat="44.68385" lon="4.84586">
        <ele>435.2</ele>
        <time>2021-07-10T08:14:11</time>
      </trkpt>
      <trkpt lat="44.68385" lon="4.84586">
        <ele>435.4</ele>
        <time>2021-07-10T08:14:12</time>
      </trkpt>
      <trkpt lat="44.68381" lon="4.84593">
        <ele>435.6</ele>
        <time>2021-07-10T08:14:13</time>
      </trkpt>
      <trkpt lat="44.68381" lon="4.84593">
        <ele>435.8</ele>
        <time>2021-07-10T08:14:14</time>
      </trkpt>
      <trkpt lat="44.68381" lon="4.84596">
        <ele>436</ele>
        <time>2021-07-10T08:14:15</time>
      </trkpt>
      <trkpt lat="44.6838" lon="4.84596">
        <ele>436.2</ele>
        <time>2021-07-10T08:14:16</time>
      </trkpt>
      <trkpt lat="44.6838" lon="4.84596">
        <ele>436.4</ele>
        <time>2021-07-10T08:14:17</time>
      </trkpt>
      <trkpt lat="44.68378" lon="4.84595">
        <ele>436.6</ele>
        <time>2021-07-10T08:14:18</time>
      </trkpt>
      <trkpt lat="44.68376" lon="4.84597">
        <ele>436.8</ele>
        <time>2021-07-10T08:14:19</time>
      </trkpt>
      <trkpt lat="44.68375" lon="4.84597">
        <ele>437</ele>
        <time>2021-07-10T08:14:20</time>
      </trkpt>
      <trkpt lat="44.68372" lon="4.84598">
        <ele>437.2</ele>
        <time>2021-07-10T08:14:21</time>
      </trkpt>
      <trkpt lat="44.68372" lon="4.84595">
        <ele>437.4</ele>
        <time>2021-07-10T08:14:22</time>
      </trkpt>
      <trkpt lat="44.6837" lon="4.84594">
        <ele>437.6</ele>
        <time>2021-07-10T08:14:23</time>
      </trkpt>
      <trkpt lat="44.6837" lon="4.84598">
        <ele>438</ele>
        <time>2021-07-10T08:14:24</time>
      </trkpt>
      <trkpt lat="44.6837" lon="4.84598">
        <ele>438.2</ele>
        <time>2021-07-10T08:14:25</time>
      </trkpt>
      <trkpt lat="44.68367" lon="4.84601">
        <ele>438.6</ele>
        <time>2021-07-10T08:14:26</time>
      </trkpt>
      <trkpt lat="44.68365" lon="4.84602">
        <ele>438.8</ele>
        <time>2021-07-10T08:14:27</time>
      </trkpt>
      <trkpt lat="44.68363" lon="4.84604">
        <ele>439</ele>
        <time>2021-07-10T08:14:28</time>
      </trkpt>
      <trkpt lat="44.68362" lon="4.84607">
        <ele>439.2</ele>
        <time>2021-07-10T08:14:29</time>
      </trkpt>
      <trkpt lat="44.68362" lon="4.84607">
        <ele>439.4</ele>
        <time>2021-07-10T08:14:30</time>
      </trkpt>
      <trkpt lat="44.68361" lon="4.84607">
        <ele>439.6</ele>
        <time>2021-07-10T08:14:31</time>
      </trkpt>
      <trkpt lat="44.68358" lon="4.84608">
        <ele>439.8</ele>
        <time>2021-07-10T08:14:32</time>
      </trkpt>
      <trkpt lat="44.68356" lon="4.84608">
        <ele>440</ele>
        <time>2021-07-10T08:14:33</time>
      </trkpt>
      <trkpt lat="44.68356" lon="4.84609">
        <ele>440.2</ele>
        <time>2021-07-10T08:14:34</time>
      </trkpt>
      <trkpt lat="44.68355" lon="4.84609">
        <ele>440.6</ele>
        <time>2021-07-10T08:14:35</time>
      </trkpt>
      <trkpt lat="44.68353" lon="4.84609">
        <ele>440.8</ele>
        <time>2021-07-10T08:14:36</time>
      </trkpt>
      <trkpt lat="44.6835" lon="4.84606">
        <ele>441</ele>
        <time>2021-07-10T08:14:37</time>
      </trkpt>
      <trkpt lat="44.6835" lon="4.84606">
        <ele>441.2</ele>
        <time>2021-07-10T08:14:38</time>
      </trkpt>
      <trkpt lat="44.68347" lon="4.84604">
        <ele>441.4</ele>
        <time>2021-07-10T08:14:39</time>
      </trkpt>
      <trkpt lat="44.68347" lon="4.84604">
        <ele>441.6</ele>
        <time>2021-07-10T08:14:40</time>
      </trkpt>
      <trkpt lat="44.68346" lon="4.84604">
        <ele>441.8</ele>
        <time>2021-07-10T08:14:41</time>
      </trkpt>
      <trkpt lat="44.68345" lon="4.84604">
        <ele>442</ele>
        <time>2021-07-10T08:14:42</time>
      </trkpt>
      <trkpt lat="44.68344" lon="4.84603">
        <ele>442</ele>
        <time>2021-07-10T08:14:43</time>
      </trkpt>
      <trkpt lat="44.68344" lon="4.84603">
        <ele>442.2</ele>
        <time>2021-07-10T08:14:44</time>
      </trkpt>
      <trkpt lat="44.68344" lon="4.84603">
        <ele>442.4</ele>
        <time>2021-07-10T08:14:45</time>
      </trkpt>
      <trkpt lat="44.68343" lon="4.84602">
        <ele>442.8</ele>
        <time>2021-07-10T08:14:46</time>
      </trkpt>
      <trkpt lat="44.68341" lon="4.84603">
        <ele>443</ele>
        <time>2021-07-10T08:14:47</time>
      </trkpt>
      <trkpt lat="44.6834" lon="4.84605">
        <ele>443.4</ele>
        <time>2021-07-10T08:14:48</time>
      </trkpt>
      <trkpt lat="44.6834" lon="4.84605">
        <ele>443.6</ele>
        <time>2021-07-10T08:14:49</time>
      </trkpt>
      <trkpt lat="44.68336" lon="4.84604">
        <ele>443.8</ele>
        <time>2021-07-10T08:14:50</time>
      </trkpt>
      <trkpt lat="44.68336" lon="4.84604">
        <ele>444</ele>
        <time>2021-07-10T08:14:51</time>
      </trkpt>
      <trkpt lat="44.68335" lon="4.84605">
        <ele>444.2</ele>
        <time>2021-07-10T08:14:52</time>
      </trkpt>
      <trkpt lat="44.68332" lon="4.84607">
        <ele>444.4</ele>
        <time>2021-07-10T08:14:53</time>
      </trkpt>
      <trkpt lat="44.68333" lon="4.84606">
        <ele>444.6</ele>
        <time>2021-07-10T08:14:54</time>
      </trkpt>
      <trkpt lat="44.68332" lon="4.84604">
        <ele>444.6</ele>
        <time>2021-07-10T08:14:55</time>
      </trkpt>
      <trkpt lat="44.68329" lon="4.84605">
        <ele>444.8</ele>
        <time>2021-07-10T08:14:56</time>
      </trkpt>
      <trkpt lat="44.68329" lon="4.84605">
        <ele>444.8</ele>
        <time>2021-07-10T08:14:57</time>
      </trkpt>
      <trkpt lat="44.68329" lon="4.84604">
        <ele>445</ele>
        <time>2021-07-10T08:14:58</time>
      </trkpt>
      <trkpt lat="44.68327" lon="4.84605">
        <ele>445.2</ele>
        <time>2021-07-10T08:14:59</time>
      </trkpt>
      <trkpt lat="44.68327" lon="4.84605">
        <ele>445.4</ele>
        <time>2021-07-10T08:15:00</time>
      </trkpt>
      <trkpt lat="44.68325" lon="4.84607">
        <ele>445.6</ele>
        <time>2021-07-10T08:15:01</time>
      </trkpt>
      <trkpt lat="44.68322" lon="4.84606">
        <ele>445.6</ele>
        <time>2021-07-10T08:15:02</time>
      </trkpt>
      <trkpt lat="44.68319" lon="4.84607">
        <ele>445.8</ele>
        <time>2021-07-10T08:15:03</time>
      </trkpt>
      <trkpt lat="44.68319" lon="4.84607">
        <ele>446</ele>
        <time>2021-07-10T08:15:04</time>
      </trkpt>
      <trkpt lat="44.68316" lon="4.84608">
        <ele>446.2</ele>
        <time>2021-07-10T08:15:05</time>
      </trkpt>
      <trkpt lat="44.68316" lon="4.84608">
        <ele>446.6</ele>
        <time>2021-07-10T08:15:06</time>
      </trkpt>
      <trkpt lat="44.68314" lon="4.84608">
        <ele>446.8</ele>
        <time>2021-07-10T08:15:07</time>
      </trkpt>
      <trkpt lat="44.68314" lon="4.84608">
        <ele>447</ele>
        <time>2021-07-10T08:15:08</time>
      </trkpt>
      <trkpt lat="44.68311" lon="4.84609">
        <ele>447.2</ele>
        <time>2021-07-10T08:15:09</time>
      </trkpt>
      <trkpt lat="44.68309" lon="4.84612">
        <ele>447.4</ele>
        <time>2021-07-10T08:15:10</time>
      </trkpt>
      <trkpt lat="44.68309" lon="4.84612">
        <ele>447.6</ele>
        <time>2021-07-10T08:15:11</time>
      </trkpt>
      <trkpt lat="44.68306" lon="4.84613">
        <ele>447.8</ele>
        <time>2021-07-10T08:15:12</time>
      </trkpt>
      <trkpt lat="44.68305" lon="4.84613">
        <ele>448</ele>
        <time>2021-07-10T08:15:13</time>
      </trkpt>
      <trkpt lat="44.68303" lon="4.84611">
        <ele>448.2</ele>
        <time>2021-07-10T08:15:14</time>
      </trkpt>
      <trkpt lat="44.68303" lon="4.84611">
        <ele>448.4</ele>
        <time>2021-07-10T08:15:15</time>
      </trkpt>
      <trkpt lat="44.683" lon="4.84613">
        <ele>448.8</ele>
        <time>2021-07-10T08:15:16</time>
      </trkpt>
      <trkpt lat="44.683" lon="4.84613">
        <ele>449</ele>
        <time>2021-07-10T08:15:17</time>
      </trkpt>
      <trkpt lat="44.68298" lon="4.84614">
        <ele>449.2</ele>
        <time>2021-07-10T08:15:18</time>
      </trkpt>
      <trkpt lat="44.68298" lon="4.84613">
        <ele>449.4</ele>
        <time>2021-07-10T08:15:19</time>
      </trkpt>
      <trkpt lat="44.68298" lon="4.84614">
        <ele>449.6</ele>
        <time>2021-07-10T08:15:20</time>
      </trkpt>
      <trkpt lat="44.68297" lon="4.84614">
        <ele>449.8</ele>
        <time>2021-07-10T08:15:21</time>
      </trkpt>
      <trkpt lat="44.68296" lon="4.84616">
        <ele>449.8</ele>
        <time>2021-07-10T08:15:22</time>
      </trkpt>
      <trkpt lat="44.68295" lon="4.84615">
        <ele>449.6</ele>
        <time>2021-07-10T08:15:23</time>
      </trkpt>
      <trkpt lat="44.68293" lon="4.84616">
        <ele>449.8</ele>
        <time>2021-07-10T08:15:24</time>
      </trkpt>
      <trkpt lat="44.6829" lon="4.84613">
        <ele>449.2</ele>
        <time>2021-07-10T08:15:25</time>
      </trkpt>
      <trkpt lat="44.6829" lon="4.84613">
        <ele>449.8</ele>
        <time>2021-07-10T08:15:26</time>
      </trkpt>
      <trkpt lat="44.68287" lon="4.84615">
        <ele>450.6</ele>
        <time>2021-07-10T08:15:27</time>
      </trkpt>
      <trkpt lat="44.68287" lon="4.84615">
        <ele>451.4</ele>
        <time>2021-07-10T08:15:28</time>
      </trkpt>
      <trkpt lat="44.68287" lon="4.84612">
        <ele>451.6</ele>
        <time>2021-07-10T08:15:29</time>
      </trkpt>
      <trkpt lat="44.68282" lon="4.84612">
        <ele>451.8</ele>
        <time>2021-07-10T08:15:30</time>
      </trkpt>
      <trkpt lat="44.68282" lon="4.84612">
        <ele>451.6</ele>
        <time>2021-07-10T08:15:31</time>
      </trkpt>
      <trkpt lat="44.68281" lon="4.84613">
        <ele>451.6</ele>
        <time>2021-07-10T08:15:32</time>
      </trkpt>
      <trkpt lat="44.6828" lon="4.84614">
        <ele>451.4</ele>
        <time>2021-07-10T08:15:33</time>
      </trkpt>
      <trkpt lat="44.68279" lon="4.84614">
        <ele>451.2</ele>
        <time>2021-07-10T08:15:34</time>
      </trkpt>
      <trkpt lat="44.68278" lon="4.84613">
        <ele>451.2</ele>
        <time>2021-07-10T08:15:35</time>
      </trkpt>
      <trkpt lat="44.68275" lon="4.84614">
        <ele>451</ele>
        <time>2021-07-10T08:15:36</time>
      </trkpt>
      <trkpt lat="44.68275" lon="4.84614">
        <ele>451</ele>
        <time>2021-07-10T08:15:37</time>
      </trkpt>
      <trkpt lat="44.68273" lon="4.84615">
        <ele>451</ele>
        <time>2021-07-10T08:15:38</time>
      </trkpt>
      <trkpt lat="44.68272" lon="4.84616">
        <ele>451</ele>
        <time>2021-07-10T08:15:39</time>
      </trkpt>
      <trkpt lat="44.68272" lon="4.84616">
        <ele>451</ele>
        <time>2021-07-10T08:15:40</time>
      </trkpt>
      <trkpt lat="44.6827" lon="4.84616">
        <ele>451.2</ele>
        <time>2021-07-10T08:15:41</time>
      </trkpt>
      <trkpt lat="44.68268" lon="4.84615">
        <ele>451.4</ele>
        <time>2021-07-10T08:15:42</time>
      </trkpt>
      <trkpt lat="44.68268" lon="4.84615">
        <ele>451.6</ele>
        <time>2021-07-10T08:15:43</time>
      </trkpt>
      <trkpt lat="44.68267" lon="4.84616">
        <ele>451.6</ele>
        <time>2021-07-10T08:15:44</time>
      </trkpt>
      <trkpt lat="44.68265" lon="4.84615">
        <ele>451.8</ele>
        <time>2021-07-10T08:15:45</time>
      </trkpt>
      <trkpt lat="44.68264" lon="4.84613">
        <ele>451.8</ele>
        <time>2021-07-10T08:15:46</time>
      </trkpt>
      <trkpt lat="44.68264" lon="4.84613">
        <ele>451.8</ele>
        <time>2021-07-10T08:15:47</time>
      </trkpt>
      <trkpt lat="44.68257" lon="4.84617">
        <ele>451.8</ele>
        <time>2021-07-10T08:15:48</time>
      </trkpt>
      <trkpt lat="44.68257" lon="4.84617">
        <ele>451.8</ele>
        <time>2021-07-10T08:15:49</time>
      </trkpt>
      <trkpt lat="44.68254" lon="4.84617">
        <ele>451.8</ele>
        <time>2021-07-10T08:15:50</time>
      </trkpt>
      <trkpt lat="44.68253" lon="4.84617">
        <ele>451.8</ele>
        <time>2021-07-10T08:15:51</time>
      </trkpt>
      <trkpt lat="44.6825" lon="4.84618">
        <ele>451.8</ele>
        <time>2021-07-10T08:15:52</time>
      </trkpt>
      <trkpt lat="44.68249" lon="4.84617">
        <ele>452</ele>
        <time>2021-07-10T08:15:53</time>
      </trkpt>
      <trkpt lat="44.68243" lon="4.84618">
        <ele>452</ele>
        <time>2021-07-10T08:15:54</time>
      </trkpt>
      <trkpt lat="44.68243" lon="4.84618">
        <ele>452</ele>
        <time>2021-07-10T08:15:55</time>
      </trkpt>
      <trkpt lat="44.68244" lon="4.84619">
        <ele>451.8</ele>
        <time>2021-07-10T08:15:56</time>
      </trkpt>
      <trkpt lat="44.68242" lon="4.8462">
        <ele>451.8</ele>
        <time>2021-07-10T08:15:57</time>
      </trkpt>
      <trkpt lat="44.68239" lon="4.84618">
        <ele>451.8</ele>
        <time>2021-07-10T08:15:58</time>
      </trkpt>
      <trkpt lat="44.68235" lon="4.84619">
        <ele>451.8</ele>
        <time>2021-07-10T08:15:59</time>
      </trkpt>
      <trkpt lat="44.68235" lon="4.84619">
        <ele>451.8</ele>
        <time>2021-07-10T08:16:00</time>
      </trkpt>
      <trkpt lat="44.6823" lon="4.84619">
        <ele>451.6</ele>
        <time>2021-07-10T08:16:01</time>
      </trkpt>
      <trkpt lat="44.68228" lon="4.84619">
        <ele>451.6</ele>
        <time>2021-07-10T08:16:02</time>
      </trkpt>
      <trkpt lat="44.68226" lon="4.84621">
        <ele>451.6</ele>
        <time>2021-07-10T08:16:03</time>
      </trkpt>
      <trkpt lat="44.68225" lon="4.84621">
        <ele>451.6</ele>
        <time>2021-07-10T08:16:04</time>
      </trkpt>
      <trkpt lat="44.6822" lon="4.8462">
        <ele>451.8</ele>
        <time>2021-07-10T08:16:05</time>
      </trkpt>
      <trkpt lat="44.6822" lon="4.8462">
        <ele>451.8</ele>
        <time>2021-07-10T08:16:06</time>
      </trkpt>
      <trkpt lat="44.68217" lon="4.84619">
        <ele>452</ele>
        <time>2021-07-10T08:16:07</time>
      </trkpt>
      <trkpt lat="44.68216" lon="4.8462">
        <ele>452</ele>
        <time>2021-07-10T08:16:08</time>
      </trkpt>
      <trkpt lat="44.68213" lon="4.84619">
        <ele>452</ele>
        <time>2021-07-10T08:16:09</time>
      </trkpt>
      <trkpt lat="44.68212" lon="4.84621">
        <ele>452</ele>
        <time>2021-07-10T08:16:10</time>
      </trkpt>
      <trkpt lat="44.68209" lon="4.84624">
        <ele>452</ele>
        <time>2021-07-10T08:16:11</time>
      </trkpt>
      <trkpt lat="44.68209" lon="4.84624">
        <ele>452</ele>
        <time>2021-07-10T08:16:12</time>
      </trkpt>
      <trkpt lat="44.68206" lon="4.84626">
        <ele>452</ele>
        <time>2021-07-10T08:16:13</time>
      </trkpt>
      <trkpt lat="44.68203" lon="4.84626">
        <ele>452</ele>
        <time>2021-07-10T08:16:14</time>
      </trkpt>
      <trkpt lat="44.68202" lon="4.84624">
        <ele>452</ele>
        <time>2021-07-10T08:16:15</time>
      </trkpt>
      <trkpt lat="44.682" lon="4.84623">
        <ele>452</ele>
        <time>2021-07-10T08:16:16</time>
      </trkpt>
      <trkpt lat="44.68196" lon="4.84625">
        <ele>452.2</ele>
        <time>2021-07-10T08:16:17</time>
      </trkpt>
      <trkpt lat="44.68196" lon="4.84625">
        <ele>452.2</ele>
        <time>2021-07-10T08:16:18</time>
      </trkpt>
      <trkpt lat="44.68194" lon="4.84625">
        <ele>452.2</ele>
        <time>2021-07-10T08:16:19</time>
      </trkpt>
      <trkpt lat="44.68194" lon="4.84625">
        <ele>452.2</ele>
        <time>2021-07-10T08:16:20</time>
      </trkpt>
      <trkpt lat="44.68192" lon="4.84625">
        <ele>452.2</ele>
        <time>2021-07-10T08:16:21</time>
      </trkpt>
      <trkpt lat="44.68187" lon="4.84622">
        <ele>452</ele>
        <time>2021-07-10T08:16:22</time>
      </trkpt>
      <trkpt lat="44.68185" lon="4.84624">
        <ele>452</ele>
        <time>2021-07-10T08:16:23</time>
      </trkpt>
      <trkpt lat="44.68185" lon="4.84624">
        <ele>452</ele>
        <time>2021-07-10T08:16:24</time>
      </trkpt>
      <trkpt lat="44.68183" lon="4.84622">
        <ele>452</ele>
        <time>2021-07-10T08:16:25</time>
      </trkpt>
      <trkpt lat="44.68183" lon="4.84623">
        <ele>452</ele>
        <time>2021-07-10T08:16:26</time>
      </trkpt>
      <trkpt lat="44.6818" lon="4.84623">
        <ele>452</ele>
        <time>2021-07-10T08:16:27</time>
      </trkpt>
      <trkpt lat="44.6818" lon="4.8462">
        <ele>452.2</ele>
        <time>2021-07-10T08:16:28</time>
      </trkpt>
      <trkpt lat="44.68176" lon="4.8462">
        <ele>452.4</ele>
        <time>2021-07-10T08:16:29</time>
      </trkpt>
      <trkpt lat="44.68176" lon="4.8462">
        <ele>452.4</ele>
        <time>2021-07-10T08:16:30</time>
      </trkpt>
      <trkpt lat="44.68174" lon="4.84621">
        <ele>452.4</ele>
        <time>2021-07-10T08:16:31</time>
      </trkpt>
      <trkpt lat="44.68174" lon="4.84621">
        <ele>452.4</ele>
        <time>2021-07-10T08:16:32</time>
      </trkpt>
      <trkpt lat="44.68172" lon="4.84622">
        <ele>452.6</ele>
        <time>2021-07-10T08:16:33</time>
      </trkpt>
      <trkpt lat="44.68171" lon="4.84622">
        <ele>452.6</ele>
        <time>2021-07-10T08:16:34</time>
      </trkpt>
      <trkpt lat="44.68168" lon="4.84621">
        <ele>452.6</ele>
        <time>2021-07-10T08:16:35</time>
      </trkpt>
      <trkpt lat="44.68168" lon="4.84621">
        <ele>452.8</ele>
        <time>2021-07-10T08:16:36</time>
      </trkpt>
      <trkpt lat="44.68167" lon="4.84621">
        <ele>452.8</ele>
        <time>2021-07-10T08:16:37</time>
      </trkpt>
      <trkpt lat="44.68166" lon="4.84621">
        <ele>453</ele>
        <time>2021-07-10T08:16:38</time>
      </trkpt>
      <trkpt lat="44.68164" lon="4.84621">
        <ele>453</ele>
        <time>2021-07-10T08:16:39</time>
      </trkpt>
      <trkpt lat="44.68164" lon="4.84621">
        <ele>453</ele>
        <time>2021-07-10T08:16:40</time>
      </trkpt>
      <trkpt lat="44.68162" lon="4.8462">
        <ele>453</ele>
        <time>2021-07-10T08:16:41</time>
      </trkpt>
      <trkpt lat="44.68162" lon="4.8462">
        <ele>453</ele>
        <time>2021-07-10T08:16:42</time>
      </trkpt>
      <trkpt lat="44.68159" lon="4.84617">
        <ele>452.8</ele>
        <time>2021-07-10T08:16:43</time>
      </trkpt>
      <trkpt lat="44.68153" lon="4.84616">
        <ele>452.8</ele>
        <time>2021-07-10T08:16:44</time>
      </trkpt>
      <trkpt lat="44.68153" lon="4.84616">
        <ele>452.8</ele>
        <time>2021-07-10T08:16:45</time>
      </trkpt>
      <trkpt lat="44.6815" lon="4.84615">
        <ele>452.6</ele>
        <time>2021-07-10T08:16:46</time>
      </trkpt>
      <trkpt lat="44.68142" lon="4.84614">
        <ele>452.6</ele>
        <time>2021-07-10T08:16:47</time>
      </trkpt>
      <trkpt lat="44.68142" lon="4.84614">
        <ele>452.6</ele>
        <time>2021-07-10T08:16:48</time>
      </trkpt>
      <trkpt lat="44.6814" lon="4.84614">
        <ele>452.6</ele>
        <time>2021-07-10T08:16:49</time>
      </trkpt>
      <trkpt lat="44.68138" lon="4.84614">
        <ele>452.8</ele>
        <time>2021-07-10T08:16:50</time>
      </trkpt>
      <trkpt lat="44.68134" lon="4.84615">
        <ele>452.8</ele>
        <time>2021-07-10T08:16:51</time>
      </trkpt>
      <trkpt lat="44.6813" lon="4.84616">
        <ele>452.8</ele>
        <time>2021-07-10T08:16:52</time>
      </trkpt>
      <trkpt lat="44.68128" lon="4.84615">
        <ele>453</ele>
        <time>2021-07-10T08:16:53</time>
      </trkpt>
      <trkpt lat="44.68128" lon="4.84615">
        <ele>453</ele>
        <time>2021-07-10T08:16:54</time>
      </trkpt>
      <trkpt lat="44.68129" lon="4.84614">
        <ele>453.2</ele>
        <time>2021-07-10T08:16:55</time>
      </trkpt>
      <trkpt lat="44.68127" lon="4.84613">
        <ele>453.4</ele>
        <time>2021-07-10T08:16:56</time>
      </trkpt>
      <trkpt lat="44.68125" lon="4.84613">
        <ele>453.6</ele>
        <time>2021-07-10T08:16:57</time>
      </trkpt>
      <trkpt lat="44.68122" lon="4.84614">
        <ele>453.8</ele>
        <time>2021-07-10T08:16:58</time>
      </trkpt>
      <trkpt lat="44.68119" lon="4.84613">
        <ele>453.8</ele>
        <time>2021-07-10T08:16:59</time>
      </trkpt>
      <trkpt lat="44.68119" lon="4.84613">
        <ele>454</ele>
        <time>2021-07-10T08:17:00</time>
      </trkpt>
      <trkpt lat="44.68117" lon="4.8461">
        <ele>454.2</ele>
        <time>2021-07-10T08:17:01</time>
      </trkpt>
      <trkpt lat="44.68117" lon="4.84607">
        <ele>454.4</ele>
        <time>2021-07-10T08:17:02</time>
      </trkpt>
      <trkpt lat="44.68117" lon="4.84607">
        <ele>454.6</ele>
        <time>2021-07-10T08:17:03</time>
      </trkpt>
      <trkpt lat="44.68115" lon="4.84607">
        <ele>454.8</ele>
        <time>2021-07-10T08:17:04</time>
      </trkpt>
      <trkpt lat="44.68112" lon="4.84608">
        <ele>455</ele>
        <time>2021-07-10T08:17:05</time>
      </trkpt>
      <trkpt lat="44.68112" lon="4.84607">
        <ele>455.2</ele>
        <time>2021-07-10T08:17:06</time>
      </trkpt>
      <trkpt lat="44.68111" lon="4.84608">
        <ele>455.2</ele>
        <time>2021-07-10T08:17:07</time>
      </trkpt>
      <trkpt lat="44.68109" lon="4.84606">
        <ele>455.4</ele>
        <time>2021-07-10T08:17:08</time>
      </trkpt>
      <trkpt lat="44.68109" lon="4.84605">
        <ele>455.4</ele>
        <time>2021-07-10T08:17:09</time>
      </trkpt>
      <trkpt lat="44.68106" lon="4.84604">
        <ele>455.4</ele>
        <time>2021-07-10T08:17:10</time>
      </trkpt>
      <trkpt lat="44.68106" lon="4.84604">
        <ele>455.6</ele>
        <time>2021-07-10T08:17:11</time>
      </trkpt>
      <trkpt lat="44.68104" lon="4.84603">
        <ele>455.8</ele>
        <time>2021-07-10T08:17:12</time>
      </trkpt>
      <trkpt lat="44.68104" lon="4.84601">
        <ele>455.8</ele>
        <time>2021-07-10T08:17:13</time>
      </trkpt>
      <trkpt lat="44.68103" lon="4.846">
        <ele>455.8</ele>
        <time>2021-07-10T08:17:14</time>
      </trkpt>
      <trkpt lat="44.68103" lon="4.84599">
        <ele>455.8</ele>
        <time>2021-07-10T08:17:15</time>
      </trkpt>
      <trkpt lat="44.68098" lon="4.846">
        <ele>455.8</ele>
        <time>2021-07-10T08:17:16</time>
      </trkpt>
      <trkpt lat="44.68098" lon="4.846">
        <ele>455.8</ele>
        <time>2021-07-10T08:17:17</time>
      </trkpt>
      <trkpt lat="44.68096" lon="4.84601">
        <ele>455.6</ele>
        <time>2021-07-10T08:17:18</time>
      </trkpt>
      <trkpt lat="44.68094" lon="4.84601">
        <ele>455.4</ele>
        <time>2021-07-10T08:17:19</time>
      </trkpt>
      <trkpt lat="44.68093" lon="4.84604">
        <ele>455.4</ele>
        <time>2021-07-10T08:17:20</time>
      </trkpt>
      <trkpt lat="44.6809" lon="4.84605">
        <ele>455.6</ele>
        <time>2021-07-10T08:17:21</time>
      </trkpt>
      <trkpt lat="44.68083" lon="4.84607">
        <ele>455.6</ele>
        <time>2021-07-10T08:17:22</time>
      </trkpt>
      <trkpt lat="44.68083" lon="4.84607">
        <ele>455.6</ele>
        <time>2021-07-10T08:17:23</time>
      </trkpt>
      <trkpt lat="44.68081" lon="4.84608">
        <ele>455.6</ele>
        <time>2021-07-10T08:17:24</time>
      </trkpt>
      <trkpt lat="44.68079" lon="4.84611">
        <ele>455.6</ele>
        <time>2021-07-10T08:17:25</time>
      </trkpt>
      <trkpt lat="44.68076" lon="4.84609">
        <ele>455.6</ele>
        <time>2021-07-10T08:17:26</time>
      </trkpt>
      <trkpt lat="44.68072" lon="4.8461">
        <ele>455.6</ele>
        <time>2021-07-10T08:17:27</time>
      </trkpt>
      <trkpt lat="44.68065" lon="4.84609">
        <ele>455.6</ele>
        <time>2021-07-10T08:17:28</time>
      </trkpt>
      <trkpt lat="44.68065" lon="4.84609">
        <ele>455.8</ele>
        <time>2021-07-10T08:17:29</time>
      </trkpt>
      <trkpt lat="44.68062" lon="4.84611">
        <ele>456</ele>
        <time>2021-07-10T08:17:30</time>
      </trkpt>
      <trkpt lat="44.68059" lon="4.84612">
        <ele>456</ele>
        <time>2021-07-10T08:17:31</time>
      </trkpt>
      <trkpt lat="44.68058" lon="4.84611">
        <ele>456</ele>
        <time>2021-07-10T08:17:32</time>
      </trkpt>
      <trkpt lat="44.68056" lon="4.84608">
        <ele>456.2</ele>
        <time>2021-07-10T08:17:33</time>
      </trkpt>
      <trkpt lat="44.68048" lon="4.84608">
        <ele>456.2</ele>
        <time>2021-07-10T08:17:34</time>
      </trkpt>
      <trkpt lat="44.68048" lon="4.84608">
        <ele>456.2</ele>
        <time>2021-07-10T08:17:35</time>
      </trkpt>
      <trkpt lat="44.68046" lon="4.84606">
        <ele>456.4</ele>
        <time>2021-07-10T08:17:36</time>
      </trkpt>
      <trkpt lat="44.68044" lon="4.84609">
        <ele>456.4</ele>
        <time>2021-07-10T08:17:37</time>
      </trkpt>
      <trkpt lat="44.6804" lon="4.84609">
        <ele>456.6</ele>
        <time>2021-07-10T08:17:38</time>
      </trkpt>
      <trkpt lat="44.68037" lon="4.84609">
        <ele>456.6</ele>
        <time>2021-07-10T08:17:39</time>
      </trkpt>
      <trkpt lat="44.68032" lon="4.84612">
        <ele>456.8</ele>
        <time>2021-07-10T08:17:40</time>
      </trkpt>
      <trkpt lat="44.68032" lon="4.84612">
        <ele>457</ele>
        <time>2021-07-10T08:17:41</time>
      </trkpt>
      <trkpt lat="44.68029" lon="4.84612">
        <ele>457</ele>
        <time>2021-07-10T08:17:42</time>
      </trkpt>
      <trkpt lat="44.68026" lon="4.8461">
        <ele>457.2</ele>
        <time>2021-07-10T08:17:43</time>
      </trkpt>
      <trkpt lat="44.68024" lon="4.84611">
        <ele>457.4</ele>
        <time>2021-07-10T08:17:44</time>
      </trkpt>
      <trkpt lat="44.68023" lon="4.8461">
        <ele>457.6</ele>
        <time>2021-07-10T08:17:45</time>
      </trkpt>
      <trkpt lat="44.68019" lon="4.8461">
        <ele>457.8</ele>
        <time>2021-07-10T08:17:46</time>
      </trkpt>
      <trkpt lat="44.68019" lon="4.8461">
        <ele>458</ele>
        <time>2021-07-10T08:17:47</time>
      </trkpt>
      <trkpt lat="44.68017" lon="4.84611">
        <ele>458.2</ele>
        <time>2021-07-10T08:17:48</time>
      </trkpt>
      <trkpt lat="44.68014" lon="4.84612">
        <ele>458.4</ele>
        <time>2021-07-10T08:17:49</time>
      </trkpt>
      <trkpt lat="44.68012" lon="4.84612">
        <ele>458.8</ele>
        <time>2021-07-10T08:17:50</time>
      </trkpt>
      <trkpt lat="44.6801" lon="4.84612">
        <ele>459</ele>
        <time>2021-07-10T08:17:51</time>
      </trkpt>
      <trkpt lat="44.68007" lon="4.84611">
        <ele>459.2</ele>
        <time>2021-07-10T08:17:52</time>
      </trkpt>
      <trkpt lat="44.68007" lon="4.84611">
        <ele>459.2</ele>
        <time>2021-07-10T08:17:53</time>
      </trkpt>
      <trkpt lat="44.68007" lon="4.8461">
        <ele>459.4</ele>
        <time>2021-07-10T08:17:54</time>
      </trkpt>
      <trkpt lat="44.68006" lon="4.8461">
        <ele>459.6</ele>
        <time>2021-07-10T08:17:55</time>
      </trkpt>
      <trkpt lat="44.68008" lon="4.84613">
        <ele>459.8</ele>
        <time>2021-07-10T08:17:56</time>
      </trkpt>
      <trkpt lat="44.68009" lon="4.84611">
        <ele>460</ele>
        <time>2021-07-10T08:17:57</time>
      </trkpt>
      <trkpt lat="44.68007" lon="4.84609">
        <ele>460.2</ele>
        <time>2021-07-10T08:17:58</time>
      </trkpt>
      <trkpt lat="44.68007" lon="4.84609">
        <ele>460.4</ele>
        <time>2021-07-10T08:17:59</time>
      </trkpt>
      <trkpt lat="44.68006" lon="4.84608">
        <ele>460.6</ele>
        <time>2021-07-10T08:18:00</time>
      </trkpt>
      <trkpt lat="44.68002" lon="4.8461">
        <ele>460.8</ele>
        <time>2021-07-10T08:18:01</time>
      </trkpt>
      <trkpt lat="44.68002" lon="4.84614">
        <ele>461</ele>
        <time>2021-07-10T08:18:02</time>
      </trkpt>
      <trkpt lat="44.67997" lon="4.84615">
        <ele>461.2</ele>
        <time>2021-07-10T08:18:03</time>
      </trkpt>
      <trkpt lat="44.67994" lon="4.84614">
        <ele>461.4</ele>
        <time>2021-07-10T08:18:04</time>
      </trkpt>
      <trkpt lat="44.67993" lon="4.84617">
        <ele>461.6</ele>
        <time>2021-07-10T08:18:05</time>
      </trkpt>
      <trkpt lat="44.67991" lon="4.84616">
        <ele>461.8</ele>
        <time>2021-07-10T08:18:06</time>
      </trkpt>
      <trkpt lat="44.6799" lon="4.84617">
        <ele>462</ele>
        <time>2021-07-10T08:18:07</time>
      </trkpt>
      <trkpt lat="44.6799" lon="4.84617">
        <ele>462.2</ele>
        <time>2021-07-10T08:18:08</time>
      </trkpt>
      <trkpt lat="44.67984" lon="4.84623">
        <ele>462.4</ele>
        <time>2021-07-10T08:18:09</time>
      </trkpt>
      <trkpt lat="44.67984" lon="4.84623">
        <ele>462.4</ele>
        <time>2021-07-10T08:18:10</time>
      </trkpt>
      <trkpt lat="44.67983" lon="4.84623">
        <ele>462.6</ele>
        <time>2021-07-10T08:18:11</time>
      </trkpt>
      <trkpt lat="44.67979" lon="4.84625">
        <ele>462.6</ele>
        <time>2021-07-10T08:18:12</time>
      </trkpt>
      <trkpt lat="44.67979" lon="4.84625">
        <ele>462.8</ele>
        <time>2021-07-10T08:18:13</time>
      </trkpt>
      <trkpt lat="44.67975" lon="4.84626">
        <ele>463</ele>
        <time>2021-07-10T08:18:14</time>
      </trkpt>
      <trkpt lat="44.67973" lon="4.84625">
        <ele>463</ele>
        <time>2021-07-10T08:18:15</time>
      </trkpt>
      <trkpt lat="44.67973" lon="4.84625">
        <ele>463.2</ele>
        <time>2021-07-10T08:18:16</time>
      </trkpt>
      <trkpt lat="44.67971" lon="4.84627">
        <ele>463.4</ele>
        <time>2021-07-10T08:18:17</time>
      </trkpt>
      <trkpt lat="44.6797" lon="4.84626">
        <ele>463.6</ele>
        <time>2021-07-10T08:18:18</time>
      </trkpt>
      <trkpt lat="44.67968" lon="4.84628">
        <ele>463.8</ele>
        <time>2021-07-10T08:18:19</time>
      </trkpt>
      <trkpt lat="44.67968" lon="4.84628">
        <ele>464</ele>
        <time>2021-07-10T08:18:20</time>
      </trkpt>
      <trkpt lat="44.67966" lon="4.84631">
        <ele>464.2</ele>
        <time>2021-07-10T08:18:21</time>
      </trkpt>
      <trkpt lat="44.67966" lon="4.84631">
        <ele>464.6</ele>
        <time>2021-07-10T08:18:22</time>
      </trkpt>
      <trkpt lat="44.67966" lon="4.84631">
        <ele>464.8</ele>
        <time>2021-07-10T08:18:23</time>
      </trkpt>
      <trkpt lat="44.67961" lon="4.84629">
        <ele>465</ele>
        <time>2021-07-10T08:18:24</time>
      </trkpt>
      <trkpt lat="44.67957" lon="4.84632">
        <ele>465.2</ele>
        <time>2021-07-10T08:18:25</time>
      </trkpt>
      <trkpt lat="44.67957" lon="4.84632">
        <ele>465.4</ele>
        <time>2021-07-10T08:18:26</time>
      </trkpt>
      <trkpt lat="44.67956" lon="4.84627">
        <ele>465.6</ele>
        <time>2021-07-10T08:18:27</time>
      </trkpt>
      <trkpt lat="44.67956" lon="4.84627">
        <ele>466</ele>
        <time>2021-07-10T08:18:28</time>
      </trkpt>
      <trkpt lat="44.67954" lon="4.84629">
        <ele>466.2</ele>
        <time>2021-07-10T08:18:29</time>
      </trkpt>
      <trkpt lat="44.67953" lon="4.84627">
        <ele>466.4</ele>
        <time>2021-07-10T08:18:30</time>
      </trkpt>
      <trkpt lat="44.67952" lon="4.84629">
        <ele>466.8</ele>
        <time>2021-07-10T08:18:31</time>
      </trkpt>
      <trkpt lat="44.67948" lon="4.8463">
        <ele>467</ele>
        <time>2021-07-10T08:18:32</time>
      </trkpt>
      <trkpt lat="44.67942" lon="4.84632">
        <ele>467.2</ele>
        <time>2021-07-10T08:18:33</time>
      </trkpt>
      <trkpt lat="44.67942" lon="4.84632">
        <ele>467.4</ele>
        <time>2021-07-10T08:18:34</time>
      </trkpt>
      <trkpt lat="44.6794" lon="4.84633">
        <ele>467.6</ele>
        <time>2021-07-10T08:18:35</time>
      </trkpt>
      <trkpt lat="44.67937" lon="4.84636">
        <ele>468</ele>
        <time>2021-07-10T08:18:36</time>
      </trkpt>
      <trkpt lat="44.67937" lon="4.84636">
        <ele>468.2</ele>
        <time>2021-07-10T08:18:37</time>
      </trkpt>
      <trkpt lat="44.67936" lon="4.84635">
        <ele>468.4</ele>
        <time>2021-07-10T08:18:38</time>
      </trkpt>
      <trkpt lat="44.67932" lon="4.84635">
        <ele>468.4</ele>
        <time>2021-07-10T08:18:39</time>
      </trkpt>
      <trkpt lat="44.67932" lon="4.84635">
        <ele>468.6</ele>
        <time>2021-07-10T08:18:40</time>
      </trkpt>
      <trkpt lat="44.6793" lon="4.84635">
        <ele>468.8</ele>
        <time>2021-07-10T08:18:41</time>
      </trkpt>
      <trkpt lat="44.67927" lon="4.84637">
        <ele>469</ele>
        <time>2021-07-10T08:18:42</time>
      </trkpt>
      <trkpt lat="44.67927" lon="4.84637">
        <ele>469.2</ele>
        <time>2021-07-10T08:18:43</time>
      </trkpt>
      <trkpt lat="44.67925" lon="4.84638">
        <ele>469.4</ele>
        <time>2021-07-10T08:18:44</time>
      </trkpt>
      <trkpt lat="44.67925" lon="4.84637">
        <ele>469.4</ele>
        <time>2021-07-10T08:18:45</time>
      </trkpt>
      <trkpt lat="44.67925" lon="4.84637">
        <ele>469.6</ele>
        <time>2021-07-10T08:18:46</time>
      </trkpt>
      <trkpt lat="44.67923" lon="4.8464">
        <ele>469.8</ele>
        <time>2021-07-10T08:18:47</time>
      </trkpt>
      <trkpt lat="44.67922" lon="4.8464">
        <ele>470</ele>
        <time>2021-07-10T08:18:48</time>
      </trkpt>
      <trkpt lat="44.67919" lon="4.8464">
        <ele>470.2</ele>
        <time>2021-07-10T08:18:49</time>
      </trkpt>
      <trkpt lat="44.67918" lon="4.84642">
        <ele>470.4</ele>
        <time>2021-07-10T08:18:50</time>
      </trkpt>
      <trkpt lat="44.67916" lon="4.84642">
        <ele>470.6</ele>
        <time>2021-07-10T08:18:51</time>
      </trkpt>
      <trkpt lat="44.67916" lon="4.84642">
        <ele>470.8</ele>
        <time>2021-07-10T08:18:52</time>
      </trkpt>
      <trkpt lat="44.67914" lon="4.84645">
        <ele>471</ele>
        <time>2021-07-10T08:18:53</time>
      </trkpt>
      <trkpt lat="44.67911" lon="4.84647">
        <ele>471.4</ele>
        <time>2021-07-10T08:18:54</time>
      </trkpt>
      <trkpt lat="44.67909" lon="4.84647">
        <ele>471.6</ele>
        <time>2021-07-10T08:18:55</time>
      </trkpt>
      <trkpt lat="44.67909" lon="4.84646">
        <ele>471.8</ele>
        <time>2021-07-10T08:18:56</time>
      </trkpt>
      <trkpt lat="44.67907" lon="4.84643">
        <ele>472</ele>
        <time>2021-07-10T08:18:57</time>
      </trkpt>
      <trkpt lat="44.67903" lon="4.84646">
        <ele>472</ele>
        <time>2021-07-10T08:18:58</time>
      </trkpt>
      <trkpt lat="44.67903" lon="4.84646">
        <ele>472.2</ele>
        <time>2021-07-10T08:18:59</time>
      </trkpt>
      <trkpt lat="44.67902" lon="4.84645">
        <ele>472.4</ele>
        <time>2021-07-10T08:19:00</time>
      </trkpt>
      <trkpt lat="44.67902" lon="4.84643">
        <ele>472.6</ele>
        <time>2021-07-10T08:19:01</time>
      </trkpt>
      <trkpt lat="44.67899" lon="4.84647">
        <ele>472.6</ele>
        <time>2021-07-10T08:19:02</time>
      </trkpt>
      <trkpt lat="44.67899" lon="4.84647">
        <ele>472.8</ele>
        <time>2021-07-10T08:19:03</time>
      </trkpt>
      <trkpt lat="44.67898" lon="4.84645">
        <ele>473</ele>
        <time>2021-07-10T08:19:04</time>
      </trkpt>
      <trkpt lat="44.67897" lon="4.84645">
        <ele>473.2</ele>
        <time>2021-07-10T08:19:05</time>
      </trkpt>
      <trkpt lat="44.67895" lon="4.84646">
        <ele>473.4</ele>
        <time>2021-07-10T08:19:06</time>
      </trkpt>
      <trkpt lat="44.67894" lon="4.84646">
        <ele>473.6</ele>
        <time>2021-07-10T08:19:07</time>
      </trkpt>
      <trkpt lat="44.67893" lon="4.8465">
        <ele>473.8</ele>
        <time>2021-07-10T08:19:08</time>
      </trkpt>
      <trkpt lat="44.67893" lon="4.8465">
        <ele>474</ele>
        <time>2021-07-10T08:19:09</time>
      </trkpt>
      <trkpt lat="44.6789" lon="4.84646">
        <ele>474.2</ele>
        <time>2021-07-10T08:19:10</time>
      </trkpt>
      <trkpt lat="44.6789" lon="4.84646">
        <ele>474.4</ele>
        <time>2021-07-10T08:19:11</time>
      </trkpt>
      <trkpt lat="44.67889" lon="4.84647">
        <ele>474.6</ele>
        <time>2021-07-10T08:19:12</time>
      </trkpt>
      <trkpt lat="44.67889" lon="4.84649">
        <ele>474.8</ele>
        <time>2021-07-10T08:19:13</time>
      </trkpt>
      <trkpt lat="44.67886" lon="4.84652">
        <ele>475.2</ele>
        <time>2021-07-10T08:19:14</time>
      </trkpt>
      <trkpt lat="44.67886" lon="4.84652">
        <ele>475.4</ele>
        <time>2021-07-10T08:19:15</time>
      </trkpt>
      <trkpt lat="44.67883" lon="4.84653">
        <ele>475.6</ele>
        <time>2021-07-10T08:19:16</time>
      </trkpt>
      <trkpt lat="44.67882" lon="4.84653">
        <ele>475.8</ele>
        <time>2021-07-10T08:19:17</time>
      </trkpt>
      <trkpt lat="44.67882" lon="4.84655">
        <ele>476</ele>
        <time>2021-07-10T08:19:18</time>
      </trkpt>
      <trkpt lat="44.6788" lon="4.84654">
        <ele>476</ele>
        <time>2021-07-10T08:19:19</time>
      </trkpt>
      <trkpt lat="44.6788" lon="4.84659">
        <ele>476.2</ele>
        <time>2021-07-10T08:19:20</time>
      </trkpt>
      <trkpt lat="44.6788" lon="4.84659">
        <ele>476.4</ele>
        <time>2021-07-10T08:19:21</time>
      </trkpt>
      <trkpt lat="44.67875" lon="4.84661">
        <ele>476.6</ele>
        <time>2021-07-10T08:19:22</time>
      </trkpt>
      <trkpt lat="44.67875" lon="4.84661">
        <ele>476.8</ele>
        <time>2021-07-10T08:19:23</time>
      </trkpt>
      <trkpt lat="44.67873" lon="4.84661">
        <ele>477</ele>
        <time>2021-07-10T08:19:24</time>
      </trkpt>
      <trkpt lat="44.67873" lon="4.84662">
        <ele>477.2</ele>
        <time>2021-07-10T08:19:25</time>
      </trkpt>
      <trkpt lat="44.67869" lon="4.84661">
        <ele>477.4</ele>
        <time>2021-07-10T08:19:26</time>
      </trkpt>
      <trkpt lat="44.67869" lon="4.84661">
        <ele>477.6</ele>
        <time>2021-07-10T08:19:27</time>
      </trkpt>
      <trkpt lat="44.67867" lon="4.8466">
        <ele>478</ele>
        <time>2021-07-10T08:19:28</time>
      </trkpt>
      <trkpt lat="44.67865" lon="4.84659">
        <ele>478.2</ele>
        <time>2021-07-10T08:19:29</time>
      </trkpt>
      <trkpt lat="44.67864" lon="4.84662">
        <ele>478.4</ele>
        <time>2021-07-10T08:19:30</time>
      </trkpt>
      <trkpt lat="44.67862" lon="4.84664">
        <ele>478.6</ele>
        <time>2021-07-10T08:19:31</time>
      </trkpt>
      <trkpt lat="44.6786" lon="4.84663">
        <ele>478.8</ele>
        <time>2021-07-10T08:19:32</time>
      </trkpt>
      <trkpt lat="44.6786" lon="4.84663">
        <ele>479</ele>
        <time>2021-07-10T08:19:33</time>
      </trkpt>
      <trkpt lat="44.67858" lon="4.84662">
        <ele>479.2</ele>
        <time>2021-07-10T08:19:34</time>
      </trkpt>
      <trkpt lat="44.67856" lon="4.84664">
        <ele>479.4</ele>
        <time>2021-07-10T08:19:35</time>
      </trkpt>
      <trkpt lat="44.67856" lon="4.84664">
        <ele>479.4</ele>
        <time>2021-07-10T08:19:36</time>
      </trkpt>
      <trkpt lat="44.67854" lon="4.84664">
        <ele>479.6</ele>
        <time>2021-07-10T08:19:37</time>
      </trkpt>
      <trkpt lat="44.67855" lon="4.84666">
        <ele>479.8</ele>
        <time>2021-07-10T08:19:38</time>
      </trkpt>
      <trkpt lat="44.67855" lon="4.84666">
        <ele>480</ele>
        <time>2021-07-10T08:19:39</time>
      </trkpt>
      <trkpt lat="44.67854" lon="4.84665">
        <ele>480.2</ele>
        <time>2021-07-10T08:19:40</time>
      </trkpt>
      <trkpt lat="44.67854" lon="4.84665">
        <ele>480.4</ele>
        <time>2021-07-10T08:19:41</time>
      </trkpt>
      <trkpt lat="44.6785" lon="4.84666">
        <ele>480.6</ele>
        <time>2021-07-10T08:19:42</time>
      </trkpt>
      <trkpt lat="44.6785" lon="4.84666">
        <ele>481</ele>
        <time>2021-07-10T08:19:43</time>
      </trkpt>
      <trkpt lat="44.67847" lon="4.8467">
        <ele>481.2</ele>
        <time>2021-07-10T08:19:44</time>
      </trkpt>
      <trkpt lat="44.67847" lon="4.8467">
        <ele>481.4</ele>
        <time>2021-07-10T08:19:45</time>
      </trkpt>
      <trkpt lat="44.67845" lon="4.8467">
        <ele>481.6</ele>
        <time>2021-07-10T08:19:46</time>
      </trkpt>
      <trkpt lat="44.67842" lon="4.84667">
        <ele>481.8</ele>
        <time>2021-07-10T08:19:47</time>
      </trkpt>
      <trkpt lat="44.67841" lon="4.84669">
        <ele>482</ele>
        <time>2021-07-10T08:19:48</time>
      </trkpt>
      <trkpt lat="44.67839" lon="4.8467">
        <ele>482.2</ele>
        <time>2021-07-10T08:19:49</time>
      </trkpt>
      <trkpt lat="44.6784" lon="4.84672">
        <ele>482.6</ele>
        <time>2021-07-10T08:19:50</time>
      </trkpt>
      <trkpt lat="44.67839" lon="4.84672">
        <ele>482.8</ele>
        <time>2021-07-10T08:19:51</time>
      </trkpt>
      <trkpt lat="44.67838" lon="4.84671">
        <ele>483.2</ele>
        <time>2021-07-10T08:19:52</time>
      </trkpt>
      <trkpt lat="44.67836" lon="4.84671">
        <ele>483.4</ele>
        <time>2021-07-10T08:19:53</time>
      </trkpt>
      <trkpt lat="44.67836" lon="4.84673">
        <ele>483.6</ele>
        <time>2021-07-10T08:19:54</time>
      </trkpt>
      <trkpt lat="44.67831" lon="4.84675">
        <ele>483.8</ele>
        <time>2021-07-10T08:19:55</time>
      </trkpt>
      <trkpt lat="44.67831" lon="4.84675">
        <ele>484.2</ele>
        <time>2021-07-10T08:19:56</time>
      </trkpt>
      <trkpt lat="44.67831" lon="4.84674">
        <ele>484.4</ele>
        <time>2021-07-10T08:19:57</time>
      </trkpt>
      <trkpt lat="44.6783" lon="4.84676">
        <ele>484.6</ele>
        <time>2021-07-10T08:19:58</time>
      </trkpt>
      <trkpt lat="44.67829" lon="4.84675">
        <ele>484.8</ele>
        <time>2021-07-10T08:19:59</time>
      </trkpt>
      <trkpt lat="44.67829" lon="4.84678">
        <ele>485</ele>
        <time>2021-07-10T08:20:00</time>
      </trkpt>
      <trkpt lat="44.67826" lon="4.84678">
        <ele>485.4</ele>
        <time>2021-07-10T08:20:01</time>
      </trkpt>
      <trkpt lat="44.67826" lon="4.84678">
        <ele>485.6</ele>
        <time>2021-07-10T08:20:02</time>
      </trkpt>
      <trkpt lat="44.67823" lon="4.84676">
        <ele>485.8</ele>
        <time>2021-07-10T08:20:03</time>
      </trkpt>
      <trkpt lat="44.67822" lon="4.8468">
        <ele>486.2</ele>
        <time>2021-07-10T08:20:04</time>
      </trkpt>
      <trkpt lat="44.67821" lon="4.84681">
        <ele>486.4</ele>
        <time>2021-07-10T08:20:05</time>
      </trkpt>
      <trkpt lat="44.6782" lon="4.84682">
        <ele>486.4</ele>
        <time>2021-07-10T08:20:06</time>
      </trkpt>
      <trkpt lat="44.67818" lon="4.84681">
        <ele>486.6</ele>
        <time>2021-07-10T08:20:07</time>
      </trkpt>
      <trkpt lat="44.67818" lon="4.84681">
        <ele>486.6</ele>
        <time>2021-07-10T08:20:08</time>
      </trkpt>
      <trkpt lat="44.67816" lon="4.84683">
        <ele>486.8</ele>
        <time>2021-07-10T08:20:09</time>
      </trkpt>
      <trkpt lat="44.67815" lon="4.84683">
        <ele>487</ele>
        <time>2021-07-10T08:20:10</time>
      </trkpt>
      <trkpt lat="44.67813" lon="4.84683">
        <ele>487</ele>
        <time>2021-07-10T08:20:11</time>
      </trkpt>
      <trkpt lat="44.67812" lon="4.84683">
        <ele>487.4</ele>
        <time>2021-07-10T08:20:12</time>
      </trkpt>
      <trkpt lat="44.67809" lon="4.84684">
        <ele>487.6</ele>
        <time>2021-07-10T08:20:13</time>
      </trkpt>
      <trkpt lat="44.67809" lon="4.84684">
        <ele>487.8</ele>
        <time>2021-07-10T08:20:14</time>
      </trkpt>
      <trkpt lat="44.67808" lon="4.84685">
        <ele>488</ele>
        <time>2021-07-10T08:20:15</time>
      </trkpt>
      <trkpt lat="44.67807" lon="4.84686">
        <ele>488.4</ele>
        <time>2021-07-10T08:20:16</time>
      </trkpt>
      <trkpt lat="44.67806" lon="4.84687">
        <ele>488.8</ele>
        <time>2021-07-10T08:20:17</time>
      </trkpt>
      <trkpt lat="44.67804" lon="4.84687">
        <ele>489.2</ele>
        <time>2021-07-10T08:20:18</time>
      </trkpt>
      <trkpt lat="44.67802" lon="4.84689">
        <ele>489.4</ele>
        <time>2021-07-10T08:20:19</time>
      </trkpt>
      <trkpt lat="44.67802" lon="4.84689">
        <ele>489.8</ele>
        <time>2021-07-10T08:20:20</time>
      </trkpt>
      <trkpt lat="44.67801" lon="4.8469">
        <ele>490</ele>
        <time>2021-07-10T08:20:21</time>
      </trkpt>
      <trkpt lat="44.678" lon="4.8469">
        <ele>490.4</ele>
        <time>2021-07-10T08:20:22</time>
      </trkpt>
      <trkpt lat="44.67798" lon="4.84691">
        <ele>490.8</ele>
        <time>2021-07-10T08:20:23</time>
      </trkpt>
      <trkpt lat="44.67797" lon="4.84692">
        <ele>491.2</ele>
        <time>2021-07-10T08:20:24</time>
      </trkpt>
      <trkpt lat="44.67795" lon="4.84694">
        <ele>491.4</ele>
        <time>2021-07-10T08:20:25</time>
      </trkpt>
      <trkpt lat="44.67795" lon="4.84694">
        <ele>491.8</ele>
        <time>2021-07-10T08:20:26</time>
      </trkpt>
      <trkpt lat="44.67794" lon="4.84695">
        <ele>492</ele>
        <time>2021-07-10T08:20:27</time>
      </trkpt>
      <trkpt lat="44.67794" lon="4.84695">
        <ele>492.2</ele>
        <time>2021-07-10T08:20:28</time>
      </trkpt>
      <trkpt lat="44.67793" lon="4.84696">
        <ele>492.6</ele>
        <time>2021-07-10T08:20:29</time>
      </trkpt>
      <trkpt lat="44.67791" lon="4.84697">
        <ele>492.8</ele>
        <time>2021-07-10T08:20:30</time>
      </trkpt>
      <trkpt lat="44.67789" lon="4.84698">
        <ele>493</ele>
        <time>2021-07-10T08:20:31</time>
      </trkpt>
      <trkpt lat="44.67789" lon="4.84698">
        <ele>493.2</ele>
        <time>2021-07-10T08:20:32</time>
      </trkpt>
      <trkpt lat="44.67788" lon="4.84699">
        <ele>493.6</ele>
        <time>2021-07-10T08:20:33</time>
      </trkpt>
      <trkpt lat="44.67787" lon="4.84699">
        <ele>493.8</ele>
        <time>2021-07-10T08:20:34</time>
      </trkpt>
      <trkpt lat="44.67786" lon="4.847">
        <ele>494</ele>
        <time>2021-07-10T08:20:35</time>
      </trkpt>
      <trkpt lat="44.67785" lon="4.847">
        <ele>494.2</ele>
        <time>2021-07-10T08:20:36</time>
      </trkpt>
      <trkpt lat="44.67783" lon="4.84702">
        <ele>494.4</ele>
        <time>2021-07-10T08:20:37</time>
      </trkpt>
      <trkpt lat="44.67783" lon="4.84702">
        <ele>494.8</ele>
        <time>2021-07-10T08:20:38</time>
      </trkpt>
      <trkpt lat="44.67782" lon="4.84703">
        <ele>495</ele>
        <time>2021-07-10T08:20:39</time>
      </trkpt>
      <trkpt lat="44.67781" lon="4.84703">
        <ele>495.4</ele>
        <time>2021-07-10T08:20:40</time>
      </trkpt>
      <trkpt lat="44.6778" lon="4.84703">
        <ele>495.6</ele>
        <time>2021-07-10T08:20:41</time>
      </trkpt>
      <trkpt lat="44.67778" lon="4.84703">
        <ele>495.8</ele>
        <time>2021-07-10T08:20:42</time>
      </trkpt>
      <trkpt lat="44.67778" lon="4.84703">
        <ele>496</ele>
        <time>2021-07-10T08:20:43</time>
      </trkpt>
      <trkpt lat="44.67777" lon="4.84705">
        <ele>496.2</ele>
        <time>2021-07-10T08:20:44</time>
      </trkpt>
      <trkpt lat="44.67777" lon="4.84706">
        <ele>496.4</ele>
        <time>2021-07-10T08:20:45</time>
      </trkpt>
      <trkpt lat="44.67775" lon="4.84708">
        <ele>496.8</ele>
        <time>2021-07-10T08:20:46</time>
      </trkpt>
      <trkpt lat="44.67772" lon="4.84707">
        <ele>497.2</ele>
        <time>2021-07-10T08:20:47</time>
      </trkpt>
      <trkpt lat="44.67768" lon="4.84707">
        <ele>497.4</ele>
        <time>2021-07-10T08:20:48</time>
      </trkpt>
      <trkpt lat="44.67768" lon="4.84707">
        <ele>497.6</ele>
        <time>2021-07-10T08:20:49</time>
      </trkpt>
      <trkpt lat="44.67767" lon="4.8471">
        <ele>497.8</ele>
        <time>2021-07-10T08:20:50</time>
      </trkpt>
      <trkpt lat="44.67767" lon="4.8471">
        <ele>498</ele>
        <time>2021-07-10T08:20:51</time>
      </trkpt>
      <trkpt lat="44.67764" lon="4.84711">
        <ele>498.2</ele>
        <time>2021-07-10T08:20:52</time>
      </trkpt>
      <trkpt lat="44.67764" lon="4.84711">
        <ele>498.6</ele>
        <time>2021-07-10T08:20:53</time>
      </trkpt>
      <trkpt lat="44.67763" lon="4.84711">
        <ele>498.6</ele>
        <time>2021-07-10T08:20:54</time>
      </trkpt>
      <trkpt lat="44.67763" lon="4.84711">
        <ele>498.8</ele>
        <time>2021-07-10T08:20:55</time>
      </trkpt>
      <trkpt lat="44.67762" lon="4.8471">
        <ele>499</ele>
        <time>2021-07-10T08:20:56</time>
      </trkpt>
      <trkpt lat="44.6776" lon="4.8471">
        <ele>499.2</ele>
        <time>2021-07-10T08:20:57</time>
      </trkpt>
      <trkpt lat="44.67758" lon="4.8471">
        <ele>499.4</ele>
        <time>2021-07-10T08:20:58</time>
      </trkpt>
      <trkpt lat="44.67759" lon="4.84712">
        <ele>499.6</ele>
        <time>2021-07-10T08:20:59</time>
      </trkpt>
      <trkpt lat="44.67757" lon="4.84713">
        <ele>499.8</ele>
        <time>2021-07-10T08:21:00</time>
      </trkpt>
      <trkpt lat="44.67757" lon="4.84713">
        <ele>500</ele>
        <time>2021-07-10T08:21:01</time>
      </trkpt>
      <trkpt lat="44.67756" lon="4.84716">
        <ele>500.2</ele>
        <time>2021-07-10T08:21:02</time>
      </trkpt>
      <trkpt lat="44.67755" lon="4.84722">
        <ele>500.4</ele>
        <time>2021-07-10T08:21:03</time>
      </trkpt>
      <trkpt lat="44.67754" lon="4.84719">
        <ele>500.6</ele>
        <time>2021-07-10T08:21:04</time>
      </trkpt>
      <trkpt lat="44.67753" lon="4.84724">
        <ele>500.8</ele>
        <time>2021-07-10T08:21:05</time>
      </trkpt>
      <trkpt lat="44.6775" lon="4.84726">
        <ele>501</ele>
        <time>2021-07-10T08:21:06</time>
      </trkpt>
      <trkpt lat="44.6775" lon="4.84726">
        <ele>501.2</ele>
        <time>2021-07-10T08:21:07</time>
      </trkpt>
      <trkpt lat="44.67748" lon="4.84725">
        <ele>501.4</ele>
        <time>2021-07-10T08:21:08</time>
      </trkpt>
      <trkpt lat="44.67748" lon="4.84725">
        <ele>501.8</ele>
        <time>2021-07-10T08:21:09</time>
      </trkpt>
      <trkpt lat="44.67747" lon="4.84728">
        <ele>502</ele>
        <time>2021-07-10T08:21:10</time>
      </trkpt>
      <trkpt lat="44.67745" lon="4.84729">
        <ele>502.2</ele>
        <time>2021-07-10T08:21:11</time>
      </trkpt>
      <trkpt lat="44.67743" lon="4.84731">
        <ele>502.4</ele>
        <time>2021-07-10T08:21:12</time>
      </trkpt>
      <trkpt lat="44.67743" lon="4.84731">
        <ele>502.6</ele>
        <time>2021-07-10T08:21:13</time>
      </trkpt>
      <trkpt lat="44.67745" lon="4.84729">
        <ele>503</ele>
        <time>2021-07-10T08:21:14</time>
      </trkpt>
      <trkpt lat="44.67744" lon="4.84728">
        <ele>503.2</ele>
        <time>2021-07-10T08:21:15</time>
      </trkpt>
      <trkpt lat="44.67742" lon="4.84731">
        <ele>503.6</ele>
        <time>2021-07-10T08:21:16</time>
      </trkpt>
      <trkpt lat="44.67742" lon="4.8473">
        <ele>503.8</ele>
        <time>2021-07-10T08:21:17</time>
      </trkpt>
      <trkpt lat="44.67742" lon="4.84729">
        <ele>504.2</ele>
        <time>2021-07-10T08:21:18</time>
      </trkpt>
      <trkpt lat="44.67741" lon="4.84729">
        <ele>504.4</ele>
        <time>2021-07-10T08:21:19</time>
      </trkpt>
      <trkpt lat="44.67738" lon="4.84733">
        <ele>504.6</ele>
        <time>2021-07-10T08:21:20</time>
      </trkpt>
      <trkpt lat="44.67736" lon="4.84731">
        <ele>505</ele>
        <time>2021-07-10T08:21:21</time>
      </trkpt>
      <trkpt lat="44.67734" lon="4.84734">
        <ele>505.2</ele>
        <time>2021-07-10T08:21:22</time>
      </trkpt>
      <trkpt lat="44.67732" lon="4.84736">
        <ele>505.4</ele>
        <time>2021-07-10T08:21:23</time>
      </trkpt>
      <trkpt lat="44.67732" lon="4.84736">
        <ele>505.6</ele>
        <time>2021-07-10T08:21:24</time>
      </trkpt>
      <trkpt lat="44.67731" lon="4.84736">
        <ele>506</ele>
        <time>2021-07-10T08:21:25</time>
      </trkpt>
      <trkpt lat="44.67728" lon="4.84737">
        <ele>506.2</ele>
        <time>2021-07-10T08:21:26</time>
      </trkpt>
      <trkpt lat="44.67728" lon="4.84737">
        <ele>506.6</ele>
        <time>2021-07-10T08:21:27</time>
      </trkpt>
      <trkpt lat="44.67722" lon="4.84741">
        <ele>506.8</ele>
        <time>2021-07-10T08:21:28</time>
      </trkpt>
      <trkpt lat="44.6772" lon="4.84737">
        <ele>507</ele>
        <time>2021-07-10T08:21:29</time>
      </trkpt>
      <trkpt lat="44.6772" lon="4.84737">
        <ele>507.4</ele>
        <time>2021-07-10T08:21:30</time>
      </trkpt>
      <trkpt lat="44.67716" lon="4.84734">
        <ele>507.6</ele>
        <time>2021-07-10T08:21:31</time>
      </trkpt>
      <trkpt lat="44.67717" lon="4.84735">
        <ele>507.8</ele>
        <time>2021-07-10T08:21:32</time>
      </trkpt>
      <trkpt lat="44.67715" lon="4.84738">
        <ele>508</ele>
        <time>2021-07-10T08:21:33</time>
      </trkpt>
      <trkpt lat="44.67714" lon="4.84738">
        <ele>508.2</ele>
        <time>2021-07-10T08:21:34</time>
      </trkpt>
      <trkpt lat="44.67713" lon="4.84736">
        <ele>508.6</ele>
        <time>2021-07-10T08:21:35</time>
      </trkpt>
      <trkpt lat="44.67713" lon="4.84736">
        <ele>508.8</ele>
        <time>2021-07-10T08:21:36</time>
      </trkpt>
      <trkpt lat="44.67711" lon="4.84737">
        <ele>509.2</ele>
        <time>2021-07-10T08:21:37</time>
      </trkpt>
      <trkpt lat="44.67708" lon="4.84738">
        <ele>509.4</ele>
        <time>2021-07-10T08:21:38</time>
      </trkpt>
      <trkpt lat="44.67705" lon="4.84742">
        <ele>509.6</ele>
        <time>2021-07-10T08:21:39</time>
      </trkpt>
      <trkpt lat="44.67705" lon="4.84742">
        <ele>509.8</ele>
        <time>2021-07-10T08:21:40</time>
      </trkpt>
      <trkpt lat="44.67705" lon="4.84744">
        <ele>510</ele>
        <time>2021-07-10T08:21:41</time>
      </trkpt>
      <trkpt lat="44.67705" lon="4.84744">
        <ele>510.2</ele>
        <time>2021-07-10T08:21:42</time>
      </trkpt>
      <trkpt lat="44.67704" lon="4.84746">
        <ele>510.4</ele>
        <time>2021-07-10T08:21:43</time>
      </trkpt>
      <trkpt lat="44.67702" lon="4.84747">
        <ele>510.6</ele>
        <time>2021-07-10T08:21:44</time>
      </trkpt>
      <trkpt lat="44.677" lon="4.84747">
        <ele>510.8</ele>
        <time>2021-07-10T08:21:45</time>
      </trkpt>
      <trkpt lat="44.677" lon="4.84747">
        <ele>511</ele>
        <time>2021-07-10T08:21:46</time>
      </trkpt>
      <trkpt lat="44.67698" lon="4.84749">
        <ele>511.2</ele>
        <time>2021-07-10T08:21:47</time>
      </trkpt>
      <trkpt lat="44.67698" lon="4.84749">
        <ele>511.4</ele>
        <time>2021-07-10T08:21:48</time>
      </trkpt>
      <trkpt lat="44.67699" lon="4.84748">
        <ele>511.6</ele>
        <time>2021-07-10T08:21:49</time>
      </trkpt>
      <trkpt lat="44.67697" lon="4.84748">
        <ele>511.8</ele>
        <time>2021-07-10T08:21:50</time>
      </trkpt>
      <trkpt lat="44.67697" lon="4.84748">
        <ele>512</ele>
        <time>2021-07-10T08:21:51</time>
      </trkpt>
      <trkpt lat="44.67696" lon="4.84749">
        <ele>512.2</ele>
        <time>2021-07-10T08:21:52</time>
      </trkpt>
      <trkpt lat="44.67694" lon="4.84754">
        <ele>512.4</ele>
        <time>2021-07-10T08:21:53</time>
      </trkpt>
      <trkpt lat="44.67694" lon="4.84754">
        <ele>512.6</ele>
        <time>2021-07-10T08:21:54</time>
      </trkpt>
      <trkpt lat="44.6769" lon="4.84755">
        <ele>512.8</ele>
        <time>2021-07-10T08:21:55</time>
      </trkpt>
      <trkpt lat="44.67689" lon="4.84755">
        <ele>513.2</ele>
        <time>2021-07-10T08:21:56</time>
      </trkpt>
      <trkpt lat="44.67688" lon="4.84756">
        <ele>513.4</ele>
        <time>2021-07-10T08:21:57</time>
      </trkpt>
      <trkpt lat="44.67688" lon="4.84758">
        <ele>513.8</ele>
        <time>2021-07-10T08:21:58</time>
      </trkpt>
      <trkpt lat="44.67688" lon="4.84758">
        <ele>514</ele>
        <time>2021-07-10T08:21:59</time>
      </trkpt>
      <trkpt lat="44.67688" lon="4.84758">
        <ele>514.2</ele>
        <time>2021-07-10T08:22:00</time>
      </trkpt>
      <trkpt lat="44.67687" lon="4.8476">
        <ele>514.6</ele>
        <time>2021-07-10T08:22:01</time>
      </trkpt>
      <trkpt lat="44.67686" lon="4.84762">
        <ele>514.8</ele>
        <time>2021-07-10T08:22:02</time>
      </trkpt>
      <trkpt lat="44.67687" lon="4.84766">
        <ele>515</ele>
        <time>2021-07-10T08:22:03</time>
      </trkpt>
      <trkpt lat="44.67684" lon="4.84765">
        <ele>515.2</ele>
        <time>2021-07-10T08:22:04</time>
      </trkpt>
      <trkpt lat="44.67684" lon="4.84765">
        <ele>515.4</ele>
        <time>2021-07-10T08:22:05</time>
      </trkpt>
      <trkpt lat="44.67684" lon="4.84767">
        <ele>515.6</ele>
        <time>2021-07-10T08:22:06</time>
      </trkpt>
      <trkpt lat="44.67684" lon="4.84768">
        <ele>515.8</ele>
        <time>2021-07-10T08:22:07</time>
      </trkpt>
      <trkpt lat="44.67683" lon="4.8477">
        <ele>515.8</ele>
        <time>2021-07-10T08:22:08</time>
      </trkpt>
      <trkpt lat="44.67683" lon="4.84771">
        <ele>516</ele>
        <time>2021-07-10T08:22:09</time>
      </trkpt>
      <trkpt lat="44.67682" lon="4.8477">
        <ele>516.2</ele>
        <time>2021-07-10T08:22:10</time>
      </trkpt>
      <trkpt lat="44.67682" lon="4.8477">
        <ele>516.2</ele>
        <time>2021-07-10T08:22:11</time>
      </trkpt>
      <trkpt lat="44.67681" lon="4.8477">
        <ele>516.2</ele>
        <time>2021-07-10T08:22:12</time>
      </trkpt>
      <trkpt lat="44.6768" lon="4.84771">
        <ele>516.2</ele>
        <time>2021-07-10T08:22:13</time>
      </trkpt>
      <trkpt lat="44.6768" lon="4.84769">
        <ele>516.4</ele>
        <time>2021-07-10T08:22:14</time>
      </trkpt>
      <trkpt lat="44.6768" lon="4.84768">
        <ele>516.4</ele>
        <time>2021-07-10T08:22:15</time>
      </trkpt>
      <trkpt lat="44.67693" lon="4.84712">
        <ele>520.4</ele>
        <time>2021-07-10T08:22:42</time>
      </trkpt>
      <trkpt lat="44.67693" lon="4.84706">
        <ele>520.6</ele>
        <time>2021-07-10T08:22:43</time>
      </trkpt>
      <trkpt lat="44.67693" lon="4.84706">
        <ele>520.8</ele>
        <time>2021-07-10T08:22:44</time>
      </trkpt>
      <trkpt lat="44.67696" lon="4.84707">
        <ele>521</ele>
        <time>2021-07-10T08:22:45</time>
      </trkpt>
      <trkpt lat="44.67696" lon="4.84707">
        <ele>521.2</ele>
        <time>2021-07-10T08:22:46</time>
      </trkpt>
      <trkpt lat="44.67696" lon="4.84702">
        <ele>521.6</ele>
        <time>2021-07-10T08:22:47</time>
      </trkpt>
      <trkpt lat="44.67696" lon="4.84702">
        <ele>521.8</ele>
        <time>2021-07-10T08:22:48</time>
      </trkpt>
      <trkpt lat="44.67694" lon="4.84705">
        <ele>522</ele>
        <time>2021-07-10T08:22:49</time>
      </trkpt>
      <trkpt lat="44.67695" lon="4.84697">
        <ele>522.2</ele>
        <time>2021-07-10T08:22:50</time>
      </trkpt>
      <trkpt lat="44.67695" lon="4.84694">
        <ele>522.4</ele>
        <time>2021-07-10T08:22:51</time>
      </trkpt>
      <trkpt lat="44.67695" lon="4.84694">
        <ele>522.6</ele>
        <time>2021-07-10T08:22:52</time>
      </trkpt>
      <trkpt lat="44.67694" lon="4.84689">
        <ele>523</ele>
        <time>2021-07-10T08:22:53</time>
      </trkpt>
      <trkpt lat="44.67694" lon="4.84689">
        <ele>523.2</ele>
        <time>2021-07-10T08:22:54</time>
      </trkpt>
      <trkpt lat="44.67696" lon="4.84689">
        <ele>523.4</ele>
        <time>2021-07-10T08:22:55</time>
      </trkpt>
      <trkpt lat="44.67696" lon="4.84687">
        <ele>523.8</ele>
        <time>2021-07-10T08:22:56</time>
      </trkpt>
      <trkpt lat="44.67698" lon="4.84684">
        <ele>523.8</ele>
        <time>2021-07-10T08:22:57</time>
      </trkpt>
      <trkpt lat="44.67697" lon="4.84686">
        <ele>524.2</ele>
        <time>2021-07-10T08:22:58</time>
      </trkpt>
      <trkpt lat="44.67697" lon="4.84682">
        <ele>524.4</ele>
        <time>2021-07-10T08:22:59</time>
      </trkpt>
      <trkpt lat="44.67699" lon="4.84679">
        <ele>524.8</ele>
        <time>2021-07-10T08:23:00</time>
      </trkpt>
      <trkpt lat="44.67699" lon="4.84679">
        <ele>524.8</ele>
        <time>2021-07-10T08:23:01</time>
      </trkpt>
      <trkpt lat="44.67699" lon="4.84681">
        <ele>525</ele>
        <time>2021-07-10T08:23:02</time>
      </trkpt>
      <trkpt lat="44.67699" lon="4.84681">
        <ele>525.2</ele>
        <time>2021-07-10T08:23:03</time>
      </trkpt>
      <trkpt lat="44.67699" lon="4.84676">
        <ele>525.4</ele>
        <time>2021-07-10T08:23:04</time>
      </trkpt>
      <trkpt lat="44.67697" lon="4.84676">
        <ele>525.8</ele>
        <time>2021-07-10T08:23:05</time>
      </trkpt>
      <trkpt lat="44.67697" lon="4.84674">
        <ele>526</ele>
        <time>2021-07-10T08:23:06</time>
      </trkpt>
      <trkpt lat="44.67699" lon="4.8467">
        <ele>526.2</ele>
        <time>2021-07-10T08:23:07</time>
      </trkpt>
      <trkpt lat="44.67701" lon="4.84668">
        <ele>526.4</ele>
        <time>2021-07-10T08:23:08</time>
      </trkpt>
      <trkpt lat="44.67701" lon="4.84668">
        <ele>526.6</ele>
        <time>2021-07-10T08:23:09</time>
      </trkpt>
      <trkpt lat="44.67701" lon="4.84667">
        <ele>527</ele>
        <time>2021-07-10T08:23:10</time>
      </trkpt>
      <trkpt lat="44.67703" lon="4.84666">
        <ele>527.2</ele>
        <time>2021-07-10T08:23:11</time>
      </trkpt>
      <trkpt lat="44.67701" lon="4.84664">
        <ele>527.4</ele>
        <time>2021-07-10T08:23:12</time>
      </trkpt>
      <trkpt lat="44.67701" lon="4.84664">
        <ele>527.8</ele>
        <time>2021-07-10T08:23:13</time>
      </trkpt>
      <trkpt lat="44.67702" lon="4.84661">
        <ele>528</ele>
        <time>2021-07-10T08:23:14</time>
      </trkpt>
      <trkpt lat="44.67702" lon="4.84661">
        <ele>528.2</ele>
        <time>2021-07-10T08:23:15</time>
      </trkpt>
      <trkpt lat="44.67704" lon="4.84661">
        <ele>528.6</ele>
        <time>2021-07-10T08:23:16</time>
      </trkpt>
      <trkpt lat="44.67705" lon="4.84659">
        <ele>528.8</ele>
        <time>2021-07-10T08:23:17</time>
      </trkpt>
      <trkpt lat="44.67704" lon="4.84655">
        <ele>529</ele>
        <time>2021-07-10T08:23:18</time>
      </trkpt>
      <trkpt lat="44.67704" lon="4.8465">
        <ele>529.2</ele>
        <time>2021-07-10T08:23:19</time>
      </trkpt>
      <trkpt lat="44.67705" lon="4.84648">
        <ele>529.4</ele>
        <time>2021-07-10T08:23:20</time>
      </trkpt>
      <trkpt lat="44.67705" lon="4.84648">
        <ele>529.8</ele>
        <time>2021-07-10T08:23:21</time>
      </trkpt>
      <trkpt lat="44.67687" lon="4.84633">
        <ele>534.2</ele>
        <time>2021-07-10T08:23:46</time>
      </trkpt>
      <trkpt lat="44.67683" lon="4.84634">
        <ele>534.4</ele>
        <time>2021-07-10T08:23:47</time>
      </trkpt>
      <trkpt lat="44.67683" lon="4.84634">
        <ele>534.6</ele>
        <time>2021-07-10T08:23:48</time>
      </trkpt>
      <trkpt lat="44.67681" lon="4.84637">
        <ele>534.6</ele>
        <time>2021-07-10T08:23:49</time>
      </trkpt>
      <trkpt lat="44.67681" lon="4.84637">
        <ele>534.8</ele>
        <time>2021-07-10T08:23:50</time>
      </trkpt>
      <trkpt lat="44.6768" lon="4.84639">
        <ele>534.8</ele>
        <time>2021-07-10T08:23:51</time>
      </trkpt>
      <trkpt lat="44.6768" lon="4.84638">
        <ele>535</ele>
        <time>2021-07-10T08:23:52</time>
      </trkpt>
      <trkpt lat="44.67679" lon="4.8464">
        <ele>535</ele>
        <time>2021-07-10T08:23:53</time>
      </trkpt>
      <trkpt lat="44.67678" lon="4.8464">
        <ele>535</ele>
        <time>2021-07-10T08:23:54</time>
      </trkpt>
      <trkpt lat="44.67678" lon="4.8464">
        <ele>535</ele>
        <time>2021-07-10T08:23:55</time>
      </trkpt>
      <trkpt lat="44.67677" lon="4.8464">
        <ele>535.4</ele>
        <time>2021-07-10T08:23:56</time>
      </trkpt>
      <trkpt lat="44.67676" lon="4.84639">
        <ele>535.6</ele>
        <time>2021-07-10T08:23:57</time>
      </trkpt>
      <trkpt lat="44.67676" lon="4.8464">
        <ele>535.8</ele>
        <time>2021-07-10T08:23:58</time>
      </trkpt>
      <trkpt lat="44.67675" lon="4.84638">
        <ele>536</ele>
        <time>2021-07-10T08:23:59</time>
      </trkpt>
      <trkpt lat="44.67672" lon="4.84641">
        <ele>536.2</ele>
        <time>2021-07-10T08:24:00</time>
      </trkpt>
      <trkpt lat="44.67672" lon="4.84641">
        <ele>536.4</ele>
        <time>2021-07-10T08:24:01</time>
      </trkpt>
      <trkpt lat="44.6767" lon="4.84641">
        <ele>536.6</ele>
        <time>2021-07-10T08:24:02</time>
      </trkpt>
      <trkpt lat="44.67667" lon="4.84642">
        <ele>536.8</ele>
        <time>2021-07-10T08:24:03</time>
      </trkpt>
      <trkpt lat="44.67664" lon="4.84645">
        <ele>537</ele>
        <time>2021-07-10T08:24:04</time>
      </trkpt>
      <trkpt lat="44.67664" lon="4.84645">
        <ele>537</ele>
        <time>2021-07-10T08:24:05</time>
      </trkpt>
      <trkpt lat="44.6766" lon="4.84641">
        <ele>537.2</ele>
        <time>2021-07-10T08:24:06</time>
      </trkpt>
      <trkpt lat="44.6766" lon="4.84641">
        <ele>537.2</ele>
        <time>2021-07-10T08:24:07</time>
      </trkpt>
      <trkpt lat="44.67658" lon="4.84643">
        <ele>537.4</ele>
        <time>2021-07-10T08:24:08</time>
      </trkpt>
      <trkpt lat="44.67657" lon="4.84646">
        <ele>537.4</ele>
        <time>2021-07-10T08:24:09</time>
      </trkpt>
      <trkpt lat="44.67657" lon="4.84644">
        <ele>537.6</ele>
        <time>2021-07-10T08:24:10</time>
      </trkpt>
      <trkpt lat="44.67656" lon="4.84647">
        <ele>537.8</ele>
        <time>2021-07-10T08:24:11</time>
      </trkpt>
      <trkpt lat="44.67652" lon="4.84649">
        <ele>537.8</ele>
        <time>2021-07-10T08:24:12</time>
      </trkpt>
      <trkpt lat="44.67652" lon="4.84649">
        <ele>538</ele>
        <time>2021-07-10T08:24:13</time>
      </trkpt>
      <trkpt lat="44.6765" lon="4.84652">
        <ele>538</ele>
        <time>2021-07-10T08:24:14</time>
      </trkpt>
      <trkpt lat="44.67652" lon="4.84655">
        <ele>538.2</ele>
        <time>2021-07-10T08:24:15</time>
      </trkpt>
      <trkpt lat="44.67649" lon="4.84656">
        <ele>538.2</ele>
        <time>2021-07-10T08:24:16</time>
      </trkpt>
      <trkpt lat="44.67649" lon="4.84656">
        <ele>538.4</ele>
        <time>2021-07-10T08:24:17</time>
      </trkpt>
      <trkpt lat="44.67649" lon="4.84657">
        <ele>538.4</ele>
        <time>2021-07-10T08:24:18</time>
      </trkpt>
      <trkpt lat="44.67643" lon="4.84653">
        <ele>538.6</ele>
        <time>2021-07-10T08:24:19</time>
      </trkpt>
      <trkpt lat="44.67638" lon="4.84657">
        <ele>538.6</ele>
        <time>2021-07-10T08:24:20</time>
      </trkpt>
      <trkpt lat="44.67638" lon="4.84657">
        <ele>538.6</ele>
        <time>2021-07-10T08:24:21</time>
      </trkpt>
      <trkpt lat="44.67639" lon="4.84654">
        <ele>538.8</ele>
        <time>2021-07-10T08:24:22</time>
      </trkpt>
      <trkpt lat="44.67637" lon="4.84656">
        <ele>539</ele>
        <time>2021-07-10T08:24:23</time>
      </trkpt>
      <trkpt lat="44.67637" lon="4.84656">
        <ele>539</ele>
        <time>2021-07-10T08:24:24</time>
      </trkpt>
      <trkpt lat="44.67637" lon="4.8466">
        <ele>539.2</ele>
        <time>2021-07-10T08:24:25</time>
      </trkpt>
      <trkpt lat="44.67634" lon="4.84658">
        <ele>539.4</ele>
        <time>2021-07-10T08:24:26</time>
      </trkpt>
      <trkpt lat="44.67634" lon="4.84658">
        <ele>539.4</ele>
        <time>2021-07-10T08:24:27</time>
      </trkpt>
      <trkpt lat="44.67633" lon="4.84659">
        <ele>539.6</ele>
        <time>2021-07-10T08:24:28</time>
      </trkpt>
      <trkpt lat="44.67632" lon="4.84657">
        <ele>539.6</ele>
        <time>2021-07-10T08:24:29</time>
      </trkpt>
      <trkpt lat="44.67632" lon="4.84657">
        <ele>539.8</ele>
        <time>2021-07-10T08:24:30</time>
      </trkpt>
      <trkpt lat="44.6763" lon="4.84659">
        <ele>539.8</ele>
        <time>2021-07-10T08:24:31</time>
      </trkpt>
      <trkpt lat="44.6763" lon="4.84661">
        <ele>540</ele>
        <time>2021-07-10T08:24:32</time>
      </trkpt>
      <trkpt lat="44.67628" lon="4.84664">
        <ele>540.2</ele>
        <time>2021-07-10T08:24:33</time>
      </trkpt>
      <trkpt lat="44.67623" lon="4.84664">
        <ele>540.4</ele>
        <time>2021-07-10T08:24:34</time>
      </trkpt>
      <trkpt lat="44.67621" lon="4.84662">
        <ele>540.4</ele>
        <time>2021-07-10T08:24:35</time>
      </trkpt>
      <trkpt lat="44.67621" lon="4.84662">
        <ele>540.6</ele>
        <time>2021-07-10T08:24:36</time>
      </trkpt>
      <trkpt lat="44.6762" lon="4.84661">
        <ele>540.6</ele>
        <time>2021-07-10T08:24:37</time>
      </trkpt>
      <trkpt lat="44.67616" lon="4.84659">
        <ele>541.2</ele>
        <time>2021-07-10T08:24:42</time>
      </trkpt>
      <trkpt lat="44.67616" lon="4.8466">
        <ele>541.4</ele>
        <time>2021-07-10T08:24:43</time>
      </trkpt>
      <trkpt lat="44.67614" lon="4.84664">
        <ele>541.4</ele>
        <time>2021-07-10T08:24:44</time>
      </trkpt>
      <trkpt lat="44.67616" lon="4.84663">
        <ele>541.6</ele>
        <time>2021-07-10T08:24:45</time>
      </trkpt>
      <trkpt lat="44.67616" lon="4.84661">
        <ele>541.6</ele>
        <time>2021-07-10T08:24:46</time>
      </trkpt>
      <trkpt lat="44.67616" lon="4.84661">
        <ele>541.8</ele>
        <time>2021-07-10T08:24:47</time>
      </trkpt>
      <trkpt lat="44.67614" lon="4.84659">
        <ele>541.8</ele>
        <time>2021-07-10T08:24:48</time>
      </trkpt>
      <trkpt lat="44.67614" lon="4.84659">
        <ele>542</ele>
        <time>2021-07-10T08:24:49</time>
      </trkpt>
      <trkpt lat="-65535" lon="-65535">
        <ele>542</ele>
        <time>2021-07-10T08:24:50</time>
      </trkpt>
      <trkpt lat="-65535" lon="-65535">
        <ele>542</ele>
        <time>2021-07-10T08:24:51</time>
      </trkpt>
      <trkpt lat="-65535" lon="-65535">
        <ele>542</ele>
        <time>2021-07-10T08:24:52</time>
      </trkpt>
      <trkpt lat="-65535" lon="-65535">
        <ele>542</ele>
        <time>2021-07-10T08:24:53</time>
      </trkpt>
      <trkpt lat="44.67595" lon="4.84677">
        <ele>543.8</ele>
        <time>2021-07-10T08:25:46</time>
      </trkpt>
      <trkpt lat="44.67592" lon="4.84679">
        <ele>544</ele>
        <time>2021-07-10T08:25:47</time>
      </trkpt>
      <trkpt lat="44.67592" lon="4.84679">
        <ele>544.4</ele>
        <time>2021-07-10T08:25:48</time>
      </trkpt>
      <trkpt lat="44.67589" lon="4.84684">
        <ele>544.6</ele>
        <time>2021-07-10T08:25:49</time>
      </trkpt>
      <trkpt lat="44.67589" lon="4.84684">
        <ele>544.8</ele>
        <time>2021-07-10T08:25:50</time>
      </trkpt>
      <trkpt lat="44.6759" lon="4.84681">
        <ele>545</ele>
        <time>2021-07-10T08:25:51</time>
      </trkpt>
      <trkpt lat="44.6759" lon="4.84681">
        <ele>545.2</ele>
        <time>2021-07-10T08:25:52</time>
      </trkpt>
      <trkpt lat="44.67588" lon="4.84684">
        <ele>545.4</ele>
        <time>2021-07-10T08:25:53</time>
      </trkpt>
      <trkpt lat="44.67587" lon="4.84685">
        <ele>545.6</ele>
        <time>2021-07-10T08:25:54</time>
      </trkpt>
      <trkpt lat="44.67583" lon="4.84685">
        <ele>546</ele>
        <time>2021-07-10T08:25:55</time>
      </trkpt>
      <trkpt lat="44.67583" lon="4.84685">
        <ele>546.2</ele>
        <time>2021-07-10T08:25:56</time>
      </trkpt>
      <trkpt lat="44.67584" lon="4.84686">
        <ele>546.4</ele>
        <time>2021-07-10T08:25:57</time>
      </trkpt>
      <trkpt lat="44.67583" lon="4.84688">
        <ele>546.8</ele>
        <time>2021-07-10T08:25:58</time>
      </trkpt>
      <trkpt lat="44.67583" lon="4.84686">
        <ele>547</ele>
        <time>2021-07-10T08:25:59</time>
      </trkpt>
      <trkpt lat="44.67581" lon="4.84687">
        <ele>547</ele>
        <time>2021-07-10T08:26:00</time>
      </trkpt>
      <trkpt lat="44.67576" lon="4.84692">
        <ele>547.2</ele>
        <time>2021-07-10T08:26:01</time>
      </trkpt>
      <trkpt lat="44.67576" lon="4.84692">
        <ele>547.4</ele>
        <time>2021-07-10T08:26:02</time>
      </trkpt>
      <trkpt lat="44.67566" lon="4.84688">
        <ele>549</ele>
        <time>2021-07-10T08:26:11</time>
      </trkpt>
      <trkpt lat="44.67567" lon="4.84684">
        <ele>549.2</ele>
        <time>2021-07-10T08:26:12</time>
      </trkpt>
      <trkpt lat="44.67567" lon="4.84684">
        <ele>549.4</ele>
        <time>2021-07-10T08:26:13</time>
      </trkpt>
      <trkpt lat="44.67565" lon="4.84686">
        <ele>549.6</ele>
        <time>2021-07-10T08:26:14</time>
      </trkpt>
      <trkpt lat="44.67564" lon="4.84682">
        <ele>549.8</ele>
        <time>2021-07-10T08:26:15</time>
      </trkpt>
      <trkpt lat="44.67564" lon="4.84682">
        <ele>550</ele>
        <time>2021-07-10T08:26:16</time>
      </trkpt>
      <trkpt lat="44.67561" lon="4.84687">
        <ele>550.2</ele>
        <time>2021-07-10T08:26:17</time>
      </trkpt>
      <trkpt lat="44.67558" lon="4.84685">
        <ele>550.4</ele>
        <time>2021-07-10T08:26:18</time>
      </trkpt>
      <trkpt lat="44.67558" lon="4.84685">
        <ele>550.4</ele>
        <time>2021-07-10T08:26:19</time>
      </trkpt>
      <trkpt lat="44.67556" lon="4.84686">
        <ele>550.6</ele>
        <time>2021-07-10T08:26:20</time>
      </trkpt>
      <trkpt lat="44.67554" lon="4.84688">
        <ele>550.8</ele>
        <time>2021-07-10T08:26:21</time>
      </trkpt>
      <trkpt lat="44.67552" lon="4.84687">
        <ele>551</ele>
        <time>2021-07-10T08:26:22</time>
      </trkpt>
      <trkpt lat="44.67552" lon="4.8469">
        <ele>551.2</ele>
        <time>2021-07-10T08:26:23</time>
      </trkpt>
      <trkpt lat="44.67552" lon="4.84692">
        <ele>551.2</ele>
        <time>2021-07-10T08:26:24</time>
      </trkpt>
      <trkpt lat="44.67552" lon="4.84692">
        <ele>551.4</ele>
        <time>2021-07-10T08:26:25</time>
      </trkpt>
      <trkpt lat="44.67552" lon="4.84693">
        <ele>551.6</ele>
        <time>2021-07-10T08:26:26</time>
      </trkpt>
      <trkpt lat="44.67548" lon="4.8469">
        <ele>551.8</ele>
        <time>2021-07-10T08:26:27</time>
      </trkpt>
      <trkpt lat="44.6755" lon="4.84687">
        <ele>552</ele>
        <time>2021-07-10T08:26:28</time>
      </trkpt>
      <trkpt lat="44.67548" lon="4.84688">
        <ele>552.2</ele>
        <time>2021-07-10T08:26:29</time>
      </trkpt>
      <trkpt lat="44.67545" lon="4.84694">
        <ele>552.2</ele>
        <time>2021-07-10T08:26:30</time>
      </trkpt>
      <trkpt lat="44.67545" lon="4.84694">
        <ele>552.4</ele>
        <time>2021-07-10T08:26:31</time>
      </trkpt>
      <trkpt lat="44.67542" lon="4.84694">
        <ele>552.6</ele>
        <time>2021-07-10T08:26:32</time>
      </trkpt>
      <trkpt lat="44.67537" lon="4.8469">
        <ele>553</ele>
        <time>2021-07-10T08:26:33</time>
      </trkpt>
      <trkpt lat="44.67537" lon="4.8469">
        <ele>553.2</ele>
        <time>2021-07-10T08:26:34</time>
      </trkpt>
      <trkpt lat="44.67534" lon="4.84692">
        <ele>553.4</ele>
        <time>2021-07-10T08:26:35</time>
      </trkpt>
      <trkpt lat="44.67534" lon="4.84692">
        <ele>553.6</ele>
        <time>2021-07-10T08:26:36</time>
      </trkpt>
      <trkpt lat="44.67535" lon="4.8469">
        <ele>553.8</ele>
        <time>2021-07-10T08:26:37</time>
      </trkpt>
      <trkpt lat="44.67535" lon="4.84688">
        <ele>554</ele>
        <time>2021-07-10T08:26:38</time>
      </trkpt>
      <trkpt lat="44.67533" lon="4.84689">
        <ele>554.2</ele>
        <time>2021-07-10T08:26:39</time>
      </trkpt>
      <trkpt lat="44.67533" lon="4.84687">
        <ele>554.4</ele>
        <time>2021-07-10T08:26:40</time>
      </trkpt>
      <trkpt lat="44.67533" lon="4.84685">
        <ele>554.6</ele>
        <time>2021-07-10T08:26:41</time>
      </trkpt>
      <trkpt lat="44.67533" lon="4.84685">
        <ele>554.8</ele>
        <time>2021-07-10T08:26:42</time>
      </trkpt>
      <trkpt lat="44.67531" lon="4.84686">
        <ele>554.8</ele>
        <time>2021-07-10T08:26:43</time>
      </trkpt>
      <trkpt lat="44.67531" lon="4.84684">
        <ele>555</ele>
        <time>2021-07-10T08:26:44</time>
      </trkpt>
      <trkpt lat="44.67531" lon="4.84684">
        <ele>555.2</ele>
        <time>2021-07-10T08:26:45</time>
      </trkpt>
      <trkpt lat="44.6753" lon="4.84686">
        <ele>555.4</ele>
        <time>2021-07-10T08:26:46</time>
      </trkpt>
      <trkpt lat="44.67525" lon="4.84683">
        <ele>555.6</ele>
        <time>2021-07-10T08:26:47</time>
      </trkpt>
      <trkpt lat="44.67525" lon="4.84683">
        <ele>555.8</ele>
        <time>2021-07-10T08:26:48</time>
      </trkpt>
      <trkpt lat="44.67524" lon="4.84684">
        <ele>556</ele>
        <time>2021-07-10T08:26:49</time>
      </trkpt>
      <trkpt lat="44.67524" lon="4.84684">
        <ele>556.2</ele>
        <time>2021-07-10T08:26:50</time>
      </trkpt>
      <trkpt lat="44.6752" lon="4.84694">
        <ele>556.4</ele>
        <time>2021-07-10T08:26:51</time>
      </trkpt>
      <trkpt lat="44.67516" lon="4.84695">
        <ele>556.6</ele>
        <time>2021-07-10T08:26:52</time>
      </trkpt>
      <trkpt lat="44.67514" lon="4.84698">
        <ele>556.8</ele>
        <time>2021-07-10T08:26:53</time>
      </trkpt>
      <trkpt lat="44.67514" lon="4.84698">
        <ele>557</ele>
        <time>2021-07-10T08:26:54</time>
      </trkpt>
      <trkpt lat="44.67515" lon="4.84701">
        <ele>557.2</ele>
        <time>2021-07-10T08:26:55</time>
      </trkpt>
      <trkpt lat="44.67516" lon="4.847">
        <ele>557.4</ele>
        <time>2021-07-10T08:26:56</time>
      </trkpt>
      <trkpt lat="44.67516" lon="4.84696">
        <ele>557.8</ele>
        <time>2021-07-10T08:26:57</time>
      </trkpt>
      <trkpt lat="44.6751" lon="4.847">
        <ele>558.2</ele>
        <time>2021-07-10T08:26:58</time>
      </trkpt>
      <trkpt lat="44.6751" lon="4.847">
        <ele>558.4</ele>
        <time>2021-07-10T08:26:59</time>
      </trkpt>
      <trkpt lat="44.67509" lon="4.84698">
        <ele>558.8</ele>
        <time>2021-07-10T08:27:00</time>
      </trkpt>
      <trkpt lat="44.67509" lon="4.84696">
        <ele>559</ele>
        <time>2021-07-10T08:27:01</time>
      </trkpt>
      <trkpt lat="44.67507" lon="4.84696">
        <ele>559.4</ele>
        <time>2021-07-10T08:27:02</time>
      </trkpt>
      <trkpt lat="44.67505" lon="4.84696">
        <ele>559.6</ele>
        <time>2021-07-10T08:27:03</time>
      </trkpt>
      <trkpt lat="44.675" lon="4.84701">
        <ele>559.8</ele>
        <time>2021-07-10T08:27:04</time>
      </trkpt>
      <trkpt lat="44.675" lon="4.84701">
        <ele>560.2</ele>
        <time>2021-07-10T08:27:05</time>
      </trkpt>
      <trkpt lat="44.67499" lon="4.84701">
        <ele>560.4</ele>
        <time>2021-07-10T08:27:06</time>
      </trkpt>
      <trkpt lat="44.67496" lon="4.84703">
        <ele>560.6</ele>
        <time>2021-07-10T08:27:07</time>
      </trkpt>
      <trkpt lat="44.67494" lon="4.84702">
        <ele>560.8</ele>
        <time>2021-07-10T08:27:08</time>
      </trkpt>
      <trkpt lat="44.67491" lon="4.84701">
        <ele>561</ele>
        <time>2021-07-10T08:27:09</time>
      </trkpt>
      <trkpt lat="44.67489" lon="4.84701">
        <ele>561.2</ele>
        <time>2021-07-10T08:27:10</time>
      </trkpt>
      <trkpt lat="44.67489" lon="4.84701">
        <ele>561.4</ele>
        <time>2021-07-10T08:27:11</time>
      </trkpt>
      <trkpt lat="44.67486" lon="4.84702">
        <ele>561.6</ele>
        <time>2021-07-10T08:27:12</time>
      </trkpt>
      <trkpt lat="44.67487" lon="4.847">
        <ele>561.8</ele>
        <time>2021-07-10T08:27:13</time>
      </trkpt>
      <trkpt lat="44.67487" lon="4.84701">
        <ele>562</ele>
        <time>2021-07-10T08:27:14</time>
      </trkpt>
      <trkpt lat="44.67481" lon="4.84697">
        <ele>562.2</ele>
        <time>2021-07-10T08:27:15</time>
      </trkpt>
      <trkpt lat="44.67481" lon="4.84697">
        <ele>562.2</ele>
        <time>2021-07-10T08:27:16</time>
      </trkpt>
      <trkpt lat="44.67478" lon="4.84703">
        <ele>562.4</ele>
        <time>2021-07-10T08:27:17</time>
      </trkpt>
      <trkpt lat="44.67477" lon="4.84703">
        <ele>562.6</ele>
        <time>2021-07-10T08:27:18</time>
      </trkpt>
      <trkpt lat="44.67478" lon="4.84699">
        <ele>562.8</ele>
        <time>2021-07-10T08:27:19</time>
      </trkpt>
      <trkpt lat="44.67475" lon="4.84695">
        <ele>563</ele>
        <time>2021-07-10T08:27:20</time>
      </trkpt>
      <trkpt lat="44.67474" lon="4.84695">
        <ele>563.2</ele>
        <time>2021-07-10T08:27:21</time>
      </trkpt>
      <trkpt lat="44.67474" lon="4.84695">
        <ele>563.2</ele>
        <time>2021-07-10T08:27:22</time>
      </trkpt>
      <trkpt lat="44.67474" lon="4.84696">
        <ele>563.4</ele>
        <time>2021-07-10T08:27:23</time>
      </trkpt>
      <trkpt lat="44.67477" lon="4.84694">
        <ele>563.6</ele>
        <time>2021-07-10T08:27:24</time>
      </trkpt>
      <trkpt lat="44.67472" lon="4.84697">
        <ele>563.6</ele>
        <time>2021-07-10T08:27:25</time>
      </trkpt>
      <trkpt lat="44.67469" lon="4.84697">
        <ele>563.8</ele>
        <time>2021-07-10T08:27:26</time>
      </trkpt>
      <trkpt lat="44.67468" lon="4.84696">
        <ele>564</ele>
        <time>2021-07-10T08:27:27</time>
      </trkpt>
      <trkpt lat="44.67468" lon="4.84696">
        <ele>564.2</ele>
        <time>2021-07-10T08:27:28</time>
      </trkpt>
      <trkpt lat="44.67468" lon="4.84694">
        <ele>564.4</ele>
        <time>2021-07-10T08:27:29</time>
      </trkpt>
      <trkpt lat="44.67466" lon="4.84696">
        <ele>564.6</ele>
        <time>2021-07-10T08:27:30</time>
      </trkpt>
      <trkpt lat="44.67464" lon="4.84696">
        <ele>564.6</ele>
        <time>2021-07-10T08:27:31</time>
      </trkpt>
      <trkpt lat="44.67461" lon="4.84697">
        <ele>564.8</ele>
        <time>2021-07-10T08:27:32</time>
      </trkpt>
      <trkpt lat="44.67462" lon="4.84696">
        <ele>565</ele>
        <time>2021-07-10T08:27:33</time>
      </trkpt>
      <trkpt lat="44.6746" lon="4.84697">
        <ele>565.2</ele>
        <time>2021-07-10T08:27:34</time>
      </trkpt>
      <trkpt lat="44.6746" lon="4.84697">
        <ele>565.4</ele>
        <time>2021-07-10T08:27:35</time>
      </trkpt>
      <trkpt lat="44.67461" lon="4.84698">
        <ele>565.4</ele>
        <time>2021-07-10T08:27:36</time>
      </trkpt>
      <trkpt lat="44.6746" lon="4.84697">
        <ele>565.6</ele>
        <time>2021-07-10T08:27:37</time>
      </trkpt>
      <trkpt lat="44.67458" lon="4.84695">
        <ele>565.8</ele>
        <time>2021-07-10T08:27:38</time>
      </trkpt>
      <trkpt lat="44.67458" lon="4.84695">
        <ele>566</ele>
        <time>2021-07-10T08:27:39</time>
      </trkpt>
      <trkpt lat="44.67458" lon="4.84694">
        <ele>566.2</ele>
        <time>2021-07-10T08:27:40</time>
      </trkpt>
      <trkpt lat="44.67457" lon="4.84696">
        <ele>566.4</ele>
        <time>2021-07-10T08:27:41</time>
      </trkpt>
      <trkpt lat="44.67457" lon="4.84695">
        <ele>566.4</ele>
        <time>2021-07-10T08:27:42</time>
      </trkpt>
      <trkpt lat="44.67454" lon="4.84694">
        <ele>566.6</ele>
        <time>2021-07-10T08:27:43</time>
      </trkpt>
      <trkpt lat="44.67452" lon="4.84694">
        <ele>566.8</ele>
        <time>2021-07-10T08:27:44</time>
      </trkpt>
      <trkpt lat="44.67452" lon="4.84694">
        <ele>566.8</ele>
        <time>2021-07-10T08:27:45</time>
      </trkpt>
      <trkpt lat="44.6745" lon="4.84695">
        <ele>567</ele>
        <time>2021-07-10T08:27:46</time>
      </trkpt>
      <trkpt lat="44.67445" lon="4.84697">
        <ele>567</ele>
        <time>2021-07-10T08:27:47</time>
      </trkpt>
      <trkpt lat="44.67442" lon="4.84701">
        <ele>567.2</ele>
        <time>2021-07-10T08:27:48</time>
      </trkpt>
      <trkpt lat="44.67438" lon="4.847">
        <ele>567.2</ele>
        <time>2021-07-10T08:27:49</time>
      </trkpt>
      <trkpt lat="44.67436" lon="4.84697">
        <ele>567.2</ele>
        <time>2021-07-10T08:27:50</time>
      </trkpt>
      <trkpt lat="44.67436" lon="4.84697">
        <ele>567.2</ele>
        <time>2021-07-10T08:27:51</time>
      </trkpt>
      <trkpt lat="44.67437" lon="4.84694">
        <ele>567.4</ele>
        <time>2021-07-10T08:27:52</time>
      </trkpt>
      <trkpt lat="44.67434" lon="4.84695">
        <ele>567.4</ele>
        <time>2021-07-10T08:27:53</time>
      </trkpt>
      <trkpt lat="44.67434" lon="4.84695">
        <ele>567.4</ele>
        <time>2021-07-10T08:27:54</time>
      </trkpt>
      <trkpt lat="44.67433" lon="4.84691">
        <ele>567.4</ele>
        <time>2021-07-10T08:27:55</time>
      </trkpt>
      <trkpt lat="44.67433" lon="4.84691">
        <ele>567.4</ele>
        <time>2021-07-10T08:27:56</time>
      </trkpt>
      <trkpt lat="44.67431" lon="4.8469">
        <ele>567.4</ele>
        <time>2021-07-10T08:27:57</time>
      </trkpt>
      <trkpt lat="44.67432" lon="4.84685">
        <ele>567.4</ele>
        <time>2021-07-10T08:27:58</time>
      </trkpt>
      <trkpt lat="44.67429" lon="4.84685">
        <ele>567.4</ele>
        <time>2021-07-10T08:27:59</time>
      </trkpt>
      <trkpt lat="44.67427" lon="4.84683">
        <ele>567.4</ele>
        <time>2021-07-10T08:28:00</time>
      </trkpt>
      <trkpt lat="44.67421" lon="4.84681">
        <ele>567.6</ele>
        <time>2021-07-10T08:28:01</time>
      </trkpt>
      <trkpt lat="44.67421" lon="4.84681">
        <ele>567.6</ele>
        <time>2021-07-10T08:28:02</time>
      </trkpt>
      <trkpt lat="44.67415" lon="4.84682">
        <ele>567.6</ele>
        <time>2021-07-10T08:28:03</time>
      </trkpt>
      <trkpt lat="44.67415" lon="4.84682">
        <ele>567.8</ele>
        <time>2021-07-10T08:28:04</time>
      </trkpt>
      <trkpt lat="44.6741" lon="4.84683">
        <ele>567.8</ele>
        <time>2021-07-10T08:28:05</time>
      </trkpt>
      <trkpt lat="44.67408" lon="4.84685">
        <ele>568</ele>
        <time>2021-07-10T08:28:06</time>
      </trkpt>
      <trkpt lat="44.67402" lon="4.84682">
        <ele>568</ele>
        <time>2021-07-10T08:28:07</time>
      </trkpt>
      <trkpt lat="44.67402" lon="4.84682">
        <ele>568.2</ele>
        <time>2021-07-10T08:28:08</time>
      </trkpt>
      <trkpt lat="44.67397" lon="4.8468">
        <ele>568.2</ele>
        <time>2021-07-10T08:28:09</time>
      </trkpt>
      <trkpt lat="44.67396" lon="4.84676">
        <ele>568.2</ele>
        <time>2021-07-10T08:28:10</time>
      </trkpt>
      <trkpt lat="44.67395" lon="4.84673">
        <ele>568.4</ele>
        <time>2021-07-10T08:28:11</time>
      </trkpt>
      <trkpt lat="44.67392" lon="4.84674">
        <ele>568.4</ele>
        <time>2021-07-10T08:28:12</time>
      </trkpt>
      <trkpt lat="44.67392" lon="4.84674">
        <ele>568.4</ele>
        <time>2021-07-10T08:28:13</time>
      </trkpt>
      <trkpt lat="44.67387" lon="4.84674">
        <ele>568.4</ele>
        <time>2021-07-10T08:28:14</time>
      </trkpt>
      <trkpt lat="44.67385" lon="4.84676">
        <ele>568.6</ele>
        <time>2021-07-10T08:28:15</time>
      </trkpt>
      <trkpt lat="44.67382" lon="4.84675">
        <ele>568.6</ele>
        <time>2021-07-10T08:28:16</time>
      </trkpt>
      <trkpt lat="44.67382" lon="4.84675">
        <ele>568.8</ele>
        <time>2021-07-10T08:28:17</time>
      </trkpt>
      <trkpt lat="44.67378" lon="4.84674">
        <ele>568.8</ele>
        <time>2021-07-10T08:28:18</time>
      </trkpt>
      <trkpt lat="44.67378" lon="4.84674">
        <ele>568.8</ele>
        <time>2021-07-10T08:28:19</time>
      </trkpt>
      <trkpt lat="44.67373" lon="4.84673">
        <ele>568.8</ele>
        <time>2021-07-10T08:28:20</time>
      </trkpt>
      <trkpt lat="44.67373" lon="4.84673">
        <ele>568.8</ele>
        <time>2021-07-10T08:28:21</time>
      </trkpt>
      <trkpt lat="44.67373" lon="4.84669">
        <ele>568.8</ele>
        <time>2021-07-10T08:28:22</time>
      </trkpt>
      <trkpt lat="44.67372" lon="4.84668">
        <ele>568.8</ele>
        <time>2021-07-10T08:28:23</time>
      </trkpt>
      <trkpt lat="44.67369" lon="4.84664">
        <ele>569</ele>
        <time>2021-07-10T08:28:24</time>
      </trkpt>
      <trkpt lat="44.67368" lon="4.84663">
        <ele>569</ele>
        <time>2021-07-10T08:28:25</time>
      </trkpt>
      <trkpt lat="44.67368" lon="4.84663">
        <ele>568.4</ele>
        <time>2021-07-10T08:28:26</time>
      </trkpt>
      <trkpt lat="44.67366" lon="4.84662">
        <ele>568.4</ele>
        <time>2021-07-10T08:28:27</time>
      </trkpt>
      <trkpt lat="44.67364" lon="4.84659">
        <ele>568.6</ele>
        <time>2021-07-10T08:28:28</time>
      </trkpt>
      <trkpt lat="44.67363" lon="4.84658">
        <ele>568.8</ele>
        <time>2021-07-10T08:28:29</time>
      </trkpt>
      <trkpt lat="44.67359" lon="4.84658">
        <ele>569.4</ele>
        <time>2021-07-10T08:28:30</time>
      </trkpt>
      <trkpt lat="44.67357" lon="4.84658">
        <ele>569.4</ele>
        <time>2021-07-10T08:28:31</time>
      </trkpt>
      <trkpt lat="44.67354" lon="4.84657">
        <ele>569.2</ele>
        <time>2021-07-10T08:28:32</time>
      </trkpt>
      <trkpt lat="44.67353" lon="4.84657">
        <ele>569.2</ele>
        <time>2021-07-10T08:28:33</time>
      </trkpt>
      <trkpt lat="44.67353" lon="4.84657">
        <ele>569.2</ele>
        <time>2021-07-10T08:28:34</time>
      </trkpt>
      <trkpt lat="44.67349" lon="4.84656">
        <ele>569.2</ele>
        <time>2021-07-10T08:28:35</time>
      </trkpt>
      <trkpt lat="44.67345" lon="4.84654">
        <ele>569</ele>
        <time>2021-07-10T08:28:36</time>
      </trkpt>
      <trkpt lat="44.67345" lon="4.84654">
        <ele>569</ele>
        <time>2021-07-10T08:28:37</time>
      </trkpt>
      <trkpt lat="44.67346" lon="4.84655">
        <ele>569</ele>
        <time>2021-07-10T08:28:38</time>
      </trkpt>
      <trkpt lat="44.67348" lon="4.84658">
        <ele>568.8</ele>
        <time>2021-07-10T08:28:39</time>
      </trkpt>
      <trkpt lat="44.67348" lon="4.84658">
        <ele>568.8</ele>
        <time>2021-07-10T08:28:40</time>
      </trkpt>
      <trkpt lat="44.67348" lon="4.8466">
        <ele>568.8</ele>
        <time>2021-07-10T08:28:41</time>
      </trkpt>
      <trkpt lat="44.67349" lon="4.84661">
        <ele>568.6</ele>
        <time>2021-07-10T08:28:42</time>
      </trkpt>
      <trkpt lat="44.67348" lon="4.84663">
        <ele>568.6</ele>
        <time>2021-07-10T08:28:43</time>
      </trkpt>
      <trkpt lat="44.67348" lon="4.8466">
        <ele>568.6</ele>
        <time>2021-07-10T08:28:44</time>
      </trkpt>
      <trkpt lat="44.67314" lon="4.84643">
        <ele>566.8</ele>
        <time>2021-07-10T08:32:27</time>
      </trkpt>
      <trkpt lat="44.67314" lon="4.84643">
        <ele>566.6</ele>
        <time>2021-07-10T08:32:28</time>
      </trkpt>
      <trkpt lat="44.6731" lon="4.84636">
        <ele>566.2</ele>
        <time>2021-07-10T08:32:29</time>
      </trkpt>
      <trkpt lat="44.67303" lon="4.84627">
        <ele>566</ele>
        <time>2021-07-10T08:32:30</time>
      </trkpt>
      <trkpt lat="44.67303" lon="4.84627">
        <ele>565.6</ele>
        <time>2021-07-10T08:32:31</time>
      </trkpt>
      <trkpt lat="44.673" lon="4.84624">
        <ele>565.2</ele>
        <time>2021-07-10T08:32:32</time>
      </trkpt>
      <trkpt lat="44.67297" lon="4.8462">
        <ele>564.8</ele>
        <time>2021-07-10T08:32:33</time>
      </trkpt>
      <trkpt lat="44.67295" lon="4.84616">
        <ele>564.2</ele>
        <time>2021-07-10T08:32:34</time>
      </trkpt>
      <trkpt lat="44.67288" lon="4.84615">
        <ele>563.6</ele>
        <time>2021-07-10T08:32:35</time>
      </trkpt>
      <trkpt lat="44.67283" lon="4.84611">
        <ele>562.8</ele>
        <time>2021-07-10T08:32:36</time>
      </trkpt>
      <trkpt lat="44.67283" lon="4.84611">
        <ele>562</ele>
        <time>2021-07-10T08:32:37</time>
      </trkpt>
      <trkpt lat="44.67273" lon="4.84608">
        <ele>561</ele>
        <time>2021-07-10T08:32:38</time>
      </trkpt>
      <trkpt lat="44.6727" lon="4.84608">
        <ele>560.2</ele>
        <time>2021-07-10T08:32:39</time>
      </trkpt>
      <trkpt lat="44.67264" lon="4.84603">
        <ele>559.2</ele>
        <time>2021-07-10T08:32:40</time>
      </trkpt>
      <trkpt lat="44.67258" lon="4.846">
        <ele>558.4</ele>
        <time>2021-07-10T08:32:41</time>
      </trkpt>
      <trkpt lat="44.67258" lon="4.846">
        <ele>557.4</ele>
        <time>2021-07-10T08:32:42</time>
      </trkpt>
      <trkpt lat="44.6725" lon="4.84591">
        <ele>556.4</ele>
        <time>2021-07-10T08:32:43</time>
      </trkpt>
      <trkpt lat="44.67246" lon="4.84592">
        <ele>555.6</ele>
        <time>2021-07-10T08:32:44</time>
      </trkpt>
      <trkpt lat="44.67241" lon="4.84588">
        <ele>554.6</ele>
        <time>2021-07-10T08:32:45</time>
      </trkpt>
      <trkpt lat="44.67238" lon="4.84587">
        <ele>553.8</ele>
        <time>2021-07-10T08:32:46</time>
      </trkpt>
      <trkpt lat="44.67232" lon="4.84578">
        <ele>553</ele>
        <time>2021-07-10T08:32:47</time>
      </trkpt>
      <trkpt lat="44.67232" lon="4.84578">
        <ele>552.2</ele>
        <time>2021-07-10T08:32:48</time>
      </trkpt>
      <trkpt lat="44.67229" lon="4.84575">
        <ele>551.4</ele>
        <time>2021-07-10T08:32:49</time>
      </trkpt>
      <trkpt lat="44.67224" lon="4.84572">
        <ele>550.8</ele>
        <time>2021-07-10T08:32:50</time>
      </trkpt>
      <trkpt lat="44.67218" lon="4.8457">
        <ele>550</ele>
        <time>2021-07-10T08:32:51</time>
      </trkpt>
      <trkpt lat="44.67214" lon="4.84563">
        <ele>549.2</ele>
        <time>2021-07-10T08:32:52</time>
      </trkpt>
      <trkpt lat="44.67204" lon="4.84556">
        <ele>548.2</ele>
        <time>2021-07-10T08:32:53</time>
      </trkpt>
      <trkpt lat="44.67204" lon="4.84556">
        <ele>547.2</ele>
        <time>2021-07-10T08:32:54</time>
      </trkpt>
      <trkpt lat="44.67193" lon="4.84553">
        <ele>546.2</ele>
        <time>2021-07-10T08:32:55</time>
      </trkpt>
      <trkpt lat="44.67184" lon="4.84555">
        <ele>545.2</ele>
        <time>2021-07-10T08:32:56</time>
      </trkpt>
      <trkpt lat="44.6718" lon="4.84553">
        <ele>544.4</ele>
        <time>2021-07-10T08:32:57</time>
      </trkpt>
      <trkpt lat="44.6717" lon="4.84548">
        <ele>543.6</ele>
        <time>2021-07-10T08:32:58</time>
      </trkpt>
      <trkpt lat="44.6717" lon="4.84548">
        <ele>542.8</ele>
        <time>2021-07-10T08:32:59</time>
      </trkpt>
      <trkpt lat="44.67165" lon="4.84544">
        <ele>542.2</ele>
        <time>2021-07-10T08:33:00</time>
      </trkpt>
      <trkpt lat="44.67154" lon="4.84537">
        <ele>541.6</ele>
        <time>2021-07-10T08:33:01</time>
      </trkpt>
      <trkpt lat="44.67154" lon="4.84537">
        <ele>541</ele>
        <time>2021-07-10T08:33:02</time>
      </trkpt>
      <trkpt lat="44.67146" lon="4.84531">
        <ele>540.4</ele>
        <time>2021-07-10T08:33:03</time>
      </trkpt>
      <trkpt lat="44.67135" lon="4.84518">
        <ele>540</ele>
        <time>2021-07-10T08:33:04</time>
      </trkpt>
      <trkpt lat="44.67135" lon="4.84518">
        <ele>539.8</ele>
        <time>2021-07-10T08:33:05</time>
      </trkpt>
      <trkpt lat="44.67128" lon="4.84512">
        <ele>539.6</ele>
        <time>2021-07-10T08:33:06</time>
      </trkpt>
      <trkpt lat="44.67127" lon="4.84508">
        <ele>539.4</ele>
        <time>2021-07-10T08:33:07</time>
      </trkpt>
      <trkpt lat="44.67126" lon="4.84504">
        <ele>539.2</ele>
        <time>2021-07-10T08:33:08</time>
      </trkpt>
      <trkpt lat="44.67125" lon="4.84501">
        <ele>539.2</ele>
        <time>2021-07-10T08:33:09</time>
      </trkpt>
      <trkpt lat="44.67122" lon="4.845">
        <ele>539.2</ele>
        <time>2021-07-10T08:33:10</time>
      </trkpt>
      <trkpt lat="44.67122" lon="4.845">
        <ele>539.2</ele>
        <time>2021-07-10T08:33:11</time>
      </trkpt>
      <trkpt lat="44.67123" lon="4.845">
        <ele>539.2</ele>
        <time>2021-07-10T08:33:12</time>
      </trkpt>
      <trkpt lat="44.67121" lon="4.845">
        <ele>539.2</ele>
        <time>2021-07-10T08:33:13</time>
      </trkpt>
      <trkpt lat="44.6712" lon="4.84499">
        <ele>539.2</ele>
        <time>2021-07-10T08:33:14</time>
      </trkpt>
      <trkpt lat="44.6712" lon="4.84498">
        <ele>539.4</ele>
        <time>2021-07-10T08:33:15</time>
      </trkpt>
      <trkpt lat="44.6712" lon="4.84498">
        <ele>539.4</ele>
        <time>2021-07-10T08:33:16</time>
      </trkpt>
      <trkpt lat="44.6712" lon="4.84498">
        <ele>539.4</ele>
        <time>2021-07-10T08:33:17</time>
      </trkpt>
      <trkpt lat="44.6712" lon="4.84498">
        <ele>539.4</ele>
        <time>2021-07-10T08:33:18</time>
      </trkpt>
      <trkpt lat="44.6712" lon="4.84498">
        <ele>539.4</ele>
        <time>2021-07-10T08:33:19</time>
      </trkpt>
      <trkpt lat="44.67095" lon="4.8448">
        <ele>535.6</ele>
        <time>2021-07-10T08:36:01</time>
      </trkpt>
      <trkpt lat="44.67094" lon="4.84478">
        <ele>535.8</ele>
        <time>2021-07-10T08:36:02</time>
      </trkpt>
      <trkpt lat="44.67092" lon="4.84478">
        <ele>536</ele>
        <time>2021-07-10T08:36:03</time>
      </trkpt>
      <trkpt lat="44.67091" lon="4.84478">
        <ele>536.2</ele>
        <time>2021-07-10T08:36:04</time>
      </trkpt>
      <trkpt lat="44.67089" lon="4.84477">
        <ele>536.6</ele>
        <time>2021-07-10T08:36:05</time>
      </trkpt>
      <trkpt lat="44.67087" lon="4.84473">
        <ele>536.8</ele>
        <time>2021-07-10T08:36:06</time>
      </trkpt>
      <trkpt lat="44.67087" lon="4.84473">
        <ele>537.2</ele>
        <time>2021-07-10T08:36:07</time>
      </trkpt>
      <trkpt lat="44.67085" lon="4.84472">
        <ele>537.4</ele>
        <time>2021-07-10T08:36:08</time>
      </trkpt>
      <trkpt lat="44.67083" lon="4.84469">
        <ele>537.6</ele>
        <time>2021-07-10T08:36:09</time>
      </trkpt>
      <trkpt lat="44.67083" lon="4.84469">
        <ele>537.8</ele>
        <time>2021-07-10T08:36:10</time>
      </trkpt>
      <trkpt lat="44.67081" lon="4.84471">
        <ele>538.2</ele>
        <time>2021-07-10T08:36:11</time>
      </trkpt>
      <trkpt lat="44.67081" lon="4.84472">
        <ele>538.4</ele>
        <time>2021-07-10T08:36:12</time>
      </trkpt>
      <trkpt lat="44.67079" lon="4.84473">
        <ele>538.6</ele>
        <time>2021-07-10T08:36:13</time>
      </trkpt>
      <trkpt lat="44.67077" lon="4.84472">
        <ele>538.8</ele>
        <time>2021-07-10T08:36:14</time>
      </trkpt>
      <trkpt lat="44.67076" lon="4.84473">
        <ele>539</ele>
        <time>2021-07-10T08:36:15</time>
      </trkpt>
      <trkpt lat="44.67075" lon="4.84472">
        <ele>539.2</ele>
        <time>2021-07-10T08:36:16</time>
      </trkpt>
      <trkpt lat="44.67074" lon="4.8447">
        <ele>539.4</ele>
        <time>2021-07-10T08:36:17</time>
      </trkpt>
      <trkpt lat="44.67073" lon="4.84468">
        <ele>539.6</ele>
        <time>2021-07-10T08:36:18</time>
      </trkpt>
      <trkpt lat="44.67072" lon="4.84467">
        <ele>539.8</ele>
        <time>2021-07-10T08:36:19</time>
      </trkpt>
      <trkpt lat="44.67071" lon="4.84466">
        <ele>540</ele>
        <time>2021-07-10T08:36:20</time>
      </trkpt>
      <trkpt lat="44.67069" lon="4.84464">
        <ele>540.2</ele>
        <time>2021-07-10T08:36:21</time>
      </trkpt>
      <trkpt lat="44.67067" lon="4.84462">
        <ele>540.4</ele>
        <time>2021-07-10T08:36:22</time>
      </trkpt>
      <trkpt lat="44.67067" lon="4.84462">
        <ele>540.6</ele>
        <time>2021-07-10T08:36:23</time>
      </trkpt>
      <trkpt lat="44.67066" lon="4.84462">
        <ele>540.8</ele>
        <time>2021-07-10T08:36:24</time>
      </trkpt>
      <trkpt lat="44.67065" lon="4.84461">
        <ele>540.8</ele>
        <time>2021-07-10T08:36:25</time>
      </trkpt>
      <trkpt lat="44.67062" lon="4.84461">
        <ele>541.2</ele>
        <time>2021-07-10T08:36:26</time>
      </trkpt>
      <trkpt lat="44.67062" lon="4.84461">
        <ele>541.2</ele>
        <time>2021-07-10T08:36:27</time>
      </trkpt>
      <trkpt lat="44.67061" lon="4.84459">
        <ele>541.4</ele>
        <time>2021-07-10T08:36:28</time>
      </trkpt>
      <trkpt lat="44.67059" lon="4.84456">
        <ele>541.6</ele>
        <time>2021-07-10T08:36:29</time>
      </trkpt>
      <trkpt lat="44.67059" lon="4.84456">
        <ele>541.6</ele>
        <time>2021-07-10T08:36:30</time>
      </trkpt>
      <trkpt lat="44.67057" lon="4.84456">
        <ele>541.8</ele>
        <time>2021-07-10T08:36:31</time>
      </trkpt>
      <trkpt lat="44.67056" lon="4.84454">
        <ele>542</ele>
        <time>2021-07-10T08:36:32</time>
      </trkpt>
      <trkpt lat="44.67054" lon="4.8445">
        <ele>542.2</ele>
        <time>2021-07-10T08:36:33</time>
      </trkpt>
      <trkpt lat="44.67054" lon="4.8445">
        <ele>542.6</ele>
        <time>2021-07-10T08:36:34</time>
      </trkpt>
      <trkpt lat="44.67051" lon="4.8445">
        <ele>542.6</ele>
        <time>2021-07-10T08:36:35</time>
      </trkpt>
      <trkpt lat="44.6705" lon="4.84449">
        <ele>542.8</ele>
        <time>2021-07-10T08:36:36</time>
      </trkpt>
      <trkpt lat="44.67048" lon="4.84447">
        <ele>543</ele>
        <time>2021-07-10T08:36:37</time>
      </trkpt>
      <trkpt lat="44.67047" lon="4.84445">
        <ele>543.2</ele>
        <time>2021-07-10T08:36:38</time>
      </trkpt>
      <trkpt lat="44.67046" lon="4.84443">
        <ele>543.4</ele>
        <time>2021-07-10T08:36:39</time>
      </trkpt>
      <trkpt lat="44.67042" lon="4.84438">
        <ele>543.4</ele>
        <time>2021-07-10T08:36:40</time>
      </trkpt>
      <trkpt lat="44.67042" lon="4.84438">
        <ele>543.6</ele>
        <time>2021-07-10T08:36:41</time>
      </trkpt>
      <trkpt lat="44.67042" lon="4.84437">
        <ele>543.6</ele>
        <time>2021-07-10T08:36:42</time>
      </trkpt>
      <trkpt lat="44.6704" lon="4.84437">
        <ele>543.8</ele>
        <time>2021-07-10T08:36:43</time>
      </trkpt>
      <trkpt lat="44.6704" lon="4.84437">
        <ele>544</ele>
        <time>2021-07-10T08:36:44</time>
      </trkpt>
      <trkpt lat="44.67037" lon="4.84436">
        <ele>544</ele>
        <time>2021-07-10T08:36:45</time>
      </trkpt>
      <trkpt lat="44.67034" lon="4.84433">
        <ele>544.2</ele>
        <time>2021-07-10T08:36:46</time>
      </trkpt>
      <trkpt lat="44.6703" lon="4.8443">
        <ele>544.2</ele>
        <time>2021-07-10T08:36:47</time>
      </trkpt>
      <trkpt lat="44.6703" lon="4.8443">
        <ele>544.2</ele>
        <time>2021-07-10T08:36:48</time>
      </trkpt>
      <trkpt lat="44.67028" lon="4.84429">
        <ele>544.4</ele>
        <time>2021-07-10T08:36:49</time>
      </trkpt>
      <trkpt lat="44.67023" lon="4.84424">
        <ele>544.4</ele>
        <time>2021-07-10T08:36:50</time>
      </trkpt>
      <trkpt lat="44.67023" lon="4.84424">
        <ele>544.4</ele>
        <time>2021-07-10T08:36:51</time>
      </trkpt>
      <trkpt lat="44.6702" lon="4.84422">
        <ele>544.4</ele>
        <time>2021-07-10T08:36:52</time>
      </trkpt>
      <trkpt lat="44.67014" lon="4.8442">
        <ele>544.4</ele>
        <time>2021-07-10T08:36:53</time>
      </trkpt>
      <trkpt lat="44.67014" lon="4.8442">
        <ele>544.2</ele>
        <time>2021-07-10T08:36:54</time>
      </trkpt>
      <trkpt lat="44.67011" lon="4.84421">
        <ele>544</ele>
        <time>2021-07-10T08:36:55</time>
      </trkpt>
      <trkpt lat="44.67008" lon="4.84421">
        <ele>543.6</ele>
        <time>2021-07-10T08:36:56</time>
      </trkpt>
      <trkpt lat="44.67007" lon="4.84422">
        <ele>543.4</ele>
        <time>2021-07-10T08:36:57</time>
      </trkpt>
      <trkpt lat="44.67005" lon="4.84421">
        <ele>543</ele>
        <time>2021-07-10T08:36:58</time>
      </trkpt>
      <trkpt lat="44.67001" lon="4.84421">
        <ele>542.8</ele>
        <time>2021-07-10T08:36:59</time>
      </trkpt>
      <trkpt lat="44.66994" lon="4.84417">
        <ele>542.4</ele>
        <time>2021-07-10T08:37:00</time>
      </trkpt>
      <trkpt lat="44.66994" lon="4.84417">
        <ele>541.8</ele>
        <time>2021-07-10T08:37:01</time>
      </trkpt>
      <trkpt lat="44.66993" lon="4.84417">
        <ele>541.4</ele>
        <time>2021-07-10T08:37:02</time>
      </trkpt>
      <trkpt lat="44.6699" lon="4.84413">
        <ele>540.8</ele>
        <time>2021-07-10T08:37:03</time>
      </trkpt>
      <trkpt lat="44.66988" lon="4.84408">
        <ele>540.2</ele>
        <time>2021-07-10T08:37:04</time>
      </trkpt>
      <trkpt lat="44.66983" lon="4.84403">
        <ele>539.6</ele>
        <time>2021-07-10T08:37:05</time>
      </trkpt>
      <trkpt lat="44.66979" lon="4.84398">
        <ele>538.8</ele>
        <time>2021-07-10T08:37:06</time>
      </trkpt>
      <trkpt lat="44.66976" lon="4.84392">
        <ele>538</ele>
        <time>2021-07-10T08:37:07</time>
      </trkpt>
      <trkpt lat="44.66973" lon="4.84385">
        <ele>537.2</ele>
        <time>2021-07-10T08:37:08</time>
      </trkpt>
      <trkpt lat="44.66968" lon="4.84379">
        <ele>536.2</ele>
        <time>2021-07-10T08:37:09</time>
      </trkpt>
      <trkpt lat="44.66968" lon="4.84379">
        <ele>535.4</ele>
        <time>2021-07-10T08:37:10</time>
      </trkpt>
      <trkpt lat="44.66962" lon="4.84371">
        <ele>534.2</ele>
        <time>2021-07-10T08:37:11</time>
      </trkpt>
      <trkpt lat="44.66958" lon="4.84364">
        <ele>533.2</ele>
        <time>2021-07-10T08:37:12</time>
      </trkpt>
      <trkpt lat="44.66958" lon="4.84364">
        <ele>532</ele>
        <time>2021-07-10T08:37:13</time>
      </trkpt>
      <trkpt lat="44.66957" lon="4.8436">
        <ele>531</ele>
        <time>2021-07-10T08:37:14</time>
      </trkpt>
      <trkpt lat="44.66953" lon="4.84358">
        <ele>529.8</ele>
        <time>2021-07-10T08:37:15</time>
      </trkpt>
      <trkpt lat="44.66951" lon="4.84361">
        <ele>528.8</ele>
        <time>2021-07-10T08:37:16</time>
      </trkpt>
      <trkpt lat="44.6695" lon="4.8436">
        <ele>527.8</ele>
        <time>2021-07-10T08:37:17</time>
      </trkpt>
      <trkpt lat="44.66947" lon="4.84359">
        <ele>527</ele>
        <time>2021-07-10T08:37:18</time>
      </trkpt>
      <trkpt lat="44.66945" lon="4.8436">
        <ele>526.6</ele>
        <time>2021-07-10T08:37:19</time>
      </trkpt>
      <trkpt lat="44.6694" lon="4.84366">
        <ele>526.2</ele>
        <time>2021-07-10T08:37:20</time>
      </trkpt>
      <trkpt lat="44.66938" lon="4.84368">
        <ele>525.8</ele>
        <time>2021-07-10T08:37:21</time>
      </trkpt>
      <trkpt lat="44.66938" lon="4.84368">
        <ele>525.4</ele>
        <time>2021-07-10T08:37:22</time>
      </trkpt>
      <trkpt lat="44.66935" lon="4.8437">
        <ele>525.2</ele>
        <time>2021-07-10T08:37:23</time>
      </trkpt>
      <trkpt lat="44.66934" lon="4.84376">
        <ele>525</ele>
        <time>2021-07-10T08:37:24</time>
      </trkpt>
      <trkpt lat="44.66932" lon="4.84379">
        <ele>524.6</ele>
        <time>2021-07-10T08:37:25</time>
      </trkpt>
      <trkpt lat="44.66928" lon="4.84392">
        <ele>524.2</ele>
        <time>2021-07-10T08:37:26</time>
      </trkpt>
      <trkpt lat="44.66928" lon="4.84392">
        <ele>523.8</ele>
        <time>2021-07-10T08:37:27</time>
      </trkpt>
      <trkpt lat="44.66924" lon="4.84398">
        <ele>523.6</ele>
        <time>2021-07-10T08:37:28</time>
      </trkpt>
      <trkpt lat="44.66921" lon="4.84403">
        <ele>523.2</ele>
        <time>2021-07-10T08:37:29</time>
      </trkpt>
      <trkpt lat="44.66917" lon="4.84407">
        <ele>522.8</ele>
        <time>2021-07-10T08:37:30</time>
      </trkpt>
      <trkpt lat="44.66914" lon="4.8441">
        <ele>522.2</ele>
        <time>2021-07-10T08:37:31</time>
      </trkpt>
      <trkpt lat="44.66912" lon="4.84412">
        <ele>521.8</ele>
        <time>2021-07-10T08:37:32</time>
      </trkpt>
      <trkpt lat="44.66902" lon="4.84414">
        <ele>521.2</ele>
        <time>2021-07-10T08:37:33</time>
      </trkpt>
      <trkpt lat="44.66902" lon="4.84414">
        <ele>520.2</ele>
        <time>2021-07-10T08:37:34</time>
      </trkpt>
      <trkpt lat="44.66898" lon="4.84416">
        <ele>519.2</ele>
        <time>2021-07-10T08:37:35</time>
      </trkpt>
      <trkpt lat="44.66888" lon="4.84421">
        <ele>518</ele>
        <time>2021-07-10T08:37:36</time>
      </trkpt>
      <trkpt lat="44.66888" lon="4.84421">
        <ele>516.8</ele>
        <time>2021-07-10T08:37:37</time>
      </trkpt>
      <trkpt lat="44.66884" lon="4.84423">
        <ele>515.6</ele>
        <time>2021-07-10T08:37:38</time>
      </trkpt>
      <trkpt lat="44.66879" lon="4.84423">
        <ele>514.6</ele>
        <time>2021-07-10T08:37:39</time>
      </trkpt>
      <trkpt lat="44.66875" lon="4.84425">
        <ele>513.4</ele>
        <time>2021-07-10T08:37:40</time>
      </trkpt>
      <trkpt lat="44.66871" lon="4.84426">
        <ele>512.4</ele>
        <time>2021-07-10T08:37:41</time>
      </trkpt>
      <trkpt lat="44.66868" lon="4.84427">
        <ele>511.4</ele>
        <time>2021-07-10T08:37:42</time>
      </trkpt>
      <trkpt lat="44.66864" lon="4.84428">
        <ele>510.2</ele>
        <time>2021-07-10T08:37:43</time>
      </trkpt>
      <trkpt lat="44.66861" lon="4.84428">
        <ele>509.4</ele>
        <time>2021-07-10T08:37:44</time>
      </trkpt>
      <trkpt lat="44.66856" lon="4.84427">
        <ele>508.2</ele>
        <time>2021-07-10T08:37:45</time>
      </trkpt>
      <trkpt lat="44.66846" lon="4.84426">
        <ele>507</ele>
        <time>2021-07-10T08:37:46</time>
      </trkpt>
      <trkpt lat="44.66846" lon="4.84426">
        <ele>505.8</ele>
        <time>2021-07-10T08:37:47</time>
      </trkpt>
      <trkpt lat="44.66835" lon="4.8443">
        <ele>504.8</ele>
        <time>2021-07-10T08:37:48</time>
      </trkpt>
      <trkpt lat="44.66835" lon="4.8443">
        <ele>503.4</ele>
        <time>2021-07-10T08:37:49</time>
      </trkpt>
      <trkpt lat="44.66829" lon="4.84433">
        <ele>502</ele>
        <time>2021-07-10T08:37:50</time>
      </trkpt>
      <trkpt lat="44.66816" lon="4.84437">
        <ele>500.6</ele>
        <time>2021-07-10T08:37:51</time>
      </trkpt>
      <trkpt lat="44.66816" lon="4.84437">
        <ele>499.2</ele>
        <time>2021-07-10T08:37:52</time>
      </trkpt>
      <trkpt lat="44.66809" lon="4.84437">
        <ele>497.8</ele>
        <time>2021-07-10T08:37:53</time>
      </trkpt>
      <trkpt lat="44.66804" lon="4.84437">
        <ele>496.4</ele>
        <time>2021-07-10T08:37:54</time>
      </trkpt>
      <trkpt lat="44.66797" lon="4.8444">
        <ele>495</ele>
        <time>2021-07-10T08:37:55</time>
      </trkpt>
      <trkpt lat="44.66791" lon="4.8444">
        <ele>493.6</ele>
        <time>2021-07-10T08:37:56</time>
      </trkpt>
      <trkpt lat="44.66787" lon="4.84442">
        <ele>492.4</ele>
        <time>2021-07-10T08:37:57</time>
      </trkpt>
      <trkpt lat="44.66783" lon="4.84445">
        <ele>491</ele>
        <time>2021-07-10T08:37:58</time>
      </trkpt>
      <trkpt lat="44.66777" lon="4.84447">
        <ele>489.8</ele>
        <time>2021-07-10T08:37:59</time>
      </trkpt>
      <trkpt lat="44.6677" lon="4.84454">
        <ele>488.6</ele>
        <time>2021-07-10T08:38:00</time>
      </trkpt>
      <trkpt lat="44.66765" lon="4.84459">
        <ele>487.6</ele>
        <time>2021-07-10T08:38:01</time>
      </trkpt>
      <trkpt lat="44.66759" lon="4.84465">
        <ele>486.8</ele>
        <time>2021-07-10T08:38:02</time>
      </trkpt>
      <trkpt lat="44.66753" lon="4.84469">
        <ele>486</ele>
        <time>2021-07-10T08:38:03</time>
      </trkpt>
      <trkpt lat="44.66746" lon="4.84473">
        <ele>485</ele>
        <time>2021-07-10T08:38:04</time>
      </trkpt>
      <trkpt lat="44.66746" lon="4.84473">
        <ele>484</ele>
        <time>2021-07-10T08:38:05</time>
      </trkpt>
      <trkpt lat="44.66736" lon="4.84481">
        <ele>482.8</ele>
        <time>2021-07-10T08:38:06</time>
      </trkpt>
      <trkpt lat="44.6673" lon="4.84486">
        <ele>481.6</ele>
        <time>2021-07-10T08:38:07</time>
      </trkpt>
      <trkpt lat="44.6673" lon="4.84486">
        <ele>480.8</ele>
        <time>2021-07-10T08:38:08</time>
      </trkpt>
      <trkpt lat="44.66721" lon="4.84496">
        <ele>480</ele>
        <time>2021-07-10T08:38:09</time>
      </trkpt>
      <trkpt lat="44.66709" lon="4.8451">
        <ele>479.4</ele>
        <time>2021-07-10T08:38:10</time>
      </trkpt>
      <trkpt lat="44.66709" lon="4.8451">
        <ele>479</ele>
        <time>2021-07-10T08:38:11</time>
      </trkpt>
      <trkpt lat="44.66708" lon="4.84518">
        <ele>478.4</ele>
        <time>2021-07-10T08:38:12</time>
      </trkpt>
      <trkpt lat="44.66706" lon="4.84524">
        <ele>478</ele>
        <time>2021-07-10T08:38:13</time>
      </trkpt>
      <trkpt lat="44.66702" lon="4.84532">
        <ele>477.4</ele>
        <time>2021-07-10T08:38:14</time>
      </trkpt>
      <trkpt lat="44.66701" lon="4.8454">
        <ele>476.8</ele>
        <time>2021-07-10T08:38:15</time>
      </trkpt>
      <trkpt lat="44.66701" lon="4.84549">
        <ele>475.8</ele>
        <time>2021-07-10T08:38:16</time>
      </trkpt>
      <trkpt lat="44.66699" lon="4.84558">
        <ele>475</ele>
        <time>2021-07-10T08:38:17</time>
      </trkpt>
      <trkpt lat="44.66698" lon="4.84567">
        <ele>474.2</ele>
        <time>2021-07-10T08:38:18</time>
      </trkpt>
      <trkpt lat="44.66699" lon="4.84574">
        <ele>473.4</ele>
        <time>2021-07-10T08:38:19</time>
      </trkpt>
      <trkpt lat="44.66698" lon="4.84589">
        <ele>472.2</ele>
        <time>2021-07-10T08:38:20</time>
      </trkpt>
      <trkpt lat="44.66698" lon="4.84589">
        <ele>471</ele>
        <time>2021-07-10T08:38:21</time>
      </trkpt>
      <trkpt lat="44.66698" lon="4.84595">
        <ele>469.6</ele>
        <time>2021-07-10T08:38:22</time>
      </trkpt>
      <trkpt lat="44.66698" lon="4.846">
        <ele>468.2</ele>
        <time>2021-07-10T08:38:23</time>
      </trkpt>
      <trkpt lat="44.66698" lon="4.84605">
        <ele>467</ele>
        <time>2021-07-10T08:38:24</time>
      </trkpt>
      <trkpt lat="44.66698" lon="4.84605">
        <ele>466.2</ele>
        <time>2021-07-10T08:38:25</time>
      </trkpt>
      <trkpt lat="44.66698" lon="4.84607">
        <ele>465.8</ele>
        <time>2021-07-10T08:38:26</time>
      </trkpt>
      <trkpt lat="44.66698" lon="4.84608">
        <ele>465.4</ele>
        <time>2021-07-10T08:38:27</time>
      </trkpt>
      <trkpt lat="44.667" lon="4.84607">
        <ele>465.2</ele>
        <time>2021-07-10T08:38:28</time>
      </trkpt>
      <trkpt lat="44.667" lon="4.84607">
        <ele>464.8</ele>
        <time>2021-07-10T08:38:29</time>
      </trkpt>
      <trkpt lat="44.667" lon="4.84607">
        <ele>464.8</ele>
        <time>2021-07-10T08:38:30</time>
      </trkpt>
      <trkpt lat="44.667" lon="4.84608">
        <ele>464.6</ele>
        <time>2021-07-10T08:38:31</time>
      </trkpt>
      <trkpt lat="44.66699" lon="4.84609">
        <ele>464.4</ele>
        <time>2021-07-10T08:38:32</time>
      </trkpt>
      <trkpt lat="44.667" lon="4.84609">
        <ele>464.6</ele>
        <time>2021-07-10T08:38:33</time>
      </trkpt>
      <trkpt lat="44.66701" lon="4.84608">
        <ele>464.8</ele>
        <time>2021-07-10T08:38:34</time>
      </trkpt>
      <trkpt lat="44.66701" lon="4.84607">
        <ele>464.8</ele>
        <time>2021-07-10T08:38:35</time>
      </trkpt>
      <trkpt lat="44.66702" lon="4.84645">
        <ele>463.2</ele>
        <time>2021-07-10T08:38:51</time>
      </trkpt>
      <trkpt lat="44.66703" lon="4.84659">
        <ele>463</ele>
        <time>2021-07-10T08:38:52</time>
      </trkpt>
      <trkpt lat="44.66704" lon="4.84665">
        <ele>463</ele>
        <time>2021-07-10T08:38:53</time>
      </trkpt>
      <trkpt lat="44.66704" lon="4.84672">
        <ele>463</ele>
        <time>2021-07-10T08:38:54</time>
      </trkpt>
      <trkpt lat="44.66704" lon="4.84679">
        <ele>463</ele>
        <time>2021-07-10T08:38:55</time>
      </trkpt>
      <trkpt lat="44.66704" lon="4.84694">
        <ele>462.8</ele>
        <time>2021-07-10T08:38:56</time>
      </trkpt>
      <trkpt lat="44.66704" lon="4.84694">
        <ele>462.8</ele>
        <time>2021-07-10T08:38:57</time>
      </trkpt>
      <trkpt lat="44.66706" lon="4.847">
        <ele>462.6</ele>
        <time>2021-07-10T08:38:58</time>
      </trkpt>
      <trkpt lat="44.66713" lon="4.84714">
        <ele>462.6</ele>
        <time>2021-07-10T08:38:59</time>
      </trkpt>
      <trkpt lat="44.66713" lon="4.84714">
        <ele>462.4</ele>
        <time>2021-07-10T08:39:00</time>
      </trkpt>
      <trkpt lat="44.66715" lon="4.84721">
        <ele>462.4</ele>
        <time>2021-07-10T08:39:01</time>
      </trkpt>
      <trkpt lat="44.66718" lon="4.84726">
        <ele>462.4</ele>
        <time>2021-07-10T08:39:02</time>
      </trkpt>
      <trkpt lat="44.66718" lon="4.84731">
        <ele>462.2</ele>
        <time>2021-07-10T08:39:03</time>
      </trkpt>
      <trkpt lat="44.66719" lon="4.84737">
        <ele>462.2</ele>
        <time>2021-07-10T08:39:04</time>
      </trkpt>
      <trkpt lat="44.6672" lon="4.84743">
        <ele>462.2</ele>
        <time>2021-07-10T08:39:05</time>
      </trkpt>
      <trkpt lat="44.66719" lon="4.84748">
        <ele>462</ele>
        <time>2021-07-10T08:39:06</time>
      </trkpt>
      <trkpt lat="44.66717" lon="4.84754">
        <ele>462</ele>
        <time>2021-07-10T08:39:07</time>
      </trkpt>
      <trkpt lat="44.66717" lon="4.84754">
        <ele>462.2</ele>
        <time>2021-07-10T08:39:08</time>
      </trkpt>
      <trkpt lat="44.66715" lon="4.84756">
        <ele>462.2</ele>
        <time>2021-07-10T08:39:09</time>
      </trkpt>
      <trkpt lat="44.66714" lon="4.84757">
        <ele>462.4</ele>
        <time>2021-07-10T08:39:10</time>
      </trkpt>
      <trkpt lat="44.66712" lon="4.84759">
        <ele>462.4</ele>
        <time>2021-07-10T08:39:11</time>
      </trkpt>
      <trkpt lat="44.6671" lon="4.84761">
        <ele>462.4</ele>
        <time>2021-07-10T08:39:12</time>
      </trkpt>
      <trkpt lat="44.66709" lon="4.84763">
        <ele>462.6</ele>
        <time>2021-07-10T08:39:13</time>
      </trkpt>
      <trkpt lat="44.66709" lon="4.84763">
        <ele>462.6</ele>
        <time>2021-07-10T08:39:14</time>
      </trkpt>
      <trkpt lat="44.66705" lon="4.84765">
        <ele>462.8</ele>
        <time>2021-07-10T08:39:15</time>
      </trkpt>
      <trkpt lat="44.66705" lon="4.84765">
        <ele>463</ele>
        <time>2021-07-10T08:39:16</time>
      </trkpt>
      <trkpt lat="44.66703" lon="4.84765">
        <ele>463.2</ele>
        <time>2021-07-10T08:39:17</time>
      </trkpt>
      <trkpt lat="44.66701" lon="4.84767">
        <ele>463.4</ele>
        <time>2021-07-10T08:39:18</time>
      </trkpt>
      <trkpt lat="44.667" lon="4.84768">
        <ele>463.6</ele>
        <time>2021-07-10T08:39:19</time>
      </trkpt>
      <trkpt lat="44.66698" lon="4.8477">
        <ele>463.8</ele>
        <time>2021-07-10T08:39:20</time>
      </trkpt>
      <trkpt lat="44.66696" lon="4.8477">
        <ele>464</ele>
        <time>2021-07-10T08:39:21</time>
      </trkpt>
      <trkpt lat="44.66694" lon="4.84771">
        <ele>464</ele>
        <time>2021-07-10T08:39:22</time>
      </trkpt>
      <trkpt lat="44.66692" lon="4.84772">
        <ele>464.2</ele>
        <time>2021-07-10T08:39:23</time>
      </trkpt>
      <trkpt lat="44.66687" lon="4.84773">
        <ele>464.4</ele>
        <time>2021-07-10T08:39:24</time>
      </trkpt>
      <trkpt lat="44.66687" lon="4.84773">
        <ele>464.4</ele>
        <time>2021-07-10T08:39:25</time>
      </trkpt>
      <trkpt lat="44.66684" lon="4.84772">
        <ele>464.6</ele>
        <time>2021-07-10T08:39:26</time>
      </trkpt>
      <trkpt lat="44.66684" lon="4.84772">
        <ele>464.6</ele>
        <time>2021-07-10T08:39:27</time>
      </trkpt>
      <trkpt lat="44.6668" lon="4.84773">
        <ele>464.8</ele>
        <time>2021-07-10T08:39:28</time>
      </trkpt>
      <trkpt lat="44.6668" lon="4.84773">
        <ele>464.8</ele>
        <time>2021-07-10T08:39:29</time>
      </trkpt>
      <trkpt lat="44.66677" lon="4.84772">
        <ele>464.8</ele>
        <time>2021-07-10T08:39:30</time>
      </trkpt>
      <trkpt lat="44.66674" lon="4.84775">
        <ele>464.8</ele>
        <time>2021-07-10T08:39:31</time>
      </trkpt>
      <trkpt lat="44.6667" lon="4.84773">
        <ele>464.8</ele>
        <time>2021-07-10T08:39:32</time>
      </trkpt>
      <trkpt lat="44.66666" lon="4.84773">
        <ele>464.6</ele>
        <time>2021-07-10T08:39:33</time>
      </trkpt>
      <trkpt lat="44.66663" lon="4.84773">
        <ele>464.4</ele>
        <time>2021-07-10T08:39:34</time>
      </trkpt>
      <trkpt lat="44.66658" lon="4.84772">
        <ele>464.2</ele>
        <time>2021-07-10T08:39:35</time>
      </trkpt>
      <trkpt lat="44.66654" lon="4.84772">
        <ele>463.8</ele>
        <time>2021-07-10T08:39:36</time>
      </trkpt>
      <trkpt lat="44.66649" lon="4.84768">
        <ele>463.6</ele>
        <time>2021-07-10T08:39:37</time>
      </trkpt>
      <trkpt lat="44.66645" lon="4.84768">
        <ele>463.6</ele>
        <time>2021-07-10T08:39:38</time>
      </trkpt>
      <trkpt lat="44.66642" lon="4.84769">
        <ele>463.6</ele>
        <time>2021-07-10T08:39:39</time>
      </trkpt>
      <trkpt lat="44.66638" lon="4.84772">
        <ele>463.6</ele>
        <time>2021-07-10T08:39:40</time>
      </trkpt>
      <trkpt lat="44.66635" lon="4.84773">
        <ele>463.6</ele>
        <time>2021-07-10T08:39:41</time>
      </trkpt>
      <trkpt lat="44.66631" lon="4.84773">
        <ele>463.8</ele>
        <time>2021-07-10T08:39:42</time>
      </trkpt>
      <trkpt lat="44.66626" lon="4.84775">
        <ele>464</ele>
        <time>2021-07-10T08:39:43</time>
      </trkpt>
      <trkpt lat="44.66626" lon="4.84775">
        <ele>464</ele>
        <time>2021-07-10T08:39:44</time>
      </trkpt>
      <trkpt lat="44.66622" lon="4.84775">
        <ele>464.2</ele>
        <time>2021-07-10T08:39:45</time>
      </trkpt>
      <trkpt lat="44.66617" lon="4.84774">
        <ele>464.4</ele>
        <time>2021-07-10T08:39:46</time>
      </trkpt>
      <trkpt lat="44.66613" lon="4.84778">
        <ele>464.4</ele>
        <time>2021-07-10T08:39:47</time>
      </trkpt>
      <trkpt lat="44.6661" lon="4.84779">
        <ele>464.6</ele>
        <time>2021-07-10T08:39:48</time>
      </trkpt>
      <trkpt lat="44.66606" lon="4.84779">
        <ele>464.8</ele>
        <time>2021-07-10T08:39:49</time>
      </trkpt>
      <trkpt lat="44.66598" lon="4.84783">
        <ele>464.8</ele>
        <time>2021-07-10T08:39:50</time>
      </trkpt>
      <trkpt lat="44.66598" lon="4.84783">
        <ele>464.8</ele>
        <time>2021-07-10T08:39:51</time>
      </trkpt>
      <trkpt lat="44.66595" lon="4.84785">
        <ele>464.8</ele>
        <time>2021-07-10T08:39:52</time>
      </trkpt>
      <trkpt lat="44.66586" lon="4.84786">
        <ele>465</ele>
        <time>2021-07-10T08:39:53</time>
      </trkpt>
      <trkpt lat="44.66586" lon="4.84786">
        <ele>465</ele>
        <time>2021-07-10T08:39:54</time>
      </trkpt>
      <trkpt lat="44.66583" lon="4.84788">
        <ele>465</ele>
        <time>2021-07-10T08:39:55</time>
      </trkpt>
      <trkpt lat="44.66579" lon="4.84791">
        <ele>465.2</ele>
        <time>2021-07-10T08:39:56</time>
      </trkpt>
      <trkpt lat="44.66577" lon="4.84792">
        <ele>465.6</ele>
        <time>2021-07-10T08:39:57</time>
      </trkpt>
      <trkpt lat="44.66575" lon="4.84794">
        <ele>465.8</ele>
        <time>2021-07-10T08:39:58</time>
      </trkpt>
      <trkpt lat="44.66573" lon="4.84794">
        <ele>466</ele>
        <time>2021-07-10T08:39:59</time>
      </trkpt>
      <trkpt lat="44.66571" lon="4.84796">
        <ele>466.4</ele>
        <time>2021-07-10T08:40:00</time>
      </trkpt>
      <trkpt lat="44.66571" lon="4.84796">
        <ele>466.6</ele>
        <time>2021-07-10T08:40:01</time>
      </trkpt>
      <trkpt lat="44.66568" lon="4.84797">
        <ele>466.8</ele>
        <time>2021-07-10T08:40:02</time>
      </trkpt>
      <trkpt lat="44.66567" lon="4.84793">
        <ele>466.8</ele>
        <time>2021-07-10T08:40:03</time>
      </trkpt>
      <trkpt lat="44.66564" lon="4.84794">
        <ele>467</ele>
        <time>2021-07-10T08:40:04</time>
      </trkpt>
      <trkpt lat="44.66563" lon="4.84796">
        <ele>467.2</ele>
        <time>2021-07-10T08:40:05</time>
      </trkpt>
      <trkpt lat="44.66562" lon="4.84796">
        <ele>467.2</ele>
        <time>2021-07-10T08:40:06</time>
      </trkpt>
      <trkpt lat="44.6656" lon="4.84796">
        <ele>467.4</ele>
        <time>2021-07-10T08:40:07</time>
      </trkpt>
      <trkpt lat="44.66557" lon="4.84799">
        <ele>467.6</ele>
        <time>2021-07-10T08:40:08</time>
      </trkpt>
      <trkpt lat="44.66556" lon="4.84801">
        <ele>467.6</ele>
        <time>2021-07-10T08:40:09</time>
      </trkpt>
      <trkpt lat="44.66554" lon="4.84801">
        <ele>467.8</ele>
        <time>2021-07-10T08:40:10</time>
      </trkpt>
      <trkpt lat="44.66552" lon="4.84802">
        <ele>467.8</ele>
        <time>2021-07-10T08:40:11</time>
      </trkpt>
      <trkpt lat="44.66543" lon="4.84805">
        <ele>468.6</ele>
        <time>2021-07-10T08:40:16</time>
      </trkpt>
      <trkpt lat="44.66542" lon="4.84805">
        <ele>468.8</ele>
        <time>2021-07-10T08:40:17</time>
      </trkpt>
      <trkpt lat="44.6654" lon="4.84806">
        <ele>469</ele>
        <time>2021-07-10T08:40:18</time>
      </trkpt>
      <trkpt lat="44.66539" lon="4.84806">
        <ele>469.2</ele>
        <time>2021-07-10T08:40:19</time>
      </trkpt>
      <trkpt lat="44.66538" lon="4.84807">
        <ele>469.4</ele>
        <time>2021-07-10T08:40:20</time>
      </trkpt>
      <trkpt lat="44.66536" lon="4.84807">
        <ele>469.4</ele>
        <time>2021-07-10T08:40:21</time>
      </trkpt>
      <trkpt lat="44.66535" lon="4.84808">
        <ele>469.6</ele>
        <time>2021-07-10T08:40:22</time>
      </trkpt>
      <trkpt lat="44.66533" lon="4.84809">
        <ele>469.8</ele>
        <time>2021-07-10T08:40:23</time>
      </trkpt>
      <trkpt lat="44.66532" lon="4.8481">
        <ele>470</ele>
        <time>2021-07-10T08:40:24</time>
      </trkpt>
      <trkpt lat="44.6653" lon="4.84811">
        <ele>470</ele>
        <time>2021-07-10T08:40:25</time>
      </trkpt>
      <trkpt lat="44.66529" lon="4.84811">
        <ele>470.2</ele>
        <time>2021-07-10T08:40:26</time>
      </trkpt>
      <trkpt lat="44.66527" lon="4.8481">
        <ele>470.4</ele>
        <time>2021-07-10T08:40:27</time>
      </trkpt>
      <trkpt lat="44.66526" lon="4.84811">
        <ele>470.6</ele>
        <time>2021-07-10T08:40:28</time>
      </trkpt>
      <trkpt lat="44.66524" lon="4.84812">
        <ele>470.8</ele>
        <time>2021-07-10T08:40:29</time>
      </trkpt>
      <trkpt lat="44.66523" lon="4.84812">
        <ele>471</ele>
        <time>2021-07-10T08:40:30</time>
      </trkpt>
      <trkpt lat="44.66521" lon="4.84813">
        <ele>471.2</ele>
        <time>2021-07-10T08:40:31</time>
      </trkpt>
      <trkpt lat="44.6652" lon="4.84813">
        <ele>471.4</ele>
        <time>2021-07-10T08:40:32</time>
      </trkpt>
      <trkpt lat="44.66519" lon="4.84813">
        <ele>471.6</ele>
        <time>2021-07-10T08:40:33</time>
      </trkpt>
      <trkpt lat="44.66518" lon="4.84813">
        <ele>471.8</ele>
        <time>2021-07-10T08:40:34</time>
      </trkpt>
      <trkpt lat="44.66516" lon="4.84813">
        <ele>472</ele>
        <time>2021-07-10T08:40:35</time>
      </trkpt>
      <trkpt lat="44.66514" lon="4.84813">
        <ele>472.2</ele>
        <time>2021-07-10T08:40:36</time>
      </trkpt>
      <trkpt lat="44.66513" lon="4.84814">
        <ele>472.4</ele>
        <time>2021-07-10T08:40:37</time>
      </trkpt>
      <trkpt lat="44.66512" lon="4.84814">
        <ele>472.6</ele>
        <time>2021-07-10T08:40:38</time>
      </trkpt>
      <trkpt lat="44.66497" lon="4.84818">
        <ele>475</ele>
        <time>2021-07-10T08:40:50</time>
      </trkpt>
      <trkpt lat="44.66496" lon="4.84817">
        <ele>475.4</ele>
        <time>2021-07-10T08:40:51</time>
      </trkpt>
      <trkpt lat="44.66494" lon="4.84818">
        <ele>475.6</ele>
        <time>2021-07-10T08:40:52</time>
      </trkpt>
      <trkpt lat="44.66493" lon="4.84819">
        <ele>475.8</ele>
        <time>2021-07-10T08:40:53</time>
      </trkpt>
      <trkpt lat="44.66492" lon="4.8482">
        <ele>476.2</ele>
        <time>2021-07-10T08:40:54</time>
      </trkpt>
      <trkpt lat="44.66491" lon="4.84821">
        <ele>476.4</ele>
        <time>2021-07-10T08:40:55</time>
      </trkpt>
      <trkpt lat="44.66475" lon="4.8483">
        <ele>478</ele>
        <time>2021-07-10T08:41:02</time>
      </trkpt>
      <trkpt lat="44.66475" lon="4.8483">
        <ele>478.2</ele>
        <time>2021-07-10T08:41:03</time>
      </trkpt>
      <trkpt lat="44.6647" lon="4.84831">
        <ele>478.4</ele>
        <time>2021-07-10T08:41:04</time>
      </trkpt>
      <trkpt lat="44.6647" lon="4.84831">
        <ele>478.6</ele>
        <time>2021-07-10T08:41:05</time>
      </trkpt>
      <trkpt lat="44.66469" lon="4.84834">
        <ele>478.8</ele>
        <time>2021-07-10T08:41:06</time>
      </trkpt>
      <trkpt lat="44.66467" lon="4.84834">
        <ele>479</ele>
        <time>2021-07-10T08:41:07</time>
      </trkpt>
      <trkpt lat="44.66465" lon="4.84836">
        <ele>479.4</ele>
        <time>2021-07-10T08:41:08</time>
      </trkpt>
      <trkpt lat="44.66464" lon="4.84836">
        <ele>479.6</ele>
        <time>2021-07-10T08:41:09</time>
      </trkpt>
      <trkpt lat="44.66463" lon="4.84838">
        <ele>479.8</ele>
        <time>2021-07-10T08:41:10</time>
      </trkpt>
      <trkpt lat="44.66462" lon="4.84839">
        <ele>480</ele>
        <time>2021-07-10T08:41:11</time>
      </trkpt>
      <trkpt lat="44.6646" lon="4.84841">
        <ele>480.4</ele>
        <time>2021-07-10T08:41:12</time>
      </trkpt>
      <trkpt lat="44.6646" lon="4.84842">
        <ele>480.6</ele>
        <time>2021-07-10T08:41:13</time>
      </trkpt>
      <trkpt lat="44.66455" lon="4.84842">
        <ele>480.8</ele>
        <time>2021-07-10T08:41:14</time>
      </trkpt>
      <trkpt lat="44.66455" lon="4.84842">
        <ele>481</ele>
        <time>2021-07-10T08:41:15</time>
      </trkpt>
      <trkpt lat="44.66454" lon="4.84842">
        <ele>481.2</ele>
        <time>2021-07-10T08:41:16</time>
      </trkpt>
      <trkpt lat="44.6645" lon="4.84841">
        <ele>481.4</ele>
        <time>2021-07-10T08:41:17</time>
      </trkpt>
      <trkpt lat="44.6645" lon="4.84841">
        <ele>481.8</ele>
        <time>2021-07-10T08:41:18</time>
      </trkpt>
      <trkpt lat="44.66448" lon="4.84842">
        <ele>482</ele>
        <time>2021-07-10T08:41:19</time>
      </trkpt>
      <trkpt lat="44.66448" lon="4.84842">
        <ele>482.2</ele>
        <time>2021-07-10T08:41:20</time>
      </trkpt>
      <trkpt lat="44.66445" lon="4.84841">
        <ele>482.4</ele>
        <time>2021-07-10T08:41:21</time>
      </trkpt>
      <trkpt lat="44.66445" lon="4.84841">
        <ele>482.6</ele>
        <time>2021-07-10T08:41:22</time>
      </trkpt>
      <trkpt lat="44.66445" lon="4.84842">
        <ele>483</ele>
        <time>2021-07-10T08:41:23</time>
      </trkpt>
      <trkpt lat="44.66444" lon="4.84845">
        <ele>483.4</ele>
        <time>2021-07-10T08:41:24</time>
      </trkpt>
      <trkpt lat="44.66443" lon="4.84845">
        <ele>483.6</ele>
        <time>2021-07-10T08:41:25</time>
      </trkpt>
      <trkpt lat="44.66442" lon="4.84845">
        <ele>483.8</ele>
        <time>2021-07-10T08:41:26</time>
      </trkpt>
      <trkpt lat="44.66441" lon="4.84846">
        <ele>484.2</ele>
        <time>2021-07-10T08:41:27</time>
      </trkpt>
      <trkpt lat="44.66439" lon="4.84846">
        <ele>484.4</ele>
        <time>2021-07-10T08:41:28</time>
      </trkpt>
      <trkpt lat="44.66436" lon="4.84845">
        <ele>484.6</ele>
        <time>2021-07-10T08:41:29</time>
      </trkpt>
      <trkpt lat="44.66436" lon="4.84845">
        <ele>485</ele>
        <time>2021-07-10T08:41:30</time>
      </trkpt>
      <trkpt lat="44.66426" lon="4.84845">
        <ele>486.4</ele>
        <time>2021-07-10T08:41:36</time>
      </trkpt>
      <trkpt lat="44.66425" lon="4.84845">
        <ele>486.8</ele>
        <time>2021-07-10T08:41:37</time>
      </trkpt>
      <trkpt lat="44.66423" lon="4.84845">
        <ele>487</ele>
        <time>2021-07-10T08:41:38</time>
      </trkpt>
      <trkpt lat="44.66421" lon="4.84844">
        <ele>487.2</ele>
        <time>2021-07-10T08:41:39</time>
      </trkpt>
      <trkpt lat="44.66419" lon="4.84844">
        <ele>487.6</ele>
        <time>2021-07-10T08:41:40</time>
      </trkpt>
      <trkpt lat="44.66418" lon="4.84844">
        <ele>487.8</ele>
        <time>2021-07-10T08:41:41</time>
      </trkpt>
      <trkpt lat="44.66417" lon="4.84843">
        <ele>488</ele>
        <time>2021-07-10T08:41:42</time>
      </trkpt>
      <trkpt lat="44.66415" lon="4.84844">
        <ele>488.2</ele>
        <time>2021-07-10T08:41:43</time>
      </trkpt>
      <trkpt lat="44.66414" lon="4.84843">
        <ele>488.4</ele>
        <time>2021-07-10T08:41:44</time>
      </trkpt>
      <trkpt lat="44.66383" lon="4.84845">
        <ele>494.2</ele>
        <time>2021-07-10T08:42:09</time>
      </trkpt>
      <trkpt lat="44.66382" lon="4.84847">
        <ele>494.4</ele>
        <time>2021-07-10T08:42:10</time>
      </trkpt>
      <trkpt lat="44.66382" lon="4.84847">
        <ele>494.6</ele>
        <time>2021-07-10T08:42:11</time>
      </trkpt>
      <trkpt lat="44.6638" lon="4.84848">
        <ele>494.8</ele>
        <time>2021-07-10T08:42:12</time>
      </trkpt>
      <trkpt lat="44.66378" lon="4.84849">
        <ele>495.2</ele>
        <time>2021-07-10T08:42:13</time>
      </trkpt>
      <trkpt lat="44.66377" lon="4.84851">
        <ele>495.4</ele>
        <time>2021-07-10T08:42:14</time>
      </trkpt>
      <trkpt lat="44.66377" lon="4.84851">
        <ele>495.6</ele>
        <time>2021-07-10T08:42:15</time>
      </trkpt>
      <trkpt lat="44.66375" lon="4.84852">
        <ele>495.8</ele>
        <time>2021-07-10T08:42:16</time>
      </trkpt>
      <trkpt lat="44.66374" lon="4.84853">
        <ele>496</ele>
        <time>2021-07-10T08:42:17</time>
      </trkpt>
      <trkpt lat="44.66371" lon="4.84853">
        <ele>496.2</ele>
        <time>2021-07-10T08:42:18</time>
      </trkpt>
      <trkpt lat="44.66371" lon="4.84852">
        <ele>496.4</ele>
        <time>2021-07-10T08:42:19</time>
      </trkpt>
      <trkpt lat="44.6637" lon="4.84849">
        <ele>496.8</ele>
        <time>2021-07-10T08:42:20</time>
      </trkpt>
      <trkpt lat="44.6637" lon="4.84849">
        <ele>497.2</ele>
        <time>2021-07-10T08:42:21</time>
      </trkpt>
      <trkpt lat="44.6637" lon="4.8485">
        <ele>497.2</ele>
        <time>2021-07-10T08:42:22</time>
      </trkpt>
      <trkpt lat="44.66369" lon="4.8485">
        <ele>497.4</ele>
        <time>2021-07-10T08:42:23</time>
      </trkpt>
      <trkpt lat="44.66369" lon="4.8485">
        <ele>497.6</ele>
        <time>2021-07-10T08:42:24</time>
      </trkpt>
      <trkpt lat="44.66367" lon="4.84849">
        <ele>497.8</ele>
        <time>2021-07-10T08:42:25</time>
      </trkpt>
      <trkpt lat="44.66352" lon="4.84857">
        <ele>499.6</ele>
        <time>2021-07-10T08:42:33</time>
      </trkpt>
      <trkpt lat="44.66351" lon="4.84856">
        <ele>499.8</ele>
        <time>2021-07-10T08:42:34</time>
      </trkpt>
      <trkpt lat="44.66349" lon="4.84854">
        <ele>500</ele>
        <time>2021-07-10T08:42:35</time>
      </trkpt>
      <trkpt lat="44.66349" lon="4.84854">
        <ele>500.2</ele>
        <time>2021-07-10T08:42:36</time>
      </trkpt>
      <trkpt lat="44.66349" lon="4.84855">
        <ele>500.4</ele>
        <time>2021-07-10T08:42:37</time>
      </trkpt>
      <trkpt lat="44.66348" lon="4.84855">
        <ele>500.6</ele>
        <time>2021-07-10T08:42:38</time>
      </trkpt>
      <trkpt lat="44.66347" lon="4.84852">
        <ele>500.8</ele>
        <time>2021-07-10T08:42:39</time>
      </trkpt>
      <trkpt lat="44.66345" lon="4.84851">
        <ele>501</ele>
        <time>2021-07-10T08:42:40</time>
      </trkpt>
      <trkpt lat="44.66345" lon="4.84851">
        <ele>501</ele>
        <time>2021-07-10T08:42:41</time>
      </trkpt>
      <trkpt lat="44.66343" lon="4.8485">
        <ele>501.2</ele>
        <time>2021-07-10T08:42:42</time>
      </trkpt>
      <trkpt lat="44.66342" lon="4.84852">
        <ele>501.4</ele>
        <time>2021-07-10T08:42:43</time>
      </trkpt>
      <trkpt lat="44.66341" lon="4.84851">
        <ele>501.6</ele>
        <time>2021-07-10T08:42:44</time>
      </trkpt>
      <trkpt lat="44.6634" lon="4.84851">
        <ele>501.6</ele>
        <time>2021-07-10T08:42:45</time>
      </trkpt>
      <trkpt lat="44.6634" lon="4.84852">
        <ele>501.8</ele>
        <time>2021-07-10T08:42:46</time>
      </trkpt>
      <trkpt lat="44.6634" lon="4.84853">
        <ele>502</ele>
        <time>2021-07-10T08:42:47</time>
      </trkpt>
      <trkpt lat="44.66338" lon="4.84854">
        <ele>502</ele>
        <time>2021-07-10T08:42:48</time>
      </trkpt>
      <trkpt lat="44.66336" lon="4.84855">
        <ele>502.2</ele>
        <time>2021-07-10T08:42:49</time>
      </trkpt>
      <trkpt lat="44.66337" lon="4.84856">
        <ele>502.4</ele>
        <time>2021-07-10T08:42:50</time>
      </trkpt>
      <trkpt lat="44.66336" lon="4.84856">
        <ele>502.6</ele>
        <time>2021-07-10T08:42:51</time>
      </trkpt>
      <trkpt lat="44.66334" lon="4.84856">
        <ele>502.8</ele>
        <time>2021-07-10T08:42:52</time>
      </trkpt>
      <trkpt lat="44.66332" lon="4.84856">
        <ele>502.8</ele>
        <time>2021-07-10T08:42:53</time>
      </trkpt>
      <trkpt lat="44.6633" lon="4.84856">
        <ele>503</ele>
        <time>2021-07-10T08:42:54</time>
      </trkpt>
      <trkpt lat="44.6633" lon="4.84856">
        <ele>503.2</ele>
        <time>2021-07-10T08:42:55</time>
      </trkpt>
      <trkpt lat="44.66327" lon="4.84856">
        <ele>503.4</ele>
        <time>2021-07-10T08:42:56</time>
      </trkpt>
      <trkpt lat="44.66325" lon="4.84855">
        <ele>503.6</ele>
        <time>2021-07-10T08:42:57</time>
      </trkpt>
      <trkpt lat="44.6632" lon="4.84853">
        <ele>504.6</ele>
        <time>2021-07-10T08:43:02</time>
      </trkpt>
      <trkpt lat="44.66317" lon="4.84853">
        <ele>504.8</ele>
        <time>2021-07-10T08:43:03</time>
      </trkpt>
      <trkpt lat="44.66317" lon="4.84853">
        <ele>504.8</ele>
        <time>2021-07-10T08:43:04</time>
      </trkpt>
      <trkpt lat="44.66315" lon="4.84854">
        <ele>505</ele>
        <time>2021-07-10T08:43:05</time>
      </trkpt>
      <trkpt lat="44.66314" lon="4.84852">
        <ele>505.2</ele>
        <time>2021-07-10T08:43:06</time>
      </trkpt>
      <trkpt lat="44.66312" lon="4.84853">
        <ele>505.4</ele>
        <time>2021-07-10T08:43:07</time>
      </trkpt>
      <trkpt lat="44.66311" lon="4.84853">
        <ele>505.4</ele>
        <time>2021-07-10T08:43:08</time>
      </trkpt>
      <trkpt lat="44.6631" lon="4.84852">
        <ele>505.6</ele>
        <time>2021-07-10T08:43:09</time>
      </trkpt>
      <trkpt lat="44.66308" lon="4.84853">
        <ele>505.6</ele>
        <time>2021-07-10T08:43:10</time>
      </trkpt>
      <trkpt lat="44.66308" lon="4.84853">
        <ele>505.8</ele>
        <time>2021-07-10T08:43:11</time>
      </trkpt>
      <trkpt lat="44.66302" lon="4.84853">
        <ele>506</ele>
        <time>2021-07-10T08:43:12</time>
      </trkpt>
      <trkpt lat="44.66302" lon="4.84853">
        <ele>506.2</ele>
        <time>2021-07-10T08:43:13</time>
      </trkpt>
      <trkpt lat="44.66302" lon="4.84853">
        <ele>506.4</ele>
        <time>2021-07-10T08:43:14</time>
      </trkpt>
      <trkpt lat="44.66302" lon="4.84853">
        <ele>506.6</ele>
        <time>2021-07-10T08:43:15</time>
      </trkpt>
      <trkpt lat="44.663" lon="4.84854">
        <ele>506.8</ele>
        <time>2021-07-10T08:43:16</time>
      </trkpt>
      <trkpt lat="44.663" lon="4.84854">
        <ele>507</ele>
        <time>2021-07-10T08:43:17</time>
      </trkpt>
      <trkpt lat="44.66297" lon="4.84857">
        <ele>507.2</ele>
        <time>2021-07-10T08:43:18</time>
      </trkpt>
      <trkpt lat="44.66297" lon="4.84857">
        <ele>507.4</ele>
        <time>2021-07-10T08:43:19</time>
      </trkpt>
      <trkpt lat="44.66298" lon="4.84857">
        <ele>507.6</ele>
        <time>2021-07-10T08:43:20</time>
      </trkpt>
      <trkpt lat="44.66298" lon="4.84857">
        <ele>507.8</ele>
        <time>2021-07-10T08:43:21</time>
      </trkpt>
      <trkpt lat="44.66298" lon="4.84856">
        <ele>508</ele>
        <time>2021-07-10T08:43:22</time>
      </trkpt>
      <trkpt lat="44.66297" lon="4.84857">
        <ele>508.2</ele>
        <time>2021-07-10T08:43:23</time>
      </trkpt>
      <trkpt lat="44.66296" lon="4.84857">
        <ele>508.4</ele>
        <time>2021-07-10T08:43:24</time>
      </trkpt>
      <trkpt lat="44.66295" lon="4.84857">
        <ele>508.6</ele>
        <time>2021-07-10T08:43:25</time>
      </trkpt>
      <trkpt lat="44.66293" lon="4.84857">
        <ele>508.8</ele>
        <time>2021-07-10T08:43:26</time>
      </trkpt>
      <trkpt lat="44.66293" lon="4.84857">
        <ele>508.8</ele>
        <time>2021-07-10T08:43:27</time>
      </trkpt>
      <trkpt lat="44.66291" lon="4.84854">
        <ele>509</ele>
        <time>2021-07-10T08:43:28</time>
      </trkpt>
      <trkpt lat="44.66276" lon="4.84854">
        <ele>510.2</ele>
        <time>2021-07-10T08:43:36</time>
      </trkpt>
      <trkpt lat="44.66275" lon="4.84853">
        <ele>510.4</ele>
        <time>2021-07-10T08:43:37</time>
      </trkpt>
      <trkpt lat="44.66274" lon="4.84852">
        <ele>510.6</ele>
        <time>2021-07-10T08:43:38</time>
      </trkpt>
      <trkpt lat="44.66273" lon="4.84851">
        <ele>510.6</ele>
        <time>2021-07-10T08:43:39</time>
      </trkpt>
      <trkpt lat="44.6627" lon="4.84853">
        <ele>510.8</ele>
        <time>2021-07-10T08:43:40</time>
      </trkpt>
      <trkpt lat="44.66268" lon="4.84854">
        <ele>511</ele>
        <time>2021-07-10T08:43:41</time>
      </trkpt>
      <trkpt lat="44.66267" lon="4.84854">
        <ele>511.2</ele>
        <time>2021-07-10T08:43:42</time>
      </trkpt>
      <trkpt lat="44.66264" lon="4.84854">
        <ele>511.4</ele>
        <time>2021-07-10T08:43:43</time>
      </trkpt>
      <trkpt lat="44.66264" lon="4.84854">
        <ele>511.6</ele>
        <time>2021-07-10T08:43:44</time>
      </trkpt>
      <trkpt lat="44.66263" lon="4.84855">
        <ele>511.8</ele>
        <time>2021-07-10T08:43:45</time>
      </trkpt>
      <trkpt lat="44.66261" lon="4.84853">
        <ele>512</ele>
        <time>2021-07-10T08:43:46</time>
      </trkpt>
      <trkpt lat="44.66261" lon="4.84853">
        <ele>512.2</ele>
        <time>2021-07-10T08:43:47</time>
      </trkpt>
      <trkpt lat="44.66259" lon="4.84853">
        <ele>512.4</ele>
        <time>2021-07-10T08:43:48</time>
      </trkpt>
      <trkpt lat="44.66257" lon="4.84856">
        <ele>512.6</ele>
        <time>2021-07-10T08:43:49</time>
      </trkpt>
      <trkpt lat="44.66257" lon="4.84856">
        <ele>512.8</ele>
        <time>2021-07-10T08:43:50</time>
      </trkpt>
      <trkpt lat="44.66255" lon="4.84856">
        <ele>512.8</ele>
        <time>2021-07-10T08:43:51</time>
      </trkpt>
      <trkpt lat="44.66252" lon="4.84858">
        <ele>513</ele>
        <time>2021-07-10T08:43:52</time>
      </trkpt>
      <trkpt lat="44.66252" lon="4.84858">
        <ele>513.2</ele>
        <time>2021-07-10T08:43:53</time>
      </trkpt>
      <trkpt lat="44.6625" lon="4.84859">
        <ele>513.4</ele>
        <time>2021-07-10T08:43:54</time>
      </trkpt>
      <trkpt lat="44.66251" lon="4.84857">
        <ele>513.6</ele>
        <time>2021-07-10T08:43:55</time>
      </trkpt>
      <trkpt lat="44.66229" lon="4.84858">
        <ele>516.6</ele>
        <time>2021-07-10T08:44:12</time>
      </trkpt>
      <trkpt lat="44.66229" lon="4.84859">
        <ele>516.8</ele>
        <time>2021-07-10T08:44:13</time>
      </trkpt>
      <trkpt lat="44.66227" lon="4.84859">
        <ele>517</ele>
        <time>2021-07-10T08:44:14</time>
      </trkpt>
      <trkpt lat="44.66226" lon="4.84859">
        <ele>517.2</ele>
        <time>2021-07-10T08:44:15</time>
      </trkpt>
      <trkpt lat="44.66225" lon="4.84859">
        <ele>517.2</ele>
        <time>2021-07-10T08:44:16</time>
      </trkpt>
      <trkpt lat="44.66224" lon="4.8486">
        <ele>517.4</ele>
        <time>2021-07-10T08:44:17</time>
      </trkpt>
      <trkpt lat="44.66222" lon="4.84858">
        <ele>517.6</ele>
        <time>2021-07-10T08:44:18</time>
      </trkpt>
      <trkpt lat="44.66219" lon="4.84858">
        <ele>517.8</ele>
        <time>2021-07-10T08:44:19</time>
      </trkpt>
      <trkpt lat="44.66217" lon="4.84859">
        <ele>517.8</ele>
        <time>2021-07-10T08:44:20</time>
      </trkpt>
      <trkpt lat="44.66217" lon="4.84859">
        <ele>518</ele>
        <time>2021-07-10T08:44:21</time>
      </trkpt>
      <trkpt lat="44.66216" lon="4.8486">
        <ele>518.2</ele>
        <time>2021-07-10T08:44:22</time>
      </trkpt>
      <trkpt lat="44.66212" lon="4.84858">
        <ele>518.2</ele>
        <time>2021-07-10T08:44:23</time>
      </trkpt>
      <trkpt lat="44.66212" lon="4.84858">
        <ele>518.4</ele>
        <time>2021-07-10T08:44:24</time>
      </trkpt>
      <trkpt lat="44.6621" lon="4.84858">
        <ele>518.6</ele>
        <time>2021-07-10T08:44:25</time>
      </trkpt>
      <trkpt lat="44.66207" lon="4.84859">
        <ele>518.8</ele>
        <time>2021-07-10T08:44:26</time>
      </trkpt>
      <trkpt lat="44.66207" lon="4.84859">
        <ele>519</ele>
        <time>2021-07-10T08:44:27</time>
      </trkpt>
      <trkpt lat="44.66206" lon="4.84857">
        <ele>519.2</ele>
        <time>2021-07-10T08:44:28</time>
      </trkpt>
      <trkpt lat="44.66205" lon="4.84858">
        <ele>519.4</ele>
        <time>2021-07-10T08:44:29</time>
      </trkpt>
      <trkpt lat="44.66203" lon="4.84858">
        <ele>519.4</ele>
        <time>2021-07-10T08:44:30</time>
      </trkpt>
      <trkpt lat="44.66201" lon="4.84859">
        <ele>519.4</ele>
        <time>2021-07-10T08:44:31</time>
      </trkpt>
      <trkpt lat="44.66199" lon="4.84858">
        <ele>517.6</ele>
        <time>2021-07-10T08:44:32</time>
      </trkpt>
      <trkpt lat="44.66197" lon="4.84858">
        <ele>517.6</ele>
        <time>2021-07-10T08:44:33</time>
      </trkpt>
      <trkpt lat="44.66195" lon="4.84858">
        <ele>518</ele>
        <time>2021-07-10T08:44:34</time>
      </trkpt>
      <trkpt lat="44.66193" lon="4.84859">
        <ele>518.2</ele>
        <time>2021-07-10T08:44:35</time>
      </trkpt>
      <trkpt lat="44.6619" lon="4.84859">
        <ele>520.8</ele>
        <time>2021-07-10T08:44:36</time>
      </trkpt>
      <trkpt lat="44.66188" lon="4.84858">
        <ele>521</ele>
        <time>2021-07-10T08:44:37</time>
      </trkpt>
      <trkpt lat="44.66188" lon="4.84858">
        <ele>521</ele>
        <time>2021-07-10T08:44:38</time>
      </trkpt>
      <trkpt lat="44.66187" lon="4.84858">
        <ele>521</ele>
        <time>2021-07-10T08:44:39</time>
      </trkpt>
      <trkpt lat="44.66184" lon="4.8486">
        <ele>520.8</ele>
        <time>2021-07-10T08:44:40</time>
      </trkpt>
      <trkpt lat="44.66183" lon="4.84861">
        <ele>520.8</ele>
        <time>2021-07-10T08:44:41</time>
      </trkpt>
      <trkpt lat="44.66181" lon="4.84861">
        <ele>520.8</ele>
        <time>2021-07-10T08:44:42</time>
      </trkpt>
      <trkpt lat="44.6618" lon="4.8486">
        <ele>520.8</ele>
        <time>2021-07-10T08:44:43</time>
      </trkpt>
      <trkpt lat="44.66179" lon="4.84861">
        <ele>521</ele>
        <time>2021-07-10T08:44:44</time>
      </trkpt>
      <trkpt lat="44.66178" lon="4.8486">
        <ele>521</ele>
        <time>2021-07-10T08:44:45</time>
      </trkpt>
      <trkpt lat="44.66176" lon="4.84862">
        <ele>521.2</ele>
        <time>2021-07-10T08:44:46</time>
      </trkpt>
      <trkpt lat="44.66172" lon="4.84862">
        <ele>521.2</ele>
        <time>2021-07-10T08:44:47</time>
      </trkpt>
      <trkpt lat="44.66172" lon="4.84862">
        <ele>521.4</ele>
        <time>2021-07-10T08:44:48</time>
      </trkpt>
      <trkpt lat="44.6617" lon="4.84864">
        <ele>521.4</ele>
        <time>2021-07-10T08:44:49</time>
      </trkpt>
      <trkpt lat="44.66168" lon="4.84864">
        <ele>521.6</ele>
        <time>2021-07-10T08:44:50</time>
      </trkpt>
      <trkpt lat="44.66167" lon="4.84865">
        <ele>521.6</ele>
        <time>2021-07-10T08:44:51</time>
      </trkpt>
      <trkpt lat="44.66166" lon="4.84866">
        <ele>521.6</ele>
        <time>2021-07-10T08:44:52</time>
      </trkpt>
      <trkpt lat="44.66164" lon="4.84869">
        <ele>521.8</ele>
        <time>2021-07-10T08:44:53</time>
      </trkpt>
      <trkpt lat="44.66163" lon="4.84871">
        <ele>522</ele>
        <time>2021-07-10T08:44:54</time>
      </trkpt>
      <trkpt lat="44.66161" lon="4.8487">
        <ele>522</ele>
        <time>2021-07-10T08:44:55</time>
      </trkpt>
      <trkpt lat="44.66161" lon="4.84871">
        <ele>522.2</ele>
        <time>2021-07-10T08:44:56</time>
      </trkpt>
      <trkpt lat="44.6616" lon="4.84872">
        <ele>522.2</ele>
        <time>2021-07-10T08:44:57</time>
      </trkpt>
      <trkpt lat="44.66157" lon="4.84871">
        <ele>522.4</ele>
        <time>2021-07-10T08:44:58</time>
      </trkpt>
      <trkpt lat="44.66157" lon="4.84871">
        <ele>522.4</ele>
        <time>2021-07-10T08:44:59</time>
      </trkpt>
      <trkpt lat="44.66154" lon="4.84871">
        <ele>522.6</ele>
        <time>2021-07-10T08:45:00</time>
      </trkpt>
      <trkpt lat="44.66154" lon="4.84872">
        <ele>522.6</ele>
        <time>2021-07-10T08:45:01</time>
      </trkpt>
      <trkpt lat="44.66152" lon="4.84871">
        <ele>522.8</ele>
        <time>2021-07-10T08:45:02</time>
      </trkpt>
      <trkpt lat="44.66151" lon="4.84871">
        <ele>523</ele>
        <time>2021-07-10T08:45:03</time>
      </trkpt>
      <trkpt lat="44.66149" lon="4.84871">
        <ele>523</ele>
        <time>2021-07-10T08:45:04</time>
      </trkpt>
      <trkpt lat="44.66147" lon="4.8487">
        <ele>523</ele>
        <time>2021-07-10T08:45:05</time>
      </trkpt>
      <trkpt lat="44.66145" lon="4.84871">
        <ele>523</ele>
        <time>2021-07-10T08:45:06</time>
      </trkpt>
      <trkpt lat="44.66143" lon="4.84873">
        <ele>523.2</ele>
        <time>2021-07-10T08:45:07</time>
      </trkpt>
      <trkpt lat="44.66142" lon="4.84871">
        <ele>523.2</ele>
        <time>2021-07-10T08:45:08</time>
      </trkpt>
      <trkpt lat="44.66139" lon="4.84876">
        <ele>523.2</ele>
        <time>2021-07-10T08:45:09</time>
      </trkpt>
      <trkpt lat="44.66139" lon="4.84876">
        <ele>523.4</ele>
        <time>2021-07-10T08:45:10</time>
      </trkpt>
      <trkpt lat="44.66138" lon="4.84877">
        <ele>523.4</ele>
        <time>2021-07-10T08:45:11</time>
      </trkpt>
      <trkpt lat="44.66136" lon="4.84877">
        <ele>523.6</ele>
        <time>2021-07-10T08:45:12</time>
      </trkpt>
      <trkpt lat="44.66135" lon="4.84879">
        <ele>523.6</ele>
        <time>2021-07-10T08:45:13</time>
      </trkpt>
      <trkpt lat="44.66135" lon="4.84878">
        <ele>523.8</ele>
        <time>2021-07-10T08:45:14</time>
      </trkpt>
      <trkpt lat="44.66136" lon="4.84878">
        <ele>524</ele>
        <time>2021-07-10T08:45:15</time>
      </trkpt>
      <trkpt lat="44.66133" lon="4.84881">
        <ele>524</ele>
        <time>2021-07-10T08:45:16</time>
      </trkpt>
      <trkpt lat="44.66133" lon="4.84881">
        <ele>524.2</ele>
        <time>2021-07-10T08:45:17</time>
      </trkpt>
      <trkpt lat="44.66131" lon="4.84882">
        <ele>524.4</ele>
        <time>2021-07-10T08:45:18</time>
      </trkpt>
      <trkpt lat="44.6613" lon="4.84883">
        <ele>524.4</ele>
        <time>2021-07-10T08:45:19</time>
      </trkpt>
      <trkpt lat="44.66127" lon="4.84882">
        <ele>524.6</ele>
        <time>2021-07-10T08:45:20</time>
      </trkpt>
      <trkpt lat="44.66125" lon="4.84885">
        <ele>524.8</ele>
        <time>2021-07-10T08:45:21</time>
      </trkpt>
      <trkpt lat="44.66122" lon="4.84886">
        <ele>524.8</ele>
        <time>2021-07-10T08:45:22</time>
      </trkpt>
      <trkpt lat="44.66115" lon="4.8489">
        <ele>525.6</ele>
        <time>2021-07-10T08:45:29</time>
      </trkpt>
      <trkpt lat="44.66114" lon="4.84895">
        <ele>525.8</ele>
        <time>2021-07-10T08:45:30</time>
      </trkpt>
      <trkpt lat="44.66111" lon="4.84898">
        <ele>526</ele>
        <time>2021-07-10T08:45:31</time>
      </trkpt>
      <trkpt lat="44.6611" lon="4.84899">
        <ele>526</ele>
        <time>2021-07-10T08:45:32</time>
      </trkpt>
      <trkpt lat="44.66108" lon="4.84899">
        <ele>526.2</ele>
        <time>2021-07-10T08:45:33</time>
      </trkpt>
      <trkpt lat="44.66106" lon="4.84899">
        <ele>526.4</ele>
        <time>2021-07-10T08:45:34</time>
      </trkpt>
      <trkpt lat="44.66103" lon="4.84902">
        <ele>526.6</ele>
        <time>2021-07-10T08:45:35</time>
      </trkpt>
      <trkpt lat="44.66088" lon="4.84923">
        <ele>528.8</ele>
        <time>2021-07-10T08:45:47</time>
      </trkpt>
      <trkpt lat="44.66087" lon="4.84923">
        <ele>529</ele>
        <time>2021-07-10T08:45:48</time>
      </trkpt>
      <trkpt lat="44.66086" lon="4.84925">
        <ele>529.2</ele>
        <time>2021-07-10T08:45:49</time>
      </trkpt>
      <trkpt lat="44.66084" lon="4.84926">
        <ele>529.4</ele>
        <time>2021-07-10T08:45:50</time>
      </trkpt>
      <trkpt lat="44.66082" lon="4.84929">
        <ele>529.6</ele>
        <time>2021-07-10T08:45:51</time>
      </trkpt>
      <trkpt lat="44.6608" lon="4.84931">
        <ele>530</ele>
        <time>2021-07-10T08:45:52</time>
      </trkpt>
      <trkpt lat="44.6608" lon="4.84932">
        <ele>530.2</ele>
        <time>2021-07-10T08:45:53</time>
      </trkpt>
      <trkpt lat="44.66078" lon="4.84934">
        <ele>530.4</ele>
        <time>2021-07-10T08:45:54</time>
      </trkpt>
      <trkpt lat="44.66078" lon="4.84934">
        <ele>530.6</ele>
        <time>2021-07-10T08:45:55</time>
      </trkpt>
      <trkpt lat="44.66077" lon="4.84936">
        <ele>530.8</ele>
        <time>2021-07-10T08:45:56</time>
      </trkpt>
      <trkpt lat="44.66076" lon="4.84938">
        <ele>531.2</ele>
        <time>2021-07-10T08:45:57</time>
      </trkpt>
      <trkpt lat="44.66076" lon="4.84939">
        <ele>531.4</ele>
        <time>2021-07-10T08:45:58</time>
      </trkpt>
      <trkpt lat="44.66075" lon="4.84939">
        <ele>531.6</ele>
        <time>2021-07-10T08:45:59</time>
      </trkpt>
      <trkpt lat="44.66073" lon="4.84939">
        <ele>531.8</ele>
        <time>2021-07-10T08:46:00</time>
      </trkpt>
      <trkpt lat="44.66072" lon="4.84939">
        <ele>532</ele>
        <time>2021-07-10T08:46:01</time>
      </trkpt>
      <trkpt lat="44.66071" lon="4.84938">
        <ele>532.2</ele>
        <time>2021-07-10T08:46:02</time>
      </trkpt>
      <trkpt lat="44.66071" lon="4.84938">
        <ele>532.6</ele>
        <time>2021-07-10T08:46:03</time>
      </trkpt>
      <trkpt lat="44.66069" lon="4.84939">
        <ele>532.8</ele>
        <time>2021-07-10T08:46:04</time>
      </trkpt>
      <trkpt lat="44.66069" lon="4.84939">
        <ele>533</ele>
        <time>2021-07-10T08:46:05</time>
      </trkpt>
      <trkpt lat="44.66068" lon="4.84942">
        <ele>533.2</ele>
        <time>2021-07-10T08:46:06</time>
      </trkpt>
      <trkpt lat="44.66068" lon="4.84945">
        <ele>533.4</ele>
        <time>2021-07-10T08:46:07</time>
      </trkpt>
      <trkpt lat="44.66068" lon="4.84945">
        <ele>533.6</ele>
        <time>2021-07-10T08:46:08</time>
      </trkpt>
      <trkpt lat="44.66068" lon="4.84948">
        <ele>533.8</ele>
        <time>2021-07-10T08:46:09</time>
      </trkpt>
      <trkpt lat="44.66065" lon="4.8495">
        <ele>534</ele>
        <time>2021-07-10T08:46:10</time>
      </trkpt>
      <trkpt lat="44.66064" lon="4.84952">
        <ele>534.4</ele>
        <time>2021-07-10T08:46:11</time>
      </trkpt>
      <trkpt lat="44.66062" lon="4.84953">
        <ele>534.6</ele>
        <time>2021-07-10T08:46:12</time>
      </trkpt>
      <trkpt lat="44.66062" lon="4.84953">
        <ele>534.8</ele>
        <time>2021-07-10T08:46:13</time>
      </trkpt>
      <trkpt lat="44.66059" lon="4.84955">
        <ele>535</ele>
        <time>2021-07-10T08:46:14</time>
      </trkpt>
      <trkpt lat="44.66059" lon="4.84955">
        <ele>535.2</ele>
        <time>2021-07-10T08:46:15</time>
      </trkpt>
      <trkpt lat="44.66058" lon="4.84956">
        <ele>535.4</ele>
        <time>2021-07-10T08:46:16</time>
      </trkpt>
      <trkpt lat="44.66058" lon="4.84956">
        <ele>535.8</ele>
        <time>2021-07-10T08:46:17</time>
      </trkpt>
      <trkpt lat="44.66057" lon="4.84956">
        <ele>536</ele>
        <time>2021-07-10T08:46:18</time>
      </trkpt>
      <trkpt lat="44.66054" lon="4.84958">
        <ele>536.2</ele>
        <time>2021-07-10T08:46:19</time>
      </trkpt>
      <trkpt lat="44.66054" lon="4.84961">
        <ele>536.4</ele>
        <time>2021-07-10T08:46:20</time>
      </trkpt>
      <trkpt lat="44.66055" lon="4.84964">
        <ele>536.8</ele>
        <time>2021-07-10T08:46:21</time>
      </trkpt>
      <trkpt lat="44.66045" lon="4.84971">
        <ele>538.4</ele>
        <time>2021-07-10T08:46:27</time>
      </trkpt>
      <trkpt lat="44.66044" lon="4.84972">
        <ele>538.8</ele>
        <time>2021-07-10T08:46:28</time>
      </trkpt>
      <trkpt lat="44.66043" lon="4.84973">
        <ele>539</ele>
        <time>2021-07-10T08:46:29</time>
      </trkpt>
      <trkpt lat="44.66043" lon="4.84974">
        <ele>539.4</ele>
        <time>2021-07-10T08:46:30</time>
      </trkpt>
      <trkpt lat="44.66042" lon="4.84977">
        <ele>539.6</ele>
        <time>2021-07-10T08:46:31</time>
      </trkpt>
      <trkpt lat="44.66042" lon="4.84981">
        <ele>539.8</ele>
        <time>2021-07-10T08:46:32</time>
      </trkpt>
      <trkpt lat="44.66044" lon="4.84982">
        <ele>540</ele>
        <time>2021-07-10T08:46:33</time>
      </trkpt>
      <trkpt lat="44.66044" lon="4.84982">
        <ele>540.4</ele>
        <time>2021-07-10T08:46:34</time>
      </trkpt>
      <trkpt lat="44.66043" lon="4.84984">
        <ele>540.8</ele>
        <time>2021-07-10T08:46:35</time>
      </trkpt>
      <trkpt lat="44.66043" lon="4.84984">
        <ele>541.2</ele>
        <time>2021-07-10T08:46:36</time>
      </trkpt>
      <trkpt lat="44.66041" lon="4.84986">
        <ele>541.4</ele>
        <time>2021-07-10T08:46:37</time>
      </trkpt>
      <trkpt lat="44.66039" lon="4.84988">
        <ele>541.8</ele>
        <time>2021-07-10T08:46:38</time>
      </trkpt>
      <trkpt lat="44.66038" lon="4.84989">
        <ele>542</ele>
        <time>2021-07-10T08:46:39</time>
      </trkpt>
      <trkpt lat="44.66036" lon="4.8499">
        <ele>542.4</ele>
        <time>2021-07-10T08:46:40</time>
      </trkpt>
      <trkpt lat="44.66037" lon="4.8499">
        <ele>542.6</ele>
        <time>2021-07-10T08:46:41</time>
      </trkpt>
      <trkpt lat="44.65957" lon="4.85075">
        <ele>564.4</ele>
        <time>2021-07-10T08:48:28</time>
      </trkpt>
      <trkpt lat="44.65955" lon="4.85075">
        <ele>564.6</ele>
        <time>2021-07-10T08:48:29</time>
      </trkpt>
      <trkpt lat="44.65954" lon="4.85079">
        <ele>564.8</ele>
        <time>2021-07-10T08:48:30</time>
      </trkpt>
      <trkpt lat="44.65954" lon="4.85079">
        <ele>565</ele>
        <time>2021-07-10T08:48:31</time>
      </trkpt>
      <trkpt lat="44.65953" lon="4.85079">
        <ele>565.2</ele>
        <time>2021-07-10T08:48:32</time>
      </trkpt>
      <trkpt lat="44.6588" lon="4.85195">
        <ele>580</ele>
        <time>2021-07-10T08:50:16</time>
      </trkpt>
      <trkpt lat="44.65879" lon="4.85196">
        <ele>580</ele>
        <time>2021-07-10T08:50:17</time>
      </trkpt>
      <trkpt lat="44.65879" lon="4.85196">
        <ele>580</ele>
        <time>2021-07-10T08:50:18</time>
      </trkpt>
      <trkpt lat="44.65879" lon="4.85197">
        <ele>580.2</ele>
        <time>2021-07-10T08:50:19</time>
      </trkpt>
      <trkpt lat="44.65879" lon="4.85197">
        <ele>580.4</ele>
        <time>2021-07-10T08:50:20</time>
      </trkpt>
      <trkpt lat="44.65879" lon="4.85198">
        <ele>580.6</ele>
        <time>2021-07-10T08:50:21</time>
      </trkpt>
      <trkpt lat="44.65879" lon="4.85198">
        <ele>580.6</ele>
        <time>2021-07-10T08:50:22</time>
      </trkpt>
      <trkpt lat="44.65879" lon="4.85198">
        <ele>580.6</ele>
        <time>2021-07-10T08:50:23</time>
      </trkpt>
      <trkpt lat="44.65879" lon="4.85198">
        <ele>580.6</ele>
        <time>2021-07-10T08:50:24</time>
      </trkpt>
      <trkpt lat="44.65879" lon="4.85199">
        <ele>580.6</ele>
        <time>2021-07-10T08:50:25</time>
      </trkpt>
      <trkpt lat="44.65888" lon="4.85196">
        <ele>576.4</ele>
        <time>2021-07-10T08:53:29</time>
      </trkpt>
      <trkpt lat="44.65889" lon="4.85196">
        <ele>576.4</ele>
        <time>2021-07-10T08:53:30</time>
      </trkpt>
      <trkpt lat="44.65889" lon="4.85199">
        <ele>576.6</ele>
        <time>2021-07-10T08:53:31</time>
      </trkpt>
      <trkpt lat="44.65889" lon="4.85199">
        <ele>576.8</ele>
        <time>2021-07-10T08:53:32</time>
      </trkpt>
      <trkpt lat="44.65891" lon="4.85199">
        <ele>577</ele>
        <time>2021-07-10T08:53:33</time>
      </trkpt>
      <trkpt lat="44.65892" lon="4.85199">
        <ele>577</ele>
        <time>2021-07-10T08:53:34</time>
      </trkpt>
      <trkpt lat="44.65892" lon="4.85199">
        <ele>577.2</ele>
        <time>2021-07-10T08:53:35</time>
      </trkpt>
      <trkpt lat="44.65895" lon="4.85197">
        <ele>577.2</ele>
        <time>2021-07-10T08:53:36</time>
      </trkpt>
      <trkpt lat="44.65896" lon="4.85197">
        <ele>577.2</ele>
        <time>2021-07-10T08:53:37</time>
      </trkpt>
      <trkpt lat="44.65897" lon="4.85197">
        <ele>577.2</ele>
        <time>2021-07-10T08:53:38</time>
      </trkpt>
      <trkpt lat="44.65915" lon="4.85209">
        <ele>574.4</ele>
        <time>2021-07-10T08:54:40</time>
      </trkpt>
      <trkpt lat="44.65917" lon="4.85209">
        <ele>574.2</ele>
        <time>2021-07-10T08:54:41</time>
      </trkpt>
      <trkpt lat="44.6592" lon="4.8521">
        <ele>574</ele>
        <time>2021-07-10T08:54:42</time>
      </trkpt>
      <trkpt lat="44.65921" lon="4.8521">
        <ele>574</ele>
        <time>2021-07-10T08:54:43</time>
      </trkpt>
      <trkpt lat="44.65932" lon="4.85216">
        <ele>573.8</ele>
        <time>2021-07-10T08:54:44</time>
      </trkpt>
      <trkpt lat="44.65942" lon="4.85216">
        <ele>573.8</ele>
        <time>2021-07-10T08:54:45</time>
      </trkpt>
      <trkpt lat="44.6595" lon="4.85216">
        <ele>573.6</ele>
        <time>2021-07-10T08:54:46</time>
      </trkpt>
      <trkpt lat="44.65954" lon="4.85218">
        <ele>573.6</ele>
        <time>2021-07-10T08:54:47</time>
      </trkpt>
      <trkpt lat="44.65967" lon="4.85223">
        <ele>573.4</ele>
        <time>2021-07-10T08:54:48</time>
      </trkpt>
      <trkpt lat="44.65967" lon="4.85223">
        <ele>573.2</ele>
        <time>2021-07-10T08:54:49</time>
      </trkpt>
      <trkpt lat="44.65971" lon="4.85222">
        <ele>573</ele>
        <time>2021-07-10T08:54:50</time>
      </trkpt>
      <trkpt lat="44.65976" lon="4.85222">
        <ele>573</ele>
        <time>2021-07-10T08:54:51</time>
      </trkpt>
      <trkpt lat="44.65979" lon="4.85223">
        <ele>572.8</ele>
        <time>2021-07-10T08:54:52</time>
      </trkpt>
      <trkpt lat="44.65984" lon="4.85224">
        <ele>572.4</ele>
        <time>2021-07-10T08:54:53</time>
      </trkpt>
      <trkpt lat="44.6599" lon="4.85226">
        <ele>572.2</ele>
        <time>2021-07-10T08:54:54</time>
      </trkpt>
      <trkpt lat="44.65994" lon="4.8523">
        <ele>572.2</ele>
        <time>2021-07-10T08:54:55</time>
      </trkpt>
      <trkpt lat="44.65998" lon="4.85234">
        <ele>572</ele>
        <time>2021-07-10T08:54:56</time>
      </trkpt>
      <trkpt lat="44.66003" lon="4.85237">
        <ele>571.6</ele>
        <time>2021-07-10T08:54:57</time>
      </trkpt>
      <trkpt lat="44.66003" lon="4.85237">
        <ele>571.4</ele>
        <time>2021-07-10T08:54:58</time>
      </trkpt>
      <trkpt lat="44.66004" lon="4.85239">
        <ele>571.2</ele>
        <time>2021-07-10T08:54:59</time>
      </trkpt>
      <trkpt lat="44.66007" lon="4.85241">
        <ele>570.8</ele>
        <time>2021-07-10T08:55:00</time>
      </trkpt>
      <trkpt lat="44.66013" lon="4.85245">
        <ele>570.4</ele>
        <time>2021-07-10T08:55:01</time>
      </trkpt>
      <trkpt lat="44.6602" lon="4.85248">
        <ele>570.2</ele>
        <time>2021-07-10T08:55:02</time>
      </trkpt>
      <trkpt lat="44.66026" lon="4.85253">
        <ele>569.8</ele>
        <time>2021-07-10T08:55:03</time>
      </trkpt>
      <trkpt lat="44.66034" lon="4.85258">
        <ele>569.2</ele>
        <time>2021-07-10T08:55:04</time>
      </trkpt>
      <trkpt lat="44.66044" lon="4.8526">
        <ele>568.8</ele>
        <time>2021-07-10T08:55:05</time>
      </trkpt>
      <trkpt lat="44.66053" lon="4.85266">
        <ele>568.2</ele>
        <time>2021-07-10T08:55:06</time>
      </trkpt>
      <trkpt lat="44.66059" lon="4.85272">
        <ele>567.6</ele>
        <time>2021-07-10T08:55:07</time>
      </trkpt>
      <trkpt lat="44.66063" lon="4.8528">
        <ele>566.8</ele>
        <time>2021-07-10T08:55:08</time>
      </trkpt>
      <trkpt lat="44.66071" lon="4.85285">
        <ele>566</ele>
        <time>2021-07-10T08:55:09</time>
      </trkpt>
      <trkpt lat="44.66083" lon="4.85288">
        <ele>565.6</ele>
        <time>2021-07-10T08:55:10</time>
      </trkpt>
      <trkpt lat="44.66095" lon="4.8529">
        <ele>565.2</ele>
        <time>2021-07-10T08:55:11</time>
      </trkpt>
      <trkpt lat="44.66098" lon="4.85294">
        <ele>564.8</ele>
        <time>2021-07-10T08:55:12</time>
      </trkpt>
      <trkpt lat="44.66104" lon="4.85299">
        <ele>564.2</ele>
        <time>2021-07-10T08:55:13</time>
      </trkpt>
      <trkpt lat="44.66118" lon="4.85309">
        <ele>563.6</ele>
        <time>2021-07-10T08:55:14</time>
      </trkpt>
      <trkpt lat="44.66118" lon="4.85309">
        <ele>563</ele>
        <time>2021-07-10T08:55:15</time>
      </trkpt>
      <trkpt lat="44.66123" lon="4.85315">
        <ele>562.4</ele>
        <time>2021-07-10T08:55:16</time>
      </trkpt>
      <trkpt lat="44.6613" lon="4.85322">
        <ele>561.8</ele>
        <time>2021-07-10T08:55:17</time>
      </trkpt>
      <trkpt lat="44.66134" lon="4.85329">
        <ele>561</ele>
        <time>2021-07-10T08:55:18</time>
      </trkpt>
      <trkpt lat="44.66136" lon="4.85333">
        <ele>560.2</ele>
        <time>2021-07-10T08:55:19</time>
      </trkpt>
      <trkpt lat="44.66145" lon="4.85333">
        <ele>559.6</ele>
        <time>2021-07-10T08:55:20</time>
      </trkpt>
      <trkpt lat="44.66152" lon="4.85336">
        <ele>559</ele>
        <time>2021-07-10T08:55:21</time>
      </trkpt>
      <trkpt lat="44.66166" lon="4.85342">
        <ele>558.4</ele>
        <time>2021-07-10T08:55:22</time>
      </trkpt>
      <trkpt lat="44.66174" lon="4.85345">
        <ele>557.6</ele>
        <time>2021-07-10T08:55:23</time>
      </trkpt>
      <trkpt lat="44.6618" lon="4.85351">
        <ele>556.6</ele>
        <time>2021-07-10T08:55:24</time>
      </trkpt>
      <trkpt lat="44.66185" lon="4.85356">
        <ele>555.8</ele>
        <time>2021-07-10T08:55:25</time>
      </trkpt>
      <trkpt lat="44.66187" lon="4.85362">
        <ele>555</ele>
        <time>2021-07-10T08:55:26</time>
      </trkpt>
      <trkpt lat="44.66192" lon="4.85368">
        <ele>554.4</ele>
        <time>2021-07-10T08:55:27</time>
      </trkpt>
      <trkpt lat="44.66197" lon="4.85371">
        <ele>553.6</ele>
        <time>2021-07-10T08:55:28</time>
      </trkpt>
      <trkpt lat="44.66206" lon="4.85371">
        <ele>552.8</ele>
        <time>2021-07-10T08:55:29</time>
      </trkpt>
      <trkpt lat="44.66212" lon="4.85371">
        <ele>552</ele>
        <time>2021-07-10T08:55:30</time>
      </trkpt>
      <trkpt lat="44.66218" lon="4.85369">
        <ele>551.4</ele>
        <time>2021-07-10T08:55:31</time>
      </trkpt>
      <trkpt lat="44.66227" lon="4.85365">
        <ele>550.8</ele>
        <time>2021-07-10T08:55:32</time>
      </trkpt>
      <trkpt lat="44.66234" lon="4.85362">
        <ele>550</ele>
        <time>2021-07-10T08:55:33</time>
      </trkpt>
      <trkpt lat="44.66241" lon="4.85358">
        <ele>549.4</ele>
        <time>2021-07-10T08:55:34</time>
      </trkpt>
      <trkpt lat="44.66248" lon="4.85358">
        <ele>548.6</ele>
        <time>2021-07-10T08:55:35</time>
      </trkpt>
      <trkpt lat="44.66255" lon="4.85357">
        <ele>547.8</ele>
        <time>2021-07-10T08:55:36</time>
      </trkpt>
      <trkpt lat="44.66258" lon="4.85361">
        <ele>547.2</ele>
        <time>2021-07-10T08:55:37</time>
      </trkpt>
      <trkpt lat="44.6626" lon="4.85364">
        <ele>546.6</ele>
        <time>2021-07-10T08:55:38</time>
      </trkpt>
      <trkpt lat="44.66268" lon="4.85371">
        <ele>546</ele>
        <time>2021-07-10T08:55:39</time>
      </trkpt>
      <trkpt lat="44.66268" lon="4.85371">
        <ele>545.4</ele>
        <time>2021-07-10T08:55:40</time>
      </trkpt>
      <trkpt lat="44.66266" lon="4.85378">
        <ele>544.8</ele>
        <time>2021-07-10T08:55:41</time>
      </trkpt>
      <trkpt lat="44.6627" lon="4.85383">
        <ele>544.4</ele>
        <time>2021-07-10T08:55:42</time>
      </trkpt>
      <trkpt lat="44.66271" lon="4.85392">
        <ele>544</ele>
        <time>2021-07-10T08:55:43</time>
      </trkpt>
      <trkpt lat="44.66273" lon="4.85395">
        <ele>543.8</ele>
        <time>2021-07-10T08:55:44</time>
      </trkpt>
      <trkpt lat="44.66277" lon="4.85402">
        <ele>543.4</ele>
        <time>2021-07-10T08:55:45</time>
      </trkpt>
      <trkpt lat="44.66286" lon="4.85407">
        <ele>543.2</ele>
        <time>2021-07-10T08:55:46</time>
      </trkpt>
      <trkpt lat="44.66284" lon="4.85416">
        <ele>543</ele>
        <time>2021-07-10T08:55:47</time>
      </trkpt>
      <trkpt lat="44.66286" lon="4.85424">
        <ele>542.8</ele>
        <time>2021-07-10T08:55:48</time>
      </trkpt>
      <trkpt lat="44.66293" lon="4.85433">
        <ele>542.8</ele>
        <time>2021-07-10T08:55:49</time>
      </trkpt>
      <trkpt lat="44.66296" lon="4.85446">
        <ele>542.6</ele>
        <time>2021-07-10T08:55:50</time>
      </trkpt>
      <trkpt lat="44.663" lon="4.85454">
        <ele>542.6</ele>
        <time>2021-07-10T08:55:51</time>
      </trkpt>
      <trkpt lat="44.66305" lon="4.85461">
        <ele>542.4</ele>
        <time>2021-07-10T08:55:52</time>
      </trkpt>
      <trkpt lat="44.6631" lon="4.85469">
        <ele>542</ele>
        <time>2021-07-10T08:55:53</time>
      </trkpt>
      <trkpt lat="44.66314" lon="4.85477">
        <ele>541.8</ele>
        <time>2021-07-10T08:55:54</time>
      </trkpt>
      <trkpt lat="44.66324" lon="4.85487">
        <ele>541.8</ele>
        <time>2021-07-10T08:55:55</time>
      </trkpt>
      <trkpt lat="44.66325" lon="4.85492">
        <ele>541.8</ele>
        <time>2021-07-10T08:55:56</time>
      </trkpt>
      <trkpt lat="44.66328" lon="4.85497">
        <ele>542</ele>
        <time>2021-07-10T08:55:57</time>
      </trkpt>
      <trkpt lat="44.66329" lon="4.85502">
        <ele>542.2</ele>
        <time>2021-07-10T08:55:58</time>
      </trkpt>
      <trkpt lat="44.66334" lon="4.85509">
        <ele>542.4</ele>
        <time>2021-07-10T08:55:59</time>
      </trkpt>
      <trkpt lat="44.66334" lon="4.85514">
        <ele>542.4</ele>
        <time>2021-07-10T08:56:00</time>
      </trkpt>
      <trkpt lat="44.66334" lon="4.85519">
        <ele>542.4</ele>
        <time>2021-07-10T08:56:01</time>
      </trkpt>
      <trkpt lat="44.66334" lon="4.85524">
        <ele>542.2</ele>
        <time>2021-07-10T08:56:02</time>
      </trkpt>
      <trkpt lat="44.66334" lon="4.85524">
        <ele>542.2</ele>
        <time>2021-07-10T08:56:03</time>
      </trkpt>
      <trkpt lat="44.66335" lon="4.85533">
        <ele>542</ele>
        <time>2021-07-10T08:56:04</time>
      </trkpt>
      <trkpt lat="44.66339" lon="4.85532">
        <ele>542</ele>
        <time>2021-07-10T08:56:05</time>
      </trkpt>
      <trkpt lat="44.66344" lon="4.85531">
        <ele>542</ele>
        <time>2021-07-10T08:56:06</time>
      </trkpt>
      <trkpt lat="44.66344" lon="4.85535">
        <ele>542</ele>
        <time>2021-07-10T08:56:07</time>
      </trkpt>
      <trkpt lat="44.66349" lon="4.85531">
        <ele>542</ele>
        <time>2021-07-10T08:56:08</time>
      </trkpt>
      <trkpt lat="44.66352" lon="4.85534">
        <ele>542</ele>
        <time>2021-07-10T08:56:09</time>
      </trkpt>
      <trkpt lat="44.66353" lon="4.85537">
        <ele>541.8</ele>
        <time>2021-07-10T08:56:10</time>
      </trkpt>
      <trkpt lat="44.66352" lon="4.85541">
        <ele>541.8</ele>
        <time>2021-07-10T08:56:11</time>
      </trkpt>
      <trkpt lat="44.66353" lon="4.85542">
        <ele>541.6</ele>
        <time>2021-07-10T08:56:12</time>
      </trkpt>
      <trkpt lat="44.66353" lon="4.85545">
        <ele>541.4</ele>
        <time>2021-07-10T08:56:13</time>
      </trkpt>
      <trkpt lat="44.66355" lon="4.8555">
        <ele>541.4</ele>
        <time>2021-07-10T08:56:14</time>
      </trkpt>
      <trkpt lat="44.66354" lon="4.85552">
        <ele>541.2</ele>
        <time>2021-07-10T08:56:15</time>
      </trkpt>
      <trkpt lat="44.66355" lon="4.85558">
        <ele>541</ele>
        <time>2021-07-10T08:56:16</time>
      </trkpt>
      <trkpt lat="44.66355" lon="4.85561">
        <ele>540.8</ele>
        <time>2021-07-10T08:56:17</time>
      </trkpt>
      <trkpt lat="44.66351" lon="4.85565">
        <ele>540.6</ele>
        <time>2021-07-10T08:56:18</time>
      </trkpt>
      <trkpt lat="44.66354" lon="4.85569">
        <ele>540.4</ele>
        <time>2021-07-10T08:56:19</time>
      </trkpt>
      <trkpt lat="44.66357" lon="4.85574">
        <ele>540</ele>
        <time>2021-07-10T08:56:20</time>
      </trkpt>
      <trkpt lat="44.66359" lon="4.85576">
        <ele>539.6</ele>
        <time>2021-07-10T08:56:21</time>
      </trkpt>
      <trkpt lat="44.66362" lon="4.85578">
        <ele>539.2</ele>
        <time>2021-07-10T08:56:22</time>
      </trkpt>
      <trkpt lat="44.66363" lon="4.85581">
        <ele>538.8</ele>
        <time>2021-07-10T08:56:23</time>
      </trkpt>
      <trkpt lat="44.66365" lon="4.85585">
        <ele>538.4</ele>
        <time>2021-07-10T08:56:24</time>
      </trkpt>
      <trkpt lat="44.66363" lon="4.85589">
        <ele>538</ele>
        <time>2021-07-10T08:56:25</time>
      </trkpt>
      <trkpt lat="44.66363" lon="4.85589">
        <ele>537.6</ele>
        <time>2021-07-10T08:56:26</time>
      </trkpt>
      <trkpt lat="44.66367" lon="4.85596">
        <ele>537.2</ele>
        <time>2021-07-10T08:56:27</time>
      </trkpt>
      <trkpt lat="44.66369" lon="4.856">
        <ele>536.8</ele>
        <time>2021-07-10T08:56:28</time>
      </trkpt>
      <trkpt lat="44.66371" lon="4.85606">
        <ele>536.4</ele>
        <time>2021-07-10T08:56:29</time>
      </trkpt>
      <trkpt lat="44.66373" lon="4.85613">
        <ele>536</ele>
        <time>2021-07-10T08:56:30</time>
      </trkpt>
      <trkpt lat="44.66373" lon="4.8562">
        <ele>535.2</ele>
        <time>2021-07-10T08:56:31</time>
      </trkpt>
      <trkpt lat="44.66375" lon="4.85629">
        <ele>534.6</ele>
        <time>2021-07-10T08:56:32</time>
      </trkpt>
      <trkpt lat="44.66381" lon="4.85634">
        <ele>534</ele>
        <time>2021-07-10T08:56:33</time>
      </trkpt>
      <trkpt lat="44.66383" lon="4.85638">
        <ele>533.6</ele>
        <time>2021-07-10T08:56:34</time>
      </trkpt>
      <trkpt lat="44.66388" lon="4.85643">
        <ele>533.2</ele>
        <time>2021-07-10T08:56:35</time>
      </trkpt>
      <trkpt lat="44.6639" lon="4.85647">
        <ele>532.8</ele>
        <time>2021-07-10T08:56:36</time>
      </trkpt>
      <trkpt lat="44.66389" lon="4.85653">
        <ele>532.6</ele>
        <time>2021-07-10T08:56:37</time>
      </trkpt>
      <trkpt lat="44.66396" lon="4.85659">
        <ele>532.4</ele>
        <time>2021-07-10T08:56:38</time>
      </trkpt>
      <trkpt lat="44.66396" lon="4.85665">
        <ele>532.4</ele>
        <time>2021-07-10T08:56:39</time>
      </trkpt>
      <trkpt lat="44.66397" lon="4.8567">
        <ele>532.4</ele>
        <time>2021-07-10T08:56:40</time>
      </trkpt>
      <trkpt lat="44.66397" lon="4.85671">
        <ele>532.2</ele>
        <time>2021-07-10T08:56:41</time>
      </trkpt>
      <trkpt lat="44.664" lon="4.85674">
        <ele>532.2</ele>
        <time>2021-07-10T08:56:42</time>
      </trkpt>
      <trkpt lat="44.66401" lon="4.85678">
        <ele>532.2</ele>
        <time>2021-07-10T08:56:43</time>
      </trkpt>
      <trkpt lat="44.66402" lon="4.85685">
        <ele>532</ele>
        <time>2021-07-10T08:56:44</time>
      </trkpt>
      <trkpt lat="44.66406" lon="4.85688">
        <ele>532</ele>
        <time>2021-07-10T08:56:45</time>
      </trkpt>
      <trkpt lat="44.66408" lon="4.85693">
        <ele>532</ele>
        <time>2021-07-10T08:56:46</time>
      </trkpt>
      <trkpt lat="44.66409" lon="4.85698">
        <ele>531.8</ele>
        <time>2021-07-10T08:56:47</time>
      </trkpt>
      <trkpt lat="44.6641" lon="4.85702">
        <ele>531.8</ele>
        <time>2021-07-10T08:56:48</time>
      </trkpt>
      <trkpt lat="44.66411" lon="4.85704">
        <ele>531.8</ele>
        <time>2021-07-10T08:56:49</time>
      </trkpt>
      <trkpt lat="44.66409" lon="4.85706">
        <ele>531.8</ele>
        <time>2021-07-10T08:56:50</time>
      </trkpt>
      <trkpt lat="44.66412" lon="4.85714">
        <ele>531.8</ele>
        <time>2021-07-10T08:56:51</time>
      </trkpt>
      <trkpt lat="44.66412" lon="4.85714">
        <ele>531.8</ele>
        <time>2021-07-10T08:56:52</time>
      </trkpt>
      <trkpt lat="44.66412" lon="4.85717">
        <ele>531.6</ele>
        <time>2021-07-10T08:56:53</time>
      </trkpt>
      <trkpt lat="44.66412" lon="4.85722">
        <ele>531.6</ele>
        <time>2021-07-10T08:56:54</time>
      </trkpt>
      <trkpt lat="44.66418" lon="4.85729">
        <ele>531.6</ele>
        <time>2021-07-10T08:56:55</time>
      </trkpt>
      <trkpt lat="44.66425" lon="4.85741">
        <ele>531.4</ele>
        <time>2021-07-10T08:56:56</time>
      </trkpt>
      <trkpt lat="44.66425" lon="4.85741">
        <ele>531.4</ele>
        <time>2021-07-10T08:56:57</time>
      </trkpt>
      <trkpt lat="44.66431" lon="4.85755">
        <ele>531.2</ele>
        <time>2021-07-10T08:56:58</time>
      </trkpt>
      <trkpt lat="44.66431" lon="4.85755">
        <ele>531</ele>
        <time>2021-07-10T08:56:59</time>
      </trkpt>
      <trkpt lat="44.66433" lon="4.8576">
        <ele>530.8</ele>
        <time>2021-07-10T08:57:00</time>
      </trkpt>
      <trkpt lat="44.66439" lon="4.85765">
        <ele>530.6</ele>
        <time>2021-07-10T08:57:01</time>
      </trkpt>
      <trkpt lat="44.6644" lon="4.85772">
        <ele>530.4</ele>
        <time>2021-07-10T08:57:02</time>
      </trkpt>
      <trkpt lat="44.6644" lon="4.85773">
        <ele>530.2</ele>
        <time>2021-07-10T08:57:03</time>
      </trkpt>
      <trkpt lat="44.6644" lon="4.85779">
        <ele>529.8</ele>
        <time>2021-07-10T08:57:04</time>
      </trkpt>
      <trkpt lat="44.66443" lon="4.85779">
        <ele>529.8</ele>
        <time>2021-07-10T08:57:05</time>
      </trkpt>
      <trkpt lat="44.66442" lon="4.85782">
        <ele>529.6</ele>
        <time>2021-07-10T08:57:06</time>
      </trkpt>
      <trkpt lat="44.66446" lon="4.85789">
        <ele>529.4</ele>
        <time>2021-07-10T08:57:07</time>
      </trkpt>
      <trkpt lat="44.66449" lon="4.85795">
        <ele>529.2</ele>
        <time>2021-07-10T08:57:08</time>
      </trkpt>
      <trkpt lat="44.66448" lon="4.85801">
        <ele>529</ele>
        <time>2021-07-10T08:57:09</time>
      </trkpt>
      <trkpt lat="44.66449" lon="4.85806">
        <ele>529</ele>
        <time>2021-07-10T08:57:10</time>
      </trkpt>
      <trkpt lat="44.66453" lon="4.85809">
        <ele>528.8</ele>
        <time>2021-07-10T08:57:11</time>
      </trkpt>
      <trkpt lat="44.66454" lon="4.85812">
        <ele>528.8</ele>
        <time>2021-07-10T08:57:12</time>
      </trkpt>
      <trkpt lat="44.66456" lon="4.85815">
        <ele>528.8</ele>
        <time>2021-07-10T08:57:13</time>
      </trkpt>
      <trkpt lat="44.66462" lon="4.85817">
        <ele>528.6</ele>
        <time>2021-07-10T08:57:14</time>
      </trkpt>
      <trkpt lat="44.66465" lon="4.85822">
        <ele>528.4</ele>
        <time>2021-07-10T08:57:15</time>
      </trkpt>
      <trkpt lat="44.66468" lon="4.85829">
        <ele>528.4</ele>
        <time>2021-07-10T08:57:16</time>
      </trkpt>
      <trkpt lat="44.66476" lon="4.85833">
        <ele>528.2</ele>
        <time>2021-07-10T08:57:17</time>
      </trkpt>
      <trkpt lat="44.6648" lon="4.85837">
        <ele>528.2</ele>
        <time>2021-07-10T08:57:18</time>
      </trkpt>
      <trkpt lat="44.66485" lon="4.85842">
        <ele>528</ele>
        <time>2021-07-10T08:57:19</time>
      </trkpt>
      <trkpt lat="44.66495" lon="4.85852">
        <ele>528</ele>
        <time>2021-07-10T08:57:20</time>
      </trkpt>
      <trkpt lat="44.66499" lon="4.85859">
        <ele>527.8</ele>
        <time>2021-07-10T08:57:21</time>
      </trkpt>
      <trkpt lat="44.66501" lon="4.85863">
        <ele>527.8</ele>
        <time>2021-07-10T08:57:22</time>
      </trkpt>
      <trkpt lat="44.66507" lon="4.85871">
        <ele>527.6</ele>
        <time>2021-07-10T08:57:23</time>
      </trkpt>
      <trkpt lat="44.66511" lon="4.85875">
        <ele>527.4</ele>
        <time>2021-07-10T08:57:24</time>
      </trkpt>
      <trkpt lat="44.66514" lon="4.85879">
        <ele>527.4</ele>
        <time>2021-07-10T08:57:25</time>
      </trkpt>
      <trkpt lat="44.66517" lon="4.85882">
        <ele>527.2</ele>
        <time>2021-07-10T08:57:26</time>
      </trkpt>
      <trkpt lat="44.66519" lon="4.85884">
        <ele>527.2</ele>
        <time>2021-07-10T08:57:27</time>
      </trkpt>
      <trkpt lat="44.66524" lon="4.85895">
        <ele>527.2</ele>
        <time>2021-07-10T08:57:28</time>
      </trkpt>
      <trkpt lat="44.66524" lon="4.85895">
        <ele>527.2</ele>
        <time>2021-07-10T08:57:29</time>
      </trkpt>
      <trkpt lat="44.66524" lon="4.85901">
        <ele>527.2</ele>
        <time>2021-07-10T08:57:30</time>
      </trkpt>
      <trkpt lat="44.66525" lon="4.85907">
        <ele>527.2</ele>
        <time>2021-07-10T08:57:31</time>
      </trkpt>
      <trkpt lat="44.66531" lon="4.85919">
        <ele>527.4</ele>
        <time>2021-07-10T08:57:32</time>
      </trkpt>
      <trkpt lat="44.66531" lon="4.85919">
        <ele>527.4</ele>
        <time>2021-07-10T08:57:33</time>
      </trkpt>
      <trkpt lat="44.66534" lon="4.85921">
        <ele>527.4</ele>
        <time>2021-07-10T08:57:34</time>
      </trkpt>
      <trkpt lat="44.66533" lon="4.85928">
        <ele>527.4</ele>
        <time>2021-07-10T08:57:35</time>
      </trkpt>
      <trkpt lat="44.66536" lon="4.85934">
        <ele>527.4</ele>
        <time>2021-07-10T08:57:36</time>
      </trkpt>
      <trkpt lat="44.66541" lon="4.85937">
        <ele>527.6</ele>
        <time>2021-07-10T08:57:37</time>
      </trkpt>
      <trkpt lat="44.66551" lon="4.85945">
        <ele>527.6</ele>
        <time>2021-07-10T08:57:38</time>
      </trkpt>
      <trkpt lat="44.66555" lon="4.85952">
        <ele>527.8</ele>
        <time>2021-07-10T08:57:39</time>
      </trkpt>
      <trkpt lat="44.66561" lon="4.85955">
        <ele>527.8</ele>
        <time>2021-07-10T08:57:40</time>
      </trkpt>
      <trkpt lat="44.66566" lon="4.85959">
        <ele>528</ele>
        <time>2021-07-10T08:57:41</time>
      </trkpt>
      <trkpt lat="44.66564" lon="4.85962">
        <ele>528</ele>
        <time>2021-07-10T08:57:42</time>
      </trkpt>
      <trkpt lat="44.66566" lon="4.85963">
        <ele>528.4</ele>
        <time>2021-07-10T08:57:43</time>
      </trkpt>
      <trkpt lat="44.66565" lon="4.85965">
        <ele>528.6</ele>
        <time>2021-07-10T08:57:44</time>
      </trkpt>
      <trkpt lat="44.66565" lon="4.85966">
        <ele>528.8</ele>
        <time>2021-07-10T08:57:45</time>
      </trkpt>
      <trkpt lat="44.66568" lon="4.85968">
        <ele>529</ele>
        <time>2021-07-10T08:57:46</time>
      </trkpt>
      <trkpt lat="44.66569" lon="4.85972">
        <ele>529</ele>
        <time>2021-07-10T08:57:47</time>
      </trkpt>
      <trkpt lat="44.66573" lon="4.85975">
        <ele>529.2</ele>
        <time>2021-07-10T08:57:48</time>
      </trkpt>
      <trkpt lat="44.66575" lon="4.85981">
        <ele>529.4</ele>
        <time>2021-07-10T08:57:49</time>
      </trkpt>
      <trkpt lat="44.66575" lon="4.85981">
        <ele>529.6</ele>
        <time>2021-07-10T08:57:50</time>
      </trkpt>
      <trkpt lat="44.66579" lon="4.85987">
        <ele>529.6</ele>
        <time>2021-07-10T08:57:51</time>
      </trkpt>
      <trkpt lat="44.6658" lon="4.85989">
        <ele>529.8</ele>
        <time>2021-07-10T08:57:52</time>
      </trkpt>
      <trkpt lat="44.66582" lon="4.85993">
        <ele>530</ele>
        <time>2021-07-10T08:57:53</time>
      </trkpt>
      <trkpt lat="44.66583" lon="4.85992">
        <ele>530</ele>
        <time>2021-07-10T08:57:54</time>
      </trkpt>
      <trkpt lat="44.66582" lon="4.85999">
        <ele>530.2</ele>
        <time>2021-07-10T08:57:55</time>
      </trkpt>
      <trkpt lat="44.66586" lon="4.86006">
        <ele>530.4</ele>
        <time>2021-07-10T08:57:56</time>
      </trkpt>
      <trkpt lat="44.66588" lon="4.86008">
        <ele>530.6</ele>
        <time>2021-07-10T08:57:57</time>
      </trkpt>
      <trkpt lat="44.66588" lon="4.8601">
        <ele>531</ele>
        <time>2021-07-10T08:57:58</time>
      </trkpt>
      <trkpt lat="44.66589" lon="4.86013">
        <ele>531.2</ele>
        <time>2021-07-10T08:57:59</time>
      </trkpt>
      <trkpt lat="44.66591" lon="4.86015">
        <ele>531.2</ele>
        <time>2021-07-10T08:58:00</time>
      </trkpt>
      <trkpt lat="44.66593" lon="4.86017">
        <ele>531.4</ele>
        <time>2021-07-10T08:58:01</time>
      </trkpt>
      <trkpt lat="44.66593" lon="4.86019">
        <ele>531.6</ele>
        <time>2021-07-10T08:58:02</time>
      </trkpt>
      <trkpt lat="44.66595" lon="4.86022">
        <ele>531.8</ele>
        <time>2021-07-10T08:58:03</time>
      </trkpt>
      <trkpt lat="44.66595" lon="4.86023">
        <ele>532</ele>
        <time>2021-07-10T08:58:04</time>
      </trkpt>
      <trkpt lat="44.66597" lon="4.86023">
        <ele>532.2</ele>
        <time>2021-07-10T08:58:05</time>
      </trkpt>
      <trkpt lat="44.666" lon="4.86024">
        <ele>532.4</ele>
        <time>2021-07-10T08:58:06</time>
      </trkpt>
      <trkpt lat="44.666" lon="4.86026">
        <ele>532.6</ele>
        <time>2021-07-10T08:58:07</time>
      </trkpt>
      <trkpt lat="44.66598" lon="4.86026">
        <ele>532.8</ele>
        <time>2021-07-10T08:58:08</time>
      </trkpt>
      <trkpt lat="44.66598" lon="4.86028">
        <ele>533</ele>
        <time>2021-07-10T08:58:09</time>
      </trkpt>
      <trkpt lat="44.66601" lon="4.86034">
        <ele>533.2</ele>
        <time>2021-07-10T08:58:10</time>
      </trkpt>
      <trkpt lat="44.66601" lon="4.86034">
        <ele>533.2</ele>
        <time>2021-07-10T08:58:11</time>
      </trkpt>
      <trkpt lat="44.66601" lon="4.86035">
        <ele>533.4</ele>
        <time>2021-07-10T08:58:12</time>
      </trkpt>
      <trkpt lat="44.66601" lon="4.86039">
        <ele>533.4</ele>
        <time>2021-07-10T08:58:13</time>
      </trkpt>
      <trkpt lat="44.66603" lon="4.86041">
        <ele>533.6</ele>
        <time>2021-07-10T08:58:14</time>
      </trkpt>
      <trkpt lat="44.66604" lon="4.86045">
        <ele>533.8</ele>
        <time>2021-07-10T08:58:15</time>
      </trkpt>
      <trkpt lat="44.66609" lon="4.8605">
        <ele>534</ele>
        <time>2021-07-10T08:58:16</time>
      </trkpt>
      <trkpt lat="44.66613" lon="4.86054">
        <ele>534.2</ele>
        <time>2021-07-10T08:58:17</time>
      </trkpt>
      <trkpt lat="44.66614" lon="4.8606">
        <ele>534.2</ele>
        <time>2021-07-10T08:58:18</time>
      </trkpt>
      <trkpt lat="44.66616" lon="4.86062">
        <ele>534.4</ele>
        <time>2021-07-10T08:58:19</time>
      </trkpt>
      <trkpt lat="44.66619" lon="4.86065">
        <ele>534.6</ele>
        <time>2021-07-10T08:58:20</time>
      </trkpt>
      <trkpt lat="44.66618" lon="4.86066">
        <ele>534.8</ele>
        <time>2021-07-10T08:58:21</time>
      </trkpt>
      <trkpt lat="44.66616" lon="4.86066">
        <ele>534.8</ele>
        <time>2021-07-10T08:58:22</time>
      </trkpt>
      <trkpt lat="44.66616" lon="4.86069">
        <ele>534.8</ele>
        <time>2021-07-10T08:58:23</time>
      </trkpt>
      <trkpt lat="44.66616" lon="4.86072">
        <ele>534.8</ele>
        <time>2021-07-10T08:58:24</time>
      </trkpt>
      <trkpt lat="44.66617" lon="4.86076">
        <ele>535</ele>
        <time>2021-07-10T08:58:25</time>
      </trkpt>
      <trkpt lat="44.66617" lon="4.86079">
        <ele>535</ele>
        <time>2021-07-10T08:58:26</time>
      </trkpt>
      <trkpt lat="44.6662" lon="4.86084">
        <ele>535</ele>
        <time>2021-07-10T08:58:27</time>
      </trkpt>
      <trkpt lat="44.6662" lon="4.86084">
        <ele>535</ele>
        <time>2021-07-10T08:58:28</time>
      </trkpt>
      <trkpt lat="44.66624" lon="4.86091">
        <ele>535</ele>
        <time>2021-07-10T08:58:29</time>
      </trkpt>
      <trkpt lat="44.6663" lon="4.86092">
        <ele>535</ele>
        <time>2021-07-10T08:58:30</time>
      </trkpt>
      <trkpt lat="44.6663" lon="4.86094">
        <ele>535</ele>
        <time>2021-07-10T08:58:31</time>
      </trkpt>
      <trkpt lat="44.66631" lon="4.86101">
        <ele>535</ele>
        <time>2021-07-10T08:58:32</time>
      </trkpt>
      <trkpt lat="44.66632" lon="4.86103">
        <ele>535</ele>
        <time>2021-07-10T08:58:33</time>
      </trkpt>
      <trkpt lat="44.66636" lon="4.86106">
        <ele>535</ele>
        <time>2021-07-10T08:58:34</time>
      </trkpt>
      <trkpt lat="44.66636" lon="4.86109">
        <ele>535</ele>
        <time>2021-07-10T08:58:35</time>
      </trkpt>
      <trkpt lat="44.66639" lon="4.86117">
        <ele>535</ele>
        <time>2021-07-10T08:58:36</time>
      </trkpt>
      <trkpt lat="44.6664" lon="4.86123">
        <ele>535</ele>
        <time>2021-07-10T08:58:37</time>
      </trkpt>
      <trkpt lat="44.6664" lon="4.86127">
        <ele>534.8</ele>
        <time>2021-07-10T08:58:38</time>
      </trkpt>
      <trkpt lat="44.6664" lon="4.86133">
        <ele>534.8</ele>
        <time>2021-07-10T08:58:39</time>
      </trkpt>
      <trkpt lat="44.66639" lon="4.86141">
        <ele>534.8</ele>
        <time>2021-07-10T08:58:40</time>
      </trkpt>
      <trkpt lat="44.66639" lon="4.86141">
        <ele>534.8</ele>
        <time>2021-07-10T08:58:41</time>
      </trkpt>
      <trkpt lat="44.66641" lon="4.86148">
        <ele>534.8</ele>
        <time>2021-07-10T08:58:42</time>
      </trkpt>
      <trkpt lat="44.6664" lon="4.86152">
        <ele>534.6</ele>
        <time>2021-07-10T08:58:43</time>
      </trkpt>
      <trkpt lat="44.66643" lon="4.86157">
        <ele>534.6</ele>
        <time>2021-07-10T08:58:44</time>
      </trkpt>
      <trkpt lat="44.66643" lon="4.86162">
        <ele>534.6</ele>
        <time>2021-07-10T08:58:45</time>
      </trkpt>
      <trkpt lat="44.66642" lon="4.86167">
        <ele>534.4</ele>
        <time>2021-07-10T08:58:46</time>
      </trkpt>
      <trkpt lat="44.66643" lon="4.86174">
        <ele>534.2</ele>
        <time>2021-07-10T08:58:47</time>
      </trkpt>
      <trkpt lat="44.66645" lon="4.8618">
        <ele>534</ele>
        <time>2021-07-10T08:58:48</time>
      </trkpt>
      <trkpt lat="44.66644" lon="4.8618">
        <ele>533.8</ele>
        <time>2021-07-10T08:58:49</time>
      </trkpt>
      <trkpt lat="44.66644" lon="4.86182">
        <ele>533.6</ele>
        <time>2021-07-10T08:58:50</time>
      </trkpt>
      <trkpt lat="44.66645" lon="4.8618">
        <ele>533.4</ele>
        <time>2021-07-10T08:58:51</time>
      </trkpt>
      <trkpt lat="44.66644" lon="4.86181">
        <ele>533.4</ele>
        <time>2021-07-10T08:58:52</time>
      </trkpt>
      <trkpt lat="44.66646" lon="4.8618">
        <ele>533.4</ele>
        <time>2021-07-10T08:58:53</time>
      </trkpt>
      <trkpt lat="44.66648" lon="4.86181">
        <ele>533.2</ele>
        <time>2021-07-10T08:58:54</time>
      </trkpt>
      <trkpt lat="44.6665" lon="4.86182">
        <ele>533.2</ele>
        <time>2021-07-10T08:58:55</time>
      </trkpt>
      <trkpt lat="44.66653" lon="4.86182">
        <ele>533.2</ele>
        <time>2021-07-10T08:58:56</time>
      </trkpt>
      <trkpt lat="44.66655" lon="4.86183">
        <ele>533.2</ele>
        <time>2021-07-10T08:58:57</time>
      </trkpt>
      <trkpt lat="44.66657" lon="4.86181">
        <ele>533.2</ele>
        <time>2021-07-10T08:58:58</time>
      </trkpt>
      <trkpt lat="44.66662" lon="4.86236">
        <ele>530.4</ele>
        <time>2021-07-10T09:01:13</time>
      </trkpt>
      <trkpt lat="44.66664" lon="4.8624">
        <ele>529.8</ele>
        <time>2021-07-10T09:01:14</time>
      </trkpt>
      <trkpt lat="44.66667" lon="4.86247">
        <ele>529.4</ele>
        <time>2021-07-10T09:01:15</time>
      </trkpt>
      <trkpt lat="44.66667" lon="4.86259">
        <ele>528.8</ele>
        <time>2021-07-10T09:01:16</time>
      </trkpt>
      <trkpt lat="44.66668" lon="4.86267">
        <ele>528</ele>
        <time>2021-07-10T09:01:17</time>
      </trkpt>
      <trkpt lat="44.6667" lon="4.86274">
        <ele>527.2</ele>
        <time>2021-07-10T09:01:18</time>
      </trkpt>
      <trkpt lat="44.66675" lon="4.86291">
        <ele>526.4</ele>
        <time>2021-07-10T09:01:19</time>
      </trkpt>
      <trkpt lat="44.66675" lon="4.86291">
        <ele>525.8</ele>
        <time>2021-07-10T09:01:20</time>
      </trkpt>
      <trkpt lat="44.66676" lon="4.86297">
        <ele>524.8</ele>
        <time>2021-07-10T09:01:21</time>
      </trkpt>
      <trkpt lat="44.66677" lon="4.86304">
        <ele>524</ele>
        <time>2021-07-10T09:01:22</time>
      </trkpt>
      <trkpt lat="44.66677" lon="4.86307">
        <ele>523</ele>
        <time>2021-07-10T09:01:23</time>
      </trkpt>
      <trkpt lat="44.66678" lon="4.86314">
        <ele>522</ele>
        <time>2021-07-10T09:01:24</time>
      </trkpt>
      <trkpt lat="44.66679" lon="4.86318">
        <ele>521.2</ele>
        <time>2021-07-10T09:01:25</time>
      </trkpt>
      <trkpt lat="44.6668" lon="4.86324">
        <ele>520.2</ele>
        <time>2021-07-10T09:01:26</time>
      </trkpt>
      <trkpt lat="44.66683" lon="4.86328">
        <ele>519.2</ele>
        <time>2021-07-10T09:01:27</time>
      </trkpt>
      <trkpt lat="44.66681" lon="4.86344">
        <ele>518.4</ele>
        <time>2021-07-10T09:01:28</time>
      </trkpt>
      <trkpt lat="44.66686" lon="4.86355">
        <ele>517.6</ele>
        <time>2021-07-10T09:01:29</time>
      </trkpt>
      <trkpt lat="44.66686" lon="4.86355">
        <ele>517</ele>
        <time>2021-07-10T09:01:30</time>
      </trkpt>
      <trkpt lat="44.66687" lon="4.86362">
        <ele>516.4</ele>
        <time>2021-07-10T09:01:31</time>
      </trkpt>
      <trkpt lat="44.66689" lon="4.86372">
        <ele>515.4</ele>
        <time>2021-07-10T09:01:32</time>
      </trkpt>
      <trkpt lat="44.6669" lon="4.86381">
        <ele>514.4</ele>
        <time>2021-07-10T09:01:33</time>
      </trkpt>
      <trkpt lat="44.66691" lon="4.86391">
        <ele>513.8</ele>
        <time>2021-07-10T09:01:34</time>
      </trkpt>
      <trkpt lat="44.66694" lon="4.86414">
        <ele>513</ele>
        <time>2021-07-10T09:01:35</time>
      </trkpt>
      <trkpt lat="44.66694" lon="4.86414">
        <ele>512.2</ele>
        <time>2021-07-10T09:01:36</time>
      </trkpt>
      <trkpt lat="44.66696" lon="4.86424">
        <ele>511.6</ele>
        <time>2021-07-10T09:01:37</time>
      </trkpt>
      <trkpt lat="44.66697" lon="4.86433">
        <ele>511</ele>
        <time>2021-07-10T09:01:38</time>
      </trkpt>
      <trkpt lat="44.66698" lon="4.86439">
        <ele>510.4</ele>
        <time>2021-07-10T09:01:39</time>
      </trkpt>
      <trkpt lat="44.66696" lon="4.86449">
        <ele>510</ele>
        <time>2021-07-10T09:01:40</time>
      </trkpt>
      <trkpt lat="44.66696" lon="4.86449">
        <ele>509.6</ele>
        <time>2021-07-10T09:01:41</time>
      </trkpt>
      <trkpt lat="44.66696" lon="4.86453">
        <ele>509.4</ele>
        <time>2021-07-10T09:01:42</time>
      </trkpt>
      <trkpt lat="44.66696" lon="4.86456">
        <ele>509.2</ele>
        <time>2021-07-10T09:01:43</time>
      </trkpt>
      <trkpt lat="44.66697" lon="4.86457">
        <ele>509.2</ele>
        <time>2021-07-10T09:01:44</time>
      </trkpt>
      <trkpt lat="44.66698" lon="4.8646">
        <ele>509.2</ele>
        <time>2021-07-10T09:01:45</time>
      </trkpt>
      <trkpt lat="44.66697" lon="4.86462">
        <ele>509.2</ele>
        <time>2021-07-10T09:01:46</time>
      </trkpt>
      <trkpt lat="44.66696" lon="4.86464">
        <ele>509.2</ele>
        <time>2021-07-10T09:01:47</time>
      </trkpt>
      <trkpt lat="44.66695" lon="4.86467">
        <ele>509.2</ele>
        <time>2021-07-10T09:01:48</time>
      </trkpt>
      <trkpt lat="44.66693" lon="4.8647">
        <ele>509.2</ele>
        <time>2021-07-10T09:01:49</time>
      </trkpt>
      <trkpt lat="44.66693" lon="4.86472">
        <ele>509.4</ele>
        <time>2021-07-10T09:01:50</time>
      </trkpt>
      <trkpt lat="44.66691" lon="4.86473">
        <ele>509.4</ele>
        <time>2021-07-10T09:01:51</time>
      </trkpt>
      <trkpt lat="44.66689" lon="4.86474">
        <ele>509.4</ele>
        <time>2021-07-10T09:01:52</time>
      </trkpt>
      <trkpt lat="44.66686" lon="4.86475">
        <ele>509.4</ele>
        <time>2021-07-10T09:01:53</time>
      </trkpt>
      <trkpt lat="44.66686" lon="4.86478">
        <ele>509.4</ele>
        <time>2021-07-10T09:01:54</time>
      </trkpt>
      <trkpt lat="44.66684" lon="4.86482">
        <ele>509.4</ele>
        <time>2021-07-10T09:01:55</time>
      </trkpt>
      <trkpt lat="44.66682" lon="4.86485">
        <ele>509.6</ele>
        <time>2021-07-10T09:01:56</time>
      </trkpt>
      <trkpt lat="44.66681" lon="4.86486">
        <ele>509.6</ele>
        <time>2021-07-10T09:01:57</time>
      </trkpt>
      <trkpt lat="44.66679" lon="4.86489">
        <ele>509.6</ele>
        <time>2021-07-10T09:01:58</time>
      </trkpt>
      <trkpt lat="44.66677" lon="4.86491">
        <ele>509.6</ele>
        <time>2021-07-10T09:01:59</time>
      </trkpt>
      <trkpt lat="44.66676" lon="4.86493">
        <ele>509.8</ele>
        <time>2021-07-10T09:02:00</time>
      </trkpt>
      <trkpt lat="44.66674" lon="4.86494">
        <ele>509.8</ele>
        <time>2021-07-10T09:02:01</time>
      </trkpt>
      <trkpt lat="44.66673" lon="4.86497">
        <ele>510</ele>
        <time>2021-07-10T09:02:02</time>
      </trkpt>
      <trkpt lat="44.66669" lon="4.86502">
        <ele>510</ele>
        <time>2021-07-10T09:02:03</time>
      </trkpt>
      <trkpt lat="44.66669" lon="4.86502">
        <ele>510.2</ele>
        <time>2021-07-10T09:02:04</time>
      </trkpt>
      <trkpt lat="44.66666" lon="4.86505">
        <ele>510.2</ele>
        <time>2021-07-10T09:02:05</time>
      </trkpt>
      <trkpt lat="44.66665" lon="4.86504">
        <ele>510.2</ele>
        <time>2021-07-10T09:02:06</time>
      </trkpt>
      <trkpt lat="44.66663" lon="4.86506">
        <ele>510.2</ele>
        <time>2021-07-10T09:02:07</time>
      </trkpt>
      <trkpt lat="44.66661" lon="4.86508">
        <ele>509.4</ele>
        <time>2021-07-10T09:02:08</time>
      </trkpt>
      <trkpt lat="44.6666" lon="4.8651">
        <ele>509.4</ele>
        <time>2021-07-10T09:02:09</time>
      </trkpt>
      <trkpt lat="44.66658" lon="4.8651">
        <ele>509.6</ele>
        <time>2021-07-10T09:02:10</time>
      </trkpt>
      <trkpt lat="44.66657" lon="4.86514">
        <ele>507</ele>
        <time>2021-07-10T09:02:11</time>
      </trkpt>
      <trkpt lat="44.66655" lon="4.86515">
        <ele>510.2</ele>
        <time>2021-07-10T09:02:12</time>
      </trkpt>
      <trkpt lat="44.66653" lon="4.86516">
        <ele>511.8</ele>
        <time>2021-07-10T09:02:13</time>
      </trkpt>
      <trkpt lat="44.6665" lon="4.8652">
        <ele>512.2</ele>
        <time>2021-07-10T09:02:14</time>
      </trkpt>
      <trkpt lat="44.66649" lon="4.8652">
        <ele>512.2</ele>
        <time>2021-07-10T09:02:15</time>
      </trkpt>
      <trkpt lat="44.66647" lon="4.86521">
        <ele>512.2</ele>
        <time>2021-07-10T09:02:16</time>
      </trkpt>
      <trkpt lat="44.66642" lon="4.86524">
        <ele>512</ele>
        <time>2021-07-10T09:02:17</time>
      </trkpt>
      <trkpt lat="44.66642" lon="4.86524">
        <ele>511.4</ele>
        <time>2021-07-10T09:02:18</time>
      </trkpt>
      <trkpt lat="44.66641" lon="4.86526">
        <ele>511.2</ele>
        <time>2021-07-10T09:02:19</time>
      </trkpt>
      <trkpt lat="44.66637" lon="4.86532">
        <ele>511.2</ele>
        <time>2021-07-10T09:02:20</time>
      </trkpt>
      <trkpt lat="44.66637" lon="4.86532">
        <ele>511.4</ele>
        <time>2021-07-10T09:02:21</time>
      </trkpt>
      <trkpt lat="44.66634" lon="4.86533">
        <ele>512.2</ele>
        <time>2021-07-10T09:02:22</time>
      </trkpt>
      <trkpt lat="44.66631" lon="4.86539">
        <ele>512.6</ele>
        <time>2021-07-10T09:02:23</time>
      </trkpt>
      <trkpt lat="44.66631" lon="4.86539">
        <ele>512.6</ele>
        <time>2021-07-10T09:02:24</time>
      </trkpt>
      <trkpt lat="44.66625" lon="4.86544">
        <ele>512.6</ele>
        <time>2021-07-10T09:02:25</time>
      </trkpt>
      <trkpt lat="44.66625" lon="4.86544">
        <ele>512.6</ele>
        <time>2021-07-10T09:02:26</time>
      </trkpt>
      <trkpt lat="44.66624" lon="4.86549">
        <ele>512.6</ele>
        <time>2021-07-10T09:02:27</time>
      </trkpt>
      <trkpt lat="44.66621" lon="4.86549">
        <ele>512.6</ele>
        <time>2021-07-10T09:02:28</time>
      </trkpt>
      <trkpt lat="44.66618" lon="4.86552">
        <ele>512.8</ele>
        <time>2021-07-10T09:02:29</time>
      </trkpt>
      <trkpt lat="44.66613" lon="4.86556">
        <ele>512.8</ele>
        <time>2021-07-10T09:02:30</time>
      </trkpt>
      <trkpt lat="44.66613" lon="4.86556">
        <ele>512.8</ele>
        <time>2021-07-10T09:02:31</time>
      </trkpt>
      <trkpt lat="44.66612" lon="4.86557">
        <ele>512.8</ele>
        <time>2021-07-10T09:02:32</time>
      </trkpt>
      <trkpt lat="44.6661" lon="4.86558">
        <ele>512.8</ele>
        <time>2021-07-10T09:02:33</time>
      </trkpt>
      <trkpt lat="44.66607" lon="4.8656">
        <ele>512.8</ele>
        <time>2021-07-10T09:02:34</time>
      </trkpt>
      <trkpt lat="44.66603" lon="4.86565">
        <ele>512.8</ele>
        <time>2021-07-10T09:02:35</time>
      </trkpt>
      <trkpt lat="44.66603" lon="4.86565">
        <ele>512.8</ele>
        <time>2021-07-10T09:02:36</time>
      </trkpt>
      <trkpt lat="44.66601" lon="4.86567">
        <ele>512.8</ele>
        <time>2021-07-10T09:02:37</time>
      </trkpt>
      <trkpt lat="44.666" lon="4.86568">
        <ele>512.8</ele>
        <time>2021-07-10T09:02:38</time>
      </trkpt>
      <trkpt lat="44.66599" lon="4.86569">
        <ele>512.8</ele>
        <time>2021-07-10T09:02:39</time>
      </trkpt>
      <trkpt lat="44.66595" lon="4.86573">
        <ele>512.8</ele>
        <time>2021-07-10T09:02:40</time>
      </trkpt>
      <trkpt lat="44.66595" lon="4.86573">
        <ele>512.6</ele>
        <time>2021-07-10T09:02:41</time>
      </trkpt>
      <trkpt lat="44.66593" lon="4.86574">
        <ele>512.6</ele>
        <time>2021-07-10T09:02:42</time>
      </trkpt>
      <trkpt lat="44.66593" lon="4.86576">
        <ele>512.6</ele>
        <time>2021-07-10T09:02:43</time>
      </trkpt>
      <trkpt lat="44.66591" lon="4.86577">
        <ele>512.6</ele>
        <time>2021-07-10T09:02:44</time>
      </trkpt>
      <trkpt lat="44.66587" lon="4.86578">
        <ele>512.4</ele>
        <time>2021-07-10T09:02:45</time>
      </trkpt>
      <trkpt lat="44.66587" lon="4.86578">
        <ele>512.2</ele>
        <time>2021-07-10T09:02:46</time>
      </trkpt>
      <trkpt lat="44.66582" lon="4.86578">
        <ele>512.2</ele>
        <time>2021-07-10T09:02:47</time>
      </trkpt>
      <trkpt lat="44.66582" lon="4.86578">
        <ele>512.2</ele>
        <time>2021-07-10T09:02:48</time>
      </trkpt>
      <trkpt lat="44.66577" lon="4.86579">
        <ele>512</ele>
        <time>2021-07-10T09:02:49</time>
      </trkpt>
      <trkpt lat="44.66572" lon="4.86585">
        <ele>512</ele>
        <time>2021-07-10T09:02:50</time>
      </trkpt>
      <trkpt lat="44.66572" lon="4.86585">
        <ele>511.8</ele>
        <time>2021-07-10T09:02:51</time>
      </trkpt>
      <trkpt lat="44.66568" lon="4.86587">
        <ele>511.8</ele>
        <time>2021-07-10T09:02:52</time>
      </trkpt>
      <trkpt lat="44.66565" lon="4.86589">
        <ele>511.6</ele>
        <time>2021-07-10T09:02:53</time>
      </trkpt>
      <trkpt lat="44.66562" lon="4.86592">
        <ele>511.4</ele>
        <time>2021-07-10T09:02:54</time>
      </trkpt>
      <trkpt lat="44.66553" lon="4.86597">
        <ele>511.2</ele>
        <time>2021-07-10T09:02:55</time>
      </trkpt>
      <trkpt lat="44.66553" lon="4.86597">
        <ele>511.2</ele>
        <time>2021-07-10T09:02:56</time>
      </trkpt>
      <trkpt lat="44.66549" lon="4.86599">
        <ele>511</ele>
        <time>2021-07-10T09:02:57</time>
      </trkpt>
      <trkpt lat="44.66547" lon="4.86602">
        <ele>510.8</ele>
        <time>2021-07-10T09:02:58</time>
      </trkpt>
      <trkpt lat="44.66545" lon="4.86608">
        <ele>510.8</ele>
        <time>2021-07-10T09:02:59</time>
      </trkpt>
      <trkpt lat="44.66542" lon="4.86616">
        <ele>510.8</ele>
        <time>2021-07-10T09:03:00</time>
      </trkpt>
      <trkpt lat="44.66542" lon="4.86616">
        <ele>510.6</ele>
        <time>2021-07-10T09:03:01</time>
      </trkpt>
      <trkpt lat="44.66542" lon="4.86619">
        <ele>510.6</ele>
        <time>2021-07-10T09:03:02</time>
      </trkpt>
      <trkpt lat="44.66541" lon="4.86623">
        <ele>510.6</ele>
        <time>2021-07-10T09:03:03</time>
      </trkpt>
      <trkpt lat="44.66543" lon="4.86625">
        <ele>510.6</ele>
        <time>2021-07-10T09:03:04</time>
      </trkpt>
      <trkpt lat="44.66543" lon="4.86625">
        <ele>510.6</ele>
        <time>2021-07-10T09:03:05</time>
      </trkpt>
      <trkpt lat="44.66543" lon="4.86635">
        <ele>510.6</ele>
        <time>2021-07-10T09:03:06</time>
      </trkpt>
      <trkpt lat="44.66543" lon="4.86635">
        <ele>510.6</ele>
        <time>2021-07-10T09:03:07</time>
      </trkpt>
      <trkpt lat="44.66545" lon="4.86637">
        <ele>510.8</ele>
        <time>2021-07-10T09:03:08</time>
      </trkpt>
      <trkpt lat="44.66545" lon="4.86639">
        <ele>510.8</ele>
        <time>2021-07-10T09:03:09</time>
      </trkpt>
      <trkpt lat="44.66547" lon="4.86641">
        <ele>510.8</ele>
        <time>2021-07-10T09:03:10</time>
      </trkpt>
      <trkpt lat="44.66547" lon="4.86644">
        <ele>510.8</ele>
        <time>2021-07-10T09:03:11</time>
      </trkpt>
      <trkpt lat="44.66547" lon="4.86644">
        <ele>510.8</ele>
        <time>2021-07-10T09:03:12</time>
      </trkpt>
      <trkpt lat="44.66547" lon="4.86646">
        <ele>510.6</ele>
        <time>2021-07-10T09:03:13</time>
      </trkpt>
      <trkpt lat="44.66546" lon="4.86647">
        <ele>510.6</ele>
        <time>2021-07-10T09:03:14</time>
      </trkpt>
      <trkpt lat="44.66547" lon="4.86648">
        <ele>510.4</ele>
        <time>2021-07-10T09:03:15</time>
      </trkpt>
      <trkpt lat="44.66548" lon="4.86649">
        <ele>510.4</ele>
        <time>2021-07-10T09:03:16</time>
      </trkpt>
      <trkpt lat="44.66548" lon="4.86649">
        <ele>510.4</ele>
        <time>2021-07-10T09:03:17</time>
      </trkpt>
      <trkpt lat="44.66547" lon="4.86648">
        <ele>510.2</ele>
        <time>2021-07-10T09:03:18</time>
      </trkpt>
      <trkpt lat="44.66547" lon="4.8665">
        <ele>510.2</ele>
        <time>2021-07-10T09:03:19</time>
      </trkpt>
      <trkpt lat="44.66548" lon="4.86651">
        <ele>510.2</ele>
        <time>2021-07-10T09:03:20</time>
      </trkpt>
      <trkpt lat="44.66545" lon="4.86654">
        <ele>510.2</ele>
        <time>2021-07-10T09:03:21</time>
      </trkpt>
      <trkpt lat="44.66545" lon="4.86654">
        <ele>510</ele>
        <time>2021-07-10T09:03:22</time>
      </trkpt>
      <trkpt lat="44.66489" lon="4.86708">
        <ele>499.4</ele>
        <time>2021-07-10T09:03:49</time>
      </trkpt>
      <trkpt lat="44.66477" lon="4.8671">
        <ele>498.4</ele>
        <time>2021-07-10T09:03:50</time>
      </trkpt>
      <trkpt lat="44.6646" lon="4.86716">
        <ele>497.6</ele>
        <time>2021-07-10T09:03:51</time>
      </trkpt>
      <trkpt lat="44.6646" lon="4.86716">
        <ele>497</ele>
        <time>2021-07-10T09:03:52</time>
      </trkpt>
      <trkpt lat="44.66452" lon="4.86726">
        <ele>496.2</ele>
        <time>2021-07-10T09:03:53</time>
      </trkpt>
      <trkpt lat="44.66452" lon="4.86726">
        <ele>495.4</ele>
        <time>2021-07-10T09:03:54</time>
      </trkpt>
      <trkpt lat="44.66438" lon="4.86735">
        <ele>494.4</ele>
        <time>2021-07-10T09:03:55</time>
      </trkpt>
      <trkpt lat="44.66425" lon="4.86742">
        <ele>493.6</ele>
        <time>2021-07-10T09:03:56</time>
      </trkpt>
      <trkpt lat="44.66425" lon="4.86742">
        <ele>492.8</ele>
        <time>2021-07-10T09:03:57</time>
      </trkpt>
      <trkpt lat="44.66418" lon="4.86744">
        <ele>492</ele>
        <time>2021-07-10T09:03:58</time>
      </trkpt>
      <trkpt lat="44.66418" lon="4.86744">
        <ele>491.2</ele>
        <time>2021-07-10T09:03:59</time>
      </trkpt>
      <trkpt lat="44.66392" lon="4.86757">
        <ele>490.2</ele>
        <time>2021-07-10T09:04:00</time>
      </trkpt>
      <trkpt lat="44.66392" lon="4.86757">
        <ele>489.4</ele>
        <time>2021-07-10T09:04:01</time>
      </trkpt>
      <trkpt lat="44.66385" lon="4.86763">
        <ele>488.4</ele>
        <time>2021-07-10T09:04:02</time>
      </trkpt>
      <trkpt lat="44.66379" lon="4.8677">
        <ele>487.6</ele>
        <time>2021-07-10T09:04:03</time>
      </trkpt>
      <trkpt lat="44.66375" lon="4.86776">
        <ele>486.8</ele>
        <time>2021-07-10T09:04:04</time>
      </trkpt>
      <trkpt lat="44.6637" lon="4.8678">
        <ele>486</ele>
        <time>2021-07-10T09:04:05</time>
      </trkpt>
      <trkpt lat="44.66366" lon="4.86787">
        <ele>485.4</ele>
        <time>2021-07-10T09:04:06</time>
      </trkpt>
      <trkpt lat="44.66357" lon="4.86798">
        <ele>484.8</ele>
        <time>2021-07-10T09:04:07</time>
      </trkpt>
      <trkpt lat="44.66357" lon="4.86798">
        <ele>484.2</ele>
        <time>2021-07-10T09:04:08</time>
      </trkpt>
      <trkpt lat="44.66354" lon="4.86809">
        <ele>483.6</ele>
        <time>2021-07-10T09:04:09</time>
      </trkpt>
      <trkpt lat="44.66344" lon="4.86816">
        <ele>483</ele>
        <time>2021-07-10T09:04:10</time>
      </trkpt>
      <trkpt lat="44.66344" lon="4.86816">
        <ele>482.6</ele>
        <time>2021-07-10T09:04:11</time>
      </trkpt>
      <trkpt lat="44.66334" lon="4.86826">
        <ele>482</ele>
        <time>2021-07-10T09:04:12</time>
      </trkpt>
      <trkpt lat="44.66334" lon="4.86826">
        <ele>481.6</ele>
        <time>2021-07-10T09:04:13</time>
      </trkpt>
      <trkpt lat="44.66326" lon="4.86829">
        <ele>480.8</ele>
        <time>2021-07-10T09:04:14</time>
      </trkpt>
      <trkpt lat="44.66321" lon="4.86833">
        <ele>480</ele>
        <time>2021-07-10T09:04:15</time>
      </trkpt>
      <trkpt lat="44.66315" lon="4.86834">
        <ele>479.2</ele>
        <time>2021-07-10T09:04:16</time>
      </trkpt>
      <trkpt lat="44.66301" lon="4.86841">
        <ele>478.2</ele>
        <time>2021-07-10T09:04:17</time>
      </trkpt>
      <trkpt lat="44.66301" lon="4.86841">
        <ele>477.2</ele>
        <time>2021-07-10T09:04:18</time>
      </trkpt>
      <trkpt lat="44.66294" lon="4.86841">
        <ele>476.2</ele>
        <time>2021-07-10T09:04:19</time>
      </trkpt>
      <trkpt lat="44.66282" lon="4.86845">
        <ele>475</ele>
        <time>2021-07-10T09:04:20</time>
      </trkpt>
      <trkpt lat="44.66282" lon="4.86845">
        <ele>473.8</ele>
        <time>2021-07-10T09:04:21</time>
      </trkpt>
      <trkpt lat="44.66264" lon="4.86859">
        <ele>472.6</ele>
        <time>2021-07-10T09:04:22</time>
      </trkpt>
      <trkpt lat="44.66264" lon="4.86859">
        <ele>471.4</ele>
        <time>2021-07-10T09:04:23</time>
      </trkpt>
      <trkpt lat="44.66249" lon="4.86872">
        <ele>470</ele>
        <time>2021-07-10T09:04:24</time>
      </trkpt>
      <trkpt lat="44.66249" lon="4.86872">
        <ele>468.6</ele>
        <time>2021-07-10T09:04:25</time>
      </trkpt>
      <trkpt lat="44.66243" lon="4.86876">
        <ele>467.4</ele>
        <time>2021-07-10T09:04:26</time>
      </trkpt>
      <trkpt lat="44.66229" lon="4.86889">
        <ele>466</ele>
        <time>2021-07-10T09:04:27</time>
      </trkpt>
      <trkpt lat="44.66229" lon="4.86889">
        <ele>464.6</ele>
        <time>2021-07-10T09:04:28</time>
      </trkpt>
      <trkpt lat="44.66222" lon="4.86894">
        <ele>463.6</ele>
        <time>2021-07-10T09:04:29</time>
      </trkpt>
      <trkpt lat="44.66218" lon="4.86906">
        <ele>462.4</ele>
        <time>2021-07-10T09:04:30</time>
      </trkpt>
      <trkpt lat="44.66214" lon="4.86913">
        <ele>461.4</ele>
        <time>2021-07-10T09:04:31</time>
      </trkpt>
      <trkpt lat="44.66208" lon="4.86918">
        <ele>460.4</ele>
        <time>2021-07-10T09:04:32</time>
      </trkpt>
      <trkpt lat="44.66208" lon="4.86918">
        <ele>459.6</ele>
        <time>2021-07-10T09:04:33</time>
      </trkpt>
      <trkpt lat="44.662" lon="4.86928">
        <ele>459</ele>
        <time>2021-07-10T09:04:34</time>
      </trkpt>
      <trkpt lat="44.66199" lon="4.8693">
        <ele>458.4</ele>
        <time>2021-07-10T09:04:35</time>
      </trkpt>
      <trkpt lat="44.66197" lon="4.86932">
        <ele>458</ele>
        <time>2021-07-10T09:04:36</time>
      </trkpt>
      <trkpt lat="44.66193" lon="4.86936">
        <ele>457.8</ele>
        <time>2021-07-10T09:04:37</time>
      </trkpt>
      <trkpt lat="44.66193" lon="4.86936">
        <ele>457.6</ele>
        <time>2021-07-10T09:04:38</time>
      </trkpt>
      <trkpt lat="44.66192" lon="4.86938">
        <ele>457.6</ele>
        <time>2021-07-10T09:04:39</time>
      </trkpt>
      <trkpt lat="44.66192" lon="4.8694">
        <ele>457.4</ele>
        <time>2021-07-10T09:04:40</time>
      </trkpt>
      <trkpt lat="44.66192" lon="4.8694">
        <ele>457.4</ele>
        <time>2021-07-10T09:04:41</time>
      </trkpt>
      <trkpt lat="44.6619" lon="4.86941">
        <ele>457.4</ele>
        <time>2021-07-10T09:04:42</time>
      </trkpt>
      <trkpt lat="44.6619" lon="4.86941">
        <ele>457.4</ele>
        <time>2021-07-10T09:04:43</time>
      </trkpt>
      <trkpt lat="44.66127" lon="4.86992">
        <ele>450.4</ele>
        <time>2021-07-10T09:04:57</time>
      </trkpt>
      <trkpt lat="44.66127" lon="4.86992">
        <ele>449.4</ele>
        <time>2021-07-10T09:04:58</time>
      </trkpt>
      <trkpt lat="44.6612" lon="4.86993">
        <ele>448.2</ele>
        <time>2021-07-10T09:04:59</time>
      </trkpt>
      <trkpt lat="44.66109" lon="4.86995">
        <ele>447</ele>
        <time>2021-07-10T09:05:00</time>
      </trkpt>
      <trkpt lat="44.66109" lon="4.86995">
        <ele>445.8</ele>
        <time>2021-07-10T09:05:01</time>
      </trkpt>
      <trkpt lat="44.66092" lon="4.86991">
        <ele>444.8</ele>
        <time>2021-07-10T09:05:02</time>
      </trkpt>
      <trkpt lat="44.66092" lon="4.86991">
        <ele>443.6</ele>
        <time>2021-07-10T09:05:03</time>
      </trkpt>
      <trkpt lat="44.66082" lon="4.86993">
        <ele>442.4</ele>
        <time>2021-07-10T09:05:04</time>
      </trkpt>
      <trkpt lat="44.66075" lon="4.8699">
        <ele>441</ele>
        <time>2021-07-10T09:05:05</time>
      </trkpt>
      <trkpt lat="44.66068" lon="4.8699">
        <ele>439.6</ele>
        <time>2021-07-10T09:05:06</time>
      </trkpt>
      <trkpt lat="44.66062" lon="4.86988">
        <ele>438.2</ele>
        <time>2021-07-10T09:05:07</time>
      </trkpt>
      <trkpt lat="44.66062" lon="4.86988">
        <ele>437</ele>
        <time>2021-07-10T09:05:08</time>
      </trkpt>
      <trkpt lat="44.66051" lon="4.86994">
        <ele>435.8</ele>
        <time>2021-07-10T09:05:09</time>
      </trkpt>
      <trkpt lat="44.66044" lon="4.86991">
        <ele>434.8</ele>
        <time>2021-07-10T09:05:10</time>
      </trkpt>
      <trkpt lat="44.66038" lon="4.86992">
        <ele>433.6</ele>
        <time>2021-07-10T09:05:11</time>
      </trkpt>
      <trkpt lat="44.66023" lon="4.86999">
        <ele>432.4</ele>
        <time>2021-07-10T09:05:12</time>
      </trkpt>
      <trkpt lat="44.66023" lon="4.86999">
        <ele>431.2</ele>
        <time>2021-07-10T09:05:13</time>
      </trkpt>
      <trkpt lat="44.66012" lon="4.87006">
        <ele>430</ele>
        <time>2021-07-10T09:05:14</time>
      </trkpt>
      <trkpt lat="44.66012" lon="4.87006">
        <ele>429</ele>
        <time>2021-07-10T09:05:15</time>
      </trkpt>
      <trkpt lat="44.66006" lon="4.87011">
        <ele>428</ele>
        <time>2021-07-10T09:05:16</time>
      </trkpt>
      <trkpt lat="44.66004" lon="4.87018">
        <ele>427</ele>
        <time>2021-07-10T09:05:17</time>
      </trkpt>
      <trkpt lat="44.66004" lon="4.87018">
        <ele>426.2</ele>
        <time>2021-07-10T09:05:18</time>
      </trkpt>
      <trkpt lat="44.65999" lon="4.87019">
        <ele>425.6</ele>
        <time>2021-07-10T09:05:19</time>
      </trkpt>
      <trkpt lat="44.65995" lon="4.87022">
        <ele>425</ele>
        <time>2021-07-10T09:05:20</time>
      </trkpt>
      <trkpt lat="44.6599" lon="4.87024">
        <ele>424.6</ele>
        <time>2021-07-10T09:05:21</time>
      </trkpt>
      <trkpt lat="44.65976" lon="4.87034">
        <ele>424.2</ele>
        <time>2021-07-10T09:05:22</time>
      </trkpt>
      <trkpt lat="44.65976" lon="4.87034">
        <ele>423.6</ele>
        <time>2021-07-10T09:05:23</time>
      </trkpt>
      <trkpt lat="44.6597" lon="4.87038">
        <ele>423.2</ele>
        <time>2021-07-10T09:05:24</time>
      </trkpt>
      <trkpt lat="44.65963" lon="4.87044">
        <ele>422.4</ele>
        <time>2021-07-10T09:05:25</time>
      </trkpt>
      <trkpt lat="44.65956" lon="4.87052">
        <ele>421.8</ele>
        <time>2021-07-10T09:05:26</time>
      </trkpt>
      <trkpt lat="44.65942" lon="4.87063">
        <ele>421.2</ele>
        <time>2021-07-10T09:05:27</time>
      </trkpt>
      <trkpt lat="44.65942" lon="4.87063">
        <ele>420.6</ele>
        <time>2021-07-10T09:05:28</time>
      </trkpt>
      <trkpt lat="44.65935" lon="4.87069">
        <ele>419.8</ele>
        <time>2021-07-10T09:05:29</time>
      </trkpt>
      <trkpt lat="44.6593" lon="4.87074">
        <ele>419</ele>
        <time>2021-07-10T09:05:30</time>
      </trkpt>
      <trkpt lat="44.65925" lon="4.87075">
        <ele>418</ele>
        <time>2021-07-10T09:05:31</time>
      </trkpt>
      <trkpt lat="44.6592" lon="4.87083">
        <ele>417.2</ele>
        <time>2021-07-10T09:05:32</time>
      </trkpt>
      <trkpt lat="44.65916" lon="4.87089">
        <ele>416.2</ele>
        <time>2021-07-10T09:05:33</time>
      </trkpt>
      <trkpt lat="44.65904" lon="4.87096">
        <ele>415.2</ele>
        <time>2021-07-10T09:05:34</time>
      </trkpt>
      <trkpt lat="44.65904" lon="4.87096">
        <ele>414.2</ele>
        <time>2021-07-10T09:05:35</time>
      </trkpt>
      <trkpt lat="44.65901" lon="4.87098">
        <ele>413.2</ele>
        <time>2021-07-10T09:05:36</time>
      </trkpt>
      <trkpt lat="44.65896" lon="4.871">
        <ele>411.8</ele>
        <time>2021-07-10T09:05:37</time>
      </trkpt>
      <trkpt lat="44.6589" lon="4.87098">
        <ele>410.6</ele>
        <time>2021-07-10T09:05:38</time>
      </trkpt>
      <trkpt lat="44.65887" lon="4.87097">
        <ele>409.4</ele>
        <time>2021-07-10T09:05:39</time>
      </trkpt>
      <trkpt lat="44.65883" lon="4.87099">
        <ele>408.4</ele>
        <time>2021-07-10T09:05:40</time>
      </trkpt>
      <trkpt lat="44.65877" lon="4.87099">
        <ele>407.2</ele>
        <time>2021-07-10T09:05:41</time>
      </trkpt>
      <trkpt lat="44.65872" lon="4.87099">
        <ele>406</ele>
        <time>2021-07-10T09:05:42</time>
      </trkpt>
      <trkpt lat="44.65858" lon="4.87102">
        <ele>405</ele>
        <time>2021-07-10T09:05:43</time>
      </trkpt>
      <trkpt lat="44.65858" lon="4.87102">
        <ele>404</ele>
        <time>2021-07-10T09:05:44</time>
      </trkpt>
      <trkpt lat="44.65854" lon="4.87103">
        <ele>403.2</ele>
        <time>2021-07-10T09:05:45</time>
      </trkpt>
      <trkpt lat="44.65844" lon="4.87107">
        <ele>402.2</ele>
        <time>2021-07-10T09:05:46</time>
      </trkpt>
      <trkpt lat="44.65844" lon="4.87107">
        <ele>401</ele>
        <time>2021-07-10T09:05:47</time>
      </trkpt>
      <trkpt lat="44.65835" lon="4.87106">
        <ele>400</ele>
        <time>2021-07-10T09:05:48</time>
      </trkpt>
      <trkpt lat="44.65835" lon="4.87106">
        <ele>399</ele>
        <time>2021-07-10T09:05:49</time>
      </trkpt>
      <trkpt lat="44.65831" lon="4.87102">
        <ele>398</ele>
        <time>2021-07-10T09:05:50</time>
      </trkpt>
      <trkpt lat="44.65826" lon="4.87105">
        <ele>396.8</ele>
        <time>2021-07-10T09:05:51</time>
      </trkpt>
      <trkpt lat="44.65819" lon="4.87109">
        <ele>396</ele>
        <time>2021-07-10T09:05:52</time>
      </trkpt>
      <trkpt lat="44.65811" lon="4.87113">
        <ele>395</ele>
        <time>2021-07-10T09:05:53</time>
      </trkpt>
      <trkpt lat="44.65808" lon="4.87111">
        <ele>394.2</ele>
        <time>2021-07-10T09:05:54</time>
      </trkpt>
      <trkpt lat="44.65802" lon="4.87111">
        <ele>393.2</ele>
        <time>2021-07-10T09:05:55</time>
      </trkpt>
      <trkpt lat="44.65794" lon="4.87114">
        <ele>392.4</ele>
        <time>2021-07-10T09:05:56</time>
      </trkpt>
      <trkpt lat="44.65794" lon="4.87114">
        <ele>391.6</ele>
        <time>2021-07-10T09:05:57</time>
      </trkpt>
      <trkpt lat="44.65787" lon="4.87115">
        <ele>390.8</ele>
        <time>2021-07-10T09:05:58</time>
      </trkpt>
      <trkpt lat="44.65787" lon="4.87115">
        <ele>390</ele>
        <time>2021-07-10T09:05:59</time>
      </trkpt>
      <trkpt lat="44.65783" lon="4.87112">
        <ele>389.2</ele>
        <time>2021-07-10T09:06:00</time>
      </trkpt>
      <trkpt lat="44.65774" lon="4.87111">
        <ele>388.6</ele>
        <time>2021-07-10T09:06:01</time>
      </trkpt>
      <trkpt lat="44.65774" lon="4.87111">
        <ele>388</ele>
        <time>2021-07-10T09:06:02</time>
      </trkpt>
      <trkpt lat="44.65769" lon="4.87112">
        <ele>387.4</ele>
        <time>2021-07-10T09:06:03</time>
      </trkpt>
      <trkpt lat="44.65765" lon="4.87112">
        <ele>386.8</ele>
        <time>2021-07-10T09:06:04</time>
      </trkpt>
      <trkpt lat="44.65755" lon="4.87111">
        <ele>386.2</ele>
        <time>2021-07-10T09:06:05</time>
      </trkpt>
      <trkpt lat="44.6574" lon="4.87114">
        <ele>385.8</ele>
        <time>2021-07-10T09:06:06</time>
      </trkpt>
      <trkpt lat="44.6574" lon="4.87114">
        <ele>385.2</ele>
        <time>2021-07-10T09:06:07</time>
      </trkpt>
      <trkpt lat="44.65736" lon="4.87115">
        <ele>384.6</ele>
        <time>2021-07-10T09:06:08</time>
      </trkpt>
      <trkpt lat="44.65731" lon="4.87116">
        <ele>383.8</ele>
        <time>2021-07-10T09:06:09</time>
      </trkpt>
      <trkpt lat="44.65725" lon="4.8712">
        <ele>383.2</ele>
        <time>2021-07-10T09:06:10</time>
      </trkpt>
      <trkpt lat="44.65725" lon="4.8712">
        <ele>382.6</ele>
        <time>2021-07-10T09:06:11</time>
      </trkpt>
      <trkpt lat="44.65722" lon="4.87119">
        <ele>382</ele>
        <time>2021-07-10T09:06:12</time>
      </trkpt>
      <trkpt lat="44.65716" lon="4.8712">
        <ele>381.4</ele>
        <time>2021-07-10T09:06:13</time>
      </trkpt>
      <trkpt lat="44.65714" lon="4.87119">
        <ele>381.2</ele>
        <time>2021-07-10T09:06:14</time>
      </trkpt>
      <trkpt lat="44.65709" lon="4.87123">
        <ele>380.8</ele>
        <time>2021-07-10T09:06:15</time>
      </trkpt>
      <trkpt lat="44.65707" lon="4.87122">
        <ele>380.6</ele>
        <time>2021-07-10T09:06:16</time>
      </trkpt>
      <trkpt lat="44.65704" lon="4.87123">
        <ele>380.2</ele>
        <time>2021-07-10T09:06:17</time>
      </trkpt>
      <trkpt lat="44.65702" lon="4.8712">
        <ele>379.8</ele>
        <time>2021-07-10T09:06:18</time>
      </trkpt>
      <trkpt lat="44.65699" lon="4.87116">
        <ele>379.6</ele>
        <time>2021-07-10T09:06:19</time>
      </trkpt>
      <trkpt lat="44.65694" lon="4.87113">
        <ele>379.2</ele>
        <time>2021-07-10T09:06:20</time>
      </trkpt>
      <trkpt lat="44.65686" lon="4.87114">
        <ele>378.8</ele>
        <time>2021-07-10T09:06:21</time>
      </trkpt>
      <trkpt lat="44.65686" lon="4.87114">
        <ele>378.4</ele>
        <time>2021-07-10T09:06:22</time>
      </trkpt>
      <trkpt lat="44.65681" lon="4.87113">
        <ele>377.8</ele>
        <time>2021-07-10T09:06:23</time>
      </trkpt>
      <trkpt lat="44.65676" lon="4.87112">
        <ele>377.4</ele>
        <time>2021-07-10T09:06:24</time>
      </trkpt>
      <trkpt lat="44.65673" lon="4.87109">
        <ele>377</ele>
        <time>2021-07-10T09:06:25</time>
      </trkpt>
      <trkpt lat="44.65663" lon="4.87115">
        <ele>376.4</ele>
        <time>2021-07-10T09:06:26</time>
      </trkpt>
      <trkpt lat="44.65663" lon="4.87115">
        <ele>376</ele>
        <time>2021-07-10T09:06:27</time>
      </trkpt>
      <trkpt lat="44.65655" lon="4.87112">
        <ele>375.4</ele>
        <time>2021-07-10T09:06:28</time>
      </trkpt>
      <trkpt lat="44.65655" lon="4.87112">
        <ele>375.2</ele>
        <time>2021-07-10T09:06:29</time>
      </trkpt>
      <trkpt lat="44.6565" lon="4.87112">
        <ele>374.8</ele>
        <time>2021-07-10T09:06:30</time>
      </trkpt>
      <trkpt lat="44.65643" lon="4.87119">
        <ele>374.4</ele>
        <time>2021-07-10T09:06:31</time>
      </trkpt>
      <trkpt lat="44.6564" lon="4.87119">
        <ele>374.2</ele>
        <time>2021-07-10T09:06:32</time>
      </trkpt>
      <trkpt lat="44.65634" lon="4.87118">
        <ele>373.8</ele>
        <time>2021-07-10T09:06:33</time>
      </trkpt>
      <trkpt lat="44.65627" lon="4.87117">
        <ele>373.6</ele>
        <time>2021-07-10T09:06:34</time>
      </trkpt>
      <trkpt lat="44.65623" lon="4.87116">
        <ele>373.4</ele>
        <time>2021-07-10T09:06:35</time>
      </trkpt>
      <trkpt lat="44.65618" lon="4.87113">
        <ele>373</ele>
        <time>2021-07-10T09:06:36</time>
      </trkpt>
      <trkpt lat="44.65617" lon="4.87113">
        <ele>372.6</ele>
        <time>2021-07-10T09:06:37</time>
      </trkpt>
      <trkpt lat="44.65614" lon="4.87112">
        <ele>372</ele>
        <time>2021-07-10T09:06:38</time>
      </trkpt>
      <trkpt lat="44.65608" lon="4.87111">
        <ele>371.6</ele>
        <time>2021-07-10T09:06:39</time>
      </trkpt>
      <trkpt lat="44.65604" lon="4.87106">
        <ele>371</ele>
        <time>2021-07-10T09:06:40</time>
      </trkpt>
      <trkpt lat="44.65599" lon="4.871">
        <ele>370.6</ele>
        <time>2021-07-10T09:06:41</time>
      </trkpt>
      <trkpt lat="44.65594" lon="4.87098">
        <ele>370.2</ele>
        <time>2021-07-10T09:06:42</time>
      </trkpt>
      <trkpt lat="44.65591" lon="4.87096">
        <ele>369.6</ele>
        <time>2021-07-10T09:06:43</time>
      </trkpt>
      <trkpt lat="44.65587" lon="4.87094">
        <ele>369.2</ele>
        <time>2021-07-10T09:06:44</time>
      </trkpt>
      <trkpt lat="44.65584" lon="4.87092">
        <ele>368.8</ele>
        <time>2021-07-10T09:06:45</time>
      </trkpt>
      <trkpt lat="44.65582" lon="4.87091">
        <ele>368.4</ele>
        <time>2021-07-10T09:06:46</time>
      </trkpt>
      <trkpt lat="44.65581" lon="4.87087">
        <ele>368</ele>
        <time>2021-07-10T09:06:47</time>
      </trkpt>
      <trkpt lat="44.65578" lon="4.87087">
        <ele>367.8</ele>
        <time>2021-07-10T09:06:48</time>
      </trkpt>
      <trkpt lat="44.65575" lon="4.87089">
        <ele>367.4</ele>
        <time>2021-07-10T09:06:49</time>
      </trkpt>
      <trkpt lat="44.65573" lon="4.8709">
        <ele>367.4</ele>
        <time>2021-07-10T09:06:50</time>
      </trkpt>
      <trkpt lat="44.65572" lon="4.87089">
        <ele>367.2</ele>
        <time>2021-07-10T09:06:51</time>
      </trkpt>
      <trkpt lat="44.65567" lon="4.87088">
        <ele>367</ele>
        <time>2021-07-10T09:06:52</time>
      </trkpt>
      <trkpt lat="44.65564" lon="4.87085">
        <ele>366.8</ele>
        <time>2021-07-10T09:06:53</time>
      </trkpt>
      <trkpt lat="44.65562" lon="4.87084">
        <ele>366.6</ele>
        <time>2021-07-10T09:06:54</time>
      </trkpt>
      <trkpt lat="44.65556" lon="4.87084">
        <ele>366.4</ele>
        <time>2021-07-10T09:06:55</time>
      </trkpt>
      <trkpt lat="44.65553" lon="4.87082">
        <ele>366.2</ele>
        <time>2021-07-10T09:06:56</time>
      </trkpt>
      <trkpt lat="44.65549" lon="4.87076">
        <ele>365.8</ele>
        <time>2021-07-10T09:06:57</time>
      </trkpt>
      <trkpt lat="44.65546" lon="4.87074">
        <ele>365.4</ele>
        <time>2021-07-10T09:06:58</time>
      </trkpt>
      <trkpt lat="44.65541" lon="4.87074">
        <ele>365</ele>
        <time>2021-07-10T09:06:59</time>
      </trkpt>
      <trkpt lat="44.65536" lon="4.87073">
        <ele>364.6</ele>
        <time>2021-07-10T09:07:00</time>
      </trkpt>
      <trkpt lat="44.65532" lon="4.87069">
        <ele>364.2</ele>
        <time>2021-07-10T09:07:01</time>
      </trkpt>
      <trkpt lat="44.65524" lon="4.87067">
        <ele>363.8</ele>
        <time>2021-07-10T09:07:02</time>
      </trkpt>
      <trkpt lat="44.65519" lon="4.87062">
        <ele>363.4</ele>
        <time>2021-07-10T09:07:03</time>
      </trkpt>
      <trkpt lat="44.65512" lon="4.87058">
        <ele>363</ele>
        <time>2021-07-10T09:07:04</time>
      </trkpt>
      <trkpt lat="44.65508" lon="4.87056">
        <ele>362.6</ele>
        <time>2021-07-10T09:07:05</time>
      </trkpt>
      <trkpt lat="44.65501" lon="4.87057">
        <ele>362</ele>
        <time>2021-07-10T09:07:06</time>
      </trkpt>
      <trkpt lat="44.65496" lon="4.87054">
        <ele>361.6</ele>
        <time>2021-07-10T09:07:07</time>
      </trkpt>
      <trkpt lat="44.65484" lon="4.87049">
        <ele>361.2</ele>
        <time>2021-07-10T09:07:08</time>
      </trkpt>
      <trkpt lat="44.65484" lon="4.87049">
        <ele>360.6</ele>
        <time>2021-07-10T09:07:09</time>
      </trkpt>
      <trkpt lat="44.65479" lon="4.87048">
        <ele>360.2</ele>
        <time>2021-07-10T09:07:10</time>
      </trkpt>
      <trkpt lat="44.65474" lon="4.8705">
        <ele>359.8</ele>
        <time>2021-07-10T09:07:11</time>
      </trkpt>
      <trkpt lat="44.6547" lon="4.87047">
        <ele>359.2</ele>
        <time>2021-07-10T09:07:12</time>
      </trkpt>
      <trkpt lat="44.65466" lon="4.87047">
        <ele>358.6</ele>
        <time>2021-07-10T09:07:13</time>
      </trkpt>
      <trkpt lat="44.65463" lon="4.87049">
        <ele>358</ele>
        <time>2021-07-10T09:07:14</time>
      </trkpt>
      <trkpt lat="44.65459" lon="4.87052">
        <ele>357.4</ele>
        <time>2021-07-10T09:07:15</time>
      </trkpt>
      <trkpt lat="44.65456" lon="4.87047">
        <ele>356.8</ele>
        <time>2021-07-10T09:07:16</time>
      </trkpt>
      <trkpt lat="44.65455" lon="4.8705">
        <ele>356.2</ele>
        <time>2021-07-10T09:07:17</time>
      </trkpt>
      <trkpt lat="44.65446" lon="4.87049">
        <ele>355.4</ele>
        <time>2021-07-10T09:07:18</time>
      </trkpt>
      <trkpt lat="44.65441" lon="4.87045">
        <ele>354.8</ele>
        <time>2021-07-10T09:07:19</time>
      </trkpt>
      <trkpt lat="44.65436" lon="4.87043">
        <ele>354</ele>
        <time>2021-07-10T09:07:20</time>
      </trkpt>
      <trkpt lat="44.65432" lon="4.87042">
        <ele>353.4</ele>
        <time>2021-07-10T09:07:21</time>
      </trkpt>
      <trkpt lat="44.6543" lon="4.87042">
        <ele>353.2</ele>
        <time>2021-07-10T09:07:22</time>
      </trkpt>
      <trkpt lat="44.65429" lon="4.87037">
        <ele>353</ele>
        <time>2021-07-10T09:07:23</time>
      </trkpt>
      <trkpt lat="44.65428" lon="4.87034">
        <ele>353</ele>
        <time>2021-07-10T09:07:24</time>
      </trkpt>
      <trkpt lat="44.65428" lon="4.87036">
        <ele>352.8</ele>
        <time>2021-07-10T09:07:25</time>
      </trkpt>
      <trkpt lat="44.65426" lon="4.87036">
        <ele>352.8</ele>
        <time>2021-07-10T09:07:26</time>
      </trkpt>
      <trkpt lat="44.65423" lon="4.87031">
        <ele>352.8</ele>
        <time>2021-07-10T09:07:27</time>
      </trkpt>
      <trkpt lat="44.65419" lon="4.87036">
        <ele>352.8</ele>
        <time>2021-07-10T09:07:28</time>
      </trkpt>
      <trkpt lat="44.65419" lon="4.87036">
        <ele>353</ele>
        <time>2021-07-10T09:07:29</time>
      </trkpt>
      <trkpt lat="44.65418" lon="4.87038">
        <ele>353.2</ele>
        <time>2021-07-10T09:07:30</time>
      </trkpt>
      <trkpt lat="44.65415" lon="4.87038">
        <ele>353.2</ele>
        <time>2021-07-10T09:07:31</time>
      </trkpt>
      <trkpt lat="44.65384" lon="4.87048">
        <ele>351.8</ele>
        <time>2021-07-10T09:07:48</time>
      </trkpt>
      <trkpt lat="44.65383" lon="4.87049">
        <ele>351.8</ele>
        <time>2021-07-10T09:07:49</time>
      </trkpt>
      <trkpt lat="44.65376" lon="4.87047">
        <ele>351.6</ele>
        <time>2021-07-10T09:07:50</time>
      </trkpt>
      <trkpt lat="44.65376" lon="4.87047">
        <ele>351.2</ele>
        <time>2021-07-10T09:07:51</time>
      </trkpt>
      <trkpt lat="44.65366" lon="4.87044">
        <ele>351</ele>
        <time>2021-07-10T09:07:52</time>
      </trkpt>
      <trkpt lat="44.65366" lon="4.87044">
        <ele>350.6</ele>
        <time>2021-07-10T09:07:53</time>
      </trkpt>
      <trkpt lat="44.65363" lon="4.87048">
        <ele>350.2</ele>
        <time>2021-07-10T09:07:54</time>
      </trkpt>
      <trkpt lat="44.65359" lon="4.87049">
        <ele>349.6</ele>
        <time>2021-07-10T09:07:55</time>
      </trkpt>
      <trkpt lat="44.65356" lon="4.87048">
        <ele>349.2</ele>
        <time>2021-07-10T09:07:56</time>
      </trkpt>
      <trkpt lat="44.65347" lon="4.87054">
        <ele>348.4</ele>
        <time>2021-07-10T09:07:57</time>
      </trkpt>
      <trkpt lat="44.65347" lon="4.87054">
        <ele>347.6</ele>
        <time>2021-07-10T09:07:58</time>
      </trkpt>
      <trkpt lat="44.6534" lon="4.87056">
        <ele>347</ele>
        <time>2021-07-10T09:07:59</time>
      </trkpt>
      <trkpt lat="44.65334" lon="4.87059">
        <ele>346.2</ele>
        <time>2021-07-10T09:08:00</time>
      </trkpt>
      <trkpt lat="44.65326" lon="4.8706">
        <ele>345.6</ele>
        <time>2021-07-10T09:08:01</time>
      </trkpt>
      <trkpt lat="44.65311" lon="4.87064">
        <ele>345</ele>
        <time>2021-07-10T09:08:02</time>
      </trkpt>
      <trkpt lat="44.65311" lon="4.87064">
        <ele>344.4</ele>
        <time>2021-07-10T09:08:03</time>
      </trkpt>
      <trkpt lat="44.65303" lon="4.87067">
        <ele>343.8</ele>
        <time>2021-07-10T09:08:04</time>
      </trkpt>
      <trkpt lat="44.65303" lon="4.87067">
        <ele>343.4</ele>
        <time>2021-07-10T09:08:05</time>
      </trkpt>
      <trkpt lat="44.65289" lon="4.87076">
        <ele>342.8</ele>
        <time>2021-07-10T09:08:06</time>
      </trkpt>
      <trkpt lat="44.65273" lon="4.87087">
        <ele>342.2</ele>
        <time>2021-07-10T09:08:07</time>
      </trkpt>
      <trkpt lat="44.65273" lon="4.87087">
        <ele>341.4</ele>
        <time>2021-07-10T09:08:08</time>
      </trkpt>
      <trkpt lat="44.65265" lon="4.87093">
        <ele>340.6</ele>
        <time>2021-07-10T09:08:09</time>
      </trkpt>
      <trkpt lat="44.65243" lon="4.87099">
        <ele>339.8</ele>
        <time>2021-07-10T09:08:10</time>
      </trkpt>
      <trkpt lat="44.65243" lon="4.87099">
        <ele>339</ele>
        <time>2021-07-10T09:08:11</time>
      </trkpt>
      <trkpt lat="44.65224" lon="4.87109">
        <ele>338.2</ele>
        <time>2021-07-10T09:08:12</time>
      </trkpt>
      <trkpt lat="44.65224" lon="4.87109">
        <ele>337.4</ele>
        <time>2021-07-10T09:08:13</time>
      </trkpt>
      <trkpt lat="44.65213" lon="4.87112">
        <ele>336.6</ele>
        <time>2021-07-10T09:08:14</time>
      </trkpt>
      <trkpt lat="44.65204" lon="4.87117">
        <ele>335.6</ele>
        <time>2021-07-10T09:08:15</time>
      </trkpt>
      <trkpt lat="44.65204" lon="4.87117">
        <ele>334.6</ele>
        <time>2021-07-10T09:08:16</time>
      </trkpt>
      <trkpt lat="44.6518" lon="4.87128">
        <ele>333.4</ele>
        <time>2021-07-10T09:08:17</time>
      </trkpt>
      <trkpt lat="44.6516" lon="4.87143">
        <ele>332.4</ele>
        <time>2021-07-10T09:08:18</time>
      </trkpt>
      <trkpt lat="44.6516" lon="4.87143">
        <ele>331.6</ele>
        <time>2021-07-10T09:08:19</time>
      </trkpt>
      <trkpt lat="44.6515" lon="4.87151">
        <ele>331</ele>
        <time>2021-07-10T09:08:20</time>
      </trkpt>
      <trkpt lat="44.65131" lon="4.87165">
        <ele>330.6</ele>
        <time>2021-07-10T09:08:21</time>
      </trkpt>
      <trkpt lat="44.65131" lon="4.87165">
        <ele>330</ele>
        <time>2021-07-10T09:08:22</time>
      </trkpt>
      <trkpt lat="44.65122" lon="4.87171">
        <ele>329.8</ele>
        <time>2021-07-10T09:08:23</time>
      </trkpt>
      <trkpt lat="44.65114" lon="4.87179">
        <ele>329.8</ele>
        <time>2021-07-10T09:08:24</time>
      </trkpt>
      <trkpt lat="44.65109" lon="4.87184">
        <ele>330</ele>
        <time>2021-07-10T09:08:25</time>
      </trkpt>
      <trkpt lat="44.65103" lon="4.8719">
        <ele>330.2</ele>
        <time>2021-07-10T09:08:26</time>
      </trkpt>
      <trkpt lat="44.65098" lon="4.87195">
        <ele>330.8</ele>
        <time>2021-07-10T09:08:27</time>
      </trkpt>
      <trkpt lat="44.65095" lon="4.87199">
        <ele>331.2</ele>
        <time>2021-07-10T09:08:28</time>
      </trkpt>
      <trkpt lat="44.65095" lon="4.87199">
        <ele>331.6</ele>
        <time>2021-07-10T09:08:29</time>
      </trkpt>
      <trkpt lat="44.65086" lon="4.87205">
        <ele>331.8</ele>
        <time>2021-07-10T09:08:30</time>
      </trkpt>
      <trkpt lat="44.65082" lon="4.87211">
        <ele>332.2</ele>
        <time>2021-07-10T09:08:31</time>
      </trkpt>
      <trkpt lat="44.65082" lon="4.87211">
        <ele>332.6</ele>
        <time>2021-07-10T09:08:32</time>
      </trkpt>
      <trkpt lat="44.65076" lon="4.87212">
        <ele>332.8</ele>
        <time>2021-07-10T09:08:33</time>
      </trkpt>
      <trkpt lat="44.65076" lon="4.87212">
        <ele>333.2</ele>
        <time>2021-07-10T09:08:34</time>
      </trkpt>
      <trkpt lat="44.65074" lon="4.87213">
        <ele>333.4</ele>
        <time>2021-07-10T09:08:35</time>
      </trkpt>
      <trkpt lat="44.65073" lon="4.87214">
        <ele>333.8</ele>
        <time>2021-07-10T09:08:36</time>
      </trkpt>
      <trkpt lat="44.65069" lon="4.87214">
        <ele>334</ele>
        <time>2021-07-10T09:08:37</time>
      </trkpt>
      <trkpt lat="44.65066" lon="4.87217">
        <ele>334.2</ele>
        <time>2021-07-10T09:08:38</time>
      </trkpt>
      <trkpt lat="44.65066" lon="4.87217">
        <ele>334.4</ele>
        <time>2021-07-10T09:08:39</time>
      </trkpt>
      <trkpt lat="44.65065" lon="4.8722">
        <ele>334.6</ele>
        <time>2021-07-10T09:08:40</time>
      </trkpt>
      <trkpt lat="44.65063" lon="4.87223">
        <ele>334.8</ele>
        <time>2021-07-10T09:08:41</time>
      </trkpt>
      <trkpt lat="44.65061" lon="4.87226">
        <ele>335.2</ele>
        <time>2021-07-10T09:08:42</time>
      </trkpt>
      <trkpt lat="44.65056" lon="4.87233">
        <ele>335.4</ele>
        <time>2021-07-10T09:08:43</time>
      </trkpt>
      <trkpt lat="44.65056" lon="4.87233">
        <ele>335.6</ele>
        <time>2021-07-10T09:08:44</time>
      </trkpt>
      <trkpt lat="44.65054" lon="4.87236">
        <ele>335.8</ele>
        <time>2021-07-10T09:08:45</time>
      </trkpt>
      <trkpt lat="44.65051" lon="4.87239">
        <ele>336</ele>
        <time>2021-07-10T09:08:46</time>
      </trkpt>
      <trkpt lat="44.65047" lon="4.87242">
        <ele>336.2</ele>
        <time>2021-07-10T09:08:47</time>
      </trkpt>
      <trkpt lat="44.65045" lon="4.87245">
        <ele>336.4</ele>
        <time>2021-07-10T09:08:48</time>
      </trkpt>
      <trkpt lat="44.65042" lon="4.87247">
        <ele>336.6</ele>
        <time>2021-07-10T09:08:49</time>
      </trkpt>
      <trkpt lat="44.65038" lon="4.87248">
        <ele>336.8</ele>
        <time>2021-07-10T09:08:50</time>
      </trkpt>
      <trkpt lat="44.65034" lon="4.87249">
        <ele>336.8</ele>
        <time>2021-07-10T09:08:51</time>
      </trkpt>
      <trkpt lat="44.65031" lon="4.87251">
        <ele>337</ele>
        <time>2021-07-10T09:08:52</time>
      </trkpt>
      <trkpt lat="44.65026" lon="4.87255">
        <ele>337.2</ele>
        <time>2021-07-10T09:08:53</time>
      </trkpt>
      <trkpt lat="44.65026" lon="4.87255">
        <ele>337.6</ele>
        <time>2021-07-10T09:08:54</time>
      </trkpt>
      <trkpt lat="44.65023" lon="4.87259">
        <ele>337.8</ele>
        <time>2021-07-10T09:08:55</time>
      </trkpt>
      <trkpt lat="44.65019" lon="4.87262">
        <ele>338</ele>
        <time>2021-07-10T09:08:56</time>
      </trkpt>
      <trkpt lat="44.65019" lon="4.87262">
        <ele>338.2</ele>
        <time>2021-07-10T09:08:57</time>
      </trkpt>
      <trkpt lat="44.65014" lon="4.87264">
        <ele>338.4</ele>
        <time>2021-07-10T09:08:58</time>
      </trkpt>
      <trkpt lat="44.65014" lon="4.87264">
        <ele>338.6</ele>
        <time>2021-07-10T09:08:59</time>
      </trkpt>
      <trkpt lat="44.65012" lon="4.87267">
        <ele>338.8</ele>
        <time>2021-07-10T09:09:00</time>
      </trkpt>
      <trkpt lat="44.65009" lon="4.87267">
        <ele>339</ele>
        <time>2021-07-10T09:09:01</time>
      </trkpt>
      <trkpt lat="44.65007" lon="4.87268">
        <ele>339.2</ele>
        <time>2021-07-10T09:09:02</time>
      </trkpt>
      <trkpt lat="44.65001" lon="4.87271">
        <ele>339.4</ele>
        <time>2021-07-10T09:09:03</time>
      </trkpt>
      <trkpt lat="44.65001" lon="4.87271">
        <ele>339.6</ele>
        <time>2021-07-10T09:09:04</time>
      </trkpt>
      <trkpt lat="44.64999" lon="4.87272">
        <ele>340</ele>
        <time>2021-07-10T09:09:05</time>
      </trkpt>
      <trkpt lat="44.64998" lon="4.87273">
        <ele>340.2</ele>
        <time>2021-07-10T09:09:06</time>
      </trkpt>
      <trkpt lat="44.64995" lon="4.87276">
        <ele>340.4</ele>
        <time>2021-07-10T09:09:07</time>
      </trkpt>
      <trkpt lat="44.6499" lon="4.87281">
        <ele>340.6</ele>
        <time>2021-07-10T09:09:08</time>
      </trkpt>
      <trkpt lat="44.6499" lon="4.87281">
        <ele>340.8</ele>
        <time>2021-07-10T09:09:09</time>
      </trkpt>
      <trkpt lat="44.64987" lon="4.87281">
        <ele>341</ele>
        <time>2021-07-10T09:09:10</time>
      </trkpt>
      <trkpt lat="44.64983" lon="4.87282">
        <ele>341.2</ele>
        <time>2021-07-10T09:09:11</time>
      </trkpt>
      <trkpt lat="44.6498" lon="4.87283">
        <ele>341.4</ele>
        <time>2021-07-10T09:09:12</time>
      </trkpt>
      <trkpt lat="44.64975" lon="4.87288">
        <ele>341.6</ele>
        <time>2021-07-10T09:09:13</time>
      </trkpt>
      <trkpt lat="44.64975" lon="4.87288">
        <ele>341.8</ele>
        <time>2021-07-10T09:09:14</time>
      </trkpt>
      <trkpt lat="44.64972" lon="4.87289">
        <ele>342</ele>
        <time>2021-07-10T09:09:15</time>
      </trkpt>
      <trkpt lat="44.64969" lon="4.8729">
        <ele>342.2</ele>
        <time>2021-07-10T09:09:16</time>
      </trkpt>
      <trkpt lat="44.64967" lon="4.87293">
        <ele>342.4</ele>
        <time>2021-07-10T09:09:17</time>
      </trkpt>
      <trkpt lat="44.64963" lon="4.87296">
        <ele>342.8</ele>
        <time>2021-07-10T09:09:18</time>
      </trkpt>
      <trkpt lat="44.64963" lon="4.87296">
        <ele>343</ele>
        <time>2021-07-10T09:09:19</time>
      </trkpt>
      <trkpt lat="44.6496" lon="4.87297">
        <ele>343.2</ele>
        <time>2021-07-10T09:09:20</time>
      </trkpt>
      <trkpt lat="44.64957" lon="4.87298">
        <ele>343.4</ele>
        <time>2021-07-10T09:09:21</time>
      </trkpt>
      <trkpt lat="44.64955" lon="4.87301">
        <ele>343.6</ele>
        <time>2021-07-10T09:09:22</time>
      </trkpt>
      <trkpt lat="44.64947" lon="4.87303">
        <ele>343.8</ele>
        <time>2021-07-10T09:09:23</time>
      </trkpt>
      <trkpt lat="44.64947" lon="4.87303">
        <ele>344</ele>
        <time>2021-07-10T09:09:24</time>
      </trkpt>
      <trkpt lat="44.64943" lon="4.87305">
        <ele>344.2</ele>
        <time>2021-07-10T09:09:25</time>
      </trkpt>
      <trkpt lat="44.6494" lon="4.87306">
        <ele>344.4</ele>
        <time>2021-07-10T09:09:26</time>
      </trkpt>
      <trkpt lat="44.64938" lon="4.87307">
        <ele>344.6</ele>
        <time>2021-07-10T09:09:27</time>
      </trkpt>
      <trkpt lat="44.64932" lon="4.87309">
        <ele>344.8</ele>
        <time>2021-07-10T09:09:28</time>
      </trkpt>
      <trkpt lat="44.64932" lon="4.87309">
        <ele>345.2</ele>
        <time>2021-07-10T09:09:29</time>
      </trkpt>
      <trkpt lat="44.64929" lon="4.87311">
        <ele>345.4</ele>
        <time>2021-07-10T09:09:30</time>
      </trkpt>
      <trkpt lat="44.64927" lon="4.87312">
        <ele>345.6</ele>
        <time>2021-07-10T09:09:31</time>
      </trkpt>
      <trkpt lat="44.64926" lon="4.87314">
        <ele>345.8</ele>
        <time>2021-07-10T09:09:32</time>
      </trkpt>
      <trkpt lat="44.6492" lon="4.87319">
        <ele>346</ele>
        <time>2021-07-10T09:09:33</time>
      </trkpt>
      <trkpt lat="44.6492" lon="4.87319">
        <ele>346</ele>
        <time>2021-07-10T09:09:34</time>
      </trkpt>
      <trkpt lat="44.64916" lon="4.87319">
        <ele>346.2</ele>
        <time>2021-07-10T09:09:35</time>
      </trkpt>
      <trkpt lat="44.64914" lon="4.87322">
        <ele>346.4</ele>
        <time>2021-07-10T09:09:36</time>
      </trkpt>
      <trkpt lat="44.64911" lon="4.87323">
        <ele>346.6</ele>
        <time>2021-07-10T09:09:37</time>
      </trkpt>
      <trkpt lat="44.64905" lon="4.87327">
        <ele>346.8</ele>
        <time>2021-07-10T09:09:38</time>
      </trkpt>
      <trkpt lat="44.64905" lon="4.87327">
        <ele>347.2</ele>
        <time>2021-07-10T09:09:39</time>
      </trkpt>
      <trkpt lat="44.64902" lon="4.87327">
        <ele>347.4</ele>
        <time>2021-07-10T09:09:40</time>
      </trkpt>
      <trkpt lat="44.64899" lon="4.87328">
        <ele>347.6</ele>
        <time>2021-07-10T09:09:41</time>
      </trkpt>
      <trkpt lat="44.64896" lon="4.8733">
        <ele>347.6</ele>
        <time>2021-07-10T09:09:42</time>
      </trkpt>
      <trkpt lat="44.6489" lon="4.87332">
        <ele>347.8</ele>
        <time>2021-07-10T09:09:43</time>
      </trkpt>
      <trkpt lat="44.6489" lon="4.87332">
        <ele>348</ele>
        <time>2021-07-10T09:09:44</time>
      </trkpt>
      <trkpt lat="44.64887" lon="4.87333">
        <ele>348.2</ele>
        <time>2021-07-10T09:09:45</time>
      </trkpt>
      <trkpt lat="44.64884" lon="4.87333">
        <ele>348.4</ele>
        <time>2021-07-10T09:09:46</time>
      </trkpt>
      <trkpt lat="44.64882" lon="4.87334">
        <ele>348.6</ele>
        <time>2021-07-10T09:09:47</time>
      </trkpt>
      <trkpt lat="44.64874" lon="4.87334">
        <ele>348.6</ele>
        <time>2021-07-10T09:09:48</time>
      </trkpt>
      <trkpt lat="44.64874" lon="4.87334">
        <ele>349</ele>
        <time>2021-07-10T09:09:49</time>
      </trkpt>
      <trkpt lat="44.64871" lon="4.87333">
        <ele>349.2</ele>
        <time>2021-07-10T09:09:50</time>
      </trkpt>
      <trkpt lat="44.64869" lon="4.87335">
        <ele>349.2</ele>
        <time>2021-07-10T09:09:51</time>
      </trkpt>
      <trkpt lat="44.64866" lon="4.87335">
        <ele>349.4</ele>
        <time>2021-07-10T09:09:52</time>
      </trkpt>
      <trkpt lat="44.6486" lon="4.87337">
        <ele>349.6</ele>
        <time>2021-07-10T09:09:53</time>
      </trkpt>
      <trkpt lat="44.6486" lon="4.87337">
        <ele>349.8</ele>
        <time>2021-07-10T09:09:54</time>
      </trkpt>
      <trkpt lat="44.64856" lon="4.87339">
        <ele>350</ele>
        <time>2021-07-10T09:09:55</time>
      </trkpt>
      <trkpt lat="44.64853" lon="4.87339">
        <ele>350.2</ele>
        <time>2021-07-10T09:09:56</time>
      </trkpt>
      <trkpt lat="44.64848" lon="4.8734">
        <ele>350.6</ele>
        <time>2021-07-10T09:09:57</time>
      </trkpt>
      <trkpt lat="44.64846" lon="4.87342">
        <ele>350.8</ele>
        <time>2021-07-10T09:09:58</time>
      </trkpt>
      <trkpt lat="44.64846" lon="4.87342">
        <ele>351</ele>
        <time>2021-07-10T09:09:59</time>
      </trkpt>
      <trkpt lat="44.64843" lon="4.87343">
        <ele>351.2</ele>
        <time>2021-07-10T09:10:00</time>
      </trkpt>
      <trkpt lat="44.6484" lon="4.87343">
        <ele>351.4</ele>
        <time>2021-07-10T09:10:01</time>
      </trkpt>
      <trkpt lat="44.64838" lon="4.87345">
        <ele>351.6</ele>
        <time>2021-07-10T09:10:02</time>
      </trkpt>
      <trkpt lat="44.64833" lon="4.87346">
        <ele>351.8</ele>
        <time>2021-07-10T09:10:03</time>
      </trkpt>
      <trkpt lat="44.64833" lon="4.87346">
        <ele>352</ele>
        <time>2021-07-10T09:10:04</time>
      </trkpt>
      <trkpt lat="44.6483" lon="4.87347">
        <ele>352.2</ele>
        <time>2021-07-10T09:10:05</time>
      </trkpt>
      <trkpt lat="44.64828" lon="4.87348">
        <ele>352.4</ele>
        <time>2021-07-10T09:10:06</time>
      </trkpt>
      <trkpt lat="44.64825" lon="4.87349">
        <ele>352.4</ele>
        <time>2021-07-10T09:10:07</time>
      </trkpt>
      <trkpt lat="44.64819" lon="4.87352">
        <ele>352.6</ele>
        <time>2021-07-10T09:10:08</time>
      </trkpt>
      <trkpt lat="44.64819" lon="4.87352">
        <ele>352.8</ele>
        <time>2021-07-10T09:10:09</time>
      </trkpt>
      <trkpt lat="44.64817" lon="4.87355">
        <ele>353</ele>
        <time>2021-07-10T09:10:10</time>
      </trkpt>
      <trkpt lat="44.64815" lon="4.87357">
        <ele>353.2</ele>
        <time>2021-07-10T09:10:11</time>
      </trkpt>
      <trkpt lat="44.64813" lon="4.8736">
        <ele>353.4</ele>
        <time>2021-07-10T09:10:12</time>
      </trkpt>
      <trkpt lat="44.64812" lon="4.87366">
        <ele>353.4</ele>
        <time>2021-07-10T09:10:13</time>
      </trkpt>
      <trkpt lat="44.64812" lon="4.87366">
        <ele>353.6</ele>
        <time>2021-07-10T09:10:14</time>
      </trkpt>
      <trkpt lat="44.64811" lon="4.87369">
        <ele>353.8</ele>
        <time>2021-07-10T09:10:15</time>
      </trkpt>
      <trkpt lat="44.64811" lon="4.87372">
        <ele>354</ele>
        <time>2021-07-10T09:10:16</time>
      </trkpt>
      <trkpt lat="44.64811" lon="4.87375">
        <ele>354.2</ele>
        <time>2021-07-10T09:10:17</time>
      </trkpt>
      <trkpt lat="44.64814" lon="4.87379">
        <ele>354.4</ele>
        <time>2021-07-10T09:10:18</time>
      </trkpt>
      <trkpt lat="44.64814" lon="4.87379">
        <ele>354.6</ele>
        <time>2021-07-10T09:10:19</time>
      </trkpt>
      <trkpt lat="44.64815" lon="4.87381">
        <ele>354.8</ele>
        <time>2021-07-10T09:10:20</time>
      </trkpt>
      <trkpt lat="44.64817" lon="4.87382">
        <ele>354.8</ele>
        <time>2021-07-10T09:10:21</time>
      </trkpt>
      <trkpt lat="44.64819" lon="4.87383">
        <ele>354.8</ele>
        <time>2021-07-10T09:10:22</time>
      </trkpt>
      <trkpt lat="44.64822" lon="4.87386">
        <ele>354.8</ele>
        <time>2021-07-10T09:10:23</time>
      </trkpt>
      <trkpt lat="44.64822" lon="4.87386">
        <ele>354.8</ele>
        <time>2021-07-10T09:10:24</time>
      </trkpt>
      <trkpt lat="44.64823" lon="4.87387">
        <ele>354.8</ele>
        <time>2021-07-10T09:10:25</time>
      </trkpt>
      <trkpt lat="44.64824" lon="4.87388">
        <ele>355</ele>
        <time>2021-07-10T09:10:26</time>
      </trkpt>
      <trkpt lat="44.64826" lon="4.87389">
        <ele>355</ele>
        <time>2021-07-10T09:10:27</time>
      </trkpt>
      <trkpt lat="44.64827" lon="4.8739">
        <ele>355</ele>
        <time>2021-07-10T09:10:28</time>
      </trkpt>
      <trkpt lat="44.64827" lon="4.8739">
        <ele>355.2</ele>
        <time>2021-07-10T09:10:29</time>
      </trkpt>
      <trkpt lat="44.64829" lon="4.8739">
        <ele>355.2</ele>
        <time>2021-07-10T09:10:30</time>
      </trkpt>
      <trkpt lat="44.6483" lon="4.87391">
        <ele>355.2</ele>
        <time>2021-07-10T09:10:31</time>
      </trkpt>
      <trkpt lat="44.64831" lon="4.87392">
        <ele>355.2</ele>
        <time>2021-07-10T09:10:32</time>
      </trkpt>
      <trkpt lat="44.64832" lon="4.87398">
        <ele>355.2</ele>
        <time>2021-07-10T09:10:33</time>
      </trkpt>
      <trkpt lat="44.64832" lon="4.87398">
        <ele>355.2</ele>
        <time>2021-07-10T09:10:34</time>
      </trkpt>
      <trkpt lat="44.64834" lon="4.874">
        <ele>355.2</ele>
        <time>2021-07-10T09:10:35</time>
      </trkpt>
      <trkpt lat="44.64836" lon="4.87402">
        <ele>355.2</ele>
        <time>2021-07-10T09:10:36</time>
      </trkpt>
      <trkpt lat="44.64839" lon="4.87403">
        <ele>355.2</ele>
        <time>2021-07-10T09:10:37</time>
      </trkpt>
      <trkpt lat="44.64843" lon="4.87405">
        <ele>355.2</ele>
        <time>2021-07-10T09:10:38</time>
      </trkpt>
      <trkpt lat="44.64843" lon="4.87405">
        <ele>355.2</ele>
        <time>2021-07-10T09:10:39</time>
      </trkpt>
      <trkpt lat="44.64844" lon="4.87407">
        <ele>355.2</ele>
        <time>2021-07-10T09:10:40</time>
      </trkpt>
      <trkpt lat="44.64846" lon="4.87408">
        <ele>355.4</ele>
        <time>2021-07-10T09:10:41</time>
      </trkpt>
      <trkpt lat="44.6485" lon="4.8741">
        <ele>355.6</ele>
        <time>2021-07-10T09:10:42</time>
      </trkpt>
      <trkpt lat="44.64852" lon="4.87411">
        <ele>355.8</ele>
        <time>2021-07-10T09:10:43</time>
      </trkpt>
      <trkpt lat="44.64852" lon="4.87411">
        <ele>355.8</ele>
        <time>2021-07-10T09:10:44</time>
      </trkpt>
      <trkpt lat="44.64855" lon="4.87414">
        <ele>355.8</ele>
        <time>2021-07-10T09:10:45</time>
      </trkpt>
      <trkpt lat="44.64855" lon="4.87414">
        <ele>355.8</ele>
        <time>2021-07-10T09:10:46</time>
      </trkpt>
      <trkpt lat="44.64859" lon="4.87416">
        <ele>355.8</ele>
        <time>2021-07-10T09:10:47</time>
      </trkpt>
      <trkpt lat="44.6486" lon="4.87418">
        <ele>355.8</ele>
        <time>2021-07-10T09:10:48</time>
      </trkpt>
      <trkpt lat="44.6486" lon="4.87418">
        <ele>356</ele>
        <time>2021-07-10T09:10:49</time>
      </trkpt>
      <trkpt lat="44.64865" lon="4.87421">
        <ele>356</ele>
        <time>2021-07-10T09:10:50</time>
      </trkpt>
      <trkpt lat="44.64865" lon="4.87421">
        <ele>356.2</ele>
        <time>2021-07-10T09:10:51</time>
      </trkpt>
      <trkpt lat="44.64867" lon="4.87422">
        <ele>356.4</ele>
        <time>2021-07-10T09:10:52</time>
      </trkpt>
      <trkpt lat="44.64871" lon="4.87422">
        <ele>356.4</ele>
        <time>2021-07-10T09:10:53</time>
      </trkpt>
      <trkpt lat="44.64871" lon="4.87422">
        <ele>356.6</ele>
        <time>2021-07-10T09:10:54</time>
      </trkpt>
      <trkpt lat="44.64876" lon="4.87424">
        <ele>356.6</ele>
        <time>2021-07-10T09:10:55</time>
      </trkpt>
      <trkpt lat="44.64876" lon="4.87424">
        <ele>356.6</ele>
        <time>2021-07-10T09:10:56</time>
      </trkpt>
      <trkpt lat="44.64877" lon="4.87426">
        <ele>356.8</ele>
        <time>2021-07-10T09:10:57</time>
      </trkpt>
      <trkpt lat="44.64882" lon="4.87427">
        <ele>357</ele>
        <time>2021-07-10T09:10:58</time>
      </trkpt>
      <trkpt lat="44.64882" lon="4.87427">
        <ele>357.2</ele>
        <time>2021-07-10T09:10:59</time>
      </trkpt>
      <trkpt lat="44.64883" lon="4.87428">
        <ele>357.2</ele>
        <time>2021-07-10T09:11:00</time>
      </trkpt>
      <trkpt lat="44.64887" lon="4.87429">
        <ele>357.4</ele>
        <time>2021-07-10T09:11:01</time>
      </trkpt>
      <trkpt lat="44.64891" lon="4.8743">
        <ele>357.4</ele>
        <time>2021-07-10T09:11:02</time>
      </trkpt>
      <trkpt lat="44.64895" lon="4.87432">
        <ele>357.6</ele>
        <time>2021-07-10T09:11:03</time>
      </trkpt>
      <trkpt lat="44.64895" lon="4.87432">
        <ele>357.6</ele>
        <time>2021-07-10T09:11:04</time>
      </trkpt>
      <trkpt lat="44.64897" lon="4.87434">
        <ele>357.8</ele>
        <time>2021-07-10T09:11:05</time>
      </trkpt>
      <trkpt lat="44.64899" lon="4.87435">
        <ele>358</ele>
        <time>2021-07-10T09:11:06</time>
      </trkpt>
      <trkpt lat="44.64902" lon="4.87435">
        <ele>358.2</ele>
        <time>2021-07-10T09:11:07</time>
      </trkpt>
      <trkpt lat="44.64906" lon="4.87438">
        <ele>358.2</ele>
        <time>2021-07-10T09:11:08</time>
      </trkpt>
      <trkpt lat="44.64906" lon="4.87438">
        <ele>358.4</ele>
        <time>2021-07-10T09:11:09</time>
      </trkpt>
      <trkpt lat="44.64908" lon="4.87439">
        <ele>358.6</ele>
        <time>2021-07-10T09:11:10</time>
      </trkpt>
      <trkpt lat="44.64911" lon="4.8744">
        <ele>358.8</ele>
        <time>2021-07-10T09:11:11</time>
      </trkpt>
      <trkpt lat="44.64913" lon="4.87443">
        <ele>358.8</ele>
        <time>2021-07-10T09:11:12</time>
      </trkpt>
      <trkpt lat="44.64915" lon="4.87444">
        <ele>359</ele>
        <time>2021-07-10T09:11:13</time>
      </trkpt>
      <trkpt lat="44.64915" lon="4.87444">
        <ele>359</ele>
        <time>2021-07-10T09:11:14</time>
      </trkpt>
      <trkpt lat="44.64917" lon="4.87445">
        <ele>359.2</ele>
        <time>2021-07-10T09:11:15</time>
      </trkpt>
      <trkpt lat="44.64919" lon="4.87447">
        <ele>359.2</ele>
        <time>2021-07-10T09:11:16</time>
      </trkpt>
      <trkpt lat="44.64921" lon="4.87449">
        <ele>359.2</ele>
        <time>2021-07-10T09:11:17</time>
      </trkpt>
      <trkpt lat="44.64924" lon="4.8745">
        <ele>359.2</ele>
        <time>2021-07-10T09:11:18</time>
      </trkpt>
      <trkpt lat="44.64924" lon="4.8745">
        <ele>359.2</ele>
        <time>2021-07-10T09:11:19</time>
      </trkpt>
      <trkpt lat="44.64927" lon="4.87453">
        <ele>359.4</ele>
        <time>2021-07-10T09:11:20</time>
      </trkpt>
      <trkpt lat="44.6493" lon="4.87454">
        <ele>359.4</ele>
        <time>2021-07-10T09:11:21</time>
      </trkpt>
      <trkpt lat="44.64933" lon="4.87453">
        <ele>359.6</ele>
        <time>2021-07-10T09:11:22</time>
      </trkpt>
      <trkpt lat="44.64939" lon="4.87457">
        <ele>359.6</ele>
        <time>2021-07-10T09:11:23</time>
      </trkpt>
      <trkpt lat="44.64939" lon="4.87457">
        <ele>359.8</ele>
        <time>2021-07-10T09:11:24</time>
      </trkpt>
      <trkpt lat="44.64942" lon="4.87459">
        <ele>359.8</ele>
        <time>2021-07-10T09:11:25</time>
      </trkpt>
      <trkpt lat="44.64943" lon="4.87461">
        <ele>360.2</ele>
        <time>2021-07-10T09:11:26</time>
      </trkpt>
      <trkpt lat="44.64946" lon="4.87463">
        <ele>360.4</ele>
        <time>2021-07-10T09:11:27</time>
      </trkpt>
      <trkpt lat="44.64948" lon="4.87465">
        <ele>360.4</ele>
        <time>2021-07-10T09:11:28</time>
      </trkpt>
      <trkpt lat="44.64948" lon="4.87465">
        <ele>360.6</ele>
        <time>2021-07-10T09:11:29</time>
      </trkpt>
      <trkpt lat="44.64951" lon="4.87466">
        <ele>360.8</ele>
        <time>2021-07-10T09:11:30</time>
      </trkpt>
      <trkpt lat="44.64953" lon="4.87469">
        <ele>360.8</ele>
        <time>2021-07-10T09:11:31</time>
      </trkpt>
      <trkpt lat="44.64956" lon="4.87471">
        <ele>361</ele>
        <time>2021-07-10T09:11:32</time>
      </trkpt>
      <trkpt lat="44.64963" lon="4.87476">
        <ele>361.2</ele>
        <time>2021-07-10T09:11:33</time>
      </trkpt>
      <trkpt lat="44.64963" lon="4.87476">
        <ele>361.4</ele>
        <time>2021-07-10T09:11:34</time>
      </trkpt>
      <trkpt lat="44.64964" lon="4.87478">
        <ele>361.8</ele>
        <time>2021-07-10T09:11:35</time>
      </trkpt>
      <trkpt lat="44.64966" lon="4.8748">
        <ele>362</ele>
        <time>2021-07-10T09:11:36</time>
      </trkpt>
      <trkpt lat="44.64968" lon="4.87483">
        <ele>362</ele>
        <time>2021-07-10T09:11:37</time>
      </trkpt>
      <trkpt lat="44.64972" lon="4.87485">
        <ele>362</ele>
        <time>2021-07-10T09:11:38</time>
      </trkpt>
      <trkpt lat="44.64972" lon="4.87485">
        <ele>362</ele>
        <time>2021-07-10T09:11:39</time>
      </trkpt>
      <trkpt lat="44.64974" lon="4.87488">
        <ele>362.2</ele>
        <time>2021-07-10T09:11:40</time>
      </trkpt>
      <trkpt lat="44.64974" lon="4.87488">
        <ele>362.4</ele>
        <time>2021-07-10T09:11:41</time>
      </trkpt>
      <trkpt lat="44.64979" lon="4.87491">
        <ele>362.6</ele>
        <time>2021-07-10T09:11:42</time>
      </trkpt>
      <trkpt lat="44.64983" lon="4.87495">
        <ele>362.6</ele>
        <time>2021-07-10T09:11:43</time>
      </trkpt>
      <trkpt lat="44.64983" lon="4.87495">
        <ele>362.8</ele>
        <time>2021-07-10T09:11:44</time>
      </trkpt>
      <trkpt lat="44.64985" lon="4.87497">
        <ele>362.8</ele>
        <time>2021-07-10T09:11:45</time>
      </trkpt>
      <trkpt lat="44.64985" lon="4.87497">
        <ele>363</ele>
        <time>2021-07-10T09:11:46</time>
      </trkpt>
      <trkpt lat="44.6499" lon="4.87502">
        <ele>363.2</ele>
        <time>2021-07-10T09:11:47</time>
      </trkpt>
      <trkpt lat="44.64996" lon="4.87506">
        <ele>363.2</ele>
        <time>2021-07-10T09:11:48</time>
      </trkpt>
      <trkpt lat="44.64996" lon="4.87506">
        <ele>363.4</ele>
        <time>2021-07-10T09:11:49</time>
      </trkpt>
      <trkpt lat="44.64999" lon="4.87507">
        <ele>363.6</ele>
        <time>2021-07-10T09:11:50</time>
      </trkpt>
      <trkpt lat="44.64999" lon="4.87507">
        <ele>363.6</ele>
        <time>2021-07-10T09:11:51</time>
      </trkpt>
      <trkpt lat="44.65003" lon="4.87512">
        <ele>363.8</ele>
        <time>2021-07-10T09:11:52</time>
      </trkpt>
      <trkpt lat="44.65008" lon="4.87516">
        <ele>364</ele>
        <time>2021-07-10T09:11:53</time>
      </trkpt>
      <trkpt lat="44.65008" lon="4.87516">
        <ele>364</ele>
        <time>2021-07-10T09:11:54</time>
      </trkpt>
      <trkpt lat="44.65014" lon="4.87521">
        <ele>364.2</ele>
        <time>2021-07-10T09:11:55</time>
      </trkpt>
      <trkpt lat="44.65014" lon="4.87521">
        <ele>364.2</ele>
        <time>2021-07-10T09:11:56</time>
      </trkpt>
      <trkpt lat="44.65017" lon="4.87522">
        <ele>364.2</ele>
        <time>2021-07-10T09:11:57</time>
      </trkpt>
      <trkpt lat="44.65024" lon="4.87526">
        <ele>364.2</ele>
        <time>2021-07-10T09:11:58</time>
      </trkpt>
      <trkpt lat="44.65024" lon="4.87526">
        <ele>364.4</ele>
        <time>2021-07-10T09:11:59</time>
      </trkpt>
      <trkpt lat="44.65027" lon="4.87528">
        <ele>364.4</ele>
        <time>2021-07-10T09:12:00</time>
      </trkpt>
      <trkpt lat="44.65027" lon="4.87528">
        <ele>364.6</ele>
        <time>2021-07-10T09:12:01</time>
      </trkpt>
      <trkpt lat="44.65032" lon="4.87531">
        <ele>364.6</ele>
        <time>2021-07-10T09:12:02</time>
      </trkpt>
      <trkpt lat="44.65039" lon="4.87536">
        <ele>364.6</ele>
        <time>2021-07-10T09:12:03</time>
      </trkpt>
      <trkpt lat="44.65039" lon="4.87536">
        <ele>364.8</ele>
        <time>2021-07-10T09:12:04</time>
      </trkpt>
      <trkpt lat="44.65042" lon="4.87539">
        <ele>365</ele>
        <time>2021-07-10T09:12:05</time>
      </trkpt>
      <trkpt lat="44.65044" lon="4.87541">
        <ele>365.2</ele>
        <time>2021-07-10T09:12:06</time>
      </trkpt>
      <trkpt lat="44.65046" lon="4.87543">
        <ele>365.2</ele>
        <time>2021-07-10T09:12:07</time>
      </trkpt>
      <trkpt lat="44.65054" lon="4.87548">
        <ele>365.2</ele>
        <time>2021-07-10T09:12:08</time>
      </trkpt>
      <trkpt lat="44.65054" lon="4.87548">
        <ele>365.2</ele>
        <time>2021-07-10T09:12:09</time>
      </trkpt>
      <trkpt lat="44.65059" lon="4.87551">
        <ele>365.2</ele>
        <time>2021-07-10T09:12:10</time>
      </trkpt>
      <trkpt lat="44.65062" lon="4.87553">
        <ele>365.2</ele>
        <time>2021-07-10T09:12:11</time>
      </trkpt>
      <trkpt lat="44.65066" lon="4.87555">
        <ele>365</ele>
        <time>2021-07-10T09:12:12</time>
      </trkpt>
      <trkpt lat="44.65074" lon="4.8756">
        <ele>365</ele>
        <time>2021-07-10T09:12:13</time>
      </trkpt>
      <trkpt lat="44.65074" lon="4.8756">
        <ele>365</ele>
        <time>2021-07-10T09:12:14</time>
      </trkpt>
      <trkpt lat="44.65077" lon="4.87563">
        <ele>364.8</ele>
        <time>2021-07-10T09:12:15</time>
      </trkpt>
      <trkpt lat="44.65081" lon="4.87567">
        <ele>364.8</ele>
        <time>2021-07-10T09:12:16</time>
      </trkpt>
      <trkpt lat="44.65085" lon="4.87568">
        <ele>364.8</ele>
        <time>2021-07-10T09:12:17</time>
      </trkpt>
      <trkpt lat="44.65092" lon="4.8757">
        <ele>364.8</ele>
        <time>2021-07-10T09:12:18</time>
      </trkpt>
      <trkpt lat="44.65092" lon="4.8757">
        <ele>364.8</ele>
        <time>2021-07-10T09:12:19</time>
      </trkpt>
      <trkpt lat="44.65095" lon="4.87572">
        <ele>364.8</ele>
        <time>2021-07-10T09:12:20</time>
      </trkpt>
      <trkpt lat="44.65099" lon="4.87573">
        <ele>364.8</ele>
        <time>2021-07-10T09:12:21</time>
      </trkpt>
      <trkpt lat="44.65103" lon="4.87575">
        <ele>364.8</ele>
        <time>2021-07-10T09:12:22</time>
      </trkpt>
      <trkpt lat="44.65112" lon="4.87578">
        <ele>364.6</ele>
        <time>2021-07-10T09:12:23</time>
      </trkpt>
      <trkpt lat="44.65112" lon="4.87578">
        <ele>364.6</ele>
        <time>2021-07-10T09:12:24</time>
      </trkpt>
      <trkpt lat="44.65116" lon="4.87579">
        <ele>364.6</ele>
        <time>2021-07-10T09:12:25</time>
      </trkpt>
      <trkpt lat="44.65119" lon="4.87581">
        <ele>364.6</ele>
        <time>2021-07-10T09:12:26</time>
      </trkpt>
      <trkpt lat="44.65124" lon="4.87581">
        <ele>364.6</ele>
        <time>2021-07-10T09:12:27</time>
      </trkpt>
      <trkpt lat="44.65134" lon="4.87579">
        <ele>364.6</ele>
        <time>2021-07-10T09:12:28</time>
      </trkpt>
      <trkpt lat="44.65134" lon="4.87579">
        <ele>364.6</ele>
        <time>2021-07-10T09:12:29</time>
      </trkpt>
      <trkpt lat="44.65139" lon="4.87578">
        <ele>364.8</ele>
        <time>2021-07-10T09:12:30</time>
      </trkpt>
      <trkpt lat="44.65146" lon="4.87577">
        <ele>365</ele>
        <time>2021-07-10T09:12:31</time>
      </trkpt>
      <trkpt lat="44.65146" lon="4.87577">
        <ele>365.2</ele>
        <time>2021-07-10T09:12:32</time>
      </trkpt>
      <trkpt lat="44.65155" lon="4.87576">
        <ele>365.2</ele>
        <time>2021-07-10T09:12:33</time>
      </trkpt>
      <trkpt lat="44.65155" lon="4.87576">
        <ele>365.2</ele>
        <time>2021-07-10T09:12:34</time>
      </trkpt>
      <trkpt lat="44.65163" lon="4.87575">
        <ele>365.2</ele>
        <time>2021-07-10T09:12:35</time>
      </trkpt>
      <trkpt lat="44.65163" lon="4.87575">
        <ele>365.2</ele>
        <time>2021-07-10T09:12:36</time>
      </trkpt>
      <trkpt lat="44.65166" lon="4.87575">
        <ele>365.2</ele>
        <time>2021-07-10T09:12:37</time>
      </trkpt>
      <trkpt lat="44.65173" lon="4.87576">
        <ele>365.2</ele>
        <time>2021-07-10T09:12:38</time>
      </trkpt>
      <trkpt lat="44.65173" lon="4.87576">
        <ele>365.2</ele>
        <time>2021-07-10T09:12:39</time>
      </trkpt>
      <trkpt lat="44.65178" lon="4.87576">
        <ele>365.2</ele>
        <time>2021-07-10T09:12:40</time>
      </trkpt>
      <trkpt lat="44.65182" lon="4.87575">
        <ele>365.4</ele>
        <time>2021-07-10T09:12:41</time>
      </trkpt>
      <trkpt lat="44.65188" lon="4.87575">
        <ele>365.4</ele>
        <time>2021-07-10T09:12:42</time>
      </trkpt>
      <trkpt lat="44.652" lon="4.87574">
        <ele>365.4</ele>
        <time>2021-07-10T09:12:43</time>
      </trkpt>
      <trkpt lat="44.652" lon="4.87574">
        <ele>365.6</ele>
        <time>2021-07-10T09:12:44</time>
      </trkpt>
      <trkpt lat="44.65205" lon="4.87575">
        <ele>365.6</ele>
        <time>2021-07-10T09:12:45</time>
      </trkpt>
      <trkpt lat="44.65211" lon="4.87576">
        <ele>365.6</ele>
        <time>2021-07-10T09:12:46</time>
      </trkpt>
      <trkpt lat="44.65216" lon="4.87577">
        <ele>365.6</ele>
        <time>2021-07-10T09:12:47</time>
      </trkpt>
      <trkpt lat="44.65221" lon="4.87579">
        <ele>365.8</ele>
        <time>2021-07-10T09:12:48</time>
      </trkpt>
      <trkpt lat="44.65221" lon="4.87579">
        <ele>365.6</ele>
        <time>2021-07-10T09:12:49</time>
      </trkpt>
      <trkpt lat="44.65229" lon="4.87584">
        <ele>365.6</ele>
        <time>2021-07-10T09:12:50</time>
      </trkpt>
      <trkpt lat="44.6524" lon="4.87589">
        <ele>365.6</ele>
        <time>2021-07-10T09:12:51</time>
      </trkpt>
      <trkpt lat="44.6524" lon="4.87589">
        <ele>365.8</ele>
        <time>2021-07-10T09:12:52</time>
      </trkpt>
      <trkpt lat="44.65249" lon="4.87594">
        <ele>365.8</ele>
        <time>2021-07-10T09:12:53</time>
      </trkpt>
      <trkpt lat="44.65249" lon="4.87594">
        <ele>365.8</ele>
        <time>2021-07-10T09:12:54</time>
      </trkpt>
      <trkpt lat="44.65253" lon="4.87597">
        <ele>365.8</ele>
        <time>2021-07-10T09:12:55</time>
      </trkpt>
      <trkpt lat="44.65261" lon="4.87603">
        <ele>366</ele>
        <time>2021-07-10T09:12:56</time>
      </trkpt>
      <trkpt lat="44.65261" lon="4.87603">
        <ele>366</ele>
        <time>2021-07-10T09:12:57</time>
      </trkpt>
      <trkpt lat="44.65271" lon="4.87609">
        <ele>366</ele>
        <time>2021-07-10T09:12:58</time>
      </trkpt>
      <trkpt lat="44.65271" lon="4.87609">
        <ele>366.2</ele>
        <time>2021-07-10T09:12:59</time>
      </trkpt>
      <trkpt lat="44.65275" lon="4.87612">
        <ele>366.2</ele>
        <time>2021-07-10T09:13:00</time>
      </trkpt>
      <trkpt lat="44.65285" lon="4.87617">
        <ele>366.2</ele>
        <time>2021-07-10T09:13:01</time>
      </trkpt>
      <trkpt lat="44.65285" lon="4.87617">
        <ele>366</ele>
        <time>2021-07-10T09:13:02</time>
      </trkpt>
      <trkpt lat="44.65295" lon="4.87621">
        <ele>366</ele>
        <time>2021-07-10T09:13:03</time>
      </trkpt>
      <trkpt lat="44.65295" lon="4.87621">
        <ele>366</ele>
        <time>2021-07-10T09:13:04</time>
      </trkpt>
      <trkpt lat="44.65301" lon="4.87625">
        <ele>366</ele>
        <time>2021-07-10T09:13:05</time>
      </trkpt>
      <trkpt lat="44.6531" lon="4.87638">
        <ele>366.2</ele>
        <time>2021-07-10T09:13:06</time>
      </trkpt>
      <trkpt lat="44.6531" lon="4.87638">
        <ele>366.2</ele>
        <time>2021-07-10T09:13:07</time>
      </trkpt>
      <trkpt lat="44.65319" lon="4.87649">
        <ele>366.2</ele>
        <time>2021-07-10T09:13:08</time>
      </trkpt>
      <trkpt lat="44.65319" lon="4.87649">
        <ele>366.2</ele>
        <time>2021-07-10T09:13:09</time>
      </trkpt>
      <trkpt lat="44.65324" lon="4.87655">
        <ele>366.2</ele>
        <time>2021-07-10T09:13:10</time>
      </trkpt>
      <trkpt lat="44.6533" lon="4.87668">
        <ele>366.2</ele>
        <time>2021-07-10T09:13:11</time>
      </trkpt>
      <trkpt lat="44.6533" lon="4.87668">
        <ele>366.2</ele>
        <time>2021-07-10T09:13:12</time>
      </trkpt>
      <trkpt lat="44.65337" lon="4.87682">
        <ele>366.2</ele>
        <time>2021-07-10T09:13:13</time>
      </trkpt>
      <trkpt lat="44.65337" lon="4.87682">
        <ele>366.4</ele>
        <time>2021-07-10T09:13:14</time>
      </trkpt>
      <trkpt lat="44.6534" lon="4.8769">
        <ele>366.4</ele>
        <time>2021-07-10T09:13:15</time>
      </trkpt>
      <trkpt lat="44.65341" lon="4.87698">
        <ele>366.4</ele>
        <time>2021-07-10T09:13:16</time>
      </trkpt>
      <trkpt lat="44.65345" lon="4.87707">
        <ele>366.4</ele>
        <time>2021-07-10T09:13:17</time>
      </trkpt>
      <trkpt lat="44.65348" lon="4.87724">
        <ele>366.4</ele>
        <time>2021-07-10T09:13:18</time>
      </trkpt>
      <trkpt lat="44.65348" lon="4.87724">
        <ele>366.2</ele>
        <time>2021-07-10T09:13:19</time>
      </trkpt>
      <trkpt lat="44.6535" lon="4.87732">
        <ele>366.2</ele>
        <time>2021-07-10T09:13:20</time>
      </trkpt>
      <trkpt lat="44.65352" lon="4.87741">
        <ele>366</ele>
        <time>2021-07-10T09:13:21</time>
      </trkpt>
      <trkpt lat="44.65353" lon="4.87749">
        <ele>365.8</ele>
        <time>2021-07-10T09:13:22</time>
      </trkpt>
      <trkpt lat="44.65355" lon="4.87768">
        <ele>365.6</ele>
        <time>2021-07-10T09:13:23</time>
      </trkpt>
      <trkpt lat="44.65355" lon="4.87768">
        <ele>365.4</ele>
        <time>2021-07-10T09:13:24</time>
      </trkpt>
      <trkpt lat="44.65356" lon="4.8778">
        <ele>365.2</ele>
        <time>2021-07-10T09:13:25</time>
      </trkpt>
      <trkpt lat="44.65359" lon="4.8779">
        <ele>365</ele>
        <time>2021-07-10T09:13:26</time>
      </trkpt>
      <trkpt lat="44.65363" lon="4.878">
        <ele>364.8</ele>
        <time>2021-07-10T09:13:27</time>
      </trkpt>
      <trkpt lat="44.6537" lon="4.87816">
        <ele>364.6</ele>
        <time>2021-07-10T09:13:28</time>
      </trkpt>
      <trkpt lat="44.6537" lon="4.87816">
        <ele>364.2</ele>
        <time>2021-07-10T09:13:29</time>
      </trkpt>
      <trkpt lat="44.65375" lon="4.87823">
        <ele>363.8</ele>
        <time>2021-07-10T09:13:30</time>
      </trkpt>
      <trkpt lat="44.6538" lon="4.87829">
        <ele>363.2</ele>
        <time>2021-07-10T09:13:31</time>
      </trkpt>
      <trkpt lat="44.65386" lon="4.87835">
        <ele>363</ele>
        <time>2021-07-10T09:13:32</time>
      </trkpt>
      <trkpt lat="44.65399" lon="4.87846">
        <ele>362.8</ele>
        <time>2021-07-10T09:13:33</time>
      </trkpt>
      <trkpt lat="44.65399" lon="4.87846">
        <ele>362.4</ele>
        <time>2021-07-10T09:13:34</time>
      </trkpt>
      <trkpt lat="44.65406" lon="4.87851">
        <ele>362</ele>
        <time>2021-07-10T09:13:35</time>
      </trkpt>
      <trkpt lat="44.65419" lon="4.87861">
        <ele>361.6</ele>
        <time>2021-07-10T09:13:36</time>
      </trkpt>
      <trkpt lat="44.65419" lon="4.87861">
        <ele>361.2</ele>
        <time>2021-07-10T09:13:37</time>
      </trkpt>
      <trkpt lat="44.65435" lon="4.87868">
        <ele>360.8</ele>
        <time>2021-07-10T09:13:38</time>
      </trkpt>
      <trkpt lat="44.65435" lon="4.87868">
        <ele>360.4</ele>
        <time>2021-07-10T09:13:39</time>
      </trkpt>
      <trkpt lat="44.65442" lon="4.87872">
        <ele>360.2</ele>
        <time>2021-07-10T09:13:40</time>
      </trkpt>
      <trkpt lat="44.65458" lon="4.8788">
        <ele>359.8</ele>
        <time>2021-07-10T09:13:41</time>
      </trkpt>
      <trkpt lat="44.65458" lon="4.8788">
        <ele>359.2</ele>
        <time>2021-07-10T09:13:42</time>
      </trkpt>
      <trkpt lat="44.65471" lon="4.87888">
        <ele>359</ele>
        <time>2021-07-10T09:13:43</time>
      </trkpt>
      <trkpt lat="44.65471" lon="4.87888">
        <ele>358.6</ele>
        <time>2021-07-10T09:13:44</time>
      </trkpt>
      <trkpt lat="44.65478" lon="4.87891">
        <ele>358</ele>
        <time>2021-07-10T09:13:45</time>
      </trkpt>
      <trkpt lat="44.65487" lon="4.87894">
        <ele>357.2</ele>
        <time>2021-07-10T09:13:46</time>
      </trkpt>
      <trkpt lat="44.65495" lon="4.87898">
        <ele>356.6</ele>
        <time>2021-07-10T09:13:47</time>
      </trkpt>
      <trkpt lat="44.65511" lon="4.87906">
        <ele>356.4</ele>
        <time>2021-07-10T09:13:48</time>
      </trkpt>
      <trkpt lat="44.65511" lon="4.87906">
        <ele>356.2</ele>
        <time>2021-07-10T09:13:49</time>
      </trkpt>
      <trkpt lat="44.65517" lon="4.8791">
        <ele>356</ele>
        <time>2021-07-10T09:13:50</time>
      </trkpt>
      <trkpt lat="44.65524" lon="4.87913">
        <ele>355.6</ele>
        <time>2021-07-10T09:13:51</time>
      </trkpt>
      <trkpt lat="44.65532" lon="4.87916">
        <ele>355.2</ele>
        <time>2021-07-10T09:13:52</time>
      </trkpt>
      <trkpt lat="44.6554" lon="4.87917">
        <ele>354.6</ele>
        <time>2021-07-10T09:13:53</time>
      </trkpt>
      <trkpt lat="44.6554" lon="4.87917">
        <ele>354.2</ele>
        <time>2021-07-10T09:13:54</time>
      </trkpt>
      <trkpt lat="44.65556" lon="4.87921">
        <ele>353.8</ele>
        <time>2021-07-10T09:13:55</time>
      </trkpt>
      <trkpt lat="44.65571" lon="4.87922">
        <ele>353.6</ele>
        <time>2021-07-10T09:13:56</time>
      </trkpt>
      <trkpt lat="44.65571" lon="4.87922">
        <ele>353.2</ele>
        <time>2021-07-10T09:13:57</time>
      </trkpt>
      <trkpt lat="44.65587" lon="4.8792">
        <ele>352.8</ele>
        <time>2021-07-10T09:13:58</time>
      </trkpt>
      <trkpt lat="44.65587" lon="4.8792">
        <ele>352.2</ele>
        <time>2021-07-10T09:13:59</time>
      </trkpt>
      <trkpt lat="44.65602" lon="4.87918">
        <ele>351.8</ele>
        <time>2021-07-10T09:14:00</time>
      </trkpt>
      <trkpt lat="44.65602" lon="4.87918">
        <ele>351.2</ele>
        <time>2021-07-10T09:14:01</time>
      </trkpt>
      <trkpt lat="44.65609" lon="4.87917">
        <ele>350.8</ele>
        <time>2021-07-10T09:14:02</time>
      </trkpt>
      <trkpt lat="44.65617" lon="4.87917">
        <ele>350.4</ele>
        <time>2021-07-10T09:14:03</time>
      </trkpt>
      <trkpt lat="44.65617" lon="4.87917">
        <ele>349.6</ele>
        <time>2021-07-10T09:14:04</time>
      </trkpt>
      <trkpt lat="44.65632" lon="4.87916">
        <ele>349.2</ele>
        <time>2021-07-10T09:14:05</time>
      </trkpt>
      <trkpt lat="44.65649" lon="4.8792">
        <ele>348.8</ele>
        <time>2021-07-10T09:14:06</time>
      </trkpt>
      <trkpt lat="44.65649" lon="4.8792">
        <ele>348.8</ele>
        <time>2021-07-10T09:14:07</time>
      </trkpt>
      <trkpt lat="44.65663" lon="4.87934">
        <ele>348.6</ele>
        <time>2021-07-10T09:14:08</time>
      </trkpt>
      <trkpt lat="44.65663" lon="4.87934">
        <ele>348.4</ele>
        <time>2021-07-10T09:14:09</time>
      </trkpt>
      <trkpt lat="44.65667" lon="4.87943">
        <ele>348.4</ele>
        <time>2021-07-10T09:14:10</time>
      </trkpt>
      <trkpt lat="44.6567" lon="4.87954">
        <ele>348.4</ele>
        <time>2021-07-10T09:14:11</time>
      </trkpt>
      <trkpt lat="44.65673" lon="4.87964">
        <ele>348.6</ele>
        <time>2021-07-10T09:14:12</time>
      </trkpt>
      <trkpt lat="44.65676" lon="4.87983">
        <ele>348.8</ele>
        <time>2021-07-10T09:14:13</time>
      </trkpt>
      <trkpt lat="44.65676" lon="4.87983">
        <ele>348.8</ele>
        <time>2021-07-10T09:14:14</time>
      </trkpt>
      <trkpt lat="44.65678" lon="4.87991">
        <ele>348.8</ele>
        <time>2021-07-10T09:14:15</time>
      </trkpt>
      <trkpt lat="44.65678" lon="4.87991">
        <ele>348.8</ele>
        <time>2021-07-10T09:14:16</time>
      </trkpt>
      <trkpt lat="44.65681" lon="4.8801">
        <ele>348.6</ele>
        <time>2021-07-10T09:14:17</time>
      </trkpt>
      <trkpt lat="44.6568" lon="4.88029">
        <ele>348.6</ele>
        <time>2021-07-10T09:14:18</time>
      </trkpt>
      <trkpt lat="44.6568" lon="4.88029">
        <ele>348.6</ele>
        <time>2021-07-10T09:14:19</time>
      </trkpt>
      <trkpt lat="44.65683" lon="4.88048">
        <ele>348.6</ele>
        <time>2021-07-10T09:14:20</time>
      </trkpt>
      <trkpt lat="44.65683" lon="4.88048">
        <ele>348.6</ele>
        <time>2021-07-10T09:14:21</time>
      </trkpt>
      <trkpt lat="44.65682" lon="4.88057">
        <ele>348.6</ele>
        <time>2021-07-10T09:14:22</time>
      </trkpt>
      <trkpt lat="44.65678" lon="4.88076">
        <ele>348.6</ele>
        <time>2021-07-10T09:14:23</time>
      </trkpt>
      <trkpt lat="44.65678" lon="4.88076">
        <ele>348.6</ele>
        <time>2021-07-10T09:14:24</time>
      </trkpt>
      <trkpt lat="44.65677" lon="4.88083">
        <ele>348.6</ele>
        <time>2021-07-10T09:14:25</time>
      </trkpt>
      <trkpt lat="44.65675" lon="4.88093">
        <ele>348.6</ele>
        <time>2021-07-10T09:14:26</time>
      </trkpt>
      <trkpt lat="44.65674" lon="4.88103">
        <ele>348.6</ele>
        <time>2021-07-10T09:14:27</time>
      </trkpt>
      <trkpt lat="44.65672" lon="4.88112">
        <ele>348.4</ele>
        <time>2021-07-10T09:14:28</time>
      </trkpt>
      <trkpt lat="44.65671" lon="4.8812">
        <ele>348.4</ele>
        <time>2021-07-10T09:14:29</time>
      </trkpt>
      <trkpt lat="44.6567" lon="4.88128">
        <ele>348.4</ele>
        <time>2021-07-10T09:14:30</time>
      </trkpt>
      <trkpt lat="44.65672" lon="4.88137">
        <ele>348.6</ele>
        <time>2021-07-10T09:14:31</time>
      </trkpt>
      <trkpt lat="44.65674" lon="4.8815">
        <ele>348.8</ele>
        <time>2021-07-10T09:14:32</time>
      </trkpt>
      <trkpt lat="44.65674" lon="4.8815">
        <ele>348.8</ele>
        <time>2021-07-10T09:14:33</time>
      </trkpt>
      <trkpt lat="44.65677" lon="4.88156">
        <ele>348.8</ele>
        <time>2021-07-10T09:14:34</time>
      </trkpt>
      <trkpt lat="44.65677" lon="4.88156">
        <ele>348.8</ele>
        <time>2021-07-10T09:14:35</time>
      </trkpt>
      <trkpt lat="44.65683" lon="4.88165">
        <ele>348.8</ele>
        <time>2021-07-10T09:14:36</time>
      </trkpt>
      <trkpt lat="44.65692" lon="4.88176">
        <ele>348.6</ele>
        <time>2021-07-10T09:14:37</time>
      </trkpt>
      <trkpt lat="44.65692" lon="4.88176">
        <ele>348.6</ele>
        <time>2021-07-10T09:14:38</time>
      </trkpt>
      <trkpt lat="44.65701" lon="4.88186">
        <ele>348.4</ele>
        <time>2021-07-10T09:14:39</time>
      </trkpt>
      <trkpt lat="44.65701" lon="4.88186">
        <ele>348.2</ele>
        <time>2021-07-10T09:14:40</time>
      </trkpt>
      <trkpt lat="44.6571" lon="4.88195">
        <ele>348.2</ele>
        <time>2021-07-10T09:14:41</time>
      </trkpt>
      <trkpt lat="44.65713" lon="4.88199">
        <ele>348.2</ele>
        <time>2021-07-10T09:14:42</time>
      </trkpt>
      <trkpt lat="44.65713" lon="4.88199">
        <ele>348</ele>
        <time>2021-07-10T09:14:43</time>
      </trkpt>
      <trkpt lat="44.65717" lon="4.88203">
        <ele>348</ele>
        <time>2021-07-10T09:14:44</time>
      </trkpt>
      <trkpt lat="44.65721" lon="4.88207">
        <ele>348.2</ele>
        <time>2021-07-10T09:14:45</time>
      </trkpt>
      <trkpt lat="44.65725" lon="4.88211">
        <ele>348</ele>
        <time>2021-07-10T09:14:46</time>
      </trkpt>
      <trkpt lat="44.65729" lon="4.88213">
        <ele>348</ele>
        <time>2021-07-10T09:14:47</time>
      </trkpt>
      <trkpt lat="44.65729" lon="4.88213">
        <ele>348</ele>
        <time>2021-07-10T09:14:48</time>
      </trkpt>
      <trkpt lat="44.65744" lon="4.88223">
        <ele>348</ele>
        <time>2021-07-10T09:14:49</time>
      </trkpt>
      <trkpt lat="44.65744" lon="4.88223">
        <ele>348</ele>
        <time>2021-07-10T09:14:50</time>
      </trkpt>
      <trkpt lat="44.65749" lon="4.88226">
        <ele>348</ele>
        <time>2021-07-10T09:14:51</time>
      </trkpt>
      <trkpt lat="44.6576" lon="4.88232">
        <ele>348</ele>
        <time>2021-07-10T09:14:52</time>
      </trkpt>
      <trkpt lat="44.6576" lon="4.88232">
        <ele>348</ele>
        <time>2021-07-10T09:14:53</time>
      </trkpt>
      <trkpt lat="44.65764" lon="4.88235">
        <ele>348</ele>
        <time>2021-07-10T09:14:54</time>
      </trkpt>
      <trkpt lat="44.65769" lon="4.88238">
        <ele>348</ele>
        <time>2021-07-10T09:14:55</time>
      </trkpt>
      <trkpt lat="44.65773" lon="4.88241">
        <ele>348</ele>
        <time>2021-07-10T09:14:56</time>
      </trkpt>
      <trkpt lat="44.65783" lon="4.88247">
        <ele>347.8</ele>
        <time>2021-07-10T09:14:57</time>
      </trkpt>
      <trkpt lat="44.65783" lon="4.88247">
        <ele>347.8</ele>
        <time>2021-07-10T09:14:58</time>
      </trkpt>
      <trkpt lat="44.65787" lon="4.88248">
        <ele>347.8</ele>
        <time>2021-07-10T09:14:59</time>
      </trkpt>
      <trkpt lat="44.65787" lon="4.88248">
        <ele>347.6</ele>
        <time>2021-07-10T09:15:00</time>
      </trkpt>
      <trkpt lat="44.65797" lon="4.88251">
        <ele>347.6</ele>
        <time>2021-07-10T09:15:01</time>
      </trkpt>
      <trkpt lat="44.65802" lon="4.88251">
        <ele>347.4</ele>
        <time>2021-07-10T09:15:02</time>
      </trkpt>
      <trkpt lat="44.65802" lon="4.88251">
        <ele>347.4</ele>
        <time>2021-07-10T09:15:03</time>
      </trkpt>
      <trkpt lat="44.65809" lon="4.88254">
        <ele>347.6</ele>
        <time>2021-07-10T09:15:04</time>
      </trkpt>
      <trkpt lat="44.65814" lon="4.88257">
        <ele>347.8</ele>
        <time>2021-07-10T09:15:05</time>
      </trkpt>
      <trkpt lat="44.65823" lon="4.8826">
        <ele>348</ele>
        <time>2021-07-10T09:15:06</time>
      </trkpt>
      <trkpt lat="44.65828" lon="4.88263">
        <ele>348</ele>
        <time>2021-07-10T09:15:07</time>
      </trkpt>
      <trkpt lat="44.65828" lon="4.88263">
        <ele>348</ele>
        <time>2021-07-10T09:15:08</time>
      </trkpt>
      <trkpt lat="44.65832" lon="4.88266">
        <ele>347.8</ele>
        <time>2021-07-10T09:15:09</time>
      </trkpt>
      <trkpt lat="44.65838" lon="4.88269">
        <ele>347.8</ele>
        <time>2021-07-10T09:15:10</time>
      </trkpt>
      <trkpt lat="44.65843" lon="4.88272">
        <ele>347.8</ele>
        <time>2021-07-10T09:15:11</time>
      </trkpt>
      <trkpt lat="44.65854" lon="4.88275">
        <ele>347.8</ele>
        <time>2021-07-10T09:15:12</time>
      </trkpt>
      <trkpt lat="44.65854" lon="4.88275">
        <ele>347.8</ele>
        <time>2021-07-10T09:15:13</time>
      </trkpt>
      <trkpt lat="44.65867" lon="4.88278">
        <ele>347.8</ele>
        <time>2021-07-10T09:15:14</time>
      </trkpt>
      <trkpt lat="44.65867" lon="4.88278">
        <ele>347.8</ele>
        <time>2021-07-10T09:15:15</time>
      </trkpt>
      <trkpt lat="44.65874" lon="4.88279">
        <ele>347.8</ele>
        <time>2021-07-10T09:15:16</time>
      </trkpt>
      <trkpt lat="44.65885" lon="4.88278">
        <ele>347.8</ele>
        <time>2021-07-10T09:15:17</time>
      </trkpt>
      <trkpt lat="44.65885" lon="4.88278">
        <ele>347.8</ele>
        <time>2021-07-10T09:15:18</time>
      </trkpt>
      <trkpt lat="44.65891" lon="4.88278">
        <ele>347.8</ele>
        <time>2021-07-10T09:15:19</time>
      </trkpt>
      <trkpt lat="44.65896" lon="4.88278">
        <ele>347.8</ele>
        <time>2021-07-10T09:15:20</time>
      </trkpt>
      <trkpt lat="44.659" lon="4.8828">
        <ele>347.8</ele>
        <time>2021-07-10T09:15:21</time>
      </trkpt>
      <trkpt lat="44.6591" lon="4.88281">
        <ele>348</ele>
        <time>2021-07-10T09:15:22</time>
      </trkpt>
      <trkpt lat="44.6591" lon="4.88281">
        <ele>348</ele>
        <time>2021-07-10T09:15:23</time>
      </trkpt>
      <trkpt lat="44.65915" lon="4.88282">
        <ele>348.2</ele>
        <time>2021-07-10T09:15:24</time>
      </trkpt>
      <trkpt lat="44.65923" lon="4.88283">
        <ele>348.4</ele>
        <time>2021-07-10T09:15:25</time>
      </trkpt>
      <trkpt lat="44.65923" lon="4.88283">
        <ele>348.4</ele>
        <time>2021-07-10T09:15:26</time>
      </trkpt>
      <trkpt lat="44.6593" lon="4.88283">
        <ele>348.4</ele>
        <time>2021-07-10T09:15:27</time>
      </trkpt>
      <trkpt lat="44.6593" lon="4.88283">
        <ele>348.6</ele>
        <time>2021-07-10T09:15:28</time>
      </trkpt>
      <trkpt lat="44.65933" lon="4.88282">
        <ele>348.6</ele>
        <time>2021-07-10T09:15:29</time>
      </trkpt>
      <trkpt lat="44.65938" lon="4.8828">
        <ele>348.6</ele>
        <time>2021-07-10T09:15:30</time>
      </trkpt>
      <trkpt lat="44.65943" lon="4.8828">
        <ele>348.8</ele>
        <time>2021-07-10T09:15:31</time>
      </trkpt>
      <trkpt lat="44.65952" lon="4.88279">
        <ele>349</ele>
        <time>2021-07-10T09:15:32</time>
      </trkpt>
      <trkpt lat="44.65952" lon="4.88279">
        <ele>349.2</ele>
        <time>2021-07-10T09:15:33</time>
      </trkpt>
      <trkpt lat="44.65956" lon="4.88279">
        <ele>349.2</ele>
        <time>2021-07-10T09:15:34</time>
      </trkpt>
      <trkpt lat="44.65961" lon="4.88278">
        <ele>349.2</ele>
        <time>2021-07-10T09:15:35</time>
      </trkpt>
      <trkpt lat="44.65965" lon="4.88278">
        <ele>349.2</ele>
        <time>2021-07-10T09:15:36</time>
      </trkpt>
      <trkpt lat="44.65973" lon="4.88277">
        <ele>349.4</ele>
        <time>2021-07-10T09:15:37</time>
      </trkpt>
      <trkpt lat="44.65973" lon="4.88277">
        <ele>349.4</ele>
        <time>2021-07-10T09:15:38</time>
      </trkpt>
      <trkpt lat="44.65978" lon="4.88277">
        <ele>349.6</ele>
        <time>2021-07-10T09:15:39</time>
      </trkpt>
      <trkpt lat="44.65982" lon="4.88273">
        <ele>349.6</ele>
        <time>2021-07-10T09:15:40</time>
      </trkpt>
      <trkpt lat="44.65986" lon="4.88273">
        <ele>349.8</ele>
        <time>2021-07-10T09:15:41</time>
      </trkpt>
      <trkpt lat="44.65994" lon="4.88275">
        <ele>350</ele>
        <time>2021-07-10T09:15:42</time>
      </trkpt>
      <trkpt lat="44.65994" lon="4.88275">
        <ele>350</ele>
        <time>2021-07-10T09:15:43</time>
      </trkpt>
      <trkpt lat="44.65996" lon="4.88275">
        <ele>350.2</ele>
        <time>2021-07-10T09:15:44</time>
      </trkpt>
      <trkpt lat="44.65997" lon="4.88275">
        <ele>350.4</ele>
        <time>2021-07-10T09:15:45</time>
      </trkpt>
      <trkpt lat="44.66001" lon="4.88273">
        <ele>350.6</ele>
        <time>2021-07-10T09:15:46</time>
      </trkpt>
      <trkpt lat="44.66009" lon="4.88273">
        <ele>350.8</ele>
        <time>2021-07-10T09:15:47</time>
      </trkpt>
      <trkpt lat="44.66009" lon="4.88273">
        <ele>350.8</ele>
        <time>2021-07-10T09:15:48</time>
      </trkpt>
      <trkpt lat="44.66013" lon="4.88272">
        <ele>351</ele>
        <time>2021-07-10T09:15:49</time>
      </trkpt>
      <trkpt lat="44.66021" lon="4.88275">
        <ele>351.2</ele>
        <time>2021-07-10T09:15:50</time>
      </trkpt>
      <trkpt lat="44.66021" lon="4.88275">
        <ele>351.2</ele>
        <time>2021-07-10T09:15:51</time>
      </trkpt>
      <trkpt lat="44.66027" lon="4.88274">
        <ele>351.2</ele>
        <time>2021-07-10T09:15:52</time>
      </trkpt>
      <trkpt lat="44.66027" lon="4.88274">
        <ele>351.2</ele>
        <time>2021-07-10T09:15:53</time>
      </trkpt>
      <trkpt lat="44.66031" lon="4.88274">
        <ele>351.4</ele>
        <time>2021-07-10T09:15:54</time>
      </trkpt>
      <trkpt lat="44.66031" lon="4.88274">
        <ele>351.8</ele>
        <time>2021-07-10T09:15:55</time>
      </trkpt>
      <trkpt lat="44.66038" lon="4.88274">
        <ele>352</ele>
        <time>2021-07-10T09:15:56</time>
      </trkpt>
      <trkpt lat="44.66043" lon="4.88273">
        <ele>352.2</ele>
        <time>2021-07-10T09:15:57</time>
      </trkpt>
      <trkpt lat="44.66043" lon="4.88273">
        <ele>352.6</ele>
        <time>2021-07-10T09:15:58</time>
      </trkpt>
      <trkpt lat="44.66046" lon="4.88272">
        <ele>352.8</ele>
        <time>2021-07-10T09:15:59</time>
      </trkpt>
      <trkpt lat="44.66049" lon="4.88272">
        <ele>353</ele>
        <time>2021-07-10T09:16:00</time>
      </trkpt>
      <trkpt lat="44.6605" lon="4.88271">
        <ele>353.2</ele>
        <time>2021-07-10T09:16:01</time>
      </trkpt>
      <trkpt lat="44.66056" lon="4.88275">
        <ele>353.4</ele>
        <time>2021-07-10T09:16:02</time>
      </trkpt>
      <trkpt lat="44.66056" lon="4.88275">
        <ele>353.6</ele>
        <time>2021-07-10T09:16:03</time>
      </trkpt>
      <trkpt lat="44.66059" lon="4.88277">
        <ele>353.6</ele>
        <time>2021-07-10T09:16:04</time>
      </trkpt>
      <trkpt lat="44.66062" lon="4.88276">
        <ele>353.8</ele>
        <time>2021-07-10T09:16:05</time>
      </trkpt>
      <trkpt lat="44.66064" lon="4.88273">
        <ele>353.8</ele>
        <time>2021-07-10T09:16:06</time>
      </trkpt>
      <trkpt lat="44.66071" lon="4.88274">
        <ele>354</ele>
        <time>2021-07-10T09:16:07</time>
      </trkpt>
      <trkpt lat="44.66071" lon="4.88274">
        <ele>354.4</ele>
        <time>2021-07-10T09:16:08</time>
      </trkpt>
      <trkpt lat="44.66076" lon="4.88274">
        <ele>354.6</ele>
        <time>2021-07-10T09:16:09</time>
      </trkpt>
      <trkpt lat="44.66076" lon="4.88274">
        <ele>354.8</ele>
        <time>2021-07-10T09:16:10</time>
      </trkpt>
      <trkpt lat="44.66082" lon="4.88274">
        <ele>355</ele>
        <time>2021-07-10T09:16:11</time>
      </trkpt>
      <trkpt lat="44.66086" lon="4.88275">
        <ele>355.2</ele>
        <time>2021-07-10T09:16:12</time>
      </trkpt>
      <trkpt lat="44.66086" lon="4.88275">
        <ele>355.2</ele>
        <time>2021-07-10T09:16:13</time>
      </trkpt>
      <trkpt lat="44.66094" lon="4.88276">
        <ele>355.2</ele>
        <time>2021-07-10T09:16:14</time>
      </trkpt>
      <trkpt lat="44.66094" lon="4.88276">
        <ele>355.4</ele>
        <time>2021-07-10T09:16:15</time>
      </trkpt>
      <trkpt lat="44.66097" lon="4.88277">
        <ele>355.6</ele>
        <time>2021-07-10T09:16:16</time>
      </trkpt>
      <trkpt lat="44.66104" lon="4.8828">
        <ele>355.8</ele>
        <time>2021-07-10T09:16:17</time>
      </trkpt>
      <trkpt lat="44.66104" lon="4.8828">
        <ele>356</ele>
        <time>2021-07-10T09:16:18</time>
      </trkpt>
      <trkpt lat="44.66108" lon="4.88281">
        <ele>356.2</ele>
        <time>2021-07-10T09:16:19</time>
      </trkpt>
      <trkpt lat="44.66111" lon="4.88283">
        <ele>356.4</ele>
        <time>2021-07-10T09:16:20</time>
      </trkpt>
      <trkpt lat="44.66114" lon="4.88288">
        <ele>356.6</ele>
        <time>2021-07-10T09:16:21</time>
      </trkpt>
      <trkpt lat="44.6612" lon="4.88293">
        <ele>356.8</ele>
        <time>2021-07-10T09:16:22</time>
      </trkpt>
      <trkpt lat="44.6612" lon="4.88293">
        <ele>357.2</ele>
        <time>2021-07-10T09:16:23</time>
      </trkpt>
      <trkpt lat="44.66122" lon="4.88296">
        <ele>357.6</ele>
        <time>2021-07-10T09:16:24</time>
      </trkpt>
      <trkpt lat="44.66123" lon="4.88299">
        <ele>357.8</ele>
        <time>2021-07-10T09:16:25</time>
      </trkpt>
      <trkpt lat="44.66124" lon="4.88305">
        <ele>358</ele>
        <time>2021-07-10T09:16:26</time>
      </trkpt>
      <trkpt lat="44.66126" lon="4.88313">
        <ele>358.2</ele>
        <time>2021-07-10T09:16:27</time>
      </trkpt>
      <trkpt lat="44.66126" lon="4.88313">
        <ele>358.4</ele>
        <time>2021-07-10T09:16:28</time>
      </trkpt>
      <trkpt lat="44.66125" lon="4.88322">
        <ele>358.6</ele>
        <time>2021-07-10T09:16:29</time>
      </trkpt>
      <trkpt lat="44.66125" lon="4.88322">
        <ele>358.8</ele>
        <time>2021-07-10T09:16:30</time>
      </trkpt>
      <trkpt lat="44.66125" lon="4.88327">
        <ele>358.8</ele>
        <time>2021-07-10T09:16:31</time>
      </trkpt>
      <trkpt lat="44.66126" lon="4.8834">
        <ele>358.8</ele>
        <time>2021-07-10T09:16:32</time>
      </trkpt>
      <trkpt lat="44.66126" lon="4.8834">
        <ele>359</ele>
        <time>2021-07-10T09:16:33</time>
      </trkpt>
      <trkpt lat="44.66126" lon="4.88345">
        <ele>359</ele>
        <time>2021-07-10T09:16:34</time>
      </trkpt>
      <trkpt lat="44.66127" lon="4.8835">
        <ele>359.2</ele>
        <time>2021-07-10T09:16:35</time>
      </trkpt>
      <trkpt lat="44.66126" lon="4.88354">
        <ele>359.2</ele>
        <time>2021-07-10T09:16:36</time>
      </trkpt>
      <trkpt lat="44.66124" lon="4.88363">
        <ele>359.2</ele>
        <time>2021-07-10T09:16:37</time>
      </trkpt>
      <trkpt lat="44.66124" lon="4.88363">
        <ele>359.4</ele>
        <time>2021-07-10T09:16:38</time>
      </trkpt>
      <trkpt lat="44.66124" lon="4.88367">
        <ele>359.4</ele>
        <time>2021-07-10T09:16:39</time>
      </trkpt>
      <trkpt lat="44.66122" lon="4.88377">
        <ele>359.6</ele>
        <time>2021-07-10T09:16:40</time>
      </trkpt>
      <trkpt lat="44.66122" lon="4.88377">
        <ele>359.6</ele>
        <time>2021-07-10T09:16:41</time>
      </trkpt>
      <trkpt lat="44.66121" lon="4.88385">
        <ele>359.8</ele>
        <time>2021-07-10T09:16:42</time>
      </trkpt>
      <trkpt lat="44.66121" lon="4.88385">
        <ele>359.8</ele>
        <time>2021-07-10T09:16:43</time>
      </trkpt>
      <trkpt lat="44.66121" lon="4.8839">
        <ele>359.8</ele>
        <time>2021-07-10T09:16:44</time>
      </trkpt>
      <trkpt lat="44.66119" lon="4.88393">
        <ele>360</ele>
        <time>2021-07-10T09:16:45</time>
      </trkpt>
      <trkpt lat="44.66118" lon="4.88402">
        <ele>360</ele>
        <time>2021-07-10T09:16:46</time>
      </trkpt>
      <trkpt lat="44.66117" lon="4.88406">
        <ele>360</ele>
        <time>2021-07-10T09:16:47</time>
      </trkpt>
      <trkpt lat="44.66117" lon="4.88406">
        <ele>360.2</ele>
        <time>2021-07-10T09:16:48</time>
      </trkpt>
      <trkpt lat="44.66116" lon="4.88411">
        <ele>360.2</ele>
        <time>2021-07-10T09:16:49</time>
      </trkpt>
      <trkpt lat="44.66116" lon="4.88416">
        <ele>360.2</ele>
        <time>2021-07-10T09:16:50</time>
      </trkpt>
      <trkpt lat="44.66116" lon="4.8842">
        <ele>360.2</ele>
        <time>2021-07-10T09:16:51</time>
      </trkpt>
      <trkpt lat="44.66117" lon="4.88433">
        <ele>360.4</ele>
        <time>2021-07-10T09:16:52</time>
      </trkpt>
      <trkpt lat="44.66117" lon="4.88433">
        <ele>360.4</ele>
        <time>2021-07-10T09:16:53</time>
      </trkpt>
      <trkpt lat="44.66117" lon="4.88438">
        <ele>360.4</ele>
        <time>2021-07-10T09:16:54</time>
      </trkpt>
      <trkpt lat="44.66118" lon="4.88443">
        <ele>360.4</ele>
        <time>2021-07-10T09:16:55</time>
      </trkpt>
      <trkpt lat="44.66119" lon="4.88447">
        <ele>360.4</ele>
        <time>2021-07-10T09:16:56</time>
      </trkpt>
      <trkpt lat="44.66123" lon="4.88457">
        <ele>360.4</ele>
        <time>2021-07-10T09:16:57</time>
      </trkpt>
      <trkpt lat="44.66123" lon="4.88457">
        <ele>360.4</ele>
        <time>2021-07-10T09:16:58</time>
      </trkpt>
      <trkpt lat="44.66125" lon="4.8846">
        <ele>360.4</ele>
        <time>2021-07-10T09:16:59</time>
      </trkpt>
      <trkpt lat="44.66128" lon="4.88463">
        <ele>360.6</ele>
        <time>2021-07-10T09:17:00</time>
      </trkpt>
      <trkpt lat="44.66132" lon="4.88468">
        <ele>360.6</ele>
        <time>2021-07-10T09:17:01</time>
      </trkpt>
      <trkpt lat="44.66132" lon="4.88468">
        <ele>360.6</ele>
        <time>2021-07-10T09:17:02</time>
      </trkpt>
      <trkpt lat="44.66133" lon="4.8847">
        <ele>360.6</ele>
        <time>2021-07-10T09:17:03</time>
      </trkpt>
      <trkpt lat="44.66136" lon="4.88473">
        <ele>360.6</ele>
        <time>2021-07-10T09:17:04</time>
      </trkpt>
      <trkpt lat="44.66139" lon="4.88475">
        <ele>360.8</ele>
        <time>2021-07-10T09:17:05</time>
      </trkpt>
      <trkpt lat="44.66144" lon="4.8848">
        <ele>361</ele>
        <time>2021-07-10T09:17:06</time>
      </trkpt>
      <trkpt lat="44.66144" lon="4.8848">
        <ele>361.2</ele>
        <time>2021-07-10T09:17:07</time>
      </trkpt>
      <trkpt lat="44.66146" lon="4.88482">
        <ele>361.2</ele>
        <time>2021-07-10T09:17:08</time>
      </trkpt>
      <trkpt lat="44.66148" lon="4.88485">
        <ele>361.4</ele>
        <time>2021-07-10T09:17:09</time>
      </trkpt>
      <trkpt lat="44.66152" lon="4.88487">
        <ele>361.4</ele>
        <time>2021-07-10T09:17:10</time>
      </trkpt>
      <trkpt lat="44.66156" lon="4.88492">
        <ele>361.4</ele>
        <time>2021-07-10T09:17:11</time>
      </trkpt>
      <trkpt lat="44.66156" lon="4.88492">
        <ele>361.4</ele>
        <time>2021-07-10T09:17:12</time>
      </trkpt>
      <trkpt lat="44.66159" lon="4.88494">
        <ele>361.2</ele>
        <time>2021-07-10T09:17:13</time>
      </trkpt>
      <trkpt lat="44.66161" lon="4.88497">
        <ele>361.2</ele>
        <time>2021-07-10T09:17:14</time>
      </trkpt>
      <trkpt lat="44.66165" lon="4.88499">
        <ele>361.4</ele>
        <time>2021-07-10T09:17:15</time>
      </trkpt>
      <trkpt lat="44.6617" lon="4.88504">
        <ele>361.4</ele>
        <time>2021-07-10T09:17:16</time>
      </trkpt>
      <trkpt lat="44.6617" lon="4.88504">
        <ele>361.4</ele>
        <time>2021-07-10T09:17:17</time>
      </trkpt>
      <trkpt lat="44.66173" lon="4.88506">
        <ele>361.4</ele>
        <time>2021-07-10T09:17:18</time>
      </trkpt>
      <trkpt lat="44.66173" lon="4.88506">
        <ele>361.2</ele>
        <time>2021-07-10T09:17:19</time>
      </trkpt>
      <trkpt lat="44.66179" lon="4.88511">
        <ele>361.2</ele>
        <time>2021-07-10T09:17:20</time>
      </trkpt>
      <trkpt lat="44.66186" lon="4.88516">
        <ele>361.2</ele>
        <time>2021-07-10T09:17:21</time>
      </trkpt>
      <trkpt lat="44.66186" lon="4.88516">
        <ele>361.2</ele>
        <time>2021-07-10T09:17:22</time>
      </trkpt>
      <trkpt lat="44.6619" lon="4.88518">
        <ele>361.2</ele>
        <time>2021-07-10T09:17:23</time>
      </trkpt>
      <trkpt lat="44.66193" lon="4.8852">
        <ele>361.4</ele>
        <time>2021-07-10T09:17:24</time>
      </trkpt>
      <trkpt lat="44.66195" lon="4.88523">
        <ele>361.4</ele>
        <time>2021-07-10T09:17:25</time>
      </trkpt>
      <trkpt lat="44.66201" lon="4.88526">
        <ele>361.4</ele>
        <time>2021-07-10T09:17:26</time>
      </trkpt>
      <trkpt lat="44.66201" lon="4.88526">
        <ele>361.4</ele>
        <time>2021-07-10T09:17:27</time>
      </trkpt>
      <trkpt lat="44.66204" lon="4.88527">
        <ele>361.4</ele>
        <time>2021-07-10T09:17:28</time>
      </trkpt>
      <trkpt lat="44.66206" lon="4.88528">
        <ele>361.2</ele>
        <time>2021-07-10T09:17:29</time>
      </trkpt>
      <trkpt lat="44.6621" lon="4.88529">
        <ele>361.2</ele>
        <time>2021-07-10T09:17:30</time>
      </trkpt>
      <trkpt lat="44.66215" lon="4.88533">
        <ele>361.2</ele>
        <time>2021-07-10T09:17:31</time>
      </trkpt>
      <trkpt lat="44.66215" lon="4.88533">
        <ele>361.2</ele>
        <time>2021-07-10T09:17:32</time>
      </trkpt>
      <trkpt lat="44.66218" lon="4.88536">
        <ele>361</ele>
        <time>2021-07-10T09:17:33</time>
      </trkpt>
      <trkpt lat="44.66218" lon="4.88536">
        <ele>361</ele>
        <time>2021-07-10T09:17:34</time>
      </trkpt>
      <trkpt lat="44.66225" lon="4.8854">
        <ele>360.8</ele>
        <time>2021-07-10T09:17:35</time>
      </trkpt>
      <trkpt lat="44.66229" lon="4.8854">
        <ele>360.8</ele>
        <time>2021-07-10T09:17:36</time>
      </trkpt>
      <trkpt lat="44.66229" lon="4.8854">
        <ele>360.8</ele>
        <time>2021-07-10T09:17:37</time>
      </trkpt>
      <trkpt lat="44.66237" lon="4.88541">
        <ele>360.8</ele>
        <time>2021-07-10T09:17:38</time>
      </trkpt>
      <trkpt lat="44.66241" lon="4.88541">
        <ele>361</ele>
        <time>2021-07-10T09:17:39</time>
      </trkpt>
      <trkpt lat="44.66244" lon="4.88541">
        <ele>361</ele>
        <time>2021-07-10T09:17:40</time>
      </trkpt>
      <trkpt lat="44.66246" lon="4.8854">
        <ele>361</ele>
        <time>2021-07-10T09:17:41</time>
      </trkpt>
      <trkpt lat="44.66246" lon="4.8854">
        <ele>361</ele>
        <time>2021-07-10T09:17:42</time>
      </trkpt>
      <trkpt lat="44.66254" lon="4.88542">
        <ele>361</ele>
        <time>2021-07-10T09:17:43</time>
      </trkpt>
      <trkpt lat="44.66257" lon="4.88543">
        <ele>361</ele>
        <time>2021-07-10T09:17:44</time>
      </trkpt>
      <trkpt lat="44.66262" lon="4.88542">
        <ele>360.8</ele>
        <time>2021-07-10T09:17:45</time>
      </trkpt>
      <trkpt lat="44.66269" lon="4.88544">
        <ele>360.8</ele>
        <time>2021-07-10T09:17:46</time>
      </trkpt>
      <trkpt lat="44.66269" lon="4.88544">
        <ele>360.6</ele>
        <time>2021-07-10T09:17:47</time>
      </trkpt>
      <trkpt lat="44.66273" lon="4.88544">
        <ele>360.6</ele>
        <time>2021-07-10T09:17:48</time>
      </trkpt>
      <trkpt lat="44.66276" lon="4.88544">
        <ele>360.4</ele>
        <time>2021-07-10T09:17:49</time>
      </trkpt>
      <trkpt lat="44.66279" lon="4.88544">
        <ele>360.4</ele>
        <time>2021-07-10T09:17:50</time>
      </trkpt>
      <trkpt lat="44.66286" lon="4.88544">
        <ele>360.4</ele>
        <time>2021-07-10T09:17:51</time>
      </trkpt>
      <trkpt lat="44.66286" lon="4.88544">
        <ele>360.4</ele>
        <time>2021-07-10T09:17:52</time>
      </trkpt>
      <trkpt lat="44.6629" lon="4.88544">
        <ele>360.6</ele>
        <time>2021-07-10T09:17:53</time>
      </trkpt>
      <trkpt lat="44.66294" lon="4.88544">
        <ele>360.6</ele>
        <time>2021-07-10T09:17:54</time>
      </trkpt>
      <trkpt lat="44.66297" lon="4.88545">
        <ele>360.6</ele>
        <time>2021-07-10T09:17:55</time>
      </trkpt>
      <trkpt lat="44.66306" lon="4.88544">
        <ele>360.8</ele>
        <time>2021-07-10T09:17:56</time>
      </trkpt>
      <trkpt lat="44.66306" lon="4.88544">
        <ele>360.8</ele>
        <time>2021-07-10T09:17:57</time>
      </trkpt>
      <trkpt lat="44.66311" lon="4.8854">
        <ele>360.6</ele>
        <time>2021-07-10T09:17:58</time>
      </trkpt>
      <trkpt lat="44.66316" lon="4.88538">
        <ele>360.6</ele>
        <time>2021-07-10T09:17:59</time>
      </trkpt>
      <trkpt lat="44.6632" lon="4.88538">
        <ele>360.4</ele>
        <time>2021-07-10T09:18:00</time>
      </trkpt>
      <trkpt lat="44.66327" lon="4.88533">
        <ele>360.4</ele>
        <time>2021-07-10T09:18:01</time>
      </trkpt>
      <trkpt lat="44.66327" lon="4.88533">
        <ele>360.6</ele>
        <time>2021-07-10T09:18:02</time>
      </trkpt>
      <trkpt lat="44.66332" lon="4.8853">
        <ele>360.6</ele>
        <time>2021-07-10T09:18:03</time>
      </trkpt>
      <trkpt lat="44.66338" lon="4.88529">
        <ele>360.6</ele>
        <time>2021-07-10T09:18:04</time>
      </trkpt>
      <trkpt lat="44.66344" lon="4.88529">
        <ele>360.4</ele>
        <time>2021-07-10T09:18:05</time>
      </trkpt>
      <trkpt lat="44.66355" lon="4.88524">
        <ele>360.4</ele>
        <time>2021-07-10T09:18:06</time>
      </trkpt>
      <trkpt lat="44.66355" lon="4.88524">
        <ele>360.4</ele>
        <time>2021-07-10T09:18:07</time>
      </trkpt>
      <trkpt lat="44.66359" lon="4.88523">
        <ele>360.4</ele>
        <time>2021-07-10T09:18:08</time>
      </trkpt>
      <trkpt lat="44.66363" lon="4.88521">
        <ele>360.6</ele>
        <time>2021-07-10T09:18:09</time>
      </trkpt>
      <trkpt lat="44.66366" lon="4.88521">
        <ele>360.8</ele>
        <time>2021-07-10T09:18:10</time>
      </trkpt>
      <trkpt lat="44.66374" lon="4.8852">
        <ele>360.8</ele>
        <time>2021-07-10T09:18:11</time>
      </trkpt>
      <trkpt lat="44.66374" lon="4.8852">
        <ele>360.8</ele>
        <time>2021-07-10T09:18:12</time>
      </trkpt>
      <trkpt lat="44.66378" lon="4.88521">
        <ele>360.8</ele>
        <time>2021-07-10T09:18:13</time>
      </trkpt>
      <trkpt lat="44.66383" lon="4.8852">
        <ele>361</ele>
        <time>2021-07-10T09:18:14</time>
      </trkpt>
      <trkpt lat="44.66385" lon="4.88519">
        <ele>361.2</ele>
        <time>2021-07-10T09:18:15</time>
      </trkpt>
      <trkpt lat="44.66393" lon="4.88517">
        <ele>361.4</ele>
        <time>2021-07-10T09:18:16</time>
      </trkpt>
      <trkpt lat="44.66393" lon="4.88517">
        <ele>361.6</ele>
        <time>2021-07-10T09:18:17</time>
      </trkpt>
      <trkpt lat="44.66403" lon="4.88515">
        <ele>361.8</ele>
        <time>2021-07-10T09:18:18</time>
      </trkpt>
      <trkpt lat="44.66403" lon="4.88515">
        <ele>361.8</ele>
        <time>2021-07-10T09:18:19</time>
      </trkpt>
      <trkpt lat="44.66407" lon="4.88515">
        <ele>361.8</ele>
        <time>2021-07-10T09:18:20</time>
      </trkpt>
      <trkpt lat="44.66414" lon="4.88518">
        <ele>361.8</ele>
        <time>2021-07-10T09:18:21</time>
      </trkpt>
      <trkpt lat="44.66414" lon="4.88518">
        <ele>361.8</ele>
        <time>2021-07-10T09:18:22</time>
      </trkpt>
      <trkpt lat="44.66419" lon="4.88519">
        <ele>362</ele>
        <time>2021-07-10T09:18:23</time>
      </trkpt>
      <trkpt lat="44.66423" lon="4.88521">
        <ele>362.2</ele>
        <time>2021-07-10T09:18:24</time>
      </trkpt>
      <trkpt lat="44.66432" lon="4.88528">
        <ele>362.4</ele>
        <time>2021-07-10T09:18:25</time>
      </trkpt>
      <trkpt lat="44.66432" lon="4.88528">
        <ele>362.4</ele>
        <time>2021-07-10T09:18:26</time>
      </trkpt>
      <trkpt lat="44.66436" lon="4.88532">
        <ele>362.4</ele>
        <time>2021-07-10T09:18:27</time>
      </trkpt>
      <trkpt lat="44.66438" lon="4.88538">
        <ele>362.4</ele>
        <time>2021-07-10T09:18:28</time>
      </trkpt>
      <trkpt lat="44.6644" lon="4.88545">
        <ele>362.4</ele>
        <time>2021-07-10T09:18:29</time>
      </trkpt>
      <trkpt lat="44.6644" lon="4.88558">
        <ele>362.4</ele>
        <time>2021-07-10T09:18:30</time>
      </trkpt>
      <trkpt lat="44.6644" lon="4.88558">
        <ele>362.6</ele>
        <time>2021-07-10T09:18:31</time>
      </trkpt>
      <trkpt lat="44.66438" lon="4.88565">
        <ele>362.6</ele>
        <time>2021-07-10T09:18:32</time>
      </trkpt>
      <trkpt lat="44.66438" lon="4.88565">
        <ele>362.6</ele>
        <time>2021-07-10T09:18:33</time>
      </trkpt>
      <trkpt lat="44.66434" lon="4.88576">
        <ele>362.6</ele>
        <time>2021-07-10T09:18:34</time>
      </trkpt>
      <trkpt lat="44.66429" lon="4.8859">
        <ele>362.6</ele>
        <time>2021-07-10T09:18:35</time>
      </trkpt>
      <trkpt lat="44.66429" lon="4.8859">
        <ele>362.6</ele>
        <time>2021-07-10T09:18:36</time>
      </trkpt>
      <trkpt lat="44.66427" lon="4.88598">
        <ele>362.6</ele>
        <time>2021-07-10T09:18:37</time>
      </trkpt>
      <trkpt lat="44.66425" lon="4.88605">
        <ele>362.6</ele>
        <time>2021-07-10T09:18:38</time>
      </trkpt>
      <trkpt lat="44.66422" lon="4.8862">
        <ele>362.4</ele>
        <time>2021-07-10T09:18:39</time>
      </trkpt>
      <trkpt lat="44.6642" lon="4.88626">
        <ele>362.4</ele>
        <time>2021-07-10T09:18:40</time>
      </trkpt>
      <trkpt lat="44.6642" lon="4.88626">
        <ele>362.4</ele>
        <time>2021-07-10T09:18:41</time>
      </trkpt>
      <trkpt lat="44.66416" lon="4.88633">
        <ele>362.4</ele>
        <time>2021-07-10T09:18:42</time>
      </trkpt>
      <trkpt lat="44.66412" lon="4.88649">
        <ele>362.4</ele>
        <time>2021-07-10T09:18:43</time>
      </trkpt>
      <trkpt lat="44.66412" lon="4.88649">
        <ele>362.4</ele>
        <time>2021-07-10T09:18:44</time>
      </trkpt>
      <trkpt lat="44.66407" lon="4.88663">
        <ele>362.4</ele>
        <time>2021-07-10T09:18:45</time>
      </trkpt>
      <trkpt lat="44.66407" lon="4.88663">
        <ele>362.4</ele>
        <time>2021-07-10T09:18:46</time>
      </trkpt>
      <trkpt lat="44.66405" lon="4.88672">
        <ele>362.4</ele>
        <time>2021-07-10T09:18:47</time>
      </trkpt>
      <trkpt lat="44.66402" lon="4.88678">
        <ele>362.4</ele>
        <time>2021-07-10T09:18:48</time>
      </trkpt>
      <trkpt lat="44.664" lon="4.88685">
        <ele>362.4</ele>
        <time>2021-07-10T09:18:49</time>
      </trkpt>
      <trkpt lat="44.66394" lon="4.88698">
        <ele>362.4</ele>
        <time>2021-07-10T09:18:50</time>
      </trkpt>
      <trkpt lat="44.66394" lon="4.88698">
        <ele>362.2</ele>
        <time>2021-07-10T09:18:51</time>
      </trkpt>
      <trkpt lat="44.6639" lon="4.88705">
        <ele>362.2</ele>
        <time>2021-07-10T09:18:52</time>
      </trkpt>
      <trkpt lat="44.66388" lon="4.88709">
        <ele>362.2</ele>
        <time>2021-07-10T09:18:53</time>
      </trkpt>
      <trkpt lat="44.66387" lon="4.88715">
        <ele>362.2</ele>
        <time>2021-07-10T09:18:54</time>
      </trkpt>
      <trkpt lat="44.66381" lon="4.88728">
        <ele>362.2</ele>
        <time>2021-07-10T09:18:55</time>
      </trkpt>
      <trkpt lat="44.66381" lon="4.88728">
        <ele>362.4</ele>
        <time>2021-07-10T09:18:56</time>
      </trkpt>
      <trkpt lat="44.66378" lon="4.88734">
        <ele>362.4</ele>
        <time>2021-07-10T09:18:57</time>
      </trkpt>
      <trkpt lat="44.66376" lon="4.8874">
        <ele>362.4</ele>
        <time>2021-07-10T09:18:58</time>
      </trkpt>
      <trkpt lat="44.66369" lon="4.8875">
        <ele>362.4</ele>
        <time>2021-07-10T09:18:59</time>
      </trkpt>
      <trkpt lat="44.66366" lon="4.88756">
        <ele>362.4</ele>
        <time>2021-07-10T09:19:00</time>
      </trkpt>
      <trkpt lat="44.66366" lon="4.88756">
        <ele>362.2</ele>
        <time>2021-07-10T09:19:01</time>
      </trkpt>
      <trkpt lat="44.66364" lon="4.88762">
        <ele>362.2</ele>
        <time>2021-07-10T09:19:02</time>
      </trkpt>
      <trkpt lat="44.66362" lon="4.8877">
        <ele>362.2</ele>
        <time>2021-07-10T09:19:03</time>
      </trkpt>
      <trkpt lat="44.66362" lon="4.88778">
        <ele>362.2</ele>
        <time>2021-07-10T09:19:04</time>
      </trkpt>
      <trkpt lat="44.66363" lon="4.88792">
        <ele>362.2</ele>
        <time>2021-07-10T09:19:05</time>
      </trkpt>
      <trkpt lat="44.66363" lon="4.88792">
        <ele>362.2</ele>
        <time>2021-07-10T09:19:06</time>
      </trkpt>
      <trkpt lat="44.66365" lon="4.88798">
        <ele>362.2</ele>
        <time>2021-07-10T09:19:07</time>
      </trkpt>
      <trkpt lat="44.66366" lon="4.88801">
        <ele>362.2</ele>
        <time>2021-07-10T09:19:08</time>
      </trkpt>
      <trkpt lat="44.66369" lon="4.88807">
        <ele>362</ele>
        <time>2021-07-10T09:19:09</time>
      </trkpt>
      <trkpt lat="44.6637" lon="4.88809">
        <ele>361.8</ele>
        <time>2021-07-10T09:19:10</time>
      </trkpt>
      <trkpt lat="44.6637" lon="4.88809">
        <ele>361.6</ele>
        <time>2021-07-10T09:19:11</time>
      </trkpt>
      <trkpt lat="44.66374" lon="4.8881">
        <ele>361.4</ele>
        <time>2021-07-10T09:19:12</time>
      </trkpt>
      <trkpt lat="44.66375" lon="4.8881">
        <ele>361.4</ele>
        <time>2021-07-10T09:19:13</time>
      </trkpt>
      <trkpt lat="44.66373" lon="4.88809">
        <ele>361.4</ele>
        <time>2021-07-10T09:19:14</time>
      </trkpt>
      <trkpt lat="44.66373" lon="4.88811">
        <ele>361.4</ele>
        <time>2021-07-10T09:19:15</time>
      </trkpt>
      <trkpt lat="44.66373" lon="4.88811">
        <ele>361.4</ele>
        <time>2021-07-10T09:19:16</time>
      </trkpt>
      <trkpt lat="44.66374" lon="4.88813">
        <ele>361.4</ele>
        <time>2021-07-10T09:19:17</time>
      </trkpt>
      <trkpt lat="44.66374" lon="4.88814">
        <ele>361.4</ele>
        <time>2021-07-10T09:19:18</time>
      </trkpt>
      <trkpt lat="44.66374" lon="4.88813">
        <ele>361.4</ele>
        <time>2021-07-10T09:19:19</time>
      </trkpt>
      <trkpt lat="44.66377" lon="4.88811">
        <ele>361.4</ele>
        <time>2021-07-10T09:19:20</time>
      </trkpt>
      <trkpt lat="44.66377" lon="4.88811">
        <ele>361.4</ele>
        <time>2021-07-10T09:19:21</time>
      </trkpt>
      <trkpt lat="44.66378" lon="4.88811">
        <ele>361.4</ele>
        <time>2021-07-10T09:19:22</time>
      </trkpt>
      <trkpt lat="44.66379" lon="4.88811">
        <ele>361.4</ele>
        <time>2021-07-10T09:19:23</time>
      </trkpt>
      <trkpt lat="44.66402" lon="4.88818">
        <ele>361.4</ele>
        <time>2021-07-10T09:24:41</time>
      </trkpt>
      <trkpt lat="44.66402" lon="4.88819">
        <ele>361.4</ele>
        <time>2021-07-10T09:24:42</time>
      </trkpt>
      <trkpt lat="44.66406" lon="4.88819">
        <ele>361.2</ele>
        <time>2021-07-10T09:24:43</time>
      </trkpt>
      <trkpt lat="44.66406" lon="4.88819">
        <ele>361</ele>
        <time>2021-07-10T09:24:44</time>
      </trkpt>
      <trkpt lat="44.66408" lon="4.88821">
        <ele>361</ele>
        <time>2021-07-10T09:24:45</time>
      </trkpt>
      <trkpt lat="44.66411" lon="4.88821">
        <ele>361</ele>
        <time>2021-07-10T09:24:46</time>
      </trkpt>
      <trkpt lat="44.66414" lon="4.8882">
        <ele>361</ele>
        <time>2021-07-10T09:24:47</time>
      </trkpt>
      <trkpt lat="44.66415" lon="4.88821">
        <ele>361.2</ele>
        <time>2021-07-10T09:24:48</time>
      </trkpt>
      <trkpt lat="44.6642" lon="4.88823">
        <ele>361.2</ele>
        <time>2021-07-10T09:24:49</time>
      </trkpt>
      <trkpt lat="44.66423" lon="4.88822">
        <ele>361</ele>
        <time>2021-07-10T09:24:50</time>
      </trkpt>
      <trkpt lat="44.66423" lon="4.88822">
        <ele>361</ele>
        <time>2021-07-10T09:24:51</time>
      </trkpt>
      <trkpt lat="44.66428" lon="4.88823">
        <ele>361.2</ele>
        <time>2021-07-10T09:24:52</time>
      </trkpt>
      <trkpt lat="44.66432" lon="4.88824">
        <ele>361.2</ele>
        <time>2021-07-10T09:24:53</time>
      </trkpt>
      <trkpt lat="44.66436" lon="4.88826">
        <ele>361.4</ele>
        <time>2021-07-10T09:24:54</time>
      </trkpt>
      <trkpt lat="44.66442" lon="4.88828">
        <ele>361.4</ele>
        <time>2021-07-10T09:24:55</time>
      </trkpt>
      <trkpt lat="44.66442" lon="4.88828">
        <ele>361.6</ele>
        <time>2021-07-10T09:24:56</time>
      </trkpt>
      <trkpt lat="44.6645" lon="4.88827">
        <ele>361.8</ele>
        <time>2021-07-10T09:24:57</time>
      </trkpt>
      <trkpt lat="44.6645" lon="4.88827">
        <ele>361.8</ele>
        <time>2021-07-10T09:24:58</time>
      </trkpt>
      <trkpt lat="44.66455" lon="4.88828">
        <ele>362</ele>
        <time>2021-07-10T09:24:59</time>
      </trkpt>
      <trkpt lat="44.6646" lon="4.88829">
        <ele>362</ele>
        <time>2021-07-10T09:25:00</time>
      </trkpt>
      <trkpt lat="44.66463" lon="4.8883">
        <ele>362</ele>
        <time>2021-07-10T09:25:01</time>
      </trkpt>
      <trkpt lat="44.66468" lon="4.88829">
        <ele>362</ele>
        <time>2021-07-10T09:25:02</time>
      </trkpt>
      <trkpt lat="44.6647" lon="4.88831">
        <ele>362</ele>
        <time>2021-07-10T09:25:03</time>
      </trkpt>
      <trkpt lat="44.66475" lon="4.88831">
        <ele>361.8</ele>
        <time>2021-07-10T09:25:04</time>
      </trkpt>
      <trkpt lat="44.66477" lon="4.88834">
        <ele>361.8</ele>
        <time>2021-07-10T09:25:05</time>
      </trkpt>
      <trkpt lat="44.66479" lon="4.88834">
        <ele>361.8</ele>
        <time>2021-07-10T09:25:06</time>
      </trkpt>
      <trkpt lat="44.66482" lon="4.88834">
        <ele>361.8</ele>
        <time>2021-07-10T09:25:07</time>
      </trkpt>
      <trkpt lat="44.66482" lon="4.88834">
        <ele>361.8</ele>
        <time>2021-07-10T09:25:08</time>
      </trkpt>
      <trkpt lat="44.66489" lon="4.88838">
        <ele>361.8</ele>
        <time>2021-07-10T09:25:09</time>
      </trkpt>
      <trkpt lat="44.66493" lon="4.88838">
        <ele>361.8</ele>
        <time>2021-07-10T09:25:10</time>
      </trkpt>
      <trkpt lat="44.66497" lon="4.8884">
        <ele>361.8</ele>
        <time>2021-07-10T09:25:11</time>
      </trkpt>
      <trkpt lat="44.66501" lon="4.88836">
        <ele>361.8</ele>
        <time>2021-07-10T09:25:12</time>
      </trkpt>
      <trkpt lat="44.66506" lon="4.88841">
        <ele>361.8</ele>
        <time>2021-07-10T09:25:13</time>
      </trkpt>
      <trkpt lat="44.66506" lon="4.88841">
        <ele>362</ele>
        <time>2021-07-10T09:25:14</time>
      </trkpt>
      <trkpt lat="44.66509" lon="4.88849">
        <ele>362</ele>
        <time>2021-07-10T09:25:15</time>
      </trkpt>
      <trkpt lat="44.66509" lon="4.88855">
        <ele>362</ele>
        <time>2021-07-10T09:25:16</time>
      </trkpt>
      <trkpt lat="44.66508" lon="4.8886">
        <ele>362</ele>
        <time>2021-07-10T09:25:17</time>
      </trkpt>
      <trkpt lat="44.66505" lon="4.88865">
        <ele>362</ele>
        <time>2021-07-10T09:25:18</time>
      </trkpt>
      <trkpt lat="44.66501" lon="4.88868">
        <ele>362.2</ele>
        <time>2021-07-10T09:25:19</time>
      </trkpt>
      <trkpt lat="44.66497" lon="4.88875">
        <ele>362.2</ele>
        <time>2021-07-10T09:25:20</time>
      </trkpt>
      <trkpt lat="44.66497" lon="4.88875">
        <ele>362.4</ele>
        <time>2021-07-10T09:25:21</time>
      </trkpt>
      <trkpt lat="44.66494" lon="4.88877">
        <ele>362.4</ele>
        <time>2021-07-10T09:25:22</time>
      </trkpt>
      <trkpt lat="44.66489" lon="4.88881">
        <ele>362.6</ele>
        <time>2021-07-10T09:25:23</time>
      </trkpt>
      <trkpt lat="44.66486" lon="4.88884">
        <ele>362.6</ele>
        <time>2021-07-10T09:25:24</time>
      </trkpt>
      <trkpt lat="44.66483" lon="4.88887">
        <ele>362.6</ele>
        <time>2021-07-10T09:25:25</time>
      </trkpt>
      <trkpt lat="44.66475" lon="4.88892">
        <ele>362.6</ele>
        <time>2021-07-10T09:25:26</time>
      </trkpt>
      <trkpt lat="44.66475" lon="4.88892">
        <ele>362.6</ele>
        <time>2021-07-10T09:25:27</time>
      </trkpt>
      <trkpt lat="44.66471" lon="4.88895">
        <ele>362.6</ele>
        <time>2021-07-10T09:25:28</time>
      </trkpt>
      <trkpt lat="44.66468" lon="4.889">
        <ele>362.6</ele>
        <time>2021-07-10T09:25:29</time>
      </trkpt>
      <trkpt lat="44.66463" lon="4.88901">
        <ele>362.6</ele>
        <time>2021-07-10T09:25:30</time>
      </trkpt>
      <trkpt lat="44.66459" lon="4.88905">
        <ele>362.6</ele>
        <time>2021-07-10T09:25:31</time>
      </trkpt>
      <trkpt lat="44.66457" lon="4.8891">
        <ele>362.6</ele>
        <time>2021-07-10T09:25:32</time>
      </trkpt>
      <trkpt lat="44.66451" lon="4.88915">
        <ele>362.6</ele>
        <time>2021-07-10T09:25:33</time>
      </trkpt>
      <trkpt lat="44.66451" lon="4.88915">
        <ele>362.6</ele>
        <time>2021-07-10T09:25:34</time>
      </trkpt>
      <trkpt lat="44.66445" lon="4.88925">
        <ele>362.6</ele>
        <time>2021-07-10T09:25:35</time>
      </trkpt>
      <trkpt lat="44.66443" lon="4.88926">
        <ele>362.6</ele>
        <time>2021-07-10T09:25:36</time>
      </trkpt>
      <trkpt lat="44.6644" lon="4.8893">
        <ele>362.6</ele>
        <time>2021-07-10T09:25:37</time>
      </trkpt>
      <trkpt lat="44.6644" lon="4.8893">
        <ele>362.6</ele>
        <time>2021-07-10T09:25:38</time>
      </trkpt>
      <trkpt lat="44.66435" lon="4.88945">
        <ele>362.6</ele>
        <time>2021-07-10T09:25:39</time>
      </trkpt>
      <trkpt lat="44.66435" lon="4.88945">
        <ele>362.6</ele>
        <time>2021-07-10T09:25:40</time>
      </trkpt>
      <trkpt lat="44.66431" lon="4.8895">
        <ele>362.4</ele>
        <time>2021-07-10T09:25:41</time>
      </trkpt>
      <trkpt lat="44.66426" lon="4.88953">
        <ele>362.4</ele>
        <time>2021-07-10T09:25:42</time>
      </trkpt>
      <trkpt lat="44.6642" lon="4.88961">
        <ele>362.4</ele>
        <time>2021-07-10T09:25:43</time>
      </trkpt>
      <trkpt lat="44.6642" lon="4.88961">
        <ele>362.4</ele>
        <time>2021-07-10T09:25:44</time>
      </trkpt>
      <trkpt lat="44.66416" lon="4.88966">
        <ele>362.4</ele>
        <time>2021-07-10T09:25:45</time>
      </trkpt>
      <trkpt lat="44.66413" lon="4.8897">
        <ele>362.4</ele>
        <time>2021-07-10T09:25:46</time>
      </trkpt>
      <trkpt lat="44.66411" lon="4.88977">
        <ele>362.6</ele>
        <time>2021-07-10T09:25:47</time>
      </trkpt>
      <trkpt lat="44.66411" lon="4.88977">
        <ele>362.6</ele>
        <time>2021-07-10T09:25:48</time>
      </trkpt>
      <trkpt lat="44.66408" lon="4.88988">
        <ele>362.6</ele>
        <time>2021-07-10T09:25:49</time>
      </trkpt>
      <trkpt lat="44.66408" lon="4.88988">
        <ele>362.6</ele>
        <time>2021-07-10T09:25:50</time>
      </trkpt>
      <trkpt lat="44.66412" lon="4.89">
        <ele>362.4</ele>
        <time>2021-07-10T09:25:51</time>
      </trkpt>
      <trkpt lat="44.66414" lon="4.89003">
        <ele>362.4</ele>
        <time>2021-07-10T09:25:52</time>
      </trkpt>
      <trkpt lat="44.66417" lon="4.89007">
        <ele>362.4</ele>
        <time>2021-07-10T09:25:53</time>
      </trkpt>
      <trkpt lat="44.66422" lon="4.89009">
        <ele>362.2</ele>
        <time>2021-07-10T09:25:54</time>
      </trkpt>
      <trkpt lat="44.66427" lon="4.89012">
        <ele>362.2</ele>
        <time>2021-07-10T09:25:55</time>
      </trkpt>
      <trkpt lat="44.66435" lon="4.89015">
        <ele>362.2</ele>
        <time>2021-07-10T09:25:56</time>
      </trkpt>
      <trkpt lat="44.66435" lon="4.89015">
        <ele>362.2</ele>
        <time>2021-07-10T09:25:57</time>
      </trkpt>
      <trkpt lat="44.66438" lon="4.89015">
        <ele>362.2</ele>
        <time>2021-07-10T09:25:58</time>
      </trkpt>
      <trkpt lat="44.66443" lon="4.89015">
        <ele>362.2</ele>
        <time>2021-07-10T09:25:59</time>
      </trkpt>
      <trkpt lat="44.66445" lon="4.89013">
        <ele>362</ele>
        <time>2021-07-10T09:26:00</time>
      </trkpt>
      <trkpt lat="44.66455" lon="4.8901">
        <ele>362</ele>
        <time>2021-07-10T09:26:01</time>
      </trkpt>
      <trkpt lat="44.66455" lon="4.8901">
        <ele>361.8</ele>
        <time>2021-07-10T09:26:02</time>
      </trkpt>
      <trkpt lat="44.6646" lon="4.89011">
        <ele>361.8</ele>
        <time>2021-07-10T09:26:03</time>
      </trkpt>
      <trkpt lat="44.66466" lon="4.89013">
        <ele>361.8</ele>
        <time>2021-07-10T09:26:04</time>
      </trkpt>
      <trkpt lat="44.66471" lon="4.89009">
        <ele>361.8</ele>
        <time>2021-07-10T09:26:05</time>
      </trkpt>
      <trkpt lat="44.66475" lon="4.8901">
        <ele>361.8</ele>
        <time>2021-07-10T09:26:06</time>
      </trkpt>
      <trkpt lat="44.66481" lon="4.8901">
        <ele>361.8</ele>
        <time>2021-07-10T09:26:07</time>
      </trkpt>
      <trkpt lat="44.66484" lon="4.8901">
        <ele>361.8</ele>
        <time>2021-07-10T09:26:08</time>
      </trkpt>
      <trkpt lat="44.66487" lon="4.89012">
        <ele>361.8</ele>
        <time>2021-07-10T09:26:09</time>
      </trkpt>
      <trkpt lat="44.66491" lon="4.89013">
        <ele>361.8</ele>
        <time>2021-07-10T09:26:10</time>
      </trkpt>
      <trkpt lat="44.66495" lon="4.89007">
        <ele>361.8</ele>
        <time>2021-07-10T09:26:11</time>
      </trkpt>
      <trkpt lat="44.66499" lon="4.89007">
        <ele>362</ele>
        <time>2021-07-10T09:26:12</time>
      </trkpt>
      <trkpt lat="44.66499" lon="4.89007">
        <ele>362.2</ele>
        <time>2021-07-10T09:26:13</time>
      </trkpt>
      <trkpt lat="44.66511" lon="4.89006">
        <ele>362.2</ele>
        <time>2021-07-10T09:26:14</time>
      </trkpt>
      <trkpt lat="44.66513" lon="4.89007">
        <ele>362.2</ele>
        <time>2021-07-10T09:26:15</time>
      </trkpt>
      <trkpt lat="44.66519" lon="4.89004">
        <ele>362.4</ele>
        <time>2021-07-10T09:26:16</time>
      </trkpt>
      <trkpt lat="44.66521" lon="4.89005">
        <ele>362.4</ele>
        <time>2021-07-10T09:26:17</time>
      </trkpt>
      <trkpt lat="44.66521" lon="4.89005">
        <ele>362.6</ele>
        <time>2021-07-10T09:26:18</time>
      </trkpt>
      <trkpt lat="44.66532" lon="4.89005">
        <ele>362.6</ele>
        <time>2021-07-10T09:26:19</time>
      </trkpt>
      <trkpt lat="44.66536" lon="4.89004">
        <ele>362.4</ele>
        <time>2021-07-10T09:26:20</time>
      </trkpt>
      <trkpt lat="44.66536" lon="4.89004">
        <ele>362.2</ele>
        <time>2021-07-10T09:26:21</time>
      </trkpt>
      <trkpt lat="44.66544" lon="4.88999">
        <ele>362.2</ele>
        <time>2021-07-10T09:26:22</time>
      </trkpt>
      <trkpt lat="44.6655" lon="4.88997">
        <ele>362.2</ele>
        <time>2021-07-10T09:26:23</time>
      </trkpt>
      <trkpt lat="44.66551" lon="4.88997">
        <ele>362.2</ele>
        <time>2021-07-10T09:26:24</time>
      </trkpt>
      <trkpt lat="44.66556" lon="4.88997">
        <ele>362.4</ele>
        <time>2021-07-10T09:26:25</time>
      </trkpt>
      <trkpt lat="44.6656" lon="4.88995">
        <ele>362.4</ele>
        <time>2021-07-10T09:26:26</time>
      </trkpt>
      <trkpt lat="44.66566" lon="4.88996">
        <ele>362.8</ele>
        <time>2021-07-10T09:26:27</time>
      </trkpt>
      <trkpt lat="44.66566" lon="4.88996">
        <ele>362.8</ele>
        <time>2021-07-10T09:26:28</time>
      </trkpt>
      <trkpt lat="44.66573" lon="4.88999">
        <ele>363</ele>
        <time>2021-07-10T09:26:29</time>
      </trkpt>
      <trkpt lat="44.66578" lon="4.88998">
        <ele>363.2</ele>
        <time>2021-07-10T09:26:30</time>
      </trkpt>
      <trkpt lat="44.66582" lon="4.88996">
        <ele>363.2</ele>
        <time>2021-07-10T09:26:31</time>
      </trkpt>
      <trkpt lat="44.66585" lon="4.88993">
        <ele>363</ele>
        <time>2021-07-10T09:26:32</time>
      </trkpt>
      <trkpt lat="44.66591" lon="4.88989">
        <ele>362.8</ele>
        <time>2021-07-10T09:26:33</time>
      </trkpt>
      <trkpt lat="44.66596" lon="4.88987">
        <ele>362.8</ele>
        <time>2021-07-10T09:26:34</time>
      </trkpt>
      <trkpt lat="44.66602" lon="4.88989">
        <ele>362.8</ele>
        <time>2021-07-10T09:26:35</time>
      </trkpt>
      <trkpt lat="44.66608" lon="4.88992">
        <ele>363</ele>
        <time>2021-07-10T09:26:36</time>
      </trkpt>
      <trkpt lat="44.6661" lon="4.88996">
        <ele>363</ele>
        <time>2021-07-10T09:26:37</time>
      </trkpt>
      <trkpt lat="44.6661" lon="4.89007">
        <ele>363.2</ele>
        <time>2021-07-10T09:26:38</time>
      </trkpt>
      <trkpt lat="44.6661" lon="4.89007">
        <ele>363.4</ele>
        <time>2021-07-10T09:26:39</time>
      </trkpt>
      <trkpt lat="44.66609" lon="4.89009">
        <ele>363.6</ele>
        <time>2021-07-10T09:26:40</time>
      </trkpt>
      <trkpt lat="44.66606" lon="4.89013">
        <ele>363.6</ele>
        <time>2021-07-10T09:26:41</time>
      </trkpt>
      <trkpt lat="44.66603" lon="4.89017">
        <ele>363.6</ele>
        <time>2021-07-10T09:26:42</time>
      </trkpt>
      <trkpt lat="44.66601" lon="4.89022">
        <ele>363.6</ele>
        <time>2021-07-10T09:26:43</time>
      </trkpt>
      <trkpt lat="44.666" lon="4.89026">
        <ele>363.6</ele>
        <time>2021-07-10T09:26:44</time>
      </trkpt>
      <trkpt lat="44.66595" lon="4.89032">
        <ele>363.6</ele>
        <time>2021-07-10T09:26:45</time>
      </trkpt>
      <trkpt lat="44.66593" lon="4.89037">
        <ele>363.4</ele>
        <time>2021-07-10T09:26:46</time>
      </trkpt>
      <trkpt lat="44.66588" lon="4.89041">
        <ele>363.4</ele>
        <time>2021-07-10T09:26:47</time>
      </trkpt>
      <trkpt lat="44.66584" lon="4.89046">
        <ele>363.4</ele>
        <time>2021-07-10T09:26:48</time>
      </trkpt>
      <trkpt lat="44.6658" lon="4.8905">
        <ele>363.4</ele>
        <time>2021-07-10T09:26:49</time>
      </trkpt>
      <trkpt lat="44.66578" lon="4.89053">
        <ele>363.4</ele>
        <time>2021-07-10T09:26:50</time>
      </trkpt>
      <trkpt lat="44.66573" lon="4.89059">
        <ele>363.4</ele>
        <time>2021-07-10T09:26:51</time>
      </trkpt>
      <trkpt lat="44.66571" lon="4.89067">
        <ele>363.4</ele>
        <time>2021-07-10T09:26:52</time>
      </trkpt>
      <trkpt lat="44.66569" lon="4.89073">
        <ele>363.2</ele>
        <time>2021-07-10T09:26:53</time>
      </trkpt>
      <trkpt lat="44.66569" lon="4.89073">
        <ele>363.2</ele>
        <time>2021-07-10T09:26:54</time>
      </trkpt>
      <trkpt lat="44.66565" lon="4.89087">
        <ele>363.2</ele>
        <time>2021-07-10T09:26:55</time>
      </trkpt>
      <trkpt lat="44.66563" lon="4.89094">
        <ele>363.2</ele>
        <time>2021-07-10T09:26:56</time>
      </trkpt>
      <trkpt lat="44.66557" lon="4.89106">
        <ele>363.2</ele>
        <time>2021-07-10T09:26:57</time>
      </trkpt>
      <trkpt lat="44.66557" lon="4.89106">
        <ele>363.2</ele>
        <time>2021-07-10T09:26:58</time>
      </trkpt>
      <trkpt lat="44.66557" lon="4.89112">
        <ele>363.2</ele>
        <time>2021-07-10T09:26:59</time>
      </trkpt>
      <trkpt lat="44.66556" lon="4.89119">
        <ele>363.2</ele>
        <time>2021-07-10T09:27:00</time>
      </trkpt>
      <trkpt lat="44.66556" lon="4.89127">
        <ele>363.2</ele>
        <time>2021-07-10T09:27:01</time>
      </trkpt>
      <trkpt lat="44.66554" lon="4.89133">
        <ele>363.2</ele>
        <time>2021-07-10T09:27:02</time>
      </trkpt>
      <trkpt lat="44.66554" lon="4.89141">
        <ele>363.2</ele>
        <time>2021-07-10T09:27:03</time>
      </trkpt>
      <trkpt lat="44.66554" lon="4.89148">
        <ele>363</ele>
        <time>2021-07-10T09:27:04</time>
      </trkpt>
      <trkpt lat="44.66555" lon="4.89155">
        <ele>363</ele>
        <time>2021-07-10T09:27:05</time>
      </trkpt>
      <trkpt lat="44.66557" lon="4.89163">
        <ele>363</ele>
        <time>2021-07-10T09:27:06</time>
      </trkpt>
      <trkpt lat="44.66559" lon="4.89167">
        <ele>363</ele>
        <time>2021-07-10T09:27:07</time>
      </trkpt>
      <trkpt lat="44.66561" lon="4.8917">
        <ele>363</ele>
        <time>2021-07-10T09:27:08</time>
      </trkpt>
      <trkpt lat="44.66565" lon="4.89173">
        <ele>363</ele>
        <time>2021-07-10T09:27:09</time>
      </trkpt>
      <trkpt lat="44.66568" lon="4.89176">
        <ele>363.2</ele>
        <time>2021-07-10T09:27:10</time>
      </trkpt>
      <trkpt lat="44.66573" lon="4.89179">
        <ele>363.2</ele>
        <time>2021-07-10T09:27:11</time>
      </trkpt>
      <trkpt lat="44.66574" lon="4.89185">
        <ele>363.4</ele>
        <time>2021-07-10T09:27:12</time>
      </trkpt>
      <trkpt lat="44.66578" lon="4.89187">
        <ele>363.4</ele>
        <time>2021-07-10T09:27:13</time>
      </trkpt>
      <trkpt lat="44.66581" lon="4.89188">
        <ele>363.6</ele>
        <time>2021-07-10T09:27:14</time>
      </trkpt>
      <trkpt lat="44.66589" lon="4.89193">
        <ele>363.6</ele>
        <time>2021-07-10T09:27:15</time>
      </trkpt>
      <trkpt lat="44.66589" lon="4.89193">
        <ele>363.6</ele>
        <time>2021-07-10T09:27:16</time>
      </trkpt>
      <trkpt lat="44.66595" lon="4.89194">
        <ele>363.8</ele>
        <time>2021-07-10T09:27:17</time>
      </trkpt>
      <trkpt lat="44.66601" lon="4.89195">
        <ele>364</ele>
        <time>2021-07-10T09:27:18</time>
      </trkpt>
      <trkpt lat="44.66603" lon="4.89195">
        <ele>364</ele>
        <time>2021-07-10T09:27:19</time>
      </trkpt>
      <trkpt lat="44.66606" lon="4.89197">
        <ele>364</ele>
        <time>2021-07-10T09:27:20</time>
      </trkpt>
      <trkpt lat="44.66608" lon="4.89197">
        <ele>364.2</ele>
        <time>2021-07-10T09:27:21</time>
      </trkpt>
      <trkpt lat="44.6661" lon="4.89199">
        <ele>364.2</ele>
        <time>2021-07-10T09:27:22</time>
      </trkpt>
      <trkpt lat="44.66612" lon="4.89204">
        <ele>364.2</ele>
        <time>2021-07-10T09:27:23</time>
      </trkpt>
      <trkpt lat="44.66611" lon="4.89208">
        <ele>364.2</ele>
        <time>2021-07-10T09:27:24</time>
      </trkpt>
      <trkpt lat="44.66612" lon="4.89215">
        <ele>364.2</ele>
        <time>2021-07-10T09:27:25</time>
      </trkpt>
      <trkpt lat="44.66612" lon="4.89221">
        <ele>364.2</ele>
        <time>2021-07-10T09:27:26</time>
      </trkpt>
      <trkpt lat="44.66616" lon="4.89227">
        <ele>364</ele>
        <time>2021-07-10T09:27:27</time>
      </trkpt>
      <trkpt lat="44.66616" lon="4.89227">
        <ele>363.8</ele>
        <time>2021-07-10T09:27:28</time>
      </trkpt>
      <trkpt lat="44.66618" lon="4.8923">
        <ele>363.6</ele>
        <time>2021-07-10T09:27:29</time>
      </trkpt>
      <trkpt lat="44.6662" lon="4.89235">
        <ele>363.4</ele>
        <time>2021-07-10T09:27:30</time>
      </trkpt>
      <trkpt lat="44.66625" lon="4.8924">
        <ele>363.4</ele>
        <time>2021-07-10T09:27:31</time>
      </trkpt>
      <trkpt lat="44.66625" lon="4.8924">
        <ele>363.4</ele>
        <time>2021-07-10T09:27:32</time>
      </trkpt>
      <trkpt lat="44.66627" lon="4.89242">
        <ele>363.4</ele>
        <time>2021-07-10T09:27:33</time>
      </trkpt>
      <trkpt lat="44.66633" lon="4.89241">
        <ele>363.4</ele>
        <time>2021-07-10T09:27:34</time>
      </trkpt>
      <trkpt lat="44.66637" lon="4.89243">
        <ele>363.4</ele>
        <time>2021-07-10T09:27:35</time>
      </trkpt>
      <trkpt lat="44.66638" lon="4.89243">
        <ele>363.6</ele>
        <time>2021-07-10T09:27:36</time>
      </trkpt>
      <trkpt lat="44.66639" lon="4.89244">
        <ele>363.6</ele>
        <time>2021-07-10T09:27:37</time>
      </trkpt>
      <trkpt lat="44.66641" lon="4.89241">
        <ele>364</ele>
        <time>2021-07-10T09:27:38</time>
      </trkpt>
      <trkpt lat="44.66642" lon="4.89244">
        <ele>364.2</ele>
        <time>2021-07-10T09:27:39</time>
      </trkpt>
      <trkpt lat="44.66642" lon="4.89243">
        <ele>364.4</ele>
        <time>2021-07-10T09:27:40</time>
      </trkpt>
      <trkpt lat="44.66646" lon="4.89241">
        <ele>364.4</ele>
        <time>2021-07-10T09:27:41</time>
      </trkpt>
      <trkpt lat="44.66646" lon="4.89238">
        <ele>364.6</ele>
        <time>2021-07-10T09:27:42</time>
      </trkpt>
      <trkpt lat="44.66649" lon="4.89237">
        <ele>364.8</ele>
        <time>2021-07-10T09:27:43</time>
      </trkpt>
      <trkpt lat="44.66652" lon="4.89238">
        <ele>364.8</ele>
        <time>2021-07-10T09:27:44</time>
      </trkpt>
      <trkpt lat="44.66656" lon="4.89239">
        <ele>365</ele>
        <time>2021-07-10T09:27:45</time>
      </trkpt>
      <trkpt lat="44.66659" lon="4.89235">
        <ele>365</ele>
        <time>2021-07-10T09:27:46</time>
      </trkpt>
      <trkpt lat="44.66661" lon="4.89235">
        <ele>365</ele>
        <time>2021-07-10T09:27:47</time>
      </trkpt>
      <trkpt lat="44.66663" lon="4.89236">
        <ele>365</ele>
        <time>2021-07-10T09:27:48</time>
      </trkpt>
      <trkpt lat="44.66666" lon="4.89239">
        <ele>365</ele>
        <time>2021-07-10T09:27:49</time>
      </trkpt>
      <trkpt lat="44.66668" lon="4.8924">
        <ele>365</ele>
        <time>2021-07-10T09:27:50</time>
      </trkpt>
      <trkpt lat="44.66671" lon="4.89239">
        <ele>365</ele>
        <time>2021-07-10T09:27:51</time>
      </trkpt>
      <trkpt lat="44.66672" lon="4.89238">
        <ele>365.2</ele>
        <time>2021-07-10T09:27:52</time>
      </trkpt>
      <trkpt lat="44.66672" lon="4.8924">
        <ele>365.4</ele>
        <time>2021-07-10T09:27:53</time>
      </trkpt>
      <trkpt lat="44.66673" lon="4.89238">
        <ele>365.6</ele>
        <time>2021-07-10T09:27:54</time>
      </trkpt>
      <trkpt lat="44.66677" lon="4.89236">
        <ele>365.8</ele>
        <time>2021-07-10T09:27:55</time>
      </trkpt>
      <trkpt lat="44.66679" lon="4.89237">
        <ele>366</ele>
        <time>2021-07-10T09:27:56</time>
      </trkpt>
      <trkpt lat="44.66683" lon="4.89238">
        <ele>366</ele>
        <time>2021-07-10T09:27:57</time>
      </trkpt>
      <trkpt lat="44.66683" lon="4.89238">
        <ele>366.2</ele>
        <time>2021-07-10T09:27:58</time>
      </trkpt>
      <trkpt lat="44.66688" lon="4.89235">
        <ele>366.2</ele>
        <time>2021-07-10T09:27:59</time>
      </trkpt>
      <trkpt lat="44.66692" lon="4.89233">
        <ele>366.4</ele>
        <time>2021-07-10T09:28:00</time>
      </trkpt>
      <trkpt lat="44.66692" lon="4.89233">
        <ele>366.6</ele>
        <time>2021-07-10T09:28:01</time>
      </trkpt>
      <trkpt lat="44.66694" lon="4.89234">
        <ele>366.8</ele>
        <time>2021-07-10T09:28:02</time>
      </trkpt>
      <trkpt lat="44.66695" lon="4.89233">
        <ele>367.2</ele>
        <time>2021-07-10T09:28:03</time>
      </trkpt>
      <trkpt lat="44.66697" lon="4.89232">
        <ele>367.6</ele>
        <time>2021-07-10T09:28:04</time>
      </trkpt>
      <trkpt lat="44.66699" lon="4.89232">
        <ele>367.8</ele>
        <time>2021-07-10T09:28:05</time>
      </trkpt>
      <trkpt lat="44.66698" lon="4.89231">
        <ele>367.8</ele>
        <time>2021-07-10T09:28:06</time>
      </trkpt>
      <trkpt lat="44.66698" lon="4.8923">
        <ele>367.8</ele>
        <time>2021-07-10T09:28:07</time>
      </trkpt>
      <trkpt lat="44.66699" lon="4.89232">
        <ele>368</ele>
        <time>2021-07-10T09:28:08</time>
      </trkpt>
      <trkpt lat="44.66701" lon="4.8923">
        <ele>368</ele>
        <time>2021-07-10T09:28:09</time>
      </trkpt>
      <trkpt lat="44.66702" lon="4.89231">
        <ele>368</ele>
        <time>2021-07-10T09:28:10</time>
      </trkpt>
      <trkpt lat="44.66705" lon="4.89229">
        <ele>368.2</ele>
        <time>2021-07-10T09:28:11</time>
      </trkpt>
      <trkpt lat="44.66707" lon="4.89229">
        <ele>368.2</ele>
        <time>2021-07-10T09:28:12</time>
      </trkpt>
      <trkpt lat="44.66709" lon="4.89228">
        <ele>368.4</ele>
        <time>2021-07-10T09:28:13</time>
      </trkpt>
      <trkpt lat="44.66713" lon="4.89232">
        <ele>368.6</ele>
        <time>2021-07-10T09:28:14</time>
      </trkpt>
      <trkpt lat="44.66713" lon="4.89232">
        <ele>369</ele>
        <time>2021-07-10T09:28:15</time>
      </trkpt>
      <trkpt lat="44.66715" lon="4.89236">
        <ele>369.2</ele>
        <time>2021-07-10T09:28:16</time>
      </trkpt>
      <trkpt lat="44.66718" lon="4.89237">
        <ele>369.4</ele>
        <time>2021-07-10T09:28:17</time>
      </trkpt>
      <trkpt lat="44.6672" lon="4.89236">
        <ele>369.6</ele>
        <time>2021-07-10T09:28:18</time>
      </trkpt>
      <trkpt lat="44.66723" lon="4.89239">
        <ele>369.6</ele>
        <time>2021-07-10T09:28:19</time>
      </trkpt>
      <trkpt lat="44.66726" lon="4.89237">
        <ele>369.6</ele>
        <time>2021-07-10T09:28:20</time>
      </trkpt>
      <trkpt lat="44.66728" lon="4.89237">
        <ele>369.6</ele>
        <time>2021-07-10T09:28:21</time>
      </trkpt>
      <trkpt lat="44.66731" lon="4.89235">
        <ele>369.6</ele>
        <time>2021-07-10T09:28:22</time>
      </trkpt>
      <trkpt lat="44.66733" lon="4.89233">
        <ele>369.6</ele>
        <time>2021-07-10T09:28:23</time>
      </trkpt>
      <trkpt lat="44.66733" lon="4.89237">
        <ele>369.6</ele>
        <time>2021-07-10T09:28:24</time>
      </trkpt>
      <trkpt lat="44.66735" lon="4.89237">
        <ele>369.8</ele>
        <time>2021-07-10T09:28:25</time>
      </trkpt>
      <trkpt lat="44.66735" lon="4.89237">
        <ele>370</ele>
        <time>2021-07-10T09:28:26</time>
      </trkpt>
      <trkpt lat="44.66742" lon="4.89235">
        <ele>370.2</ele>
        <time>2021-07-10T09:28:27</time>
      </trkpt>
      <trkpt lat="44.66744" lon="4.89236">
        <ele>370.4</ele>
        <time>2021-07-10T09:28:28</time>
      </trkpt>
      <trkpt lat="44.66745" lon="4.89236">
        <ele>370.4</ele>
        <time>2021-07-10T09:28:29</time>
      </trkpt>
      <trkpt lat="44.66746" lon="4.89237">
        <ele>370.6</ele>
        <time>2021-07-10T09:28:30</time>
      </trkpt>
      <trkpt lat="44.66747" lon="4.89239">
        <ele>370.6</ele>
        <time>2021-07-10T09:28:31</time>
      </trkpt>
      <trkpt lat="44.6675" lon="4.89237">
        <ele>370.6</ele>
        <time>2021-07-10T09:28:32</time>
      </trkpt>
      <trkpt lat="44.66751" lon="4.89237">
        <ele>370.6</ele>
        <time>2021-07-10T09:28:33</time>
      </trkpt>
      <trkpt lat="44.66752" lon="4.89236">
        <ele>370.8</ele>
        <time>2021-07-10T09:28:34</time>
      </trkpt>
      <trkpt lat="44.66756" lon="4.89234">
        <ele>370.8</ele>
        <time>2021-07-10T09:28:35</time>
      </trkpt>
      <trkpt lat="44.66762" lon="4.89235">
        <ele>370.8</ele>
        <time>2021-07-10T09:28:36</time>
      </trkpt>
      <trkpt lat="44.66763" lon="4.89235">
        <ele>371</ele>
        <time>2021-07-10T09:28:37</time>
      </trkpt>
      <trkpt lat="44.66765" lon="4.89236">
        <ele>371.2</ele>
        <time>2021-07-10T09:28:38</time>
      </trkpt>
      <trkpt lat="44.66765" lon="4.89237">
        <ele>371.2</ele>
        <time>2021-07-10T09:28:39</time>
      </trkpt>
      <trkpt lat="44.66768" lon="4.89235">
        <ele>371.2</ele>
        <time>2021-07-10T09:28:40</time>
      </trkpt>
      <trkpt lat="44.66768" lon="4.89235">
        <ele>371.4</ele>
        <time>2021-07-10T09:28:41</time>
      </trkpt>
      <trkpt lat="44.66772" lon="4.89234">
        <ele>371.6</ele>
        <time>2021-07-10T09:28:42</time>
      </trkpt>
      <trkpt lat="44.66772" lon="4.89235">
        <ele>371.8</ele>
        <time>2021-07-10T09:28:43</time>
      </trkpt>
      <trkpt lat="44.66774" lon="4.89237">
        <ele>372</ele>
        <time>2021-07-10T09:28:44</time>
      </trkpt>
      <trkpt lat="44.66774" lon="4.89237">
        <ele>372</ele>
        <time>2021-07-10T09:28:45</time>
      </trkpt>
      <trkpt lat="44.66779" lon="4.8924">
        <ele>372.4</ele>
        <time>2021-07-10T09:28:46</time>
      </trkpt>
      <trkpt lat="44.6678" lon="4.8924">
        <ele>372.6</ele>
        <time>2021-07-10T09:28:47</time>
      </trkpt>
      <trkpt lat="44.66782" lon="4.89242">
        <ele>372.8</ele>
        <time>2021-07-10T09:28:48</time>
      </trkpt>
      <trkpt lat="44.66784" lon="4.89243">
        <ele>372.8</ele>
        <time>2021-07-10T09:28:49</time>
      </trkpt>
      <trkpt lat="44.66787" lon="4.89244">
        <ele>373.2</ele>
        <time>2021-07-10T09:28:50</time>
      </trkpt>
      <trkpt lat="44.6679" lon="4.89243">
        <ele>373.4</ele>
        <time>2021-07-10T09:28:51</time>
      </trkpt>
      <trkpt lat="44.66792" lon="4.89245">
        <ele>373.8</ele>
        <time>2021-07-10T09:28:52</time>
      </trkpt>
      <trkpt lat="44.66792" lon="4.89245">
        <ele>374</ele>
        <time>2021-07-10T09:28:53</time>
      </trkpt>
      <trkpt lat="44.66791" lon="4.89247">
        <ele>374</ele>
        <time>2021-07-10T09:28:54</time>
      </trkpt>
      <trkpt lat="44.66793" lon="4.89247">
        <ele>374.2</ele>
        <time>2021-07-10T09:28:55</time>
      </trkpt>
      <trkpt lat="44.66797" lon="4.89246">
        <ele>374.2</ele>
        <time>2021-07-10T09:28:56</time>
      </trkpt>
      <trkpt lat="44.668" lon="4.89243">
        <ele>374.6</ele>
        <time>2021-07-10T09:28:57</time>
      </trkpt>
      <trkpt lat="44.66803" lon="4.8924">
        <ele>374.6</ele>
        <time>2021-07-10T09:28:58</time>
      </trkpt>
      <trkpt lat="44.66805" lon="4.89239">
        <ele>374.8</ele>
        <time>2021-07-10T09:28:59</time>
      </trkpt>
      <trkpt lat="44.66805" lon="4.89239">
        <ele>374.8</ele>
        <time>2021-07-10T09:29:00</time>
      </trkpt>
      <trkpt lat="44.66809" lon="4.8924">
        <ele>374.8</ele>
        <time>2021-07-10T09:29:01</time>
      </trkpt>
      <trkpt lat="44.66811" lon="4.89242">
        <ele>374.8</ele>
        <time>2021-07-10T09:29:02</time>
      </trkpt>
      <trkpt lat="44.66813" lon="4.89243">
        <ele>375</ele>
        <time>2021-07-10T09:29:03</time>
      </trkpt>
      <trkpt lat="44.66817" lon="4.8924">
        <ele>375</ele>
        <time>2021-07-10T09:29:04</time>
      </trkpt>
      <trkpt lat="44.66818" lon="4.89242">
        <ele>375.2</ele>
        <time>2021-07-10T09:29:05</time>
      </trkpt>
      <trkpt lat="44.66821" lon="4.8924">
        <ele>375.4</ele>
        <time>2021-07-10T09:29:06</time>
      </trkpt>
      <trkpt lat="44.66821" lon="4.8924">
        <ele>375.4</ele>
        <time>2021-07-10T09:29:07</time>
      </trkpt>
      <trkpt lat="44.66825" lon="4.89239">
        <ele>375.6</ele>
        <time>2021-07-10T09:29:08</time>
      </trkpt>
      <trkpt lat="44.66828" lon="4.89243">
        <ele>375.6</ele>
        <time>2021-07-10T09:29:09</time>
      </trkpt>
      <trkpt lat="44.66829" lon="4.89244">
        <ele>375.6</ele>
        <time>2021-07-10T09:29:10</time>
      </trkpt>
      <trkpt lat="44.66832" lon="4.89241">
        <ele>375.8</ele>
        <time>2021-07-10T09:29:11</time>
      </trkpt>
      <trkpt lat="44.66832" lon="4.89241">
        <ele>376.2</ele>
        <time>2021-07-10T09:29:12</time>
      </trkpt>
      <trkpt lat="44.66838" lon="4.89236">
        <ele>376.8</ele>
        <time>2021-07-10T09:29:13</time>
      </trkpt>
      <trkpt lat="44.66838" lon="4.89236">
        <ele>377</ele>
        <time>2021-07-10T09:29:14</time>
      </trkpt>
      <trkpt lat="44.66839" lon="4.89237">
        <ele>377.2</ele>
        <time>2021-07-10T09:29:15</time>
      </trkpt>
      <trkpt lat="44.6684" lon="4.89239">
        <ele>377.4</ele>
        <time>2021-07-10T09:29:16</time>
      </trkpt>
      <trkpt lat="44.66843" lon="4.89238">
        <ele>377.8</ele>
        <time>2021-07-10T09:29:17</time>
      </trkpt>
      <trkpt lat="44.66843" lon="4.89238">
        <ele>378.2</ele>
        <time>2021-07-10T09:29:18</time>
      </trkpt>
      <trkpt lat="44.66845" lon="4.89238">
        <ele>378.4</ele>
        <time>2021-07-10T09:29:19</time>
      </trkpt>
      <trkpt lat="44.6685" lon="4.89238">
        <ele>378.4</ele>
        <time>2021-07-10T09:29:20</time>
      </trkpt>
      <trkpt lat="44.66854" lon="4.8924">
        <ele>378.4</ele>
        <time>2021-07-10T09:29:21</time>
      </trkpt>
      <trkpt lat="44.66858" lon="4.89238">
        <ele>378.6</ele>
        <time>2021-07-10T09:29:22</time>
      </trkpt>
      <trkpt lat="44.66863" lon="4.89236">
        <ele>378.6</ele>
        <time>2021-07-10T09:29:23</time>
      </trkpt>
      <trkpt lat="44.66863" lon="4.89236">
        <ele>378.8</ele>
        <time>2021-07-10T09:29:24</time>
      </trkpt>
      <trkpt lat="44.66864" lon="4.89236">
        <ele>379.2</ele>
        <time>2021-07-10T09:29:25</time>
      </trkpt>
      <trkpt lat="44.66868" lon="4.89234">
        <ele>379.4</ele>
        <time>2021-07-10T09:29:26</time>
      </trkpt>
      <trkpt lat="44.66872" lon="4.89233">
        <ele>379.6</ele>
        <time>2021-07-10T09:29:27</time>
      </trkpt>
      <trkpt lat="44.66872" lon="4.89233">
        <ele>379.6</ele>
        <time>2021-07-10T09:29:28</time>
      </trkpt>
      <trkpt lat="44.66874" lon="4.89233">
        <ele>379.8</ele>
        <time>2021-07-10T09:29:29</time>
      </trkpt>
      <trkpt lat="44.66876" lon="4.89234">
        <ele>380.2</ele>
        <time>2021-07-10T09:29:30</time>
      </trkpt>
      <trkpt lat="44.66878" lon="4.89235">
        <ele>380.8</ele>
        <time>2021-07-10T09:29:31</time>
      </trkpt>
      <trkpt lat="44.66882" lon="4.89234">
        <ele>381.2</ele>
        <time>2021-07-10T09:29:32</time>
      </trkpt>
      <trkpt lat="44.66885" lon="4.8923">
        <ele>381.6</ele>
        <time>2021-07-10T09:29:33</time>
      </trkpt>
      <trkpt lat="44.66885" lon="4.8923">
        <ele>381.8</ele>
        <time>2021-07-10T09:29:34</time>
      </trkpt>
      <trkpt lat="44.66887" lon="4.8923">
        <ele>382</ele>
        <time>2021-07-10T09:29:35</time>
      </trkpt>
      <trkpt lat="44.66888" lon="4.89229">
        <ele>382</ele>
        <time>2021-07-10T09:29:36</time>
      </trkpt>
      <trkpt lat="44.66889" lon="4.89227">
        <ele>382</ele>
        <time>2021-07-10T09:29:37</time>
      </trkpt>
      <trkpt lat="44.66892" lon="4.89227">
        <ele>382</ele>
        <time>2021-07-10T09:29:38</time>
      </trkpt>
      <trkpt lat="44.66896" lon="4.89222">
        <ele>382.2</ele>
        <time>2021-07-10T09:29:39</time>
      </trkpt>
      <trkpt lat="44.66896" lon="4.89222">
        <ele>382.2</ele>
        <time>2021-07-10T09:29:40</time>
      </trkpt>
      <trkpt lat="44.66897" lon="4.89221">
        <ele>382.4</ele>
        <time>2021-07-10T09:29:41</time>
      </trkpt>
      <trkpt lat="44.66897" lon="4.8922">
        <ele>382.6</ele>
        <time>2021-07-10T09:29:42</time>
      </trkpt>
      <trkpt lat="44.669" lon="4.89219">
        <ele>382.8</ele>
        <time>2021-07-10T09:29:43</time>
      </trkpt>
      <trkpt lat="44.66901" lon="4.89221">
        <ele>382.8</ele>
        <time>2021-07-10T09:29:44</time>
      </trkpt>
      <trkpt lat="44.66905" lon="4.89221">
        <ele>383.2</ele>
        <time>2021-07-10T09:29:45</time>
      </trkpt>
      <trkpt lat="44.66907" lon="4.8922">
        <ele>383.6</ele>
        <time>2021-07-10T09:29:46</time>
      </trkpt>
      <trkpt lat="44.66909" lon="4.89218">
        <ele>383.8</ele>
        <time>2021-07-10T09:29:47</time>
      </trkpt>
      <trkpt lat="44.66913" lon="4.8922">
        <ele>384</ele>
        <time>2021-07-10T09:29:48</time>
      </trkpt>
      <trkpt lat="44.66913" lon="4.8922">
        <ele>384.2</ele>
        <time>2021-07-10T09:29:49</time>
      </trkpt>
      <trkpt lat="44.66916" lon="4.89223">
        <ele>384.2</ele>
        <time>2021-07-10T09:29:50</time>
      </trkpt>
      <trkpt lat="44.66916" lon="4.89223">
        <ele>384.2</ele>
        <time>2021-07-10T09:29:51</time>
      </trkpt>
      <trkpt lat="44.66921" lon="4.89223">
        <ele>384.4</ele>
        <time>2021-07-10T09:29:52</time>
      </trkpt>
      <trkpt lat="44.66926" lon="4.89217">
        <ele>384.6</ele>
        <time>2021-07-10T09:29:53</time>
      </trkpt>
      <trkpt lat="44.66926" lon="4.89217">
        <ele>384.6</ele>
        <time>2021-07-10T09:29:54</time>
      </trkpt>
      <trkpt lat="44.6693" lon="4.89218">
        <ele>384.8</ele>
        <time>2021-07-10T09:29:55</time>
      </trkpt>
      <trkpt lat="44.6693" lon="4.89218">
        <ele>385</ele>
        <time>2021-07-10T09:29:56</time>
      </trkpt>
      <trkpt lat="44.66935" lon="4.89219">
        <ele>385.4</ele>
        <time>2021-07-10T09:29:57</time>
      </trkpt>
      <trkpt lat="44.66937" lon="4.89217">
        <ele>385.6</ele>
        <time>2021-07-10T09:29:58</time>
      </trkpt>
      <trkpt lat="44.66939" lon="4.89217">
        <ele>385.8</ele>
        <time>2021-07-10T09:29:59</time>
      </trkpt>
      <trkpt lat="44.66941" lon="4.8922">
        <ele>386</ele>
        <time>2021-07-10T09:30:00</time>
      </trkpt>
      <trkpt lat="44.66941" lon="4.8922">
        <ele>386</ele>
        <time>2021-07-10T09:30:01</time>
      </trkpt>
      <trkpt lat="44.66945" lon="4.8922">
        <ele>386.2</ele>
        <time>2021-07-10T09:30:02</time>
      </trkpt>
      <trkpt lat="44.66947" lon="4.89221">
        <ele>386.2</ele>
        <time>2021-07-10T09:30:03</time>
      </trkpt>
      <trkpt lat="44.66949" lon="4.89221">
        <ele>386.2</ele>
        <time>2021-07-10T09:30:04</time>
      </trkpt>
      <trkpt lat="44.66952" lon="4.89218">
        <ele>386.2</ele>
        <time>2021-07-10T09:30:05</time>
      </trkpt>
      <trkpt lat="44.66955" lon="4.89217">
        <ele>386.2</ele>
        <time>2021-07-10T09:30:06</time>
      </trkpt>
      <trkpt lat="44.66958" lon="4.89213">
        <ele>386.2</ele>
        <time>2021-07-10T09:30:07</time>
      </trkpt>
      <trkpt lat="44.6696" lon="4.89213">
        <ele>386</ele>
        <time>2021-07-10T09:30:08</time>
      </trkpt>
      <trkpt lat="44.66966" lon="4.89213">
        <ele>386</ele>
        <time>2021-07-10T09:30:09</time>
      </trkpt>
      <trkpt lat="44.66966" lon="4.89213">
        <ele>386</ele>
        <time>2021-07-10T09:30:10</time>
      </trkpt>
      <trkpt lat="44.66969" lon="4.89214">
        <ele>385.8</ele>
        <time>2021-07-10T09:30:11</time>
      </trkpt>
      <trkpt lat="44.66972" lon="4.89215">
        <ele>385.8</ele>
        <time>2021-07-10T09:30:12</time>
      </trkpt>
      <trkpt lat="44.66974" lon="4.89215">
        <ele>385.8</ele>
        <time>2021-07-10T09:30:13</time>
      </trkpt>
      <trkpt lat="44.66977" lon="4.89215">
        <ele>385.8</ele>
        <time>2021-07-10T09:30:14</time>
      </trkpt>
      <trkpt lat="44.66979" lon="4.89216">
        <ele>386</ele>
        <time>2021-07-10T09:30:15</time>
      </trkpt>
      <trkpt lat="44.66982" lon="4.89216">
        <ele>386</ele>
        <time>2021-07-10T09:30:16</time>
      </trkpt>
      <trkpt lat="44.66986" lon="4.89216">
        <ele>386</ele>
        <time>2021-07-10T09:30:17</time>
      </trkpt>
      <trkpt lat="44.66989" lon="4.89218">
        <ele>386</ele>
        <time>2021-07-10T09:30:18</time>
      </trkpt>
      <trkpt lat="44.66992" lon="4.89224">
        <ele>385.8</ele>
        <time>2021-07-10T09:30:19</time>
      </trkpt>
      <trkpt lat="44.66991" lon="4.89229">
        <ele>385.6</ele>
        <time>2021-07-10T09:30:20</time>
      </trkpt>
      <trkpt lat="44.66989" lon="4.89233">
        <ele>385.4</ele>
        <time>2021-07-10T09:30:21</time>
      </trkpt>
      <trkpt lat="44.66987" lon="4.89236">
        <ele>385.4</ele>
        <time>2021-07-10T09:30:22</time>
      </trkpt>
      <trkpt lat="44.66983" lon="4.89237">
        <ele>385.6</ele>
        <time>2021-07-10T09:30:23</time>
      </trkpt>
      <trkpt lat="44.66981" lon="4.89239">
        <ele>385.6</ele>
        <time>2021-07-10T09:30:24</time>
      </trkpt>
      <trkpt lat="44.66978" lon="4.89241">
        <ele>385.8</ele>
        <time>2021-07-10T09:30:25</time>
      </trkpt>
      <trkpt lat="44.66977" lon="4.89244">
        <ele>386</ele>
        <time>2021-07-10T09:30:26</time>
      </trkpt>
      <trkpt lat="44.66975" lon="4.89245">
        <ele>386</ele>
        <time>2021-07-10T09:30:27</time>
      </trkpt>
      <trkpt lat="44.66973" lon="4.89247">
        <ele>386</ele>
        <time>2021-07-10T09:30:28</time>
      </trkpt>
      <trkpt lat="44.6697" lon="4.8925">
        <ele>386</ele>
        <time>2021-07-10T09:30:29</time>
      </trkpt>
      <trkpt lat="44.66967" lon="4.89254">
        <ele>386.2</ele>
        <time>2021-07-10T09:30:30</time>
      </trkpt>
      <trkpt lat="44.66966" lon="4.89256">
        <ele>386.2</ele>
        <time>2021-07-10T09:30:31</time>
      </trkpt>
      <trkpt lat="44.66965" lon="4.89259">
        <ele>386.4</ele>
        <time>2021-07-10T09:30:32</time>
      </trkpt>
      <trkpt lat="44.66962" lon="4.89263">
        <ele>386.6</ele>
        <time>2021-07-10T09:30:33</time>
      </trkpt>
      <trkpt lat="44.66961" lon="4.89265">
        <ele>386.6</ele>
        <time>2021-07-10T09:30:34</time>
      </trkpt>
      <trkpt lat="44.66959" lon="4.89267">
        <ele>386.8</ele>
        <time>2021-07-10T09:30:35</time>
      </trkpt>
      <trkpt lat="44.66957" lon="4.89269">
        <ele>387</ele>
        <time>2021-07-10T09:30:36</time>
      </trkpt>
      <trkpt lat="44.66956" lon="4.89272">
        <ele>387.4</ele>
        <time>2021-07-10T09:30:37</time>
      </trkpt>
      <trkpt lat="44.66953" lon="4.89274">
        <ele>387.6</ele>
        <time>2021-07-10T09:30:38</time>
      </trkpt>
      <trkpt lat="44.66952" lon="4.89277">
        <ele>387.8</ele>
        <time>2021-07-10T09:30:39</time>
      </trkpt>
      <trkpt lat="44.66948" lon="4.8928">
        <ele>388</ele>
        <time>2021-07-10T09:30:40</time>
      </trkpt>
      <trkpt lat="44.66947" lon="4.89282">
        <ele>388.2</ele>
        <time>2021-07-10T09:30:41</time>
      </trkpt>
      <trkpt lat="44.66945" lon="4.89283">
        <ele>388.4</ele>
        <time>2021-07-10T09:30:42</time>
      </trkpt>
      <trkpt lat="44.66944" lon="4.89284">
        <ele>388.6</ele>
        <time>2021-07-10T09:30:43</time>
      </trkpt>
      <trkpt lat="44.66943" lon="4.89287">
        <ele>388.8</ele>
        <time>2021-07-10T09:30:44</time>
      </trkpt>
      <trkpt lat="44.66939" lon="4.89291">
        <ele>388.8</ele>
        <time>2021-07-10T09:30:45</time>
      </trkpt>
      <trkpt lat="44.66934" lon="4.89296">
        <ele>389</ele>
        <time>2021-07-10T09:30:46</time>
      </trkpt>
      <trkpt lat="44.66934" lon="4.89296">
        <ele>389.2</ele>
        <time>2021-07-10T09:30:47</time>
      </trkpt>
      <trkpt lat="44.6693" lon="4.89302">
        <ele>389.2</ele>
        <time>2021-07-10T09:30:48</time>
      </trkpt>
      <trkpt lat="44.66927" lon="4.89305">
        <ele>389.4</ele>
        <time>2021-07-10T09:30:49</time>
      </trkpt>
      <trkpt lat="44.66926" lon="4.89308">
        <ele>389.6</ele>
        <time>2021-07-10T09:30:50</time>
      </trkpt>
      <trkpt lat="44.66919" lon="4.89314">
        <ele>389.8</ele>
        <time>2021-07-10T09:30:51</time>
      </trkpt>
      <trkpt lat="44.66919" lon="4.89314">
        <ele>389.8</ele>
        <time>2021-07-10T09:30:52</time>
      </trkpt>
      <trkpt lat="44.66919" lon="4.89319">
        <ele>390</ele>
        <time>2021-07-10T09:30:53</time>
      </trkpt>
      <trkpt lat="44.66919" lon="4.89319">
        <ele>390</ele>
        <time>2021-07-10T09:30:54</time>
      </trkpt>
      <trkpt lat="44.66913" lon="4.89323">
        <ele>390.2</ele>
        <time>2021-07-10T09:30:55</time>
      </trkpt>
      <trkpt lat="44.66913" lon="4.89323">
        <ele>390.4</ele>
        <time>2021-07-10T09:30:56</time>
      </trkpt>
      <trkpt lat="44.66911" lon="4.89325">
        <ele>390.6</ele>
        <time>2021-07-10T09:30:57</time>
      </trkpt>
      <trkpt lat="44.66909" lon="4.89329">
        <ele>390.8</ele>
        <time>2021-07-10T09:30:58</time>
      </trkpt>
      <trkpt lat="44.66905" lon="4.89333">
        <ele>391</ele>
        <time>2021-07-10T09:30:59</time>
      </trkpt>
      <trkpt lat="44.66905" lon="4.89333">
        <ele>391.2</ele>
        <time>2021-07-10T09:31:00</time>
      </trkpt>
      <trkpt lat="44.66906" lon="4.89336">
        <ele>391.4</ele>
        <time>2021-07-10T09:31:01</time>
      </trkpt>
      <trkpt lat="44.66901" lon="4.89343">
        <ele>391.4</ele>
        <time>2021-07-10T09:31:02</time>
      </trkpt>
      <trkpt lat="44.66901" lon="4.89343">
        <ele>391.6</ele>
        <time>2021-07-10T09:31:03</time>
      </trkpt>
      <trkpt lat="44.66901" lon="4.89345">
        <ele>391.8</ele>
        <time>2021-07-10T09:31:04</time>
      </trkpt>
      <trkpt lat="44.66899" lon="4.89349">
        <ele>391.8</ele>
        <time>2021-07-10T09:31:05</time>
      </trkpt>
      <trkpt lat="44.66899" lon="4.89349">
        <ele>392</ele>
        <time>2021-07-10T09:31:06</time>
      </trkpt>
      <trkpt lat="44.66897" lon="4.89351">
        <ele>392.2</ele>
        <time>2021-07-10T09:31:07</time>
      </trkpt>
      <trkpt lat="44.66895" lon="4.89357">
        <ele>392.4</ele>
        <time>2021-07-10T09:31:08</time>
      </trkpt>
      <trkpt lat="44.66895" lon="4.89357">
        <ele>392.6</ele>
        <time>2021-07-10T09:31:09</time>
      </trkpt>
      <trkpt lat="44.66893" lon="4.89357">
        <ele>392.8</ele>
        <time>2021-07-10T09:31:10</time>
      </trkpt>
      <trkpt lat="44.66891" lon="4.89358">
        <ele>393</ele>
        <time>2021-07-10T09:31:11</time>
      </trkpt>
      <trkpt lat="44.6689" lon="4.89359">
        <ele>393.2</ele>
        <time>2021-07-10T09:31:12</time>
      </trkpt>
      <trkpt lat="44.66889" lon="4.8936">
        <ele>393.4</ele>
        <time>2021-07-10T09:31:13</time>
      </trkpt>
      <trkpt lat="44.66886" lon="4.89362">
        <ele>393.6</ele>
        <time>2021-07-10T09:31:14</time>
      </trkpt>
      <trkpt lat="44.66881" lon="4.89361">
        <ele>393.8</ele>
        <time>2021-07-10T09:31:15</time>
      </trkpt>
      <trkpt lat="44.66879" lon="4.89364">
        <ele>393.8</ele>
        <time>2021-07-10T09:31:16</time>
      </trkpt>
      <trkpt lat="44.66878" lon="4.89367">
        <ele>394</ele>
        <time>2021-07-10T09:31:17</time>
      </trkpt>
      <trkpt lat="44.66878" lon="4.89366">
        <ele>394.2</ele>
        <time>2021-07-10T09:31:18</time>
      </trkpt>
      <trkpt lat="44.66877" lon="4.89367">
        <ele>394.4</ele>
        <time>2021-07-10T09:31:19</time>
      </trkpt>
      <trkpt lat="44.66876" lon="4.89369">
        <ele>394.6</ele>
        <time>2021-07-10T09:31:20</time>
      </trkpt>
      <trkpt lat="44.66873" lon="4.89374">
        <ele>394.8</ele>
        <time>2021-07-10T09:31:21</time>
      </trkpt>
      <trkpt lat="44.66873" lon="4.89374">
        <ele>395</ele>
        <time>2021-07-10T09:31:22</time>
      </trkpt>
      <trkpt lat="44.66872" lon="4.89375">
        <ele>395.2</ele>
        <time>2021-07-10T09:31:23</time>
      </trkpt>
      <trkpt lat="44.66871" lon="4.89376">
        <ele>395.2</ele>
        <time>2021-07-10T09:31:24</time>
      </trkpt>
      <trkpt lat="44.66871" lon="4.89377">
        <ele>395.4</ele>
        <time>2021-07-10T09:31:25</time>
      </trkpt>
      <trkpt lat="44.66869" lon="4.89382">
        <ele>395.6</ele>
        <time>2021-07-10T09:31:26</time>
      </trkpt>
      <trkpt lat="44.66867" lon="4.89382">
        <ele>395.8</ele>
        <time>2021-07-10T09:31:27</time>
      </trkpt>
      <trkpt lat="44.66867" lon="4.89384">
        <ele>395.8</ele>
        <time>2021-07-10T09:31:28</time>
      </trkpt>
      <trkpt lat="44.66867" lon="4.89384">
        <ele>396</ele>
        <time>2021-07-10T09:31:29</time>
      </trkpt>
      <trkpt lat="44.66865" lon="4.89388">
        <ele>396.2</ele>
        <time>2021-07-10T09:31:30</time>
      </trkpt>
      <trkpt lat="44.66865" lon="4.8939">
        <ele>396.2</ele>
        <time>2021-07-10T09:31:31</time>
      </trkpt>
      <trkpt lat="44.66862" lon="4.89394">
        <ele>396.4</ele>
        <time>2021-07-10T09:31:32</time>
      </trkpt>
      <trkpt lat="44.66862" lon="4.89394">
        <ele>396.6</ele>
        <time>2021-07-10T09:31:33</time>
      </trkpt>
      <trkpt lat="44.66863" lon="4.89395">
        <ele>396.8</ele>
        <time>2021-07-10T09:31:34</time>
      </trkpt>
      <trkpt lat="44.6686" lon="4.89398">
        <ele>397</ele>
        <time>2021-07-10T09:31:35</time>
      </trkpt>
      <trkpt lat="44.66859" lon="4.89401">
        <ele>397</ele>
        <time>2021-07-10T09:31:36</time>
      </trkpt>
      <trkpt lat="44.66858" lon="4.89403">
        <ele>397.2</ele>
        <time>2021-07-10T09:31:37</time>
      </trkpt>
      <trkpt lat="44.66854" lon="4.89405">
        <ele>397.4</ele>
        <time>2021-07-10T09:31:38</time>
      </trkpt>
      <trkpt lat="44.66852" lon="4.89411">
        <ele>397.6</ele>
        <time>2021-07-10T09:31:39</time>
      </trkpt>
      <trkpt lat="44.6685" lon="4.89411">
        <ele>397.8</ele>
        <time>2021-07-10T09:31:40</time>
      </trkpt>
      <trkpt lat="44.66847" lon="4.89412">
        <ele>398</ele>
        <time>2021-07-10T09:31:41</time>
      </trkpt>
      <trkpt lat="44.66844" lon="4.89416">
        <ele>398.2</ele>
        <time>2021-07-10T09:31:42</time>
      </trkpt>
      <trkpt lat="44.66844" lon="4.89416">
        <ele>398.2</ele>
        <time>2021-07-10T09:31:43</time>
      </trkpt>
      <trkpt lat="44.66842" lon="4.89419">
        <ele>398.4</ele>
        <time>2021-07-10T09:31:44</time>
      </trkpt>
      <trkpt lat="44.66842" lon="4.8942">
        <ele>398.6</ele>
        <time>2021-07-10T09:31:45</time>
      </trkpt>
      <trkpt lat="44.66842" lon="4.8942">
        <ele>398.8</ele>
        <time>2021-07-10T09:31:46</time>
      </trkpt>
      <trkpt lat="44.6684" lon="4.89423">
        <ele>399</ele>
        <time>2021-07-10T09:31:47</time>
      </trkpt>
      <trkpt lat="44.66838" lon="4.89424">
        <ele>399</ele>
        <time>2021-07-10T09:31:48</time>
      </trkpt>
      <trkpt lat="44.66838" lon="4.89424">
        <ele>399.4</ele>
        <time>2021-07-10T09:31:49</time>
      </trkpt>
      <trkpt lat="44.66839" lon="4.89426">
        <ele>399.6</ele>
        <time>2021-07-10T09:31:50</time>
      </trkpt>
      <trkpt lat="44.66838" lon="4.89424">
        <ele>399.8</ele>
        <time>2021-07-10T09:31:51</time>
      </trkpt>
      <trkpt lat="44.66836" lon="4.89427">
        <ele>399.8</ele>
        <time>2021-07-10T09:31:52</time>
      </trkpt>
      <trkpt lat="44.66835" lon="4.89431">
        <ele>400</ele>
        <time>2021-07-10T09:31:53</time>
      </trkpt>
      <trkpt lat="44.66835" lon="4.89431">
        <ele>400.2</ele>
        <time>2021-07-10T09:31:54</time>
      </trkpt>
      <trkpt lat="44.66834" lon="4.89434">
        <ele>400.4</ele>
        <time>2021-07-10T09:31:55</time>
      </trkpt>
      <trkpt lat="44.66833" lon="4.8944">
        <ele>400.6</ele>
        <time>2021-07-10T09:31:56</time>
      </trkpt>
      <trkpt lat="44.66833" lon="4.8944">
        <ele>400.8</ele>
        <time>2021-07-10T09:31:57</time>
      </trkpt>
      <trkpt lat="44.66832" lon="4.89443">
        <ele>401</ele>
        <time>2021-07-10T09:31:58</time>
      </trkpt>
      <trkpt lat="44.66831" lon="4.89446">
        <ele>401.4</ele>
        <time>2021-07-10T09:31:59</time>
      </trkpt>
      <trkpt lat="44.66831" lon="4.89446">
        <ele>401.6</ele>
        <time>2021-07-10T09:32:00</time>
      </trkpt>
      <trkpt lat="44.6683" lon="4.89448">
        <ele>401.8</ele>
        <time>2021-07-10T09:32:01</time>
      </trkpt>
      <trkpt lat="44.66829" lon="4.89448">
        <ele>402</ele>
        <time>2021-07-10T09:32:02</time>
      </trkpt>
      <trkpt lat="44.66829" lon="4.89451">
        <ele>402.2</ele>
        <time>2021-07-10T09:32:03</time>
      </trkpt>
      <trkpt lat="44.66829" lon="4.89451">
        <ele>402.4</ele>
        <time>2021-07-10T09:32:04</time>
      </trkpt>
      <trkpt lat="44.66829" lon="4.89458">
        <ele>402.4</ele>
        <time>2021-07-10T09:32:05</time>
      </trkpt>
      <trkpt lat="44.66828" lon="4.8946">
        <ele>402.8</ele>
        <time>2021-07-10T09:32:06</time>
      </trkpt>
      <trkpt lat="44.66828" lon="4.89463">
        <ele>403</ele>
        <time>2021-07-10T09:32:07</time>
      </trkpt>
      <trkpt lat="44.66825" lon="4.89469">
        <ele>403.4</ele>
        <time>2021-07-10T09:32:08</time>
      </trkpt>
      <trkpt lat="44.66825" lon="4.89469">
        <ele>403.6</ele>
        <time>2021-07-10T09:32:09</time>
      </trkpt>
      <trkpt lat="44.66823" lon="4.8947">
        <ele>404</ele>
        <time>2021-07-10T09:32:10</time>
      </trkpt>
      <trkpt lat="44.66823" lon="4.89471">
        <ele>404.2</ele>
        <time>2021-07-10T09:32:11</time>
      </trkpt>
      <trkpt lat="44.66823" lon="4.89473">
        <ele>404.4</ele>
        <time>2021-07-10T09:32:12</time>
      </trkpt>
      <trkpt lat="44.66823" lon="4.89473">
        <ele>404.8</ele>
        <time>2021-07-10T09:32:13</time>
      </trkpt>
      <trkpt lat="44.66822" lon="4.89474">
        <ele>405</ele>
        <time>2021-07-10T09:32:14</time>
      </trkpt>
      <trkpt lat="44.66822" lon="4.89477">
        <ele>405.2</ele>
        <time>2021-07-10T09:32:15</time>
      </trkpt>
      <trkpt lat="44.66821" lon="4.89485">
        <ele>405.2</ele>
        <time>2021-07-10T09:32:16</time>
      </trkpt>
      <trkpt lat="44.66821" lon="4.89485">
        <ele>405.4</ele>
        <time>2021-07-10T09:32:17</time>
      </trkpt>
      <trkpt lat="44.66821" lon="4.89489">
        <ele>405.4</ele>
        <time>2021-07-10T09:32:18</time>
      </trkpt>
      <trkpt lat="44.66821" lon="4.8949">
        <ele>405.6</ele>
        <time>2021-07-10T09:32:19</time>
      </trkpt>
      <trkpt lat="44.6682" lon="4.89493">
        <ele>405.6</ele>
        <time>2021-07-10T09:32:20</time>
      </trkpt>
      <trkpt lat="44.6682" lon="4.89496">
        <ele>405.8</ele>
        <time>2021-07-10T09:32:21</time>
      </trkpt>
      <trkpt lat="44.66821" lon="4.89498">
        <ele>406</ele>
        <time>2021-07-10T09:32:22</time>
      </trkpt>
      <trkpt lat="44.66822" lon="4.89498">
        <ele>406.2</ele>
        <time>2021-07-10T09:32:23</time>
      </trkpt>
      <trkpt lat="44.66821" lon="4.895">
        <ele>406.2</ele>
        <time>2021-07-10T09:32:24</time>
      </trkpt>
      <trkpt lat="44.66821" lon="4.895">
        <ele>406.4</ele>
        <time>2021-07-10T09:32:25</time>
      </trkpt>
      <trkpt lat="44.6682" lon="4.89501">
        <ele>406.6</ele>
        <time>2021-07-10T09:32:26</time>
      </trkpt>
      <trkpt lat="44.66818" lon="4.89503">
        <ele>406.8</ele>
        <time>2021-07-10T09:32:27</time>
      </trkpt>
      <trkpt lat="44.66815" lon="4.89503">
        <ele>407</ele>
        <time>2021-07-10T09:32:28</time>
      </trkpt>
      <trkpt lat="44.66816" lon="4.89505">
        <ele>407.2</ele>
        <time>2021-07-10T09:32:29</time>
      </trkpt>
      <trkpt lat="44.66814" lon="4.8951">
        <ele>407.2</ele>
        <time>2021-07-10T09:32:30</time>
      </trkpt>
      <trkpt lat="44.66813" lon="4.89511">
        <ele>407.4</ele>
        <time>2021-07-10T09:32:31</time>
      </trkpt>
      <trkpt lat="44.66815" lon="4.89514">
        <ele>407.6</ele>
        <time>2021-07-10T09:32:32</time>
      </trkpt>
      <trkpt lat="44.66814" lon="4.89517">
        <ele>407.8</ele>
        <time>2021-07-10T09:32:33</time>
      </trkpt>
      <trkpt lat="44.66814" lon="4.89521">
        <ele>408</ele>
        <time>2021-07-10T09:32:34</time>
      </trkpt>
      <trkpt lat="44.66812" lon="4.89526">
        <ele>408.2</ele>
        <time>2021-07-10T09:32:35</time>
      </trkpt>
      <trkpt lat="44.66812" lon="4.89526">
        <ele>408.2</ele>
        <time>2021-07-10T09:32:36</time>
      </trkpt>
      <trkpt lat="44.66814" lon="4.89531">
        <ele>408.4</ele>
        <time>2021-07-10T09:32:37</time>
      </trkpt>
      <trkpt lat="44.66816" lon="4.89535">
        <ele>408.6</ele>
        <time>2021-07-10T09:32:38</time>
      </trkpt>
      <trkpt lat="44.66816" lon="4.89537">
        <ele>408.6</ele>
        <time>2021-07-10T09:32:39</time>
      </trkpt>
      <trkpt lat="44.66818" lon="4.8954">
        <ele>408.8</ele>
        <time>2021-07-10T09:32:40</time>
      </trkpt>
      <trkpt lat="44.66818" lon="4.89543">
        <ele>409</ele>
        <time>2021-07-10T09:32:41</time>
      </trkpt>
      <trkpt lat="44.66818" lon="4.89543">
        <ele>409.2</ele>
        <time>2021-07-10T09:32:42</time>
      </trkpt>
      <trkpt lat="44.6682" lon="4.89545">
        <ele>409.4</ele>
        <time>2021-07-10T09:32:43</time>
      </trkpt>
      <trkpt lat="44.66821" lon="4.89546">
        <ele>409.6</ele>
        <time>2021-07-10T09:32:44</time>
      </trkpt>
      <trkpt lat="44.66821" lon="4.89546">
        <ele>409.8</ele>
        <time>2021-07-10T09:32:45</time>
      </trkpt>
      <trkpt lat="44.66822" lon="4.89551">
        <ele>410</ele>
        <time>2021-07-10T09:32:46</time>
      </trkpt>
      <trkpt lat="44.66822" lon="4.89551">
        <ele>410</ele>
        <time>2021-07-10T09:32:47</time>
      </trkpt>
      <trkpt lat="44.66823" lon="4.89552">
        <ele>410.2</ele>
        <time>2021-07-10T09:32:48</time>
      </trkpt>
      <trkpt lat="44.66824" lon="4.89554">
        <ele>410.2</ele>
        <time>2021-07-10T09:32:49</time>
      </trkpt>
      <trkpt lat="44.66826" lon="4.89556">
        <ele>410.4</ele>
        <time>2021-07-10T09:32:50</time>
      </trkpt>
      <trkpt lat="44.66828" lon="4.89559">
        <ele>410.6</ele>
        <time>2021-07-10T09:32:51</time>
      </trkpt>
      <trkpt lat="44.66828" lon="4.89559">
        <ele>410.8</ele>
        <time>2021-07-10T09:32:52</time>
      </trkpt>
      <trkpt lat="44.66828" lon="4.89559">
        <ele>411</ele>
        <time>2021-07-10T09:32:53</time>
      </trkpt>
      <trkpt lat="44.66829" lon="4.8956">
        <ele>411.2</ele>
        <time>2021-07-10T09:32:54</time>
      </trkpt>
      <trkpt lat="44.66832" lon="4.89562">
        <ele>411.2</ele>
        <time>2021-07-10T09:32:55</time>
      </trkpt>
      <trkpt lat="44.66832" lon="4.89565">
        <ele>411.4</ele>
        <time>2021-07-10T09:32:56</time>
      </trkpt>
      <trkpt lat="44.66832" lon="4.89565">
        <ele>411.6</ele>
        <time>2021-07-10T09:32:57</time>
      </trkpt>
      <trkpt lat="44.66833" lon="4.89571">
        <ele>411.8</ele>
        <time>2021-07-10T09:32:58</time>
      </trkpt>
      <trkpt lat="44.66833" lon="4.89571">
        <ele>412</ele>
        <time>2021-07-10T09:32:59</time>
      </trkpt>
      <trkpt lat="44.66834" lon="4.89572">
        <ele>412.2</ele>
        <time>2021-07-10T09:33:00</time>
      </trkpt>
      <trkpt lat="44.66834" lon="4.89572">
        <ele>412.2</ele>
        <time>2021-07-10T09:33:01</time>
      </trkpt>
      <trkpt lat="44.66837" lon="4.89575">
        <ele>412.4</ele>
        <time>2021-07-10T09:33:02</time>
      </trkpt>
      <trkpt lat="44.66837" lon="4.89575">
        <ele>412.6</ele>
        <time>2021-07-10T09:33:03</time>
      </trkpt>
      <trkpt lat="44.66841" lon="4.89575">
        <ele>412.8</ele>
        <time>2021-07-10T09:33:04</time>
      </trkpt>
      <trkpt lat="44.66842" lon="4.89579">
        <ele>413</ele>
        <time>2021-07-10T09:33:05</time>
      </trkpt>
      <trkpt lat="44.66842" lon="4.89581">
        <ele>413</ele>
        <time>2021-07-10T09:33:06</time>
      </trkpt>
      <trkpt lat="44.66843" lon="4.89582">
        <ele>413.2</ele>
        <time>2021-07-10T09:33:07</time>
      </trkpt>
      <trkpt lat="44.66846" lon="4.89583">
        <ele>413.2</ele>
        <time>2021-07-10T09:33:08</time>
      </trkpt>
      <trkpt lat="44.66847" lon="4.89583">
        <ele>413.4</ele>
        <time>2021-07-10T09:33:09</time>
      </trkpt>
      <trkpt lat="44.66849" lon="4.89586">
        <ele>413.6</ele>
        <time>2021-07-10T09:33:10</time>
      </trkpt>
      <trkpt lat="44.66849" lon="4.89587">
        <ele>413.8</ele>
        <time>2021-07-10T09:33:11</time>
      </trkpt>
      <trkpt lat="44.66852" lon="4.89588">
        <ele>414</ele>
        <time>2021-07-10T09:33:12</time>
      </trkpt>
      <trkpt lat="44.66852" lon="4.89591">
        <ele>414.2</ele>
        <time>2021-07-10T09:33:13</time>
      </trkpt>
      <trkpt lat="44.66853" lon="4.89594">
        <ele>414.4</ele>
        <time>2021-07-10T09:33:14</time>
      </trkpt>
      <trkpt lat="44.66854" lon="4.89598">
        <ele>414.6</ele>
        <time>2021-07-10T09:33:15</time>
      </trkpt>
      <trkpt lat="44.66854" lon="4.896">
        <ele>414.8</ele>
        <time>2021-07-10T09:33:16</time>
      </trkpt>
      <trkpt lat="44.66855" lon="4.89603">
        <ele>415</ele>
        <time>2021-07-10T09:33:17</time>
      </trkpt>
      <trkpt lat="44.66855" lon="4.89603">
        <ele>415.2</ele>
        <time>2021-07-10T09:33:18</time>
      </trkpt>
      <trkpt lat="44.66856" lon="4.89604">
        <ele>415.4</ele>
        <time>2021-07-10T09:33:19</time>
      </trkpt>
      <trkpt lat="44.66858" lon="4.89605">
        <ele>415.4</ele>
        <time>2021-07-10T09:33:20</time>
      </trkpt>
      <trkpt lat="44.66859" lon="4.89605">
        <ele>415.6</ele>
        <time>2021-07-10T09:33:21</time>
      </trkpt>
      <trkpt lat="44.66859" lon="4.89607">
        <ele>415.6</ele>
        <time>2021-07-10T09:33:22</time>
      </trkpt>
      <trkpt lat="44.6686" lon="4.89608">
        <ele>415.6</ele>
        <time>2021-07-10T09:33:23</time>
      </trkpt>
      <trkpt lat="44.66862" lon="4.89608">
        <ele>415.8</ele>
        <time>2021-07-10T09:33:24</time>
      </trkpt>
      <trkpt lat="44.66864" lon="4.8961">
        <ele>415.8</ele>
        <time>2021-07-10T09:33:25</time>
      </trkpt>
      <trkpt lat="44.66865" lon="4.8961">
        <ele>416</ele>
        <time>2021-07-10T09:33:26</time>
      </trkpt>
      <trkpt lat="44.66867" lon="4.89609">
        <ele>416.4</ele>
        <time>2021-07-10T09:33:27</time>
      </trkpt>
      <trkpt lat="44.6687" lon="4.89609">
        <ele>416.6</ele>
        <time>2021-07-10T09:33:28</time>
      </trkpt>
      <trkpt lat="44.6687" lon="4.89609">
        <ele>416.6</ele>
        <time>2021-07-10T09:33:29</time>
      </trkpt>
      <trkpt lat="44.66869" lon="4.89613">
        <ele>416.6</ele>
        <time>2021-07-10T09:33:30</time>
      </trkpt>
      <trkpt lat="44.6687" lon="4.89615">
        <ele>416.8</ele>
        <time>2021-07-10T09:33:31</time>
      </trkpt>
      <trkpt lat="44.6687" lon="4.89615">
        <ele>417.2</ele>
        <time>2021-07-10T09:33:32</time>
      </trkpt>
      <trkpt lat="44.66872" lon="4.89615">
        <ele>417.4</ele>
        <time>2021-07-10T09:33:33</time>
      </trkpt>
      <trkpt lat="44.66874" lon="4.89616">
        <ele>417.8</ele>
        <time>2021-07-10T09:33:34</time>
      </trkpt>
      <trkpt lat="44.66874" lon="4.89615">
        <ele>418</ele>
        <time>2021-07-10T09:33:35</time>
      </trkpt>
      <trkpt lat="44.66875" lon="4.89613">
        <ele>418.2</ele>
        <time>2021-07-10T09:33:36</time>
      </trkpt>
      <trkpt lat="44.66878" lon="4.89616">
        <ele>418.4</ele>
        <time>2021-07-10T09:33:37</time>
      </trkpt>
      <trkpt lat="44.66879" lon="4.89619">
        <ele>418.8</ele>
        <time>2021-07-10T09:33:38</time>
      </trkpt>
      <trkpt lat="44.6688" lon="4.89621">
        <ele>418.8</ele>
        <time>2021-07-10T09:33:39</time>
      </trkpt>
      <trkpt lat="44.66883" lon="4.89621">
        <ele>419</ele>
        <time>2021-07-10T09:33:40</time>
      </trkpt>
      <trkpt lat="44.66883" lon="4.89621">
        <ele>419.2</ele>
        <time>2021-07-10T09:33:41</time>
      </trkpt>
      <trkpt lat="44.66884" lon="4.89621">
        <ele>419.4</ele>
        <time>2021-07-10T09:33:42</time>
      </trkpt>
      <trkpt lat="44.66887" lon="4.89625">
        <ele>419.4</ele>
        <time>2021-07-10T09:33:43</time>
      </trkpt>
      <trkpt lat="44.66887" lon="4.89625">
        <ele>419.6</ele>
        <time>2021-07-10T09:33:44</time>
      </trkpt>
      <trkpt lat="44.6689" lon="4.89625">
        <ele>419.6</ele>
        <time>2021-07-10T09:33:45</time>
      </trkpt>
      <trkpt lat="44.6689" lon="4.89625">
        <ele>419.8</ele>
        <time>2021-07-10T09:33:46</time>
      </trkpt>
      <trkpt lat="44.6689" lon="4.89625">
        <ele>420</ele>
        <time>2021-07-10T09:33:47</time>
      </trkpt>
      <trkpt lat="44.66896" lon="4.8963">
        <ele>420</ele>
        <time>2021-07-10T09:33:48</time>
      </trkpt>
      <trkpt lat="44.66896" lon="4.8963">
        <ele>420.2</ele>
        <time>2021-07-10T09:33:49</time>
      </trkpt>
      <trkpt lat="44.66898" lon="4.89632">
        <ele>420.2</ele>
        <time>2021-07-10T09:33:50</time>
      </trkpt>
      <trkpt lat="44.66904" lon="4.89634">
        <ele>420.4</ele>
        <time>2021-07-10T09:33:51</time>
      </trkpt>
      <trkpt lat="44.66904" lon="4.89634">
        <ele>420.6</ele>
        <time>2021-07-10T09:33:52</time>
      </trkpt>
      <trkpt lat="44.66905" lon="4.89636">
        <ele>420.6</ele>
        <time>2021-07-10T09:33:53</time>
      </trkpt>
      <trkpt lat="44.66906" lon="4.89636">
        <ele>420.8</ele>
        <time>2021-07-10T09:33:54</time>
      </trkpt>
      <trkpt lat="44.66906" lon="4.89636">
        <ele>420.8</ele>
        <time>2021-07-10T09:33:55</time>
      </trkpt>
      <trkpt lat="44.66908" lon="4.89638">
        <ele>420.6</ele>
        <time>2021-07-10T09:33:56</time>
      </trkpt>
      <trkpt lat="44.6691" lon="4.89638">
        <ele>420.6</ele>
        <time>2021-07-10T09:33:57</time>
      </trkpt>
      <trkpt lat="44.66912" lon="4.8964">
        <ele>420.8</ele>
        <time>2021-07-10T09:33:58</time>
      </trkpt>
      <trkpt lat="44.66917" lon="4.89643">
        <ele>416.2</ele>
        <time>2021-07-10T09:33:59</time>
      </trkpt>
      <trkpt lat="44.66917" lon="4.89643">
        <ele>416.8</ele>
        <time>2021-07-10T09:34:00</time>
      </trkpt>
      <trkpt lat="44.66922" lon="4.89647">
        <ele>422.2</ele>
        <time>2021-07-10T09:34:01</time>
      </trkpt>
      <trkpt lat="44.66922" lon="4.89647">
        <ele>422.4</ele>
        <time>2021-07-10T09:34:02</time>
      </trkpt>
      <trkpt lat="44.66922" lon="4.89647">
        <ele>422.6</ele>
        <time>2021-07-10T09:34:03</time>
      </trkpt>
      <trkpt lat="44.66923" lon="4.89647">
        <ele>422.6</ele>
        <time>2021-07-10T09:34:04</time>
      </trkpt>
      <trkpt lat="44.66924" lon="4.89648">
        <ele>422.6</ele>
        <time>2021-07-10T09:34:05</time>
      </trkpt>
      <trkpt lat="44.66924" lon="4.8965">
        <ele>422.6</ele>
        <time>2021-07-10T09:34:06</time>
      </trkpt>
      <trkpt lat="44.66924" lon="4.8965">
        <ele>422.6</ele>
        <time>2021-07-10T09:34:07</time>
      </trkpt>
      <trkpt lat="44.66929" lon="4.89651">
        <ele>422.6</ele>
        <time>2021-07-10T09:34:08</time>
      </trkpt>
      <trkpt lat="44.66931" lon="4.89652">
        <ele>422.6</ele>
        <time>2021-07-10T09:34:09</time>
      </trkpt>
      <trkpt lat="44.66932" lon="4.89654">
        <ele>422.6</ele>
        <time>2021-07-10T09:34:10</time>
      </trkpt>
      <trkpt lat="44.66933" lon="4.89656">
        <ele>422.6</ele>
        <time>2021-07-10T09:34:11</time>
      </trkpt>
      <trkpt lat="44.66935" lon="4.89658">
        <ele>422.8</ele>
        <time>2021-07-10T09:34:12</time>
      </trkpt>
      <trkpt lat="44.66938" lon="4.8966">
        <ele>423</ele>
        <time>2021-07-10T09:34:13</time>
      </trkpt>
      <trkpt lat="44.66938" lon="4.89661">
        <ele>423</ele>
        <time>2021-07-10T09:34:14</time>
      </trkpt>
      <trkpt lat="44.6694" lon="4.89663">
        <ele>423</ele>
        <time>2021-07-10T09:34:15</time>
      </trkpt>
      <trkpt lat="44.66944" lon="4.89665">
        <ele>423.4</ele>
        <time>2021-07-10T09:34:16</time>
      </trkpt>
      <trkpt lat="44.66943" lon="4.89666">
        <ele>423.4</ele>
        <time>2021-07-10T09:34:17</time>
      </trkpt>
      <trkpt lat="44.66943" lon="4.89666">
        <ele>423.8</ele>
        <time>2021-07-10T09:34:18</time>
      </trkpt>
      <trkpt lat="44.66951" lon="4.89671">
        <ele>424.2</ele>
        <time>2021-07-10T09:34:19</time>
      </trkpt>
      <trkpt lat="44.66951" lon="4.89671">
        <ele>424.2</ele>
        <time>2021-07-10T09:34:20</time>
      </trkpt>
      <trkpt lat="44.66953" lon="4.89673">
        <ele>424.2</ele>
        <time>2021-07-10T09:34:21</time>
      </trkpt>
      <trkpt lat="44.66952" lon="4.89675">
        <ele>424.2</ele>
        <time>2021-07-10T09:34:22</time>
      </trkpt>
      <trkpt lat="44.66956" lon="4.89676">
        <ele>424</ele>
        <time>2021-07-10T09:34:23</time>
      </trkpt>
      <trkpt lat="44.66958" lon="4.89677">
        <ele>424</ele>
        <time>2021-07-10T09:34:24</time>
      </trkpt>
      <trkpt lat="44.66962" lon="4.89683">
        <ele>424</ele>
        <time>2021-07-10T09:34:25</time>
      </trkpt>
      <trkpt lat="44.66962" lon="4.89683">
        <ele>424</ele>
        <time>2021-07-10T09:34:26</time>
      </trkpt>
      <trkpt lat="44.66964" lon="4.89684">
        <ele>424.2</ele>
        <time>2021-07-10T09:34:27</time>
      </trkpt>
      <trkpt lat="44.66966" lon="4.8969">
        <ele>424.2</ele>
        <time>2021-07-10T09:34:28</time>
      </trkpt>
      <trkpt lat="44.66966" lon="4.8969">
        <ele>424.4</ele>
        <time>2021-07-10T09:34:29</time>
      </trkpt>
      <trkpt lat="44.66971" lon="4.89693">
        <ele>424.4</ele>
        <time>2021-07-10T09:34:30</time>
      </trkpt>
      <trkpt lat="44.66971" lon="4.89693">
        <ele>424.4</ele>
        <time>2021-07-10T09:34:31</time>
      </trkpt>
      <trkpt lat="44.66973" lon="4.89697">
        <ele>424.6</ele>
        <time>2021-07-10T09:34:32</time>
      </trkpt>
      <trkpt lat="44.66975" lon="4.89699">
        <ele>424.6</ele>
        <time>2021-07-10T09:34:33</time>
      </trkpt>
      <trkpt lat="44.66977" lon="4.89701">
        <ele>424.4</ele>
        <time>2021-07-10T09:34:34</time>
      </trkpt>
      <trkpt lat="44.66981" lon="4.89706">
        <ele>424.4</ele>
        <time>2021-07-10T09:34:35</time>
      </trkpt>
      <trkpt lat="44.66981" lon="4.89706">
        <ele>424.6</ele>
        <time>2021-07-10T09:34:36</time>
      </trkpt>
      <trkpt lat="44.66984" lon="4.89709">
        <ele>424.8</ele>
        <time>2021-07-10T09:34:37</time>
      </trkpt>
      <trkpt lat="44.66984" lon="4.89712">
        <ele>425</ele>
        <time>2021-07-10T09:34:38</time>
      </trkpt>
      <trkpt lat="44.66985" lon="4.89717">
        <ele>425.2</ele>
        <time>2021-07-10T09:34:39</time>
      </trkpt>
      <trkpt lat="44.66985" lon="4.89717">
        <ele>425.2</ele>
        <time>2021-07-10T09:34:40</time>
      </trkpt>
      <trkpt lat="44.66984" lon="4.8972">
        <ele>425.4</ele>
        <time>2021-07-10T09:34:41</time>
      </trkpt>
      <trkpt lat="44.66985" lon="4.89721">
        <ele>425.4</ele>
        <time>2021-07-10T09:34:42</time>
      </trkpt>
      <trkpt lat="44.66985" lon="4.89723">
        <ele>425.6</ele>
        <time>2021-07-10T09:34:43</time>
      </trkpt>
      <trkpt lat="44.66986" lon="4.89726">
        <ele>425.6</ele>
        <time>2021-07-10T09:34:44</time>
      </trkpt>
      <trkpt lat="44.66987" lon="4.8973">
        <ele>425.6</ele>
        <time>2021-07-10T09:34:45</time>
      </trkpt>
      <trkpt lat="44.66993" lon="4.89734">
        <ele>425.6</ele>
        <time>2021-07-10T09:34:46</time>
      </trkpt>
      <trkpt lat="44.66993" lon="4.89734">
        <ele>425.6</ele>
        <time>2021-07-10T09:34:47</time>
      </trkpt>
      <trkpt lat="44.66993" lon="4.89738">
        <ele>425.6</ele>
        <time>2021-07-10T09:34:48</time>
      </trkpt>
      <trkpt lat="44.66994" lon="4.89742">
        <ele>425.8</ele>
        <time>2021-07-10T09:34:49</time>
      </trkpt>
      <trkpt lat="44.66992" lon="4.89749">
        <ele>425.8</ele>
        <time>2021-07-10T09:34:50</time>
      </trkpt>
      <trkpt lat="44.66992" lon="4.89749">
        <ele>426</ele>
        <time>2021-07-10T09:34:51</time>
      </trkpt>
      <trkpt lat="44.66991" lon="4.89753">
        <ele>426</ele>
        <time>2021-07-10T09:34:52</time>
      </trkpt>
      <trkpt lat="44.66988" lon="4.89756">
        <ele>426.2</ele>
        <time>2021-07-10T09:34:53</time>
      </trkpt>
      <trkpt lat="44.66988" lon="4.89756">
        <ele>426.4</ele>
        <time>2021-07-10T09:34:54</time>
      </trkpt>
      <trkpt lat="44.66983" lon="4.89757">
        <ele>426.4</ele>
        <time>2021-07-10T09:34:55</time>
      </trkpt>
      <trkpt lat="44.66983" lon="4.89757">
        <ele>426.6</ele>
        <time>2021-07-10T09:34:56</time>
      </trkpt>
      <trkpt lat="44.66981" lon="4.89758">
        <ele>426.6</ele>
        <time>2021-07-10T09:34:57</time>
      </trkpt>
      <trkpt lat="44.6698" lon="4.89758">
        <ele>426.6</ele>
        <time>2021-07-10T09:34:58</time>
      </trkpt>
      <trkpt lat="44.66976" lon="4.89759">
        <ele>426.6</ele>
        <time>2021-07-10T09:34:59</time>
      </trkpt>
      <trkpt lat="44.6697" lon="4.89761">
        <ele>426.6</ele>
        <time>2021-07-10T09:35:00</time>
      </trkpt>
      <trkpt lat="44.6697" lon="4.89761">
        <ele>426.6</ele>
        <time>2021-07-10T09:35:01</time>
      </trkpt>
      <trkpt lat="44.66967" lon="4.89763">
        <ele>426.6</ele>
        <time>2021-07-10T09:35:02</time>
      </trkpt>
      <trkpt lat="44.66965" lon="4.89765">
        <ele>426.6</ele>
        <time>2021-07-10T09:35:03</time>
      </trkpt>
      <trkpt lat="44.66961" lon="4.89767">
        <ele>426.6</ele>
        <time>2021-07-10T09:35:04</time>
      </trkpt>
      <trkpt lat="44.66958" lon="4.8977">
        <ele>426.6</ele>
        <time>2021-07-10T09:35:05</time>
      </trkpt>
      <trkpt lat="44.66957" lon="4.89774">
        <ele>426.6</ele>
        <time>2021-07-10T09:35:06</time>
      </trkpt>
      <trkpt lat="44.66955" lon="4.89778">
        <ele>426.8</ele>
        <time>2021-07-10T09:35:07</time>
      </trkpt>
      <trkpt lat="44.66954" lon="4.89782">
        <ele>426.8</ele>
        <time>2021-07-10T09:35:08</time>
      </trkpt>
      <trkpt lat="44.66954" lon="4.89788">
        <ele>426.8</ele>
        <time>2021-07-10T09:35:09</time>
      </trkpt>
      <trkpt lat="44.66955" lon="4.89793">
        <ele>426.8</ele>
        <time>2021-07-10T09:35:10</time>
      </trkpt>
      <trkpt lat="44.66957" lon="4.89795">
        <ele>426.8</ele>
        <time>2021-07-10T09:35:11</time>
      </trkpt>
      <trkpt lat="44.66957" lon="4.89795">
        <ele>426.8</ele>
        <time>2021-07-10T09:35:12</time>
      </trkpt>
      <trkpt lat="44.66959" lon="4.89809">
        <ele>426.8</ele>
        <time>2021-07-10T09:35:13</time>
      </trkpt>
      <trkpt lat="44.66961" lon="4.89815">
        <ele>426.8</ele>
        <time>2021-07-10T09:35:14</time>
      </trkpt>
      <trkpt lat="44.66961" lon="4.8982">
        <ele>426.8</ele>
        <time>2021-07-10T09:35:15</time>
      </trkpt>
      <trkpt lat="44.66963" lon="4.89824">
        <ele>427</ele>
        <time>2021-07-10T09:35:16</time>
      </trkpt>
      <trkpt lat="44.66964" lon="4.89829">
        <ele>427.2</ele>
        <time>2021-07-10T09:35:17</time>
      </trkpt>
      <trkpt lat="44.66964" lon="4.89833">
        <ele>427.2</ele>
        <time>2021-07-10T09:35:18</time>
      </trkpt>
      <trkpt lat="44.66966" lon="4.89838">
        <ele>427.2</ele>
        <time>2021-07-10T09:35:19</time>
      </trkpt>
      <trkpt lat="44.66968" lon="4.89848">
        <ele>427.2</ele>
        <time>2021-07-10T09:35:20</time>
      </trkpt>
      <trkpt lat="44.66968" lon="4.89848">
        <ele>427.2</ele>
        <time>2021-07-10T09:35:21</time>
      </trkpt>
      <trkpt lat="44.66969" lon="4.89853">
        <ele>427.2</ele>
        <time>2021-07-10T09:35:22</time>
      </trkpt>
      <trkpt lat="44.66972" lon="4.89862">
        <ele>427.2</ele>
        <time>2021-07-10T09:35:23</time>
      </trkpt>
      <trkpt lat="44.66972" lon="4.89862">
        <ele>427</ele>
        <time>2021-07-10T09:35:24</time>
      </trkpt>
      <trkpt lat="44.66973" lon="4.89869">
        <ele>427</ele>
        <time>2021-07-10T09:35:25</time>
      </trkpt>
      <trkpt lat="44.66975" lon="4.89874">
        <ele>427</ele>
        <time>2021-07-10T09:35:26</time>
      </trkpt>
      <trkpt lat="44.66975" lon="4.89877">
        <ele>427</ele>
        <time>2021-07-10T09:35:27</time>
      </trkpt>
      <trkpt lat="44.66977" lon="4.8988">
        <ele>427</ele>
        <time>2021-07-10T09:35:28</time>
      </trkpt>
      <trkpt lat="44.66977" lon="4.89882">
        <ele>427</ele>
        <time>2021-07-10T09:35:29</time>
      </trkpt>
      <trkpt lat="44.66979" lon="4.89882">
        <ele>427</ele>
        <time>2021-07-10T09:35:30</time>
      </trkpt>
      <trkpt lat="44.66978" lon="4.89882">
        <ele>426.8</ele>
        <time>2021-07-10T09:35:31</time>
      </trkpt>
      <trkpt lat="44.66979" lon="4.89882">
        <ele>426.8</ele>
        <time>2021-07-10T09:35:32</time>
      </trkpt>
      <trkpt lat="44.66979" lon="4.89882">
        <ele>426.8</ele>
        <time>2021-07-10T09:35:33</time>
      </trkpt>
      <trkpt lat="44.66979" lon="4.89883">
        <ele>426.6</ele>
        <time>2021-07-10T09:35:34</time>
      </trkpt>
      <trkpt lat="44.6698" lon="4.89882">
        <ele>426.6</ele>
        <time>2021-07-10T09:35:35</time>
      </trkpt>
      <trkpt lat="44.66981" lon="4.89884">
        <ele>426.4</ele>
        <time>2021-07-10T09:35:36</time>
      </trkpt>
      <trkpt lat="44.66981" lon="4.89884">
        <ele>426.4</ele>
        <time>2021-07-10T09:35:37</time>
      </trkpt>
      <trkpt lat="44.66981" lon="4.89882">
        <ele>426.4</ele>
        <time>2021-07-10T09:35:38</time>
      </trkpt>
      <trkpt lat="44.66981" lon="4.89882">
        <ele>426.2</ele>
        <time>2021-07-10T09:35:39</time>
      </trkpt>
      <trkpt lat="44.67004" lon="4.89895">
        <ele>424.8</ele>
        <time>2021-07-10T09:37:07</time>
      </trkpt>
      <trkpt lat="44.67006" lon="4.89897">
        <ele>425</ele>
        <time>2021-07-10T09:37:08</time>
      </trkpt>
      <trkpt lat="44.6701" lon="4.899">
        <ele>425.2</ele>
        <time>2021-07-10T09:37:09</time>
      </trkpt>
      <trkpt lat="44.67014" lon="4.89903">
        <ele>425.2</ele>
        <time>2021-07-10T09:37:10</time>
      </trkpt>
      <trkpt lat="44.67017" lon="4.89905">
        <ele>425.2</ele>
        <time>2021-07-10T09:37:11</time>
      </trkpt>
      <trkpt lat="44.67021" lon="4.89904">
        <ele>425.4</ele>
        <time>2021-07-10T09:37:12</time>
      </trkpt>
      <trkpt lat="44.67025" lon="4.89905">
        <ele>425.4</ele>
        <time>2021-07-10T09:37:13</time>
      </trkpt>
      <trkpt lat="44.67027" lon="4.89907">
        <ele>425.6</ele>
        <time>2021-07-10T09:37:14</time>
      </trkpt>
      <trkpt lat="44.67031" lon="4.89909">
        <ele>425.6</ele>
        <time>2021-07-10T09:37:15</time>
      </trkpt>
      <trkpt lat="44.67033" lon="4.89912">
        <ele>425.8</ele>
        <time>2021-07-10T09:37:16</time>
      </trkpt>
      <trkpt lat="44.67037" lon="4.89914">
        <ele>425.8</ele>
        <time>2021-07-10T09:37:17</time>
      </trkpt>
      <trkpt lat="44.67039" lon="4.89915">
        <ele>425.8</ele>
        <time>2021-07-10T09:37:18</time>
      </trkpt>
      <trkpt lat="44.67044" lon="4.89918">
        <ele>425.6</ele>
        <time>2021-07-10T09:37:19</time>
      </trkpt>
      <trkpt lat="44.67055" lon="4.89924">
        <ele>425.6</ele>
        <time>2021-07-10T09:37:20</time>
      </trkpt>
      <trkpt lat="44.67055" lon="4.89924">
        <ele>425.4</ele>
        <time>2021-07-10T09:37:21</time>
      </trkpt>
      <trkpt lat="44.67066" lon="4.89928">
        <ele>425.2</ele>
        <time>2021-07-10T09:37:22</time>
      </trkpt>
      <trkpt lat="44.67066" lon="4.89928">
        <ele>424.8</ele>
        <time>2021-07-10T09:37:23</time>
      </trkpt>
      <trkpt lat="44.67073" lon="4.8993">
        <ele>424.6</ele>
        <time>2021-07-10T09:37:24</time>
      </trkpt>
      <trkpt lat="44.67078" lon="4.89934">
        <ele>424.2</ele>
        <time>2021-07-10T09:37:25</time>
      </trkpt>
      <trkpt lat="44.67078" lon="4.89934">
        <ele>423.8</ele>
        <time>2021-07-10T09:37:26</time>
      </trkpt>
      <trkpt lat="44.67085" lon="4.89949">
        <ele>423.2</ele>
        <time>2021-07-10T09:37:27</time>
      </trkpt>
      <trkpt lat="44.67086" lon="4.89958">
        <ele>422.4</ele>
        <time>2021-07-10T09:37:28</time>
      </trkpt>
      <trkpt lat="44.67087" lon="4.89967">
        <ele>421.6</ele>
        <time>2021-07-10T09:37:29</time>
      </trkpt>
      <trkpt lat="44.67092" lon="4.89974">
        <ele>421</ele>
        <time>2021-07-10T09:37:30</time>
      </trkpt>
      <trkpt lat="44.67096" lon="4.89978">
        <ele>420.2</ele>
        <time>2021-07-10T09:37:31</time>
      </trkpt>
      <trkpt lat="44.67099" lon="4.89985">
        <ele>419.6</ele>
        <time>2021-07-10T09:37:32</time>
      </trkpt>
      <trkpt lat="44.67103" lon="4.8999">
        <ele>419</ele>
        <time>2021-07-10T09:37:33</time>
      </trkpt>
      <trkpt lat="44.67103" lon="4.8999">
        <ele>418.4</ele>
        <time>2021-07-10T09:37:34</time>
      </trkpt>
      <trkpt lat="44.67109" lon="4.9">
        <ele>417.8</ele>
        <time>2021-07-10T09:37:35</time>
      </trkpt>
      <trkpt lat="44.67114" lon="4.90013">
        <ele>417.2</ele>
        <time>2021-07-10T09:37:36</time>
      </trkpt>
      <trkpt lat="44.67114" lon="4.90013">
        <ele>416.6</ele>
        <time>2021-07-10T09:37:37</time>
      </trkpt>
      <trkpt lat="44.67118" lon="4.90018">
        <ele>416</ele>
        <time>2021-07-10T09:37:38</time>
      </trkpt>
      <trkpt lat="44.67123" lon="4.90023">
        <ele>415.4</ele>
        <time>2021-07-10T09:37:39</time>
      </trkpt>
      <trkpt lat="44.67131" lon="4.90046">
        <ele>414.8</ele>
        <time>2021-07-10T09:37:40</time>
      </trkpt>
      <trkpt lat="44.67131" lon="4.90046">
        <ele>414.4</ele>
        <time>2021-07-10T09:37:41</time>
      </trkpt>
      <trkpt lat="44.67134" lon="4.90058">
        <ele>413.6</ele>
        <time>2021-07-10T09:37:42</time>
      </trkpt>
      <trkpt lat="44.67139" lon="4.90069">
        <ele>412.6</ele>
        <time>2021-07-10T09:37:43</time>
      </trkpt>
      <trkpt lat="44.67147" lon="4.90092">
        <ele>411.6</ele>
        <time>2021-07-10T09:37:44</time>
      </trkpt>
      <trkpt lat="44.67147" lon="4.90092">
        <ele>410.6</ele>
        <time>2021-07-10T09:37:45</time>
      </trkpt>
      <trkpt lat="44.67152" lon="4.90103">
        <ele>409.8</ele>
        <time>2021-07-10T09:37:46</time>
      </trkpt>
      <trkpt lat="44.67156" lon="4.90113">
        <ele>408.8</ele>
        <time>2021-07-10T09:37:47</time>
      </trkpt>
      <trkpt lat="44.67168" lon="4.90127">
        <ele>407.4</ele>
        <time>2021-07-10T09:37:48</time>
      </trkpt>
      <trkpt lat="44.67168" lon="4.90127">
        <ele>406.2</ele>
        <time>2021-07-10T09:37:49</time>
      </trkpt>
      <trkpt lat="44.67174" lon="4.90139">
        <ele>405.2</ele>
        <time>2021-07-10T09:37:50</time>
      </trkpt>
      <trkpt lat="44.67181" lon="4.90147">
        <ele>404.6</ele>
        <time>2021-07-10T09:37:51</time>
      </trkpt>
      <trkpt lat="44.67191" lon="4.90154">
        <ele>404.2</ele>
        <time>2021-07-10T09:37:52</time>
      </trkpt>
      <trkpt lat="44.67191" lon="4.90154">
        <ele>403.8</ele>
        <time>2021-07-10T09:37:53</time>
      </trkpt>
      <trkpt lat="44.67195" lon="4.90158">
        <ele>403.4</ele>
        <time>2021-07-10T09:37:54</time>
      </trkpt>
      <trkpt lat="44.67199" lon="4.9016">
        <ele>403.2</ele>
        <time>2021-07-10T09:37:55</time>
      </trkpt>
      <trkpt lat="44.67199" lon="4.9016">
        <ele>403.2</ele>
        <time>2021-07-10T09:37:56</time>
      </trkpt>
      <trkpt lat="44.67209" lon="4.90162">
        <ele>403.4</ele>
        <time>2021-07-10T09:37:57</time>
      </trkpt>
      <trkpt lat="44.67212" lon="4.90163">
        <ele>403.4</ele>
        <time>2021-07-10T09:37:58</time>
      </trkpt>
      <trkpt lat="44.67217" lon="4.90163">
        <ele>403.6</ele>
        <time>2021-07-10T09:37:59</time>
      </trkpt>
      <trkpt lat="44.67221" lon="4.90163">
        <ele>403.8</ele>
        <time>2021-07-10T09:38:00</time>
      </trkpt>
      <trkpt lat="44.67225" lon="4.90163">
        <ele>404</ele>
        <time>2021-07-10T09:38:01</time>
      </trkpt>
      <trkpt lat="44.67229" lon="4.9016">
        <ele>404.2</ele>
        <time>2021-07-10T09:38:02</time>
      </trkpt>
      <trkpt lat="44.67232" lon="4.90161">
        <ele>404.2</ele>
        <time>2021-07-10T09:38:03</time>
      </trkpt>
      <trkpt lat="44.67232" lon="4.90161">
        <ele>404.4</ele>
        <time>2021-07-10T09:38:04</time>
      </trkpt>
      <trkpt lat="44.67237" lon="4.90161">
        <ele>404.6</ele>
        <time>2021-07-10T09:38:05</time>
      </trkpt>
      <trkpt lat="44.6724" lon="4.90162">
        <ele>404.6</ele>
        <time>2021-07-10T09:38:06</time>
      </trkpt>
      <trkpt lat="44.67242" lon="4.90163">
        <ele>405</ele>
        <time>2021-07-10T09:38:07</time>
      </trkpt>
      <trkpt lat="44.67244" lon="4.90163">
        <ele>405.4</ele>
        <time>2021-07-10T09:38:08</time>
      </trkpt>
      <trkpt lat="44.67248" lon="4.90165">
        <ele>405.8</ele>
        <time>2021-07-10T09:38:09</time>
      </trkpt>
      <trkpt lat="44.6725" lon="4.90167">
        <ele>406.2</ele>
        <time>2021-07-10T09:38:10</time>
      </trkpt>
      <trkpt lat="44.67255" lon="4.90167">
        <ele>406.2</ele>
        <time>2021-07-10T09:38:11</time>
      </trkpt>
      <trkpt lat="44.67255" lon="4.90167">
        <ele>406.4</ele>
        <time>2021-07-10T09:38:12</time>
      </trkpt>
      <trkpt lat="44.67257" lon="4.90167">
        <ele>406.4</ele>
        <time>2021-07-10T09:38:13</time>
      </trkpt>
      <trkpt lat="44.67261" lon="4.90169">
        <ele>406.4</ele>
        <time>2021-07-10T09:38:14</time>
      </trkpt>
      <trkpt lat="44.67261" lon="4.90169">
        <ele>406.4</ele>
        <time>2021-07-10T09:38:15</time>
      </trkpt>
      <trkpt lat="44.67265" lon="4.9017">
        <ele>406.6</ele>
        <time>2021-07-10T09:38:16</time>
      </trkpt>
      <trkpt lat="44.67266" lon="4.90171">
        <ele>406.6</ele>
        <time>2021-07-10T09:38:17</time>
      </trkpt>
      <trkpt lat="44.6727" lon="4.90179">
        <ele>406.8</ele>
        <time>2021-07-10T09:38:18</time>
      </trkpt>
      <trkpt lat="44.6727" lon="4.90179">
        <ele>407</ele>
        <time>2021-07-10T09:38:19</time>
      </trkpt>
      <trkpt lat="44.67271" lon="4.90181">
        <ele>407.2</ele>
        <time>2021-07-10T09:38:20</time>
      </trkpt>
      <trkpt lat="44.67275" lon="4.90189">
        <ele>407.4</ele>
        <time>2021-07-10T09:38:21</time>
      </trkpt>
      <trkpt lat="44.67275" lon="4.90189">
        <ele>407.6</ele>
        <time>2021-07-10T09:38:22</time>
      </trkpt>
      <trkpt lat="44.67275" lon="4.90192">
        <ele>408</ele>
        <time>2021-07-10T09:38:23</time>
      </trkpt>
      <trkpt lat="44.67275" lon="4.90192">
        <ele>408.4</ele>
        <time>2021-07-10T09:38:24</time>
      </trkpt>
      <trkpt lat="44.67279" lon="4.90197">
        <ele>408.6</ele>
        <time>2021-07-10T09:38:25</time>
      </trkpt>
      <trkpt lat="44.67279" lon="4.90197">
        <ele>408.8</ele>
        <time>2021-07-10T09:38:26</time>
      </trkpt>
      <trkpt lat="44.67284" lon="4.90202">
        <ele>409.2</ele>
        <time>2021-07-10T09:38:27</time>
      </trkpt>
      <trkpt lat="44.67286" lon="4.90207">
        <ele>409.6</ele>
        <time>2021-07-10T09:38:28</time>
      </trkpt>
      <trkpt lat="44.67286" lon="4.90207">
        <ele>410</ele>
        <time>2021-07-10T09:38:29</time>
      </trkpt>
      <trkpt lat="44.67288" lon="4.90209">
        <ele>410.2</ele>
        <time>2021-07-10T09:38:30</time>
      </trkpt>
      <trkpt lat="44.67291" lon="4.90212">
        <ele>410.4</ele>
        <time>2021-07-10T09:38:31</time>
      </trkpt>
      <trkpt lat="44.67291" lon="4.90212">
        <ele>410.4</ele>
        <time>2021-07-10T09:38:32</time>
      </trkpt>
      <trkpt lat="44.67292" lon="4.90214">
        <ele>410.4</ele>
        <time>2021-07-10T09:38:33</time>
      </trkpt>
      <trkpt lat="44.67294" lon="4.90214">
        <ele>410.6</ele>
        <time>2021-07-10T09:38:34</time>
      </trkpt>
      <trkpt lat="44.67296" lon="4.90216">
        <ele>410.8</ele>
        <time>2021-07-10T09:38:35</time>
      </trkpt>
      <trkpt lat="44.67296" lon="4.90216">
        <ele>411</ele>
        <time>2021-07-10T09:38:36</time>
      </trkpt>
      <trkpt lat="44.673" lon="4.90219">
        <ele>411</ele>
        <time>2021-07-10T09:38:37</time>
      </trkpt>
      <trkpt lat="44.67306" lon="4.90225">
        <ele>411.2</ele>
        <time>2021-07-10T09:38:38</time>
      </trkpt>
      <trkpt lat="44.67306" lon="4.90225">
        <ele>411.6</ele>
        <time>2021-07-10T09:38:39</time>
      </trkpt>
      <trkpt lat="44.67309" lon="4.90225">
        <ele>411.8</ele>
        <time>2021-07-10T09:38:40</time>
      </trkpt>
      <trkpt lat="44.6731" lon="4.90227">
        <ele>412</ele>
        <time>2021-07-10T09:38:41</time>
      </trkpt>
      <trkpt lat="44.67312" lon="4.90229">
        <ele>412.2</ele>
        <time>2021-07-10T09:38:42</time>
      </trkpt>
      <trkpt lat="44.67315" lon="4.90229">
        <ele>412.4</ele>
        <time>2021-07-10T09:38:43</time>
      </trkpt>
      <trkpt lat="44.67319" lon="4.90234">
        <ele>412.4</ele>
        <time>2021-07-10T09:38:44</time>
      </trkpt>
      <trkpt lat="44.67319" lon="4.90234">
        <ele>412.6</ele>
        <time>2021-07-10T09:38:45</time>
      </trkpt>
      <trkpt lat="44.67323" lon="4.90238">
        <ele>412.6</ele>
        <time>2021-07-10T09:38:46</time>
      </trkpt>
      <trkpt lat="44.67323" lon="4.90238">
        <ele>412.6</ele>
        <time>2021-07-10T09:38:47</time>
      </trkpt>
      <trkpt lat="44.67325" lon="4.90241">
        <ele>412.8</ele>
        <time>2021-07-10T09:38:48</time>
      </trkpt>
      <trkpt lat="44.67326" lon="4.90246">
        <ele>413</ele>
        <time>2021-07-10T09:38:49</time>
      </trkpt>
      <trkpt lat="44.67328" lon="4.90246">
        <ele>413.2</ele>
        <time>2021-07-10T09:38:50</time>
      </trkpt>
      <trkpt lat="44.6733" lon="4.90247">
        <ele>413.4</ele>
        <time>2021-07-10T09:38:51</time>
      </trkpt>
      <trkpt lat="44.67332" lon="4.90248">
        <ele>413.6</ele>
        <time>2021-07-10T09:38:52</time>
      </trkpt>
      <trkpt lat="44.67334" lon="4.90253">
        <ele>413.8</ele>
        <time>2021-07-10T09:38:53</time>
      </trkpt>
      <trkpt lat="44.67334" lon="4.90253">
        <ele>414.2</ele>
        <time>2021-07-10T09:38:54</time>
      </trkpt>
      <trkpt lat="44.67336" lon="4.90254">
        <ele>414.4</ele>
        <time>2021-07-10T09:38:55</time>
      </trkpt>
      <trkpt lat="44.67338" lon="4.90255">
        <ele>414.6</ele>
        <time>2021-07-10T09:38:56</time>
      </trkpt>
      <trkpt lat="44.6734" lon="4.90257">
        <ele>414.8</ele>
        <time>2021-07-10T09:38:57</time>
      </trkpt>
      <trkpt lat="44.67343" lon="4.9026">
        <ele>414.8</ele>
        <time>2021-07-10T09:38:58</time>
      </trkpt>
      <trkpt lat="44.67344" lon="4.90261">
        <ele>415</ele>
        <time>2021-07-10T09:38:59</time>
      </trkpt>
      <trkpt lat="44.67347" lon="4.90264">
        <ele>415.2</ele>
        <time>2021-07-10T09:39:00</time>
      </trkpt>
      <trkpt lat="44.67349" lon="4.90268">
        <ele>415.4</ele>
        <time>2021-07-10T09:39:01</time>
      </trkpt>
      <trkpt lat="44.67349" lon="4.90268">
        <ele>415.8</ele>
        <time>2021-07-10T09:39:02</time>
      </trkpt>
      <trkpt lat="44.67353" lon="4.90269">
        <ele>415.8</ele>
        <time>2021-07-10T09:39:03</time>
      </trkpt>
      <trkpt lat="44.67355" lon="4.9027">
        <ele>416</ele>
        <time>2021-07-10T09:39:04</time>
      </trkpt>
      <trkpt lat="44.67355" lon="4.90272">
        <ele>416</ele>
        <time>2021-07-10T09:39:05</time>
      </trkpt>
      <trkpt lat="44.67357" lon="4.90273">
        <ele>416.2</ele>
        <time>2021-07-10T09:39:06</time>
      </trkpt>
      <trkpt lat="44.67357" lon="4.90276">
        <ele>416.4</ele>
        <time>2021-07-10T09:39:07</time>
      </trkpt>
      <trkpt lat="44.67358" lon="4.90276">
        <ele>416.6</ele>
        <time>2021-07-10T09:39:08</time>
      </trkpt>
      <trkpt lat="44.6736" lon="4.90282">
        <ele>416.8</ele>
        <time>2021-07-10T09:39:09</time>
      </trkpt>
      <trkpt lat="44.6736" lon="4.90282">
        <ele>417.2</ele>
        <time>2021-07-10T09:39:10</time>
      </trkpt>
      <trkpt lat="44.67361" lon="4.90283">
        <ele>417.4</ele>
        <time>2021-07-10T09:39:11</time>
      </trkpt>
      <trkpt lat="44.67363" lon="4.90286">
        <ele>417.6</ele>
        <time>2021-07-10T09:39:12</time>
      </trkpt>
      <trkpt lat="44.67366" lon="4.90292">
        <ele>418</ele>
        <time>2021-07-10T09:39:13</time>
      </trkpt>
      <trkpt lat="44.67366" lon="4.90292">
        <ele>418.4</ele>
        <time>2021-07-10T09:39:14</time>
      </trkpt>
      <trkpt lat="44.67368" lon="4.90291">
        <ele>418.6</ele>
        <time>2021-07-10T09:39:15</time>
      </trkpt>
      <trkpt lat="44.6737" lon="4.90292">
        <ele>418.6</ele>
        <time>2021-07-10T09:39:16</time>
      </trkpt>
      <trkpt lat="44.67372" lon="4.90294">
        <ele>418.8</ele>
        <time>2021-07-10T09:39:17</time>
      </trkpt>
      <trkpt lat="44.67372" lon="4.90294">
        <ele>418.8</ele>
        <time>2021-07-10T09:39:18</time>
      </trkpt>
      <trkpt lat="44.67374" lon="4.90297">
        <ele>419</ele>
        <time>2021-07-10T09:39:19</time>
      </trkpt>
      <trkpt lat="44.67375" lon="4.90299">
        <ele>419.2</ele>
        <time>2021-07-10T09:39:20</time>
      </trkpt>
      <trkpt lat="44.67377" lon="4.903">
        <ele>419.4</ele>
        <time>2021-07-10T09:39:21</time>
      </trkpt>
      <trkpt lat="44.67378" lon="4.90301">
        <ele>419.8</ele>
        <time>2021-07-10T09:39:22</time>
      </trkpt>
      <trkpt lat="44.67379" lon="4.90304">
        <ele>420</ele>
        <time>2021-07-10T09:39:23</time>
      </trkpt>
      <trkpt lat="44.67381" lon="4.90305">
        <ele>420.2</ele>
        <time>2021-07-10T09:39:24</time>
      </trkpt>
      <trkpt lat="44.67387" lon="4.90308">
        <ele>420.4</ele>
        <time>2021-07-10T09:39:25</time>
      </trkpt>
      <trkpt lat="44.67387" lon="4.90308">
        <ele>420.8</ele>
        <time>2021-07-10T09:39:26</time>
      </trkpt>
      <trkpt lat="44.67389" lon="4.9031">
        <ele>421</ele>
        <time>2021-07-10T09:39:27</time>
      </trkpt>
      <trkpt lat="44.67392" lon="4.90312">
        <ele>421.2</ele>
        <time>2021-07-10T09:39:28</time>
      </trkpt>
      <trkpt lat="44.67393" lon="4.90313">
        <ele>421.2</ele>
        <time>2021-07-10T09:39:29</time>
      </trkpt>
      <trkpt lat="44.67394" lon="4.90315">
        <ele>421.4</ele>
        <time>2021-07-10T09:39:30</time>
      </trkpt>
      <trkpt lat="44.67395" lon="4.90316">
        <ele>421.6</ele>
        <time>2021-07-10T09:39:31</time>
      </trkpt>
      <trkpt lat="44.67397" lon="4.90319">
        <ele>421.6</ele>
        <time>2021-07-10T09:39:32</time>
      </trkpt>
      <trkpt lat="44.67397" lon="4.90319">
        <ele>421.8</ele>
        <time>2021-07-10T09:39:33</time>
      </trkpt>
      <trkpt lat="44.67398" lon="4.90321">
        <ele>422</ele>
        <time>2021-07-10T09:39:34</time>
      </trkpt>
      <trkpt lat="44.67399" lon="4.90323">
        <ele>422</ele>
        <time>2021-07-10T09:39:35</time>
      </trkpt>
      <trkpt lat="44.67402" lon="4.90324">
        <ele>422.2</ele>
        <time>2021-07-10T09:39:36</time>
      </trkpt>
      <trkpt lat="44.67404" lon="4.90325">
        <ele>422.2</ele>
        <time>2021-07-10T09:39:37</time>
      </trkpt>
      <trkpt lat="44.67406" lon="4.90328">
        <ele>422.4</ele>
        <time>2021-07-10T09:39:38</time>
      </trkpt>
      <trkpt lat="44.67409" lon="4.9033">
        <ele>422.6</ele>
        <time>2021-07-10T09:39:39</time>
      </trkpt>
      <trkpt lat="44.6741" lon="4.9033">
        <ele>422.6</ele>
        <time>2021-07-10T09:39:40</time>
      </trkpt>
      <trkpt lat="44.67411" lon="4.90331">
        <ele>422.8</ele>
        <time>2021-07-10T09:39:41</time>
      </trkpt>
      <trkpt lat="44.67413" lon="4.90335">
        <ele>423</ele>
        <time>2021-07-10T09:39:42</time>
      </trkpt>
      <trkpt lat="44.67414" lon="4.90338">
        <ele>423.2</ele>
        <time>2021-07-10T09:39:43</time>
      </trkpt>
      <trkpt lat="44.67415" lon="4.9034">
        <ele>423.2</ele>
        <time>2021-07-10T09:39:44</time>
      </trkpt>
      <trkpt lat="44.67418" lon="4.90341">
        <ele>423.4</ele>
        <time>2021-07-10T09:39:45</time>
      </trkpt>
      <trkpt lat="44.67418" lon="4.90341">
        <ele>423.6</ele>
        <time>2021-07-10T09:39:46</time>
      </trkpt>
      <trkpt lat="44.6742" lon="4.90344">
        <ele>423.8</ele>
        <time>2021-07-10T09:39:47</time>
      </trkpt>
      <trkpt lat="44.67421" lon="4.90344">
        <ele>424</ele>
        <time>2021-07-10T09:39:48</time>
      </trkpt>
      <trkpt lat="44.67423" lon="4.90345">
        <ele>424.2</ele>
        <time>2021-07-10T09:39:49</time>
      </trkpt>
      <trkpt lat="44.67424" lon="4.90346">
        <ele>424.4</ele>
        <time>2021-07-10T09:39:50</time>
      </trkpt>
      <trkpt lat="44.67427" lon="4.90347">
        <ele>424.6</ele>
        <time>2021-07-10T09:39:51</time>
      </trkpt>
      <trkpt lat="44.67428" lon="4.90349">
        <ele>424.8</ele>
        <time>2021-07-10T09:39:52</time>
      </trkpt>
      <trkpt lat="44.67431" lon="4.9035">
        <ele>425.2</ele>
        <time>2021-07-10T09:39:53</time>
      </trkpt>
      <trkpt lat="44.67431" lon="4.9035">
        <ele>425.2</ele>
        <time>2021-07-10T09:39:54</time>
      </trkpt>
      <trkpt lat="44.67432" lon="4.90352">
        <ele>425.4</ele>
        <time>2021-07-10T09:39:55</time>
      </trkpt>
      <trkpt lat="44.67434" lon="4.90354">
        <ele>425.4</ele>
        <time>2021-07-10T09:39:56</time>
      </trkpt>
      <trkpt lat="44.67436" lon="4.90356">
        <ele>425.6</ele>
        <time>2021-07-10T09:39:57</time>
      </trkpt>
      <trkpt lat="44.67436" lon="4.90356">
        <ele>425.8</ele>
        <time>2021-07-10T09:39:58</time>
      </trkpt>
      <trkpt lat="44.67438" lon="4.90357">
        <ele>425.8</ele>
        <time>2021-07-10T09:39:59</time>
      </trkpt>
      <trkpt lat="44.6744" lon="4.90359">
        <ele>426</ele>
        <time>2021-07-10T09:40:00</time>
      </trkpt>
      <trkpt lat="44.67443" lon="4.90361">
        <ele>426.2</ele>
        <time>2021-07-10T09:40:01</time>
      </trkpt>
      <trkpt lat="44.67444" lon="4.90362">
        <ele>426.4</ele>
        <time>2021-07-10T09:40:02</time>
      </trkpt>
      <trkpt lat="44.67445" lon="4.90364">
        <ele>426.6</ele>
        <time>2021-07-10T09:40:03</time>
      </trkpt>
      <trkpt lat="44.67447" lon="4.90368">
        <ele>426.8</ele>
        <time>2021-07-10T09:40:04</time>
      </trkpt>
      <trkpt lat="44.67448" lon="4.90369">
        <ele>427</ele>
        <time>2021-07-10T09:40:05</time>
      </trkpt>
      <trkpt lat="44.6745" lon="4.90371">
        <ele>427.2</ele>
        <time>2021-07-10T09:40:06</time>
      </trkpt>
      <trkpt lat="44.67451" lon="4.90372">
        <ele>427.6</ele>
        <time>2021-07-10T09:40:07</time>
      </trkpt>
      <trkpt lat="44.67452" lon="4.90375">
        <ele>427.6</ele>
        <time>2021-07-10T09:40:08</time>
      </trkpt>
      <trkpt lat="44.67454" lon="4.90377">
        <ele>427.8</ele>
        <time>2021-07-10T09:40:09</time>
      </trkpt>
      <trkpt lat="44.67455" lon="4.90378">
        <ele>428</ele>
        <time>2021-07-10T09:40:10</time>
      </trkpt>
      <trkpt lat="44.67457" lon="4.90379">
        <ele>428.2</ele>
        <time>2021-07-10T09:40:11</time>
      </trkpt>
      <trkpt lat="44.67458" lon="4.90381">
        <ele>428.4</ele>
        <time>2021-07-10T09:40:12</time>
      </trkpt>
      <trkpt lat="44.67459" lon="4.90382">
        <ele>428.6</ele>
        <time>2021-07-10T09:40:13</time>
      </trkpt>
      <trkpt lat="44.67461" lon="4.90384">
        <ele>428.8</ele>
        <time>2021-07-10T09:40:14</time>
      </trkpt>
      <trkpt lat="44.67462" lon="4.90386">
        <ele>429</ele>
        <time>2021-07-10T09:40:15</time>
      </trkpt>
      <trkpt lat="44.67464" lon="4.90387">
        <ele>429.2</ele>
        <time>2021-07-10T09:40:16</time>
      </trkpt>
      <trkpt lat="44.67466" lon="4.90388">
        <ele>429.4</ele>
        <time>2021-07-10T09:40:17</time>
      </trkpt>
      <trkpt lat="44.67467" lon="4.90389">
        <ele>429.8</ele>
        <time>2021-07-10T09:40:18</time>
      </trkpt>
      <trkpt lat="44.67469" lon="4.90391">
        <ele>430</ele>
        <time>2021-07-10T09:40:19</time>
      </trkpt>
      <trkpt lat="44.6747" lon="4.90392">
        <ele>430.2</ele>
        <time>2021-07-10T09:40:20</time>
      </trkpt>
      <trkpt lat="44.67472" lon="4.90393">
        <ele>430.2</ele>
        <time>2021-07-10T09:40:21</time>
      </trkpt>
      <trkpt lat="44.67473" lon="4.90395">
        <ele>430.4</ele>
        <time>2021-07-10T09:40:22</time>
      </trkpt>
      <trkpt lat="44.67475" lon="4.90396">
        <ele>430.6</ele>
        <time>2021-07-10T09:40:23</time>
      </trkpt>
      <trkpt lat="44.67476" lon="4.90398">
        <ele>430.8</ele>
        <time>2021-07-10T09:40:24</time>
      </trkpt>
      <trkpt lat="44.67477" lon="4.90399">
        <ele>431.2</ele>
        <time>2021-07-10T09:40:25</time>
      </trkpt>
      <trkpt lat="44.67479" lon="4.90401">
        <ele>431.4</ele>
        <time>2021-07-10T09:40:26</time>
      </trkpt>
      <trkpt lat="44.6748" lon="4.90403">
        <ele>431.6</ele>
        <time>2021-07-10T09:40:27</time>
      </trkpt>
      <trkpt lat="44.67481" lon="4.90405">
        <ele>432</ele>
        <time>2021-07-10T09:40:28</time>
      </trkpt>
      <trkpt lat="44.67482" lon="4.90406">
        <ele>432.2</ele>
        <time>2021-07-10T09:40:29</time>
      </trkpt>
      <trkpt lat="44.67484" lon="4.90408">
        <ele>432.4</ele>
        <time>2021-07-10T09:40:30</time>
      </trkpt>
      <trkpt lat="44.67486" lon="4.9041">
        <ele>432.6</ele>
        <time>2021-07-10T09:40:31</time>
      </trkpt>
      <trkpt lat="44.67487" lon="4.90411">
        <ele>432.8</ele>
        <time>2021-07-10T09:40:32</time>
      </trkpt>
      <trkpt lat="44.67489" lon="4.90413">
        <ele>433</ele>
        <time>2021-07-10T09:40:33</time>
      </trkpt>
      <trkpt lat="44.67491" lon="4.90414">
        <ele>433.2</ele>
        <time>2021-07-10T09:40:34</time>
      </trkpt>
      <trkpt lat="44.67492" lon="4.90416">
        <ele>433.4</ele>
        <time>2021-07-10T09:40:35</time>
      </trkpt>
      <trkpt lat="44.67494" lon="4.90417">
        <ele>433.6</ele>
        <time>2021-07-10T09:40:36</time>
      </trkpt>
      <trkpt lat="44.67496" lon="4.90418">
        <ele>434</ele>
        <time>2021-07-10T09:40:37</time>
      </trkpt>
      <trkpt lat="44.67497" lon="4.90419">
        <ele>434</ele>
        <time>2021-07-10T09:40:38</time>
      </trkpt>
      <trkpt lat="44.67501" lon="4.9042">
        <ele>434</ele>
        <time>2021-07-10T09:40:39</time>
      </trkpt>
      <trkpt lat="44.67501" lon="4.9042">
        <ele>434.2</ele>
        <time>2021-07-10T09:40:40</time>
      </trkpt>
      <trkpt lat="44.67504" lon="4.90422">
        <ele>434.4</ele>
        <time>2021-07-10T09:40:41</time>
      </trkpt>
      <trkpt lat="44.67504" lon="4.90422">
        <ele>434.6</ele>
        <time>2021-07-10T09:40:42</time>
      </trkpt>
      <trkpt lat="44.67507" lon="4.90422">
        <ele>435</ele>
        <time>2021-07-10T09:40:43</time>
      </trkpt>
      <trkpt lat="44.67508" lon="4.90425">
        <ele>435.2</ele>
        <time>2021-07-10T09:40:44</time>
      </trkpt>
      <trkpt lat="44.6751" lon="4.90426">
        <ele>435.6</ele>
        <time>2021-07-10T09:40:45</time>
      </trkpt>
      <trkpt lat="44.67512" lon="4.90427">
        <ele>435.8</ele>
        <time>2021-07-10T09:40:46</time>
      </trkpt>
      <trkpt lat="44.67515" lon="4.90428">
        <ele>436</ele>
        <time>2021-07-10T09:40:47</time>
      </trkpt>
      <trkpt lat="44.67516" lon="4.9043">
        <ele>436.2</ele>
        <time>2021-07-10T09:40:48</time>
      </trkpt>
      <trkpt lat="44.67519" lon="4.90431">
        <ele>436.4</ele>
        <time>2021-07-10T09:40:49</time>
      </trkpt>
      <trkpt lat="44.67519" lon="4.90434">
        <ele>436.8</ele>
        <time>2021-07-10T09:40:50</time>
      </trkpt>
      <trkpt lat="44.6752" lon="4.90435">
        <ele>437</ele>
        <time>2021-07-10T09:40:51</time>
      </trkpt>
      <trkpt lat="44.67522" lon="4.90433">
        <ele>437.2</ele>
        <time>2021-07-10T09:40:52</time>
      </trkpt>
      <trkpt lat="44.67522" lon="4.90433">
        <ele>437.4</ele>
        <time>2021-07-10T09:40:53</time>
      </trkpt>
      <trkpt lat="44.67524" lon="4.90435">
        <ele>437.6</ele>
        <time>2021-07-10T09:40:54</time>
      </trkpt>
      <trkpt lat="44.67526" lon="4.90434">
        <ele>437.6</ele>
        <time>2021-07-10T09:40:55</time>
      </trkpt>
      <trkpt lat="44.6753" lon="4.90433">
        <ele>437.8</ele>
        <time>2021-07-10T09:40:56</time>
      </trkpt>
      <trkpt lat="44.67534" lon="4.90435">
        <ele>437.8</ele>
        <time>2021-07-10T09:40:57</time>
      </trkpt>
      <trkpt lat="44.67537" lon="4.90436">
        <ele>438</ele>
        <time>2021-07-10T09:40:58</time>
      </trkpt>
      <trkpt lat="44.6754" lon="4.90437">
        <ele>438.2</ele>
        <time>2021-07-10T09:40:59</time>
      </trkpt>
      <trkpt lat="44.67541" lon="4.90437">
        <ele>438.4</ele>
        <time>2021-07-10T09:41:00</time>
      </trkpt>
      <trkpt lat="44.67544" lon="4.90435">
        <ele>438.6</ele>
        <time>2021-07-10T09:41:01</time>
      </trkpt>
      <trkpt lat="44.67551" lon="4.90436">
        <ele>439</ele>
        <time>2021-07-10T09:41:02</time>
      </trkpt>
      <trkpt lat="44.67551" lon="4.90436">
        <ele>439.4</ele>
        <time>2021-07-10T09:41:03</time>
      </trkpt>
      <trkpt lat="44.6755" lon="4.90435">
        <ele>439.6</ele>
        <time>2021-07-10T09:41:04</time>
      </trkpt>
      <trkpt lat="44.67554" lon="4.90435">
        <ele>440</ele>
        <time>2021-07-10T09:41:05</time>
      </trkpt>
      <trkpt lat="44.67554" lon="4.90434">
        <ele>440.2</ele>
        <time>2021-07-10T09:41:06</time>
      </trkpt>
      <trkpt lat="44.67556" lon="4.90434">
        <ele>440.6</ele>
        <time>2021-07-10T09:41:07</time>
      </trkpt>
      <trkpt lat="44.67556" lon="4.90434">
        <ele>440.8</ele>
        <time>2021-07-10T09:41:08</time>
      </trkpt>
      <trkpt lat="44.67559" lon="4.90434">
        <ele>440.8</ele>
        <time>2021-07-10T09:41:09</time>
      </trkpt>
      <trkpt lat="44.67559" lon="4.90434">
        <ele>441</ele>
        <time>2021-07-10T09:41:10</time>
      </trkpt>
      <trkpt lat="44.67561" lon="4.90434">
        <ele>441</ele>
        <time>2021-07-10T09:41:11</time>
      </trkpt>
      <trkpt lat="44.67561" lon="4.90434">
        <ele>441</ele>
        <time>2021-07-10T09:41:12</time>
      </trkpt>
      <trkpt lat="44.67562" lon="4.90433">
        <ele>441.2</ele>
        <time>2021-07-10T09:41:13</time>
      </trkpt>
      <trkpt lat="44.67564" lon="4.90429">
        <ele>441.4</ele>
        <time>2021-07-10T09:41:14</time>
      </trkpt>
      <trkpt lat="44.67564" lon="4.90429">
        <ele>441.6</ele>
        <time>2021-07-10T09:41:15</time>
      </trkpt>
      <trkpt lat="44.67565" lon="4.90429">
        <ele>441.6</ele>
        <time>2021-07-10T09:41:16</time>
      </trkpt>
      <trkpt lat="44.67564" lon="4.90429">
        <ele>441.8</ele>
        <time>2021-07-10T09:41:17</time>
      </trkpt>
      <trkpt lat="44.67568" lon="4.9043">
        <ele>442</ele>
        <time>2021-07-10T09:41:18</time>
      </trkpt>
      <trkpt lat="44.67568" lon="4.9043">
        <ele>442.2</ele>
        <time>2021-07-10T09:41:19</time>
      </trkpt>
      <trkpt lat="44.67567" lon="4.9043">
        <ele>442.2</ele>
        <time>2021-07-10T09:41:20</time>
      </trkpt>
      <trkpt lat="44.67568" lon="4.9043">
        <ele>442.4</ele>
        <time>2021-07-10T09:41:21</time>
      </trkpt>
      <trkpt lat="44.6757" lon="4.90428">
        <ele>442.6</ele>
        <time>2021-07-10T09:41:22</time>
      </trkpt>
      <trkpt lat="44.67572" lon="4.90428">
        <ele>442.8</ele>
        <time>2021-07-10T09:41:23</time>
      </trkpt>
      <trkpt lat="44.67574" lon="4.90428">
        <ele>442.8</ele>
        <time>2021-07-10T09:41:24</time>
      </trkpt>
      <trkpt lat="44.67576" lon="4.90429">
        <ele>443</ele>
        <time>2021-07-10T09:41:25</time>
      </trkpt>
      <trkpt lat="44.67577" lon="4.90431">
        <ele>443</ele>
        <time>2021-07-10T09:41:26</time>
      </trkpt>
      <trkpt lat="44.67579" lon="4.90433">
        <ele>443.2</ele>
        <time>2021-07-10T09:41:27</time>
      </trkpt>
      <trkpt lat="44.67579" lon="4.90433">
        <ele>443.2</ele>
        <time>2021-07-10T09:41:28</time>
      </trkpt>
      <trkpt lat="44.67581" lon="4.90432">
        <ele>442.4</ele>
        <time>2021-07-10T09:41:29</time>
      </trkpt>
      <trkpt lat="44.67583" lon="4.90432">
        <ele>436.4</ele>
        <time>2021-07-10T09:41:30</time>
      </trkpt>
      <trkpt lat="44.67585" lon="4.90429">
        <ele>436.4</ele>
        <time>2021-07-10T09:41:31</time>
      </trkpt>
      <trkpt lat="44.67588" lon="4.9043">
        <ele>436.8</ele>
        <time>2021-07-10T09:41:32</time>
      </trkpt>
      <trkpt lat="44.67589" lon="4.90432">
        <ele>437.8</ele>
        <time>2021-07-10T09:41:33</time>
      </trkpt>
      <trkpt lat="44.6759" lon="4.90433">
        <ele>444</ele>
        <time>2021-07-10T09:41:34</time>
      </trkpt>
      <trkpt lat="44.67591" lon="4.90434">
        <ele>444</ele>
        <time>2021-07-10T09:41:35</time>
      </trkpt>
      <trkpt lat="44.67593" lon="4.90435">
        <ele>443.6</ele>
        <time>2021-07-10T09:41:36</time>
      </trkpt>
      <trkpt lat="44.67595" lon="4.90434">
        <ele>443.4</ele>
        <time>2021-07-10T09:41:37</time>
      </trkpt>
      <trkpt lat="44.67595" lon="4.90434">
        <ele>443.2</ele>
        <time>2021-07-10T09:41:38</time>
      </trkpt>
      <trkpt lat="44.67597" lon="4.90432">
        <ele>443.2</ele>
        <time>2021-07-10T09:41:39</time>
      </trkpt>
      <trkpt lat="44.67598" lon="4.9043">
        <ele>443.2</ele>
        <time>2021-07-10T09:41:40</time>
      </trkpt>
      <trkpt lat="44.67598" lon="4.90428">
        <ele>443.2</ele>
        <time>2021-07-10T09:41:41</time>
      </trkpt>
      <trkpt lat="44.67597" lon="4.90423">
        <ele>443.4</ele>
        <time>2021-07-10T09:41:42</time>
      </trkpt>
      <trkpt lat="44.67598" lon="4.90418">
        <ele>443.4</ele>
        <time>2021-07-10T09:41:43</time>
      </trkpt>
      <trkpt lat="44.67598" lon="4.90418">
        <ele>443.6</ele>
        <time>2021-07-10T09:41:44</time>
      </trkpt>
      <trkpt lat="44.67599" lon="4.90415">
        <ele>443.8</ele>
        <time>2021-07-10T09:41:45</time>
      </trkpt>
      <trkpt lat="44.67598" lon="4.90414">
        <ele>443.8</ele>
        <time>2021-07-10T09:41:46</time>
      </trkpt>
      <trkpt lat="44.67597" lon="4.90407">
        <ele>443.8</ele>
        <time>2021-07-10T09:41:47</time>
      </trkpt>
      <trkpt lat="44.67597" lon="4.90407">
        <ele>444</ele>
        <time>2021-07-10T09:41:48</time>
      </trkpt>
      <trkpt lat="44.67597" lon="4.90405">
        <ele>444.2</ele>
        <time>2021-07-10T09:41:49</time>
      </trkpt>
      <trkpt lat="44.67598" lon="4.90402">
        <ele>444.4</ele>
        <time>2021-07-10T09:41:50</time>
      </trkpt>
      <trkpt lat="44.67597" lon="4.90402">
        <ele>444.4</ele>
        <time>2021-07-10T09:41:51</time>
      </trkpt>
      <trkpt lat="44.67597" lon="4.90402">
        <ele>444.6</ele>
        <time>2021-07-10T09:41:52</time>
      </trkpt>
      <trkpt lat="44.67594" lon="4.90392">
        <ele>444.8</ele>
        <time>2021-07-10T09:41:53</time>
      </trkpt>
      <trkpt lat="44.67594" lon="4.90392">
        <ele>445</ele>
        <time>2021-07-10T09:41:54</time>
      </trkpt>
      <trkpt lat="44.67596" lon="4.90391">
        <ele>445</ele>
        <time>2021-07-10T09:41:55</time>
      </trkpt>
      <trkpt lat="44.67598" lon="4.9039">
        <ele>445.2</ele>
        <time>2021-07-10T09:41:56</time>
      </trkpt>
      <trkpt lat="44.67596" lon="4.90389">
        <ele>445.2</ele>
        <time>2021-07-10T09:41:57</time>
      </trkpt>
      <trkpt lat="44.67596" lon="4.90386">
        <ele>445.4</ele>
        <time>2021-07-10T09:41:58</time>
      </trkpt>
      <trkpt lat="44.67596" lon="4.90385">
        <ele>445.8</ele>
        <time>2021-07-10T09:41:59</time>
      </trkpt>
      <trkpt lat="44.67597" lon="4.90383">
        <ele>446</ele>
        <time>2021-07-10T09:42:00</time>
      </trkpt>
      <trkpt lat="44.67596" lon="4.9038">
        <ele>446.2</ele>
        <time>2021-07-10T09:42:01</time>
      </trkpt>
      <trkpt lat="44.67598" lon="4.90377">
        <ele>446.4</ele>
        <time>2021-07-10T09:42:02</time>
      </trkpt>
      <trkpt lat="44.67598" lon="4.90377">
        <ele>446.6</ele>
        <time>2021-07-10T09:42:03</time>
      </trkpt>
      <trkpt lat="44.67598" lon="4.90377">
        <ele>446.8</ele>
        <time>2021-07-10T09:42:04</time>
      </trkpt>
      <trkpt lat="44.67598" lon="4.90374">
        <ele>447</ele>
        <time>2021-07-10T09:42:05</time>
      </trkpt>
      <trkpt lat="44.67598" lon="4.9037">
        <ele>447</ele>
        <time>2021-07-10T09:42:06</time>
      </trkpt>
      <trkpt lat="44.67598" lon="4.9037">
        <ele>447.2</ele>
        <time>2021-07-10T09:42:07</time>
      </trkpt>
      <trkpt lat="44.67599" lon="4.90367">
        <ele>447.4</ele>
        <time>2021-07-10T09:42:08</time>
      </trkpt>
      <trkpt lat="44.676" lon="4.90364">
        <ele>447.6</ele>
        <time>2021-07-10T09:42:09</time>
      </trkpt>
      <trkpt lat="44.676" lon="4.90361">
        <ele>447.8</ele>
        <time>2021-07-10T09:42:10</time>
      </trkpt>
      <trkpt lat="44.67599" lon="4.90359">
        <ele>448</ele>
        <time>2021-07-10T09:42:11</time>
      </trkpt>
      <trkpt lat="44.67599" lon="4.90358">
        <ele>448.2</ele>
        <time>2021-07-10T09:42:12</time>
      </trkpt>
      <trkpt lat="44.676" lon="4.90356">
        <ele>448.4</ele>
        <time>2021-07-10T09:42:13</time>
      </trkpt>
      <trkpt lat="44.67601" lon="4.90354">
        <ele>448.6</ele>
        <time>2021-07-10T09:42:14</time>
      </trkpt>
      <trkpt lat="44.67601" lon="4.90353">
        <ele>448.8</ele>
        <time>2021-07-10T09:42:15</time>
      </trkpt>
      <trkpt lat="44.67601" lon="4.90352">
        <ele>449</ele>
        <time>2021-07-10T09:42:16</time>
      </trkpt>
      <trkpt lat="44.67602" lon="4.90351">
        <ele>449.2</ele>
        <time>2021-07-10T09:42:17</time>
      </trkpt>
      <trkpt lat="44.67601" lon="4.90348">
        <ele>449.4</ele>
        <time>2021-07-10T09:42:18</time>
      </trkpt>
      <trkpt lat="44.67601" lon="4.90344">
        <ele>449.8</ele>
        <time>2021-07-10T09:42:19</time>
      </trkpt>
      <trkpt lat="44.67601" lon="4.90344">
        <ele>450.2</ele>
        <time>2021-07-10T09:42:20</time>
      </trkpt>
      <trkpt lat="44.67602" lon="4.90343">
        <ele>450.6</ele>
        <time>2021-07-10T09:42:21</time>
      </trkpt>
      <trkpt lat="44.67603" lon="4.90344">
        <ele>451</ele>
        <time>2021-07-10T09:42:22</time>
      </trkpt>
      <trkpt lat="44.67602" lon="4.90342">
        <ele>451.2</ele>
        <time>2021-07-10T09:42:23</time>
      </trkpt>
      <trkpt lat="44.67602" lon="4.90338">
        <ele>451.2</ele>
        <time>2021-07-10T09:42:24</time>
      </trkpt>
      <trkpt lat="44.67602" lon="4.90338">
        <ele>451.4</ele>
        <time>2021-07-10T09:42:25</time>
      </trkpt>
      <trkpt lat="44.67602" lon="4.90335">
        <ele>451.6</ele>
        <time>2021-07-10T09:42:26</time>
      </trkpt>
      <trkpt lat="44.67602" lon="4.90334">
        <ele>451.8</ele>
        <time>2021-07-10T09:42:27</time>
      </trkpt>
      <trkpt lat="44.67603" lon="4.9033">
        <ele>451.8</ele>
        <time>2021-07-10T09:42:28</time>
      </trkpt>
      <trkpt lat="44.67603" lon="4.90329">
        <ele>452</ele>
        <time>2021-07-10T09:42:29</time>
      </trkpt>
      <trkpt lat="44.67602" lon="4.90327">
        <ele>452</ele>
        <time>2021-07-10T09:42:30</time>
      </trkpt>
      <trkpt lat="44.67602" lon="4.90327">
        <ele>452</ele>
        <time>2021-07-10T09:42:31</time>
      </trkpt>
      <trkpt lat="44.67602" lon="4.90322">
        <ele>452</ele>
        <time>2021-07-10T09:42:32</time>
      </trkpt>
      <trkpt lat="44.676" lon="4.90317">
        <ele>452.2</ele>
        <time>2021-07-10T09:42:33</time>
      </trkpt>
      <trkpt lat="44.676" lon="4.90317">
        <ele>452.4</ele>
        <time>2021-07-10T09:42:34</time>
      </trkpt>
      <trkpt lat="44.67598" lon="4.90314">
        <ele>452.8</ele>
        <time>2021-07-10T09:42:35</time>
      </trkpt>
      <trkpt lat="44.67597" lon="4.9031">
        <ele>452.8</ele>
        <time>2021-07-10T09:42:36</time>
      </trkpt>
      <trkpt lat="44.67596" lon="4.90308">
        <ele>453</ele>
        <time>2021-07-10T09:42:37</time>
      </trkpt>
      <trkpt lat="44.67594" lon="4.90306">
        <ele>453.2</ele>
        <time>2021-07-10T09:42:38</time>
      </trkpt>
      <trkpt lat="44.67595" lon="4.90304">
        <ele>453.2</ele>
        <time>2021-07-10T09:42:39</time>
      </trkpt>
      <trkpt lat="44.67594" lon="4.90302">
        <ele>453.2</ele>
        <time>2021-07-10T09:42:40</time>
      </trkpt>
      <trkpt lat="44.67592" lon="4.90299">
        <ele>453.4</ele>
        <time>2021-07-10T09:42:41</time>
      </trkpt>
      <trkpt lat="44.67592" lon="4.90299">
        <ele>453.4</ele>
        <time>2021-07-10T09:42:42</time>
      </trkpt>
      <trkpt lat="44.67592" lon="4.90299">
        <ele>453.6</ele>
        <time>2021-07-10T09:42:43</time>
      </trkpt>
      <trkpt lat="44.67594" lon="4.90297">
        <ele>453.8</ele>
        <time>2021-07-10T09:42:44</time>
      </trkpt>
      <trkpt lat="44.67594" lon="4.90293">
        <ele>453.8</ele>
        <time>2021-07-10T09:42:45</time>
      </trkpt>
      <trkpt lat="44.67595" lon="4.90292">
        <ele>453.8</ele>
        <time>2021-07-10T09:42:46</time>
      </trkpt>
      <trkpt lat="44.67593" lon="4.9029">
        <ele>453.6</ele>
        <time>2021-07-10T09:42:47</time>
      </trkpt>
      <trkpt lat="44.67592" lon="4.90287">
        <ele>453.6</ele>
        <time>2021-07-10T09:42:48</time>
      </trkpt>
      <trkpt lat="44.6759" lon="4.90285">
        <ele>453.4</ele>
        <time>2021-07-10T09:42:49</time>
      </trkpt>
      <trkpt lat="44.67589" lon="4.90282">
        <ele>453.4</ele>
        <time>2021-07-10T09:42:50</time>
      </trkpt>
      <trkpt lat="44.67588" lon="4.90278">
        <ele>453.2</ele>
        <time>2021-07-10T09:42:51</time>
      </trkpt>
      <trkpt lat="44.67585" lon="4.90274">
        <ele>453.2</ele>
        <time>2021-07-10T09:42:52</time>
      </trkpt>
      <trkpt lat="44.67582" lon="4.90271">
        <ele>453</ele>
        <time>2021-07-10T09:42:53</time>
      </trkpt>
      <trkpt lat="44.67582" lon="4.90267">
        <ele>453</ele>
        <time>2021-07-10T09:42:54</time>
      </trkpt>
      <trkpt lat="44.67582" lon="4.90267">
        <ele>452.8</ele>
        <time>2021-07-10T09:42:55</time>
      </trkpt>
      <trkpt lat="44.6758" lon="4.90264">
        <ele>452.8</ele>
        <time>2021-07-10T09:42:56</time>
      </trkpt>
      <trkpt lat="44.67577" lon="4.90257">
        <ele>452.8</ele>
        <time>2021-07-10T09:42:57</time>
      </trkpt>
      <trkpt lat="44.67577" lon="4.90257">
        <ele>452.8</ele>
        <time>2021-07-10T09:42:58</time>
      </trkpt>
      <trkpt lat="44.67576" lon="4.90253">
        <ele>452.8</ele>
        <time>2021-07-10T09:42:59</time>
      </trkpt>
      <trkpt lat="44.67576" lon="4.90253">
        <ele>452.8</ele>
        <time>2021-07-10T09:43:00</time>
      </trkpt>
      <trkpt lat="44.67574" lon="4.90248">
        <ele>452.8</ele>
        <time>2021-07-10T09:43:01</time>
      </trkpt>
      <trkpt lat="44.67573" lon="4.90245">
        <ele>452.8</ele>
        <time>2021-07-10T09:43:02</time>
      </trkpt>
      <trkpt lat="44.67573" lon="4.90241">
        <ele>452.8</ele>
        <time>2021-07-10T09:43:03</time>
      </trkpt>
      <trkpt lat="44.67571" lon="4.90237">
        <ele>452.8</ele>
        <time>2021-07-10T09:43:04</time>
      </trkpt>
      <trkpt lat="44.6757" lon="4.90231">
        <ele>452.8</ele>
        <time>2021-07-10T09:43:05</time>
      </trkpt>
      <trkpt lat="44.6757" lon="4.90231">
        <ele>452.6</ele>
        <time>2021-07-10T09:43:06</time>
      </trkpt>
      <trkpt lat="44.67568" lon="4.90226">
        <ele>452.6</ele>
        <time>2021-07-10T09:43:07</time>
      </trkpt>
      <trkpt lat="44.67568" lon="4.90224">
        <ele>452.6</ele>
        <time>2021-07-10T09:43:08</time>
      </trkpt>
      <trkpt lat="44.67567" lon="4.90221">
        <ele>452.6</ele>
        <time>2021-07-10T09:43:09</time>
      </trkpt>
      <trkpt lat="44.67567" lon="4.90221">
        <ele>452.6</ele>
        <time>2021-07-10T09:43:10</time>
      </trkpt>
      <trkpt lat="44.67566" lon="4.90216">
        <ele>452.6</ele>
        <time>2021-07-10T09:43:11</time>
      </trkpt>
      <trkpt lat="44.67565" lon="4.90211">
        <ele>452.6</ele>
        <time>2021-07-10T09:43:12</time>
      </trkpt>
      <trkpt lat="44.67566" lon="4.90209">
        <ele>452.6</ele>
        <time>2021-07-10T09:43:13</time>
      </trkpt>
      <trkpt lat="44.67565" lon="4.90206">
        <ele>452.6</ele>
        <time>2021-07-10T09:43:14</time>
      </trkpt>
      <trkpt lat="44.67564" lon="4.90201">
        <ele>452.8</ele>
        <time>2021-07-10T09:43:15</time>
      </trkpt>
      <trkpt lat="44.67563" lon="4.90198">
        <ele>453</ele>
        <time>2021-07-10T09:43:16</time>
      </trkpt>
      <trkpt lat="44.67561" lon="4.90195">
        <ele>453</ele>
        <time>2021-07-10T09:43:17</time>
      </trkpt>
      <trkpt lat="44.67557" lon="4.90191">
        <ele>453</ele>
        <time>2021-07-10T09:43:18</time>
      </trkpt>
      <trkpt lat="44.67555" lon="4.90191">
        <ele>453</ele>
        <time>2021-07-10T09:43:19</time>
      </trkpt>
      <trkpt lat="44.67546" lon="4.90185">
        <ele>453</ele>
        <time>2021-07-10T09:43:20</time>
      </trkpt>
      <trkpt lat="44.67546" lon="4.90185">
        <ele>453.2</ele>
        <time>2021-07-10T09:43:21</time>
      </trkpt>
      <trkpt lat="44.67545" lon="4.9018">
        <ele>453.2</ele>
        <time>2021-07-10T09:43:22</time>
      </trkpt>
      <trkpt lat="44.67543" lon="4.90178">
        <ele>453.4</ele>
        <time>2021-07-10T09:43:23</time>
      </trkpt>
      <trkpt lat="44.67543" lon="4.90178">
        <ele>453.4</ele>
        <time>2021-07-10T09:43:24</time>
      </trkpt>
      <trkpt lat="44.6754" lon="4.90174">
        <ele>453.4</ele>
        <time>2021-07-10T09:43:25</time>
      </trkpt>
      <trkpt lat="44.67539" lon="4.90171">
        <ele>453.2</ele>
        <time>2021-07-10T09:43:26</time>
      </trkpt>
      <trkpt lat="44.67537" lon="4.90167">
        <ele>453.2</ele>
        <time>2021-07-10T09:43:27</time>
      </trkpt>
      <trkpt lat="44.67536" lon="4.90164">
        <ele>453.2</ele>
        <time>2021-07-10T09:43:28</time>
      </trkpt>
      <trkpt lat="44.67534" lon="4.90161">
        <ele>453.2</ele>
        <time>2021-07-10T09:43:29</time>
      </trkpt>
      <trkpt lat="44.67531" lon="4.90159">
        <ele>453.2</ele>
        <time>2021-07-10T09:43:30</time>
      </trkpt>
      <trkpt lat="44.67529" lon="4.90155">
        <ele>453.2</ele>
        <time>2021-07-10T09:43:31</time>
      </trkpt>
      <trkpt lat="44.67526" lon="4.90154">
        <ele>453.4</ele>
        <time>2021-07-10T09:43:32</time>
      </trkpt>
      <trkpt lat="44.67525" lon="4.90153">
        <ele>453.4</ele>
        <time>2021-07-10T09:43:33</time>
      </trkpt>
      <trkpt lat="44.67522" lon="4.90151">
        <ele>453.6</ele>
        <time>2021-07-10T09:43:34</time>
      </trkpt>
      <trkpt lat="44.6752" lon="4.90149">
        <ele>453.6</ele>
        <time>2021-07-10T09:43:35</time>
      </trkpt>
      <trkpt lat="44.67519" lon="4.90145">
        <ele>453.8</ele>
        <time>2021-07-10T09:43:36</time>
      </trkpt>
      <trkpt lat="44.67518" lon="4.90141">
        <ele>453.8</ele>
        <time>2021-07-10T09:43:37</time>
      </trkpt>
      <trkpt lat="44.67514" lon="4.90134">
        <ele>453.8</ele>
        <time>2021-07-10T09:43:38</time>
      </trkpt>
      <trkpt lat="44.67514" lon="4.90134">
        <ele>454</ele>
        <time>2021-07-10T09:43:39</time>
      </trkpt>
      <trkpt lat="44.67512" lon="4.90131">
        <ele>454</ele>
        <time>2021-07-10T09:43:40</time>
      </trkpt>
      <trkpt lat="44.6751" lon="4.90127">
        <ele>454</ele>
        <time>2021-07-10T09:43:41</time>
      </trkpt>
      <trkpt lat="44.6751" lon="4.90127">
        <ele>454.2</ele>
        <time>2021-07-10T09:43:42</time>
      </trkpt>
      <trkpt lat="44.67508" lon="4.9012">
        <ele>454.2</ele>
        <time>2021-07-10T09:43:43</time>
      </trkpt>
      <trkpt lat="44.67508" lon="4.9012">
        <ele>454.4</ele>
        <time>2021-07-10T09:43:44</time>
      </trkpt>
      <trkpt lat="44.67509" lon="4.90118">
        <ele>454.6</ele>
        <time>2021-07-10T09:43:45</time>
      </trkpt>
      <trkpt lat="44.67508" lon="4.90116">
        <ele>454.6</ele>
        <time>2021-07-10T09:43:46</time>
      </trkpt>
      <trkpt lat="44.67507" lon="4.90114">
        <ele>454.8</ele>
        <time>2021-07-10T09:43:47</time>
      </trkpt>
      <trkpt lat="44.67505" lon="4.9011">
        <ele>455</ele>
        <time>2021-07-10T09:43:48</time>
      </trkpt>
      <trkpt lat="44.67505" lon="4.9011">
        <ele>455</ele>
        <time>2021-07-10T09:43:49</time>
      </trkpt>
      <trkpt lat="44.67503" lon="4.90107">
        <ele>455.2</ele>
        <time>2021-07-10T09:43:50</time>
      </trkpt>
      <trkpt lat="44.67502" lon="4.90105">
        <ele>455.4</ele>
        <time>2021-07-10T09:43:51</time>
      </trkpt>
      <trkpt lat="44.675" lon="4.90099">
        <ele>455.8</ele>
        <time>2021-07-10T09:43:52</time>
      </trkpt>
      <trkpt lat="44.675" lon="4.90099">
        <ele>455.8</ele>
        <time>2021-07-10T09:43:53</time>
      </trkpt>
      <trkpt lat="44.67501" lon="4.90097">
        <ele>456</ele>
        <time>2021-07-10T09:43:54</time>
      </trkpt>
      <trkpt lat="44.67499" lon="4.90091">
        <ele>456.2</ele>
        <time>2021-07-10T09:43:55</time>
      </trkpt>
      <trkpt lat="44.67499" lon="4.90091">
        <ele>456.4</ele>
        <time>2021-07-10T09:43:56</time>
      </trkpt>
      <trkpt lat="44.675" lon="4.90087">
        <ele>456.6</ele>
        <time>2021-07-10T09:43:57</time>
      </trkpt>
      <trkpt lat="44.67497" lon="4.90082">
        <ele>456.8</ele>
        <time>2021-07-10T09:43:58</time>
      </trkpt>
      <trkpt lat="44.67497" lon="4.90079">
        <ele>457</ele>
        <time>2021-07-10T09:43:59</time>
      </trkpt>
      <trkpt lat="44.67496" lon="4.90078">
        <ele>457</ele>
        <time>2021-07-10T09:44:00</time>
      </trkpt>
      <trkpt lat="44.67494" lon="4.90076">
        <ele>457</ele>
        <time>2021-07-10T09:44:01</time>
      </trkpt>
      <trkpt lat="44.67494" lon="4.90072">
        <ele>457</ele>
        <time>2021-07-10T09:44:02</time>
      </trkpt>
      <trkpt lat="44.67494" lon="4.90068">
        <ele>457.2</ele>
        <time>2021-07-10T09:44:03</time>
      </trkpt>
      <trkpt lat="44.67491" lon="4.90059">
        <ele>457.2</ele>
        <time>2021-07-10T09:44:04</time>
      </trkpt>
      <trkpt lat="44.67491" lon="4.90059">
        <ele>457.2</ele>
        <time>2021-07-10T09:44:05</time>
      </trkpt>
      <trkpt lat="44.67494" lon="4.90052">
        <ele>457.2</ele>
        <time>2021-07-10T09:44:06</time>
      </trkpt>
      <trkpt lat="44.67494" lon="4.90052">
        <ele>457</ele>
        <time>2021-07-10T09:44:07</time>
      </trkpt>
      <trkpt lat="44.67494" lon="4.90044">
        <ele>457</ele>
        <time>2021-07-10T09:44:08</time>
      </trkpt>
      <trkpt lat="44.67494" lon="4.90044">
        <ele>457.2</ele>
        <time>2021-07-10T09:44:09</time>
      </trkpt>
      <trkpt lat="44.67496" lon="4.90043">
        <ele>457.4</ele>
        <time>2021-07-10T09:44:10</time>
      </trkpt>
      <trkpt lat="44.67499" lon="4.90036">
        <ele>457.8</ele>
        <time>2021-07-10T09:44:11</time>
      </trkpt>
      <trkpt lat="44.67499" lon="4.90036">
        <ele>458</ele>
        <time>2021-07-10T09:44:12</time>
      </trkpt>
      <trkpt lat="44.67501" lon="4.90033">
        <ele>458.4</ele>
        <time>2021-07-10T09:44:13</time>
      </trkpt>
      <trkpt lat="44.67502" lon="4.90031">
        <ele>458.6</ele>
        <time>2021-07-10T09:44:14</time>
      </trkpt>
      <trkpt lat="44.67502" lon="4.90029">
        <ele>458.8</ele>
        <time>2021-07-10T09:44:15</time>
      </trkpt>
      <trkpt lat="44.67502" lon="4.90027">
        <ele>458.8</ele>
        <time>2021-07-10T09:44:16</time>
      </trkpt>
      <trkpt lat="44.67502" lon="4.90022">
        <ele>459</ele>
        <time>2021-07-10T09:44:17</time>
      </trkpt>
      <trkpt lat="44.67503" lon="4.90018">
        <ele>459.2</ele>
        <time>2021-07-10T09:44:18</time>
      </trkpt>
      <trkpt lat="44.67503" lon="4.90018">
        <ele>459.2</ele>
        <time>2021-07-10T09:44:19</time>
      </trkpt>
      <trkpt lat="44.67504" lon="4.90011">
        <ele>459.4</ele>
        <time>2021-07-10T09:44:20</time>
      </trkpt>
      <trkpt lat="44.67506" lon="4.9001">
        <ele>459.8</ele>
        <time>2021-07-10T09:44:21</time>
      </trkpt>
      <trkpt lat="44.67507" lon="4.90006">
        <ele>460.2</ele>
        <time>2021-07-10T09:44:22</time>
      </trkpt>
      <trkpt lat="44.67507" lon="4.90006">
        <ele>460.6</ele>
        <time>2021-07-10T09:44:23</time>
      </trkpt>
      <trkpt lat="44.67508" lon="4.90004">
        <ele>461</ele>
        <time>2021-07-10T09:44:24</time>
      </trkpt>
      <trkpt lat="44.6751" lon="4.90002">
        <ele>461.2</ele>
        <time>2021-07-10T09:44:25</time>
      </trkpt>
      <trkpt lat="44.6751" lon="4.90001">
        <ele>461.4</ele>
        <time>2021-07-10T09:44:26</time>
      </trkpt>
      <trkpt lat="44.67509" lon="4.89999">
        <ele>461.6</ele>
        <time>2021-07-10T09:44:27</time>
      </trkpt>
      <trkpt lat="44.67509" lon="4.89999">
        <ele>461.8</ele>
        <time>2021-07-10T09:44:28</time>
      </trkpt>
      <trkpt lat="44.67508" lon="4.89995">
        <ele>462</ele>
        <time>2021-07-10T09:44:29</time>
      </trkpt>
      <trkpt lat="44.67509" lon="4.89994">
        <ele>462.2</ele>
        <time>2021-07-10T09:44:30</time>
      </trkpt>
      <trkpt lat="44.67509" lon="4.89992">
        <ele>462.4</ele>
        <time>2021-07-10T09:44:31</time>
      </trkpt>
      <trkpt lat="44.67509" lon="4.8999">
        <ele>462.4</ele>
        <time>2021-07-10T09:44:32</time>
      </trkpt>
      <trkpt lat="44.67509" lon="4.8999">
        <ele>462.4</ele>
        <time>2021-07-10T09:44:33</time>
      </trkpt>
      <trkpt lat="44.67509" lon="4.89986">
        <ele>462.8</ele>
        <time>2021-07-10T09:44:34</time>
      </trkpt>
      <trkpt lat="44.6751" lon="4.89985">
        <ele>463.2</ele>
        <time>2021-07-10T09:44:35</time>
      </trkpt>
      <trkpt lat="44.67511" lon="4.89983">
        <ele>463.4</ele>
        <time>2021-07-10T09:44:36</time>
      </trkpt>
      <trkpt lat="44.67509" lon="4.89979">
        <ele>463.6</ele>
        <time>2021-07-10T09:44:37</time>
      </trkpt>
      <trkpt lat="44.67509" lon="4.89975">
        <ele>463.6</ele>
        <time>2021-07-10T09:44:38</time>
      </trkpt>
      <trkpt lat="44.67509" lon="4.89975">
        <ele>463.8</ele>
        <time>2021-07-10T09:44:39</time>
      </trkpt>
      <trkpt lat="44.67509" lon="4.89973">
        <ele>463.8</ele>
        <time>2021-07-10T09:44:40</time>
      </trkpt>
      <trkpt lat="44.67508" lon="4.8997">
        <ele>464</ele>
        <time>2021-07-10T09:44:41</time>
      </trkpt>
      <trkpt lat="44.67508" lon="4.8997">
        <ele>464.4</ele>
        <time>2021-07-10T09:44:42</time>
      </trkpt>
      <trkpt lat="44.67507" lon="4.89968">
        <ele>464.6</ele>
        <time>2021-07-10T09:44:43</time>
      </trkpt>
      <trkpt lat="44.67509" lon="4.89966">
        <ele>464.8</ele>
        <time>2021-07-10T09:44:44</time>
      </trkpt>
      <trkpt lat="44.67509" lon="4.89966">
        <ele>465</ele>
        <time>2021-07-10T09:44:45</time>
      </trkpt>
      <trkpt lat="44.6751" lon="4.89962">
        <ele>465</ele>
        <time>2021-07-10T09:44:46</time>
      </trkpt>
      <trkpt lat="44.6751" lon="4.8996">
        <ele>465.2</ele>
        <time>2021-07-10T09:44:47</time>
      </trkpt>
      <trkpt lat="44.6751" lon="4.89958">
        <ele>465.4</ele>
        <time>2021-07-10T09:44:48</time>
      </trkpt>
      <trkpt lat="44.67509" lon="4.89954">
        <ele>465.6</ele>
        <time>2021-07-10T09:44:49</time>
      </trkpt>
      <trkpt lat="44.67509" lon="4.89954">
        <ele>465.6</ele>
        <time>2021-07-10T09:44:50</time>
      </trkpt>
      <trkpt lat="44.67511" lon="4.89951">
        <ele>465.6</ele>
        <time>2021-07-10T09:44:51</time>
      </trkpt>
      <trkpt lat="44.67509" lon="4.89945">
        <ele>465.8</ele>
        <time>2021-07-10T09:44:52</time>
      </trkpt>
      <trkpt lat="44.67509" lon="4.89945">
        <ele>465.8</ele>
        <time>2021-07-10T09:44:53</time>
      </trkpt>
      <trkpt lat="44.6751" lon="4.89943">
        <ele>466</ele>
        <time>2021-07-10T09:44:54</time>
      </trkpt>
      <trkpt lat="44.67511" lon="4.89941">
        <ele>466</ele>
        <time>2021-07-10T09:44:55</time>
      </trkpt>
      <trkpt lat="44.67509" lon="4.89936">
        <ele>466.2</ele>
        <time>2021-07-10T09:44:56</time>
      </trkpt>
      <trkpt lat="44.67509" lon="4.89936">
        <ele>466.4</ele>
        <time>2021-07-10T09:44:57</time>
      </trkpt>
      <trkpt lat="44.67509" lon="4.89933">
        <ele>466.4</ele>
        <time>2021-07-10T09:44:58</time>
      </trkpt>
      <trkpt lat="44.67509" lon="4.89933">
        <ele>466.6</ele>
        <time>2021-07-10T09:44:59</time>
      </trkpt>
      <trkpt lat="44.67507" lon="4.89929">
        <ele>467</ele>
        <time>2021-07-10T09:45:00</time>
      </trkpt>
      <trkpt lat="44.67505" lon="4.89924">
        <ele>467.2</ele>
        <time>2021-07-10T09:45:01</time>
      </trkpt>
      <trkpt lat="44.67504" lon="4.89921">
        <ele>467.4</ele>
        <time>2021-07-10T09:45:02</time>
      </trkpt>
      <trkpt lat="44.67503" lon="4.8992">
        <ele>467.4</ele>
        <time>2021-07-10T09:45:03</time>
      </trkpt>
      <trkpt lat="44.675" lon="4.89917">
        <ele>467.6</ele>
        <time>2021-07-10T09:45:04</time>
      </trkpt>
      <trkpt lat="44.675" lon="4.89917">
        <ele>467.6</ele>
        <time>2021-07-10T09:45:05</time>
      </trkpt>
      <trkpt lat="44.675" lon="4.89916">
        <ele>467.8</ele>
        <time>2021-07-10T09:45:06</time>
      </trkpt>
      <trkpt lat="44.675" lon="4.89915">
        <ele>468.2</ele>
        <time>2021-07-10T09:45:07</time>
      </trkpt>
      <trkpt lat="44.67497" lon="4.89912">
        <ele>468.4</ele>
        <time>2021-07-10T09:45:08</time>
      </trkpt>
      <trkpt lat="44.67497" lon="4.89911">
        <ele>468.6</ele>
        <time>2021-07-10T09:45:09</time>
      </trkpt>
      <trkpt lat="44.67499" lon="4.89911">
        <ele>468.6</ele>
        <time>2021-07-10T09:45:10</time>
      </trkpt>
      <trkpt lat="44.67497" lon="4.89908">
        <ele>468.8</ele>
        <time>2021-07-10T09:45:11</time>
      </trkpt>
      <trkpt lat="44.67498" lon="4.89907">
        <ele>469</ele>
        <time>2021-07-10T09:45:12</time>
      </trkpt>
      <trkpt lat="44.67496" lon="4.89905">
        <ele>469.2</ele>
        <time>2021-07-10T09:45:13</time>
      </trkpt>
      <trkpt lat="44.67494" lon="4.89904">
        <ele>469.2</ele>
        <time>2021-07-10T09:45:14</time>
      </trkpt>
      <trkpt lat="44.67494" lon="4.89904">
        <ele>469.2</ele>
        <time>2021-07-10T09:45:15</time>
      </trkpt>
      <trkpt lat="44.67496" lon="4.89903">
        <ele>469.2</ele>
        <time>2021-07-10T09:45:16</time>
      </trkpt>
      <trkpt lat="44.67495" lon="4.89903">
        <ele>469.4</ele>
        <time>2021-07-10T09:45:17</time>
      </trkpt>
      <trkpt lat="44.67493" lon="4.89899">
        <ele>469.4</ele>
        <time>2021-07-10T09:45:18</time>
      </trkpt>
      <trkpt lat="44.67494" lon="4.89899">
        <ele>469.4</ele>
        <time>2021-07-10T09:45:19</time>
      </trkpt>
      <trkpt lat="44.67493" lon="4.89897">
        <ele>469.6</ele>
        <time>2021-07-10T09:45:20</time>
      </trkpt>
      <trkpt lat="44.67494" lon="4.89891">
        <ele>469.8</ele>
        <time>2021-07-10T09:45:21</time>
      </trkpt>
      <trkpt lat="44.67494" lon="4.89891">
        <ele>469.8</ele>
        <time>2021-07-10T09:45:22</time>
      </trkpt>
      <trkpt lat="44.67493" lon="4.89889">
        <ele>470</ele>
        <time>2021-07-10T09:45:23</time>
      </trkpt>
      <trkpt lat="44.6749" lon="4.89885">
        <ele>470.2</ele>
        <time>2021-07-10T09:45:24</time>
      </trkpt>
      <trkpt lat="44.6749" lon="4.89884">
        <ele>470.4</ele>
        <time>2021-07-10T09:45:25</time>
      </trkpt>
      <trkpt lat="44.67489" lon="4.89881">
        <ele>470.6</ele>
        <time>2021-07-10T09:45:26</time>
      </trkpt>
      <trkpt lat="44.67489" lon="4.8988">
        <ele>470.8</ele>
        <time>2021-07-10T09:45:27</time>
      </trkpt>
      <trkpt lat="44.67488" lon="4.89877">
        <ele>471</ele>
        <time>2021-07-10T09:45:28</time>
      </trkpt>
      <trkpt lat="44.67486" lon="4.89873">
        <ele>471</ele>
        <time>2021-07-10T09:45:29</time>
      </trkpt>
      <trkpt lat="44.67486" lon="4.89872">
        <ele>471.2</ele>
        <time>2021-07-10T09:45:30</time>
      </trkpt>
      <trkpt lat="44.67487" lon="4.8987">
        <ele>471.4</ele>
        <time>2021-07-10T09:45:31</time>
      </trkpt>
      <trkpt lat="44.67485" lon="4.89865">
        <ele>471.6</ele>
        <time>2021-07-10T09:45:32</time>
      </trkpt>
      <trkpt lat="44.67484" lon="4.89864">
        <ele>471.6</ele>
        <time>2021-07-10T09:45:33</time>
      </trkpt>
      <trkpt lat="44.67484" lon="4.89856">
        <ele>471.6</ele>
        <time>2021-07-10T09:45:34</time>
      </trkpt>
      <trkpt lat="44.67485" lon="4.89853">
        <ele>471.6</ele>
        <time>2021-07-10T09:45:35</time>
      </trkpt>
      <trkpt lat="44.67483" lon="4.8985">
        <ele>471.6</ele>
        <time>2021-07-10T09:45:36</time>
      </trkpt>
      <trkpt lat="44.67483" lon="4.8985">
        <ele>471.8</ele>
        <time>2021-07-10T09:45:37</time>
      </trkpt>
      <trkpt lat="44.67485" lon="4.89848">
        <ele>472</ele>
        <time>2021-07-10T09:45:38</time>
      </trkpt>
      <trkpt lat="44.67485" lon="4.89844">
        <ele>472.2</ele>
        <time>2021-07-10T09:45:39</time>
      </trkpt>
      <trkpt lat="44.67482" lon="4.8984">
        <ele>472.4</ele>
        <time>2021-07-10T09:45:40</time>
      </trkpt>
      <trkpt lat="44.67481" lon="4.89835">
        <ele>472.4</ele>
        <time>2021-07-10T09:45:41</time>
      </trkpt>
      <trkpt lat="44.67481" lon="4.89832">
        <ele>472.4</ele>
        <time>2021-07-10T09:45:42</time>
      </trkpt>
      <trkpt lat="44.67479" lon="4.89828">
        <ele>472.4</ele>
        <time>2021-07-10T09:45:43</time>
      </trkpt>
      <trkpt lat="44.67479" lon="4.89826">
        <ele>472.4</ele>
        <time>2021-07-10T09:45:44</time>
      </trkpt>
      <trkpt lat="44.67478" lon="4.89824">
        <ele>472.6</ele>
        <time>2021-07-10T09:45:45</time>
      </trkpt>
      <trkpt lat="44.67478" lon="4.89822">
        <ele>472.6</ele>
        <time>2021-07-10T09:45:46</time>
      </trkpt>
      <trkpt lat="44.67478" lon="4.89822">
        <ele>472.8</ele>
        <time>2021-07-10T09:45:47</time>
      </trkpt>
      <trkpt lat="44.67476" lon="4.89816">
        <ele>473</ele>
        <time>2021-07-10T09:45:48</time>
      </trkpt>
      <trkpt lat="44.67474" lon="4.89812">
        <ele>473.2</ele>
        <time>2021-07-10T09:45:49</time>
      </trkpt>
      <trkpt lat="44.67473" lon="4.89807">
        <ele>473.4</ele>
        <time>2021-07-10T09:45:50</time>
      </trkpt>
      <trkpt lat="44.67473" lon="4.89806">
        <ele>473.6</ele>
        <time>2021-07-10T09:45:51</time>
      </trkpt>
      <trkpt lat="44.67473" lon="4.89802">
        <ele>474</ele>
        <time>2021-07-10T09:45:52</time>
      </trkpt>
      <trkpt lat="44.67472" lon="4.89799">
        <ele>474.2</ele>
        <time>2021-07-10T09:45:53</time>
      </trkpt>
      <trkpt lat="44.67473" lon="4.89799">
        <ele>474.2</ele>
        <time>2021-07-10T09:45:54</time>
      </trkpt>
      <trkpt lat="44.67474" lon="4.89795">
        <ele>474.2</ele>
        <time>2021-07-10T09:45:55</time>
      </trkpt>
      <trkpt lat="44.67472" lon="4.89792">
        <ele>474.2</ele>
        <time>2021-07-10T09:45:56</time>
      </trkpt>
      <trkpt lat="44.67472" lon="4.8979">
        <ele>474.4</ele>
        <time>2021-07-10T09:45:57</time>
      </trkpt>
      <trkpt lat="44.67473" lon="4.8979">
        <ele>474.4</ele>
        <time>2021-07-10T09:45:58</time>
      </trkpt>
      <trkpt lat="44.67475" lon="4.89787">
        <ele>474.6</ele>
        <time>2021-07-10T09:45:59</time>
      </trkpt>
      <trkpt lat="44.67475" lon="4.89782">
        <ele>474.6</ele>
        <time>2021-07-10T09:46:00</time>
      </trkpt>
      <trkpt lat="44.67476" lon="4.89781">
        <ele>474.8</ele>
        <time>2021-07-10T09:46:01</time>
      </trkpt>
      <trkpt lat="44.67473" lon="4.89775">
        <ele>474.8</ele>
        <time>2021-07-10T09:46:02</time>
      </trkpt>
      <trkpt lat="44.67473" lon="4.89775">
        <ele>474.8</ele>
        <time>2021-07-10T09:46:03</time>
      </trkpt>
      <trkpt lat="44.67473" lon="4.89772">
        <ele>475.2</ele>
        <time>2021-07-10T09:46:04</time>
      </trkpt>
      <trkpt lat="44.67473" lon="4.89769">
        <ele>475.4</ele>
        <time>2021-07-10T09:46:05</time>
      </trkpt>
      <trkpt lat="44.67472" lon="4.89767">
        <ele>475.6</ele>
        <time>2021-07-10T09:46:06</time>
      </trkpt>
      <trkpt lat="44.67472" lon="4.89764">
        <ele>475.8</ele>
        <time>2021-07-10T09:46:07</time>
      </trkpt>
      <trkpt lat="44.67474" lon="4.89761">
        <ele>476</ele>
        <time>2021-07-10T09:46:08</time>
      </trkpt>
      <trkpt lat="44.67474" lon="4.8976">
        <ele>476.4</ele>
        <time>2021-07-10T09:46:09</time>
      </trkpt>
      <trkpt lat="44.67472" lon="4.89756">
        <ele>476.6</ele>
        <time>2021-07-10T09:46:10</time>
      </trkpt>
      <trkpt lat="44.67471" lon="4.89752">
        <ele>477</ele>
        <time>2021-07-10T09:46:11</time>
      </trkpt>
      <trkpt lat="44.67471" lon="4.89749">
        <ele>477.2</ele>
        <time>2021-07-10T09:46:12</time>
      </trkpt>
      <trkpt lat="44.67471" lon="4.89746">
        <ele>477.4</ele>
        <time>2021-07-10T09:46:13</time>
      </trkpt>
      <trkpt lat="44.67471" lon="4.89746">
        <ele>477.6</ele>
        <time>2021-07-10T09:46:14</time>
      </trkpt>
      <trkpt lat="44.67471" lon="4.8974">
        <ele>477.8</ele>
        <time>2021-07-10T09:46:15</time>
      </trkpt>
      <trkpt lat="44.67469" lon="4.89739">
        <ele>478</ele>
        <time>2021-07-10T09:46:16</time>
      </trkpt>
      <trkpt lat="44.67468" lon="4.89736">
        <ele>478.2</ele>
        <time>2021-07-10T09:46:17</time>
      </trkpt>
      <trkpt lat="44.67469" lon="4.8973">
        <ele>478.2</ele>
        <time>2021-07-10T09:46:18</time>
      </trkpt>
      <trkpt lat="44.67469" lon="4.8973">
        <ele>478.4</ele>
        <time>2021-07-10T09:46:19</time>
      </trkpt>
      <trkpt lat="44.6747" lon="4.89729">
        <ele>478.4</ele>
        <time>2021-07-10T09:46:20</time>
      </trkpt>
      <trkpt lat="44.6747" lon="4.89728">
        <ele>478.4</ele>
        <time>2021-07-10T09:46:21</time>
      </trkpt>
      <trkpt lat="44.67469" lon="4.89724">
        <ele>478.4</ele>
        <time>2021-07-10T09:46:22</time>
      </trkpt>
      <trkpt lat="44.67468" lon="4.89722">
        <ele>478.2</ele>
        <time>2021-07-10T09:46:23</time>
      </trkpt>
      <trkpt lat="44.67468" lon="4.8972">
        <ele>478.2</ele>
        <time>2021-07-10T09:46:24</time>
      </trkpt>
      <trkpt lat="44.67466" lon="4.89718">
        <ele>478.2</ele>
        <time>2021-07-10T09:46:25</time>
      </trkpt>
      <trkpt lat="44.67465" lon="4.89715">
        <ele>478.2</ele>
        <time>2021-07-10T09:46:26</time>
      </trkpt>
      <trkpt lat="44.67464" lon="4.89713">
        <ele>478.2</ele>
        <time>2021-07-10T09:46:27</time>
      </trkpt>
      <trkpt lat="44.67465" lon="4.89712">
        <ele>478.2</ele>
        <time>2021-07-10T09:46:28</time>
      </trkpt>
      <trkpt lat="44.67465" lon="4.89712">
        <ele>478.4</ele>
        <time>2021-07-10T09:46:29</time>
      </trkpt>
      <trkpt lat="44.67466" lon="4.89711">
        <ele>478.4</ele>
        <time>2021-07-10T09:46:30</time>
      </trkpt>
      <trkpt lat="44.67467" lon="4.89711">
        <ele>478.4</ele>
        <time>2021-07-10T09:46:31</time>
      </trkpt>
      <trkpt lat="44.67467" lon="4.89712">
        <ele>478.4</ele>
        <time>2021-07-10T09:46:32</time>
      </trkpt>
      <trkpt lat="44.67467" lon="4.89711">
        <ele>478.4</ele>
        <time>2021-07-10T09:46:33</time>
      </trkpt>
      <trkpt lat="44.67468" lon="4.89714">
        <ele>478.6</ele>
        <time>2021-07-10T09:46:34</time>
      </trkpt>
      <trkpt lat="44.67468" lon="4.89714">
        <ele>478.6</ele>
        <time>2021-07-10T09:46:35</time>
      </trkpt>
      <trkpt lat="44.67468" lon="4.89714">
        <ele>478.6</ele>
        <time>2021-07-10T09:46:36</time>
      </trkpt>
      <trkpt lat="44.67513" lon="4.89699">
        <ele>480</ele>
        <time>2021-07-10T09:48:11</time>
      </trkpt>
      <trkpt lat="44.67518" lon="4.89701">
        <ele>480</ele>
        <time>2021-07-10T09:48:12</time>
      </trkpt>
      <trkpt lat="44.67522" lon="4.89698">
        <ele>480.2</ele>
        <time>2021-07-10T09:48:13</time>
      </trkpt>
      <trkpt lat="44.67523" lon="4.89693">
        <ele>480.2</ele>
        <time>2021-07-10T09:48:14</time>
      </trkpt>
      <trkpt lat="44.67529" lon="4.8969">
        <ele>480.4</ele>
        <time>2021-07-10T09:48:15</time>
      </trkpt>
      <trkpt lat="44.67529" lon="4.8969">
        <ele>480.4</ele>
        <time>2021-07-10T09:48:16</time>
      </trkpt>
      <trkpt lat="44.67533" lon="4.8969">
        <ele>480.4</ele>
        <time>2021-07-10T09:48:17</time>
      </trkpt>
      <trkpt lat="44.67533" lon="4.8969">
        <ele>480.4</ele>
        <time>2021-07-10T09:48:18</time>
      </trkpt>
      <trkpt lat="44.67537" lon="4.89692">
        <ele>480.4</ele>
        <time>2021-07-10T09:48:19</time>
      </trkpt>
      <trkpt lat="44.67543" lon="4.89693">
        <ele>480.6</ele>
        <time>2021-07-10T09:48:20</time>
      </trkpt>
      <trkpt lat="44.67543" lon="4.89693">
        <ele>480.8</ele>
        <time>2021-07-10T09:48:21</time>
      </trkpt>
      <trkpt lat="44.67549" lon="4.89689">
        <ele>481</ele>
        <time>2021-07-10T09:48:22</time>
      </trkpt>
      <trkpt lat="44.67554" lon="4.89688">
        <ele>481</ele>
        <time>2021-07-10T09:48:23</time>
      </trkpt>
      <trkpt lat="44.67561" lon="4.89688">
        <ele>481.2</ele>
        <time>2021-07-10T09:48:24</time>
      </trkpt>
      <trkpt lat="44.67565" lon="4.89688">
        <ele>481.2</ele>
        <time>2021-07-10T09:48:25</time>
      </trkpt>
      <trkpt lat="44.67565" lon="4.89688">
        <ele>481.2</ele>
        <time>2021-07-10T09:48:26</time>
      </trkpt>
      <trkpt lat="44.6757" lon="4.89688">
        <ele>481.4</ele>
        <time>2021-07-10T09:48:27</time>
      </trkpt>
      <trkpt lat="44.67579" lon="4.89693">
        <ele>481.4</ele>
        <time>2021-07-10T09:48:28</time>
      </trkpt>
      <trkpt lat="44.67579" lon="4.89693">
        <ele>481.6</ele>
        <time>2021-07-10T09:48:29</time>
      </trkpt>
      <trkpt lat="44.67588" lon="4.897">
        <ele>481.8</ele>
        <time>2021-07-10T09:48:30</time>
      </trkpt>
      <trkpt lat="44.67588" lon="4.897">
        <ele>482</ele>
        <time>2021-07-10T09:48:31</time>
      </trkpt>
      <trkpt lat="44.67595" lon="4.89706">
        <ele>482</ele>
        <time>2021-07-10T09:48:32</time>
      </trkpt>
      <trkpt lat="44.67595" lon="4.89706">
        <ele>482</ele>
        <time>2021-07-10T09:48:33</time>
      </trkpt>
      <trkpt lat="44.67597" lon="4.89709">
        <ele>481.8</ele>
        <time>2021-07-10T09:48:34</time>
      </trkpt>
      <trkpt lat="44.67603" lon="4.89713">
        <ele>481.8</ele>
        <time>2021-07-10T09:48:35</time>
      </trkpt>
      <trkpt lat="44.67603" lon="4.89713">
        <ele>481.8</ele>
        <time>2021-07-10T09:48:36</time>
      </trkpt>
      <trkpt lat="44.67603" lon="4.89713">
        <ele>481.8</ele>
        <time>2021-07-10T09:48:37</time>
      </trkpt>
      <trkpt lat="44.67603" lon="4.89713">
        <ele>481.8</ele>
        <time>2021-07-10T09:48:38</time>
      </trkpt>
      <trkpt lat="44.6761" lon="4.89716">
        <ele>481.8</ele>
        <time>2021-07-10T09:48:39</time>
      </trkpt>
      <trkpt lat="44.67612" lon="4.89714">
        <ele>482</ele>
        <time>2021-07-10T09:48:40</time>
      </trkpt>
      <trkpt lat="44.67612" lon="4.89714">
        <ele>482</ele>
        <time>2021-07-10T09:48:41</time>
      </trkpt>
      <trkpt lat="44.67617" lon="4.89718">
        <ele>481.8</ele>
        <time>2021-07-10T09:48:42</time>
      </trkpt>
      <trkpt lat="44.67621" lon="4.8972">
        <ele>481.8</ele>
        <time>2021-07-10T09:48:43</time>
      </trkpt>
      <trkpt lat="44.67623" lon="4.89721">
        <ele>481.8</ele>
        <time>2021-07-10T09:48:44</time>
      </trkpt>
      <trkpt lat="44.6763" lon="4.89723">
        <ele>481.8</ele>
        <time>2021-07-10T09:48:45</time>
      </trkpt>
      <trkpt lat="44.6763" lon="4.89723">
        <ele>482.2</ele>
        <time>2021-07-10T09:48:46</time>
      </trkpt>
      <trkpt lat="44.67633" lon="4.89722">
        <ele>482.4</ele>
        <time>2021-07-10T09:48:47</time>
      </trkpt>
      <trkpt lat="44.67637" lon="4.89721">
        <ele>482.4</ele>
        <time>2021-07-10T09:48:48</time>
      </trkpt>
      <trkpt lat="44.67642" lon="4.89721">
        <ele>482.4</ele>
        <time>2021-07-10T09:48:49</time>
      </trkpt>
      <trkpt lat="44.67647" lon="4.89719">
        <ele>482.6</ele>
        <time>2021-07-10T09:48:50</time>
      </trkpt>
      <trkpt lat="44.67647" lon="4.89719">
        <ele>482.6</ele>
        <time>2021-07-10T09:48:51</time>
      </trkpt>
      <trkpt lat="44.67652" lon="4.89717">
        <ele>482.8</ele>
        <time>2021-07-10T09:48:52</time>
      </trkpt>
      <trkpt lat="44.67652" lon="4.89717">
        <ele>482.8</ele>
        <time>2021-07-10T09:48:53</time>
      </trkpt>
      <trkpt lat="44.67654" lon="4.89716">
        <ele>482.8</ele>
        <time>2021-07-10T09:48:54</time>
      </trkpt>
      <trkpt lat="44.67656" lon="4.89715">
        <ele>483</ele>
        <time>2021-07-10T09:48:55</time>
      </trkpt>
      <trkpt lat="44.67661" lon="4.89714">
        <ele>483.2</ele>
        <time>2021-07-10T09:48:56</time>
      </trkpt>
      <trkpt lat="44.67664" lon="4.89713">
        <ele>483.2</ele>
        <time>2021-07-10T09:48:57</time>
      </trkpt>
      <trkpt lat="44.67669" lon="4.89712">
        <ele>483.4</ele>
        <time>2021-07-10T09:48:58</time>
      </trkpt>
      <trkpt lat="44.67675" lon="4.89706">
        <ele>483.6</ele>
        <time>2021-07-10T09:48:59</time>
      </trkpt>
      <trkpt lat="44.67675" lon="4.89706">
        <ele>483.6</ele>
        <time>2021-07-10T09:49:00</time>
      </trkpt>
      <trkpt lat="44.6768" lon="4.89706">
        <ele>483.8</ele>
        <time>2021-07-10T09:49:01</time>
      </trkpt>
      <trkpt lat="44.67685" lon="4.89702">
        <ele>484</ele>
        <time>2021-07-10T09:49:02</time>
      </trkpt>
      <trkpt lat="44.67685" lon="4.89702">
        <ele>484</ele>
        <time>2021-07-10T09:49:03</time>
      </trkpt>
      <trkpt lat="44.67692" lon="4.89699">
        <ele>484</ele>
        <time>2021-07-10T09:49:04</time>
      </trkpt>
      <trkpt lat="44.67692" lon="4.89699">
        <ele>483.8</ele>
        <time>2021-07-10T09:49:05</time>
      </trkpt>
      <trkpt lat="44.67693" lon="4.89698">
        <ele>484</ele>
        <time>2021-07-10T09:49:06</time>
      </trkpt>
      <trkpt lat="44.67694" lon="4.89696">
        <ele>484</ele>
        <time>2021-07-10T09:49:07</time>
      </trkpt>
      <trkpt lat="44.67698" lon="4.89693">
        <ele>484.2</ele>
        <time>2021-07-10T09:49:08</time>
      </trkpt>
      <trkpt lat="44.67703" lon="4.89686">
        <ele>484.2</ele>
        <time>2021-07-10T09:49:09</time>
      </trkpt>
      <trkpt lat="44.67703" lon="4.89686">
        <ele>484.4</ele>
        <time>2021-07-10T09:49:10</time>
      </trkpt>
      <trkpt lat="44.67706" lon="4.89683">
        <ele>484.4</ele>
        <time>2021-07-10T09:49:11</time>
      </trkpt>
      <trkpt lat="44.67709" lon="4.89682">
        <ele>484.6</ele>
        <time>2021-07-10T09:49:12</time>
      </trkpt>
      <trkpt lat="44.6771" lon="4.89677">
        <ele>484.6</ele>
        <time>2021-07-10T09:49:13</time>
      </trkpt>
      <trkpt lat="44.67715" lon="4.89669">
        <ele>484.8</ele>
        <time>2021-07-10T09:49:14</time>
      </trkpt>
      <trkpt lat="44.67715" lon="4.89669">
        <ele>484.8</ele>
        <time>2021-07-10T09:49:15</time>
      </trkpt>
      <trkpt lat="44.67717" lon="4.89666">
        <ele>485</ele>
        <time>2021-07-10T09:49:16</time>
      </trkpt>
      <trkpt lat="44.6772" lon="4.89663">
        <ele>485</ele>
        <time>2021-07-10T09:49:17</time>
      </trkpt>
      <trkpt lat="44.67722" lon="4.89657">
        <ele>485</ele>
        <time>2021-07-10T09:49:18</time>
      </trkpt>
      <trkpt lat="44.67726" lon="4.89651">
        <ele>485</ele>
        <time>2021-07-10T09:49:19</time>
      </trkpt>
      <trkpt lat="44.67726" lon="4.89651">
        <ele>485</ele>
        <time>2021-07-10T09:49:20</time>
      </trkpt>
      <trkpt lat="44.67729" lon="4.89648">
        <ele>484.8</ele>
        <time>2021-07-10T09:49:21</time>
      </trkpt>
      <trkpt lat="44.67732" lon="4.89641">
        <ele>484.6</ele>
        <time>2021-07-10T09:49:22</time>
      </trkpt>
      <trkpt lat="44.67732" lon="4.89641">
        <ele>484.6</ele>
        <time>2021-07-10T09:49:23</time>
      </trkpt>
      <trkpt lat="44.67736" lon="4.89632">
        <ele>484.4</ele>
        <time>2021-07-10T09:49:24</time>
      </trkpt>
      <trkpt lat="44.67736" lon="4.89632">
        <ele>484.4</ele>
        <time>2021-07-10T09:49:25</time>
      </trkpt>
      <trkpt lat="44.67739" lon="4.89629">
        <ele>484.4</ele>
        <time>2021-07-10T09:49:26</time>
      </trkpt>
      <trkpt lat="44.6774" lon="4.89627">
        <ele>484.2</ele>
        <time>2021-07-10T09:49:27</time>
      </trkpt>
      <trkpt lat="44.67743" lon="4.89623">
        <ele>484.2</ele>
        <time>2021-07-10T09:49:28</time>
      </trkpt>
      <trkpt lat="44.67749" lon="4.89616">
        <ele>484</ele>
        <time>2021-07-10T09:49:29</time>
      </trkpt>
      <trkpt lat="44.67749" lon="4.89616">
        <ele>484</ele>
        <time>2021-07-10T09:49:30</time>
      </trkpt>
      <trkpt lat="44.67752" lon="4.89612">
        <ele>483.8</ele>
        <time>2021-07-10T09:49:31</time>
      </trkpt>
      <trkpt lat="44.67755" lon="4.89609">
        <ele>483.8</ele>
        <time>2021-07-10T09:49:32</time>
      </trkpt>
      <trkpt lat="44.67757" lon="4.89602">
        <ele>483.4</ele>
        <time>2021-07-10T09:49:33</time>
      </trkpt>
      <trkpt lat="44.6776" lon="4.89598">
        <ele>483</ele>
        <time>2021-07-10T09:49:34</time>
      </trkpt>
      <trkpt lat="44.6776" lon="4.89598">
        <ele>482.4</ele>
        <time>2021-07-10T09:49:35</time>
      </trkpt>
      <trkpt lat="44.67768" lon="4.89581">
        <ele>482</ele>
        <time>2021-07-10T09:49:36</time>
      </trkpt>
      <trkpt lat="44.67768" lon="4.89581">
        <ele>481.6</ele>
        <time>2021-07-10T09:49:37</time>
      </trkpt>
      <trkpt lat="44.67773" lon="4.89564">
        <ele>481.2</ele>
        <time>2021-07-10T09:49:38</time>
      </trkpt>
      <trkpt lat="44.6778" lon="4.89554">
        <ele>480.8</ele>
        <time>2021-07-10T09:49:39</time>
      </trkpt>
      <trkpt lat="44.6778" lon="4.89554">
        <ele>480.4</ele>
        <time>2021-07-10T09:49:40</time>
      </trkpt>
      <trkpt lat="44.6778" lon="4.89554">
        <ele>479.8</ele>
        <time>2021-07-10T09:49:41</time>
      </trkpt>
      <trkpt lat="44.67794" lon="4.89541">
        <ele>479.4</ele>
        <time>2021-07-10T09:49:42</time>
      </trkpt>
      <trkpt lat="44.67804" lon="4.89537">
        <ele>478.8</ele>
        <time>2021-07-10T09:49:43</time>
      </trkpt>
      <trkpt lat="44.67807" lon="4.89518">
        <ele>478.4</ele>
        <time>2021-07-10T09:49:44</time>
      </trkpt>
      <trkpt lat="44.67807" lon="4.89518">
        <ele>478</ele>
        <time>2021-07-10T09:49:45</time>
      </trkpt>
      <trkpt lat="44.67808" lon="4.89513">
        <ele>477.8</ele>
        <time>2021-07-10T09:49:46</time>
      </trkpt>
      <trkpt lat="44.67813" lon="4.89508">
        <ele>477.4</ele>
        <time>2021-07-10T09:49:47</time>
      </trkpt>
      <trkpt lat="44.67816" lon="4.89504">
        <ele>477.2</ele>
        <time>2021-07-10T09:49:48</time>
      </trkpt>
      <trkpt lat="44.67824" lon="4.89498">
        <ele>476.8</ele>
        <time>2021-07-10T09:49:49</time>
      </trkpt>
      <trkpt lat="44.67824" lon="4.89498">
        <ele>476.8</ele>
        <time>2021-07-10T09:49:50</time>
      </trkpt>
      <trkpt lat="44.67827" lon="4.89497">
        <ele>476.6</ele>
        <time>2021-07-10T09:49:51</time>
      </trkpt>
      <trkpt lat="44.67837" lon="4.89497">
        <ele>476.4</ele>
        <time>2021-07-10T09:49:52</time>
      </trkpt>
      <trkpt lat="44.67837" lon="4.89497">
        <ele>476.2</ele>
        <time>2021-07-10T09:49:53</time>
      </trkpt>
      <trkpt lat="44.67844" lon="4.89497">
        <ele>476</ele>
        <time>2021-07-10T09:49:54</time>
      </trkpt>
      <trkpt lat="44.67844" lon="4.89497">
        <ele>475.8</ele>
        <time>2021-07-10T09:49:55</time>
      </trkpt>
      <trkpt lat="44.67846" lon="4.89497">
        <ele>475.2</ele>
        <time>2021-07-10T09:49:56</time>
      </trkpt>
      <trkpt lat="44.6785" lon="4.89496">
        <ele>474.6</ele>
        <time>2021-07-10T09:49:57</time>
      </trkpt>
      <trkpt lat="44.67853" lon="4.89498">
        <ele>474</ele>
        <time>2021-07-10T09:49:58</time>
      </trkpt>
      <trkpt lat="44.67862" lon="4.89498">
        <ele>473.2</ele>
        <time>2021-07-10T09:49:59</time>
      </trkpt>
      <trkpt lat="44.67862" lon="4.89498">
        <ele>472.2</ele>
        <time>2021-07-10T09:50:00</time>
      </trkpt>
      <trkpt lat="44.67868" lon="4.89497">
        <ele>471</ele>
        <time>2021-07-10T09:50:01</time>
      </trkpt>
      <trkpt lat="44.67868" lon="4.89497">
        <ele>469.8</ele>
        <time>2021-07-10T09:50:02</time>
      </trkpt>
      <trkpt lat="44.6787" lon="4.89498">
        <ele>468.8</ele>
        <time>2021-07-10T09:50:03</time>
      </trkpt>
      <trkpt lat="44.67877" lon="4.89502">
        <ele>467.6</ele>
        <time>2021-07-10T09:50:04</time>
      </trkpt>
      <trkpt lat="44.67877" lon="4.89502">
        <ele>466.6</ele>
        <time>2021-07-10T09:50:05</time>
      </trkpt>
      <trkpt lat="44.6788" lon="4.89504">
        <ele>465.6</ele>
        <time>2021-07-10T09:50:06</time>
      </trkpt>
      <trkpt lat="44.67882" lon="4.89507">
        <ele>464.6</ele>
        <time>2021-07-10T09:50:07</time>
      </trkpt>
      <trkpt lat="44.67886" lon="4.89511">
        <ele>463.8</ele>
        <time>2021-07-10T09:50:08</time>
      </trkpt>
      <trkpt lat="44.67886" lon="4.89511">
        <ele>462.8</ele>
        <time>2021-07-10T09:50:09</time>
      </trkpt>
      <trkpt lat="44.67887" lon="4.89515">
        <ele>462</ele>
        <time>2021-07-10T09:50:10</time>
      </trkpt>
      <trkpt lat="44.67888" lon="4.89519">
        <ele>461</ele>
        <time>2021-07-10T09:50:11</time>
      </trkpt>
      <trkpt lat="44.67892" lon="4.89524">
        <ele>460</ele>
        <time>2021-07-10T09:50:12</time>
      </trkpt>
      <trkpt lat="44.67898" lon="4.89535">
        <ele>459</ele>
        <time>2021-07-10T09:50:13</time>
      </trkpt>
      <trkpt lat="44.67898" lon="4.89535">
        <ele>457.8</ele>
        <time>2021-07-10T09:50:14</time>
      </trkpt>
      <trkpt lat="44.67899" lon="4.89536">
        <ele>456.6</ele>
        <time>2021-07-10T09:50:15</time>
      </trkpt>
      <trkpt lat="44.67901" lon="4.89539">
        <ele>455</ele>
        <time>2021-07-10T09:50:16</time>
      </trkpt>
      <trkpt lat="44.67904" lon="4.89545">
        <ele>453.6</ele>
        <time>2021-07-10T09:50:17</time>
      </trkpt>
      <trkpt lat="44.67907" lon="4.89555">
        <ele>451.8</ele>
        <time>2021-07-10T09:50:18</time>
      </trkpt>
      <trkpt lat="44.67907" lon="4.89555">
        <ele>450.2</ele>
        <time>2021-07-10T09:50:19</time>
      </trkpt>
      <trkpt lat="44.6791" lon="4.8956">
        <ele>448.4</ele>
        <time>2021-07-10T09:50:20</time>
      </trkpt>
      <trkpt lat="44.67913" lon="4.89565">
        <ele>446.8</ele>
        <time>2021-07-10T09:50:21</time>
      </trkpt>
      <trkpt lat="44.67916" lon="4.8957">
        <ele>445.2</ele>
        <time>2021-07-10T09:50:22</time>
      </trkpt>
      <trkpt lat="44.67922" lon="4.8958">
        <ele>443.4</ele>
        <time>2021-07-10T09:50:23</time>
      </trkpt>
      <trkpt lat="44.67922" lon="4.8958">
        <ele>441.6</ele>
        <time>2021-07-10T09:50:24</time>
      </trkpt>
      <trkpt lat="44.67925" lon="4.89586">
        <ele>440</ele>
        <time>2021-07-10T09:50:25</time>
      </trkpt>
      <trkpt lat="44.67927" lon="4.89591">
        <ele>438.4</ele>
        <time>2021-07-10T09:50:26</time>
      </trkpt>
      <trkpt lat="44.67929" lon="4.89595">
        <ele>437</ele>
        <time>2021-07-10T09:50:27</time>
      </trkpt>
      <trkpt lat="44.67937" lon="4.89602">
        <ele>435.6</ele>
        <time>2021-07-10T09:50:28</time>
      </trkpt>
      <trkpt lat="44.67937" lon="4.89602">
        <ele>434.4</ele>
        <time>2021-07-10T09:50:29</time>
      </trkpt>
      <trkpt lat="44.67941" lon="4.89605">
        <ele>433.2</ele>
        <time>2021-07-10T09:50:30</time>
      </trkpt>
      <trkpt lat="44.67944" lon="4.89608">
        <ele>432</ele>
        <time>2021-07-10T09:50:31</time>
      </trkpt>
      <trkpt lat="44.67948" lon="4.89609">
        <ele>430.8</ele>
        <time>2021-07-10T09:50:32</time>
      </trkpt>
      <trkpt lat="44.67955" lon="4.89615">
        <ele>429.6</ele>
        <time>2021-07-10T09:50:33</time>
      </trkpt>
      <trkpt lat="44.67955" lon="4.89615">
        <ele>428.4</ele>
        <time>2021-07-10T09:50:34</time>
      </trkpt>
      <trkpt lat="44.67961" lon="4.89617">
        <ele>427</ele>
        <time>2021-07-10T09:50:35</time>
      </trkpt>
      <trkpt lat="44.67965" lon="4.89619">
        <ele>425.8</ele>
        <time>2021-07-10T09:50:36</time>
      </trkpt>
      <trkpt lat="44.67969" lon="4.89621">
        <ele>424.4</ele>
        <time>2021-07-10T09:50:37</time>
      </trkpt>
      <trkpt lat="44.67974" lon="4.89623">
        <ele>423.4</ele>
        <time>2021-07-10T09:50:38</time>
      </trkpt>
      <trkpt lat="44.67974" lon="4.89623">
        <ele>422.2</ele>
        <time>2021-07-10T09:50:39</time>
      </trkpt>
      <trkpt lat="44.67977" lon="4.89623">
        <ele>421.4</ele>
        <time>2021-07-10T09:50:40</time>
      </trkpt>
      <trkpt lat="44.67978" lon="4.89622">
        <ele>420.6</ele>
        <time>2021-07-10T09:50:41</time>
      </trkpt>
      <trkpt lat="44.6798" lon="4.8962">
        <ele>420</ele>
        <time>2021-07-10T09:50:42</time>
      </trkpt>
      <trkpt lat="44.67982" lon="4.89618">
        <ele>419.8</ele>
        <time>2021-07-10T09:50:43</time>
      </trkpt>
      <trkpt lat="44.67982" lon="4.89618">
        <ele>419.6</ele>
        <time>2021-07-10T09:50:44</time>
      </trkpt>
      <trkpt lat="44.67984" lon="4.89615">
        <ele>419.4</ele>
        <time>2021-07-10T09:50:45</time>
      </trkpt>
      <trkpt lat="44.67986" lon="4.89612">
        <ele>419.2</ele>
        <time>2021-07-10T09:50:46</time>
      </trkpt>
      <trkpt lat="44.67986" lon="4.89607">
        <ele>419</ele>
        <time>2021-07-10T09:50:47</time>
      </trkpt>
      <trkpt lat="44.67988" lon="4.89601">
        <ele>418.8</ele>
        <time>2021-07-10T09:50:48</time>
      </trkpt>
      <trkpt lat="44.67988" lon="4.89601">
        <ele>418.8</ele>
        <time>2021-07-10T09:50:49</time>
      </trkpt>
      <trkpt lat="44.67989" lon="4.89598">
        <ele>418.8</ele>
        <time>2021-07-10T09:50:50</time>
      </trkpt>
      <trkpt lat="44.6799" lon="4.89594">
        <ele>419</ele>
        <time>2021-07-10T09:50:51</time>
      </trkpt>
      <trkpt lat="44.6799" lon="4.89591">
        <ele>419.2</ele>
        <time>2021-07-10T09:50:52</time>
      </trkpt>
      <trkpt lat="44.6799" lon="4.89583">
        <ele>419.2</ele>
        <time>2021-07-10T09:50:53</time>
      </trkpt>
      <trkpt lat="44.6799" lon="4.89583">
        <ele>419.4</ele>
        <time>2021-07-10T09:50:54</time>
      </trkpt>
      <trkpt lat="44.67988" lon="4.89579">
        <ele>419.8</ele>
        <time>2021-07-10T09:50:55</time>
      </trkpt>
      <trkpt lat="44.67989" lon="4.8957">
        <ele>420</ele>
        <time>2021-07-10T09:50:56</time>
      </trkpt>
      <trkpt lat="44.67989" lon="4.8957">
        <ele>420.4</ele>
        <time>2021-07-10T09:50:57</time>
      </trkpt>
      <trkpt lat="44.67998" lon="4.8956">
        <ele>420.6</ele>
        <time>2021-07-10T09:50:58</time>
      </trkpt>
      <trkpt lat="44.67998" lon="4.8956">
        <ele>420.8</ele>
        <time>2021-07-10T09:50:59</time>
      </trkpt>
      <trkpt lat="44.68004" lon="4.89555">
        <ele>421</ele>
        <time>2021-07-10T09:51:00</time>
      </trkpt>
      <trkpt lat="44.68006" lon="4.89546">
        <ele>421</ele>
        <time>2021-07-10T09:51:01</time>
      </trkpt>
      <trkpt lat="44.6801" lon="4.8954">
        <ele>421</ele>
        <time>2021-07-10T09:51:02</time>
      </trkpt>
      <trkpt lat="44.68015" lon="4.89528">
        <ele>421.2</ele>
        <time>2021-07-10T09:51:03</time>
      </trkpt>
      <trkpt lat="44.68015" lon="4.89528">
        <ele>421.2</ele>
        <time>2021-07-10T09:51:04</time>
      </trkpt>
      <trkpt lat="44.68016" lon="4.8952">
        <ele>421.2</ele>
        <time>2021-07-10T09:51:05</time>
      </trkpt>
      <trkpt lat="44.68019" lon="4.89513">
        <ele>421.2</ele>
        <time>2021-07-10T09:51:06</time>
      </trkpt>
      <trkpt lat="44.68022" lon="4.89507">
        <ele>421</ele>
        <time>2021-07-10T09:51:07</time>
      </trkpt>
      <trkpt lat="44.68026" lon="4.89496">
        <ele>421</ele>
        <time>2021-07-10T09:51:08</time>
      </trkpt>
      <trkpt lat="44.68026" lon="4.89496">
        <ele>420.8</ele>
        <time>2021-07-10T09:51:09</time>
      </trkpt>
      <trkpt lat="44.6803" lon="4.89489">
        <ele>420.6</ele>
        <time>2021-07-10T09:51:10</time>
      </trkpt>
      <trkpt lat="44.68032" lon="4.89485">
        <ele>420.4</ele>
        <time>2021-07-10T09:51:11</time>
      </trkpt>
      <trkpt lat="44.68032" lon="4.89479">
        <ele>420.2</ele>
        <time>2021-07-10T09:51:12</time>
      </trkpt>
      <trkpt lat="44.68035" lon="4.89476">
        <ele>420</ele>
        <time>2021-07-10T09:51:13</time>
      </trkpt>
      <trkpt lat="44.68037" lon="4.89471">
        <ele>420</ele>
        <time>2021-07-10T09:51:14</time>
      </trkpt>
      <trkpt lat="44.6804" lon="4.89466">
        <ele>419.8</ele>
        <time>2021-07-10T09:51:15</time>
      </trkpt>
      <trkpt lat="44.68041" lon="4.89461">
        <ele>419.8</ele>
        <time>2021-07-10T09:51:16</time>
      </trkpt>
      <trkpt lat="44.68046" lon="4.89455">
        <ele>419.6</ele>
        <time>2021-07-10T09:51:17</time>
      </trkpt>
      <trkpt lat="44.68046" lon="4.89455">
        <ele>419.6</ele>
        <time>2021-07-10T09:51:18</time>
      </trkpt>
      <trkpt lat="44.68049" lon="4.89452">
        <ele>419.2</ele>
        <time>2021-07-10T09:51:19</time>
      </trkpt>
      <trkpt lat="44.68053" lon="4.8945">
        <ele>419</ele>
        <time>2021-07-10T09:51:20</time>
      </trkpt>
      <trkpt lat="44.68054" lon="4.89446">
        <ele>418.6</ele>
        <time>2021-07-10T09:51:21</time>
      </trkpt>
      <trkpt lat="44.68058" lon="4.8944">
        <ele>418.4</ele>
        <time>2021-07-10T09:51:22</time>
      </trkpt>
      <trkpt lat="44.68058" lon="4.8944">
        <ele>418.4</ele>
        <time>2021-07-10T09:51:23</time>
      </trkpt>
      <trkpt lat="44.6806" lon="4.89438">
        <ele>418.2</ele>
        <time>2021-07-10T09:51:24</time>
      </trkpt>
      <trkpt lat="44.68062" lon="4.89437">
        <ele>418</ele>
        <time>2021-07-10T09:51:25</time>
      </trkpt>
      <trkpt lat="44.68064" lon="4.89437">
        <ele>417.8</ele>
        <time>2021-07-10T09:51:26</time>
      </trkpt>
      <trkpt lat="44.68072" lon="4.8944">
        <ele>417.6</ele>
        <time>2021-07-10T09:51:27</time>
      </trkpt>
      <trkpt lat="44.68072" lon="4.8944">
        <ele>417.2</ele>
        <time>2021-07-10T09:51:28</time>
      </trkpt>
      <trkpt lat="44.68075" lon="4.89443">
        <ele>416.6</ele>
        <time>2021-07-10T09:51:29</time>
      </trkpt>
      <trkpt lat="44.68078" lon="4.89445">
        <ele>416.2</ele>
        <time>2021-07-10T09:51:30</time>
      </trkpt>
      <trkpt lat="44.68083" lon="4.89446">
        <ele>415.6</ele>
        <time>2021-07-10T09:51:31</time>
      </trkpt>
      <trkpt lat="44.68092" lon="4.89453">
        <ele>415.2</ele>
        <time>2021-07-10T09:51:32</time>
      </trkpt>
      <trkpt lat="44.68092" lon="4.89453">
        <ele>414.6</ele>
        <time>2021-07-10T09:51:33</time>
      </trkpt>
      <trkpt lat="44.68098" lon="4.89466">
        <ele>413.6</ele>
        <time>2021-07-10T09:51:34</time>
      </trkpt>
      <trkpt lat="44.68098" lon="4.89466">
        <ele>413</ele>
        <time>2021-07-10T09:51:35</time>
      </trkpt>
      <trkpt lat="44.681" lon="4.89473">
        <ele>412.2</ele>
        <time>2021-07-10T09:51:36</time>
      </trkpt>
      <trkpt lat="44.68108" lon="4.89481">
        <ele>411.6</ele>
        <time>2021-07-10T09:51:37</time>
      </trkpt>
      <trkpt lat="44.68108" lon="4.89481">
        <ele>410.6</ele>
        <time>2021-07-10T09:51:38</time>
      </trkpt>
      <trkpt lat="44.6811" lon="4.89484">
        <ele>409.6</ele>
        <time>2021-07-10T09:51:39</time>
      </trkpt>
      <trkpt lat="44.68112" lon="4.8949">
        <ele>408.6</ele>
        <time>2021-07-10T09:51:40</time>
      </trkpt>
      <trkpt lat="44.68114" lon="4.89495">
        <ele>407.6</ele>
        <time>2021-07-10T09:51:41</time>
      </trkpt>
      <trkpt lat="44.68123" lon="4.89502">
        <ele>406.8</ele>
        <time>2021-07-10T09:51:42</time>
      </trkpt>
      <trkpt lat="44.68123" lon="4.89502">
        <ele>406</ele>
        <time>2021-07-10T09:51:43</time>
      </trkpt>
      <trkpt lat="44.68128" lon="4.89506">
        <ele>405</ele>
        <time>2021-07-10T09:51:44</time>
      </trkpt>
      <trkpt lat="44.68132" lon="4.89512">
        <ele>404</ele>
        <time>2021-07-10T09:51:45</time>
      </trkpt>
      <trkpt lat="44.68138" lon="4.89517">
        <ele>403.2</ele>
        <time>2021-07-10T09:51:46</time>
      </trkpt>
      <trkpt lat="44.68147" lon="4.89524">
        <ele>402.2</ele>
        <time>2021-07-10T09:51:47</time>
      </trkpt>
      <trkpt lat="44.68147" lon="4.89524">
        <ele>401</ele>
        <time>2021-07-10T09:51:48</time>
      </trkpt>
      <trkpt lat="44.68154" lon="4.89526">
        <ele>400</ele>
        <time>2021-07-10T09:51:49</time>
      </trkpt>
      <trkpt lat="44.6817" lon="4.89532">
        <ele>399.2</ele>
        <time>2021-07-10T09:51:50</time>
      </trkpt>
      <trkpt lat="44.6817" lon="4.89532">
        <ele>398.6</ele>
        <time>2021-07-10T09:51:51</time>
      </trkpt>
      <trkpt lat="44.68182" lon="4.89533">
        <ele>397.8</ele>
        <time>2021-07-10T09:51:52</time>
      </trkpt>
      <trkpt lat="44.68182" lon="4.89533">
        <ele>396.8</ele>
        <time>2021-07-10T09:51:53</time>
      </trkpt>
      <trkpt lat="44.68196" lon="4.89537">
        <ele>395.6</ele>
        <time>2021-07-10T09:51:54</time>
      </trkpt>
      <trkpt lat="44.68196" lon="4.89537">
        <ele>394.4</ele>
        <time>2021-07-10T09:51:55</time>
      </trkpt>
      <trkpt lat="44.68201" lon="4.89536">
        <ele>393.6</ele>
        <time>2021-07-10T09:51:56</time>
      </trkpt>
      <trkpt lat="44.68214" lon="4.89533">
        <ele>392.6</ele>
        <time>2021-07-10T09:51:57</time>
      </trkpt>
      <trkpt lat="44.68214" lon="4.89533">
        <ele>391.6</ele>
        <time>2021-07-10T09:51:58</time>
      </trkpt>
      <trkpt lat="44.68218" lon="4.89534">
        <ele>390.6</ele>
        <time>2021-07-10T09:51:59</time>
      </trkpt>
      <trkpt lat="44.68221" lon="4.89533">
        <ele>389.6</ele>
        <time>2021-07-10T09:52:00</time>
      </trkpt>
      <trkpt lat="44.68224" lon="4.89532">
        <ele>388.8</ele>
        <time>2021-07-10T09:52:01</time>
      </trkpt>
      <trkpt lat="44.68233" lon="4.89532">
        <ele>388</ele>
        <time>2021-07-10T09:52:02</time>
      </trkpt>
      <trkpt lat="44.68233" lon="4.89532">
        <ele>387.2</ele>
        <time>2021-07-10T09:52:03</time>
      </trkpt>
      <trkpt lat="44.68237" lon="4.89536">
        <ele>386.6</ele>
        <time>2021-07-10T09:52:04</time>
      </trkpt>
      <trkpt lat="44.6824" lon="4.89539">
        <ele>386.2</ele>
        <time>2021-07-10T09:52:05</time>
      </trkpt>
      <trkpt lat="44.68247" lon="4.89544">
        <ele>386.2</ele>
        <time>2021-07-10T09:52:06</time>
      </trkpt>
      <trkpt lat="44.68249" lon="4.89545">
        <ele>386</ele>
        <time>2021-07-10T09:52:07</time>
      </trkpt>
      <trkpt lat="44.68249" lon="4.89545">
        <ele>386</ele>
        <time>2021-07-10T09:52:08</time>
      </trkpt>
      <trkpt lat="44.68251" lon="4.89543">
        <ele>386</ele>
        <time>2021-07-10T09:52:09</time>
      </trkpt>
      <trkpt lat="44.68253" lon="4.89541">
        <ele>385.8</ele>
        <time>2021-07-10T09:52:10</time>
      </trkpt>
      <trkpt lat="44.68255" lon="4.89537">
        <ele>385.8</ele>
        <time>2021-07-10T09:52:11</time>
      </trkpt>
      <trkpt lat="44.68262" lon="4.89529">
        <ele>385.6</ele>
        <time>2021-07-10T09:52:12</time>
      </trkpt>
      <trkpt lat="44.68262" lon="4.89529">
        <ele>385.6</ele>
        <time>2021-07-10T09:52:13</time>
      </trkpt>
      <trkpt lat="44.68266" lon="4.89525">
        <ele>385.4</ele>
        <time>2021-07-10T09:52:14</time>
      </trkpt>
      <trkpt lat="44.68273" lon="4.89511">
        <ele>385</ele>
        <time>2021-07-10T09:52:15</time>
      </trkpt>
      <trkpt lat="44.68273" lon="4.89511">
        <ele>384.6</ele>
        <time>2021-07-10T09:52:16</time>
      </trkpt>
      <trkpt lat="44.68279" lon="4.895">
        <ele>384.2</ele>
        <time>2021-07-10T09:52:17</time>
      </trkpt>
      <trkpt lat="44.68279" lon="4.895">
        <ele>384</ele>
        <time>2021-07-10T09:52:18</time>
      </trkpt>
      <trkpt lat="44.68283" lon="4.89495">
        <ele>383.6</ele>
        <time>2021-07-10T09:52:19</time>
      </trkpt>
      <trkpt lat="44.68285" lon="4.89488">
        <ele>383.2</ele>
        <time>2021-07-10T09:52:20</time>
      </trkpt>
      <trkpt lat="44.68289" lon="4.89481">
        <ele>382.8</ele>
        <time>2021-07-10T09:52:21</time>
      </trkpt>
      <trkpt lat="44.68296" lon="4.89468">
        <ele>382.6</ele>
        <time>2021-07-10T09:52:22</time>
      </trkpt>
      <trkpt lat="44.68296" lon="4.89468">
        <ele>382.2</ele>
        <time>2021-07-10T09:52:23</time>
      </trkpt>
      <trkpt lat="44.683" lon="4.89447">
        <ele>381.8</ele>
        <time>2021-07-10T09:52:24</time>
      </trkpt>
      <trkpt lat="44.683" lon="4.89447">
        <ele>381</ele>
        <time>2021-07-10T09:52:25</time>
      </trkpt>
      <trkpt lat="44.68306" lon="4.89426">
        <ele>380.4</ele>
        <time>2021-07-10T09:52:26</time>
      </trkpt>
      <trkpt lat="44.68306" lon="4.89426">
        <ele>379.8</ele>
        <time>2021-07-10T09:52:27</time>
      </trkpt>
      <trkpt lat="44.68308" lon="4.89416">
        <ele>379.4</ele>
        <time>2021-07-10T09:52:28</time>
      </trkpt>
      <trkpt lat="44.68313" lon="4.89407">
        <ele>379</ele>
        <time>2021-07-10T09:52:29</time>
      </trkpt>
      <trkpt lat="44.68317" lon="4.89396">
        <ele>378.6</ele>
        <time>2021-07-10T09:52:30</time>
      </trkpt>
      <trkpt lat="44.68322" lon="4.89371">
        <ele>378</ele>
        <time>2021-07-10T09:52:31</time>
      </trkpt>
      <trkpt lat="44.68322" lon="4.89371">
        <ele>377.2</ele>
        <time>2021-07-10T09:52:32</time>
      </trkpt>
      <trkpt lat="44.68332" lon="4.89353">
        <ele>376.4</ele>
        <time>2021-07-10T09:52:33</time>
      </trkpt>
      <trkpt lat="44.68332" lon="4.89353">
        <ele>375.6</ele>
        <time>2021-07-10T09:52:34</time>
      </trkpt>
      <trkpt lat="44.68336" lon="4.89346">
        <ele>374.8</ele>
        <time>2021-07-10T09:52:35</time>
      </trkpt>
      <trkpt lat="44.68344" lon="4.89325">
        <ele>374.4</ele>
        <time>2021-07-10T09:52:36</time>
      </trkpt>
      <trkpt lat="44.68344" lon="4.89325">
        <ele>373.8</ele>
        <time>2021-07-10T09:52:37</time>
      </trkpt>
      <trkpt lat="44.68347" lon="4.89317">
        <ele>373.4</ele>
        <time>2021-07-10T09:52:38</time>
      </trkpt>
      <trkpt lat="44.68351" lon="4.89313">
        <ele>373</ele>
        <time>2021-07-10T09:52:39</time>
      </trkpt>
      <trkpt lat="44.68355" lon="4.89308">
        <ele>373</ele>
        <time>2021-07-10T09:52:40</time>
      </trkpt>
      <trkpt lat="44.68357" lon="4.893">
        <ele>372.8</ele>
        <time>2021-07-10T09:52:41</time>
      </trkpt>
      <trkpt lat="44.68357" lon="4.893">
        <ele>372.8</ele>
        <time>2021-07-10T09:52:42</time>
      </trkpt>
      <trkpt lat="44.6836" lon="4.89298">
        <ele>373</ele>
        <time>2021-07-10T09:52:43</time>
      </trkpt>
      <trkpt lat="44.68361" lon="4.89294">
        <ele>373</ele>
        <time>2021-07-10T09:52:44</time>
      </trkpt>
      <trkpt lat="44.68363" lon="4.8929">
        <ele>373</ele>
        <time>2021-07-10T09:52:45</time>
      </trkpt>
      <trkpt lat="44.68366" lon="4.8929">
        <ele>373</ele>
        <time>2021-07-10T09:52:46</time>
      </trkpt>
      <trkpt lat="44.68366" lon="4.8929">
        <ele>373</ele>
        <time>2021-07-10T09:52:47</time>
      </trkpt>
      <trkpt lat="44.68369" lon="4.89289">
        <ele>373</ele>
        <time>2021-07-10T09:52:48</time>
      </trkpt>
      <trkpt lat="44.68371" lon="4.8929">
        <ele>373</ele>
        <time>2021-07-10T09:52:49</time>
      </trkpt>
      <trkpt lat="44.68373" lon="4.89291">
        <ele>373.2</ele>
        <time>2021-07-10T09:52:50</time>
      </trkpt>
      <trkpt lat="44.68377" lon="4.8929">
        <ele>373.4</ele>
        <time>2021-07-10T09:52:51</time>
      </trkpt>
      <trkpt lat="44.68377" lon="4.8929">
        <ele>373.6</ele>
        <time>2021-07-10T09:52:52</time>
      </trkpt>
      <trkpt lat="44.68381" lon="4.89291">
        <ele>373.8</ele>
        <time>2021-07-10T09:52:53</time>
      </trkpt>
      <trkpt lat="44.68384" lon="4.89292">
        <ele>373.8</ele>
        <time>2021-07-10T09:52:54</time>
      </trkpt>
      <trkpt lat="44.68387" lon="4.89292">
        <ele>373.8</ele>
        <time>2021-07-10T09:52:55</time>
      </trkpt>
      <trkpt lat="44.68393" lon="4.89295">
        <ele>373.8</ele>
        <time>2021-07-10T09:52:56</time>
      </trkpt>
      <trkpt lat="44.68393" lon="4.89295">
        <ele>373.8</ele>
        <time>2021-07-10T09:52:57</time>
      </trkpt>
      <trkpt lat="44.68396" lon="4.89296">
        <ele>373.8</ele>
        <time>2021-07-10T09:52:58</time>
      </trkpt>
      <trkpt lat="44.684" lon="4.89296">
        <ele>373.6</ele>
        <time>2021-07-10T09:52:59</time>
      </trkpt>
      <trkpt lat="44.68405" lon="4.89297">
        <ele>373.6</ele>
        <time>2021-07-10T09:53:00</time>
      </trkpt>
      <trkpt lat="44.68414" lon="4.893">
        <ele>373.4</ele>
        <time>2021-07-10T09:53:01</time>
      </trkpt>
      <trkpt lat="44.68414" lon="4.893">
        <ele>373.4</ele>
        <time>2021-07-10T09:53:02</time>
      </trkpt>
      <trkpt lat="44.68419" lon="4.89302">
        <ele>373.4</ele>
        <time>2021-07-10T09:53:03</time>
      </trkpt>
      <trkpt lat="44.68422" lon="4.89303">
        <ele>373.2</ele>
        <time>2021-07-10T09:53:04</time>
      </trkpt>
      <trkpt lat="44.68426" lon="4.89305">
        <ele>373.2</ele>
        <time>2021-07-10T09:53:05</time>
      </trkpt>
      <trkpt lat="44.6843" lon="4.89307">
        <ele>373.2</ele>
        <time>2021-07-10T09:53:06</time>
      </trkpt>
      <trkpt lat="44.6843" lon="4.89307">
        <ele>373.2</ele>
        <time>2021-07-10T09:53:07</time>
      </trkpt>
      <trkpt lat="44.68441" lon="4.89309">
        <ele>373</ele>
        <time>2021-07-10T09:53:08</time>
      </trkpt>
      <trkpt lat="44.68444" lon="4.89312">
        <ele>373</ele>
        <time>2021-07-10T09:53:09</time>
      </trkpt>
      <trkpt lat="44.68447" lon="4.89315">
        <ele>373</ele>
        <time>2021-07-10T09:53:10</time>
      </trkpt>
      <trkpt lat="44.68455" lon="4.89317">
        <ele>372.8</ele>
        <time>2021-07-10T09:53:11</time>
      </trkpt>
      <trkpt lat="44.68455" lon="4.89317">
        <ele>372.8</ele>
        <time>2021-07-10T09:53:12</time>
      </trkpt>
      <trkpt lat="44.68461" lon="4.89317">
        <ele>372.8</ele>
        <time>2021-07-10T09:53:13</time>
      </trkpt>
      <trkpt lat="44.68465" lon="4.89316">
        <ele>372.8</ele>
        <time>2021-07-10T09:53:14</time>
      </trkpt>
      <trkpt lat="44.68469" lon="4.89317">
        <ele>372.8</ele>
        <time>2021-07-10T09:53:15</time>
      </trkpt>
      <trkpt lat="44.6848" lon="4.89313">
        <ele>373</ele>
        <time>2021-07-10T09:53:16</time>
      </trkpt>
      <trkpt lat="44.6848" lon="4.89313">
        <ele>373</ele>
        <time>2021-07-10T09:53:17</time>
      </trkpt>
      <trkpt lat="44.68484" lon="4.89312">
        <ele>373</ele>
        <time>2021-07-10T09:53:18</time>
      </trkpt>
      <trkpt lat="44.68494" lon="4.89308">
        <ele>373</ele>
        <time>2021-07-10T09:53:19</time>
      </trkpt>
      <trkpt lat="44.68494" lon="4.89308">
        <ele>373.2</ele>
        <time>2021-07-10T09:53:20</time>
      </trkpt>
      <trkpt lat="44.68498" lon="4.89308">
        <ele>371.2</ele>
        <time>2021-07-10T09:53:21</time>
      </trkpt>
      <trkpt lat="44.68504" lon="4.89303">
        <ele>371.4</ele>
        <time>2021-07-10T09:53:22</time>
      </trkpt>
      <trkpt lat="44.68509" lon="4.89301">
        <ele>371</ele>
        <time>2021-07-10T09:53:23</time>
      </trkpt>
      <trkpt lat="44.68514" lon="4.89298">
        <ele>371</ele>
        <time>2021-07-10T09:53:24</time>
      </trkpt>
      <trkpt lat="44.6852" lon="4.89296">
        <ele>371.4</ele>
        <time>2021-07-10T09:53:25</time>
      </trkpt>
      <trkpt lat="44.68527" lon="4.89295">
        <ele>373.6</ele>
        <time>2021-07-10T09:53:26</time>
      </trkpt>
      <trkpt lat="44.68533" lon="4.89294">
        <ele>373.6</ele>
        <time>2021-07-10T09:53:27</time>
      </trkpt>
      <trkpt lat="44.68533" lon="4.89294">
        <ele>374.2</ele>
        <time>2021-07-10T09:53:28</time>
      </trkpt>
      <trkpt lat="44.6854" lon="4.89295">
        <ele>374.2</ele>
        <time>2021-07-10T09:53:29</time>
      </trkpt>
      <trkpt lat="44.68544" lon="4.89296">
        <ele>374</ele>
        <time>2021-07-10T09:53:30</time>
      </trkpt>
      <trkpt lat="44.68549" lon="4.89296">
        <ele>374</ele>
        <time>2021-07-10T09:53:31</time>
      </trkpt>
      <trkpt lat="44.68554" lon="4.89297">
        <ele>374</ele>
        <time>2021-07-10T09:53:32</time>
      </trkpt>
      <trkpt lat="44.68556" lon="4.89296">
        <ele>374.2</ele>
        <time>2021-07-10T09:53:33</time>
      </trkpt>
      <trkpt lat="44.68556" lon="4.89296">
        <ele>374.2</ele>
        <time>2021-07-10T09:53:34</time>
      </trkpt>
      <trkpt lat="44.68562" lon="4.89292">
        <ele>374.2</ele>
        <time>2021-07-10T09:53:35</time>
      </trkpt>
      <trkpt lat="44.68564" lon="4.89291">
        <ele>374.4</ele>
        <time>2021-07-10T09:53:36</time>
      </trkpt>
      <trkpt lat="44.68569" lon="4.89292">
        <ele>374.4</ele>
        <time>2021-07-10T09:53:37</time>
      </trkpt>
      <trkpt lat="44.68572" lon="4.8929">
        <ele>374.4</ele>
        <time>2021-07-10T09:53:38</time>
      </trkpt>
      <trkpt lat="44.6858" lon="4.89284">
        <ele>374.4</ele>
        <time>2021-07-10T09:53:39</time>
      </trkpt>
      <trkpt lat="44.6858" lon="4.89284">
        <ele>374.4</ele>
        <time>2021-07-10T09:53:40</time>
      </trkpt>
      <trkpt lat="44.68584" lon="4.89281">
        <ele>374.4</ele>
        <time>2021-07-10T09:53:41</time>
      </trkpt>
      <trkpt lat="44.68589" lon="4.8928">
        <ele>374.4</ele>
        <time>2021-07-10T09:53:42</time>
      </trkpt>
      <trkpt lat="44.68594" lon="4.8928">
        <ele>374.4</ele>
        <time>2021-07-10T09:53:43</time>
      </trkpt>
      <trkpt lat="44.686" lon="4.89277">
        <ele>374.4</ele>
        <time>2021-07-10T09:53:44</time>
      </trkpt>
      <trkpt lat="44.686" lon="4.89277">
        <ele>374.4</ele>
        <time>2021-07-10T09:53:45</time>
      </trkpt>
      <trkpt lat="44.68605" lon="4.89278">
        <ele>374.4</ele>
        <time>2021-07-10T09:53:46</time>
      </trkpt>
      <trkpt lat="44.68608" lon="4.8928">
        <ele>374.6</ele>
        <time>2021-07-10T09:53:47</time>
      </trkpt>
      <trkpt lat="44.68613" lon="4.89281">
        <ele>374.4</ele>
        <time>2021-07-10T09:53:48</time>
      </trkpt>
      <trkpt lat="44.68616" lon="4.89281">
        <ele>374.4</ele>
        <time>2021-07-10T09:53:49</time>
      </trkpt>
      <trkpt lat="44.68622" lon="4.89282">
        <ele>374.2</ele>
        <time>2021-07-10T09:53:50</time>
      </trkpt>
      <trkpt lat="44.68626" lon="4.89281">
        <ele>374.2</ele>
        <time>2021-07-10T09:53:51</time>
      </trkpt>
      <trkpt lat="44.68632" lon="4.8928">
        <ele>374</ele>
        <time>2021-07-10T09:53:52</time>
      </trkpt>
      <trkpt lat="44.68639" lon="4.8928">
        <ele>373.8</ele>
        <time>2021-07-10T09:53:53</time>
      </trkpt>
      <trkpt lat="44.68643" lon="4.89279">
        <ele>373.6</ele>
        <time>2021-07-10T09:53:54</time>
      </trkpt>
      <trkpt lat="44.68646" lon="4.89279">
        <ele>373.4</ele>
        <time>2021-07-10T09:53:55</time>
      </trkpt>
      <trkpt lat="44.68658" lon="4.89282">
        <ele>373.4</ele>
        <time>2021-07-10T09:53:56</time>
      </trkpt>
      <trkpt lat="44.68658" lon="4.89282">
        <ele>373.2</ele>
        <time>2021-07-10T09:53:57</time>
      </trkpt>
      <trkpt lat="44.68664" lon="4.89282">
        <ele>373</ele>
        <time>2021-07-10T09:53:58</time>
      </trkpt>
      <trkpt lat="44.6867" lon="4.89283">
        <ele>372.8</ele>
        <time>2021-07-10T09:53:59</time>
      </trkpt>
      <trkpt lat="44.68682" lon="4.89284">
        <ele>372.6</ele>
        <time>2021-07-10T09:54:00</time>
      </trkpt>
      <trkpt lat="44.68682" lon="4.89284">
        <ele>372.4</ele>
        <time>2021-07-10T09:54:01</time>
      </trkpt>
      <trkpt lat="44.68688" lon="4.89284">
        <ele>372</ele>
        <time>2021-07-10T09:54:02</time>
      </trkpt>
      <trkpt lat="44.68702" lon="4.89287">
        <ele>371.6</ele>
        <time>2021-07-10T09:54:03</time>
      </trkpt>
      <trkpt lat="44.68702" lon="4.89287">
        <ele>371.4</ele>
        <time>2021-07-10T09:54:04</time>
      </trkpt>
      <trkpt lat="44.68708" lon="4.89289">
        <ele>371.2</ele>
        <time>2021-07-10T09:54:05</time>
      </trkpt>
      <trkpt lat="44.68714" lon="4.89288">
        <ele>371.2</ele>
        <time>2021-07-10T09:54:06</time>
      </trkpt>
      <trkpt lat="44.6872" lon="4.8929">
        <ele>371.2</ele>
        <time>2021-07-10T09:54:07</time>
      </trkpt>
      <trkpt lat="44.68725" lon="4.89291">
        <ele>371.2</ele>
        <time>2021-07-10T09:54:08</time>
      </trkpt>
      <trkpt lat="44.68728" lon="4.89291">
        <ele>371.2</ele>
        <time>2021-07-10T09:54:09</time>
      </trkpt>
      <trkpt lat="44.68733" lon="4.89291">
        <ele>371.2</ele>
        <time>2021-07-10T09:54:10</time>
      </trkpt>
      <trkpt lat="44.6874" lon="4.89292">
        <ele>371.2</ele>
        <time>2021-07-10T09:54:11</time>
      </trkpt>
      <trkpt lat="44.68743" lon="4.89293">
        <ele>371.2</ele>
        <time>2021-07-10T09:54:12</time>
      </trkpt>
      <trkpt lat="44.68747" lon="4.89294">
        <ele>371.4</ele>
        <time>2021-07-10T09:54:13</time>
      </trkpt>
      <trkpt lat="44.6875" lon="4.89294">
        <ele>371.4</ele>
        <time>2021-07-10T09:54:14</time>
      </trkpt>
      <trkpt lat="44.68753" lon="4.89298">
        <ele>371.6</ele>
        <time>2021-07-10T09:54:15</time>
      </trkpt>
      <trkpt lat="44.68757" lon="4.89297">
        <ele>371.6</ele>
        <time>2021-07-10T09:54:16</time>
      </trkpt>
      <trkpt lat="44.68762" lon="4.89298">
        <ele>371.8</ele>
        <time>2021-07-10T09:54:17</time>
      </trkpt>
      <trkpt lat="44.68766" lon="4.89299">
        <ele>371.8</ele>
        <time>2021-07-10T09:54:18</time>
      </trkpt>
      <trkpt lat="44.6877" lon="4.89302">
        <ele>372</ele>
        <time>2021-07-10T09:54:19</time>
      </trkpt>
      <trkpt lat="44.68775" lon="4.89303">
        <ele>372.2</ele>
        <time>2021-07-10T09:54:20</time>
      </trkpt>
      <trkpt lat="44.68779" lon="4.89306">
        <ele>372.4</ele>
        <time>2021-07-10T09:54:21</time>
      </trkpt>
      <trkpt lat="44.68786" lon="4.8931">
        <ele>372.6</ele>
        <time>2021-07-10T09:54:22</time>
      </trkpt>
      <trkpt lat="44.68786" lon="4.8931">
        <ele>372.6</ele>
        <time>2021-07-10T09:54:23</time>
      </trkpt>
      <trkpt lat="44.68788" lon="4.89313">
        <ele>372.6</ele>
        <time>2021-07-10T09:54:24</time>
      </trkpt>
      <trkpt lat="44.6879" lon="4.89318">
        <ele>372.6</ele>
        <time>2021-07-10T09:54:25</time>
      </trkpt>
      <trkpt lat="44.68791" lon="4.89323">
        <ele>372.6</ele>
        <time>2021-07-10T09:54:26</time>
      </trkpt>
      <trkpt lat="44.68795" lon="4.89327">
        <ele>372.6</ele>
        <time>2021-07-10T09:54:27</time>
      </trkpt>
      <trkpt lat="44.68798" lon="4.89331">
        <ele>372.4</ele>
        <time>2021-07-10T09:54:28</time>
      </trkpt>
      <trkpt lat="44.68801" lon="4.89332">
        <ele>372.4</ele>
        <time>2021-07-10T09:54:29</time>
      </trkpt>
      <trkpt lat="44.68803" lon="4.89336">
        <ele>372.4</ele>
        <time>2021-07-10T09:54:30</time>
      </trkpt>
      <trkpt lat="44.68809" lon="4.89339">
        <ele>372.4</ele>
        <time>2021-07-10T09:54:31</time>
      </trkpt>
      <trkpt lat="44.68812" lon="4.89343">
        <ele>372.4</ele>
        <time>2021-07-10T09:54:32</time>
      </trkpt>
      <trkpt lat="44.68814" lon="4.89346">
        <ele>372.4</ele>
        <time>2021-07-10T09:54:33</time>
      </trkpt>
      <trkpt lat="44.68818" lon="4.8935">
        <ele>372.6</ele>
        <time>2021-07-10T09:54:34</time>
      </trkpt>
      <trkpt lat="44.68823" lon="4.8935">
        <ele>372.6</ele>
        <time>2021-07-10T09:54:35</time>
      </trkpt>
      <trkpt lat="44.68827" lon="4.89349">
        <ele>372.8</ele>
        <time>2021-07-10T09:54:36</time>
      </trkpt>
      <trkpt lat="44.68827" lon="4.89349">
        <ele>372.8</ele>
        <time>2021-07-10T09:54:37</time>
      </trkpt>
      <trkpt lat="44.68833" lon="4.89346">
        <ele>373</ele>
        <time>2021-07-10T09:54:38</time>
      </trkpt>
      <trkpt lat="44.68842" lon="4.8934">
        <ele>373</ele>
        <time>2021-07-10T09:54:39</time>
      </trkpt>
      <trkpt lat="44.68842" lon="4.8934">
        <ele>373.2</ele>
        <time>2021-07-10T09:54:40</time>
      </trkpt>
      <trkpt lat="44.68848" lon="4.89338">
        <ele>373.4</ele>
        <time>2021-07-10T09:54:41</time>
      </trkpt>
      <trkpt lat="44.68851" lon="4.89336">
        <ele>373.6</ele>
        <time>2021-07-10T09:54:42</time>
      </trkpt>
      <trkpt lat="44.68859" lon="4.89336">
        <ele>373.8</ele>
        <time>2021-07-10T09:54:43</time>
      </trkpt>
      <trkpt lat="44.68859" lon="4.89336">
        <ele>373.8</ele>
        <time>2021-07-10T09:54:44</time>
      </trkpt>
      <trkpt lat="44.68861" lon="4.89336">
        <ele>374</ele>
        <time>2021-07-10T09:54:45</time>
      </trkpt>
      <trkpt lat="44.68864" lon="4.89333">
        <ele>374</ele>
        <time>2021-07-10T09:54:46</time>
      </trkpt>
      <trkpt lat="44.68867" lon="4.89332">
        <ele>374.2</ele>
        <time>2021-07-10T09:54:47</time>
      </trkpt>
      <trkpt lat="44.68867" lon="4.89331">
        <ele>374.4</ele>
        <time>2021-07-10T09:54:48</time>
      </trkpt>
      <trkpt lat="44.6887" lon="4.8933">
        <ele>374.6</ele>
        <time>2021-07-10T09:54:49</time>
      </trkpt>
      <trkpt lat="44.68872" lon="4.8933">
        <ele>374.8</ele>
        <time>2021-07-10T09:54:50</time>
      </trkpt>
      <trkpt lat="44.68876" lon="4.89329">
        <ele>374.8</ele>
        <time>2021-07-10T09:54:51</time>
      </trkpt>
      <trkpt lat="44.68877" lon="4.89328">
        <ele>375.2</ele>
        <time>2021-07-10T09:54:52</time>
      </trkpt>
      <trkpt lat="44.68879" lon="4.89327">
        <ele>375.4</ele>
        <time>2021-07-10T09:54:53</time>
      </trkpt>
      <trkpt lat="44.68883" lon="4.89327">
        <ele>375.6</ele>
        <time>2021-07-10T09:54:54</time>
      </trkpt>
      <trkpt lat="44.68886" lon="4.89326">
        <ele>375.8</ele>
        <time>2021-07-10T09:54:55</time>
      </trkpt>
      <trkpt lat="44.6889" lon="4.89326">
        <ele>376.2</ele>
        <time>2021-07-10T09:54:56</time>
      </trkpt>
      <trkpt lat="44.68894" lon="4.89325">
        <ele>376.4</ele>
        <time>2021-07-10T09:54:57</time>
      </trkpt>
      <trkpt lat="44.68894" lon="4.89324">
        <ele>376.6</ele>
        <time>2021-07-10T09:54:58</time>
      </trkpt>
      <trkpt lat="44.68897" lon="4.89322">
        <ele>376.8</ele>
        <time>2021-07-10T09:54:59</time>
      </trkpt>
      <trkpt lat="44.68897" lon="4.89322">
        <ele>377</ele>
        <time>2021-07-10T09:55:00</time>
      </trkpt>
      <trkpt lat="44.68899" lon="4.89321">
        <ele>377.2</ele>
        <time>2021-07-10T09:55:01</time>
      </trkpt>
      <trkpt lat="44.68903" lon="4.89322">
        <ele>377.4</ele>
        <time>2021-07-10T09:55:02</time>
      </trkpt>
      <trkpt lat="44.68905" lon="4.8932">
        <ele>377.8</ele>
        <time>2021-07-10T09:55:03</time>
      </trkpt>
      <trkpt lat="44.68909" lon="4.89319">
        <ele>378</ele>
        <time>2021-07-10T09:55:04</time>
      </trkpt>
      <trkpt lat="44.68911" lon="4.89318">
        <ele>378.2</ele>
        <time>2021-07-10T09:55:05</time>
      </trkpt>
      <trkpt lat="44.68913" lon="4.89316">
        <ele>378.4</ele>
        <time>2021-07-10T09:55:06</time>
      </trkpt>
      <trkpt lat="44.68917" lon="4.89315">
        <ele>378.6</ele>
        <time>2021-07-10T09:55:07</time>
      </trkpt>
      <trkpt lat="44.68918" lon="4.89312">
        <ele>378.8</ele>
        <time>2021-07-10T09:55:08</time>
      </trkpt>
      <trkpt lat="44.68922" lon="4.89311">
        <ele>379</ele>
        <time>2021-07-10T09:55:09</time>
      </trkpt>
      <trkpt lat="44.68922" lon="4.89311">
        <ele>379.2</ele>
        <time>2021-07-10T09:55:10</time>
      </trkpt>
      <trkpt lat="44.68925" lon="4.8931">
        <ele>379.2</ele>
        <time>2021-07-10T09:55:11</time>
      </trkpt>
      <trkpt lat="44.68925" lon="4.8931">
        <ele>379.4</ele>
        <time>2021-07-10T09:55:12</time>
      </trkpt>
      <trkpt lat="44.68932" lon="4.89311">
        <ele>379.6</ele>
        <time>2021-07-10T09:55:13</time>
      </trkpt>
      <trkpt lat="44.68935" lon="4.89307">
        <ele>379.6</ele>
        <time>2021-07-10T09:55:14</time>
      </trkpt>
      <trkpt lat="44.68935" lon="4.89307">
        <ele>379.8</ele>
        <time>2021-07-10T09:55:15</time>
      </trkpt>
      <trkpt lat="44.68938" lon="4.89305">
        <ele>380.2</ele>
        <time>2021-07-10T09:55:16</time>
      </trkpt>
      <trkpt lat="44.68944" lon="4.89307">
        <ele>380.2</ele>
        <time>2021-07-10T09:55:17</time>
      </trkpt>
      <trkpt lat="44.68944" lon="4.89307">
        <ele>380.4</ele>
        <time>2021-07-10T09:55:18</time>
      </trkpt>
      <trkpt lat="44.68944" lon="4.89305">
        <ele>380.6</ele>
        <time>2021-07-10T09:55:19</time>
      </trkpt>
      <trkpt lat="44.68946" lon="4.89301">
        <ele>380.8</ele>
        <time>2021-07-10T09:55:20</time>
      </trkpt>
      <trkpt lat="44.68951" lon="4.89296">
        <ele>381</ele>
        <time>2021-07-10T09:55:21</time>
      </trkpt>
      <trkpt lat="44.68951" lon="4.89296">
        <ele>381</ele>
        <time>2021-07-10T09:55:22</time>
      </trkpt>
      <trkpt lat="44.68954" lon="4.89295">
        <ele>381.2</ele>
        <time>2021-07-10T09:55:23</time>
      </trkpt>
      <trkpt lat="44.68956" lon="4.89292">
        <ele>381.4</ele>
        <time>2021-07-10T09:55:24</time>
      </trkpt>
      <trkpt lat="44.68958" lon="4.89291">
        <ele>381.4</ele>
        <time>2021-07-10T09:55:25</time>
      </trkpt>
      <trkpt lat="44.68961" lon="4.89289">
        <ele>381.6</ele>
        <time>2021-07-10T09:55:26</time>
      </trkpt>
      <trkpt lat="44.68963" lon="4.89289">
        <ele>381.8</ele>
        <time>2021-07-10T09:55:27</time>
      </trkpt>
      <trkpt lat="44.68967" lon="4.89287">
        <ele>382</ele>
        <time>2021-07-10T09:55:28</time>
      </trkpt>
      <trkpt lat="44.68967" lon="4.89287">
        <ele>382.2</ele>
        <time>2021-07-10T09:55:29</time>
      </trkpt>
      <trkpt lat="44.68968" lon="4.89286">
        <ele>382.2</ele>
        <time>2021-07-10T09:55:30</time>
      </trkpt>
      <trkpt lat="44.68971" lon="4.89284">
        <ele>382.2</ele>
        <time>2021-07-10T09:55:31</time>
      </trkpt>
      <trkpt lat="44.68976" lon="4.89283">
        <ele>382.4</ele>
        <time>2021-07-10T09:55:32</time>
      </trkpt>
      <trkpt lat="44.68976" lon="4.89283">
        <ele>382.4</ele>
        <time>2021-07-10T09:55:33</time>
      </trkpt>
      <trkpt lat="44.68978" lon="4.89282">
        <ele>382.4</ele>
        <time>2021-07-10T09:55:34</time>
      </trkpt>
      <trkpt lat="44.6898" lon="4.8928">
        <ele>382.4</ele>
        <time>2021-07-10T09:55:35</time>
      </trkpt>
      <trkpt lat="44.68988" lon="4.89281">
        <ele>382.4</ele>
        <time>2021-07-10T09:55:36</time>
      </trkpt>
      <trkpt lat="44.68988" lon="4.89281">
        <ele>382.4</ele>
        <time>2021-07-10T09:55:37</time>
      </trkpt>
      <trkpt lat="44.68989" lon="4.8928">
        <ele>382.4</ele>
        <time>2021-07-10T09:55:38</time>
      </trkpt>
      <trkpt lat="44.68992" lon="4.89279">
        <ele>382.6</ele>
        <time>2021-07-10T09:55:39</time>
      </trkpt>
      <trkpt lat="44.68995" lon="4.89279">
        <ele>383</ele>
        <time>2021-07-10T09:55:40</time>
      </trkpt>
      <trkpt lat="44.68997" lon="4.89279">
        <ele>383.2</ele>
        <time>2021-07-10T09:55:41</time>
      </trkpt>
      <trkpt lat="44.68999" lon="4.89277">
        <ele>383.4</ele>
        <time>2021-07-10T09:55:42</time>
      </trkpt>
      <trkpt lat="44.69002" lon="4.89274">
        <ele>383.6</ele>
        <time>2021-07-10T09:55:43</time>
      </trkpt>
      <trkpt lat="44.69002" lon="4.89274">
        <ele>383.8</ele>
        <time>2021-07-10T09:55:44</time>
      </trkpt>
      <trkpt lat="44.69004" lon="4.89273">
        <ele>384.2</ele>
        <time>2021-07-10T09:55:45</time>
      </trkpt>
      <trkpt lat="44.69006" lon="4.89274">
        <ele>384.4</ele>
        <time>2021-07-10T09:55:46</time>
      </trkpt>
      <trkpt lat="44.69007" lon="4.89272">
        <ele>384.6</ele>
        <time>2021-07-10T09:55:47</time>
      </trkpt>
      <trkpt lat="44.69007" lon="4.89272">
        <ele>384.8</ele>
        <time>2021-07-10T09:55:48</time>
      </trkpt>
      <trkpt lat="44.69009" lon="4.89271">
        <ele>385.2</ele>
        <time>2021-07-10T09:55:49</time>
      </trkpt>
      <trkpt lat="44.69011" lon="4.8927">
        <ele>385.4</ele>
        <time>2021-07-10T09:55:50</time>
      </trkpt>
      <trkpt lat="44.69012" lon="4.89269">
        <ele>385.6</ele>
        <time>2021-07-10T09:55:51</time>
      </trkpt>
      <trkpt lat="44.69013" lon="4.89269">
        <ele>385.8</ele>
        <time>2021-07-10T09:55:52</time>
      </trkpt>
      <trkpt lat="44.69015" lon="4.8927">
        <ele>386</ele>
        <time>2021-07-10T09:55:53</time>
      </trkpt>
      <trkpt lat="44.6902" lon="4.89273">
        <ele>386.4</ele>
        <time>2021-07-10T09:55:54</time>
      </trkpt>
      <trkpt lat="44.6902" lon="4.89273">
        <ele>386.6</ele>
        <time>2021-07-10T09:55:55</time>
      </trkpt>
      <trkpt lat="44.69022" lon="4.89273">
        <ele>387</ele>
        <time>2021-07-10T09:55:56</time>
      </trkpt>
      <trkpt lat="44.69023" lon="4.89274">
        <ele>387.2</ele>
        <time>2021-07-10T09:55:57</time>
      </trkpt>
      <trkpt lat="44.69024" lon="4.89274">
        <ele>387.6</ele>
        <time>2021-07-10T09:55:58</time>
      </trkpt>
      <trkpt lat="44.69027" lon="4.89275">
        <ele>387.8</ele>
        <time>2021-07-10T09:55:59</time>
      </trkpt>
      <trkpt lat="44.69028" lon="4.89275">
        <ele>388</ele>
        <time>2021-07-10T09:56:00</time>
      </trkpt>
      <trkpt lat="44.6903" lon="4.89273">
        <ele>388.2</ele>
        <time>2021-07-10T09:56:01</time>
      </trkpt>
      <trkpt lat="44.69031" lon="4.89271">
        <ele>388.4</ele>
        <time>2021-07-10T09:56:02</time>
      </trkpt>
      <trkpt lat="44.69034" lon="4.89271">
        <ele>388.6</ele>
        <time>2021-07-10T09:56:03</time>
      </trkpt>
      <trkpt lat="44.69034" lon="4.8927">
        <ele>388.8</ele>
        <time>2021-07-10T09:56:04</time>
      </trkpt>
      <trkpt lat="44.69034" lon="4.89268">
        <ele>388.8</ele>
        <time>2021-07-10T09:56:05</time>
      </trkpt>
      <trkpt lat="44.69036" lon="4.89269">
        <ele>389</ele>
        <time>2021-07-10T09:56:06</time>
      </trkpt>
      <trkpt lat="44.69038" lon="4.89268">
        <ele>389</ele>
        <time>2021-07-10T09:56:07</time>
      </trkpt>
      <trkpt lat="44.69043" lon="4.89267">
        <ele>389.2</ele>
        <time>2021-07-10T09:56:08</time>
      </trkpt>
      <trkpt lat="44.69043" lon="4.89267">
        <ele>389.4</ele>
        <time>2021-07-10T09:56:09</time>
      </trkpt>
      <trkpt lat="44.69045" lon="4.89267">
        <ele>389.4</ele>
        <time>2021-07-10T09:56:10</time>
      </trkpt>
      <trkpt lat="44.69047" lon="4.89266">
        <ele>389.6</ele>
        <time>2021-07-10T09:56:11</time>
      </trkpt>
      <trkpt lat="44.69048" lon="4.89264">
        <ele>389.6</ele>
        <time>2021-07-10T09:56:12</time>
      </trkpt>
      <trkpt lat="44.6905" lon="4.89263">
        <ele>389.6</ele>
        <time>2021-07-10T09:56:13</time>
      </trkpt>
      <trkpt lat="44.69053" lon="4.89263">
        <ele>389.6</ele>
        <time>2021-07-10T09:56:14</time>
      </trkpt>
      <trkpt lat="44.69053" lon="4.89263">
        <ele>389.6</ele>
        <time>2021-07-10T09:56:15</time>
      </trkpt>
      <trkpt lat="44.69053" lon="4.89263">
        <ele>389.6</ele>
        <time>2021-07-10T09:56:16</time>
      </trkpt>
      <trkpt lat="44.69058" lon="4.89262">
        <ele>389.4</ele>
        <time>2021-07-10T09:56:17</time>
      </trkpt>
      <trkpt lat="44.69059" lon="4.89263">
        <ele>389.4</ele>
        <time>2021-07-10T09:56:18</time>
      </trkpt>
      <trkpt lat="44.69062" lon="4.89262">
        <ele>389.4</ele>
        <time>2021-07-10T09:56:19</time>
      </trkpt>
      <trkpt lat="44.69064" lon="4.89262">
        <ele>389.4</ele>
        <time>2021-07-10T09:56:20</time>
      </trkpt>
      <trkpt lat="44.69067" lon="4.89263">
        <ele>389.4</ele>
        <time>2021-07-10T09:56:21</time>
      </trkpt>
      <trkpt lat="44.69069" lon="4.89264">
        <ele>389.4</ele>
        <time>2021-07-10T09:56:22</time>
      </trkpt>
      <trkpt lat="44.69073" lon="4.89264">
        <ele>389.4</ele>
        <time>2021-07-10T09:56:23</time>
      </trkpt>
      <trkpt lat="44.69076" lon="4.89266">
        <ele>389.6</ele>
        <time>2021-07-10T09:56:24</time>
      </trkpt>
      <trkpt lat="44.69079" lon="4.89267">
        <ele>389.8</ele>
        <time>2021-07-10T09:56:25</time>
      </trkpt>
      <trkpt lat="44.69082" lon="4.89268">
        <ele>389.8</ele>
        <time>2021-07-10T09:56:26</time>
      </trkpt>
      <trkpt lat="44.69085" lon="4.89267">
        <ele>390</ele>
        <time>2021-07-10T09:56:27</time>
      </trkpt>
      <trkpt lat="44.69088" lon="4.89268">
        <ele>390</ele>
        <time>2021-07-10T09:56:28</time>
      </trkpt>
      <trkpt lat="44.69092" lon="4.89269">
        <ele>390</ele>
        <time>2021-07-10T09:56:29</time>
      </trkpt>
      <trkpt lat="44.69095" lon="4.89271">
        <ele>390</ele>
        <time>2021-07-10T09:56:30</time>
      </trkpt>
      <trkpt lat="44.69098" lon="4.89272">
        <ele>390</ele>
        <time>2021-07-10T09:56:31</time>
      </trkpt>
      <trkpt lat="44.691" lon="4.89273">
        <ele>390.2</ele>
        <time>2021-07-10T09:56:32</time>
      </trkpt>
      <trkpt lat="44.69106" lon="4.89274">
        <ele>390.2</ele>
        <time>2021-07-10T09:56:33</time>
      </trkpt>
      <trkpt lat="44.69106" lon="4.89274">
        <ele>390.4</ele>
        <time>2021-07-10T09:56:34</time>
      </trkpt>
      <trkpt lat="44.6911" lon="4.89274">
        <ele>390.4</ele>
        <time>2021-07-10T09:56:35</time>
      </trkpt>
      <trkpt lat="44.69112" lon="4.89275">
        <ele>390.4</ele>
        <time>2021-07-10T09:56:36</time>
      </trkpt>
      <trkpt lat="44.69115" lon="4.89276">
        <ele>390.4</ele>
        <time>2021-07-10T09:56:37</time>
      </trkpt>
      <trkpt lat="44.69117" lon="4.89277">
        <ele>390.4</ele>
        <time>2021-07-10T09:56:38</time>
      </trkpt>
      <trkpt lat="44.69119" lon="4.89279">
        <ele>390.2</ele>
        <time>2021-07-10T09:56:39</time>
      </trkpt>
      <trkpt lat="44.69119" lon="4.89279">
        <ele>390.2</ele>
        <time>2021-07-10T09:56:40</time>
      </trkpt>
      <trkpt lat="44.69123" lon="4.89279">
        <ele>390</ele>
        <time>2021-07-10T09:56:41</time>
      </trkpt>
      <trkpt lat="44.69126" lon="4.89279">
        <ele>390</ele>
        <time>2021-07-10T09:56:42</time>
      </trkpt>
      <trkpt lat="44.6913" lon="4.89278">
        <ele>390</ele>
        <time>2021-07-10T09:56:43</time>
      </trkpt>
      <trkpt lat="44.69132" lon="4.89278">
        <ele>389.8</ele>
        <time>2021-07-10T09:56:44</time>
      </trkpt>
      <trkpt lat="44.69134" lon="4.89278">
        <ele>389.8</ele>
        <time>2021-07-10T09:56:45</time>
      </trkpt>
      <trkpt lat="44.69138" lon="4.8928">
        <ele>389.6</ele>
        <time>2021-07-10T09:56:46</time>
      </trkpt>
      <trkpt lat="44.69143" lon="4.89281">
        <ele>389.4</ele>
        <time>2021-07-10T09:56:47</time>
      </trkpt>
      <trkpt lat="44.69146" lon="4.8928">
        <ele>389.2</ele>
        <time>2021-07-10T09:56:48</time>
      </trkpt>
      <trkpt lat="44.6915" lon="4.8928">
        <ele>389.2</ele>
        <time>2021-07-10T09:56:49</time>
      </trkpt>
      <trkpt lat="44.69161" lon="4.89285">
        <ele>389</ele>
        <time>2021-07-10T09:56:50</time>
      </trkpt>
      <trkpt lat="44.69161" lon="4.89285">
        <ele>389</ele>
        <time>2021-07-10T09:56:51</time>
      </trkpt>
      <trkpt lat="44.69165" lon="4.89282">
        <ele>388.8</ele>
        <time>2021-07-10T09:56:52</time>
      </trkpt>
      <trkpt lat="44.69169" lon="4.89282">
        <ele>388.8</ele>
        <time>2021-07-10T09:56:53</time>
      </trkpt>
      <trkpt lat="44.69173" lon="4.89282">
        <ele>388.8</ele>
        <time>2021-07-10T09:56:54</time>
      </trkpt>
      <trkpt lat="44.69176" lon="4.89282">
        <ele>388.8</ele>
        <time>2021-07-10T09:56:55</time>
      </trkpt>
      <trkpt lat="44.69181" lon="4.89284">
        <ele>388.6</ele>
        <time>2021-07-10T09:56:56</time>
      </trkpt>
      <trkpt lat="44.69187" lon="4.89285">
        <ele>388.6</ele>
        <time>2021-07-10T09:56:57</time>
      </trkpt>
      <trkpt lat="44.69187" lon="4.89285">
        <ele>388.6</ele>
        <time>2021-07-10T09:56:58</time>
      </trkpt>
      <trkpt lat="44.69196" lon="4.89285">
        <ele>388.6</ele>
        <time>2021-07-10T09:56:59</time>
      </trkpt>
      <trkpt lat="44.69201" lon="4.89285">
        <ele>388.6</ele>
        <time>2021-07-10T09:57:00</time>
      </trkpt>
      <trkpt lat="44.69213" lon="4.89283">
        <ele>388.4</ele>
        <time>2021-07-10T09:57:01</time>
      </trkpt>
      <trkpt lat="44.69213" lon="4.89283">
        <ele>388.4</ele>
        <time>2021-07-10T09:57:02</time>
      </trkpt>
      <trkpt lat="44.69218" lon="4.89283">
        <ele>388.2</ele>
        <time>2021-07-10T09:57:03</time>
      </trkpt>
      <trkpt lat="44.69224" lon="4.89282">
        <ele>388</ele>
        <time>2021-07-10T09:57:04</time>
      </trkpt>
      <trkpt lat="44.69228" lon="4.89282">
        <ele>387.8</ele>
        <time>2021-07-10T09:57:05</time>
      </trkpt>
      <trkpt lat="44.69231" lon="4.89282">
        <ele>387.6</ele>
        <time>2021-07-10T09:57:06</time>
      </trkpt>
      <trkpt lat="44.69236" lon="4.89283">
        <ele>387.6</ele>
        <time>2021-07-10T09:57:07</time>
      </trkpt>
      <trkpt lat="44.69241" lon="4.89283">
        <ele>387.4</ele>
        <time>2021-07-10T09:57:08</time>
      </trkpt>
      <trkpt lat="44.69246" lon="4.89282">
        <ele>387.2</ele>
        <time>2021-07-10T09:57:09</time>
      </trkpt>
      <trkpt lat="44.69251" lon="4.89283">
        <ele>387</ele>
        <time>2021-07-10T09:57:10</time>
      </trkpt>
      <trkpt lat="44.69264" lon="4.89286">
        <ele>386.6</ele>
        <time>2021-07-10T09:57:11</time>
      </trkpt>
      <trkpt lat="44.69264" lon="4.89286">
        <ele>386.4</ele>
        <time>2021-07-10T09:57:12</time>
      </trkpt>
      <trkpt lat="44.6927" lon="4.89284">
        <ele>386</ele>
        <time>2021-07-10T09:57:13</time>
      </trkpt>
      <trkpt lat="44.69277" lon="4.89285">
        <ele>385.6</ele>
        <time>2021-07-10T09:57:14</time>
      </trkpt>
      <trkpt lat="44.69284" lon="4.89288">
        <ele>385.2</ele>
        <time>2021-07-10T09:57:15</time>
      </trkpt>
      <trkpt lat="44.69298" lon="4.89294">
        <ele>384.8</ele>
        <time>2021-07-10T09:57:16</time>
      </trkpt>
      <trkpt lat="44.69298" lon="4.89294">
        <ele>384.4</ele>
        <time>2021-07-10T09:57:17</time>
      </trkpt>
      <trkpt lat="44.69306" lon="4.89295">
        <ele>384</ele>
        <time>2021-07-10T09:57:18</time>
      </trkpt>
      <trkpt lat="44.69314" lon="4.89297">
        <ele>383.4</ele>
        <time>2021-07-10T09:57:19</time>
      </trkpt>
      <trkpt lat="44.6933" lon="4.89299">
        <ele>383</ele>
        <time>2021-07-10T09:57:20</time>
      </trkpt>
      <trkpt lat="44.6933" lon="4.89299">
        <ele>382.6</ele>
        <time>2021-07-10T09:57:21</time>
      </trkpt>
      <trkpt lat="44.6934" lon="4.89301">
        <ele>382</ele>
        <time>2021-07-10T09:57:22</time>
      </trkpt>
      <trkpt lat="44.69357" lon="4.89303">
        <ele>381.4</ele>
        <time>2021-07-10T09:57:23</time>
      </trkpt>
      <trkpt lat="44.69357" lon="4.89303">
        <ele>380.8</ele>
        <time>2021-07-10T09:57:24</time>
      </trkpt>
      <trkpt lat="44.69376" lon="4.89303">
        <ele>380.4</ele>
        <time>2021-07-10T09:57:25</time>
      </trkpt>
      <trkpt lat="44.69376" lon="4.89303">
        <ele>380</ele>
        <time>2021-07-10T09:57:26</time>
      </trkpt>
      <trkpt lat="44.69383" lon="4.89299">
        <ele>379.6</ele>
        <time>2021-07-10T09:57:27</time>
      </trkpt>
      <trkpt lat="44.69397" lon="4.8929">
        <ele>379.4</ele>
        <time>2021-07-10T09:57:28</time>
      </trkpt>
      <trkpt lat="44.69397" lon="4.8929">
        <ele>379.4</ele>
        <time>2021-07-10T09:57:29</time>
      </trkpt>
      <trkpt lat="44.69402" lon="4.89288">
        <ele>379.6</ele>
        <time>2021-07-10T09:57:30</time>
      </trkpt>
      <trkpt lat="44.69407" lon="4.89288">
        <ele>379.8</ele>
        <time>2021-07-10T09:57:31</time>
      </trkpt>
      <trkpt lat="44.69415" lon="4.89287">
        <ele>380</ele>
        <time>2021-07-10T09:57:32</time>
      </trkpt>
      <trkpt lat="44.69415" lon="4.89287">
        <ele>380.2</ele>
        <time>2021-07-10T09:57:33</time>
      </trkpt>
      <trkpt lat="44.69421" lon="4.89289">
        <ele>380.4</ele>
        <time>2021-07-10T09:57:34</time>
      </trkpt>
      <trkpt lat="44.69421" lon="4.89289">
        <ele>380.6</ele>
        <time>2021-07-10T09:57:35</time>
      </trkpt>
      <trkpt lat="44.69426" lon="4.8929">
        <ele>381</ele>
        <time>2021-07-10T09:57:36</time>
      </trkpt>
      <trkpt lat="44.69426" lon="4.8929">
        <ele>381.4</ele>
        <time>2021-07-10T09:57:37</time>
      </trkpt>
      <trkpt lat="44.69428" lon="4.89291">
        <ele>381.8</ele>
        <time>2021-07-10T09:57:38</time>
      </trkpt>
      <trkpt lat="44.69431" lon="4.89292">
        <ele>382</ele>
        <time>2021-07-10T09:57:39</time>
      </trkpt>
      <trkpt lat="44.69432" lon="4.89292">
        <ele>382</ele>
        <time>2021-07-10T09:57:40</time>
      </trkpt>
      <trkpt lat="44.69435" lon="4.89293">
        <ele>382</ele>
        <time>2021-07-10T09:57:41</time>
      </trkpt>
      <trkpt lat="44.69437" lon="4.89292">
        <ele>382.2</ele>
        <time>2021-07-10T09:57:42</time>
      </trkpt>
      <trkpt lat="44.69438" lon="4.89292">
        <ele>382.6</ele>
        <time>2021-07-10T09:57:43</time>
      </trkpt>
      <trkpt lat="44.6944" lon="4.89294">
        <ele>382.8</ele>
        <time>2021-07-10T09:57:44</time>
      </trkpt>
      <trkpt lat="44.69443" lon="4.89294">
        <ele>383.2</ele>
        <time>2021-07-10T09:57:45</time>
      </trkpt>
      <trkpt lat="44.69445" lon="4.89294">
        <ele>383.4</ele>
        <time>2021-07-10T09:57:46</time>
      </trkpt>
      <trkpt lat="44.69448" lon="4.89293">
        <ele>383.4</ele>
        <time>2021-07-10T09:57:47</time>
      </trkpt>
      <trkpt lat="44.6945" lon="4.89294">
        <ele>383.6</ele>
        <time>2021-07-10T09:57:48</time>
      </trkpt>
      <trkpt lat="44.69453" lon="4.89296">
        <ele>383.6</ele>
        <time>2021-07-10T09:57:49</time>
      </trkpt>
      <trkpt lat="44.69456" lon="4.89298">
        <ele>383.6</ele>
        <time>2021-07-10T09:57:50</time>
      </trkpt>
      <trkpt lat="44.69458" lon="4.89298">
        <ele>383.8</ele>
        <time>2021-07-10T09:57:51</time>
      </trkpt>
      <trkpt lat="44.69461" lon="4.89301">
        <ele>384</ele>
        <time>2021-07-10T09:57:52</time>
      </trkpt>
      <trkpt lat="44.69464" lon="4.89302">
        <ele>384</ele>
        <time>2021-07-10T09:57:53</time>
      </trkpt>
      <trkpt lat="44.69466" lon="4.89304">
        <ele>384.2</ele>
        <time>2021-07-10T09:57:54</time>
      </trkpt>
      <trkpt lat="44.6947" lon="4.89304">
        <ele>384.2</ele>
        <time>2021-07-10T09:57:55</time>
      </trkpt>
      <trkpt lat="44.69476" lon="4.89303">
        <ele>384.2</ele>
        <time>2021-07-10T09:57:56</time>
      </trkpt>
      <trkpt lat="44.69476" lon="4.89303">
        <ele>384.2</ele>
        <time>2021-07-10T09:57:57</time>
      </trkpt>
      <trkpt lat="44.69478" lon="4.89304">
        <ele>384.2</ele>
        <time>2021-07-10T09:57:58</time>
      </trkpt>
      <trkpt lat="44.6948" lon="4.89304">
        <ele>384.2</ele>
        <time>2021-07-10T09:57:59</time>
      </trkpt>
      <trkpt lat="44.69484" lon="4.89303">
        <ele>384.4</ele>
        <time>2021-07-10T09:58:00</time>
      </trkpt>
      <trkpt lat="44.69487" lon="4.89302">
        <ele>384.4</ele>
        <time>2021-07-10T09:58:01</time>
      </trkpt>
      <trkpt lat="44.69491" lon="4.89302">
        <ele>384.6</ele>
        <time>2021-07-10T09:58:02</time>
      </trkpt>
      <trkpt lat="44.69493" lon="4.89304">
        <ele>384.6</ele>
        <time>2021-07-10T09:58:03</time>
      </trkpt>
      <trkpt lat="44.69502" lon="4.89305">
        <ele>384.6</ele>
        <time>2021-07-10T09:58:04</time>
      </trkpt>
      <trkpt lat="44.69502" lon="4.89305">
        <ele>384.6</ele>
        <time>2021-07-10T09:58:05</time>
      </trkpt>
      <trkpt lat="44.69505" lon="4.89305">
        <ele>384.8</ele>
        <time>2021-07-10T09:58:06</time>
      </trkpt>
      <trkpt lat="44.69509" lon="4.89305">
        <ele>384.8</ele>
        <time>2021-07-10T09:58:07</time>
      </trkpt>
      <trkpt lat="44.69513" lon="4.89305">
        <ele>384.8</ele>
        <time>2021-07-10T09:58:08</time>
      </trkpt>
      <trkpt lat="44.69516" lon="4.89305">
        <ele>384.8</ele>
        <time>2021-07-10T09:58:09</time>
      </trkpt>
      <trkpt lat="44.69521" lon="4.89305">
        <ele>384.8</ele>
        <time>2021-07-10T09:58:10</time>
      </trkpt>
      <trkpt lat="44.69524" lon="4.89306">
        <ele>384.8</ele>
        <time>2021-07-10T09:58:11</time>
      </trkpt>
      <trkpt lat="44.69526" lon="4.89304">
        <ele>384.8</ele>
        <time>2021-07-10T09:58:12</time>
      </trkpt>
      <trkpt lat="44.6953" lon="4.89303">
        <ele>384.8</ele>
        <time>2021-07-10T09:58:13</time>
      </trkpt>
      <trkpt lat="44.69536" lon="4.89304">
        <ele>384.6</ele>
        <time>2021-07-10T09:58:14</time>
      </trkpt>
      <trkpt lat="44.69536" lon="4.89304">
        <ele>384.4</ele>
        <time>2021-07-10T09:58:15</time>
      </trkpt>
      <trkpt lat="44.69544" lon="4.89307">
        <ele>384.4</ele>
        <time>2021-07-10T09:58:16</time>
      </trkpt>
      <trkpt lat="44.69549" lon="4.89307">
        <ele>384.4</ele>
        <time>2021-07-10T09:58:17</time>
      </trkpt>
      <trkpt lat="44.69552" lon="4.89309">
        <ele>384.4</ele>
        <time>2021-07-10T09:58:18</time>
      </trkpt>
      <trkpt lat="44.69552" lon="4.89309">
        <ele>384.4</ele>
        <time>2021-07-10T09:58:19</time>
      </trkpt>
      <trkpt lat="44.69559" lon="4.89315">
        <ele>384.6</ele>
        <time>2021-07-10T09:58:20</time>
      </trkpt>
      <trkpt lat="44.69564" lon="4.89317">
        <ele>384.6</ele>
        <time>2021-07-10T09:58:21</time>
      </trkpt>
      <trkpt lat="44.69571" lon="4.89323">
        <ele>384.6</ele>
        <time>2021-07-10T09:58:22</time>
      </trkpt>
      <trkpt lat="44.69571" lon="4.89323">
        <ele>384.6</ele>
        <time>2021-07-10T09:58:23</time>
      </trkpt>
      <trkpt lat="44.69574" lon="4.89327">
        <ele>384.8</ele>
        <time>2021-07-10T09:58:24</time>
      </trkpt>
      <trkpt lat="44.69583" lon="4.89333">
        <ele>384.8</ele>
        <time>2021-07-10T09:58:25</time>
      </trkpt>
      <trkpt lat="44.69583" lon="4.89333">
        <ele>385</ele>
        <time>2021-07-10T09:58:26</time>
      </trkpt>
      <trkpt lat="44.69585" lon="4.89334">
        <ele>385.2</ele>
        <time>2021-07-10T09:58:27</time>
      </trkpt>
      <trkpt lat="44.69587" lon="4.89334">
        <ele>385.4</ele>
        <time>2021-07-10T09:58:28</time>
      </trkpt>
      <trkpt lat="44.6959" lon="4.89333">
        <ele>385.6</ele>
        <time>2021-07-10T09:58:29</time>
      </trkpt>
      <trkpt lat="44.69594" lon="4.89336">
        <ele>385.6</ele>
        <time>2021-07-10T09:58:30</time>
      </trkpt>
      <trkpt lat="44.69595" lon="4.89338">
        <ele>385.8</ele>
        <time>2021-07-10T09:58:31</time>
      </trkpt>
      <trkpt lat="44.69601" lon="4.89343">
        <ele>385.8</ele>
        <time>2021-07-10T09:58:32</time>
      </trkpt>
      <trkpt lat="44.69601" lon="4.89343">
        <ele>385.8</ele>
        <time>2021-07-10T09:58:33</time>
      </trkpt>
      <trkpt lat="44.69605" lon="4.89344">
        <ele>385.8</ele>
        <time>2021-07-10T09:58:34</time>
      </trkpt>
      <trkpt lat="44.69608" lon="4.89346">
        <ele>385.8</ele>
        <time>2021-07-10T09:58:35</time>
      </trkpt>
      <trkpt lat="44.69611" lon="4.89347">
        <ele>386</ele>
        <time>2021-07-10T09:58:36</time>
      </trkpt>
      <trkpt lat="44.69617" lon="4.89349">
        <ele>386.6</ele>
        <time>2021-07-10T09:58:37</time>
      </trkpt>
      <trkpt lat="44.69617" lon="4.89349">
        <ele>387.2</ele>
        <time>2021-07-10T09:58:38</time>
      </trkpt>
      <trkpt lat="44.69617" lon="4.89347">
        <ele>387.6</ele>
        <time>2021-07-10T09:58:39</time>
      </trkpt>
      <trkpt lat="44.69623" lon="4.89348">
        <ele>387.6</ele>
        <time>2021-07-10T09:58:40</time>
      </trkpt>
      <trkpt lat="44.6963" lon="4.89348">
        <ele>387.6</ele>
        <time>2021-07-10T09:58:41</time>
      </trkpt>
      <trkpt lat="44.69633" lon="4.89349">
        <ele>387.6</ele>
        <time>2021-07-10T09:58:42</time>
      </trkpt>
      <trkpt lat="44.69638" lon="4.8935">
        <ele>387.6</ele>
        <time>2021-07-10T09:58:43</time>
      </trkpt>
      <trkpt lat="44.69638" lon="4.8935">
        <ele>387.8</ele>
        <time>2021-07-10T09:58:44</time>
      </trkpt>
      <trkpt lat="44.69642" lon="4.8935">
        <ele>388</ele>
        <time>2021-07-10T09:58:45</time>
      </trkpt>
      <trkpt lat="44.69647" lon="4.8935">
        <ele>388.4</ele>
        <time>2021-07-10T09:58:46</time>
      </trkpt>
      <trkpt lat="44.69651" lon="4.89351">
        <ele>388.4</ele>
        <time>2021-07-10T09:58:47</time>
      </trkpt>
      <trkpt lat="44.69658" lon="4.8935">
        <ele>388.2</ele>
        <time>2021-07-10T09:58:48</time>
      </trkpt>
      <trkpt lat="44.69663" lon="4.8935">
        <ele>388.2</ele>
        <time>2021-07-10T09:58:49</time>
      </trkpt>
      <trkpt lat="44.69669" lon="4.8935">
        <ele>387.8</ele>
        <time>2021-07-10T09:58:50</time>
      </trkpt>
      <trkpt lat="44.69673" lon="4.89348">
        <ele>387.6</ele>
        <time>2021-07-10T09:58:51</time>
      </trkpt>
      <trkpt lat="44.69673" lon="4.89348">
        <ele>387.6</ele>
        <time>2021-07-10T09:58:52</time>
      </trkpt>
      <trkpt lat="44.69683" lon="4.89343">
        <ele>387.6</ele>
        <time>2021-07-10T09:58:53</time>
      </trkpt>
      <trkpt lat="44.69686" lon="4.89342">
        <ele>387.6</ele>
        <time>2021-07-10T09:58:54</time>
      </trkpt>
      <trkpt lat="44.69688" lon="4.89341">
        <ele>387.6</ele>
        <time>2021-07-10T09:58:55</time>
      </trkpt>
      <trkpt lat="44.69692" lon="4.89342">
        <ele>387.8</ele>
        <time>2021-07-10T09:58:56</time>
      </trkpt>
      <trkpt lat="44.69696" lon="4.89341">
        <ele>387.8</ele>
        <time>2021-07-10T09:58:57</time>
      </trkpt>
      <trkpt lat="44.69697" lon="4.8934">
        <ele>388</ele>
        <time>2021-07-10T09:58:58</time>
      </trkpt>
      <trkpt lat="44.69702" lon="4.8934">
        <ele>388</ele>
        <time>2021-07-10T09:58:59</time>
      </trkpt>
      <trkpt lat="44.69705" lon="4.89339">
        <ele>388</ele>
        <time>2021-07-10T09:59:00</time>
      </trkpt>
      <trkpt lat="44.69709" lon="4.89339">
        <ele>388.2</ele>
        <time>2021-07-10T09:59:01</time>
      </trkpt>
      <trkpt lat="44.69711" lon="4.89336">
        <ele>388.4</ele>
        <time>2021-07-10T09:59:02</time>
      </trkpt>
      <trkpt lat="44.69718" lon="4.89334">
        <ele>388.6</ele>
        <time>2021-07-10T09:59:03</time>
      </trkpt>
      <trkpt lat="44.69718" lon="4.89334">
        <ele>388.8</ele>
        <time>2021-07-10T09:59:04</time>
      </trkpt>
      <trkpt lat="44.69723" lon="4.89331">
        <ele>389</ele>
        <time>2021-07-10T09:59:05</time>
      </trkpt>
      <trkpt lat="44.69723" lon="4.89331">
        <ele>389.2</ele>
        <time>2021-07-10T09:59:06</time>
      </trkpt>
      <trkpt lat="44.69726" lon="4.8933">
        <ele>389.2</ele>
        <time>2021-07-10T09:59:07</time>
      </trkpt>
      <trkpt lat="44.69729" lon="4.89329">
        <ele>389.2</ele>
        <time>2021-07-10T09:59:08</time>
      </trkpt>
      <trkpt lat="44.69732" lon="4.89328">
        <ele>389.2</ele>
        <time>2021-07-10T09:59:09</time>
      </trkpt>
      <trkpt lat="44.69736" lon="4.89323">
        <ele>389.2</ele>
        <time>2021-07-10T09:59:10</time>
      </trkpt>
      <trkpt lat="44.69736" lon="4.89323">
        <ele>389.2</ele>
        <time>2021-07-10T09:59:11</time>
      </trkpt>
      <trkpt lat="44.69739" lon="4.89323">
        <ele>389.2</ele>
        <time>2021-07-10T09:59:12</time>
      </trkpt>
      <trkpt lat="44.69741" lon="4.89322">
        <ele>389</ele>
        <time>2021-07-10T09:59:13</time>
      </trkpt>
      <trkpt lat="44.69743" lon="4.89321">
        <ele>389.2</ele>
        <time>2021-07-10T09:59:14</time>
      </trkpt>
      <trkpt lat="44.69747" lon="4.89319">
        <ele>389.2</ele>
        <time>2021-07-10T09:59:15</time>
      </trkpt>
      <trkpt lat="44.69749" lon="4.89318">
        <ele>389.2</ele>
        <time>2021-07-10T09:59:16</time>
      </trkpt>
      <trkpt lat="44.69752" lon="4.89317">
        <ele>389.2</ele>
        <time>2021-07-10T09:59:17</time>
      </trkpt>
      <trkpt lat="44.69755" lon="4.89315">
        <ele>389.2</ele>
        <time>2021-07-10T09:59:18</time>
      </trkpt>
      <trkpt lat="44.69757" lon="4.89313">
        <ele>389.2</ele>
        <time>2021-07-10T09:59:19</time>
      </trkpt>
      <trkpt lat="44.69761" lon="4.89313">
        <ele>389.4</ele>
        <time>2021-07-10T09:59:20</time>
      </trkpt>
      <trkpt lat="44.69762" lon="4.89312">
        <ele>389.4</ele>
        <time>2021-07-10T09:59:21</time>
      </trkpt>
      <trkpt lat="44.69765" lon="4.89311">
        <ele>389.6</ele>
        <time>2021-07-10T09:59:22</time>
      </trkpt>
      <trkpt lat="44.69768" lon="4.89311">
        <ele>389.8</ele>
        <time>2021-07-10T09:59:23</time>
      </trkpt>
      <trkpt lat="44.69773" lon="4.89309">
        <ele>389.8</ele>
        <time>2021-07-10T09:59:24</time>
      </trkpt>
      <trkpt lat="44.69773" lon="4.89309">
        <ele>390</ele>
        <time>2021-07-10T09:59:25</time>
      </trkpt>
      <trkpt lat="44.69775" lon="4.89308">
        <ele>390</ele>
        <time>2021-07-10T09:59:26</time>
      </trkpt>
      <trkpt lat="44.69778" lon="4.89308">
        <ele>390</ele>
        <time>2021-07-10T09:59:27</time>
      </trkpt>
      <trkpt lat="44.69784" lon="4.89309">
        <ele>390.2</ele>
        <time>2021-07-10T09:59:28</time>
      </trkpt>
      <trkpt lat="44.69784" lon="4.89309">
        <ele>390.2</ele>
        <time>2021-07-10T09:59:29</time>
      </trkpt>
      <trkpt lat="44.69786" lon="4.89308">
        <ele>390.2</ele>
        <time>2021-07-10T09:59:30</time>
      </trkpt>
      <trkpt lat="44.69788" lon="4.89308">
        <ele>390.2</ele>
        <time>2021-07-10T09:59:31</time>
      </trkpt>
      <trkpt lat="44.69792" lon="4.89309">
        <ele>390</ele>
        <time>2021-07-10T09:59:32</time>
      </trkpt>
      <trkpt lat="44.69795" lon="4.89308">
        <ele>390</ele>
        <time>2021-07-10T09:59:33</time>
      </trkpt>
      <trkpt lat="44.69797" lon="4.89308">
        <ele>390.2</ele>
        <time>2021-07-10T09:59:34</time>
      </trkpt>
      <trkpt lat="44.69798" lon="4.89309">
        <ele>390.4</ele>
        <time>2021-07-10T09:59:35</time>
      </trkpt>
      <trkpt lat="44.69802" lon="4.8931">
        <ele>390.6</ele>
        <time>2021-07-10T09:59:36</time>
      </trkpt>
      <trkpt lat="44.69802" lon="4.8931">
        <ele>390.8</ele>
        <time>2021-07-10T09:59:37</time>
      </trkpt>
      <trkpt lat="44.69804" lon="4.89311">
        <ele>391</ele>
        <time>2021-07-10T09:59:38</time>
      </trkpt>
      <trkpt lat="44.69806" lon="4.89311">
        <ele>391.2</ele>
        <time>2021-07-10T09:59:39</time>
      </trkpt>
      <trkpt lat="44.69811" lon="4.89315">
        <ele>391.4</ele>
        <time>2021-07-10T09:59:40</time>
      </trkpt>
      <trkpt lat="44.69811" lon="4.89315">
        <ele>391.4</ele>
        <time>2021-07-10T09:59:41</time>
      </trkpt>
      <trkpt lat="44.69813" lon="4.89316">
        <ele>391.4</ele>
        <time>2021-07-10T09:59:42</time>
      </trkpt>
      <trkpt lat="44.69813" lon="4.89316">
        <ele>391.6</ele>
        <time>2021-07-10T09:59:43</time>
      </trkpt>
      <trkpt lat="44.69817" lon="4.89319">
        <ele>391.8</ele>
        <time>2021-07-10T09:59:44</time>
      </trkpt>
      <trkpt lat="44.6982" lon="4.8932">
        <ele>392</ele>
        <time>2021-07-10T09:59:45</time>
      </trkpt>
      <trkpt lat="44.69822" lon="4.89321">
        <ele>392</ele>
        <time>2021-07-10T09:59:46</time>
      </trkpt>
      <trkpt lat="44.69824" lon="4.89322">
        <ele>392.2</ele>
        <time>2021-07-10T09:59:47</time>
      </trkpt>
      <trkpt lat="44.69826" lon="4.89323">
        <ele>392.2</ele>
        <time>2021-07-10T09:59:48</time>
      </trkpt>
      <trkpt lat="44.6983" lon="4.89326">
        <ele>392.4</ele>
        <time>2021-07-10T09:59:49</time>
      </trkpt>
      <trkpt lat="44.6983" lon="4.89326">
        <ele>392.6</ele>
        <time>2021-07-10T09:59:50</time>
      </trkpt>
      <trkpt lat="44.69833" lon="4.89328">
        <ele>392.8</ele>
        <time>2021-07-10T09:59:51</time>
      </trkpt>
      <trkpt lat="44.69835" lon="4.8933">
        <ele>392.8</ele>
        <time>2021-07-10T09:59:52</time>
      </trkpt>
      <trkpt lat="44.69837" lon="4.89332">
        <ele>393</ele>
        <time>2021-07-10T09:59:53</time>
      </trkpt>
      <trkpt lat="44.69841" lon="4.89336">
        <ele>393.2</ele>
        <time>2021-07-10T09:59:54</time>
      </trkpt>
      <trkpt lat="44.69841" lon="4.89336">
        <ele>393.4</ele>
        <time>2021-07-10T09:59:55</time>
      </trkpt>
      <trkpt lat="44.69843" lon="4.89338">
        <ele>393.4</ele>
        <time>2021-07-10T09:59:56</time>
      </trkpt>
      <trkpt lat="44.69848" lon="4.8934">
        <ele>393.6</ele>
        <time>2021-07-10T09:59:57</time>
      </trkpt>
      <trkpt lat="44.69848" lon="4.8934">
        <ele>393.8</ele>
        <time>2021-07-10T09:59:58</time>
      </trkpt>
      <trkpt lat="44.69849" lon="4.89342">
        <ele>394</ele>
        <time>2021-07-10T09:59:59</time>
      </trkpt>
      <trkpt lat="44.69852" lon="4.89343">
        <ele>394.2</ele>
        <time>2021-07-10T10:00:00</time>
      </trkpt>
      <trkpt lat="44.69852" lon="4.89343">
        <ele>394.2</ele>
        <time>2021-07-10T10:00:01</time>
      </trkpt>
      <trkpt lat="44.69859" lon="4.89349">
        <ele>394.4</ele>
        <time>2021-07-10T10:00:02</time>
      </trkpt>
      <trkpt lat="44.69859" lon="4.89349">
        <ele>394.6</ele>
        <time>2021-07-10T10:00:03</time>
      </trkpt>
      <trkpt lat="44.69862" lon="4.8935">
        <ele>394.8</ele>
        <time>2021-07-10T10:00:04</time>
      </trkpt>
      <trkpt lat="44.69863" lon="4.89352">
        <ele>394.8</ele>
        <time>2021-07-10T10:00:05</time>
      </trkpt>
      <trkpt lat="44.69865" lon="4.89353">
        <ele>395</ele>
        <time>2021-07-10T10:00:06</time>
      </trkpt>
      <trkpt lat="44.69867" lon="4.89354">
        <ele>395.2</ele>
        <time>2021-07-10T10:00:07</time>
      </trkpt>
      <trkpt lat="44.69869" lon="4.89356">
        <ele>395.2</ele>
        <time>2021-07-10T10:00:08</time>
      </trkpt>
      <trkpt lat="44.69871" lon="4.89357">
        <ele>395.4</ele>
        <time>2021-07-10T10:00:09</time>
      </trkpt>
      <trkpt lat="44.69874" lon="4.89359">
        <ele>395.4</ele>
        <time>2021-07-10T10:00:10</time>
      </trkpt>
      <trkpt lat="44.69876" lon="4.8936">
        <ele>395.6</ele>
        <time>2021-07-10T10:00:11</time>
      </trkpt>
      <trkpt lat="44.69879" lon="4.89362">
        <ele>395.8</ele>
        <time>2021-07-10T10:00:12</time>
      </trkpt>
      <trkpt lat="44.69882" lon="4.89363">
        <ele>396</ele>
        <time>2021-07-10T10:00:13</time>
      </trkpt>
      <trkpt lat="44.69884" lon="4.89365">
        <ele>396</ele>
        <time>2021-07-10T10:00:14</time>
      </trkpt>
      <trkpt lat="44.69886" lon="4.89366">
        <ele>396.2</ele>
        <time>2021-07-10T10:00:15</time>
      </trkpt>
      <trkpt lat="44.69888" lon="4.89367">
        <ele>396.4</ele>
        <time>2021-07-10T10:00:16</time>
      </trkpt>
      <trkpt lat="44.6989" lon="4.89369">
        <ele>396.8</ele>
        <time>2021-07-10T10:00:17</time>
      </trkpt>
      <trkpt lat="44.69892" lon="4.8937">
        <ele>397</ele>
        <time>2021-07-10T10:00:18</time>
      </trkpt>
      <trkpt lat="44.69894" lon="4.89371">
        <ele>397.2</ele>
        <time>2021-07-10T10:00:19</time>
      </trkpt>
      <trkpt lat="44.69897" lon="4.89373">
        <ele>397.2</ele>
        <time>2021-07-10T10:00:20</time>
      </trkpt>
      <trkpt lat="44.69899" lon="4.89374">
        <ele>397.4</ele>
        <time>2021-07-10T10:00:21</time>
      </trkpt>
      <trkpt lat="44.699" lon="4.89375">
        <ele>397.4</ele>
        <time>2021-07-10T10:00:22</time>
      </trkpt>
      <trkpt lat="44.69903" lon="4.89376">
        <ele>397.4</ele>
        <time>2021-07-10T10:00:23</time>
      </trkpt>
      <trkpt lat="44.69905" lon="4.89377">
        <ele>397.4</ele>
        <time>2021-07-10T10:00:24</time>
      </trkpt>
      <trkpt lat="44.69907" lon="4.89378">
        <ele>397.4</ele>
        <time>2021-07-10T10:00:25</time>
      </trkpt>
      <trkpt lat="44.6991" lon="4.89379">
        <ele>397.4</ele>
        <time>2021-07-10T10:00:26</time>
      </trkpt>
      <trkpt lat="44.69912" lon="4.89381">
        <ele>397.4</ele>
        <time>2021-07-10T10:00:27</time>
      </trkpt>
      <trkpt lat="44.69914" lon="4.89382">
        <ele>397.6</ele>
        <time>2021-07-10T10:00:28</time>
      </trkpt>
      <trkpt lat="44.69917" lon="4.89383">
        <ele>397.6</ele>
        <time>2021-07-10T10:00:29</time>
      </trkpt>
      <trkpt lat="44.69919" lon="4.89385">
        <ele>398</ele>
        <time>2021-07-10T10:00:30</time>
      </trkpt>
      <trkpt lat="44.69922" lon="4.89386">
        <ele>398.2</ele>
        <time>2021-07-10T10:00:31</time>
      </trkpt>
      <trkpt lat="44.69927" lon="4.89386">
        <ele>398.4</ele>
        <time>2021-07-10T10:00:32</time>
      </trkpt>
      <trkpt lat="44.6993" lon="4.89387">
        <ele>398.4</ele>
        <time>2021-07-10T10:00:33</time>
      </trkpt>
      <trkpt lat="44.69933" lon="4.89388">
        <ele>398.6</ele>
        <time>2021-07-10T10:00:34</time>
      </trkpt>
      <trkpt lat="44.69937" lon="4.89389">
        <ele>398.6</ele>
        <time>2021-07-10T10:00:35</time>
      </trkpt>
      <trkpt lat="44.6994" lon="4.8939">
        <ele>398.6</ele>
        <time>2021-07-10T10:00:36</time>
      </trkpt>
      <trkpt lat="44.69943" lon="4.89391">
        <ele>398.6</ele>
        <time>2021-07-10T10:00:37</time>
      </trkpt>
      <trkpt lat="44.69946" lon="4.89392">
        <ele>398.6</ele>
        <time>2021-07-10T10:00:38</time>
      </trkpt>
      <trkpt lat="44.69949" lon="4.89394">
        <ele>398.6</ele>
        <time>2021-07-10T10:00:39</time>
      </trkpt>
      <trkpt lat="44.69952" lon="4.89395">
        <ele>398.6</ele>
        <time>2021-07-10T10:00:40</time>
      </trkpt>
      <trkpt lat="44.69955" lon="4.89397">
        <ele>398.8</ele>
        <time>2021-07-10T10:00:41</time>
      </trkpt>
      <trkpt lat="44.69961" lon="4.89403">
        <ele>399</ele>
        <time>2021-07-10T10:00:42</time>
      </trkpt>
      <trkpt lat="44.69961" lon="4.89403">
        <ele>399</ele>
        <time>2021-07-10T10:00:43</time>
      </trkpt>
      <trkpt lat="44.69963" lon="4.89405">
        <ele>399.2</ele>
        <time>2021-07-10T10:00:44</time>
      </trkpt>
      <trkpt lat="44.69965" lon="4.89406">
        <ele>399.2</ele>
        <time>2021-07-10T10:00:45</time>
      </trkpt>
      <trkpt lat="44.69972" lon="4.89408">
        <ele>399.2</ele>
        <time>2021-07-10T10:00:46</time>
      </trkpt>
      <trkpt lat="44.69972" lon="4.89408">
        <ele>399.2</ele>
        <time>2021-07-10T10:00:47</time>
      </trkpt>
      <trkpt lat="44.69976" lon="4.89409">
        <ele>399.4</ele>
        <time>2021-07-10T10:00:48</time>
      </trkpt>
      <trkpt lat="44.6998" lon="4.89409">
        <ele>399.4</ele>
        <time>2021-07-10T10:00:49</time>
      </trkpt>
      <trkpt lat="44.69982" lon="4.8941">
        <ele>399.6</ele>
        <time>2021-07-10T10:00:50</time>
      </trkpt>
      <trkpt lat="44.69985" lon="4.89411">
        <ele>399.8</ele>
        <time>2021-07-10T10:00:51</time>
      </trkpt>
      <trkpt lat="44.69988" lon="4.89415">
        <ele>400</ele>
        <time>2021-07-10T10:00:52</time>
      </trkpt>
      <trkpt lat="44.69991" lon="4.89418">
        <ele>400.2</ele>
        <time>2021-07-10T10:00:53</time>
      </trkpt>
      <trkpt lat="44.69994" lon="4.89418">
        <ele>400.2</ele>
        <time>2021-07-10T10:00:54</time>
      </trkpt>
      <trkpt lat="44.69998" lon="4.8942">
        <ele>400.4</ele>
        <time>2021-07-10T10:00:55</time>
      </trkpt>
      <trkpt lat="44.70004" lon="4.8942">
        <ele>400.6</ele>
        <time>2021-07-10T10:00:56</time>
      </trkpt>
      <trkpt lat="44.70004" lon="4.8942">
        <ele>400.6</ele>
        <time>2021-07-10T10:00:57</time>
      </trkpt>
      <trkpt lat="44.70005" lon="4.89422">
        <ele>400.8</ele>
        <time>2021-07-10T10:00:58</time>
      </trkpt>
      <trkpt lat="44.70011" lon="4.89424">
        <ele>401</ele>
        <time>2021-07-10T10:00:59</time>
      </trkpt>
      <trkpt lat="44.70011" lon="4.89424">
        <ele>401</ele>
        <time>2021-07-10T10:01:00</time>
      </trkpt>
      <trkpt lat="44.70014" lon="4.89426">
        <ele>401.2</ele>
        <time>2021-07-10T10:01:01</time>
      </trkpt>
      <trkpt lat="44.70017" lon="4.89427">
        <ele>401.6</ele>
        <time>2021-07-10T10:01:02</time>
      </trkpt>
      <trkpt lat="44.7002" lon="4.89428">
        <ele>401.8</ele>
        <time>2021-07-10T10:01:03</time>
      </trkpt>
      <trkpt lat="44.70024" lon="4.89429">
        <ele>401.8</ele>
        <time>2021-07-10T10:01:04</time>
      </trkpt>
      <trkpt lat="44.70029" lon="4.89432">
        <ele>401.8</ele>
        <time>2021-07-10T10:01:05</time>
      </trkpt>
      <trkpt lat="44.70029" lon="4.89432">
        <ele>401.8</ele>
        <time>2021-07-10T10:01:06</time>
      </trkpt>
      <trkpt lat="44.70032" lon="4.89432">
        <ele>402</ele>
        <time>2021-07-10T10:01:07</time>
      </trkpt>
      <trkpt lat="44.70034" lon="4.89434">
        <ele>402</ele>
        <time>2021-07-10T10:01:08</time>
      </trkpt>
      <trkpt lat="44.70038" lon="4.89434">
        <ele>402.2</ele>
        <time>2021-07-10T10:01:09</time>
      </trkpt>
      <trkpt lat="44.70044" lon="4.89435">
        <ele>402.4</ele>
        <time>2021-07-10T10:01:10</time>
      </trkpt>
      <trkpt lat="44.70044" lon="4.89435">
        <ele>402.4</ele>
        <time>2021-07-10T10:01:11</time>
      </trkpt>
      <trkpt lat="44.70046" lon="4.89438">
        <ele>402.6</ele>
        <time>2021-07-10T10:01:12</time>
      </trkpt>
      <trkpt lat="44.70048" lon="4.89437">
        <ele>402.6</ele>
        <time>2021-07-10T10:01:13</time>
      </trkpt>
      <trkpt lat="44.70048" lon="4.89437">
        <ele>402.6</ele>
        <time>2021-07-10T10:01:14</time>
      </trkpt>
      <trkpt lat="44.70054" lon="4.8944">
        <ele>402.6</ele>
        <time>2021-07-10T10:01:15</time>
      </trkpt>
      <trkpt lat="44.70056" lon="4.89441">
        <ele>402.8</ele>
        <time>2021-07-10T10:01:16</time>
      </trkpt>
      <trkpt lat="44.70061" lon="4.89444">
        <ele>403</ele>
        <time>2021-07-10T10:01:17</time>
      </trkpt>
      <trkpt lat="44.70061" lon="4.89444">
        <ele>403.2</ele>
        <time>2021-07-10T10:01:18</time>
      </trkpt>
      <trkpt lat="44.70061" lon="4.89444">
        <ele>403.2</ele>
        <time>2021-07-10T10:01:19</time>
      </trkpt>
      <trkpt lat="44.70061" lon="4.89444">
        <ele>403.4</ele>
        <time>2021-07-10T10:01:20</time>
      </trkpt>
      <trkpt lat="44.70068" lon="4.89449">
        <ele>403.6</ele>
        <time>2021-07-10T10:01:21</time>
      </trkpt>
      <trkpt lat="44.7007" lon="4.8945">
        <ele>403.8</ele>
        <time>2021-07-10T10:01:22</time>
      </trkpt>
      <trkpt lat="44.70072" lon="4.89453">
        <ele>403.8</ele>
        <time>2021-07-10T10:01:23</time>
      </trkpt>
      <trkpt lat="44.70072" lon="4.89453">
        <ele>403.8</ele>
        <time>2021-07-10T10:01:24</time>
      </trkpt>
      <trkpt lat="44.70077" lon="4.89459">
        <ele>403.8</ele>
        <time>2021-07-10T10:01:25</time>
      </trkpt>
      <trkpt lat="44.70077" lon="4.89459">
        <ele>403.8</ele>
        <time>2021-07-10T10:01:26</time>
      </trkpt>
      <trkpt lat="44.70081" lon="4.89462">
        <ele>403.8</ele>
        <time>2021-07-10T10:01:27</time>
      </trkpt>
      <trkpt lat="44.70083" lon="4.89463">
        <ele>404</ele>
        <time>2021-07-10T10:01:28</time>
      </trkpt>
      <trkpt lat="44.70083" lon="4.89465">
        <ele>404</ele>
        <time>2021-07-10T10:01:29</time>
      </trkpt>
      <trkpt lat="44.70083" lon="4.89466">
        <ele>404.2</ele>
        <time>2021-07-10T10:01:30</time>
      </trkpt>
      <trkpt lat="44.70083" lon="4.89463">
        <ele>404.4</ele>
        <time>2021-07-10T10:01:31</time>
      </trkpt>
      <trkpt lat="44.70082" lon="4.89463">
        <ele>404.4</ele>
        <time>2021-07-10T10:01:32</time>
      </trkpt>
      <trkpt lat="44.70081" lon="4.89463">
        <ele>404.4</ele>
        <time>2021-07-10T10:01:33</time>
      </trkpt>
      <trkpt lat="44.70081" lon="4.89464">
        <ele>404.4</ele>
        <time>2021-07-10T10:01:34</time>
      </trkpt>
      <trkpt lat="44.70082" lon="4.89465">
        <ele>404.4</ele>
        <time>2021-07-10T10:01:35</time>
      </trkpt>
      <trkpt lat="44.70082" lon="4.89468">
        <ele>404.6</ele>
        <time>2021-07-10T10:01:36</time>
      </trkpt>
      <trkpt lat="44.70082" lon="4.89468">
        <ele>404.6</ele>
        <time>2021-07-10T10:01:37</time>
      </trkpt>
      <trkpt lat="44.70082" lon="4.89468">
        <ele>404.6</ele>
        <time>2021-07-10T10:01:38</time>
      </trkpt>
      <trkpt lat="44.70062" lon="4.89466">
        <ele>401.4</ele>
        <time>2021-07-10T10:05:15</time>
      </trkpt>
      <trkpt lat="44.7006" lon="4.89467">
        <ele>401.4</ele>
        <time>2021-07-10T10:05:16</time>
      </trkpt>
      <trkpt lat="44.70056" lon="4.89466">
        <ele>401.6</ele>
        <time>2021-07-10T10:05:17</time>
      </trkpt>
      <trkpt lat="44.70054" lon="4.89466">
        <ele>402</ele>
        <time>2021-07-10T10:05:18</time>
      </trkpt>
      <trkpt lat="44.7005" lon="4.89466">
        <ele>402.2</ele>
        <time>2021-07-10T10:05:19</time>
      </trkpt>
      <trkpt lat="44.7005" lon="4.89466">
        <ele>402.4</ele>
        <time>2021-07-10T10:05:20</time>
      </trkpt>
      <trkpt lat="44.70047" lon="4.89466">
        <ele>402.6</ele>
        <time>2021-07-10T10:05:21</time>
      </trkpt>
      <trkpt lat="44.70046" lon="4.89465">
        <ele>402.8</ele>
        <time>2021-07-10T10:05:22</time>
      </trkpt>
      <trkpt lat="44.70044" lon="4.89465">
        <ele>403</ele>
        <time>2021-07-10T10:05:23</time>
      </trkpt>
      <trkpt lat="44.70038" lon="4.89465">
        <ele>403.2</ele>
        <time>2021-07-10T10:05:24</time>
      </trkpt>
      <trkpt lat="44.70038" lon="4.89465">
        <ele>403.2</ele>
        <time>2021-07-10T10:05:25</time>
      </trkpt>
      <trkpt lat="44.70036" lon="4.89465">
        <ele>403.4</ele>
        <time>2021-07-10T10:05:26</time>
      </trkpt>
      <trkpt lat="44.70034" lon="4.89466">
        <ele>403.4</ele>
        <time>2021-07-10T10:05:27</time>
      </trkpt>
      <trkpt lat="44.7003" lon="4.89466">
        <ele>403.4</ele>
        <time>2021-07-10T10:05:28</time>
      </trkpt>
      <trkpt lat="44.70025" lon="4.89468">
        <ele>403.4</ele>
        <time>2021-07-10T10:05:29</time>
      </trkpt>
      <trkpt lat="44.70025" lon="4.89468">
        <ele>403.6</ele>
        <time>2021-07-10T10:05:30</time>
      </trkpt>
      <trkpt lat="44.70023" lon="4.89469">
        <ele>403.6</ele>
        <time>2021-07-10T10:05:31</time>
      </trkpt>
      <trkpt lat="44.70019" lon="4.8947">
        <ele>403.8</ele>
        <time>2021-07-10T10:05:32</time>
      </trkpt>
      <trkpt lat="44.70019" lon="4.8947">
        <ele>404</ele>
        <time>2021-07-10T10:05:33</time>
      </trkpt>
      <trkpt lat="44.70015" lon="4.8947">
        <ele>404</ele>
        <time>2021-07-10T10:05:34</time>
      </trkpt>
      <trkpt lat="44.70015" lon="4.8947">
        <ele>404</ele>
        <time>2021-07-10T10:05:35</time>
      </trkpt>
      <trkpt lat="44.70013" lon="4.89471">
        <ele>404.2</ele>
        <time>2021-07-10T10:05:36</time>
      </trkpt>
      <trkpt lat="44.7001" lon="4.89471">
        <ele>404.2</ele>
        <time>2021-07-10T10:05:37</time>
      </trkpt>
      <trkpt lat="44.7001" lon="4.89471">
        <ele>404.4</ele>
        <time>2021-07-10T10:05:38</time>
      </trkpt>
      <trkpt lat="44.70003" lon="4.89473">
        <ele>404.6</ele>
        <time>2021-07-10T10:05:39</time>
      </trkpt>
      <trkpt lat="44.70003" lon="4.89473">
        <ele>404.6</ele>
        <time>2021-07-10T10:05:40</time>
      </trkpt>
      <trkpt lat="44.7" lon="4.89473">
        <ele>404.8</ele>
        <time>2021-07-10T10:05:41</time>
      </trkpt>
      <trkpt lat="44.7" lon="4.89473">
        <ele>405</ele>
        <time>2021-07-10T10:05:42</time>
      </trkpt>
      <trkpt lat="44.69996" lon="4.89473">
        <ele>405.2</ele>
        <time>2021-07-10T10:05:43</time>
      </trkpt>
      <trkpt lat="44.69991" lon="4.89473">
        <ele>405.4</ele>
        <time>2021-07-10T10:05:44</time>
      </trkpt>
      <trkpt lat="44.69991" lon="4.89473">
        <ele>405.8</ele>
        <time>2021-07-10T10:05:45</time>
      </trkpt>
      <trkpt lat="44.69987" lon="4.89475">
        <ele>406</ele>
        <time>2021-07-10T10:05:46</time>
      </trkpt>
      <trkpt lat="44.69985" lon="4.89474">
        <ele>406.2</ele>
        <time>2021-07-10T10:05:47</time>
      </trkpt>
      <trkpt lat="44.69981" lon="4.89474">
        <ele>406.2</ele>
        <time>2021-07-10T10:05:48</time>
      </trkpt>
      <trkpt lat="44.6998" lon="4.89475">
        <ele>406.4</ele>
        <time>2021-07-10T10:05:49</time>
      </trkpt>
      <trkpt lat="44.6998" lon="4.89475">
        <ele>406.8</ele>
        <time>2021-07-10T10:05:50</time>
      </trkpt>
      <trkpt lat="44.69976" lon="4.89476">
        <ele>407</ele>
        <time>2021-07-10T10:05:51</time>
      </trkpt>
      <trkpt lat="44.69974" lon="4.89477">
        <ele>407.2</ele>
        <time>2021-07-10T10:05:52</time>
      </trkpt>
      <trkpt lat="44.69973" lon="4.89477">
        <ele>407.4</ele>
        <time>2021-07-10T10:05:53</time>
      </trkpt>
      <trkpt lat="44.69969" lon="4.89476">
        <ele>407.4</ele>
        <time>2021-07-10T10:05:54</time>
      </trkpt>
      <trkpt lat="44.69969" lon="4.89476">
        <ele>407.6</ele>
        <time>2021-07-10T10:05:55</time>
      </trkpt>
      <trkpt lat="44.69968" lon="4.89477">
        <ele>407.8</ele>
        <time>2021-07-10T10:05:56</time>
      </trkpt>
      <trkpt lat="44.69966" lon="4.8948">
        <ele>408</ele>
        <time>2021-07-10T10:05:57</time>
      </trkpt>
      <trkpt lat="44.69966" lon="4.8948">
        <ele>408.2</ele>
        <time>2021-07-10T10:05:58</time>
      </trkpt>
      <trkpt lat="44.69962" lon="4.8948">
        <ele>408.4</ele>
        <time>2021-07-10T10:05:59</time>
      </trkpt>
      <trkpt lat="44.69962" lon="4.8948">
        <ele>408.6</ele>
        <time>2021-07-10T10:06:00</time>
      </trkpt>
      <trkpt lat="44.69958" lon="4.89481">
        <ele>408.8</ele>
        <time>2021-07-10T10:06:01</time>
      </trkpt>
      <trkpt lat="44.69958" lon="4.89481">
        <ele>409</ele>
        <time>2021-07-10T10:06:02</time>
      </trkpt>
      <trkpt lat="44.69957" lon="4.89482">
        <ele>409.2</ele>
        <time>2021-07-10T10:06:03</time>
      </trkpt>
      <trkpt lat="44.69954" lon="4.89481">
        <ele>409.2</ele>
        <time>2021-07-10T10:06:04</time>
      </trkpt>
      <trkpt lat="44.69954" lon="4.89481">
        <ele>409.6</ele>
        <time>2021-07-10T10:06:05</time>
      </trkpt>
      <trkpt lat="44.69952" lon="4.89482">
        <ele>409.8</ele>
        <time>2021-07-10T10:06:06</time>
      </trkpt>
      <trkpt lat="44.69952" lon="4.89482">
        <ele>410</ele>
        <time>2021-07-10T10:06:07</time>
      </trkpt>
      <trkpt lat="44.69948" lon="4.89484">
        <ele>410.2</ele>
        <time>2021-07-10T10:06:08</time>
      </trkpt>
      <trkpt lat="44.69945" lon="4.89483">
        <ele>410.4</ele>
        <time>2021-07-10T10:06:09</time>
      </trkpt>
      <trkpt lat="44.69945" lon="4.89483">
        <ele>410.6</ele>
        <time>2021-07-10T10:06:10</time>
      </trkpt>
      <trkpt lat="44.69944" lon="4.89484">
        <ele>410.8</ele>
        <time>2021-07-10T10:06:11</time>
      </trkpt>
      <trkpt lat="44.69941" lon="4.89484">
        <ele>410.8</ele>
        <time>2021-07-10T10:06:12</time>
      </trkpt>
      <trkpt lat="44.69937" lon="4.89484">
        <ele>411</ele>
        <time>2021-07-10T10:06:13</time>
      </trkpt>
      <trkpt lat="44.69937" lon="4.89484">
        <ele>411</ele>
        <time>2021-07-10T10:06:14</time>
      </trkpt>
      <trkpt lat="44.69935" lon="4.89485">
        <ele>411.2</ele>
        <time>2021-07-10T10:06:15</time>
      </trkpt>
      <trkpt lat="44.69935" lon="4.89485">
        <ele>411.6</ele>
        <time>2021-07-10T10:06:16</time>
      </trkpt>
      <trkpt lat="44.69932" lon="4.89486">
        <ele>411.8</ele>
        <time>2021-07-10T10:06:17</time>
      </trkpt>
      <trkpt lat="44.69928" lon="4.89486">
        <ele>412</ele>
        <time>2021-07-10T10:06:18</time>
      </trkpt>
      <trkpt lat="44.69928" lon="4.89486">
        <ele>412</ele>
        <time>2021-07-10T10:06:19</time>
      </trkpt>
      <trkpt lat="44.69925" lon="4.89486">
        <ele>412.4</ele>
        <time>2021-07-10T10:06:20</time>
      </trkpt>
      <trkpt lat="44.69923" lon="4.89486">
        <ele>412.6</ele>
        <time>2021-07-10T10:06:21</time>
      </trkpt>
      <trkpt lat="44.69921" lon="4.89485">
        <ele>413</ele>
        <time>2021-07-10T10:06:22</time>
      </trkpt>
      <trkpt lat="44.69918" lon="4.89487">
        <ele>413</ele>
        <time>2021-07-10T10:06:23</time>
      </trkpt>
      <trkpt lat="44.69918" lon="4.89487">
        <ele>413.2</ele>
        <time>2021-07-10T10:06:24</time>
      </trkpt>
      <trkpt lat="44.69915" lon="4.89487">
        <ele>413.4</ele>
        <time>2021-07-10T10:06:25</time>
      </trkpt>
      <trkpt lat="44.69912" lon="4.89487">
        <ele>413.6</ele>
        <time>2021-07-10T10:06:26</time>
      </trkpt>
      <trkpt lat="44.69912" lon="4.89487">
        <ele>413.8</ele>
        <time>2021-07-10T10:06:27</time>
      </trkpt>
      <trkpt lat="44.69908" lon="4.89484">
        <ele>414</ele>
        <time>2021-07-10T10:06:28</time>
      </trkpt>
      <trkpt lat="44.69908" lon="4.89484">
        <ele>414.2</ele>
        <time>2021-07-10T10:06:29</time>
      </trkpt>
      <trkpt lat="44.69905" lon="4.89484">
        <ele>414.4</ele>
        <time>2021-07-10T10:06:30</time>
      </trkpt>
      <trkpt lat="44.69904" lon="4.89484">
        <ele>414.4</ele>
        <time>2021-07-10T10:06:31</time>
      </trkpt>
      <trkpt lat="44.69902" lon="4.89483">
        <ele>414.6</ele>
        <time>2021-07-10T10:06:32</time>
      </trkpt>
      <trkpt lat="44.69898" lon="4.89484">
        <ele>414.8</ele>
        <time>2021-07-10T10:06:33</time>
      </trkpt>
      <trkpt lat="44.69898" lon="4.89484">
        <ele>415</ele>
        <time>2021-07-10T10:06:34</time>
      </trkpt>
      <trkpt lat="44.69895" lon="4.89484">
        <ele>415.2</ele>
        <time>2021-07-10T10:06:35</time>
      </trkpt>
      <trkpt lat="44.69891" lon="4.89485">
        <ele>415.6</ele>
        <time>2021-07-10T10:06:36</time>
      </trkpt>
      <trkpt lat="44.69891" lon="4.89485">
        <ele>416</ele>
        <time>2021-07-10T10:06:37</time>
      </trkpt>
      <trkpt lat="44.69888" lon="4.89482">
        <ele>416.6</ele>
        <time>2021-07-10T10:06:38</time>
      </trkpt>
      <trkpt lat="44.69888" lon="4.89482">
        <ele>417</ele>
        <time>2021-07-10T10:06:39</time>
      </trkpt>
      <trkpt lat="44.69887" lon="4.89482">
        <ele>417.2</ele>
        <time>2021-07-10T10:06:40</time>
      </trkpt>
      <trkpt lat="44.69885" lon="4.89482">
        <ele>417.6</ele>
        <time>2021-07-10T10:06:41</time>
      </trkpt>
      <trkpt lat="44.69883" lon="4.89482">
        <ele>417.8</ele>
        <time>2021-07-10T10:06:42</time>
      </trkpt>
      <trkpt lat="44.6988" lon="4.89481">
        <ele>418.2</ele>
        <time>2021-07-10T10:06:43</time>
      </trkpt>
      <trkpt lat="44.6988" lon="4.89481">
        <ele>418.6</ele>
        <time>2021-07-10T10:06:44</time>
      </trkpt>
      <trkpt lat="44.69879" lon="4.89482">
        <ele>418.8</ele>
        <time>2021-07-10T10:06:45</time>
      </trkpt>
      <trkpt lat="44.69879" lon="4.89482">
        <ele>419</ele>
        <time>2021-07-10T10:06:46</time>
      </trkpt>
      <trkpt lat="44.69879" lon="4.89483">
        <ele>419.2</ele>
        <time>2021-07-10T10:06:47</time>
      </trkpt>
      <trkpt lat="44.69876" lon="4.89486">
        <ele>419.4</ele>
        <time>2021-07-10T10:06:48</time>
      </trkpt>
      <trkpt lat="44.69876" lon="4.89486">
        <ele>419.6</ele>
        <time>2021-07-10T10:06:49</time>
      </trkpt>
      <trkpt lat="44.69876" lon="4.89485">
        <ele>419.8</ele>
        <time>2021-07-10T10:06:50</time>
      </trkpt>
      <trkpt lat="44.69877" lon="4.89484">
        <ele>419.8</ele>
        <time>2021-07-10T10:06:51</time>
      </trkpt>
      <trkpt lat="44.69877" lon="4.89484">
        <ele>420</ele>
        <time>2021-07-10T10:06:52</time>
      </trkpt>
      <trkpt lat="44.69878" lon="4.89482">
        <ele>420</ele>
        <time>2021-07-10T10:06:53</time>
      </trkpt>
      <trkpt lat="44.69878" lon="4.89482">
        <ele>420</ele>
        <time>2021-07-10T10:06:54</time>
      </trkpt>
      <trkpt lat="44.69877" lon="4.89482">
        <ele>420.2</ele>
        <time>2021-07-10T10:06:55</time>
      </trkpt>
      <trkpt lat="44.69858" lon="4.89486">
        <ele>422</ele>
        <time>2021-07-10T10:07:09</time>
      </trkpt>
      <trkpt lat="44.69856" lon="4.89488">
        <ele>422.2</ele>
        <time>2021-07-10T10:07:10</time>
      </trkpt>
      <trkpt lat="44.69855" lon="4.89491">
        <ele>422.4</ele>
        <time>2021-07-10T10:07:11</time>
      </trkpt>
      <trkpt lat="44.69853" lon="4.8949">
        <ele>422.8</ele>
        <time>2021-07-10T10:07:12</time>
      </trkpt>
      <trkpt lat="44.69852" lon="4.89492">
        <ele>423.2</ele>
        <time>2021-07-10T10:07:13</time>
      </trkpt>
      <trkpt lat="44.69852" lon="4.89492">
        <ele>423.4</ele>
        <time>2021-07-10T10:07:14</time>
      </trkpt>
      <trkpt lat="44.69851" lon="4.89494">
        <ele>423.4</ele>
        <time>2021-07-10T10:07:15</time>
      </trkpt>
      <trkpt lat="44.6985" lon="4.89496">
        <ele>423.6</ele>
        <time>2021-07-10T10:07:16</time>
      </trkpt>
      <trkpt lat="44.69848" lon="4.89494">
        <ele>423.6</ele>
        <time>2021-07-10T10:07:17</time>
      </trkpt>
      <trkpt lat="44.69847" lon="4.89494">
        <ele>423.8</ele>
        <time>2021-07-10T10:07:18</time>
      </trkpt>
      <trkpt lat="44.69847" lon="4.89494">
        <ele>424</ele>
        <time>2021-07-10T10:07:19</time>
      </trkpt>
      <trkpt lat="44.69845" lon="4.89499">
        <ele>424.2</ele>
        <time>2021-07-10T10:07:20</time>
      </trkpt>
      <trkpt lat="44.69843" lon="4.89495">
        <ele>424.4</ele>
        <time>2021-07-10T10:07:21</time>
      </trkpt>
      <trkpt lat="44.69842" lon="4.89495">
        <ele>424.6</ele>
        <time>2021-07-10T10:07:22</time>
      </trkpt>
      <trkpt lat="44.6984" lon="4.89497">
        <ele>424.8</ele>
        <time>2021-07-10T10:07:23</time>
      </trkpt>
      <trkpt lat="44.6984" lon="4.89497">
        <ele>425.2</ele>
        <time>2021-07-10T10:07:24</time>
      </trkpt>
      <trkpt lat="44.69836" lon="4.89496">
        <ele>425.2</ele>
        <time>2021-07-10T10:07:25</time>
      </trkpt>
      <trkpt lat="44.69836" lon="4.89496">
        <ele>425.4</ele>
        <time>2021-07-10T10:07:26</time>
      </trkpt>
      <trkpt lat="44.69833" lon="4.89498">
        <ele>425.8</ele>
        <time>2021-07-10T10:07:27</time>
      </trkpt>
      <trkpt lat="44.69833" lon="4.89498">
        <ele>426</ele>
        <time>2021-07-10T10:07:28</time>
      </trkpt>
      <trkpt lat="44.69831" lon="4.89499">
        <ele>426.2</ele>
        <time>2021-07-10T10:07:29</time>
      </trkpt>
      <trkpt lat="44.6983" lon="4.895">
        <ele>426.4</ele>
        <time>2021-07-10T10:07:30</time>
      </trkpt>
      <trkpt lat="44.69828" lon="4.89501">
        <ele>426.6</ele>
        <time>2021-07-10T10:07:31</time>
      </trkpt>
      <trkpt lat="44.69826" lon="4.89503">
        <ele>426.8</ele>
        <time>2021-07-10T10:07:32</time>
      </trkpt>
      <trkpt lat="44.69826" lon="4.89503">
        <ele>427</ele>
        <time>2021-07-10T10:07:33</time>
      </trkpt>
      <trkpt lat="44.69824" lon="4.89505">
        <ele>427.2</ele>
        <time>2021-07-10T10:07:34</time>
      </trkpt>
      <trkpt lat="44.69822" lon="4.89504">
        <ele>427.4</ele>
        <time>2021-07-10T10:07:35</time>
      </trkpt>
      <trkpt lat="44.69818" lon="4.89506">
        <ele>427.4</ele>
        <time>2021-07-10T10:07:36</time>
      </trkpt>
      <trkpt lat="44.69817" lon="4.89506">
        <ele>427.6</ele>
        <time>2021-07-10T10:07:37</time>
      </trkpt>
      <trkpt lat="44.69817" lon="4.89506">
        <ele>427.8</ele>
        <time>2021-07-10T10:07:38</time>
      </trkpt>
      <trkpt lat="44.69812" lon="4.89507">
        <ele>428</ele>
        <time>2021-07-10T10:07:39</time>
      </trkpt>
      <trkpt lat="44.69812" lon="4.89507">
        <ele>428.2</ele>
        <time>2021-07-10T10:07:40</time>
      </trkpt>
      <trkpt lat="44.69812" lon="4.89508">
        <ele>428.4</ele>
        <time>2021-07-10T10:07:41</time>
      </trkpt>
      <trkpt lat="44.6981" lon="4.89511">
        <ele>428.4</ele>
        <time>2021-07-10T10:07:42</time>
      </trkpt>
      <trkpt lat="44.6981" lon="4.89511">
        <ele>428.6</ele>
        <time>2021-07-10T10:07:43</time>
      </trkpt>
      <trkpt lat="44.69808" lon="4.89511">
        <ele>428.8</ele>
        <time>2021-07-10T10:07:44</time>
      </trkpt>
      <trkpt lat="44.69806" lon="4.8951">
        <ele>429</ele>
        <time>2021-07-10T10:07:45</time>
      </trkpt>
      <trkpt lat="44.69806" lon="4.8951">
        <ele>429.2</ele>
        <time>2021-07-10T10:07:46</time>
      </trkpt>
      <trkpt lat="44.69803" lon="4.89513">
        <ele>429.4</ele>
        <time>2021-07-10T10:07:47</time>
      </trkpt>
      <trkpt lat="44.69803" lon="4.89513">
        <ele>429.6</ele>
        <time>2021-07-10T10:07:48</time>
      </trkpt>
      <trkpt lat="44.69801" lon="4.89515">
        <ele>429.6</ele>
        <time>2021-07-10T10:07:49</time>
      </trkpt>
      <trkpt lat="44.698" lon="4.89515">
        <ele>429.8</ele>
        <time>2021-07-10T10:07:50</time>
      </trkpt>
      <trkpt lat="44.69799" lon="4.89516">
        <ele>430</ele>
        <time>2021-07-10T10:07:51</time>
      </trkpt>
      <trkpt lat="44.69793" lon="4.8952">
        <ele>430.2</ele>
        <time>2021-07-10T10:07:52</time>
      </trkpt>
      <trkpt lat="44.69793" lon="4.8952">
        <ele>430.4</ele>
        <time>2021-07-10T10:07:53</time>
      </trkpt>
      <trkpt lat="44.69791" lon="4.8952">
        <ele>430.6</ele>
        <time>2021-07-10T10:07:54</time>
      </trkpt>
      <trkpt lat="44.69789" lon="4.89522">
        <ele>430.8</ele>
        <time>2021-07-10T10:07:55</time>
      </trkpt>
      <trkpt lat="44.69788" lon="4.89525">
        <ele>431</ele>
        <time>2021-07-10T10:07:56</time>
      </trkpt>
      <trkpt lat="44.69786" lon="4.89524">
        <ele>431.2</ele>
        <time>2021-07-10T10:07:57</time>
      </trkpt>
      <trkpt lat="44.69786" lon="4.89524">
        <ele>431.4</ele>
        <time>2021-07-10T10:07:58</time>
      </trkpt>
      <trkpt lat="44.69786" lon="4.89524">
        <ele>431.6</ele>
        <time>2021-07-10T10:07:59</time>
      </trkpt>
      <trkpt lat="44.69785" lon="4.89526">
        <ele>431.6</ele>
        <time>2021-07-10T10:08:00</time>
      </trkpt>
      <trkpt lat="44.69783" lon="4.89528">
        <ele>431.8</ele>
        <time>2021-07-10T10:08:01</time>
      </trkpt>
      <trkpt lat="44.69783" lon="4.89535">
        <ele>432</ele>
        <time>2021-07-10T10:08:02</time>
      </trkpt>
      <trkpt lat="44.69783" lon="4.89535">
        <ele>432.4</ele>
        <time>2021-07-10T10:08:03</time>
      </trkpt>
      <trkpt lat="44.69781" lon="4.89534">
        <ele>432.6</ele>
        <time>2021-07-10T10:08:04</time>
      </trkpt>
      <trkpt lat="44.69782" lon="4.89533">
        <ele>432.8</ele>
        <time>2021-07-10T10:08:05</time>
      </trkpt>
      <trkpt lat="44.69779" lon="4.89535">
        <ele>432.8</ele>
        <time>2021-07-10T10:08:06</time>
      </trkpt>
      <trkpt lat="44.69776" lon="4.89538">
        <ele>433</ele>
        <time>2021-07-10T10:08:07</time>
      </trkpt>
      <trkpt lat="44.69776" lon="4.89538">
        <ele>433.2</ele>
        <time>2021-07-10T10:08:08</time>
      </trkpt>
      <trkpt lat="44.69771" lon="4.89537">
        <ele>433.6</ele>
        <time>2021-07-10T10:08:09</time>
      </trkpt>
      <trkpt lat="44.69768" lon="4.89537">
        <ele>433.8</ele>
        <time>2021-07-10T10:08:10</time>
      </trkpt>
      <trkpt lat="44.69766" lon="4.89536">
        <ele>434</ele>
        <time>2021-07-10T10:08:11</time>
      </trkpt>
      <trkpt lat="44.69762" lon="4.89535">
        <ele>434.2</ele>
        <time>2021-07-10T10:08:12</time>
      </trkpt>
      <trkpt lat="44.69762" lon="4.89535">
        <ele>434.4</ele>
        <time>2021-07-10T10:08:13</time>
      </trkpt>
      <trkpt lat="44.69761" lon="4.89535">
        <ele>434.6</ele>
        <time>2021-07-10T10:08:14</time>
      </trkpt>
      <trkpt lat="44.69758" lon="4.89534">
        <ele>434.6</ele>
        <time>2021-07-10T10:08:15</time>
      </trkpt>
      <trkpt lat="44.69759" lon="4.89536">
        <ele>434.6</ele>
        <time>2021-07-10T10:08:16</time>
      </trkpt>
      <trkpt lat="44.69757" lon="4.89537">
        <ele>434.8</ele>
        <time>2021-07-10T10:08:17</time>
      </trkpt>
      <trkpt lat="44.69757" lon="4.89537">
        <ele>434.8</ele>
        <time>2021-07-10T10:08:18</time>
      </trkpt>
      <trkpt lat="44.69755" lon="4.89538">
        <ele>435</ele>
        <time>2021-07-10T10:08:19</time>
      </trkpt>
      <trkpt lat="44.69753" lon="4.89541">
        <ele>435</ele>
        <time>2021-07-10T10:08:20</time>
      </trkpt>
      <trkpt lat="44.69753" lon="4.89541">
        <ele>435.2</ele>
        <time>2021-07-10T10:08:21</time>
      </trkpt>
      <trkpt lat="44.69752" lon="4.89541">
        <ele>435.4</ele>
        <time>2021-07-10T10:08:22</time>
      </trkpt>
      <trkpt lat="44.69752" lon="4.89541">
        <ele>435.6</ele>
        <time>2021-07-10T10:08:23</time>
      </trkpt>
      <trkpt lat="44.69748" lon="4.89539">
        <ele>435.8</ele>
        <time>2021-07-10T10:08:24</time>
      </trkpt>
      <trkpt lat="44.69748" lon="4.89539">
        <ele>436</ele>
        <time>2021-07-10T10:08:25</time>
      </trkpt>
      <trkpt lat="44.69746" lon="4.89541">
        <ele>436.2</ele>
        <time>2021-07-10T10:08:26</time>
      </trkpt>
      <trkpt lat="44.69743" lon="4.89543">
        <ele>436.4</ele>
        <time>2021-07-10T10:08:27</time>
      </trkpt>
      <trkpt lat="44.69743" lon="4.89543">
        <ele>436.4</ele>
        <time>2021-07-10T10:08:28</time>
      </trkpt>
      <trkpt lat="44.6974" lon="4.89547">
        <ele>436.6</ele>
        <time>2021-07-10T10:08:29</time>
      </trkpt>
      <trkpt lat="44.69737" lon="4.8955">
        <ele>436.6</ele>
        <time>2021-07-10T10:08:30</time>
      </trkpt>
      <trkpt lat="44.69735" lon="4.89552">
        <ele>436.6</ele>
        <time>2021-07-10T10:08:31</time>
      </trkpt>
      <trkpt lat="44.69732" lon="4.89552">
        <ele>436.6</ele>
        <time>2021-07-10T10:08:32</time>
      </trkpt>
      <trkpt lat="44.69732" lon="4.89552">
        <ele>436.8</ele>
        <time>2021-07-10T10:08:33</time>
      </trkpt>
      <trkpt lat="44.69731" lon="4.89552">
        <ele>436.8</ele>
        <time>2021-07-10T10:08:34</time>
      </trkpt>
      <trkpt lat="44.69727" lon="4.89552">
        <ele>437</ele>
        <time>2021-07-10T10:08:35</time>
      </trkpt>
      <trkpt lat="44.69727" lon="4.89552">
        <ele>437</ele>
        <time>2021-07-10T10:08:36</time>
      </trkpt>
      <trkpt lat="44.6972" lon="4.89549">
        <ele>437</ele>
        <time>2021-07-10T10:08:37</time>
      </trkpt>
      <trkpt lat="44.6972" lon="4.89549">
        <ele>437.2</ele>
        <time>2021-07-10T10:08:38</time>
      </trkpt>
      <trkpt lat="44.69717" lon="4.8955">
        <ele>437.4</ele>
        <time>2021-07-10T10:08:39</time>
      </trkpt>
      <trkpt lat="44.69717" lon="4.8955">
        <ele>437.4</ele>
        <time>2021-07-10T10:08:40</time>
      </trkpt>
      <trkpt lat="44.69715" lon="4.89549">
        <ele>437.4</ele>
        <time>2021-07-10T10:08:41</time>
      </trkpt>
      <trkpt lat="44.69708" lon="4.89553">
        <ele>437.6</ele>
        <time>2021-07-10T10:08:42</time>
      </trkpt>
      <trkpt lat="44.69708" lon="4.89553">
        <ele>437.8</ele>
        <time>2021-07-10T10:08:43</time>
      </trkpt>
      <trkpt lat="44.69706" lon="4.89553">
        <ele>437.8</ele>
        <time>2021-07-10T10:08:44</time>
      </trkpt>
      <trkpt lat="44.69704" lon="4.8955">
        <ele>438</ele>
        <time>2021-07-10T10:08:45</time>
      </trkpt>
      <trkpt lat="44.69701" lon="4.89553">
        <ele>438.2</ele>
        <time>2021-07-10T10:08:46</time>
      </trkpt>
      <trkpt lat="44.69698" lon="4.89552">
        <ele>438.2</ele>
        <time>2021-07-10T10:08:47</time>
      </trkpt>
      <trkpt lat="44.69698" lon="4.89552">
        <ele>438.4</ele>
        <time>2021-07-10T10:08:48</time>
      </trkpt>
      <trkpt lat="44.69693" lon="4.89555">
        <ele>438.4</ele>
        <time>2021-07-10T10:08:49</time>
      </trkpt>
      <trkpt lat="44.69688" lon="4.89555">
        <ele>438.4</ele>
        <time>2021-07-10T10:08:50</time>
      </trkpt>
      <trkpt lat="44.69688" lon="4.89555">
        <ele>438.4</ele>
        <time>2021-07-10T10:08:51</time>
      </trkpt>
      <trkpt lat="44.69683" lon="4.89554">
        <ele>438.6</ele>
        <time>2021-07-10T10:08:52</time>
      </trkpt>
      <trkpt lat="44.69683" lon="4.89554">
        <ele>438.8</ele>
        <time>2021-07-10T10:08:53</time>
      </trkpt>
      <trkpt lat="44.6968" lon="4.89553">
        <ele>438.8</ele>
        <time>2021-07-10T10:08:54</time>
      </trkpt>
      <trkpt lat="44.6968" lon="4.89553">
        <ele>439</ele>
        <time>2021-07-10T10:08:55</time>
      </trkpt>
      <trkpt lat="44.69673" lon="4.89549">
        <ele>439</ele>
        <time>2021-07-10T10:08:56</time>
      </trkpt>
      <trkpt lat="44.69673" lon="4.89549">
        <ele>439</ele>
        <time>2021-07-10T10:08:57</time>
      </trkpt>
      <trkpt lat="44.69672" lon="4.8955">
        <ele>439.2</ele>
        <time>2021-07-10T10:08:58</time>
      </trkpt>
      <trkpt lat="44.69669" lon="4.89549">
        <ele>439.2</ele>
        <time>2021-07-10T10:08:59</time>
      </trkpt>
      <trkpt lat="44.69666" lon="4.89549">
        <ele>439.4</ele>
        <time>2021-07-10T10:09:00</time>
      </trkpt>
      <trkpt lat="44.69661" lon="4.89549">
        <ele>439.4</ele>
        <time>2021-07-10T10:09:01</time>
      </trkpt>
      <trkpt lat="44.69661" lon="4.89549">
        <ele>439.4</ele>
        <time>2021-07-10T10:09:02</time>
      </trkpt>
      <trkpt lat="44.69658" lon="4.89551">
        <ele>439.6</ele>
        <time>2021-07-10T10:09:03</time>
      </trkpt>
      <trkpt lat="44.69655" lon="4.89552">
        <ele>439.8</ele>
        <time>2021-07-10T10:09:04</time>
      </trkpt>
      <trkpt lat="44.69652" lon="4.89552">
        <ele>439.8</ele>
        <time>2021-07-10T10:09:05</time>
      </trkpt>
      <trkpt lat="44.69648" lon="4.89555">
        <ele>440</ele>
        <time>2021-07-10T10:09:06</time>
      </trkpt>
      <trkpt lat="44.69648" lon="4.89555">
        <ele>440</ele>
        <time>2021-07-10T10:09:07</time>
      </trkpt>
      <trkpt lat="44.6964" lon="4.89555">
        <ele>440</ele>
        <time>2021-07-10T10:09:08</time>
      </trkpt>
      <trkpt lat="44.6964" lon="4.89555">
        <ele>440</ele>
        <time>2021-07-10T10:09:09</time>
      </trkpt>
      <trkpt lat="44.69636" lon="4.89554">
        <ele>440</ele>
        <time>2021-07-10T10:09:10</time>
      </trkpt>
      <trkpt lat="44.69628" lon="4.89553">
        <ele>440.2</ele>
        <time>2021-07-10T10:09:11</time>
      </trkpt>
      <trkpt lat="44.69628" lon="4.89553">
        <ele>440.2</ele>
        <time>2021-07-10T10:09:12</time>
      </trkpt>
      <trkpt lat="44.69622" lon="4.89556">
        <ele>440.2</ele>
        <time>2021-07-10T10:09:13</time>
      </trkpt>
      <trkpt lat="44.69622" lon="4.89556">
        <ele>440.4</ele>
        <time>2021-07-10T10:09:14</time>
      </trkpt>
      <trkpt lat="44.69618" lon="4.89553">
        <ele>440.4</ele>
        <time>2021-07-10T10:09:15</time>
      </trkpt>
      <trkpt lat="44.69608" lon="4.89552">
        <ele>440.6</ele>
        <time>2021-07-10T10:09:16</time>
      </trkpt>
      <trkpt lat="44.69608" lon="4.89552">
        <ele>440.6</ele>
        <time>2021-07-10T10:09:17</time>
      </trkpt>
      <trkpt lat="44.69605" lon="4.89554">
        <ele>440.6</ele>
        <time>2021-07-10T10:09:18</time>
      </trkpt>
      <trkpt lat="44.69601" lon="4.89555">
        <ele>440.4</ele>
        <time>2021-07-10T10:09:19</time>
      </trkpt>
      <trkpt lat="44.69598" lon="4.89554">
        <ele>440.4</ele>
        <time>2021-07-10T10:09:20</time>
      </trkpt>
      <trkpt lat="44.6959" lon="4.89552">
        <ele>440.4</ele>
        <time>2021-07-10T10:09:21</time>
      </trkpt>
      <trkpt lat="44.6959" lon="4.89552">
        <ele>440.4</ele>
        <time>2021-07-10T10:09:22</time>
      </trkpt>
      <trkpt lat="44.69586" lon="4.89552">
        <ele>440.6</ele>
        <time>2021-07-10T10:09:23</time>
      </trkpt>
      <trkpt lat="44.69582" lon="4.89555">
        <ele>440.6</ele>
        <time>2021-07-10T10:09:24</time>
      </trkpt>
      <trkpt lat="44.69572" lon="4.89557">
        <ele>440.6</ele>
        <time>2021-07-10T10:09:25</time>
      </trkpt>
      <trkpt lat="44.6957" lon="4.89558">
        <ele>440.6</ele>
        <time>2021-07-10T10:09:26</time>
      </trkpt>
      <trkpt lat="44.6957" lon="4.89558">
        <ele>440.6</ele>
        <time>2021-07-10T10:09:27</time>
      </trkpt>
      <trkpt lat="44.69565" lon="4.89557">
        <ele>440.6</ele>
        <time>2021-07-10T10:09:28</time>
      </trkpt>
      <trkpt lat="44.69563" lon="4.89553">
        <ele>440.6</ele>
        <time>2021-07-10T10:09:29</time>
      </trkpt>
      <trkpt lat="44.69558" lon="4.89555">
        <ele>440.6</ele>
        <time>2021-07-10T10:09:30</time>
      </trkpt>
      <trkpt lat="44.69549" lon="4.8955">
        <ele>440.8</ele>
        <time>2021-07-10T10:09:31</time>
      </trkpt>
      <trkpt lat="44.69549" lon="4.8955">
        <ele>440.8</ele>
        <time>2021-07-10T10:09:32</time>
      </trkpt>
      <trkpt lat="44.69542" lon="4.8955">
        <ele>440.6</ele>
        <time>2021-07-10T10:09:33</time>
      </trkpt>
      <trkpt lat="44.69537" lon="4.8955">
        <ele>440.6</ele>
        <time>2021-07-10T10:09:34</time>
      </trkpt>
      <trkpt lat="44.69533" lon="4.89552">
        <ele>440.6</ele>
        <time>2021-07-10T10:09:35</time>
      </trkpt>
      <trkpt lat="44.69527" lon="4.89553">
        <ele>440.6</ele>
        <time>2021-07-10T10:09:36</time>
      </trkpt>
      <trkpt lat="44.69527" lon="4.89553">
        <ele>440.6</ele>
        <time>2021-07-10T10:09:37</time>
      </trkpt>
      <trkpt lat="44.69516" lon="4.89553">
        <ele>440.4</ele>
        <time>2021-07-10T10:09:38</time>
      </trkpt>
      <trkpt lat="44.69516" lon="4.89553">
        <ele>440.4</ele>
        <time>2021-07-10T10:09:39</time>
      </trkpt>
      <trkpt lat="44.69505" lon="4.89556">
        <ele>440.4</ele>
        <time>2021-07-10T10:09:40</time>
      </trkpt>
      <trkpt lat="44.69497" lon="4.89554">
        <ele>440.4</ele>
        <time>2021-07-10T10:09:41</time>
      </trkpt>
      <trkpt lat="44.69497" lon="4.89554">
        <ele>440.4</ele>
        <time>2021-07-10T10:09:42</time>
      </trkpt>
      <trkpt lat="44.69493" lon="4.89553">
        <ele>440.6</ele>
        <time>2021-07-10T10:09:43</time>
      </trkpt>
      <trkpt lat="44.6949" lon="4.89553">
        <ele>440.6</ele>
        <time>2021-07-10T10:09:44</time>
      </trkpt>
      <trkpt lat="44.69484" lon="4.89553">
        <ele>440.6</ele>
        <time>2021-07-10T10:09:45</time>
      </trkpt>
      <trkpt lat="44.69474" lon="4.89558">
        <ele>440.8</ele>
        <time>2021-07-10T10:09:46</time>
      </trkpt>
      <trkpt lat="44.69474" lon="4.89558">
        <ele>440.8</ele>
        <time>2021-07-10T10:09:47</time>
      </trkpt>
      <trkpt lat="44.69471" lon="4.89556">
        <ele>441</ele>
        <time>2021-07-10T10:09:48</time>
      </trkpt>
      <trkpt lat="44.69466" lon="4.89556">
        <ele>441</ele>
        <time>2021-07-10T10:09:49</time>
      </trkpt>
      <trkpt lat="44.69464" lon="4.89556">
        <ele>441</ele>
        <time>2021-07-10T10:09:50</time>
      </trkpt>
      <trkpt lat="44.69458" lon="4.89561">
        <ele>441</ele>
        <time>2021-07-10T10:09:51</time>
      </trkpt>
      <trkpt lat="44.69458" lon="4.89561">
        <ele>441</ele>
        <time>2021-07-10T10:09:52</time>
      </trkpt>
      <trkpt lat="44.69457" lon="4.89559">
        <ele>441</ele>
        <time>2021-07-10T10:09:53</time>
      </trkpt>
      <trkpt lat="44.69455" lon="4.89559">
        <ele>440.8</ele>
        <time>2021-07-10T10:09:54</time>
      </trkpt>
      <trkpt lat="44.69454" lon="4.8956">
        <ele>440.8</ele>
        <time>2021-07-10T10:09:55</time>
      </trkpt>
      <trkpt lat="44.69452" lon="4.89559">
        <ele>440.8</ele>
        <time>2021-07-10T10:09:56</time>
      </trkpt>
      <trkpt lat="44.69452" lon="4.89559">
        <ele>440.8</ele>
        <time>2021-07-10T10:09:57</time>
      </trkpt>
      <trkpt lat="44.69453" lon="4.89559">
        <ele>440.8</ele>
        <time>2021-07-10T10:09:58</time>
      </trkpt>
      <trkpt lat="44.69453" lon="4.89561">
        <ele>440.8</ele>
        <time>2021-07-10T10:09:59</time>
      </trkpt>
      <trkpt lat="44.69452" lon="4.89559">
        <ele>440.6</ele>
        <time>2021-07-10T10:10:00</time>
      </trkpt>
      <trkpt lat="44.69454" lon="4.89559">
        <ele>440.6</ele>
        <time>2021-07-10T10:10:01</time>
      </trkpt>
      <trkpt lat="44.69454" lon="4.89559">
        <ele>440.6</ele>
        <time>2021-07-10T10:10:02</time>
      </trkpt>
      <trkpt lat="44.69437" lon="4.89576">
        <ele>439.4</ele>
        <time>2021-07-10T10:12:30</time>
      </trkpt>
      <trkpt lat="44.69436" lon="4.8958">
        <ele>439.6</ele>
        <time>2021-07-10T10:12:31</time>
      </trkpt>
      <trkpt lat="44.69435" lon="4.89585">
        <ele>439.6</ele>
        <time>2021-07-10T10:12:32</time>
      </trkpt>
      <trkpt lat="44.6943" lon="4.89587">
        <ele>439.8</ele>
        <time>2021-07-10T10:12:33</time>
      </trkpt>
      <trkpt lat="44.69425" lon="4.89591">
        <ele>439.8</ele>
        <time>2021-07-10T10:12:34</time>
      </trkpt>
      <trkpt lat="44.69425" lon="4.89591">
        <ele>439.6</ele>
        <time>2021-07-10T10:12:35</time>
      </trkpt>
      <trkpt lat="44.69424" lon="4.89593">
        <ele>439.6</ele>
        <time>2021-07-10T10:12:36</time>
      </trkpt>
      <trkpt lat="44.69424" lon="4.89593">
        <ele>439.6</ele>
        <time>2021-07-10T10:12:37</time>
      </trkpt>
      <trkpt lat="44.69415" lon="4.89595">
        <ele>439.6</ele>
        <time>2021-07-10T10:12:38</time>
      </trkpt>
      <trkpt lat="44.69407" lon="4.896">
        <ele>439.6</ele>
        <time>2021-07-10T10:12:39</time>
      </trkpt>
      <trkpt lat="44.69407" lon="4.896">
        <ele>439.6</ele>
        <time>2021-07-10T10:12:40</time>
      </trkpt>
      <trkpt lat="44.69403" lon="4.89602">
        <ele>439.4</ele>
        <time>2021-07-10T10:12:41</time>
      </trkpt>
      <trkpt lat="44.69403" lon="4.89602">
        <ele>439.2</ele>
        <time>2021-07-10T10:12:42</time>
      </trkpt>
      <trkpt lat="44.69392" lon="4.8961">
        <ele>439</ele>
        <time>2021-07-10T10:12:43</time>
      </trkpt>
      <trkpt lat="44.69392" lon="4.8961">
        <ele>438.6</ele>
        <time>2021-07-10T10:12:44</time>
      </trkpt>
      <trkpt lat="44.69386" lon="4.89615">
        <ele>438.2</ele>
        <time>2021-07-10T10:12:45</time>
      </trkpt>
      <trkpt lat="44.69379" lon="4.89622">
        <ele>437.8</ele>
        <time>2021-07-10T10:12:46</time>
      </trkpt>
      <trkpt lat="44.69375" lon="4.89628">
        <ele>437.4</ele>
        <time>2021-07-10T10:12:47</time>
      </trkpt>
      <trkpt lat="44.69364" lon="4.89639">
        <ele>437</ele>
        <time>2021-07-10T10:12:48</time>
      </trkpt>
      <trkpt lat="44.69364" lon="4.89639">
        <ele>436.4</ele>
        <time>2021-07-10T10:12:49</time>
      </trkpt>
      <trkpt lat="44.69359" lon="4.89644">
        <ele>435.8</ele>
        <time>2021-07-10T10:12:50</time>
      </trkpt>
      <trkpt lat="44.69355" lon="4.89651">
        <ele>435.2</ele>
        <time>2021-07-10T10:12:51</time>
      </trkpt>
      <trkpt lat="44.69347" lon="4.89658">
        <ele>434.6</ele>
        <time>2021-07-10T10:12:52</time>
      </trkpt>
      <trkpt lat="44.69339" lon="4.8967">
        <ele>434</ele>
        <time>2021-07-10T10:12:53</time>
      </trkpt>
      <trkpt lat="44.69339" lon="4.8967">
        <ele>433.4</ele>
        <time>2021-07-10T10:12:54</time>
      </trkpt>
      <trkpt lat="44.69334" lon="4.89692">
        <ele>432.6</ele>
        <time>2021-07-10T10:12:55</time>
      </trkpt>
      <trkpt lat="44.69334" lon="4.897">
        <ele>431.8</ele>
        <time>2021-07-10T10:12:56</time>
      </trkpt>
      <trkpt lat="44.69341" lon="4.89714">
        <ele>431</ele>
        <time>2021-07-10T10:12:57</time>
      </trkpt>
      <trkpt lat="44.69345" lon="4.8972">
        <ele>430.4</ele>
        <time>2021-07-10T10:12:58</time>
      </trkpt>
      <trkpt lat="44.69345" lon="4.8972">
        <ele>429.8</ele>
        <time>2021-07-10T10:12:59</time>
      </trkpt>
      <trkpt lat="44.6935" lon="4.89725">
        <ele>429.4</ele>
        <time>2021-07-10T10:13:00</time>
      </trkpt>
      <trkpt lat="44.69353" lon="4.89731">
        <ele>429</ele>
        <time>2021-07-10T10:13:01</time>
      </trkpt>
      <trkpt lat="44.69364" lon="4.89741">
        <ele>428.6</ele>
        <time>2021-07-10T10:13:02</time>
      </trkpt>
      <trkpt lat="44.69369" lon="4.89746">
        <ele>428.2</ele>
        <time>2021-07-10T10:13:03</time>
      </trkpt>
      <trkpt lat="44.69369" lon="4.89746">
        <ele>428.2</ele>
        <time>2021-07-10T10:13:04</time>
      </trkpt>
      <trkpt lat="44.69375" lon="4.89752">
        <ele>428.2</ele>
        <time>2021-07-10T10:13:05</time>
      </trkpt>
      <trkpt lat="44.69377" lon="4.89758">
        <ele>428.4</ele>
        <time>2021-07-10T10:13:06</time>
      </trkpt>
      <trkpt lat="44.69383" lon="4.89762">
        <ele>428.6</ele>
        <time>2021-07-10T10:13:07</time>
      </trkpt>
      <trkpt lat="44.69387" lon="4.89764">
        <ele>429</ele>
        <time>2021-07-10T10:13:08</time>
      </trkpt>
      <trkpt lat="44.69387" lon="4.89764">
        <ele>429.2</ele>
        <time>2021-07-10T10:13:09</time>
      </trkpt>
      <trkpt lat="44.69389" lon="4.89767">
        <ele>429.2</ele>
        <time>2021-07-10T10:13:10</time>
      </trkpt>
      <trkpt lat="44.6939" lon="4.89769">
        <ele>429.4</ele>
        <time>2021-07-10T10:13:11</time>
      </trkpt>
      <trkpt lat="44.69392" lon="4.8977">
        <ele>429.4</ele>
        <time>2021-07-10T10:13:12</time>
      </trkpt>
      <trkpt lat="44.69394" lon="4.89774">
        <ele>429.6</ele>
        <time>2021-07-10T10:13:13</time>
      </trkpt>
      <trkpt lat="44.69394" lon="4.89774">
        <ele>429.8</ele>
        <time>2021-07-10T10:13:14</time>
      </trkpt>
      <trkpt lat="44.69396" lon="4.89775">
        <ele>430</ele>
        <time>2021-07-10T10:13:15</time>
      </trkpt>
      <trkpt lat="44.69399" lon="4.89776">
        <ele>430</ele>
        <time>2021-07-10T10:13:16</time>
      </trkpt>
      <trkpt lat="44.69402" lon="4.89778">
        <ele>430.2</ele>
        <time>2021-07-10T10:13:17</time>
      </trkpt>
      <trkpt lat="44.69408" lon="4.89783">
        <ele>430.4</ele>
        <time>2021-07-10T10:13:18</time>
      </trkpt>
      <trkpt lat="44.69408" lon="4.89783">
        <ele>430.6</ele>
        <time>2021-07-10T10:13:19</time>
      </trkpt>
      <trkpt lat="44.69407" lon="4.89786">
        <ele>430.8</ele>
        <time>2021-07-10T10:13:20</time>
      </trkpt>
      <trkpt lat="44.69409" lon="4.8979">
        <ele>431</ele>
        <time>2021-07-10T10:13:21</time>
      </trkpt>
      <trkpt lat="44.69412" lon="4.89793">
        <ele>431.2</ele>
        <time>2021-07-10T10:13:22</time>
      </trkpt>
      <trkpt lat="44.69416" lon="4.89802">
        <ele>431.4</ele>
        <time>2021-07-10T10:13:23</time>
      </trkpt>
      <trkpt lat="44.69417" lon="4.89806">
        <ele>431.6</ele>
        <time>2021-07-10T10:13:24</time>
      </trkpt>
      <trkpt lat="44.69417" lon="4.89806">
        <ele>431.8</ele>
        <time>2021-07-10T10:13:25</time>
      </trkpt>
      <trkpt lat="44.69417" lon="4.89814">
        <ele>432</ele>
        <time>2021-07-10T10:13:26</time>
      </trkpt>
      <trkpt lat="44.69417" lon="4.89814">
        <ele>432.2</ele>
        <time>2021-07-10T10:13:27</time>
      </trkpt>
      <trkpt lat="44.69418" lon="4.89822">
        <ele>432.4</ele>
        <time>2021-07-10T10:13:28</time>
      </trkpt>
      <trkpt lat="44.69418" lon="4.89822">
        <ele>432.8</ele>
        <time>2021-07-10T10:13:29</time>
      </trkpt>
      <trkpt lat="44.69419" lon="4.89824">
        <ele>433</ele>
        <time>2021-07-10T10:13:30</time>
      </trkpt>
      <trkpt lat="44.69422" lon="4.8983">
        <ele>433.2</ele>
        <time>2021-07-10T10:13:31</time>
      </trkpt>
      <trkpt lat="44.69422" lon="4.8983">
        <ele>433.6</ele>
        <time>2021-07-10T10:13:32</time>
      </trkpt>
      <trkpt lat="44.69425" lon="4.89837">
        <ele>433.8</ele>
        <time>2021-07-10T10:13:33</time>
      </trkpt>
      <trkpt lat="44.69425" lon="4.89837">
        <ele>434.2</ele>
        <time>2021-07-10T10:13:34</time>
      </trkpt>
      <trkpt lat="44.69428" lon="4.89843">
        <ele>434.4</ele>
        <time>2021-07-10T10:13:35</time>
      </trkpt>
      <trkpt lat="44.69428" lon="4.89843">
        <ele>434.6</ele>
        <time>2021-07-10T10:13:36</time>
      </trkpt>
      <trkpt lat="44.69429" lon="4.89845">
        <ele>434.6</ele>
        <time>2021-07-10T10:13:37</time>
      </trkpt>
      <trkpt lat="44.69432" lon="4.89852">
        <ele>434.8</ele>
        <time>2021-07-10T10:13:38</time>
      </trkpt>
      <trkpt lat="44.69432" lon="4.89852">
        <ele>435</ele>
        <time>2021-07-10T10:13:39</time>
      </trkpt>
      <trkpt lat="44.69433" lon="4.89856">
        <ele>435</ele>
        <time>2021-07-10T10:13:40</time>
      </trkpt>
      <trkpt lat="44.69435" lon="4.8986">
        <ele>435</ele>
        <time>2021-07-10T10:13:41</time>
      </trkpt>
      <trkpt lat="44.69436" lon="4.89863">
        <ele>435</ele>
        <time>2021-07-10T10:13:42</time>
      </trkpt>
      <trkpt lat="44.69438" lon="4.89872">
        <ele>435.2</ele>
        <time>2021-07-10T10:13:43</time>
      </trkpt>
      <trkpt lat="44.69438" lon="4.89872">
        <ele>435.2</ele>
        <time>2021-07-10T10:13:44</time>
      </trkpt>
      <trkpt lat="44.69441" lon="4.89875">
        <ele>435.2</ele>
        <time>2021-07-10T10:13:45</time>
      </trkpt>
      <trkpt lat="44.69443" lon="4.89878">
        <ele>435</ele>
        <time>2021-07-10T10:13:46</time>
      </trkpt>
      <trkpt lat="44.69446" lon="4.89883">
        <ele>435</ele>
        <time>2021-07-10T10:13:47</time>
      </trkpt>
      <trkpt lat="44.69451" lon="4.89894">
        <ele>434.8</ele>
        <time>2021-07-10T10:13:48</time>
      </trkpt>
      <trkpt lat="44.69451" lon="4.89894">
        <ele>434.6</ele>
        <time>2021-07-10T10:13:49</time>
      </trkpt>
      <trkpt lat="44.69453" lon="4.89899">
        <ele>434.6</ele>
        <time>2021-07-10T10:13:50</time>
      </trkpt>
      <trkpt lat="44.69457" lon="4.89913">
        <ele>434.4</ele>
        <time>2021-07-10T10:13:51</time>
      </trkpt>
      <trkpt lat="44.69457" lon="4.89913">
        <ele>434.4</ele>
        <time>2021-07-10T10:13:52</time>
      </trkpt>
      <trkpt lat="44.69459" lon="4.89925">
        <ele>434.2</ele>
        <time>2021-07-10T10:13:53</time>
      </trkpt>
      <trkpt lat="44.69459" lon="4.89925">
        <ele>433.8</ele>
        <time>2021-07-10T10:13:54</time>
      </trkpt>
      <trkpt lat="44.69468" lon="4.89939">
        <ele>433.6</ele>
        <time>2021-07-10T10:13:55</time>
      </trkpt>
      <trkpt lat="44.69468" lon="4.89939">
        <ele>433.4</ele>
        <time>2021-07-10T10:13:56</time>
      </trkpt>
      <trkpt lat="44.69474" lon="4.89955">
        <ele>433.2</ele>
        <time>2021-07-10T10:13:57</time>
      </trkpt>
      <trkpt lat="44.69474" lon="4.89955">
        <ele>432.8</ele>
        <time>2021-07-10T10:13:58</time>
      </trkpt>
      <trkpt lat="44.69482" lon="4.89971">
        <ele>432.4</ele>
        <time>2021-07-10T10:13:59</time>
      </trkpt>
      <trkpt lat="44.69482" lon="4.89971">
        <ele>432</ele>
        <time>2021-07-10T10:14:00</time>
      </trkpt>
      <trkpt lat="44.69487" lon="4.89979">
        <ele>431.6</ele>
        <time>2021-07-10T10:14:01</time>
      </trkpt>
      <trkpt lat="44.69497" lon="4.89996">
        <ele>431.4</ele>
        <time>2021-07-10T10:14:02</time>
      </trkpt>
      <trkpt lat="44.69497" lon="4.89996">
        <ele>431</ele>
        <time>2021-07-10T10:14:03</time>
      </trkpt>
      <trkpt lat="44.69502" lon="4.90002">
        <ele>430.4</ele>
        <time>2021-07-10T10:14:04</time>
      </trkpt>
      <trkpt lat="44.69505" lon="4.90008">
        <ele>430</ele>
        <time>2021-07-10T10:14:05</time>
      </trkpt>
      <trkpt lat="44.69511" lon="4.90022">
        <ele>429.6</ele>
        <time>2021-07-10T10:14:06</time>
      </trkpt>
      <trkpt lat="44.69513" lon="4.9003">
        <ele>429.4</ele>
        <time>2021-07-10T10:14:07</time>
      </trkpt>
      <trkpt lat="44.69513" lon="4.9003">
        <ele>429</ele>
        <time>2021-07-10T10:14:08</time>
      </trkpt>
      <trkpt lat="44.69517" lon="4.90043">
        <ele>428.4</ele>
        <time>2021-07-10T10:14:09</time>
      </trkpt>
      <trkpt lat="44.69526" lon="4.90054">
        <ele>428</ele>
        <time>2021-07-10T10:14:10</time>
      </trkpt>
      <trkpt lat="44.69526" lon="4.90054">
        <ele>427.6</ele>
        <time>2021-07-10T10:14:11</time>
      </trkpt>
      <trkpt lat="44.69532" lon="4.90068">
        <ele>427.4</ele>
        <time>2021-07-10T10:14:12</time>
      </trkpt>
      <trkpt lat="44.69532" lon="4.90068">
        <ele>427</ele>
        <time>2021-07-10T10:14:13</time>
      </trkpt>
      <trkpt lat="44.69539" lon="4.90081">
        <ele>426.6</ele>
        <time>2021-07-10T10:14:14</time>
      </trkpt>
      <trkpt lat="44.69539" lon="4.90081">
        <ele>426.2</ele>
        <time>2021-07-10T10:14:15</time>
      </trkpt>
      <trkpt lat="44.69542" lon="4.9009">
        <ele>425.8</ele>
        <time>2021-07-10T10:14:16</time>
      </trkpt>
      <trkpt lat="44.69555" lon="4.90108">
        <ele>425.6</ele>
        <time>2021-07-10T10:14:17</time>
      </trkpt>
      <trkpt lat="44.69555" lon="4.90108">
        <ele>425</ele>
        <time>2021-07-10T10:14:18</time>
      </trkpt>
      <trkpt lat="44.6956" lon="4.90117">
        <ele>424.6</ele>
        <time>2021-07-10T10:14:19</time>
      </trkpt>
      <trkpt lat="44.6957" lon="4.90127">
        <ele>424.2</ele>
        <time>2021-07-10T10:14:20</time>
      </trkpt>
      <trkpt lat="44.6957" lon="4.90127">
        <ele>423.8</ele>
        <time>2021-07-10T10:14:21</time>
      </trkpt>
      <trkpt lat="44.69584" lon="4.90135">
        <ele>423.2</ele>
        <time>2021-07-10T10:14:22</time>
      </trkpt>
      <trkpt lat="44.69584" lon="4.90135">
        <ele>422.6</ele>
        <time>2021-07-10T10:14:23</time>
      </trkpt>
      <trkpt lat="44.69589" lon="4.90139">
        <ele>422</ele>
        <time>2021-07-10T10:14:24</time>
      </trkpt>
      <trkpt lat="44.69593" lon="4.9014">
        <ele>421.6</ele>
        <time>2021-07-10T10:14:25</time>
      </trkpt>
      <trkpt lat="44.69601" lon="4.90141">
        <ele>421.2</ele>
        <time>2021-07-10T10:14:26</time>
      </trkpt>
      <trkpt lat="44.69612" lon="4.90147">
        <ele>420.6</ele>
        <time>2021-07-10T10:14:27</time>
      </trkpt>
      <trkpt lat="44.69612" lon="4.90147">
        <ele>420.2</ele>
        <time>2021-07-10T10:14:28</time>
      </trkpt>
      <trkpt lat="44.69617" lon="4.90152">
        <ele>419.8</ele>
        <time>2021-07-10T10:14:29</time>
      </trkpt>
      <trkpt lat="44.69623" lon="4.90157">
        <ele>419.4</ele>
        <time>2021-07-10T10:14:30</time>
      </trkpt>
      <trkpt lat="44.69628" lon="4.90161">
        <ele>419</ele>
        <time>2021-07-10T10:14:31</time>
      </trkpt>
      <trkpt lat="44.69641" lon="4.90169">
        <ele>418.4</ele>
        <time>2021-07-10T10:14:32</time>
      </trkpt>
      <trkpt lat="44.69641" lon="4.90169">
        <ele>417.8</ele>
        <time>2021-07-10T10:14:33</time>
      </trkpt>
      <trkpt lat="44.69645" lon="4.90174">
        <ele>417</ele>
        <time>2021-07-10T10:14:34</time>
      </trkpt>
      <trkpt lat="44.69652" lon="4.90175">
        <ele>416.4</ele>
        <time>2021-07-10T10:14:35</time>
      </trkpt>
      <trkpt lat="44.69664" lon="4.90177">
        <ele>415.6</ele>
        <time>2021-07-10T10:14:36</time>
      </trkpt>
      <trkpt lat="44.6967" lon="4.90179">
        <ele>415</ele>
        <time>2021-07-10T10:14:37</time>
      </trkpt>
      <trkpt lat="44.6967" lon="4.90179">
        <ele>414.6</ele>
        <time>2021-07-10T10:14:38</time>
      </trkpt>
      <trkpt lat="44.6968" lon="4.90182">
        <ele>413.8</ele>
        <time>2021-07-10T10:14:39</time>
      </trkpt>
      <trkpt lat="44.69686" lon="4.90181">
        <ele>413.4</ele>
        <time>2021-07-10T10:14:40</time>
      </trkpt>
      <trkpt lat="44.69703" lon="4.90181">
        <ele>412.8</ele>
        <time>2021-07-10T10:14:41</time>
      </trkpt>
      <trkpt lat="44.69711" lon="4.90181">
        <ele>412</ele>
        <time>2021-07-10T10:14:42</time>
      </trkpt>
      <trkpt lat="44.69711" lon="4.90181">
        <ele>411.2</ele>
        <time>2021-07-10T10:14:43</time>
      </trkpt>
      <trkpt lat="44.69717" lon="4.9018">
        <ele>410.4</ele>
        <time>2021-07-10T10:14:44</time>
      </trkpt>
      <trkpt lat="44.6973" lon="4.90179">
        <ele>409.8</ele>
        <time>2021-07-10T10:14:45</time>
      </trkpt>
      <trkpt lat="44.69736" lon="4.90177">
        <ele>409</ele>
        <time>2021-07-10T10:14:46</time>
      </trkpt>
      <trkpt lat="44.69746" lon="4.90176">
        <ele>408.4</ele>
        <time>2021-07-10T10:14:47</time>
      </trkpt>
      <trkpt lat="44.69746" lon="4.90176">
        <ele>407.8</ele>
        <time>2021-07-10T10:14:48</time>
      </trkpt>
      <trkpt lat="44.69752" lon="4.90178">
        <ele>407.2</ele>
        <time>2021-07-10T10:14:49</time>
      </trkpt>
      <trkpt lat="44.69757" lon="4.90179">
        <ele>406.6</ele>
        <time>2021-07-10T10:14:50</time>
      </trkpt>
      <trkpt lat="44.69766" lon="4.90181">
        <ele>405.8</ele>
        <time>2021-07-10T10:14:51</time>
      </trkpt>
      <trkpt lat="44.69772" lon="4.90182">
        <ele>405.2</ele>
        <time>2021-07-10T10:14:52</time>
      </trkpt>
      <trkpt lat="44.69772" lon="4.90182">
        <ele>404.4</ele>
        <time>2021-07-10T10:14:53</time>
      </trkpt>
      <trkpt lat="44.69778" lon="4.90182">
        <ele>403.8</ele>
        <time>2021-07-10T10:14:54</time>
      </trkpt>
      <trkpt lat="44.69785" lon="4.90185">
        <ele>403.2</ele>
        <time>2021-07-10T10:14:55</time>
      </trkpt>
      <trkpt lat="44.69796" lon="4.90189">
        <ele>402.8</ele>
        <time>2021-07-10T10:14:56</time>
      </trkpt>
      <trkpt lat="44.69803" lon="4.9019">
        <ele>402.4</ele>
        <time>2021-07-10T10:14:57</time>
      </trkpt>
      <trkpt lat="44.69803" lon="4.9019">
        <ele>402</ele>
        <time>2021-07-10T10:14:58</time>
      </trkpt>
      <trkpt lat="44.69809" lon="4.90193">
        <ele>401.6</ele>
        <time>2021-07-10T10:14:59</time>
      </trkpt>
      <trkpt lat="44.69814" lon="4.90194">
        <ele>401.2</ele>
        <time>2021-07-10T10:15:00</time>
      </trkpt>
      <trkpt lat="44.69824" lon="4.90197">
        <ele>400.8</ele>
        <time>2021-07-10T10:15:01</time>
      </trkpt>
      <trkpt lat="44.69828" lon="4.90199">
        <ele>400.4</ele>
        <time>2021-07-10T10:15:02</time>
      </trkpt>
      <trkpt lat="44.69828" lon="4.90199">
        <ele>400.2</ele>
        <time>2021-07-10T10:15:03</time>
      </trkpt>
      <trkpt lat="44.69832" lon="4.90198">
        <ele>400</ele>
        <time>2021-07-10T10:15:04</time>
      </trkpt>
      <trkpt lat="44.69838" lon="4.90202">
        <ele>399.6</ele>
        <time>2021-07-10T10:15:05</time>
      </trkpt>
      <trkpt lat="44.69847" lon="4.90204">
        <ele>399.4</ele>
        <time>2021-07-10T10:15:06</time>
      </trkpt>
      <trkpt lat="44.69847" lon="4.90204">
        <ele>399.2</ele>
        <time>2021-07-10T10:15:07</time>
      </trkpt>
      <trkpt lat="44.69853" lon="4.90205">
        <ele>398.8</ele>
        <time>2021-07-10T10:15:08</time>
      </trkpt>
      <trkpt lat="44.69858" lon="4.90207">
        <ele>398.4</ele>
        <time>2021-07-10T10:15:09</time>
      </trkpt>
      <trkpt lat="44.69865" lon="4.90212">
        <ele>398.2</ele>
        <time>2021-07-10T10:15:10</time>
      </trkpt>
      <trkpt lat="44.69879" lon="4.90216">
        <ele>397.8</ele>
        <time>2021-07-10T10:15:11</time>
      </trkpt>
      <trkpt lat="44.69879" lon="4.90216">
        <ele>397.6</ele>
        <time>2021-07-10T10:15:12</time>
      </trkpt>
      <trkpt lat="44.69886" lon="4.90218">
        <ele>397.2</ele>
        <time>2021-07-10T10:15:13</time>
      </trkpt>
      <trkpt lat="44.69892" lon="4.9022">
        <ele>397</ele>
        <time>2021-07-10T10:15:14</time>
      </trkpt>
      <trkpt lat="44.69901" lon="4.90223">
        <ele>396.6</ele>
        <time>2021-07-10T10:15:15</time>
      </trkpt>
      <trkpt lat="44.69914" lon="4.90228">
        <ele>396</ele>
        <time>2021-07-10T10:15:16</time>
      </trkpt>
      <trkpt lat="44.69914" lon="4.90228">
        <ele>395.4</ele>
        <time>2021-07-10T10:15:17</time>
      </trkpt>
      <trkpt lat="44.69921" lon="4.90232">
        <ele>395</ele>
        <time>2021-07-10T10:15:18</time>
      </trkpt>
      <trkpt lat="44.69935" lon="4.90242">
        <ele>394.8</ele>
        <time>2021-07-10T10:15:19</time>
      </trkpt>
      <trkpt lat="44.69935" lon="4.90242">
        <ele>394.6</ele>
        <time>2021-07-10T10:15:20</time>
      </trkpt>
      <trkpt lat="44.69945" lon="4.90247">
        <ele>394.4</ele>
        <time>2021-07-10T10:15:21</time>
      </trkpt>
      <trkpt lat="44.69945" lon="4.90247">
        <ele>394.2</ele>
        <time>2021-07-10T10:15:22</time>
      </trkpt>
      <trkpt lat="44.6995" lon="4.9025">
        <ele>393.8</ele>
        <time>2021-07-10T10:15:23</time>
      </trkpt>
      <trkpt lat="44.69955" lon="4.90252">
        <ele>393.4</ele>
        <time>2021-07-10T10:15:24</time>
      </trkpt>
      <trkpt lat="44.69966" lon="4.90259">
        <ele>392.8</ele>
        <time>2021-07-10T10:15:25</time>
      </trkpt>
      <trkpt lat="44.6997" lon="4.90262">
        <ele>392.4</ele>
        <time>2021-07-10T10:15:26</time>
      </trkpt>
      <trkpt lat="44.6997" lon="4.90262">
        <ele>392</ele>
        <time>2021-07-10T10:15:27</time>
      </trkpt>
      <trkpt lat="44.69974" lon="4.90264">
        <ele>391.4</ele>
        <time>2021-07-10T10:15:28</time>
      </trkpt>
      <trkpt lat="44.6998" lon="4.90266">
        <ele>391</ele>
        <time>2021-07-10T10:15:29</time>
      </trkpt>
      <trkpt lat="44.69985" lon="4.90268">
        <ele>390.4</ele>
        <time>2021-07-10T10:15:30</time>
      </trkpt>
      <trkpt lat="44.69997" lon="4.90274">
        <ele>390</ele>
        <time>2021-07-10T10:15:31</time>
      </trkpt>
      <trkpt lat="44.69997" lon="4.90274">
        <ele>389.4</ele>
        <time>2021-07-10T10:15:32</time>
      </trkpt>
      <trkpt lat="44.70004" lon="4.90275">
        <ele>389</ele>
        <time>2021-07-10T10:15:33</time>
      </trkpt>
      <trkpt lat="44.70004" lon="4.90275">
        <ele>388.6</ele>
        <time>2021-07-10T10:15:34</time>
      </trkpt>
      <trkpt lat="44.70018" lon="4.90279">
        <ele>388.2</ele>
        <time>2021-07-10T10:15:35</time>
      </trkpt>
      <trkpt lat="44.70035" lon="4.90284">
        <ele>387.8</ele>
        <time>2021-07-10T10:15:36</time>
      </trkpt>
      <trkpt lat="44.70035" lon="4.90284">
        <ele>387.4</ele>
        <time>2021-07-10T10:15:37</time>
      </trkpt>
      <trkpt lat="44.70051" lon="4.90287">
        <ele>387</ele>
        <time>2021-07-10T10:15:38</time>
      </trkpt>
      <trkpt lat="44.70051" lon="4.90287">
        <ele>386.6</ele>
        <time>2021-07-10T10:15:39</time>
      </trkpt>
      <trkpt lat="44.7006" lon="4.90291">
        <ele>386.4</ele>
        <time>2021-07-10T10:15:40</time>
      </trkpt>
      <trkpt lat="44.70075" lon="4.90298">
        <ele>386.2</ele>
        <time>2021-07-10T10:15:41</time>
      </trkpt>
      <trkpt lat="44.70075" lon="4.90298">
        <ele>385.8</ele>
        <time>2021-07-10T10:15:42</time>
      </trkpt>
      <trkpt lat="44.70082" lon="4.90304">
        <ele>385.4</ele>
        <time>2021-07-10T10:15:43</time>
      </trkpt>
      <trkpt lat="44.7009" lon="4.9032">
        <ele>385.2</ele>
        <time>2021-07-10T10:15:44</time>
      </trkpt>
      <trkpt lat="44.7009" lon="4.9032">
        <ele>385</ele>
        <time>2021-07-10T10:15:45</time>
      </trkpt>
      <trkpt lat="44.70097" lon="4.90335">
        <ele>385</ele>
        <time>2021-07-10T10:15:46</time>
      </trkpt>
      <trkpt lat="44.70097" lon="4.90335">
        <ele>385.2</ele>
        <time>2021-07-10T10:15:47</time>
      </trkpt>
      <trkpt lat="44.70101" lon="4.90341">
        <ele>385.2</ele>
        <time>2021-07-10T10:15:48</time>
      </trkpt>
      <trkpt lat="44.70106" lon="4.90347">
        <ele>385.4</ele>
        <time>2021-07-10T10:15:49</time>
      </trkpt>
      <trkpt lat="44.70108" lon="4.90353">
        <ele>385.4</ele>
        <time>2021-07-10T10:15:50</time>
      </trkpt>
      <trkpt lat="44.70111" lon="4.90358">
        <ele>385.4</ele>
        <time>2021-07-10T10:15:51</time>
      </trkpt>
      <trkpt lat="44.70111" lon="4.90358">
        <ele>385.4</ele>
        <time>2021-07-10T10:15:52</time>
      </trkpt>
      <trkpt lat="44.70111" lon="4.90359">
        <ele>385.2</ele>
        <time>2021-07-10T10:15:53</time>
      </trkpt>
      <trkpt lat="44.70111" lon="4.90358">
        <ele>385</ele>
        <time>2021-07-10T10:15:54</time>
      </trkpt>
      <trkpt lat="44.7011" lon="4.90358">
        <ele>385</ele>
        <time>2021-07-10T10:15:55</time>
      </trkpt>
      <trkpt lat="44.70109" lon="4.90358">
        <ele>385</ele>
        <time>2021-07-10T10:15:56</time>
      </trkpt>
      <trkpt lat="44.70109" lon="4.90358">
        <ele>385</ele>
        <time>2021-07-10T10:15:57</time>
      </trkpt>
      <trkpt lat="44.7011" lon="4.90356">
        <ele>385</ele>
        <time>2021-07-10T10:15:58</time>
      </trkpt>
      <trkpt lat="44.70111" lon="4.90355">
        <ele>385</ele>
        <time>2021-07-10T10:15:59</time>
      </trkpt>
      <trkpt lat="44.70112" lon="4.90355">
        <ele>385</ele>
        <time>2021-07-10T10:16:00</time>
      </trkpt>
      <trkpt lat="44.70112" lon="4.90355">
        <ele>385</ele>
        <time>2021-07-10T10:16:01</time>
      </trkpt>
      <trkpt lat="44.7013" lon="4.90367">
        <ele>384.8</ele>
        <time>2021-07-10T10:16:08</time>
      </trkpt>
      <trkpt lat="44.70132" lon="4.90371">
        <ele>384.6</ele>
        <time>2021-07-10T10:16:09</time>
      </trkpt>
      <trkpt lat="44.70138" lon="4.90382">
        <ele>384.6</ele>
        <time>2021-07-10T10:16:10</time>
      </trkpt>
      <trkpt lat="44.70138" lon="4.90382">
        <ele>384.4</ele>
        <time>2021-07-10T10:16:11</time>
      </trkpt>
      <trkpt lat="44.70142" lon="4.90387">
        <ele>384.2</ele>
        <time>2021-07-10T10:16:12</time>
      </trkpt>
      <trkpt lat="44.70146" lon="4.90393">
        <ele>383.8</ele>
        <time>2021-07-10T10:16:13</time>
      </trkpt>
      <trkpt lat="44.70149" lon="4.90398">
        <ele>383.6</ele>
        <time>2021-07-10T10:16:14</time>
      </trkpt>
      <trkpt lat="44.70157" lon="4.90408">
        <ele>383.4</ele>
        <time>2021-07-10T10:16:15</time>
      </trkpt>
      <trkpt lat="44.70157" lon="4.90408">
        <ele>383</ele>
        <time>2021-07-10T10:16:16</time>
      </trkpt>
      <trkpt lat="44.7016" lon="4.90423">
        <ele>382.4</ele>
        <time>2021-07-10T10:16:17</time>
      </trkpt>
      <trkpt lat="44.7016" lon="4.90423">
        <ele>382</ele>
        <time>2021-07-10T10:16:18</time>
      </trkpt>
      <trkpt lat="44.70163" lon="4.9043">
        <ele>381.4</ele>
        <time>2021-07-10T10:16:19</time>
      </trkpt>
      <trkpt lat="44.7017" lon="4.90439">
        <ele>380.6</ele>
        <time>2021-07-10T10:16:20</time>
      </trkpt>
      <trkpt lat="44.7017" lon="4.90439">
        <ele>380</ele>
        <time>2021-07-10T10:16:21</time>
      </trkpt>
      <trkpt lat="44.70173" lon="4.90442">
        <ele>379.2</ele>
        <time>2021-07-10T10:16:22</time>
      </trkpt>
      <trkpt lat="44.70179" lon="4.90447">
        <ele>378.4</ele>
        <time>2021-07-10T10:16:23</time>
      </trkpt>
      <trkpt lat="44.70179" lon="4.90447">
        <ele>377.4</ele>
        <time>2021-07-10T10:16:24</time>
      </trkpt>
      <trkpt lat="44.70185" lon="4.90449">
        <ele>376.2</ele>
        <time>2021-07-10T10:16:25</time>
      </trkpt>
      <trkpt lat="44.70185" lon="4.90449">
        <ele>375.2</ele>
        <time>2021-07-10T10:16:26</time>
      </trkpt>
      <trkpt lat="44.70186" lon="4.90449">
        <ele>374.4</ele>
        <time>2021-07-10T10:16:27</time>
      </trkpt>
      <trkpt lat="44.70186" lon="4.90449">
        <ele>373.4</ele>
        <time>2021-07-10T10:16:28</time>
      </trkpt>
      <trkpt lat="44.70189" lon="4.90462">
        <ele>372.6</ele>
        <time>2021-07-10T10:16:29</time>
      </trkpt>
      <trkpt lat="44.70194" lon="4.90476">
        <ele>371.6</ele>
        <time>2021-07-10T10:16:30</time>
      </trkpt>
      <trkpt lat="44.70194" lon="4.90476">
        <ele>370.4</ele>
        <time>2021-07-10T10:16:31</time>
      </trkpt>
      <trkpt lat="44.70196" lon="4.90482">
        <ele>369.4</ele>
        <time>2021-07-10T10:16:32</time>
      </trkpt>
      <trkpt lat="44.70201" lon="4.90491">
        <ele>368.4</ele>
        <time>2021-07-10T10:16:33</time>
      </trkpt>
      <trkpt lat="44.70201" lon="4.90491">
        <ele>367.4</ele>
        <time>2021-07-10T10:16:34</time>
      </trkpt>
      <trkpt lat="44.70205" lon="4.90492">
        <ele>366.4</ele>
        <time>2021-07-10T10:16:35</time>
      </trkpt>
      <trkpt lat="44.70205" lon="4.90492">
        <ele>365.2</ele>
        <time>2021-07-10T10:16:36</time>
      </trkpt>
      <trkpt lat="44.70212" lon="4.9049">
        <ele>364.2</ele>
        <time>2021-07-10T10:16:37</time>
      </trkpt>
      <trkpt lat="44.70212" lon="4.9049">
        <ele>363.2</ele>
        <time>2021-07-10T10:16:38</time>
      </trkpt>
      <trkpt lat="44.70214" lon="4.90487">
        <ele>362.8</ele>
        <time>2021-07-10T10:16:39</time>
      </trkpt>
      <trkpt lat="44.70214" lon="4.90487">
        <ele>362.4</ele>
        <time>2021-07-10T10:16:40</time>
      </trkpt>
      <trkpt lat="44.70216" lon="4.90485">
        <ele>361.8</ele>
        <time>2021-07-10T10:16:41</time>
      </trkpt>
      <trkpt lat="44.70219" lon="4.90483">
        <ele>361.2</ele>
        <time>2021-07-10T10:16:42</time>
      </trkpt>
      <trkpt lat="44.70222" lon="4.90478">
        <ele>360.6</ele>
        <time>2021-07-10T10:16:43</time>
      </trkpt>
      <trkpt lat="44.70226" lon="4.9047">
        <ele>360.4</ele>
        <time>2021-07-10T10:16:44</time>
      </trkpt>
      <trkpt lat="44.70226" lon="4.9047">
        <ele>359.8</ele>
        <time>2021-07-10T10:16:45</time>
      </trkpt>
      <trkpt lat="44.70231" lon="4.90464">
        <ele>359.2</ele>
        <time>2021-07-10T10:16:46</time>
      </trkpt>
      <trkpt lat="44.70231" lon="4.90464">
        <ele>358.6</ele>
        <time>2021-07-10T10:16:47</time>
      </trkpt>
      <trkpt lat="44.70237" lon="4.90461">
        <ele>358</ele>
        <time>2021-07-10T10:16:48</time>
      </trkpt>
      <trkpt lat="44.70241" lon="4.90454">
        <ele>357.4</ele>
        <time>2021-07-10T10:16:49</time>
      </trkpt>
      <trkpt lat="44.70241" lon="4.90454">
        <ele>356.8</ele>
        <time>2021-07-10T10:16:50</time>
      </trkpt>
      <trkpt lat="44.70242" lon="4.90449">
        <ele>356.2</ele>
        <time>2021-07-10T10:16:51</time>
      </trkpt>
      <trkpt lat="44.70242" lon="4.90443">
        <ele>355.4</ele>
        <time>2021-07-10T10:16:52</time>
      </trkpt>
      <trkpt lat="44.7024" lon="4.90435">
        <ele>354.6</ele>
        <time>2021-07-10T10:16:53</time>
      </trkpt>
      <trkpt lat="44.70236" lon="4.90415">
        <ele>353.8</ele>
        <time>2021-07-10T10:16:54</time>
      </trkpt>
      <trkpt lat="44.70236" lon="4.90415">
        <ele>353</ele>
        <time>2021-07-10T10:16:55</time>
      </trkpt>
      <trkpt lat="44.70234" lon="4.90406">
        <ele>352.2</ele>
        <time>2021-07-10T10:16:56</time>
      </trkpt>
      <trkpt lat="44.70233" lon="4.90387">
        <ele>351.2</ele>
        <time>2021-07-10T10:16:57</time>
      </trkpt>
      <trkpt lat="44.70233" lon="4.90387">
        <ele>350.2</ele>
        <time>2021-07-10T10:16:58</time>
      </trkpt>
      <trkpt lat="44.70232" lon="4.90368">
        <ele>349.2</ele>
        <time>2021-07-10T10:16:59</time>
      </trkpt>
      <trkpt lat="44.70232" lon="4.90368">
        <ele>348</ele>
        <time>2021-07-10T10:17:00</time>
      </trkpt>
      <trkpt lat="44.70234" lon="4.90355">
        <ele>347</ele>
        <time>2021-07-10T10:17:01</time>
      </trkpt>
      <trkpt lat="44.70236" lon="4.90342">
        <ele>346.2</ele>
        <time>2021-07-10T10:17:02</time>
      </trkpt>
      <trkpt lat="44.70239" lon="4.9033">
        <ele>345.6</ele>
        <time>2021-07-10T10:17:03</time>
      </trkpt>
      <trkpt lat="44.70249" lon="4.90309">
        <ele>344.8</ele>
        <time>2021-07-10T10:17:04</time>
      </trkpt>
      <trkpt lat="44.70249" lon="4.90309">
        <ele>343.6</ele>
        <time>2021-07-10T10:17:05</time>
      </trkpt>
      <trkpt lat="44.70253" lon="4.90297">
        <ele>342.8</ele>
        <time>2021-07-10T10:17:06</time>
      </trkpt>
      <trkpt lat="44.70256" lon="4.90264">
        <ele>341.8</ele>
        <time>2021-07-10T10:17:07</time>
      </trkpt>
      <trkpt lat="44.70256" lon="4.90264">
        <ele>341.2</ele>
        <time>2021-07-10T10:17:08</time>
      </trkpt>
      <trkpt lat="44.70257" lon="4.90241">
        <ele>340.4</ele>
        <time>2021-07-10T10:17:09</time>
      </trkpt>
      <trkpt lat="44.70257" lon="4.90241">
        <ele>339.6</ele>
        <time>2021-07-10T10:17:10</time>
      </trkpt>
      <trkpt lat="44.7026" lon="4.90226">
        <ele>338.8</ele>
        <time>2021-07-10T10:17:11</time>
      </trkpt>
      <trkpt lat="44.7026" lon="4.90214">
        <ele>338.4</ele>
        <time>2021-07-10T10:17:12</time>
      </trkpt>
      <trkpt lat="44.7026" lon="4.90205">
        <ele>338.2</ele>
        <time>2021-07-10T10:17:13</time>
      </trkpt>
      <trkpt lat="44.70261" lon="4.90186">
        <ele>338</ele>
        <time>2021-07-10T10:17:14</time>
      </trkpt>
      <trkpt lat="44.70261" lon="4.90186">
        <ele>338</ele>
        <time>2021-07-10T10:17:15</time>
      </trkpt>
      <trkpt lat="44.70264" lon="4.90166">
        <ele>338</ele>
        <time>2021-07-10T10:17:16</time>
      </trkpt>
      <trkpt lat="44.70264" lon="4.90166">
        <ele>338.2</ele>
        <time>2021-07-10T10:17:17</time>
      </trkpt>
      <trkpt lat="44.70267" lon="4.90156">
        <ele>338.4</ele>
        <time>2021-07-10T10:17:18</time>
      </trkpt>
      <trkpt lat="44.7027" lon="4.90146">
        <ele>339</ele>
        <time>2021-07-10T10:17:19</time>
      </trkpt>
      <trkpt lat="44.7027" lon="4.90146">
        <ele>339.6</ele>
        <time>2021-07-10T10:17:20</time>
      </trkpt>
      <trkpt lat="44.70271" lon="4.90139">
        <ele>340</ele>
        <time>2021-07-10T10:17:21</time>
      </trkpt>
      <trkpt lat="44.70273" lon="4.90135">
        <ele>340</ele>
        <time>2021-07-10T10:17:22</time>
      </trkpt>
      <trkpt lat="44.70278" lon="4.90121">
        <ele>340</ele>
        <time>2021-07-10T10:17:23</time>
      </trkpt>
      <trkpt lat="44.70278" lon="4.90121">
        <ele>340</ele>
        <time>2021-07-10T10:17:24</time>
      </trkpt>
      <trkpt lat="44.70278" lon="4.90109">
        <ele>340</ele>
        <time>2021-07-10T10:17:25</time>
      </trkpt>
      <trkpt lat="44.70278" lon="4.90109">
        <ele>340</ele>
        <time>2021-07-10T10:17:26</time>
      </trkpt>
      <trkpt lat="44.70277" lon="4.90097">
        <ele>339.8</ele>
        <time>2021-07-10T10:17:27</time>
      </trkpt>
      <trkpt lat="44.70278" lon="4.90091">
        <ele>339.8</ele>
        <time>2021-07-10T10:17:28</time>
      </trkpt>
      <trkpt lat="44.70278" lon="4.90091">
        <ele>339.8</ele>
        <time>2021-07-10T10:17:29</time>
      </trkpt>
      <trkpt lat="44.70279" lon="4.90084">
        <ele>339.6</ele>
        <time>2021-07-10T10:17:30</time>
      </trkpt>
      <trkpt lat="44.70281" lon="4.90079">
        <ele>339.6</ele>
        <time>2021-07-10T10:17:31</time>
      </trkpt>
      <trkpt lat="44.70283" lon="4.90071">
        <ele>339.6</ele>
        <time>2021-07-10T10:17:32</time>
      </trkpt>
      <trkpt lat="44.7029" lon="4.90059">
        <ele>339.6</ele>
        <time>2021-07-10T10:17:33</time>
      </trkpt>
      <trkpt lat="44.7029" lon="4.90059">
        <ele>340</ele>
        <time>2021-07-10T10:17:34</time>
      </trkpt>
      <trkpt lat="44.70294" lon="4.90056">
        <ele>340.4</ele>
        <time>2021-07-10T10:17:35</time>
      </trkpt>
      <trkpt lat="44.70299" lon="4.90053">
        <ele>340.8</ele>
        <time>2021-07-10T10:17:36</time>
      </trkpt>
      <trkpt lat="44.70299" lon="4.90053">
        <ele>341</ele>
        <time>2021-07-10T10:17:37</time>
      </trkpt>
      <trkpt lat="44.70307" lon="4.9005">
        <ele>341.2</ele>
        <time>2021-07-10T10:17:38</time>
      </trkpt>
      <trkpt lat="44.70307" lon="4.9005">
        <ele>341.6</ele>
        <time>2021-07-10T10:17:39</time>
      </trkpt>
      <trkpt lat="44.7031" lon="4.90049">
        <ele>341.8</ele>
        <time>2021-07-10T10:17:40</time>
      </trkpt>
      <trkpt lat="44.70314" lon="4.90049">
        <ele>342</ele>
        <time>2021-07-10T10:17:41</time>
      </trkpt>
      <trkpt lat="44.70318" lon="4.90049">
        <ele>342.4</ele>
        <time>2021-07-10T10:17:42</time>
      </trkpt>
      <trkpt lat="44.70327" lon="4.90049">
        <ele>342.8</ele>
        <time>2021-07-10T10:17:43</time>
      </trkpt>
      <trkpt lat="44.70327" lon="4.90049">
        <ele>343.2</ele>
        <time>2021-07-10T10:17:44</time>
      </trkpt>
      <trkpt lat="44.70335" lon="4.9005">
        <ele>343.4</ele>
        <time>2021-07-10T10:17:45</time>
      </trkpt>
      <trkpt lat="44.70335" lon="4.9005">
        <ele>343.6</ele>
        <time>2021-07-10T10:17:46</time>
      </trkpt>
      <trkpt lat="44.70339" lon="4.90051">
        <ele>344</ele>
        <time>2021-07-10T10:17:47</time>
      </trkpt>
      <trkpt lat="44.70347" lon="4.90049">
        <ele>344.2</ele>
        <time>2021-07-10T10:17:48</time>
      </trkpt>
      <trkpt lat="44.70347" lon="4.90049">
        <ele>344.4</ele>
        <time>2021-07-10T10:17:49</time>
      </trkpt>
      <trkpt lat="44.7035" lon="4.9005">
        <ele>344.8</ele>
        <time>2021-07-10T10:17:50</time>
      </trkpt>
      <trkpt lat="44.70353" lon="4.9005">
        <ele>345.2</ele>
        <time>2021-07-10T10:17:51</time>
      </trkpt>
      <trkpt lat="44.70356" lon="4.90051">
        <ele>345.4</ele>
        <time>2021-07-10T10:17:52</time>
      </trkpt>
      <trkpt lat="44.70359" lon="4.90051">
        <ele>345.6</ele>
        <time>2021-07-10T10:17:53</time>
      </trkpt>
      <trkpt lat="44.70359" lon="4.90051">
        <ele>346</ele>
        <time>2021-07-10T10:17:54</time>
      </trkpt>
      <trkpt lat="44.70361" lon="4.90051">
        <ele>346.2</ele>
        <time>2021-07-10T10:17:55</time>
      </trkpt>
      <trkpt lat="44.70363" lon="4.90051">
        <ele>346.4</ele>
        <time>2021-07-10T10:17:56</time>
      </trkpt>
      <trkpt lat="44.70365" lon="4.9005">
        <ele>346.6</ele>
        <time>2021-07-10T10:17:57</time>
      </trkpt>
      <trkpt lat="44.70369" lon="4.90049">
        <ele>346.6</ele>
        <time>2021-07-10T10:17:58</time>
      </trkpt>
      <trkpt lat="44.70369" lon="4.90049">
        <ele>346.8</ele>
        <time>2021-07-10T10:17:59</time>
      </trkpt>
      <trkpt lat="44.70371" lon="4.90049">
        <ele>347</ele>
        <time>2021-07-10T10:18:00</time>
      </trkpt>
      <trkpt lat="44.70373" lon="4.90049">
        <ele>347</ele>
        <time>2021-07-10T10:18:01</time>
      </trkpt>
      <trkpt lat="44.70379" lon="4.90048">
        <ele>347.2</ele>
        <time>2021-07-10T10:18:02</time>
      </trkpt>
      <trkpt lat="44.70379" lon="4.90048">
        <ele>347.2</ele>
        <time>2021-07-10T10:18:03</time>
      </trkpt>
      <trkpt lat="44.7038" lon="4.90047">
        <ele>347.2</ele>
        <time>2021-07-10T10:18:04</time>
      </trkpt>
      <trkpt lat="44.70383" lon="4.90047">
        <ele>347.4</ele>
        <time>2021-07-10T10:18:05</time>
      </trkpt>
      <trkpt lat="44.70384" lon="4.90046">
        <ele>347.6</ele>
        <time>2021-07-10T10:18:06</time>
      </trkpt>
      <trkpt lat="44.70389" lon="4.90046">
        <ele>347.8</ele>
        <time>2021-07-10T10:18:07</time>
      </trkpt>
      <trkpt lat="44.70389" lon="4.90046">
        <ele>347.8</ele>
        <time>2021-07-10T10:18:08</time>
      </trkpt>
      <trkpt lat="44.70391" lon="4.90045">
        <ele>347.8</ele>
        <time>2021-07-10T10:18:09</time>
      </trkpt>
      <trkpt lat="44.70391" lon="4.90045">
        <ele>348</ele>
        <time>2021-07-10T10:18:10</time>
      </trkpt>
      <trkpt lat="44.70394" lon="4.90043">
        <ele>348.2</ele>
        <time>2021-07-10T10:18:11</time>
      </trkpt>
      <trkpt lat="44.70398" lon="4.90043">
        <ele>348.2</ele>
        <time>2021-07-10T10:18:12</time>
      </trkpt>
      <trkpt lat="44.70398" lon="4.90043">
        <ele>348.4</ele>
        <time>2021-07-10T10:18:13</time>
      </trkpt>
      <trkpt lat="44.70401" lon="4.90042">
        <ele>348.6</ele>
        <time>2021-07-10T10:18:14</time>
      </trkpt>
      <trkpt lat="44.70403" lon="4.90041">
        <ele>348.6</ele>
        <time>2021-07-10T10:18:15</time>
      </trkpt>
      <trkpt lat="44.70408" lon="4.90042">
        <ele>348.8</ele>
        <time>2021-07-10T10:18:16</time>
      </trkpt>
      <trkpt lat="44.70411" lon="4.90042">
        <ele>349</ele>
        <time>2021-07-10T10:18:17</time>
      </trkpt>
      <trkpt lat="44.70411" lon="4.90042">
        <ele>349</ele>
        <time>2021-07-10T10:18:18</time>
      </trkpt>
      <trkpt lat="44.70414" lon="4.90042">
        <ele>349.2</ele>
        <time>2021-07-10T10:18:19</time>
      </trkpt>
      <trkpt lat="44.70417" lon="4.90043">
        <ele>349.4</ele>
        <time>2021-07-10T10:18:20</time>
      </trkpt>
      <trkpt lat="44.7042" lon="4.90043">
        <ele>349.6</ele>
        <time>2021-07-10T10:18:21</time>
      </trkpt>
      <trkpt lat="44.70425" lon="4.90044">
        <ele>349.8</ele>
        <time>2021-07-10T10:18:22</time>
      </trkpt>
      <trkpt lat="44.70425" lon="4.90044">
        <ele>349.8</ele>
        <time>2021-07-10T10:18:23</time>
      </trkpt>
      <trkpt lat="44.70427" lon="4.90045">
        <ele>349.8</ele>
        <time>2021-07-10T10:18:24</time>
      </trkpt>
      <trkpt lat="44.70428" lon="4.90044">
        <ele>350</ele>
        <time>2021-07-10T10:18:25</time>
      </trkpt>
      <trkpt lat="44.70433" lon="4.90045">
        <ele>350.2</ele>
        <time>2021-07-10T10:18:26</time>
      </trkpt>
      <trkpt lat="44.70435" lon="4.90046">
        <ele>350.4</ele>
        <time>2021-07-10T10:18:27</time>
      </trkpt>
      <trkpt lat="44.70435" lon="4.90046">
        <ele>350.6</ele>
        <time>2021-07-10T10:18:28</time>
      </trkpt>
      <trkpt lat="44.70438" lon="4.90047">
        <ele>350.8</ele>
        <time>2021-07-10T10:18:29</time>
      </trkpt>
      <trkpt lat="44.7044" lon="4.90048">
        <ele>351.2</ele>
        <time>2021-07-10T10:18:30</time>
      </trkpt>
      <trkpt lat="44.70442" lon="4.90049">
        <ele>351.2</ele>
        <time>2021-07-10T10:18:31</time>
      </trkpt>
      <trkpt lat="44.70446" lon="4.90051">
        <ele>351.4</ele>
        <time>2021-07-10T10:18:32</time>
      </trkpt>
      <trkpt lat="44.70446" lon="4.90051">
        <ele>351.4</ele>
        <time>2021-07-10T10:18:33</time>
      </trkpt>
      <trkpt lat="44.70448" lon="4.90052">
        <ele>351.6</ele>
        <time>2021-07-10T10:18:34</time>
      </trkpt>
      <trkpt lat="44.70454" lon="4.90054">
        <ele>351.8</ele>
        <time>2021-07-10T10:18:35</time>
      </trkpt>
      <trkpt lat="44.70454" lon="4.90054">
        <ele>351.8</ele>
        <time>2021-07-10T10:18:36</time>
      </trkpt>
      <trkpt lat="44.70459" lon="4.90056">
        <ele>351.8</ele>
        <time>2021-07-10T10:18:37</time>
      </trkpt>
      <trkpt lat="44.70459" lon="4.90056">
        <ele>351.8</ele>
        <time>2021-07-10T10:18:38</time>
      </trkpt>
      <trkpt lat="44.70462" lon="4.90058">
        <ele>351.8</ele>
        <time>2021-07-10T10:18:39</time>
      </trkpt>
      <trkpt lat="44.70466" lon="4.9006">
        <ele>351.8</ele>
        <time>2021-07-10T10:18:40</time>
      </trkpt>
      <trkpt lat="44.7047" lon="4.90062">
        <ele>351.8</ele>
        <time>2021-07-10T10:18:41</time>
      </trkpt>
      <trkpt lat="44.70473" lon="4.90065">
        <ele>351.8</ele>
        <time>2021-07-10T10:18:42</time>
      </trkpt>
      <trkpt lat="44.70476" lon="4.90067">
        <ele>351.6</ele>
        <time>2021-07-10T10:18:43</time>
      </trkpt>
      <trkpt lat="44.70479" lon="4.90068">
        <ele>351.6</ele>
        <time>2021-07-10T10:18:44</time>
      </trkpt>
      <trkpt lat="44.70483" lon="4.9007">
        <ele>351.6</ele>
        <time>2021-07-10T10:18:45</time>
      </trkpt>
      <trkpt lat="44.70492" lon="4.90074">
        <ele>351.6</ele>
        <time>2021-07-10T10:18:46</time>
      </trkpt>
      <trkpt lat="44.70492" lon="4.90074">
        <ele>351.8</ele>
        <time>2021-07-10T10:18:47</time>
      </trkpt>
      <trkpt lat="44.70496" lon="4.90076">
        <ele>351.8</ele>
        <time>2021-07-10T10:18:48</time>
      </trkpt>
      <trkpt lat="44.70501" lon="4.90077">
        <ele>351.8</ele>
        <time>2021-07-10T10:18:49</time>
      </trkpt>
      <trkpt lat="44.70504" lon="4.90077">
        <ele>351.8</ele>
        <time>2021-07-10T10:18:50</time>
      </trkpt>
      <trkpt lat="44.70512" lon="4.90078">
        <ele>352</ele>
        <time>2021-07-10T10:18:51</time>
      </trkpt>
      <trkpt lat="44.70512" lon="4.90078">
        <ele>352.2</ele>
        <time>2021-07-10T10:18:52</time>
      </trkpt>
      <trkpt lat="44.70517" lon="4.90078">
        <ele>352.2</ele>
        <time>2021-07-10T10:18:53</time>
      </trkpt>
      <trkpt lat="44.70525" lon="4.90079">
        <ele>352.4</ele>
        <time>2021-07-10T10:18:54</time>
      </trkpt>
      <trkpt lat="44.70525" lon="4.90079">
        <ele>352.6</ele>
        <time>2021-07-10T10:18:55</time>
      </trkpt>
      <trkpt lat="44.70533" lon="4.90079">
        <ele>352.6</ele>
        <time>2021-07-10T10:18:56</time>
      </trkpt>
      <trkpt lat="44.70533" lon="4.90079">
        <ele>352.6</ele>
        <time>2021-07-10T10:18:57</time>
      </trkpt>
      <trkpt lat="44.70537" lon="4.90079">
        <ele>352.8</ele>
        <time>2021-07-10T10:18:58</time>
      </trkpt>
      <trkpt lat="44.70541" lon="4.90078">
        <ele>352.8</ele>
        <time>2021-07-10T10:18:59</time>
      </trkpt>
      <trkpt lat="44.70546" lon="4.90078">
        <ele>353</ele>
        <time>2021-07-10T10:19:00</time>
      </trkpt>
      <trkpt lat="44.70556" lon="4.90077">
        <ele>353</ele>
        <time>2021-07-10T10:19:01</time>
      </trkpt>
      <trkpt lat="44.70556" lon="4.90077">
        <ele>353</ele>
        <time>2021-07-10T10:19:02</time>
      </trkpt>
      <trkpt lat="44.70567" lon="4.90075">
        <ele>352.8</ele>
        <time>2021-07-10T10:19:03</time>
      </trkpt>
      <trkpt lat="44.70567" lon="4.90075">
        <ele>352.6</ele>
        <time>2021-07-10T10:19:04</time>
      </trkpt>
      <trkpt lat="44.70573" lon="4.90075">
        <ele>352.4</ele>
        <time>2021-07-10T10:19:05</time>
      </trkpt>
      <trkpt lat="44.70585" lon="4.90076">
        <ele>352.2</ele>
        <time>2021-07-10T10:19:06</time>
      </trkpt>
      <trkpt lat="44.70585" lon="4.90076">
        <ele>352</ele>
        <time>2021-07-10T10:19:07</time>
      </trkpt>
      <trkpt lat="44.70592" lon="4.90076">
        <ele>351.8</ele>
        <time>2021-07-10T10:19:08</time>
      </trkpt>
      <trkpt lat="44.70598" lon="4.90077">
        <ele>351.4</ele>
        <time>2021-07-10T10:19:09</time>
      </trkpt>
      <trkpt lat="44.70608" lon="4.90078">
        <ele>351.2</ele>
        <time>2021-07-10T10:19:10</time>
      </trkpt>
      <trkpt lat="44.70612" lon="4.90078">
        <ele>351</ele>
        <time>2021-07-10T10:19:11</time>
      </trkpt>
      <trkpt lat="44.70612" lon="4.90078">
        <ele>350.8</ele>
        <time>2021-07-10T10:19:12</time>
      </trkpt>
      <trkpt lat="44.70614" lon="4.90078">
        <ele>350.6</ele>
        <time>2021-07-10T10:19:13</time>
      </trkpt>
      <trkpt lat="44.70616" lon="4.90079">
        <ele>350.2</ele>
        <time>2021-07-10T10:19:14</time>
      </trkpt>
      <trkpt lat="44.70617" lon="4.90078">
        <ele>349.8</ele>
        <time>2021-07-10T10:19:15</time>
      </trkpt>
      <trkpt lat="44.70618" lon="4.90077">
        <ele>349.6</ele>
        <time>2021-07-10T10:19:16</time>
      </trkpt>
      <trkpt lat="44.70618" lon="4.90077">
        <ele>349.6</ele>
        <time>2021-07-10T10:19:17</time>
      </trkpt>
      <trkpt lat="44.70617" lon="4.90076">
        <ele>349.6</ele>
        <time>2021-07-10T10:19:18</time>
      </trkpt>
      <trkpt lat="44.70617" lon="4.90077">
        <ele>349.6</ele>
        <time>2021-07-10T10:19:19</time>
      </trkpt>
      <trkpt lat="44.70617" lon="4.90077">
        <ele>349.8</ele>
        <time>2021-07-10T10:19:20</time>
      </trkpt>
      <trkpt lat="44.70616" lon="4.90078">
        <ele>349.8</ele>
        <time>2021-07-10T10:19:21</time>
      </trkpt>
      <trkpt lat="44.70616" lon="4.90078">
        <ele>349.8</ele>
        <time>2021-07-10T10:19:22</time>
      </trkpt>
      <trkpt lat="44.70615" lon="4.90079">
        <ele>349.8</ele>
        <time>2021-07-10T10:19:23</time>
      </trkpt>
      <trkpt lat="44.70615" lon="4.90079">
        <ele>349.8</ele>
        <time>2021-07-10T10:19:24</time>
      </trkpt>
      <trkpt lat="44.70616" lon="4.90079">
        <ele>349.8</ele>
        <time>2021-07-10T10:19:25</time>
      </trkpt>
      <trkpt lat="44.70668" lon="4.90096">
        <ele>346.6</ele>
        <time>2021-07-10T10:20:38</time>
      </trkpt>
      <trkpt lat="44.70675" lon="4.90097">
        <ele>346.2</ele>
        <time>2021-07-10T10:20:39</time>
      </trkpt>
      <trkpt lat="44.70683" lon="4.90098">
        <ele>345.8</ele>
        <time>2021-07-10T10:20:40</time>
      </trkpt>
      <trkpt lat="44.7069" lon="4.90099">
        <ele>345.6</ele>
        <time>2021-07-10T10:20:41</time>
      </trkpt>
      <trkpt lat="44.70698" lon="4.901">
        <ele>345.2</ele>
        <time>2021-07-10T10:20:42</time>
      </trkpt>
      <trkpt lat="44.70706" lon="4.90102">
        <ele>345</ele>
        <time>2021-07-10T10:20:43</time>
      </trkpt>
      <trkpt lat="44.70714" lon="4.90103">
        <ele>344.8</ele>
        <time>2021-07-10T10:20:44</time>
      </trkpt>
      <trkpt lat="44.70722" lon="4.90105">
        <ele>344.4</ele>
        <time>2021-07-10T10:20:45</time>
      </trkpt>
      <trkpt lat="44.70731" lon="4.90106">
        <ele>344</ele>
        <time>2021-07-10T10:20:46</time>
      </trkpt>
      <trkpt lat="44.70739" lon="4.90109">
        <ele>343.4</ele>
        <time>2021-07-10T10:20:47</time>
      </trkpt>
      <trkpt lat="44.70748" lon="4.90112">
        <ele>343.2</ele>
        <time>2021-07-10T10:20:48</time>
      </trkpt>
      <trkpt lat="44.70756" lon="4.90114">
        <ele>343</ele>
        <time>2021-07-10T10:20:49</time>
      </trkpt>
      <trkpt lat="44.70764" lon="4.90115">
        <ele>342.8</ele>
        <time>2021-07-10T10:20:50</time>
      </trkpt>
      <trkpt lat="44.70771" lon="4.90116">
        <ele>342.6</ele>
        <time>2021-07-10T10:20:51</time>
      </trkpt>
      <trkpt lat="44.70777" lon="4.90119">
        <ele>342.4</ele>
        <time>2021-07-10T10:20:52</time>
      </trkpt>
      <trkpt lat="44.70777" lon="4.90119">
        <ele>342.4</ele>
        <time>2021-07-10T10:20:53</time>
      </trkpt>
      <trkpt lat="44.70792" lon="4.90123">
        <ele>342.2</ele>
        <time>2021-07-10T10:20:54</time>
      </trkpt>
      <trkpt lat="44.708" lon="4.90126">
        <ele>342</ele>
        <time>2021-07-10T10:20:55</time>
      </trkpt>
      <trkpt lat="44.70806" lon="4.90128">
        <ele>342</ele>
        <time>2021-07-10T10:20:56</time>
      </trkpt>
      <trkpt lat="44.70815" lon="4.90129">
        <ele>341.6</ele>
        <time>2021-07-10T10:20:57</time>
      </trkpt>
      <trkpt lat="44.70815" lon="4.90129">
        <ele>341.4</ele>
        <time>2021-07-10T10:20:58</time>
      </trkpt>
      <trkpt lat="44.70828" lon="4.9013">
        <ele>341.2</ele>
        <time>2021-07-10T10:20:59</time>
      </trkpt>
      <trkpt lat="44.70834" lon="4.9013">
        <ele>341.2</ele>
        <time>2021-07-10T10:21:00</time>
      </trkpt>
      <trkpt lat="44.70839" lon="4.90133">
        <ele>341.2</ele>
        <time>2021-07-10T10:21:01</time>
      </trkpt>
      <trkpt lat="44.70846" lon="4.90135">
        <ele>341.2</ele>
        <time>2021-07-10T10:21:02</time>
      </trkpt>
      <trkpt lat="44.70852" lon="4.90137">
        <ele>341.2</ele>
        <time>2021-07-10T10:21:03</time>
      </trkpt>
      <trkpt lat="44.70859" lon="4.90139">
        <ele>341.2</ele>
        <time>2021-07-10T10:21:04</time>
      </trkpt>
      <trkpt lat="44.70867" lon="4.90141">
        <ele>341.2</ele>
        <time>2021-07-10T10:21:05</time>
      </trkpt>
      <trkpt lat="44.7087" lon="4.90143">
        <ele>341.2</ele>
        <time>2021-07-10T10:21:06</time>
      </trkpt>
      <trkpt lat="44.70875" lon="4.90145">
        <ele>341.2</ele>
        <time>2021-07-10T10:21:07</time>
      </trkpt>
      <trkpt lat="44.70882" lon="4.90147">
        <ele>341.2</ele>
        <time>2021-07-10T10:21:08</time>
      </trkpt>
      <trkpt lat="44.70886" lon="4.90149">
        <ele>341.2</ele>
        <time>2021-07-10T10:21:09</time>
      </trkpt>
      <trkpt lat="44.7089" lon="4.90151">
        <ele>341.2</ele>
        <time>2021-07-10T10:21:10</time>
      </trkpt>
      <trkpt lat="44.70893" lon="4.90153">
        <ele>341.2</ele>
        <time>2021-07-10T10:21:11</time>
      </trkpt>
      <trkpt lat="44.70897" lon="4.90155">
        <ele>341.2</ele>
        <time>2021-07-10T10:21:12</time>
      </trkpt>
      <trkpt lat="44.70902" lon="4.90156">
        <ele>341.4</ele>
        <time>2021-07-10T10:21:13</time>
      </trkpt>
      <trkpt lat="44.70902" lon="4.90156">
        <ele>341.6</ele>
        <time>2021-07-10T10:21:14</time>
      </trkpt>
      <trkpt lat="44.70906" lon="4.90158">
        <ele>341.6</ele>
        <time>2021-07-10T10:21:15</time>
      </trkpt>
      <trkpt lat="44.7091" lon="4.90159">
        <ele>341.8</ele>
        <time>2021-07-10T10:21:16</time>
      </trkpt>
      <trkpt lat="44.70914" lon="4.90161">
        <ele>341.8</ele>
        <time>2021-07-10T10:21:17</time>
      </trkpt>
      <trkpt lat="44.70916" lon="4.90162">
        <ele>342</ele>
        <time>2021-07-10T10:21:18</time>
      </trkpt>
      <trkpt lat="44.7092" lon="4.90162">
        <ele>342</ele>
        <time>2021-07-10T10:21:19</time>
      </trkpt>
      <trkpt lat="44.70923" lon="4.90164">
        <ele>342.2</ele>
        <time>2021-07-10T10:21:20</time>
      </trkpt>
      <trkpt lat="44.70927" lon="4.90166">
        <ele>342.2</ele>
        <time>2021-07-10T10:21:21</time>
      </trkpt>
      <trkpt lat="44.70931" lon="4.90168">
        <ele>342.4</ele>
        <time>2021-07-10T10:21:22</time>
      </trkpt>
      <trkpt lat="44.70934" lon="4.9017">
        <ele>342.6</ele>
        <time>2021-07-10T10:21:23</time>
      </trkpt>
      <trkpt lat="44.70938" lon="4.90172">
        <ele>342.6</ele>
        <time>2021-07-10T10:21:24</time>
      </trkpt>
      <trkpt lat="44.70945" lon="4.9018">
        <ele>342.8</ele>
        <time>2021-07-10T10:21:25</time>
      </trkpt>
      <trkpt lat="44.70945" lon="4.9018">
        <ele>343</ele>
        <time>2021-07-10T10:21:26</time>
      </trkpt>
      <trkpt lat="44.70948" lon="4.90185">
        <ele>343.2</ele>
        <time>2021-07-10T10:21:27</time>
      </trkpt>
      <trkpt lat="44.70951" lon="4.90186">
        <ele>343.4</ele>
        <time>2021-07-10T10:21:28</time>
      </trkpt>
      <trkpt lat="44.70954" lon="4.9019">
        <ele>343.6</ele>
        <time>2021-07-10T10:21:29</time>
      </trkpt>
      <trkpt lat="44.70956" lon="4.90192">
        <ele>343.8</ele>
        <time>2021-07-10T10:21:30</time>
      </trkpt>
      <trkpt lat="44.70958" lon="4.90196">
        <ele>344</ele>
        <time>2021-07-10T10:21:31</time>
      </trkpt>
      <trkpt lat="44.70962" lon="4.90201">
        <ele>344.4</ele>
        <time>2021-07-10T10:21:32</time>
      </trkpt>
      <trkpt lat="44.70962" lon="4.90201">
        <ele>344.6</ele>
        <time>2021-07-10T10:21:33</time>
      </trkpt>
      <trkpt lat="44.70965" lon="4.90203">
        <ele>344.8</ele>
        <time>2021-07-10T10:21:34</time>
      </trkpt>
      <trkpt lat="44.70967" lon="4.90207">
        <ele>344.8</ele>
        <time>2021-07-10T10:21:35</time>
      </trkpt>
      <trkpt lat="44.7097" lon="4.90212">
        <ele>345</ele>
        <time>2021-07-10T10:21:36</time>
      </trkpt>
      <trkpt lat="44.70973" lon="4.90217">
        <ele>345</ele>
        <time>2021-07-10T10:21:37</time>
      </trkpt>
      <trkpt lat="44.70976" lon="4.90224">
        <ele>345.2</ele>
        <time>2021-07-10T10:21:38</time>
      </trkpt>
      <trkpt lat="44.70976" lon="4.90224">
        <ele>345.4</ele>
        <time>2021-07-10T10:21:39</time>
      </trkpt>
      <trkpt lat="44.70983" lon="4.90231">
        <ele>345.4</ele>
        <time>2021-07-10T10:21:40</time>
      </trkpt>
      <trkpt lat="44.70983" lon="4.90231">
        <ele>345.4</ele>
        <time>2021-07-10T10:21:41</time>
      </trkpt>
      <trkpt lat="44.70985" lon="4.90233">
        <ele>345.6</ele>
        <time>2021-07-10T10:21:42</time>
      </trkpt>
      <trkpt lat="44.70987" lon="4.90237">
        <ele>345.6</ele>
        <time>2021-07-10T10:21:43</time>
      </trkpt>
      <trkpt lat="44.70988" lon="4.90242">
        <ele>345.8</ele>
        <time>2021-07-10T10:21:44</time>
      </trkpt>
      <trkpt lat="44.70991" lon="4.90244">
        <ele>346.2</ele>
        <time>2021-07-10T10:21:45</time>
      </trkpt>
      <trkpt lat="44.70995" lon="4.90247">
        <ele>346.2</ele>
        <time>2021-07-10T10:21:46</time>
      </trkpt>
      <trkpt lat="44.70997" lon="4.9025">
        <ele>346.2</ele>
        <time>2021-07-10T10:21:47</time>
      </trkpt>
      <trkpt lat="44.70999" lon="4.90252">
        <ele>346</ele>
        <time>2021-07-10T10:21:48</time>
      </trkpt>
      <trkpt lat="44.70999" lon="4.90252">
        <ele>346</ele>
        <time>2021-07-10T10:21:49</time>
      </trkpt>
      <trkpt lat="44.71011" lon="4.90261">
        <ele>346</ele>
        <time>2021-07-10T10:21:50</time>
      </trkpt>
      <trkpt lat="44.71011" lon="4.90261">
        <ele>346</ele>
        <time>2021-07-10T10:21:51</time>
      </trkpt>
      <trkpt lat="44.71014" lon="4.90263">
        <ele>346.2</ele>
        <time>2021-07-10T10:21:52</time>
      </trkpt>
      <trkpt lat="44.71018" lon="4.90266">
        <ele>346.6</ele>
        <time>2021-07-10T10:21:53</time>
      </trkpt>
      <trkpt lat="44.71022" lon="4.90268">
        <ele>346.8</ele>
        <time>2021-07-10T10:21:54</time>
      </trkpt>
      <trkpt lat="44.71025" lon="4.9027">
        <ele>347</ele>
        <time>2021-07-10T10:21:55</time>
      </trkpt>
      <trkpt lat="44.71028" lon="4.90271">
        <ele>347.2</ele>
        <time>2021-07-10T10:21:56</time>
      </trkpt>
      <trkpt lat="44.71032" lon="4.90273">
        <ele>347.4</ele>
        <time>2021-07-10T10:21:57</time>
      </trkpt>
      <trkpt lat="44.71035" lon="4.90275">
        <ele>347.4</ele>
        <time>2021-07-10T10:21:58</time>
      </trkpt>
      <trkpt lat="44.71039" lon="4.90276">
        <ele>347.6</ele>
        <time>2021-07-10T10:21:59</time>
      </trkpt>
      <trkpt lat="44.71039" lon="4.90276">
        <ele>347.6</ele>
        <time>2021-07-10T10:22:00</time>
      </trkpt>
      <trkpt lat="44.71051" lon="4.90279">
        <ele>347.6</ele>
        <time>2021-07-10T10:22:01</time>
      </trkpt>
      <trkpt lat="44.71051" lon="4.90279">
        <ele>347.6</ele>
        <time>2021-07-10T10:22:02</time>
      </trkpt>
      <trkpt lat="44.71056" lon="4.9028">
        <ele>347.8</ele>
        <time>2021-07-10T10:22:03</time>
      </trkpt>
      <trkpt lat="44.7106" lon="4.90282">
        <ele>347.8</ele>
        <time>2021-07-10T10:22:04</time>
      </trkpt>
      <trkpt lat="44.71062" lon="4.90282">
        <ele>347.8</ele>
        <time>2021-07-10T10:22:05</time>
      </trkpt>
      <trkpt lat="44.71066" lon="4.90284">
        <ele>347.8</ele>
        <time>2021-07-10T10:22:06</time>
      </trkpt>
      <trkpt lat="44.71071" lon="4.90285">
        <ele>347.6</ele>
        <time>2021-07-10T10:22:07</time>
      </trkpt>
      <trkpt lat="44.71076" lon="4.90286">
        <ele>347.6</ele>
        <time>2021-07-10T10:22:08</time>
      </trkpt>
      <trkpt lat="44.71081" lon="4.90286">
        <ele>347.2</ele>
        <time>2021-07-10T10:22:09</time>
      </trkpt>
      <trkpt lat="44.71086" lon="4.90286">
        <ele>347</ele>
        <time>2021-07-10T10:22:10</time>
      </trkpt>
      <trkpt lat="44.71091" lon="4.90285">
        <ele>346.8</ele>
        <time>2021-07-10T10:22:11</time>
      </trkpt>
      <trkpt lat="44.71097" lon="4.90285">
        <ele>346.8</ele>
        <time>2021-07-10T10:22:12</time>
      </trkpt>
      <trkpt lat="44.71103" lon="4.90285">
        <ele>346.6</ele>
        <time>2021-07-10T10:22:13</time>
      </trkpt>
      <trkpt lat="44.71108" lon="4.90285">
        <ele>346.4</ele>
        <time>2021-07-10T10:22:14</time>
      </trkpt>
      <trkpt lat="44.71114" lon="4.90285">
        <ele>346.2</ele>
        <time>2021-07-10T10:22:15</time>
      </trkpt>
      <trkpt lat="44.71118" lon="4.90284">
        <ele>346</ele>
        <time>2021-07-10T10:22:16</time>
      </trkpt>
      <trkpt lat="44.71123" lon="4.90284">
        <ele>346</ele>
        <time>2021-07-10T10:22:17</time>
      </trkpt>
      <trkpt lat="44.71128" lon="4.90283">
        <ele>345.8</ele>
        <time>2021-07-10T10:22:18</time>
      </trkpt>
      <trkpt lat="44.71133" lon="4.90283">
        <ele>345.6</ele>
        <time>2021-07-10T10:22:19</time>
      </trkpt>
      <trkpt lat="44.71142" lon="4.90281">
        <ele>345.4</ele>
        <time>2021-07-10T10:22:20</time>
      </trkpt>
      <trkpt lat="44.71142" lon="4.90281">
        <ele>345.4</ele>
        <time>2021-07-10T10:22:21</time>
      </trkpt>
      <trkpt lat="44.71147" lon="4.90281">
        <ele>345.4</ele>
        <time>2021-07-10T10:22:22</time>
      </trkpt>
      <trkpt lat="44.71152" lon="4.9028">
        <ele>345.2</ele>
        <time>2021-07-10T10:22:23</time>
      </trkpt>
      <trkpt lat="44.71157" lon="4.90277">
        <ele>345</ele>
        <time>2021-07-10T10:22:24</time>
      </trkpt>
      <trkpt lat="44.71162" lon="4.90275">
        <ele>345</ele>
        <time>2021-07-10T10:22:25</time>
      </trkpt>
      <trkpt lat="44.71169" lon="4.90271">
        <ele>345</ele>
        <time>2021-07-10T10:22:26</time>
      </trkpt>
      <trkpt lat="44.71169" lon="4.90271">
        <ele>345</ele>
        <time>2021-07-10T10:22:27</time>
      </trkpt>
      <trkpt lat="44.71172" lon="4.9027">
        <ele>345.2</ele>
        <time>2021-07-10T10:22:28</time>
      </trkpt>
      <trkpt lat="44.71176" lon="4.90268">
        <ele>345.2</ele>
        <time>2021-07-10T10:22:29</time>
      </trkpt>
      <trkpt lat="44.7118" lon="4.90266">
        <ele>345.2</ele>
        <time>2021-07-10T10:22:30</time>
      </trkpt>
      <trkpt lat="44.71188" lon="4.90263">
        <ele>345.4</ele>
        <time>2021-07-10T10:22:31</time>
      </trkpt>
      <trkpt lat="44.71188" lon="4.90263">
        <ele>345.2</ele>
        <time>2021-07-10T10:22:32</time>
      </trkpt>
      <trkpt lat="44.71193" lon="4.90262">
        <ele>345.2</ele>
        <time>2021-07-10T10:22:33</time>
      </trkpt>
      <trkpt lat="44.71199" lon="4.9026">
        <ele>345.2</ele>
        <time>2021-07-10T10:22:34</time>
      </trkpt>
      <trkpt lat="44.71204" lon="4.90259">
        <ele>345</ele>
        <time>2021-07-10T10:22:35</time>
      </trkpt>
      <trkpt lat="44.71208" lon="4.90257">
        <ele>344.8</ele>
        <time>2021-07-10T10:22:36</time>
      </trkpt>
      <trkpt lat="44.71213" lon="4.90256">
        <ele>344.6</ele>
        <time>2021-07-10T10:22:37</time>
      </trkpt>
      <trkpt lat="44.71218" lon="4.90254">
        <ele>344.4</ele>
        <time>2021-07-10T10:22:38</time>
      </trkpt>
      <trkpt lat="44.71218" lon="4.90254">
        <ele>344.2</ele>
        <time>2021-07-10T10:22:39</time>
      </trkpt>
      <trkpt lat="44.7123" lon="4.90255">
        <ele>344</ele>
        <time>2021-07-10T10:22:40</time>
      </trkpt>
      <trkpt lat="44.71235" lon="4.90253">
        <ele>343.8</ele>
        <time>2021-07-10T10:22:41</time>
      </trkpt>
      <trkpt lat="44.71242" lon="4.90253">
        <ele>343.2</ele>
        <time>2021-07-10T10:22:42</time>
      </trkpt>
      <trkpt lat="44.71248" lon="4.90252">
        <ele>342.8</ele>
        <time>2021-07-10T10:22:43</time>
      </trkpt>
      <trkpt lat="44.71263" lon="4.90245">
        <ele>342.2</ele>
        <time>2021-07-10T10:22:44</time>
      </trkpt>
      <trkpt lat="44.71263" lon="4.90245">
        <ele>341.4</ele>
        <time>2021-07-10T10:22:45</time>
      </trkpt>
      <trkpt lat="44.7127" lon="4.90239">
        <ele>340.6</ele>
        <time>2021-07-10T10:22:46</time>
      </trkpt>
      <trkpt lat="44.71277" lon="4.90232">
        <ele>340</ele>
        <time>2021-07-10T10:22:47</time>
      </trkpt>
      <trkpt lat="44.71284" lon="4.90224">
        <ele>339.4</ele>
        <time>2021-07-10T10:22:48</time>
      </trkpt>
      <trkpt lat="44.71294" lon="4.90218">
        <ele>338.8</ele>
        <time>2021-07-10T10:22:49</time>
      </trkpt>
      <trkpt lat="44.71302" lon="4.90211">
        <ele>338</ele>
        <time>2021-07-10T10:22:50</time>
      </trkpt>
      <trkpt lat="44.7131" lon="4.90204">
        <ele>337</ele>
        <time>2021-07-10T10:22:51</time>
      </trkpt>
      <trkpt lat="44.71318" lon="4.90196">
        <ele>336.4</ele>
        <time>2021-07-10T10:22:52</time>
      </trkpt>
      <trkpt lat="44.71327" lon="4.9019">
        <ele>336</ele>
        <time>2021-07-10T10:22:53</time>
      </trkpt>
      <trkpt lat="44.71335" lon="4.90185">
        <ele>335.6</ele>
        <time>2021-07-10T10:22:54</time>
      </trkpt>
      <trkpt lat="44.71342" lon="4.90183">
        <ele>335.2</ele>
        <time>2021-07-10T10:22:55</time>
      </trkpt>
      <trkpt lat="44.7135" lon="4.90182">
        <ele>334.6</ele>
        <time>2021-07-10T10:22:56</time>
      </trkpt>
      <trkpt lat="44.71357" lon="4.90181">
        <ele>334.2</ele>
        <time>2021-07-10T10:22:57</time>
      </trkpt>
      <trkpt lat="44.7137" lon="4.9018">
        <ele>333.8</ele>
        <time>2021-07-10T10:22:58</time>
      </trkpt>
      <trkpt lat="44.7137" lon="4.9018">
        <ele>333.6</ele>
        <time>2021-07-10T10:22:59</time>
      </trkpt>
      <trkpt lat="44.7138" lon="4.90179">
        <ele>333.4</ele>
        <time>2021-07-10T10:23:00</time>
      </trkpt>
      <trkpt lat="44.7138" lon="4.90179">
        <ele>333.2</ele>
        <time>2021-07-10T10:23:01</time>
      </trkpt>
      <trkpt lat="44.71392" lon="4.90178">
        <ele>333.2</ele>
        <time>2021-07-10T10:23:02</time>
      </trkpt>
      <trkpt lat="44.71392" lon="4.90178">
        <ele>333.2</ele>
        <time>2021-07-10T10:23:03</time>
      </trkpt>
      <trkpt lat="44.714" lon="4.90179">
        <ele>333.2</ele>
        <time>2021-07-10T10:23:04</time>
      </trkpt>
      <trkpt lat="44.71408" lon="4.90181">
        <ele>333.2</ele>
        <time>2021-07-10T10:23:05</time>
      </trkpt>
      <trkpt lat="44.71408" lon="4.90181">
        <ele>332.8</ele>
        <time>2021-07-10T10:23:06</time>
      </trkpt>
      <trkpt lat="44.71424" lon="4.90185">
        <ele>332.2</ele>
        <time>2021-07-10T10:23:07</time>
      </trkpt>
      <trkpt lat="44.71431" lon="4.90189">
        <ele>331.6</ele>
        <time>2021-07-10T10:23:08</time>
      </trkpt>
      <trkpt lat="44.71439" lon="4.90193">
        <ele>330.6</ele>
        <time>2021-07-10T10:23:09</time>
      </trkpt>
      <trkpt lat="44.71446" lon="4.90197">
        <ele>329.6</ele>
        <time>2021-07-10T10:23:10</time>
      </trkpt>
      <trkpt lat="44.71454" lon="4.90201">
        <ele>328.6</ele>
        <time>2021-07-10T10:23:11</time>
      </trkpt>
      <trkpt lat="44.71468" lon="4.90208">
        <ele>327.6</ele>
        <time>2021-07-10T10:23:12</time>
      </trkpt>
      <trkpt lat="44.71468" lon="4.90208">
        <ele>326.6</ele>
        <time>2021-07-10T10:23:13</time>
      </trkpt>
      <trkpt lat="44.71474" lon="4.90211">
        <ele>325.2</ele>
        <time>2021-07-10T10:23:14</time>
      </trkpt>
      <trkpt lat="44.71486" lon="4.90219">
        <ele>324</ele>
        <time>2021-07-10T10:23:15</time>
      </trkpt>
      <trkpt lat="44.71486" lon="4.90219">
        <ele>322.6</ele>
        <time>2021-07-10T10:23:16</time>
      </trkpt>
      <trkpt lat="44.71491" lon="4.90225">
        <ele>321.4</ele>
        <time>2021-07-10T10:23:17</time>
      </trkpt>
      <trkpt lat="44.71495" lon="4.90234">
        <ele>320</ele>
        <time>2021-07-10T10:23:18</time>
      </trkpt>
      <trkpt lat="44.71498" lon="4.90243">
        <ele>319</ele>
        <time>2021-07-10T10:23:19</time>
      </trkpt>
      <trkpt lat="44.71501" lon="4.90252">
        <ele>317.8</ele>
        <time>2021-07-10T10:23:20</time>
      </trkpt>
      <trkpt lat="44.71504" lon="4.90261">
        <ele>316.8</ele>
        <time>2021-07-10T10:23:21</time>
      </trkpt>
      <trkpt lat="44.71505" lon="4.90273">
        <ele>315.6</ele>
        <time>2021-07-10T10:23:22</time>
      </trkpt>
      <trkpt lat="44.71507" lon="4.90297">
        <ele>314.6</ele>
        <time>2021-07-10T10:23:23</time>
      </trkpt>
      <trkpt lat="44.71507" lon="4.90297">
        <ele>313.6</ele>
        <time>2021-07-10T10:23:24</time>
      </trkpt>
      <trkpt lat="44.71509" lon="4.90319">
        <ele>312.4</ele>
        <time>2021-07-10T10:23:25</time>
      </trkpt>
      <trkpt lat="44.71509" lon="4.90319">
        <ele>311.6</ele>
        <time>2021-07-10T10:23:26</time>
      </trkpt>
      <trkpt lat="44.71507" lon="4.90335">
        <ele>310.6</ele>
        <time>2021-07-10T10:23:27</time>
      </trkpt>
      <trkpt lat="44.71507" lon="4.90335">
        <ele>310</ele>
        <time>2021-07-10T10:23:28</time>
      </trkpt>
      <trkpt lat="44.71507" lon="4.90341">
        <ele>309.2</ele>
        <time>2021-07-10T10:23:29</time>
      </trkpt>
      <trkpt lat="44.71509" lon="4.90345">
        <ele>308.4</ele>
        <time>2021-07-10T10:23:30</time>
      </trkpt>
      <trkpt lat="44.71512" lon="4.90349">
        <ele>307.6</ele>
        <time>2021-07-10T10:23:31</time>
      </trkpt>
      <trkpt lat="44.71512" lon="4.90349">
        <ele>306.8</ele>
        <time>2021-07-10T10:23:32</time>
      </trkpt>
      <trkpt lat="44.71522" lon="4.90353">
        <ele>306</ele>
        <time>2021-07-10T10:23:33</time>
      </trkpt>
      <trkpt lat="44.71526" lon="4.90355">
        <ele>305.2</ele>
        <time>2021-07-10T10:23:34</time>
      </trkpt>
      <trkpt lat="44.71537" lon="4.90361">
        <ele>304.4</ele>
        <time>2021-07-10T10:23:35</time>
      </trkpt>
      <trkpt lat="44.71537" lon="4.90361">
        <ele>303.6</ele>
        <time>2021-07-10T10:23:36</time>
      </trkpt>
      <trkpt lat="44.71542" lon="4.90363">
        <ele>302.6</ele>
        <time>2021-07-10T10:23:37</time>
      </trkpt>
      <trkpt lat="44.71549" lon="4.90366">
        <ele>301.8</ele>
        <time>2021-07-10T10:23:38</time>
      </trkpt>
      <trkpt lat="44.71553" lon="4.90369">
        <ele>300.8</ele>
        <time>2021-07-10T10:23:39</time>
      </trkpt>
      <trkpt lat="44.71558" lon="4.90371">
        <ele>299.8</ele>
        <time>2021-07-10T10:23:40</time>
      </trkpt>
      <trkpt lat="44.71558" lon="4.90371">
        <ele>298.8</ele>
        <time>2021-07-10T10:23:41</time>
      </trkpt>
      <trkpt lat="44.71566" lon="4.90374">
        <ele>297.8</ele>
        <time>2021-07-10T10:23:42</time>
      </trkpt>
      <trkpt lat="44.71571" lon="4.90375">
        <ele>296.8</ele>
        <time>2021-07-10T10:23:43</time>
      </trkpt>
      <trkpt lat="44.71576" lon="4.90373">
        <ele>296</ele>
        <time>2021-07-10T10:23:44</time>
      </trkpt>
      <trkpt lat="44.71582" lon="4.90372">
        <ele>295.4</ele>
        <time>2021-07-10T10:23:45</time>
      </trkpt>
      <trkpt lat="44.7159" lon="4.9037">
        <ele>294.6</ele>
        <time>2021-07-10T10:23:46</time>
      </trkpt>
      <trkpt lat="44.71597" lon="4.90366">
        <ele>293.6</ele>
        <time>2021-07-10T10:23:47</time>
      </trkpt>
      <trkpt lat="44.71611" lon="4.90361">
        <ele>292.8</ele>
        <time>2021-07-10T10:23:48</time>
      </trkpt>
      <trkpt lat="44.71611" lon="4.90361">
        <ele>292</ele>
        <time>2021-07-10T10:23:49</time>
      </trkpt>
      <trkpt lat="44.71617" lon="4.9036">
        <ele>291</ele>
        <time>2021-07-10T10:23:50</time>
      </trkpt>
      <trkpt lat="44.71622" lon="4.90362">
        <ele>290.2</ele>
        <time>2021-07-10T10:23:51</time>
      </trkpt>
      <trkpt lat="44.71629" lon="4.90365">
        <ele>289.2</ele>
        <time>2021-07-10T10:23:52</time>
      </trkpt>
      <trkpt lat="44.71635" lon="4.90372">
        <ele>288.4</ele>
        <time>2021-07-10T10:23:53</time>
      </trkpt>
      <trkpt lat="44.71635" lon="4.90372">
        <ele>287.2</ele>
        <time>2021-07-10T10:23:54</time>
      </trkpt>
      <trkpt lat="44.71645" lon="4.90387">
        <ele>286.4</ele>
        <time>2021-07-10T10:23:55</time>
      </trkpt>
      <trkpt lat="44.71652" lon="4.90395">
        <ele>285.6</ele>
        <time>2021-07-10T10:23:56</time>
      </trkpt>
      <trkpt lat="44.71657" lon="4.90401">
        <ele>285</ele>
        <time>2021-07-10T10:23:57</time>
      </trkpt>
      <trkpt lat="44.71663" lon="4.90407">
        <ele>284.6</ele>
        <time>2021-07-10T10:23:58</time>
      </trkpt>
      <trkpt lat="44.71668" lon="4.90413">
        <ele>284</ele>
        <time>2021-07-10T10:23:59</time>
      </trkpt>
      <trkpt lat="44.71679" lon="4.90423">
        <ele>283.8</ele>
        <time>2021-07-10T10:24:00</time>
      </trkpt>
      <trkpt lat="44.71679" lon="4.90423">
        <ele>283.6</ele>
        <time>2021-07-10T10:24:01</time>
      </trkpt>
      <trkpt lat="44.71686" lon="4.90428">
        <ele>283.4</ele>
        <time>2021-07-10T10:24:02</time>
      </trkpt>
      <trkpt lat="44.71692" lon="4.90433">
        <ele>283.2</ele>
        <time>2021-07-10T10:24:03</time>
      </trkpt>
      <trkpt lat="44.71698" lon="4.90437">
        <ele>283.2</ele>
        <time>2021-07-10T10:24:04</time>
      </trkpt>
      <trkpt lat="44.71703" lon="4.90441">
        <ele>283.2</ele>
        <time>2021-07-10T10:24:05</time>
      </trkpt>
      <trkpt lat="44.71709" lon="4.90445">
        <ele>283.2</ele>
        <time>2021-07-10T10:24:06</time>
      </trkpt>
      <trkpt lat="44.71715" lon="4.9045">
        <ele>283.4</ele>
        <time>2021-07-10T10:24:07</time>
      </trkpt>
      <trkpt lat="44.71721" lon="4.90455">
        <ele>283.4</ele>
        <time>2021-07-10T10:24:08</time>
      </trkpt>
      <trkpt lat="44.71726" lon="4.90461">
        <ele>283.4</ele>
        <time>2021-07-10T10:24:09</time>
      </trkpt>
      <trkpt lat="44.71731" lon="4.90466">
        <ele>283.6</ele>
        <time>2021-07-10T10:24:10</time>
      </trkpt>
      <trkpt lat="44.71736" lon="4.9047">
        <ele>283.6</ele>
        <time>2021-07-10T10:24:11</time>
      </trkpt>
      <trkpt lat="44.71736" lon="4.9047">
        <ele>283.8</ele>
        <time>2021-07-10T10:24:12</time>
      </trkpt>
      <trkpt lat="44.71746" lon="4.90477">
        <ele>284.2</ele>
        <time>2021-07-10T10:24:13</time>
      </trkpt>
      <trkpt lat="44.7175" lon="4.90481">
        <ele>284.6</ele>
        <time>2021-07-10T10:24:14</time>
      </trkpt>
      <trkpt lat="44.71759" lon="4.90488">
        <ele>284.8</ele>
        <time>2021-07-10T10:24:15</time>
      </trkpt>
      <trkpt lat="44.71759" lon="4.90488">
        <ele>285</ele>
        <time>2021-07-10T10:24:16</time>
      </trkpt>
      <trkpt lat="44.71764" lon="4.9049">
        <ele>285.2</ele>
        <time>2021-07-10T10:24:17</time>
      </trkpt>
      <trkpt lat="44.71768" lon="4.90492">
        <ele>285.6</ele>
        <time>2021-07-10T10:24:18</time>
      </trkpt>
      <trkpt lat="44.71777" lon="4.90496">
        <ele>285.8</ele>
        <time>2021-07-10T10:24:19</time>
      </trkpt>
      <trkpt lat="44.71777" lon="4.90496">
        <ele>285.8</ele>
        <time>2021-07-10T10:24:20</time>
      </trkpt>
      <trkpt lat="44.71782" lon="4.90498">
        <ele>286</ele>
        <time>2021-07-10T10:24:21</time>
      </trkpt>
      <trkpt lat="44.71787" lon="4.905">
        <ele>286</ele>
        <time>2021-07-10T10:24:22</time>
      </trkpt>
      <trkpt lat="44.7179" lon="4.90502">
        <ele>286.2</ele>
        <time>2021-07-10T10:24:23</time>
      </trkpt>
      <trkpt lat="44.7179" lon="4.90502">
        <ele>286.4</ele>
        <time>2021-07-10T10:24:24</time>
      </trkpt>
      <trkpt lat="44.71797" lon="4.90506">
        <ele>286.6</ele>
        <time>2021-07-10T10:24:25</time>
      </trkpt>
      <trkpt lat="44.718" lon="4.90508">
        <ele>286.6</ele>
        <time>2021-07-10T10:24:26</time>
      </trkpt>
      <trkpt lat="44.71805" lon="4.90511">
        <ele>286.6</ele>
        <time>2021-07-10T10:24:27</time>
      </trkpt>
      <trkpt lat="44.71805" lon="4.90511">
        <ele>286.6</ele>
        <time>2021-07-10T10:24:28</time>
      </trkpt>
      <trkpt lat="44.71809" lon="4.90514">
        <ele>286.8</ele>
        <time>2021-07-10T10:24:29</time>
      </trkpt>
      <trkpt lat="44.71814" lon="4.90516">
        <ele>286.6</ele>
        <time>2021-07-10T10:24:30</time>
      </trkpt>
      <trkpt lat="44.71814" lon="4.90516">
        <ele>286.6</ele>
        <time>2021-07-10T10:24:31</time>
      </trkpt>
      <trkpt lat="44.71817" lon="4.90516">
        <ele>286.8</ele>
        <time>2021-07-10T10:24:32</time>
      </trkpt>
      <trkpt lat="44.71817" lon="4.90516">
        <ele>287</ele>
        <time>2021-07-10T10:24:33</time>
      </trkpt>
      <trkpt lat="44.71822" lon="4.90514">
        <ele>287</ele>
        <time>2021-07-10T10:24:34</time>
      </trkpt>
      <trkpt lat="44.71826" lon="4.90513">
        <ele>287.2</ele>
        <time>2021-07-10T10:24:35</time>
      </trkpt>
      <trkpt lat="44.71833" lon="4.90512">
        <ele>287.2</ele>
        <time>2021-07-10T10:24:36</time>
      </trkpt>
      <trkpt lat="44.71833" lon="4.90512">
        <ele>287.2</ele>
        <time>2021-07-10T10:24:37</time>
      </trkpt>
      <trkpt lat="44.71836" lon="4.90511">
        <ele>287.4</ele>
        <time>2021-07-10T10:24:38</time>
      </trkpt>
      <trkpt lat="44.71839" lon="4.90511">
        <ele>287.4</ele>
        <time>2021-07-10T10:24:39</time>
      </trkpt>
      <trkpt lat="44.71841" lon="4.90511">
        <ele>287.6</ele>
        <time>2021-07-10T10:24:40</time>
      </trkpt>
      <trkpt lat="44.71841" lon="4.90511">
        <ele>287.6</ele>
        <time>2021-07-10T10:24:41</time>
      </trkpt>
      <trkpt lat="44.71846" lon="4.90512">
        <ele>287.8</ele>
        <time>2021-07-10T10:24:42</time>
      </trkpt>
      <trkpt lat="44.71849" lon="4.90511">
        <ele>288</ele>
        <time>2021-07-10T10:24:43</time>
      </trkpt>
      <trkpt lat="44.71853" lon="4.90513">
        <ele>288.2</ele>
        <time>2021-07-10T10:24:44</time>
      </trkpt>
      <trkpt lat="44.71853" lon="4.90513">
        <ele>288.4</ele>
        <time>2021-07-10T10:24:45</time>
      </trkpt>
      <trkpt lat="44.71855" lon="4.90513">
        <ele>288.6</ele>
        <time>2021-07-10T10:24:46</time>
      </trkpt>
      <trkpt lat="44.71858" lon="4.90513">
        <ele>288.8</ele>
        <time>2021-07-10T10:24:47</time>
      </trkpt>
      <trkpt lat="44.71864" lon="4.90513">
        <ele>289</ele>
        <time>2021-07-10T10:24:48</time>
      </trkpt>
      <trkpt lat="44.71864" lon="4.90513">
        <ele>289.4</ele>
        <time>2021-07-10T10:24:49</time>
      </trkpt>
      <trkpt lat="44.71867" lon="4.90514">
        <ele>289.6</ele>
        <time>2021-07-10T10:24:50</time>
      </trkpt>
      <trkpt lat="44.7187" lon="4.90514">
        <ele>289.6</ele>
        <time>2021-07-10T10:24:51</time>
      </trkpt>
      <trkpt lat="44.71873" lon="4.90515">
        <ele>289.8</ele>
        <time>2021-07-10T10:24:52</time>
      </trkpt>
      <trkpt lat="44.71876" lon="4.90515">
        <ele>289.8</ele>
        <time>2021-07-10T10:24:53</time>
      </trkpt>
      <trkpt lat="44.7188" lon="4.90515">
        <ele>290</ele>
        <time>2021-07-10T10:24:54</time>
      </trkpt>
      <trkpt lat="44.71883" lon="4.90516">
        <ele>290</ele>
        <time>2021-07-10T10:24:55</time>
      </trkpt>
      <trkpt lat="44.71887" lon="4.90518">
        <ele>290.2</ele>
        <time>2021-07-10T10:24:56</time>
      </trkpt>
      <trkpt lat="44.7189" lon="4.90519">
        <ele>290.4</ele>
        <time>2021-07-10T10:24:57</time>
      </trkpt>
      <trkpt lat="44.71894" lon="4.9052">
        <ele>290.6</ele>
        <time>2021-07-10T10:24:58</time>
      </trkpt>
      <trkpt lat="44.71898" lon="4.90521">
        <ele>290.8</ele>
        <time>2021-07-10T10:24:59</time>
      </trkpt>
      <trkpt lat="44.71898" lon="4.90521">
        <ele>291.2</ele>
        <time>2021-07-10T10:25:00</time>
      </trkpt>
      <trkpt lat="44.71902" lon="4.90524">
        <ele>291.6</ele>
        <time>2021-07-10T10:25:01</time>
      </trkpt>
      <trkpt lat="44.71905" lon="4.90525">
        <ele>292</ele>
        <time>2021-07-10T10:25:02</time>
      </trkpt>
      <trkpt lat="44.7191" lon="4.90527">
        <ele>292.2</ele>
        <time>2021-07-10T10:25:03</time>
      </trkpt>
      <trkpt lat="44.71913" lon="4.90529">
        <ele>292.4</ele>
        <time>2021-07-10T10:25:04</time>
      </trkpt>
      <trkpt lat="44.71916" lon="4.90532">
        <ele>292.8</ele>
        <time>2021-07-10T10:25:05</time>
      </trkpt>
      <trkpt lat="44.71919" lon="4.90536">
        <ele>293</ele>
        <time>2021-07-10T10:25:06</time>
      </trkpt>
      <trkpt lat="44.71923" lon="4.90537">
        <ele>293.4</ele>
        <time>2021-07-10T10:25:07</time>
      </trkpt>
      <trkpt lat="44.71929" lon="4.90542">
        <ele>293.8</ele>
        <time>2021-07-10T10:25:08</time>
      </trkpt>
      <trkpt lat="44.71929" lon="4.90542">
        <ele>294.2</ele>
        <time>2021-07-10T10:25:09</time>
      </trkpt>
      <trkpt lat="44.71932" lon="4.90545">
        <ele>294.4</ele>
        <time>2021-07-10T10:25:10</time>
      </trkpt>
      <trkpt lat="44.71935" lon="4.90548">
        <ele>294.4</ele>
        <time>2021-07-10T10:25:11</time>
      </trkpt>
      <trkpt lat="44.71943" lon="4.90554">
        <ele>294.6</ele>
        <time>2021-07-10T10:25:12</time>
      </trkpt>
      <trkpt lat="44.71943" lon="4.90554">
        <ele>294.8</ele>
        <time>2021-07-10T10:25:13</time>
      </trkpt>
      <trkpt lat="44.71945" lon="4.90557">
        <ele>294.8</ele>
        <time>2021-07-10T10:25:14</time>
      </trkpt>
      <trkpt lat="44.71949" lon="4.9056">
        <ele>294.8</ele>
        <time>2021-07-10T10:25:15</time>
      </trkpt>
      <trkpt lat="44.71952" lon="4.90563">
        <ele>295</ele>
        <time>2021-07-10T10:25:16</time>
      </trkpt>
      <trkpt lat="44.71956" lon="4.90566">
        <ele>295</ele>
        <time>2021-07-10T10:25:17</time>
      </trkpt>
      <trkpt lat="44.71959" lon="4.90568">
        <ele>295</ele>
        <time>2021-07-10T10:25:18</time>
      </trkpt>
      <trkpt lat="44.71965" lon="4.90575">
        <ele>295.2</ele>
        <time>2021-07-10T10:25:19</time>
      </trkpt>
      <trkpt lat="44.71965" lon="4.90575">
        <ele>295.2</ele>
        <time>2021-07-10T10:25:20</time>
      </trkpt>
      <trkpt lat="44.71968" lon="4.90578">
        <ele>295.2</ele>
        <time>2021-07-10T10:25:21</time>
      </trkpt>
      <trkpt lat="44.71971" lon="4.90581">
        <ele>295.2</ele>
        <time>2021-07-10T10:25:22</time>
      </trkpt>
      <trkpt lat="44.71976" lon="4.90585">
        <ele>295.4</ele>
        <time>2021-07-10T10:25:23</time>
      </trkpt>
      <trkpt lat="44.71976" lon="4.90585">
        <ele>295.4</ele>
        <time>2021-07-10T10:25:24</time>
      </trkpt>
      <trkpt lat="44.71982" lon="4.90589">
        <ele>295.6</ele>
        <time>2021-07-10T10:25:25</time>
      </trkpt>
      <trkpt lat="44.71982" lon="4.90589">
        <ele>295.6</ele>
        <time>2021-07-10T10:25:26</time>
      </trkpt>
      <trkpt lat="44.71985" lon="4.90592">
        <ele>295.6</ele>
        <time>2021-07-10T10:25:27</time>
      </trkpt>
      <trkpt lat="44.71989" lon="4.90595">
        <ele>295.6</ele>
        <time>2021-07-10T10:25:28</time>
      </trkpt>
      <trkpt lat="44.71989" lon="4.90595">
        <ele>295.6</ele>
        <time>2021-07-10T10:25:29</time>
      </trkpt>
      <trkpt lat="44.71995" lon="4.90601">
        <ele>295.6</ele>
        <time>2021-07-10T10:25:30</time>
      </trkpt>
      <trkpt lat="44.71999" lon="4.90602">
        <ele>295.6</ele>
        <time>2021-07-10T10:25:31</time>
      </trkpt>
      <trkpt lat="44.72002" lon="4.90605">
        <ele>295.8</ele>
        <time>2021-07-10T10:25:32</time>
      </trkpt>
      <trkpt lat="44.72002" lon="4.90605">
        <ele>295.8</ele>
        <time>2021-07-10T10:25:33</time>
      </trkpt>
      <trkpt lat="44.72008" lon="4.90612">
        <ele>296</ele>
        <time>2021-07-10T10:25:34</time>
      </trkpt>
      <trkpt lat="44.72008" lon="4.90612">
        <ele>296</ele>
        <time>2021-07-10T10:25:35</time>
      </trkpt>
      <trkpt lat="44.72019" lon="4.90622">
        <ele>296</ele>
        <time>2021-07-10T10:25:36</time>
      </trkpt>
      <trkpt lat="44.72019" lon="4.90622">
        <ele>296</ele>
        <time>2021-07-10T10:25:37</time>
      </trkpt>
      <trkpt lat="44.72022" lon="4.90625">
        <ele>296.2</ele>
        <time>2021-07-10T10:25:38</time>
      </trkpt>
      <trkpt lat="44.72028" lon="4.90631">
        <ele>296.4</ele>
        <time>2021-07-10T10:25:39</time>
      </trkpt>
      <trkpt lat="44.72028" lon="4.90631">
        <ele>296.6</ele>
        <time>2021-07-10T10:25:40</time>
      </trkpt>
      <trkpt lat="44.72032" lon="4.90634">
        <ele>296.6</ele>
        <time>2021-07-10T10:25:41</time>
      </trkpt>
      <trkpt lat="44.72035" lon="4.90635">
        <ele>296.8</ele>
        <time>2021-07-10T10:25:42</time>
      </trkpt>
      <trkpt lat="44.72042" lon="4.90642">
        <ele>296.8</ele>
        <time>2021-07-10T10:25:43</time>
      </trkpt>
      <trkpt lat="44.72042" lon="4.90642">
        <ele>296.8</ele>
        <time>2021-07-10T10:25:44</time>
      </trkpt>
      <trkpt lat="44.72045" lon="4.90644">
        <ele>297</ele>
        <time>2021-07-10T10:25:45</time>
      </trkpt>
      <trkpt lat="44.72048" lon="4.90646">
        <ele>297</ele>
        <time>2021-07-10T10:25:46</time>
      </trkpt>
      <trkpt lat="44.72051" lon="4.9065">
        <ele>297.2</ele>
        <time>2021-07-10T10:25:47</time>
      </trkpt>
      <trkpt lat="44.72055" lon="4.90653">
        <ele>297.2</ele>
        <time>2021-07-10T10:25:48</time>
      </trkpt>
      <trkpt lat="44.72058" lon="4.90656">
        <ele>297.2</ele>
        <time>2021-07-10T10:25:49</time>
      </trkpt>
      <trkpt lat="44.72061" lon="4.90658">
        <ele>297.2</ele>
        <time>2021-07-10T10:25:50</time>
      </trkpt>
      <trkpt lat="44.72063" lon="4.90661">
        <ele>297.2</ele>
        <time>2021-07-10T10:25:51</time>
      </trkpt>
      <trkpt lat="44.7207" lon="4.90666">
        <ele>297.2</ele>
        <time>2021-07-10T10:25:52</time>
      </trkpt>
      <trkpt lat="44.7207" lon="4.90666">
        <ele>297.2</ele>
        <time>2021-07-10T10:25:53</time>
      </trkpt>
      <trkpt lat="44.72074" lon="4.90669">
        <ele>297.2</ele>
        <time>2021-07-10T10:25:54</time>
      </trkpt>
      <trkpt lat="44.72078" lon="4.9067">
        <ele>297.2</ele>
        <time>2021-07-10T10:25:55</time>
      </trkpt>
      <trkpt lat="44.72083" lon="4.90671">
        <ele>297.2</ele>
        <time>2021-07-10T10:25:56</time>
      </trkpt>
      <trkpt lat="44.72088" lon="4.90673">
        <ele>297</ele>
        <time>2021-07-10T10:25:57</time>
      </trkpt>
      <trkpt lat="44.72094" lon="4.90674">
        <ele>297</ele>
        <time>2021-07-10T10:25:58</time>
      </trkpt>
      <trkpt lat="44.72101" lon="4.90675">
        <ele>296.8</ele>
        <time>2021-07-10T10:25:59</time>
      </trkpt>
      <trkpt lat="44.72111" lon="4.90677">
        <ele>296.6</ele>
        <time>2021-07-10T10:26:00</time>
      </trkpt>
      <trkpt lat="44.72111" lon="4.90677">
        <ele>296.4</ele>
        <time>2021-07-10T10:26:01</time>
      </trkpt>
      <trkpt lat="44.72122" lon="4.90677">
        <ele>296.2</ele>
        <time>2021-07-10T10:26:02</time>
      </trkpt>
      <trkpt lat="44.72122" lon="4.90677">
        <ele>296</ele>
        <time>2021-07-10T10:26:03</time>
      </trkpt>
      <trkpt lat="44.72129" lon="4.90677">
        <ele>295.6</ele>
        <time>2021-07-10T10:26:04</time>
      </trkpt>
      <trkpt lat="44.72135" lon="4.90676">
        <ele>295.4</ele>
        <time>2021-07-10T10:26:05</time>
      </trkpt>
      <trkpt lat="44.72141" lon="4.90676">
        <ele>295.2</ele>
        <time>2021-07-10T10:26:06</time>
      </trkpt>
      <trkpt lat="44.72147" lon="4.90675">
        <ele>295</ele>
        <time>2021-07-10T10:26:07</time>
      </trkpt>
      <trkpt lat="44.72153" lon="4.90676">
        <ele>295</ele>
        <time>2021-07-10T10:26:08</time>
      </trkpt>
      <trkpt lat="44.72158" lon="4.90677">
        <ele>294.8</ele>
        <time>2021-07-10T10:26:09</time>
      </trkpt>
      <trkpt lat="44.72164" lon="4.90677">
        <ele>294.6</ele>
        <time>2021-07-10T10:26:10</time>
      </trkpt>
      <trkpt lat="44.72169" lon="4.90677">
        <ele>294.4</ele>
        <time>2021-07-10T10:26:11</time>
      </trkpt>
      <trkpt lat="44.72182" lon="4.90679">
        <ele>294.2</ele>
        <time>2021-07-10T10:26:12</time>
      </trkpt>
      <trkpt lat="44.72182" lon="4.90679">
        <ele>294</ele>
        <time>2021-07-10T10:26:13</time>
      </trkpt>
      <trkpt lat="44.72188" lon="4.90679">
        <ele>293.6</ele>
        <time>2021-07-10T10:26:14</time>
      </trkpt>
      <trkpt lat="44.72195" lon="4.9068">
        <ele>293.4</ele>
        <time>2021-07-10T10:26:15</time>
      </trkpt>
      <trkpt lat="44.722" lon="4.90681">
        <ele>293.2</ele>
        <time>2021-07-10T10:26:16</time>
      </trkpt>
      <trkpt lat="44.72205" lon="4.90682">
        <ele>293.2</ele>
        <time>2021-07-10T10:26:17</time>
      </trkpt>
      <trkpt lat="44.72205" lon="4.90682">
        <ele>293.2</ele>
        <time>2021-07-10T10:26:18</time>
      </trkpt>
      <trkpt lat="44.72215" lon="4.90685">
        <ele>293</ele>
        <time>2021-07-10T10:26:19</time>
      </trkpt>
      <trkpt lat="44.72222" lon="4.90687">
        <ele>293</ele>
        <time>2021-07-10T10:26:20</time>
      </trkpt>
      <trkpt lat="44.72222" lon="4.90687">
        <ele>292.8</ele>
        <time>2021-07-10T10:26:21</time>
      </trkpt>
      <trkpt lat="44.72236" lon="4.90689">
        <ele>292.4</ele>
        <time>2021-07-10T10:26:22</time>
      </trkpt>
      <trkpt lat="44.72243" lon="4.90689">
        <ele>292.2</ele>
        <time>2021-07-10T10:26:23</time>
      </trkpt>
      <trkpt lat="44.72248" lon="4.90691">
        <ele>292</ele>
        <time>2021-07-10T10:26:24</time>
      </trkpt>
      <trkpt lat="44.72254" lon="4.90693">
        <ele>292</ele>
        <time>2021-07-10T10:26:25</time>
      </trkpt>
      <trkpt lat="44.72254" lon="4.90693">
        <ele>291.8</ele>
        <time>2021-07-10T10:26:26</time>
      </trkpt>
      <trkpt lat="44.72267" lon="4.90699">
        <ele>291.6</ele>
        <time>2021-07-10T10:26:27</time>
      </trkpt>
      <trkpt lat="44.72275" lon="4.90704">
        <ele>291.2</ele>
        <time>2021-07-10T10:26:28</time>
      </trkpt>
      <trkpt lat="44.72288" lon="4.90714">
        <ele>290.6</ele>
        <time>2021-07-10T10:26:29</time>
      </trkpt>
      <trkpt lat="44.72288" lon="4.90714">
        <ele>290</ele>
        <time>2021-07-10T10:26:30</time>
      </trkpt>
      <trkpt lat="44.72293" lon="4.90721">
        <ele>289.8</ele>
        <time>2021-07-10T10:26:31</time>
      </trkpt>
      <trkpt lat="44.72296" lon="4.90731">
        <ele>289.4</ele>
        <time>2021-07-10T10:26:32</time>
      </trkpt>
      <trkpt lat="44.72301" lon="4.90747">
        <ele>289</ele>
        <time>2021-07-10T10:26:33</time>
      </trkpt>
      <trkpt lat="44.72301" lon="4.90747">
        <ele>288.6</ele>
        <time>2021-07-10T10:26:34</time>
      </trkpt>
      <trkpt lat="44.72303" lon="4.90753">
        <ele>288.2</ele>
        <time>2021-07-10T10:26:35</time>
      </trkpt>
      <trkpt lat="44.72306" lon="4.90759">
        <ele>287.8</ele>
        <time>2021-07-10T10:26:36</time>
      </trkpt>
      <trkpt lat="44.7231" lon="4.90766">
        <ele>287.4</ele>
        <time>2021-07-10T10:26:37</time>
      </trkpt>
      <trkpt lat="44.72314" lon="4.9077">
        <ele>286.8</ele>
        <time>2021-07-10T10:26:38</time>
      </trkpt>
      <trkpt lat="44.72322" lon="4.90773">
        <ele>286.4</ele>
        <time>2021-07-10T10:26:39</time>
      </trkpt>
      <trkpt lat="44.72329" lon="4.90775">
        <ele>286</ele>
        <time>2021-07-10T10:26:40</time>
      </trkpt>
      <trkpt lat="44.72344" lon="4.90776">
        <ele>285.6</ele>
        <time>2021-07-10T10:26:41</time>
      </trkpt>
      <trkpt lat="44.72344" lon="4.90776">
        <ele>285.2</ele>
        <time>2021-07-10T10:26:42</time>
      </trkpt>
      <trkpt lat="44.72352" lon="4.90777">
        <ele>284.6</ele>
        <time>2021-07-10T10:26:43</time>
      </trkpt>
      <trkpt lat="44.72361" lon="4.90778">
        <ele>284.2</ele>
        <time>2021-07-10T10:26:44</time>
      </trkpt>
      <trkpt lat="44.72368" lon="4.9078">
        <ele>283.8</ele>
        <time>2021-07-10T10:26:45</time>
      </trkpt>
      <trkpt lat="44.72378" lon="4.90781">
        <ele>283.2</ele>
        <time>2021-07-10T10:26:46</time>
      </trkpt>
      <trkpt lat="44.72387" lon="4.90781">
        <ele>282.6</ele>
        <time>2021-07-10T10:26:47</time>
      </trkpt>
      <trkpt lat="44.72397" lon="4.90782">
        <ele>282</ele>
        <time>2021-07-10T10:26:48</time>
      </trkpt>
      <trkpt lat="44.72407" lon="4.90784">
        <ele>281.4</ele>
        <time>2021-07-10T10:26:49</time>
      </trkpt>
      <trkpt lat="44.72418" lon="4.90786">
        <ele>280.6</ele>
        <time>2021-07-10T10:26:50</time>
      </trkpt>
      <trkpt lat="44.7243" lon="4.90787">
        <ele>279.8</ele>
        <time>2021-07-10T10:26:51</time>
      </trkpt>
      <trkpt lat="44.72442" lon="4.90788">
        <ele>279</ele>
        <time>2021-07-10T10:26:52</time>
      </trkpt>
      <trkpt lat="44.72442" lon="4.90788">
        <ele>278</ele>
        <time>2021-07-10T10:26:53</time>
      </trkpt>
      <trkpt lat="44.72466" lon="4.9079">
        <ele>277</ele>
        <time>2021-07-10T10:26:54</time>
      </trkpt>
      <trkpt lat="44.72478" lon="4.9079">
        <ele>276</ele>
        <time>2021-07-10T10:26:55</time>
      </trkpt>
      <trkpt lat="44.72491" lon="4.90791">
        <ele>275</ele>
        <time>2021-07-10T10:26:56</time>
      </trkpt>
      <trkpt lat="44.72503" lon="4.90792">
        <ele>274</ele>
        <time>2021-07-10T10:26:57</time>
      </trkpt>
      <trkpt lat="44.72517" lon="4.90793">
        <ele>273.2</ele>
        <time>2021-07-10T10:26:58</time>
      </trkpt>
      <trkpt lat="44.72529" lon="4.90795">
        <ele>272.6</ele>
        <time>2021-07-10T10:26:59</time>
      </trkpt>
      <trkpt lat="44.72542" lon="4.90795">
        <ele>272</ele>
        <time>2021-07-10T10:27:00</time>
      </trkpt>
      <trkpt lat="44.72554" lon="4.90794">
        <ele>271.2</ele>
        <time>2021-07-10T10:27:01</time>
      </trkpt>
      <trkpt lat="44.72567" lon="4.90793">
        <ele>270.4</ele>
        <time>2021-07-10T10:27:02</time>
      </trkpt>
      <trkpt lat="44.72581" lon="4.90792">
        <ele>269.6</ele>
        <time>2021-07-10T10:27:03</time>
      </trkpt>
      <trkpt lat="44.72594" lon="4.90791">
        <ele>268.6</ele>
        <time>2021-07-10T10:27:04</time>
      </trkpt>
      <trkpt lat="44.72619" lon="4.90788">
        <ele>267.6</ele>
        <time>2021-07-10T10:27:05</time>
      </trkpt>
      <trkpt lat="44.72619" lon="4.90788">
        <ele>266.6</ele>
        <time>2021-07-10T10:27:06</time>
      </trkpt>
      <trkpt lat="44.72631" lon="4.90788">
        <ele>265.6</ele>
        <time>2021-07-10T10:27:07</time>
      </trkpt>
      <trkpt lat="44.72643" lon="4.90788">
        <ele>264.6</ele>
        <time>2021-07-10T10:27:08</time>
      </trkpt>
      <trkpt lat="44.72657" lon="4.90786">
        <ele>263.6</ele>
        <time>2021-07-10T10:27:09</time>
      </trkpt>
      <trkpt lat="44.72657" lon="4.90786">
        <ele>262.6</ele>
        <time>2021-07-10T10:27:10</time>
      </trkpt>
      <trkpt lat="44.72684" lon="4.90784">
        <ele>261.4</ele>
        <time>2021-07-10T10:27:11</time>
      </trkpt>
      <trkpt lat="44.72698" lon="4.90784">
        <ele>260.4</ele>
        <time>2021-07-10T10:27:12</time>
      </trkpt>
      <trkpt lat="44.72712" lon="4.90783">
        <ele>259.2</ele>
        <time>2021-07-10T10:27:13</time>
      </trkpt>
      <trkpt lat="44.72726" lon="4.90782">
        <ele>258.2</ele>
        <time>2021-07-10T10:27:14</time>
      </trkpt>
      <trkpt lat="44.72739" lon="4.90782">
        <ele>257</ele>
        <time>2021-07-10T10:27:15</time>
      </trkpt>
      <trkpt lat="44.72752" lon="4.90782">
        <ele>255.8</ele>
        <time>2021-07-10T10:27:16</time>
      </trkpt>
      <trkpt lat="44.72765" lon="4.90783">
        <ele>254.8</ele>
        <time>2021-07-10T10:27:17</time>
      </trkpt>
      <trkpt lat="44.72765" lon="4.90783">
        <ele>253.8</ele>
        <time>2021-07-10T10:27:18</time>
      </trkpt>
      <trkpt lat="44.72789" lon="4.90784">
        <ele>252.8</ele>
        <time>2021-07-10T10:27:19</time>
      </trkpt>
      <trkpt lat="44.728" lon="4.90785">
        <ele>251.8</ele>
        <time>2021-07-10T10:27:20</time>
      </trkpt>
      <trkpt lat="44.72809" lon="4.90787">
        <ele>250.6</ele>
        <time>2021-07-10T10:27:21</time>
      </trkpt>
      <trkpt lat="44.72818" lon="4.90791">
        <ele>249.8</ele>
        <time>2021-07-10T10:27:22</time>
      </trkpt>
      <trkpt lat="44.72826" lon="4.90795">
        <ele>248.8</ele>
        <time>2021-07-10T10:27:23</time>
      </trkpt>
      <trkpt lat="44.72834" lon="4.90799">
        <ele>248</ele>
        <time>2021-07-10T10:27:24</time>
      </trkpt>
      <trkpt lat="44.72834" lon="4.90799">
        <ele>247.2</ele>
        <time>2021-07-10T10:27:25</time>
      </trkpt>
      <trkpt lat="44.72839" lon="4.908">
        <ele>246.6</ele>
        <time>2021-07-10T10:27:26</time>
      </trkpt>
      <trkpt lat="44.7285" lon="4.90799">
        <ele>246.2</ele>
        <time>2021-07-10T10:27:27</time>
      </trkpt>
      <trkpt lat="44.72856" lon="4.90799">
        <ele>245.8</ele>
        <time>2021-07-10T10:27:28</time>
      </trkpt>
      <trkpt lat="44.72861" lon="4.90799">
        <ele>245.8</ele>
        <time>2021-07-10T10:27:29</time>
      </trkpt>
      <trkpt lat="44.72867" lon="4.90798">
        <ele>245.8</ele>
        <time>2021-07-10T10:27:30</time>
      </trkpt>
      <trkpt lat="44.72872" lon="4.90797">
        <ele>245.8</ele>
        <time>2021-07-10T10:27:31</time>
      </trkpt>
      <trkpt lat="44.72877" lon="4.90794">
        <ele>245.8</ele>
        <time>2021-07-10T10:27:32</time>
      </trkpt>
      <trkpt lat="44.72883" lon="4.9079">
        <ele>245.8</ele>
        <time>2021-07-10T10:27:33</time>
      </trkpt>
      <trkpt lat="44.72883" lon="4.9079">
        <ele>245.8</ele>
        <time>2021-07-10T10:27:34</time>
      </trkpt>
      <trkpt lat="44.72895" lon="4.90784">
        <ele>245.6</ele>
        <time>2021-07-10T10:27:35</time>
      </trkpt>
      <trkpt lat="44.72902" lon="4.90781">
        <ele>245.6</ele>
        <time>2021-07-10T10:27:36</time>
      </trkpt>
      <trkpt lat="44.72907" lon="4.90778">
        <ele>245.6</ele>
        <time>2021-07-10T10:27:37</time>
      </trkpt>
      <trkpt lat="44.72913" lon="4.90775">
        <ele>245.4</ele>
        <time>2021-07-10T10:27:38</time>
      </trkpt>
      <trkpt lat="44.72918" lon="4.90772">
        <ele>245.4</ele>
        <time>2021-07-10T10:27:39</time>
      </trkpt>
      <trkpt lat="44.72923" lon="4.90768">
        <ele>245.2</ele>
        <time>2021-07-10T10:27:40</time>
      </trkpt>
      <trkpt lat="44.72929" lon="4.90763">
        <ele>245.2</ele>
        <time>2021-07-10T10:27:41</time>
      </trkpt>
      <trkpt lat="44.72929" lon="4.90763">
        <ele>245.2</ele>
        <time>2021-07-10T10:27:42</time>
      </trkpt>
      <trkpt lat="44.72941" lon="4.90754">
        <ele>245.2</ele>
        <time>2021-07-10T10:27:43</time>
      </trkpt>
      <trkpt lat="44.72941" lon="4.90754">
        <ele>245.2</ele>
        <time>2021-07-10T10:27:44</time>
      </trkpt>
      <trkpt lat="44.72953" lon="4.90746">
        <ele>245.2</ele>
        <time>2021-07-10T10:27:45</time>
      </trkpt>
      <trkpt lat="44.7296" lon="4.90743">
        <ele>245</ele>
        <time>2021-07-10T10:27:46</time>
      </trkpt>
      <trkpt lat="44.72966" lon="4.9074">
        <ele>244.8</ele>
        <time>2021-07-10T10:27:47</time>
      </trkpt>
      <trkpt lat="44.7297" lon="4.90739">
        <ele>244.8</ele>
        <time>2021-07-10T10:27:48</time>
      </trkpt>
      <trkpt lat="44.72975" lon="4.90737">
        <ele>244.6</ele>
        <time>2021-07-10T10:27:49</time>
      </trkpt>
      <trkpt lat="44.7298" lon="4.90736">
        <ele>244.4</ele>
        <time>2021-07-10T10:27:50</time>
      </trkpt>
      <trkpt lat="44.72986" lon="4.90733">
        <ele>244.2</ele>
        <time>2021-07-10T10:27:51</time>
      </trkpt>
      <trkpt lat="44.72991" lon="4.90733">
        <ele>244</ele>
        <time>2021-07-10T10:27:52</time>
      </trkpt>
      <trkpt lat="44.72991" lon="4.90733">
        <ele>243.8</ele>
        <time>2021-07-10T10:27:53</time>
      </trkpt>
      <trkpt lat="44.72991" lon="4.90733">
        <ele>243.6</ele>
        <time>2021-07-10T10:27:54</time>
      </trkpt>
      <trkpt lat="44.73004" lon="4.90736">
        <ele>243.2</ele>
        <time>2021-07-10T10:27:55</time>
      </trkpt>
      <trkpt lat="44.73011" lon="4.90739">
        <ele>243</ele>
        <time>2021-07-10T10:27:56</time>
      </trkpt>
      <trkpt lat="44.73018" lon="4.90737">
        <ele>242.8</ele>
        <time>2021-07-10T10:27:57</time>
      </trkpt>
      <trkpt lat="44.73025" lon="4.90738">
        <ele>242.6</ele>
        <time>2021-07-10T10:27:58</time>
      </trkpt>
      <trkpt lat="44.73025" lon="4.90738">
        <ele>242.4</ele>
        <time>2021-07-10T10:27:59</time>
      </trkpt>
      <trkpt lat="44.73039" lon="4.90735">
        <ele>242.2</ele>
        <time>2021-07-10T10:28:00</time>
      </trkpt>
      <trkpt lat="44.73046" lon="4.90733">
        <ele>241.8</ele>
        <time>2021-07-10T10:28:01</time>
      </trkpt>
      <trkpt lat="44.73053" lon="4.9073">
        <ele>241.6</ele>
        <time>2021-07-10T10:28:02</time>
      </trkpt>
      <trkpt lat="44.73053" lon="4.9073">
        <ele>241.4</ele>
        <time>2021-07-10T10:28:03</time>
      </trkpt>
      <trkpt lat="44.73065" lon="4.90726">
        <ele>241</ele>
        <time>2021-07-10T10:28:04</time>
      </trkpt>
      <trkpt lat="44.73069" lon="4.90724">
        <ele>240.6</ele>
        <time>2021-07-10T10:28:05</time>
      </trkpt>
      <trkpt lat="44.73074" lon="4.90723">
        <ele>240.2</ele>
        <time>2021-07-10T10:28:06</time>
      </trkpt>
      <trkpt lat="44.73074" lon="4.90723">
        <ele>240</ele>
        <time>2021-07-10T10:28:07</time>
      </trkpt>
      <trkpt lat="44.73079" lon="4.90723">
        <ele>239.6</ele>
        <time>2021-07-10T10:28:08</time>
      </trkpt>
      <trkpt lat="44.73087" lon="4.90723">
        <ele>239.4</ele>
        <time>2021-07-10T10:28:09</time>
      </trkpt>
      <trkpt lat="44.73089" lon="4.90724">
        <ele>239.2</ele>
        <time>2021-07-10T10:28:10</time>
      </trkpt>
      <trkpt lat="44.73089" lon="4.90724">
        <ele>238.8</ele>
        <time>2021-07-10T10:28:11</time>
      </trkpt>
      <trkpt lat="44.73091" lon="4.90723">
        <ele>238.6</ele>
        <time>2021-07-10T10:28:12</time>
      </trkpt>
      <trkpt lat="44.73092" lon="4.90722">
        <ele>238.4</ele>
        <time>2021-07-10T10:28:13</time>
      </trkpt>
      <trkpt lat="44.73093" lon="4.90723">
        <ele>238.2</ele>
        <time>2021-07-10T10:28:14</time>
      </trkpt>
      <trkpt lat="44.73093" lon="4.90723">
        <ele>238</ele>
        <time>2021-07-10T10:28:15</time>
      </trkpt>
      <trkpt lat="44.73095" lon="4.90723">
        <ele>238</ele>
        <time>2021-07-10T10:28:16</time>
      </trkpt>
      <trkpt lat="44.73095" lon="4.90723">
        <ele>238</ele>
        <time>2021-07-10T10:28:17</time>
      </trkpt>
      <trkpt lat="44.73096" lon="4.90724">
        <ele>238</ele>
        <time>2021-07-10T10:28:18</time>
      </trkpt>
      <trkpt lat="44.73098" lon="4.90723">
        <ele>237.8</ele>
        <time>2021-07-10T10:28:19</time>
      </trkpt>
      <trkpt lat="44.73098" lon="4.90723">
        <ele>237.8</ele>
        <time>2021-07-10T10:28:20</time>
      </trkpt>
      <trkpt lat="44.73099" lon="4.90722">
        <ele>237.8</ele>
        <time>2021-07-10T10:28:21</time>
      </trkpt>
      <trkpt lat="44.73136" lon="4.90728">
        <ele>234.2</ele>
        <time>2021-07-10T10:31:23</time>
      </trkpt>
      <trkpt lat="44.73144" lon="4.90728">
        <ele>234</ele>
        <time>2021-07-10T10:31:24</time>
      </trkpt>
      <trkpt lat="44.73144" lon="4.90728">
        <ele>234</ele>
        <time>2021-07-10T10:31:25</time>
      </trkpt>
      <trkpt lat="44.73151" lon="4.90728">
        <ele>233.8</ele>
        <time>2021-07-10T10:31:26</time>
      </trkpt>
      <trkpt lat="44.73154" lon="4.9073">
        <ele>233.8</ele>
        <time>2021-07-10T10:31:27</time>
      </trkpt>
      <trkpt lat="44.73157" lon="4.90732">
        <ele>233.8</ele>
        <time>2021-07-10T10:31:28</time>
      </trkpt>
      <trkpt lat="44.73157" lon="4.90732">
        <ele>233.8</ele>
        <time>2021-07-10T10:31:29</time>
      </trkpt>
      <trkpt lat="44.73164" lon="4.90736">
        <ele>233.8</ele>
        <time>2021-07-10T10:31:30</time>
      </trkpt>
      <trkpt lat="44.73167" lon="4.90736">
        <ele>233.6</ele>
        <time>2021-07-10T10:31:31</time>
      </trkpt>
      <trkpt lat="44.73167" lon="4.90736">
        <ele>233.6</ele>
        <time>2021-07-10T10:31:32</time>
      </trkpt>
      <trkpt lat="44.73174" lon="4.90739">
        <ele>233.4</ele>
        <time>2021-07-10T10:31:33</time>
      </trkpt>
      <trkpt lat="44.73174" lon="4.90739">
        <ele>233.2</ele>
        <time>2021-07-10T10:31:34</time>
      </trkpt>
      <trkpt lat="44.73186" lon="4.90737">
        <ele>233.2</ele>
        <time>2021-07-10T10:31:35</time>
      </trkpt>
      <trkpt lat="44.73192" lon="4.90739">
        <ele>233</ele>
        <time>2021-07-10T10:31:36</time>
      </trkpt>
      <trkpt lat="44.73197" lon="4.90735">
        <ele>232.8</ele>
        <time>2021-07-10T10:31:37</time>
      </trkpt>
      <trkpt lat="44.73197" lon="4.90735">
        <ele>232.6</ele>
        <time>2021-07-10T10:31:38</time>
      </trkpt>
      <trkpt lat="44.73202" lon="4.90736">
        <ele>232.2</ele>
        <time>2021-07-10T10:31:39</time>
      </trkpt>
      <trkpt lat="44.73218" lon="4.90738">
        <ele>231.6</ele>
        <time>2021-07-10T10:31:40</time>
      </trkpt>
      <trkpt lat="44.73224" lon="4.90738">
        <ele>231.2</ele>
        <time>2021-07-10T10:31:41</time>
      </trkpt>
      <trkpt lat="44.73224" lon="4.90738">
        <ele>231</ele>
        <time>2021-07-10T10:31:42</time>
      </trkpt>
      <trkpt lat="44.73236" lon="4.90738">
        <ele>230.6</ele>
        <time>2021-07-10T10:31:43</time>
      </trkpt>
      <trkpt lat="44.73236" lon="4.90738">
        <ele>230.4</ele>
        <time>2021-07-10T10:31:44</time>
      </trkpt>
      <trkpt lat="44.73246" lon="4.90734">
        <ele>230.2</ele>
        <time>2021-07-10T10:31:45</time>
      </trkpt>
      <trkpt lat="44.73246" lon="4.90734">
        <ele>230</ele>
        <time>2021-07-10T10:31:46</time>
      </trkpt>
      <trkpt lat="44.73257" lon="4.90727">
        <ele>229.6</ele>
        <time>2021-07-10T10:31:47</time>
      </trkpt>
      <trkpt lat="44.73257" lon="4.90727">
        <ele>229.2</ele>
        <time>2021-07-10T10:31:48</time>
      </trkpt>
      <trkpt lat="44.7327" lon="4.90726">
        <ele>229</ele>
        <time>2021-07-10T10:31:49</time>
      </trkpt>
      <trkpt lat="44.7327" lon="4.90726">
        <ele>228.4</ele>
        <time>2021-07-10T10:31:50</time>
      </trkpt>
      <trkpt lat="44.73278" lon="4.90727">
        <ele>227.8</ele>
        <time>2021-07-10T10:31:51</time>
      </trkpt>
      <trkpt lat="44.73278" lon="4.90727">
        <ele>226.8</ele>
        <time>2021-07-10T10:31:52</time>
      </trkpt>
      <trkpt lat="44.73284" lon="4.90729">
        <ele>226.2</ele>
        <time>2021-07-10T10:31:53</time>
      </trkpt>
      <trkpt lat="44.73284" lon="4.90729">
        <ele>225.6</ele>
        <time>2021-07-10T10:31:54</time>
      </trkpt>
      <trkpt lat="44.73302" lon="4.90734">
        <ele>225.2</ele>
        <time>2021-07-10T10:31:55</time>
      </trkpt>
      <trkpt lat="44.73302" lon="4.90734">
        <ele>224.6</ele>
        <time>2021-07-10T10:31:56</time>
      </trkpt>
      <trkpt lat="44.73316" lon="4.90735">
        <ele>224</ele>
        <time>2021-07-10T10:31:57</time>
      </trkpt>
      <trkpt lat="44.73316" lon="4.90735">
        <ele>223.4</ele>
        <time>2021-07-10T10:31:58</time>
      </trkpt>
      <trkpt lat="44.7333" lon="4.90734">
        <ele>222.6</ele>
        <time>2021-07-10T10:31:59</time>
      </trkpt>
      <trkpt lat="44.73337" lon="4.90734">
        <ele>222</ele>
        <time>2021-07-10T10:32:00</time>
      </trkpt>
      <trkpt lat="44.73337" lon="4.90734">
        <ele>221.4</ele>
        <time>2021-07-10T10:32:01</time>
      </trkpt>
      <trkpt lat="44.7335" lon="4.90736">
        <ele>221</ele>
        <time>2021-07-10T10:32:02</time>
      </trkpt>
      <trkpt lat="44.7335" lon="4.90736">
        <ele>220.6</ele>
        <time>2021-07-10T10:32:03</time>
      </trkpt>
      <trkpt lat="44.73365" lon="4.9074">
        <ele>220</ele>
        <time>2021-07-10T10:32:04</time>
      </trkpt>
      <trkpt lat="44.73365" lon="4.9074">
        <ele>219.4</ele>
        <time>2021-07-10T10:32:05</time>
      </trkpt>
      <trkpt lat="44.73383" lon="4.90745">
        <ele>218.6</ele>
        <time>2021-07-10T10:32:06</time>
      </trkpt>
      <trkpt lat="44.73383" lon="4.90745">
        <ele>218</ele>
        <time>2021-07-10T10:32:07</time>
      </trkpt>
      <trkpt lat="44.73401" lon="4.90748">
        <ele>217.6</ele>
        <time>2021-07-10T10:32:08</time>
      </trkpt>
      <trkpt lat="44.73401" lon="4.90748">
        <ele>217.2</ele>
        <time>2021-07-10T10:32:09</time>
      </trkpt>
      <trkpt lat="44.73415" lon="4.9075">
        <ele>216.6</ele>
        <time>2021-07-10T10:32:10</time>
      </trkpt>
      <trkpt lat="44.73422" lon="4.90752">
        <ele>215.6</ele>
        <time>2021-07-10T10:32:11</time>
      </trkpt>
      <trkpt lat="44.73422" lon="4.90752">
        <ele>215.2</ele>
        <time>2021-07-10T10:32:12</time>
      </trkpt>
      <trkpt lat="44.73434" lon="4.90753">
        <ele>214.4</ele>
        <time>2021-07-10T10:32:13</time>
      </trkpt>
      <trkpt lat="44.73434" lon="4.90753">
        <ele>213.8</ele>
        <time>2021-07-10T10:32:14</time>
      </trkpt>
      <trkpt lat="44.73434" lon="4.90753">
        <ele>213.2</ele>
        <time>2021-07-10T10:32:15</time>
      </trkpt>
      <trkpt lat="44.73451" lon="4.90752">
        <ele>212.4</ele>
        <time>2021-07-10T10:32:16</time>
      </trkpt>
      <trkpt lat="44.73451" lon="4.90752">
        <ele>211.6</ele>
        <time>2021-07-10T10:32:17</time>
      </trkpt>
      <trkpt lat="44.73477" lon="4.90756">
        <ele>211</ele>
        <time>2021-07-10T10:32:18</time>
      </trkpt>
      <trkpt lat="44.73477" lon="4.90756">
        <ele>210.2</ele>
        <time>2021-07-10T10:32:19</time>
      </trkpt>
      <trkpt lat="44.73494" lon="4.90764">
        <ele>209.6</ele>
        <time>2021-07-10T10:32:20</time>
      </trkpt>
      <trkpt lat="44.73494" lon="4.90764">
        <ele>208.8</ele>
        <time>2021-07-10T10:32:21</time>
      </trkpt>
      <trkpt lat="44.73502" lon="4.90767">
        <ele>208.2</ele>
        <time>2021-07-10T10:32:22</time>
      </trkpt>
      <trkpt lat="44.7352" lon="4.90775">
        <ele>207.4</ele>
        <time>2021-07-10T10:32:23</time>
      </trkpt>
      <trkpt lat="44.7353" lon="4.90778">
        <ele>206.6</ele>
        <time>2021-07-10T10:32:24</time>
      </trkpt>
      <trkpt lat="44.7353" lon="4.90778">
        <ele>205.6</ele>
        <time>2021-07-10T10:32:25</time>
      </trkpt>
      <trkpt lat="44.73537" lon="4.90783">
        <ele>204.8</ele>
        <time>2021-07-10T10:32:26</time>
      </trkpt>
      <trkpt lat="44.73543" lon="4.90787">
        <ele>203.8</ele>
        <time>2021-07-10T10:32:27</time>
      </trkpt>
      <trkpt lat="44.73554" lon="4.90795">
        <ele>203</ele>
        <time>2021-07-10T10:32:28</time>
      </trkpt>
      <trkpt lat="44.73554" lon="4.90795">
        <ele>202</ele>
        <time>2021-07-10T10:32:29</time>
      </trkpt>
      <trkpt lat="44.73557" lon="4.90797">
        <ele>201.2</ele>
        <time>2021-07-10T10:32:30</time>
      </trkpt>
      <trkpt lat="44.73559" lon="4.90803">
        <ele>200.6</ele>
        <time>2021-07-10T10:32:31</time>
      </trkpt>
      <trkpt lat="44.73559" lon="4.90803">
        <ele>200.2</ele>
        <time>2021-07-10T10:32:32</time>
      </trkpt>
      <trkpt lat="44.73557" lon="4.90804">
        <ele>200</ele>
        <time>2021-07-10T10:32:33</time>
      </trkpt>
      <trkpt lat="44.73557" lon="4.90804">
        <ele>199.8</ele>
        <time>2021-07-10T10:32:34</time>
      </trkpt>
      <trkpt lat="44.73555" lon="4.90804">
        <ele>199.8</ele>
        <time>2021-07-10T10:32:35</time>
      </trkpt>
      <trkpt lat="44.73555" lon="4.90804">
        <ele>199.6</ele>
        <time>2021-07-10T10:32:36</time>
      </trkpt>
      <trkpt lat="44.73553" lon="4.90804">
        <ele>199.6</ele>
        <time>2021-07-10T10:32:37</time>
      </trkpt>
      <trkpt lat="44.73553" lon="4.90804">
        <ele>199.4</ele>
        <time>2021-07-10T10:32:38</time>
      </trkpt>
      <trkpt lat="44.73554" lon="4.90805">
        <ele>199.4</ele>
        <time>2021-07-10T10:32:39</time>
      </trkpt>
      <trkpt lat="44.73554" lon="4.90805">
        <ele>199.2</ele>
        <time>2021-07-10T10:32:40</time>
      </trkpt>
      <trkpt lat="44.73554" lon="4.90805">
        <ele>199.2</ele>
        <time>2021-07-10T10:32:41</time>
      </trkpt>
      <trkpt lat="44.73554" lon="4.90805">
        <ele>199</ele>
        <time>2021-07-10T10:32:42</time>
      </trkpt>
      <trkpt lat="44.73554" lon="4.90805">
        <ele>199</ele>
        <time>2021-07-10T10:32:43</time>
      </trkpt>
      <trkpt lat="44.73554" lon="4.90803">
        <ele>198.8</ele>
        <time>2021-07-10T10:32:44</time>
      </trkpt>
      <trkpt lat="44.73554" lon="4.90803">
        <ele>198.8</ele>
        <time>2021-07-10T10:32:45</time>
      </trkpt>
      <trkpt lat="44.73554" lon="4.90804">
        <ele>198.8</ele>
        <time>2021-07-10T10:32:46</time>
      </trkpt>
      <trkpt lat="44.73554" lon="4.90804">
        <ele>198.8</ele>
        <time>2021-07-10T10:32:47</time>
      </trkpt>
      <trkpt lat="44.73504" lon="4.90848">
        <ele>197.4</ele>
        <time>2021-07-10T10:33:06</time>
      </trkpt>
      <trkpt lat="44.73504" lon="4.90848">
        <ele>197.4</ele>
        <time>2021-07-10T10:33:07</time>
      </trkpt>
      <trkpt lat="44.73499" lon="4.90852">
        <ele>197.4</ele>
        <time>2021-07-10T10:33:08</time>
      </trkpt>
      <trkpt lat="44.73492" lon="4.90863">
        <ele>197.4</ele>
        <time>2021-07-10T10:33:09</time>
      </trkpt>
      <trkpt lat="44.73488" lon="4.90866">
        <ele>197.4</ele>
        <time>2021-07-10T10:33:10</time>
      </trkpt>
      <trkpt lat="44.73488" lon="4.90866">
        <ele>197.4</ele>
        <time>2021-07-10T10:33:11</time>
      </trkpt>
      <trkpt lat="44.73479" lon="4.90876">
        <ele>197.4</ele>
        <time>2021-07-10T10:33:12</time>
      </trkpt>
      <trkpt lat="44.73479" lon="4.90876">
        <ele>197.4</ele>
        <time>2021-07-10T10:33:13</time>
      </trkpt>
      <trkpt lat="44.73475" lon="4.9088">
        <ele>197.2</ele>
        <time>2021-07-10T10:33:14</time>
      </trkpt>
      <trkpt lat="44.73469" lon="4.90886">
        <ele>197.2</ele>
        <time>2021-07-10T10:33:15</time>
      </trkpt>
      <trkpt lat="44.73465" lon="4.90891">
        <ele>197.2</ele>
        <time>2021-07-10T10:33:16</time>
      </trkpt>
      <trkpt lat="44.73461" lon="4.90897">
        <ele>197.2</ele>
        <time>2021-07-10T10:33:17</time>
      </trkpt>
      <trkpt lat="44.73457" lon="4.90902">
        <ele>197.4</ele>
        <time>2021-07-10T10:33:18</time>
      </trkpt>
      <trkpt lat="44.73453" lon="4.90906">
        <ele>197.4</ele>
        <time>2021-07-10T10:33:19</time>
      </trkpt>
      <trkpt lat="44.73449" lon="4.90911">
        <ele>197.6</ele>
        <time>2021-07-10T10:33:20</time>
      </trkpt>
      <trkpt lat="44.73445" lon="4.90916">
        <ele>197.6</ele>
        <time>2021-07-10T10:33:21</time>
      </trkpt>
      <trkpt lat="44.73436" lon="4.90925">
        <ele>197.6</ele>
        <time>2021-07-10T10:33:22</time>
      </trkpt>
      <trkpt lat="44.73436" lon="4.90925">
        <ele>197.6</ele>
        <time>2021-07-10T10:33:23</time>
      </trkpt>
      <trkpt lat="44.73432" lon="4.90929">
        <ele>197.6</ele>
        <time>2021-07-10T10:33:24</time>
      </trkpt>
      <trkpt lat="44.73428" lon="4.90933">
        <ele>197.6</ele>
        <time>2021-07-10T10:33:25</time>
      </trkpt>
      <trkpt lat="44.73423" lon="4.90937">
        <ele>197.6</ele>
        <time>2021-07-10T10:33:26</time>
      </trkpt>
      <trkpt lat="44.73419" lon="4.90941">
        <ele>197.6</ele>
        <time>2021-07-10T10:33:27</time>
      </trkpt>
      <trkpt lat="44.73414" lon="4.90946">
        <ele>197.8</ele>
        <time>2021-07-10T10:33:28</time>
      </trkpt>
      <trkpt lat="44.73405" lon="4.90957">
        <ele>197.8</ele>
        <time>2021-07-10T10:33:29</time>
      </trkpt>
      <trkpt lat="44.73405" lon="4.90957">
        <ele>198</ele>
        <time>2021-07-10T10:33:30</time>
      </trkpt>
      <trkpt lat="44.734" lon="4.90963">
        <ele>198</ele>
        <time>2021-07-10T10:33:31</time>
      </trkpt>
      <trkpt lat="44.73397" lon="4.90968">
        <ele>198</ele>
        <time>2021-07-10T10:33:32</time>
      </trkpt>
      <trkpt lat="44.73393" lon="4.90973">
        <ele>198</ele>
        <time>2021-07-10T10:33:33</time>
      </trkpt>
      <trkpt lat="44.73389" lon="4.90977">
        <ele>198</ele>
        <time>2021-07-10T10:33:34</time>
      </trkpt>
      <trkpt lat="44.73384" lon="4.90982">
        <ele>198</ele>
        <time>2021-07-10T10:33:35</time>
      </trkpt>
      <trkpt lat="44.7338" lon="4.90985">
        <ele>198.2</ele>
        <time>2021-07-10T10:33:36</time>
      </trkpt>
      <trkpt lat="44.7338" lon="4.90985">
        <ele>198.2</ele>
        <time>2021-07-10T10:33:37</time>
      </trkpt>
      <trkpt lat="44.73373" lon="4.90994">
        <ele>198.4</ele>
        <time>2021-07-10T10:33:38</time>
      </trkpt>
      <trkpt lat="44.73369" lon="4.90998">
        <ele>198.4</ele>
        <time>2021-07-10T10:33:39</time>
      </trkpt>
      <trkpt lat="44.73366" lon="4.91002">
        <ele>198.4</ele>
        <time>2021-07-10T10:33:40</time>
      </trkpt>
      <trkpt lat="44.73363" lon="4.91007">
        <ele>198.2</ele>
        <time>2021-07-10T10:33:41</time>
      </trkpt>
      <trkpt lat="44.73359" lon="4.91012">
        <ele>198</ele>
        <time>2021-07-10T10:33:42</time>
      </trkpt>
      <trkpt lat="44.73355" lon="4.91017">
        <ele>197.8</ele>
        <time>2021-07-10T10:33:43</time>
      </trkpt>
      <trkpt lat="44.73346" lon="4.91027">
        <ele>197.6</ele>
        <time>2021-07-10T10:33:44</time>
      </trkpt>
      <trkpt lat="44.73346" lon="4.91027">
        <ele>197.4</ele>
        <time>2021-07-10T10:33:45</time>
      </trkpt>
      <trkpt lat="44.73342" lon="4.91033">
        <ele>197.2</ele>
        <time>2021-07-10T10:33:46</time>
      </trkpt>
      <trkpt lat="44.73339" lon="4.91039">
        <ele>197.2</ele>
        <time>2021-07-10T10:33:47</time>
      </trkpt>
      <trkpt lat="44.73336" lon="4.91044">
        <ele>197</ele>
        <time>2021-07-10T10:33:48</time>
      </trkpt>
      <trkpt lat="44.73332" lon="4.91049">
        <ele>196.8</ele>
        <time>2021-07-10T10:33:49</time>
      </trkpt>
      <trkpt lat="44.73332" lon="4.91049">
        <ele>196.8</ele>
        <time>2021-07-10T10:33:50</time>
      </trkpt>
      <trkpt lat="44.73322" lon="4.91059">
        <ele>196.6</ele>
        <time>2021-07-10T10:33:51</time>
      </trkpt>
      <trkpt lat="44.73313" lon="4.9107">
        <ele>196.6</ele>
        <time>2021-07-10T10:33:52</time>
      </trkpt>
      <trkpt lat="44.73313" lon="4.9107">
        <ele>196.6</ele>
        <time>2021-07-10T10:33:53</time>
      </trkpt>
      <trkpt lat="44.73309" lon="4.91077">
        <ele>196.6</ele>
        <time>2021-07-10T10:33:54</time>
      </trkpt>
      <trkpt lat="44.73307" lon="4.91084">
        <ele>196.6</ele>
        <time>2021-07-10T10:33:55</time>
      </trkpt>
      <trkpt lat="44.73307" lon="4.91084">
        <ele>196.6</ele>
        <time>2021-07-10T10:33:56</time>
      </trkpt>
      <trkpt lat="44.73303" lon="4.91101">
        <ele>196.6</ele>
        <time>2021-07-10T10:33:57</time>
      </trkpt>
      <trkpt lat="44.73301" lon="4.9111">
        <ele>196.6</ele>
        <time>2021-07-10T10:33:58</time>
      </trkpt>
      <trkpt lat="44.733" lon="4.91118">
        <ele>196.6</ele>
        <time>2021-07-10T10:33:59</time>
      </trkpt>
      <trkpt lat="44.73299" lon="4.91127">
        <ele>196.6</ele>
        <time>2021-07-10T10:34:00</time>
      </trkpt>
      <trkpt lat="44.73298" lon="4.91135">
        <ele>196.4</ele>
        <time>2021-07-10T10:34:01</time>
      </trkpt>
      <trkpt lat="44.73296" lon="4.91144">
        <ele>196.2</ele>
        <time>2021-07-10T10:34:02</time>
      </trkpt>
      <trkpt lat="44.73294" lon="4.91152">
        <ele>196.2</ele>
        <time>2021-07-10T10:34:03</time>
      </trkpt>
      <trkpt lat="44.73292" lon="4.91162">
        <ele>196</ele>
        <time>2021-07-10T10:34:04</time>
      </trkpt>
      <trkpt lat="44.73291" lon="4.91172">
        <ele>195.8</ele>
        <time>2021-07-10T10:34:05</time>
      </trkpt>
      <trkpt lat="44.73289" lon="4.91181">
        <ele>195.8</ele>
        <time>2021-07-10T10:34:06</time>
      </trkpt>
      <trkpt lat="44.73288" lon="4.91191">
        <ele>195.6</ele>
        <time>2021-07-10T10:34:07</time>
      </trkpt>
      <trkpt lat="44.73286" lon="4.91201">
        <ele>195.6</ele>
        <time>2021-07-10T10:34:08</time>
      </trkpt>
      <trkpt lat="44.73283" lon="4.91218">
        <ele>195.4</ele>
        <time>2021-07-10T10:34:09</time>
      </trkpt>
      <trkpt lat="44.73283" lon="4.91218">
        <ele>195.4</ele>
        <time>2021-07-10T10:34:10</time>
      </trkpt>
      <trkpt lat="44.73282" lon="4.91227">
        <ele>195.4</ele>
        <time>2021-07-10T10:34:11</time>
      </trkpt>
      <trkpt lat="44.73281" lon="4.91237">
        <ele>195.6</ele>
        <time>2021-07-10T10:34:12</time>
      </trkpt>
      <trkpt lat="44.7328" lon="4.91246">
        <ele>195.6</ele>
        <time>2021-07-10T10:34:13</time>
      </trkpt>
      <trkpt lat="44.73278" lon="4.91255">
        <ele>195.6</ele>
        <time>2021-07-10T10:34:14</time>
      </trkpt>
      <trkpt lat="44.73277" lon="4.91264">
        <ele>195.4</ele>
        <time>2021-07-10T10:34:15</time>
      </trkpt>
      <trkpt lat="44.73277" lon="4.91273">
        <ele>195.6</ele>
        <time>2021-07-10T10:34:16</time>
      </trkpt>
      <trkpt lat="44.73275" lon="4.91282">
        <ele>195.4</ele>
        <time>2021-07-10T10:34:17</time>
      </trkpt>
      <trkpt lat="44.73274" lon="4.91291">
        <ele>195.4</ele>
        <time>2021-07-10T10:34:18</time>
      </trkpt>
      <trkpt lat="44.73274" lon="4.91298">
        <ele>195.6</ele>
        <time>2021-07-10T10:34:19</time>
      </trkpt>
      <trkpt lat="44.73273" lon="4.91304">
        <ele>195.6</ele>
        <time>2021-07-10T10:34:20</time>
      </trkpt>
      <trkpt lat="44.73274" lon="4.9131">
        <ele>195.6</ele>
        <time>2021-07-10T10:34:21</time>
      </trkpt>
      <trkpt lat="44.73275" lon="4.91313">
        <ele>195.8</ele>
        <time>2021-07-10T10:34:22</time>
      </trkpt>
      <trkpt lat="44.73277" lon="4.91323">
        <ele>195.8</ele>
        <time>2021-07-10T10:34:23</time>
      </trkpt>
      <trkpt lat="44.73277" lon="4.91323">
        <ele>195.8</ele>
        <time>2021-07-10T10:34:24</time>
      </trkpt>
      <trkpt lat="44.73278" lon="4.9133">
        <ele>195.6</ele>
        <time>2021-07-10T10:34:25</time>
      </trkpt>
      <trkpt lat="44.73277" lon="4.91336">
        <ele>195.4</ele>
        <time>2021-07-10T10:34:26</time>
      </trkpt>
      <trkpt lat="44.73275" lon="4.91343">
        <ele>195.4</ele>
        <time>2021-07-10T10:34:27</time>
      </trkpt>
      <trkpt lat="44.73273" lon="4.9135">
        <ele>195.4</ele>
        <time>2021-07-10T10:34:28</time>
      </trkpt>
      <trkpt lat="44.7327" lon="4.91357">
        <ele>195.2</ele>
        <time>2021-07-10T10:34:29</time>
      </trkpt>
      <trkpt lat="44.73267" lon="4.91364">
        <ele>195</ele>
        <time>2021-07-10T10:34:30</time>
      </trkpt>
      <trkpt lat="44.73264" lon="4.91371">
        <ele>194.8</ele>
        <time>2021-07-10T10:34:31</time>
      </trkpt>
      <trkpt lat="44.73262" lon="4.91378">
        <ele>194.8</ele>
        <time>2021-07-10T10:34:32</time>
      </trkpt>
      <trkpt lat="44.73259" lon="4.91385">
        <ele>194.8</ele>
        <time>2021-07-10T10:34:33</time>
      </trkpt>
      <trkpt lat="44.73256" lon="4.91392">
        <ele>194.6</ele>
        <time>2021-07-10T10:34:34</time>
      </trkpt>
      <trkpt lat="44.73253" lon="4.91398">
        <ele>194.4</ele>
        <time>2021-07-10T10:34:35</time>
      </trkpt>
      <trkpt lat="44.73249" lon="4.91404">
        <ele>194.2</ele>
        <time>2021-07-10T10:34:36</time>
      </trkpt>
      <trkpt lat="44.73246" lon="4.91411">
        <ele>194.2</ele>
        <time>2021-07-10T10:34:37</time>
      </trkpt>
      <trkpt lat="44.73243" lon="4.91418">
        <ele>194.2</ele>
        <time>2021-07-10T10:34:38</time>
      </trkpt>
      <trkpt lat="44.73239" lon="4.91425">
        <ele>194</ele>
        <time>2021-07-10T10:34:39</time>
      </trkpt>
      <trkpt lat="44.73235" lon="4.91432">
        <ele>193.8</ele>
        <time>2021-07-10T10:34:40</time>
      </trkpt>
      <trkpt lat="44.73231" lon="4.91439">
        <ele>193.6</ele>
        <time>2021-07-10T10:34:41</time>
      </trkpt>
      <trkpt lat="44.73227" lon="4.91448">
        <ele>193.6</ele>
        <time>2021-07-10T10:34:42</time>
      </trkpt>
      <trkpt lat="44.73223" lon="4.91456">
        <ele>193.4</ele>
        <time>2021-07-10T10:34:43</time>
      </trkpt>
      <trkpt lat="44.7322" lon="4.91466">
        <ele>193.4</ele>
        <time>2021-07-10T10:34:44</time>
      </trkpt>
      <trkpt lat="44.73217" lon="4.91477">
        <ele>193.2</ele>
        <time>2021-07-10T10:34:45</time>
      </trkpt>
      <trkpt lat="44.73214" lon="4.91486">
        <ele>193</ele>
        <time>2021-07-10T10:34:46</time>
      </trkpt>
      <trkpt lat="44.73211" lon="4.91498">
        <ele>192.4</ele>
        <time>2021-07-10T10:34:47</time>
      </trkpt>
      <trkpt lat="44.73208" lon="4.91509">
        <ele>192</ele>
        <time>2021-07-10T10:34:48</time>
      </trkpt>
      <trkpt lat="44.73205" lon="4.91521">
        <ele>191.6</ele>
        <time>2021-07-10T10:34:49</time>
      </trkpt>
      <trkpt lat="44.73202" lon="4.91533">
        <ele>191.2</ele>
        <time>2021-07-10T10:34:50</time>
      </trkpt>
      <trkpt lat="44.73197" lon="4.91544">
        <ele>190.4</ele>
        <time>2021-07-10T10:34:51</time>
      </trkpt>
      <trkpt lat="44.73192" lon="4.91556">
        <ele>190</ele>
        <time>2021-07-10T10:34:52</time>
      </trkpt>
      <trkpt lat="44.73186" lon="4.91569">
        <ele>189.4</ele>
        <time>2021-07-10T10:34:53</time>
      </trkpt>
      <trkpt lat="44.73182" lon="4.91581">
        <ele>189</ele>
        <time>2021-07-10T10:34:54</time>
      </trkpt>
      <trkpt lat="44.73177" lon="4.91595">
        <ele>188.2</ele>
        <time>2021-07-10T10:34:55</time>
      </trkpt>
      <trkpt lat="44.73174" lon="4.91609">
        <ele>187.6</ele>
        <time>2021-07-10T10:34:56</time>
      </trkpt>
      <trkpt lat="44.73173" lon="4.91638">
        <ele>186.8</ele>
        <time>2021-07-10T10:34:57</time>
      </trkpt>
      <trkpt lat="44.73173" lon="4.91638">
        <ele>186</ele>
        <time>2021-07-10T10:34:58</time>
      </trkpt>
      <trkpt lat="44.73175" lon="4.91653">
        <ele>185</ele>
        <time>2021-07-10T10:34:59</time>
      </trkpt>
      <trkpt lat="44.73181" lon="4.91668">
        <ele>184</ele>
        <time>2021-07-10T10:35:00</time>
      </trkpt>
      <trkpt lat="44.73187" lon="4.91682">
        <ele>183</ele>
        <time>2021-07-10T10:35:01</time>
      </trkpt>
      <trkpt lat="44.73191" lon="4.91697">
        <ele>182</ele>
        <time>2021-07-10T10:35:02</time>
      </trkpt>
      <trkpt lat="44.73192" lon="4.91713">
        <ele>180.8</ele>
        <time>2021-07-10T10:35:03</time>
      </trkpt>
      <trkpt lat="44.73191" lon="4.91727">
        <ele>179.8</ele>
        <time>2021-07-10T10:35:04</time>
      </trkpt>
      <trkpt lat="44.73186" lon="4.91741">
        <ele>178.8</ele>
        <time>2021-07-10T10:35:05</time>
      </trkpt>
      <trkpt lat="44.73181" lon="4.91755">
        <ele>177.8</ele>
        <time>2021-07-10T10:35:06</time>
      </trkpt>
      <trkpt lat="44.73176" lon="4.91769">
        <ele>177</ele>
        <time>2021-07-10T10:35:07</time>
      </trkpt>
      <trkpt lat="44.73171" lon="4.91783">
        <ele>176.2</ele>
        <time>2021-07-10T10:35:08</time>
      </trkpt>
      <trkpt lat="44.73166" lon="4.91796">
        <ele>175.4</ele>
        <time>2021-07-10T10:35:09</time>
      </trkpt>
      <trkpt lat="44.73161" lon="4.9181">
        <ele>174.8</ele>
        <time>2021-07-10T10:35:10</time>
      </trkpt>
      <trkpt lat="44.73158" lon="4.91824">
        <ele>174.4</ele>
        <time>2021-07-10T10:35:11</time>
      </trkpt>
      <trkpt lat="44.73156" lon="4.9184">
        <ele>173.8</ele>
        <time>2021-07-10T10:35:12</time>
      </trkpt>
      <trkpt lat="44.73155" lon="4.91853">
        <ele>173.4</ele>
        <time>2021-07-10T10:35:13</time>
      </trkpt>
      <trkpt lat="44.73154" lon="4.91866">
        <ele>172.8</ele>
        <time>2021-07-10T10:35:14</time>
      </trkpt>
      <trkpt lat="44.73152" lon="4.9188">
        <ele>172.4</ele>
        <time>2021-07-10T10:35:15</time>
      </trkpt>
      <trkpt lat="44.73152" lon="4.91892">
        <ele>171.8</ele>
        <time>2021-07-10T10:35:16</time>
      </trkpt>
      <trkpt lat="44.73152" lon="4.91903">
        <ele>171.2</ele>
        <time>2021-07-10T10:35:17</time>
      </trkpt>
      <trkpt lat="44.73152" lon="4.91913">
        <ele>170.6</ele>
        <time>2021-07-10T10:35:18</time>
      </trkpt>
      <trkpt lat="44.73152" lon="4.91919">
        <ele>170</ele>
        <time>2021-07-10T10:35:19</time>
      </trkpt>
      <trkpt lat="44.73153" lon="4.91923">
        <ele>169.6</ele>
        <time>2021-07-10T10:35:20</time>
      </trkpt>
      <trkpt lat="44.73155" lon="4.91926">
        <ele>169.2</ele>
        <time>2021-07-10T10:35:21</time>
      </trkpt>
      <trkpt lat="44.73158" lon="4.91927">
        <ele>168.8</ele>
        <time>2021-07-10T10:35:22</time>
      </trkpt>
      <trkpt lat="44.73162" lon="4.91927">
        <ele>168.6</ele>
        <time>2021-07-10T10:35:23</time>
      </trkpt>
      <trkpt lat="44.73165" lon="4.91925">
        <ele>168.4</ele>
        <time>2021-07-10T10:35:24</time>
      </trkpt>
      <trkpt lat="44.73168" lon="4.91926">
        <ele>168.4</ele>
        <time>2021-07-10T10:35:25</time>
      </trkpt>
      <trkpt lat="44.73172" lon="4.91927">
        <ele>168.2</ele>
        <time>2021-07-10T10:35:26</time>
      </trkpt>
      <trkpt lat="44.73175" lon="4.91928">
        <ele>168.2</ele>
        <time>2021-07-10T10:35:27</time>
      </trkpt>
      <trkpt lat="44.7318" lon="4.91929">
        <ele>168.2</ele>
        <time>2021-07-10T10:35:28</time>
      </trkpt>
      <trkpt lat="44.73185" lon="4.9193">
        <ele>168.2</ele>
        <time>2021-07-10T10:35:29</time>
      </trkpt>
      <trkpt lat="44.73188" lon="4.91933">
        <ele>168.2</ele>
        <time>2021-07-10T10:35:30</time>
      </trkpt>
      <trkpt lat="44.73193" lon="4.91937">
        <ele>168.2</ele>
        <time>2021-07-10T10:35:31</time>
      </trkpt>
      <trkpt lat="44.73197" lon="4.9194">
        <ele>168.2</ele>
        <time>2021-07-10T10:35:32</time>
      </trkpt>
      <trkpt lat="44.73202" lon="4.91942">
        <ele>168</ele>
        <time>2021-07-10T10:35:33</time>
      </trkpt>
      <trkpt lat="44.73207" lon="4.91944">
        <ele>168</ele>
        <time>2021-07-10T10:35:34</time>
      </trkpt>
      <trkpt lat="44.73212" lon="4.91946">
        <ele>168</ele>
        <time>2021-07-10T10:35:35</time>
      </trkpt>
      <trkpt lat="44.73217" lon="4.91948">
        <ele>167.4</ele>
        <time>2021-07-10T10:35:36</time>
      </trkpt>
      <trkpt lat="44.73221" lon="4.91949">
        <ele>167.4</ele>
        <time>2021-07-10T10:35:37</time>
      </trkpt>
      <trkpt lat="44.73226" lon="4.91952">
        <ele>167.4</ele>
        <time>2021-07-10T10:35:38</time>
      </trkpt>
      <trkpt lat="44.73232" lon="4.91954">
        <ele>167.4</ele>
        <time>2021-07-10T10:35:39</time>
      </trkpt>
      <trkpt lat="44.73237" lon="4.91955">
        <ele>167.8</ele>
        <time>2021-07-10T10:35:40</time>
      </trkpt>
      <trkpt lat="44.73241" lon="4.91956">
        <ele>167.8</ele>
        <time>2021-07-10T10:35:41</time>
      </trkpt>
      <trkpt lat="44.73246" lon="4.91957">
        <ele>167.6</ele>
        <time>2021-07-10T10:35:42</time>
      </trkpt>
      <trkpt lat="44.73251" lon="4.9196">
        <ele>167.6</ele>
        <time>2021-07-10T10:35:43</time>
      </trkpt>
      <trkpt lat="44.73256" lon="4.91961">
        <ele>167.6</ele>
        <time>2021-07-10T10:35:44</time>
      </trkpt>
      <trkpt lat="44.73261" lon="4.91963">
        <ele>167.4</ele>
        <time>2021-07-10T10:35:45</time>
      </trkpt>
      <trkpt lat="44.73265" lon="4.91964">
        <ele>167.4</ele>
        <time>2021-07-10T10:35:46</time>
      </trkpt>
      <trkpt lat="44.7327" lon="4.91965">
        <ele>167.4</ele>
        <time>2021-07-10T10:35:47</time>
      </trkpt>
      <trkpt lat="44.73275" lon="4.91967">
        <ele>167.4</ele>
        <time>2021-07-10T10:35:48</time>
      </trkpt>
      <trkpt lat="44.73281" lon="4.91968">
        <ele>167.2</ele>
        <time>2021-07-10T10:35:49</time>
      </trkpt>
      <trkpt lat="44.73286" lon="4.91968">
        <ele>167.2</ele>
        <time>2021-07-10T10:35:50</time>
      </trkpt>
      <trkpt lat="44.73291" lon="4.91968">
        <ele>167.2</ele>
        <time>2021-07-10T10:35:51</time>
      </trkpt>
      <trkpt lat="44.73296" lon="4.91969">
        <ele>167.2</ele>
        <time>2021-07-10T10:35:52</time>
      </trkpt>
      <trkpt lat="44.73306" lon="4.91967">
        <ele>167.2</ele>
        <time>2021-07-10T10:35:53</time>
      </trkpt>
      <trkpt lat="44.73306" lon="4.91967">
        <ele>167.2</ele>
        <time>2021-07-10T10:35:54</time>
      </trkpt>
      <trkpt lat="44.7331" lon="4.91967">
        <ele>167.2</ele>
        <time>2021-07-10T10:35:55</time>
      </trkpt>
      <trkpt lat="44.73315" lon="4.91968">
        <ele>167.2</ele>
        <time>2021-07-10T10:35:56</time>
      </trkpt>
      <trkpt lat="44.7332" lon="4.91971">
        <ele>167.2</ele>
        <time>2021-07-10T10:35:57</time>
      </trkpt>
      <trkpt lat="44.73323" lon="4.91977">
        <ele>167.4</ele>
        <time>2021-07-10T10:35:58</time>
      </trkpt>
      <trkpt lat="44.73326" lon="4.91983">
        <ele>167.6</ele>
        <time>2021-07-10T10:35:59</time>
      </trkpt>
      <trkpt lat="44.73326" lon="4.91989">
        <ele>167.8</ele>
        <time>2021-07-10T10:36:00</time>
      </trkpt>
      <trkpt lat="44.73325" lon="4.91996">
        <ele>168.2</ele>
        <time>2021-07-10T10:36:01</time>
      </trkpt>
      <trkpt lat="44.73325" lon="4.92004">
        <ele>168.8</ele>
        <time>2021-07-10T10:36:02</time>
      </trkpt>
      <trkpt lat="44.73325" lon="4.9201">
        <ele>169.2</ele>
        <time>2021-07-10T10:36:03</time>
      </trkpt>
      <trkpt lat="44.73324" lon="4.92014">
        <ele>169.6</ele>
        <time>2021-07-10T10:36:04</time>
      </trkpt>
      <trkpt lat="44.73324" lon="4.92017">
        <ele>169.6</ele>
        <time>2021-07-10T10:36:05</time>
      </trkpt>
      <trkpt lat="44.73322" lon="4.92019">
        <ele>169.8</ele>
        <time>2021-07-10T10:36:06</time>
      </trkpt>
      <trkpt lat="44.7332" lon="4.92021">
        <ele>170</ele>
        <time>2021-07-10T10:36:07</time>
      </trkpt>
      <trkpt lat="44.7332" lon="4.92023">
        <ele>170.2</ele>
        <time>2021-07-10T10:36:08</time>
      </trkpt>
      <trkpt lat="44.73317" lon="4.92025">
        <ele>170.4</ele>
        <time>2021-07-10T10:36:09</time>
      </trkpt>
      <trkpt lat="44.73315" lon="4.92025">
        <ele>170.6</ele>
        <time>2021-07-10T10:36:10</time>
      </trkpt>
      <trkpt lat="44.73312" lon="4.92025">
        <ele>170.8</ele>
        <time>2021-07-10T10:36:11</time>
      </trkpt>
      <trkpt lat="44.7331" lon="4.92026">
        <ele>171</ele>
        <time>2021-07-10T10:36:12</time>
      </trkpt>
      <trkpt lat="44.73311" lon="4.92026">
        <ele>171.2</ele>
        <time>2021-07-10T10:36:13</time>
      </trkpt>
      <trkpt lat="44.7331" lon="4.92026">
        <ele>171.4</ele>
        <time>2021-07-10T10:36:14</time>
      </trkpt>
      <trkpt lat="44.73309" lon="4.92026">
        <ele>171.4</ele>
        <time>2021-07-10T10:36:15</time>
      </trkpt>
      <trkpt lat="44.73309" lon="4.92025">
        <ele>171.4</ele>
        <time>2021-07-10T10:36:16</time>
      </trkpt>
      <trkpt lat="44.73308" lon="4.92024">
        <ele>171.4</ele>
        <time>2021-07-10T10:36:17</time>
      </trkpt>
      <trkpt lat="44.73308" lon="4.92023">
        <ele>171.4</ele>
        <time>2021-07-10T10:36:18</time>
      </trkpt>
      <trkpt lat="44.73306" lon="4.92024">
        <ele>171.2</ele>
        <time>2021-07-10T10:36:19</time>
      </trkpt>
      <trkpt lat="44.73306" lon="4.92024">
        <ele>171.2</ele>
        <time>2021-07-10T10:36:20</time>
      </trkpt>
      <trkpt lat="44.73305" lon="4.92026">
        <ele>171.2</ele>
        <time>2021-07-10T10:36:21</time>
      </trkpt>
      <trkpt lat="44.73279" lon="4.92056">
        <ele>171.8</ele>
        <time>2021-07-10T10:37:10</time>
      </trkpt>
      <trkpt lat="44.73277" lon="4.92059">
        <ele>172</ele>
        <time>2021-07-10T10:37:11</time>
      </trkpt>
      <trkpt lat="44.73276" lon="4.92063">
        <ele>172.2</ele>
        <time>2021-07-10T10:37:12</time>
      </trkpt>
      <trkpt lat="44.73276" lon="4.92065">
        <ele>172.2</ele>
        <time>2021-07-10T10:37:13</time>
      </trkpt>
      <trkpt lat="44.73276" lon="4.92069">
        <ele>172.2</ele>
        <time>2021-07-10T10:37:14</time>
      </trkpt>
      <trkpt lat="44.73276" lon="4.92073">
        <ele>172.2</ele>
        <time>2021-07-10T10:37:15</time>
      </trkpt>
      <trkpt lat="44.73282" lon="4.92081">
        <ele>172</ele>
        <time>2021-07-10T10:37:16</time>
      </trkpt>
      <trkpt lat="44.73282" lon="4.92081">
        <ele>171.8</ele>
        <time>2021-07-10T10:37:17</time>
      </trkpt>
      <trkpt lat="44.73285" lon="4.92081">
        <ele>171.6</ele>
        <time>2021-07-10T10:37:18</time>
      </trkpt>
      <trkpt lat="44.7329" lon="4.92083">
        <ele>171.4</ele>
        <time>2021-07-10T10:37:19</time>
      </trkpt>
      <trkpt lat="44.73295" lon="4.92084">
        <ele>171.4</ele>
        <time>2021-07-10T10:37:20</time>
      </trkpt>
      <trkpt lat="44.733" lon="4.92083">
        <ele>171.4</ele>
        <time>2021-07-10T10:37:21</time>
      </trkpt>
      <trkpt lat="44.73306" lon="4.92084">
        <ele>171.4</ele>
        <time>2021-07-10T10:37:22</time>
      </trkpt>
      <trkpt lat="44.73309" lon="4.92083">
        <ele>171.2</ele>
        <time>2021-07-10T10:37:23</time>
      </trkpt>
      <trkpt lat="44.73313" lon="4.92083">
        <ele>171.2</ele>
        <time>2021-07-10T10:37:24</time>
      </trkpt>
      <trkpt lat="44.73317" lon="4.92083">
        <ele>171</ele>
        <time>2021-07-10T10:37:25</time>
      </trkpt>
      <trkpt lat="44.73322" lon="4.92083">
        <ele>170.8</ele>
        <time>2021-07-10T10:37:26</time>
      </trkpt>
      <trkpt lat="44.73327" lon="4.92083">
        <ele>170.8</ele>
        <time>2021-07-10T10:37:27</time>
      </trkpt>
      <trkpt lat="44.73332" lon="4.92084">
        <ele>170.6</ele>
        <time>2021-07-10T10:37:28</time>
      </trkpt>
      <trkpt lat="44.73338" lon="4.92085">
        <ele>170.6</ele>
        <time>2021-07-10T10:37:29</time>
      </trkpt>
      <trkpt lat="44.73343" lon="4.92084">
        <ele>170.4</ele>
        <time>2021-07-10T10:37:30</time>
      </trkpt>
      <trkpt lat="44.73349" lon="4.92084">
        <ele>170.2</ele>
        <time>2021-07-10T10:37:31</time>
      </trkpt>
      <trkpt lat="44.73361" lon="4.92084">
        <ele>170.2</ele>
        <time>2021-07-10T10:37:32</time>
      </trkpt>
      <trkpt lat="44.73361" lon="4.92084">
        <ele>170.6</ele>
        <time>2021-07-10T10:37:33</time>
      </trkpt>
      <trkpt lat="44.73361" lon="4.92084">
        <ele>168.6</ele>
        <time>2021-07-10T10:37:34</time>
      </trkpt>
      <trkpt lat="44.73374" lon="4.92087">
        <ele>171</ele>
        <time>2021-07-10T10:37:35</time>
      </trkpt>
      <trkpt lat="44.7338" lon="4.92088">
        <ele>171.4</ele>
        <time>2021-07-10T10:37:36</time>
      </trkpt>
      <trkpt lat="44.73386" lon="4.92088">
        <ele>171.4</ele>
        <time>2021-07-10T10:37:37</time>
      </trkpt>
      <trkpt lat="44.73392" lon="4.9209">
        <ele>171.2</ele>
        <time>2021-07-10T10:37:38</time>
      </trkpt>
      <trkpt lat="44.73397" lon="4.92089">
        <ele>171.2</ele>
        <time>2021-07-10T10:37:39</time>
      </trkpt>
      <trkpt lat="44.73404" lon="4.9209">
        <ele>171</ele>
        <time>2021-07-10T10:37:40</time>
      </trkpt>
      <trkpt lat="44.73411" lon="4.92089">
        <ele>170.6</ele>
        <time>2021-07-10T10:37:41</time>
      </trkpt>
      <trkpt lat="44.73418" lon="4.92088">
        <ele>170.4</ele>
        <time>2021-07-10T10:37:42</time>
      </trkpt>
      <trkpt lat="44.73424" lon="4.92087">
        <ele>170.2</ele>
        <time>2021-07-10T10:37:43</time>
      </trkpt>
      <trkpt lat="44.73431" lon="4.92087">
        <ele>170.2</ele>
        <time>2021-07-10T10:37:44</time>
      </trkpt>
      <trkpt lat="44.73435" lon="4.92084">
        <ele>170</ele>
        <time>2021-07-10T10:37:45</time>
      </trkpt>
      <trkpt lat="44.73443" lon="4.92084">
        <ele>170</ele>
        <time>2021-07-10T10:37:46</time>
      </trkpt>
      <trkpt lat="44.73448" lon="4.92081">
        <ele>170</ele>
        <time>2021-07-10T10:37:47</time>
      </trkpt>
      <trkpt lat="44.73454" lon="4.9208">
        <ele>170</ele>
        <time>2021-07-10T10:37:48</time>
      </trkpt>
      <trkpt lat="44.7346" lon="4.92079">
        <ele>169.8</ele>
        <time>2021-07-10T10:37:49</time>
      </trkpt>
      <trkpt lat="44.73467" lon="4.92078">
        <ele>170</ele>
        <time>2021-07-10T10:37:50</time>
      </trkpt>
      <trkpt lat="44.73473" lon="4.92076">
        <ele>170</ele>
        <time>2021-07-10T10:37:51</time>
      </trkpt>
      <trkpt lat="44.73478" lon="4.92076">
        <ele>170</ele>
        <time>2021-07-10T10:37:52</time>
      </trkpt>
      <trkpt lat="44.73483" lon="4.92075">
        <ele>170</ele>
        <time>2021-07-10T10:37:53</time>
      </trkpt>
      <trkpt lat="44.73486" lon="4.92072">
        <ele>170.2</ele>
        <time>2021-07-10T10:37:54</time>
      </trkpt>
      <trkpt lat="44.7349" lon="4.92071">
        <ele>170.4</ele>
        <time>2021-07-10T10:37:55</time>
      </trkpt>
      <trkpt lat="44.73503" lon="4.92084">
        <ele>170.8</ele>
        <time>2021-07-10T10:37:56</time>
      </trkpt>
      <trkpt lat="44.73503" lon="4.92084">
        <ele>171.6</ele>
        <time>2021-07-10T10:37:57</time>
      </trkpt>
      <trkpt lat="44.73503" lon="4.92084">
        <ele>172.4</ele>
        <time>2021-07-10T10:37:58</time>
      </trkpt>
      <trkpt lat="44.73513" lon="4.92093">
        <ele>172.6</ele>
        <time>2021-07-10T10:37:59</time>
      </trkpt>
      <trkpt lat="44.73513" lon="4.92093">
        <ele>172.4</ele>
        <time>2021-07-10T10:38:00</time>
      </trkpt>
      <trkpt lat="44.73513" lon="4.92093">
        <ele>172.4</ele>
        <time>2021-07-10T10:38:01</time>
      </trkpt>
      <trkpt lat="44.73516" lon="4.92096">
        <ele>172.4</ele>
        <time>2021-07-10T10:38:02</time>
      </trkpt>
      <trkpt lat="44.73518" lon="4.92099">
        <ele>172.2</ele>
        <time>2021-07-10T10:38:03</time>
      </trkpt>
      <trkpt lat="44.73524" lon="4.92113">
        <ele>172.2</ele>
        <time>2021-07-10T10:38:04</time>
      </trkpt>
      <trkpt lat="44.73524" lon="4.92113">
        <ele>172.2</ele>
        <time>2021-07-10T10:38:05</time>
      </trkpt>
      <trkpt lat="44.73524" lon="4.92113">
        <ele>172.4</ele>
        <time>2021-07-10T10:38:06</time>
      </trkpt>
      <trkpt lat="44.73526" lon="4.92118">
        <ele>172.4</ele>
        <time>2021-07-10T10:38:07</time>
      </trkpt>
      <trkpt lat="44.73529" lon="4.92122">
        <ele>172.4</ele>
        <time>2021-07-10T10:38:08</time>
      </trkpt>
      <trkpt lat="44.73536" lon="4.92135">
        <ele>172.4</ele>
        <time>2021-07-10T10:38:09</time>
      </trkpt>
      <trkpt lat="44.73536" lon="4.92135">
        <ele>172.6</ele>
        <time>2021-07-10T10:38:10</time>
      </trkpt>
      <trkpt lat="44.73536" lon="4.92135">
        <ele>172.8</ele>
        <time>2021-07-10T10:38:11</time>
      </trkpt>
      <trkpt lat="44.73539" lon="4.92138">
        <ele>172.8</ele>
        <time>2021-07-10T10:38:12</time>
      </trkpt>
      <trkpt lat="44.73543" lon="4.9214">
        <ele>172.8</ele>
        <time>2021-07-10T10:38:13</time>
      </trkpt>
      <trkpt lat="44.7356" lon="4.92138">
        <ele>172.6</ele>
        <time>2021-07-10T10:38:14</time>
      </trkpt>
      <trkpt lat="44.7356" lon="4.92138">
        <ele>172.6</ele>
        <time>2021-07-10T10:38:15</time>
      </trkpt>
      <trkpt lat="44.7356" lon="4.92138">
        <ele>172.4</ele>
        <time>2021-07-10T10:38:16</time>
      </trkpt>
      <trkpt lat="44.73565" lon="4.92134">
        <ele>172.4</ele>
        <time>2021-07-10T10:38:17</time>
      </trkpt>
      <trkpt lat="44.7357" lon="4.92129">
        <ele>172.4</ele>
        <time>2021-07-10T10:38:18</time>
      </trkpt>
      <trkpt lat="44.7358" lon="4.92108">
        <ele>172.2</ele>
        <time>2021-07-10T10:38:19</time>
      </trkpt>
      <trkpt lat="44.7358" lon="4.92108">
        <ele>172</ele>
        <time>2021-07-10T10:38:20</time>
      </trkpt>
      <trkpt lat="44.7358" lon="4.92108">
        <ele>172</ele>
        <time>2021-07-10T10:38:21</time>
      </trkpt>
      <trkpt lat="44.73584" lon="4.92101">
        <ele>172</ele>
        <time>2021-07-10T10:38:22</time>
      </trkpt>
      <trkpt lat="44.7359" lon="4.92096">
        <ele>172.2</ele>
        <time>2021-07-10T10:38:23</time>
      </trkpt>
      <trkpt lat="44.73608" lon="4.9208">
        <ele>172.2</ele>
        <time>2021-07-10T10:38:24</time>
      </trkpt>
      <trkpt lat="44.73608" lon="4.9208">
        <ele>172.4</ele>
        <time>2021-07-10T10:38:25</time>
      </trkpt>
      <trkpt lat="44.73608" lon="4.9208">
        <ele>172.6</ele>
        <time>2021-07-10T10:38:26</time>
      </trkpt>
      <trkpt lat="44.73614" lon="4.92075">
        <ele>172.6</ele>
        <time>2021-07-10T10:38:27</time>
      </trkpt>
      <trkpt lat="44.73621" lon="4.9207">
        <ele>172.6</ele>
        <time>2021-07-10T10:38:28</time>
      </trkpt>
      <trkpt lat="44.73638" lon="4.92056">
        <ele>172.6</ele>
        <time>2021-07-10T10:38:29</time>
      </trkpt>
      <trkpt lat="44.73638" lon="4.92056">
        <ele>172.4</ele>
        <time>2021-07-10T10:38:30</time>
      </trkpt>
      <trkpt lat="44.73638" lon="4.92056">
        <ele>172.4</ele>
        <time>2021-07-10T10:38:31</time>
      </trkpt>
      <trkpt lat="44.73645" lon="4.92051">
        <ele>172.4</ele>
        <time>2021-07-10T10:38:32</time>
      </trkpt>
      <trkpt lat="44.73645" lon="4.92051">
        <ele>172.4</ele>
        <time>2021-07-10T10:38:33</time>
      </trkpt>
      <trkpt lat="44.73672" lon="4.92035">
        <ele>172.4</ele>
        <time>2021-07-10T10:38:34</time>
      </trkpt>
      <trkpt lat="44.73672" lon="4.92035">
        <ele>172.2</ele>
        <time>2021-07-10T10:38:35</time>
      </trkpt>
      <trkpt lat="44.73672" lon="4.92035">
        <ele>172.2</ele>
        <time>2021-07-10T10:38:36</time>
      </trkpt>
      <trkpt lat="44.73678" lon="4.9203">
        <ele>172</ele>
        <time>2021-07-10T10:38:37</time>
      </trkpt>
      <trkpt lat="44.73692" lon="4.92023">
        <ele>172</ele>
        <time>2021-07-10T10:38:38</time>
      </trkpt>
      <trkpt lat="44.73705" lon="4.92016">
        <ele>172</ele>
        <time>2021-07-10T10:38:39</time>
      </trkpt>
      <trkpt lat="44.73705" lon="4.92016">
        <ele>171.8</ele>
        <time>2021-07-10T10:38:40</time>
      </trkpt>
      <trkpt lat="44.73705" lon="4.92016">
        <ele>171.4</ele>
        <time>2021-07-10T10:38:41</time>
      </trkpt>
      <trkpt lat="44.73712" lon="4.92013">
        <ele>171.2</ele>
        <time>2021-07-10T10:38:42</time>
      </trkpt>
      <trkpt lat="44.73712" lon="4.92013">
        <ele>171.2</ele>
        <time>2021-07-10T10:38:43</time>
      </trkpt>
      <trkpt lat="44.7374" lon="4.91998">
        <ele>171.2</ele>
        <time>2021-07-10T10:38:44</time>
      </trkpt>
      <trkpt lat="44.7374" lon="4.91998">
        <ele>171.4</ele>
        <time>2021-07-10T10:38:45</time>
      </trkpt>
      <trkpt lat="44.7374" lon="4.91998">
        <ele>171.4</ele>
        <time>2021-07-10T10:38:46</time>
      </trkpt>
      <trkpt lat="44.73747" lon="4.91993">
        <ele>171.4</ele>
        <time>2021-07-10T10:38:47</time>
      </trkpt>
      <trkpt lat="44.73747" lon="4.91993">
        <ele>171.2</ele>
        <time>2021-07-10T10:38:48</time>
      </trkpt>
      <trkpt lat="44.73775" lon="4.91978">
        <ele>171</ele>
        <time>2021-07-10T10:38:49</time>
      </trkpt>
      <trkpt lat="44.73775" lon="4.91978">
        <ele>170.8</ele>
        <time>2021-07-10T10:38:50</time>
      </trkpt>
      <trkpt lat="44.73775" lon="4.91978">
        <ele>170.6</ele>
        <time>2021-07-10T10:38:51</time>
      </trkpt>
      <trkpt lat="44.7379" lon="4.91969">
        <ele>170.4</ele>
        <time>2021-07-10T10:38:52</time>
      </trkpt>
      <trkpt lat="44.7379" lon="4.91969">
        <ele>170.2</ele>
        <time>2021-07-10T10:38:53</time>
      </trkpt>
      <trkpt lat="44.73798" lon="4.91963">
        <ele>170.2</ele>
        <time>2021-07-10T10:38:54</time>
      </trkpt>
      <trkpt lat="44.73814" lon="4.91956">
        <ele>170.2</ele>
        <time>2021-07-10T10:38:55</time>
      </trkpt>
      <trkpt lat="44.73814" lon="4.91956">
        <ele>170</ele>
        <time>2021-07-10T10:38:56</time>
      </trkpt>
      <trkpt lat="44.73831" lon="4.91948">
        <ele>169.8</ele>
        <time>2021-07-10T10:38:57</time>
      </trkpt>
      <trkpt lat="44.73831" lon="4.91948">
        <ele>169.6</ele>
        <time>2021-07-10T10:38:58</time>
      </trkpt>
      <trkpt lat="44.73839" lon="4.91945">
        <ele>169.4</ele>
        <time>2021-07-10T10:38:59</time>
      </trkpt>
      <trkpt lat="44.73856" lon="4.91938">
        <ele>169</ele>
        <time>2021-07-10T10:39:00</time>
      </trkpt>
      <trkpt lat="44.73856" lon="4.91938">
        <ele>168.6</ele>
        <time>2021-07-10T10:39:01</time>
      </trkpt>
      <trkpt lat="44.73864" lon="4.91935">
        <ele>168.2</ele>
        <time>2021-07-10T10:39:02</time>
      </trkpt>
      <trkpt lat="44.7388" lon="4.9193">
        <ele>168</ele>
        <time>2021-07-10T10:39:03</time>
      </trkpt>
      <trkpt lat="44.7388" lon="4.9193">
        <ele>167.6</ele>
        <time>2021-07-10T10:39:04</time>
      </trkpt>
      <trkpt lat="44.73898" lon="4.91924">
        <ele>167.4</ele>
        <time>2021-07-10T10:39:05</time>
      </trkpt>
      <trkpt lat="44.73898" lon="4.91924">
        <ele>167</ele>
        <time>2021-07-10T10:39:06</time>
      </trkpt>
      <trkpt lat="44.73906" lon="4.91921">
        <ele>166.8</ele>
        <time>2021-07-10T10:39:07</time>
      </trkpt>
      <trkpt lat="44.73923" lon="4.91913">
        <ele>166.4</ele>
        <time>2021-07-10T10:39:08</time>
      </trkpt>
      <trkpt lat="44.73923" lon="4.91913">
        <ele>166.2</ele>
        <time>2021-07-10T10:39:09</time>
      </trkpt>
      <trkpt lat="44.73942" lon="4.91907">
        <ele>165.6</ele>
        <time>2021-07-10T10:39:10</time>
      </trkpt>
      <trkpt lat="44.73942" lon="4.91907">
        <ele>165.4</ele>
        <time>2021-07-10T10:39:11</time>
      </trkpt>
      <trkpt lat="44.73961" lon="4.919">
        <ele>164.8</ele>
        <time>2021-07-10T10:39:12</time>
      </trkpt>
      <trkpt lat="44.73971" lon="4.91897">
        <ele>164.4</ele>
        <time>2021-07-10T10:39:13</time>
      </trkpt>
      <trkpt lat="44.73971" lon="4.91897">
        <ele>164.2</ele>
        <time>2021-07-10T10:39:14</time>
      </trkpt>
      <trkpt lat="44.73989" lon="4.9189">
        <ele>164</ele>
        <time>2021-07-10T10:39:15</time>
      </trkpt>
      <trkpt lat="44.73989" lon="4.9189">
        <ele>163.6</ele>
        <time>2021-07-10T10:39:16</time>
      </trkpt>
      <trkpt lat="44.73997" lon="4.91885">
        <ele>163</ele>
        <time>2021-07-10T10:39:17</time>
      </trkpt>
      <trkpt lat="44.74026" lon="4.91876">
        <ele>162.4</ele>
        <time>2021-07-10T10:39:18</time>
      </trkpt>
      <trkpt lat="44.74026" lon="4.91876">
        <ele>162</ele>
        <time>2021-07-10T10:39:19</time>
      </trkpt>
      <trkpt lat="44.74026" lon="4.91876">
        <ele>161.4</ele>
        <time>2021-07-10T10:39:20</time>
      </trkpt>
      <trkpt lat="44.74035" lon="4.91872">
        <ele>161</ele>
        <time>2021-07-10T10:39:21</time>
      </trkpt>
      <trkpt lat="44.74044" lon="4.91869">
        <ele>160.8</ele>
        <time>2021-07-10T10:39:22</time>
      </trkpt>
      <trkpt lat="44.7407" lon="4.91858">
        <ele>160.6</ele>
        <time>2021-07-10T10:39:23</time>
      </trkpt>
      <trkpt lat="44.7407" lon="4.91858">
        <ele>160.4</ele>
        <time>2021-07-10T10:39:24</time>
      </trkpt>
      <trkpt lat="44.7407" lon="4.91858">
        <ele>160.2</ele>
        <time>2021-07-10T10:39:25</time>
      </trkpt>
      <trkpt lat="44.7408" lon="4.91855">
        <ele>160</ele>
        <time>2021-07-10T10:39:26</time>
      </trkpt>
      <trkpt lat="44.7409" lon="4.91851">
        <ele>160</ele>
        <time>2021-07-10T10:39:27</time>
      </trkpt>
      <trkpt lat="44.74117" lon="4.91843">
        <ele>159.8</ele>
        <time>2021-07-10T10:39:28</time>
      </trkpt>
      <trkpt lat="44.74117" lon="4.91843">
        <ele>159.8</ele>
        <time>2021-07-10T10:39:29</time>
      </trkpt>
      <trkpt lat="44.74117" lon="4.91843">
        <ele>159.8</ele>
        <time>2021-07-10T10:39:30</time>
      </trkpt>
      <trkpt lat="44.74125" lon="4.91839">
        <ele>159.8</ele>
        <time>2021-07-10T10:39:31</time>
      </trkpt>
      <trkpt lat="44.74134" lon="4.91836">
        <ele>159.6</ele>
        <time>2021-07-10T10:39:32</time>
      </trkpt>
      <trkpt lat="44.7416" lon="4.91828">
        <ele>159.4</ele>
        <time>2021-07-10T10:39:33</time>
      </trkpt>
      <trkpt lat="44.7416" lon="4.91828">
        <ele>159.2</ele>
        <time>2021-07-10T10:39:34</time>
      </trkpt>
      <trkpt lat="44.7416" lon="4.91828">
        <ele>159.2</ele>
        <time>2021-07-10T10:39:35</time>
      </trkpt>
      <trkpt lat="44.74169" lon="4.91826">
        <ele>159.2</ele>
        <time>2021-07-10T10:39:36</time>
      </trkpt>
      <trkpt lat="44.74169" lon="4.91826">
        <ele>159.2</ele>
        <time>2021-07-10T10:39:37</time>
      </trkpt>
      <trkpt lat="44.74201" lon="4.91815">
        <ele>159.2</ele>
        <time>2021-07-10T10:39:38</time>
      </trkpt>
      <trkpt lat="44.74201" lon="4.91815">
        <ele>159.2</ele>
        <time>2021-07-10T10:39:39</time>
      </trkpt>
      <trkpt lat="44.74201" lon="4.91815">
        <ele>159</ele>
        <time>2021-07-10T10:39:40</time>
      </trkpt>
      <trkpt lat="44.74209" lon="4.91812">
        <ele>159</ele>
        <time>2021-07-10T10:39:41</time>
      </trkpt>
      <trkpt lat="44.74216" lon="4.91809">
        <ele>159</ele>
        <time>2021-07-10T10:39:42</time>
      </trkpt>
      <trkpt lat="44.74241" lon="4.918">
        <ele>159</ele>
        <time>2021-07-10T10:39:43</time>
      </trkpt>
      <trkpt lat="44.74241" lon="4.918">
        <ele>158.8</ele>
        <time>2021-07-10T10:39:44</time>
      </trkpt>
      <trkpt lat="44.74241" lon="4.918">
        <ele>158.8</ele>
        <time>2021-07-10T10:39:45</time>
      </trkpt>
      <trkpt lat="44.7425" lon="4.91798">
        <ele>158.8</ele>
        <time>2021-07-10T10:39:46</time>
      </trkpt>
      <trkpt lat="44.74257" lon="4.91796">
        <ele>158.8</ele>
        <time>2021-07-10T10:39:47</time>
      </trkpt>
      <trkpt lat="44.7428" lon="4.91787">
        <ele>158.8</ele>
        <time>2021-07-10T10:39:48</time>
      </trkpt>
      <trkpt lat="44.7428" lon="4.91787">
        <ele>158.8</ele>
        <time>2021-07-10T10:39:49</time>
      </trkpt>
      <trkpt lat="44.7428" lon="4.91787">
        <ele>158.8</ele>
        <time>2021-07-10T10:39:50</time>
      </trkpt>
      <trkpt lat="44.74286" lon="4.91784">
        <ele>158.6</ele>
        <time>2021-07-10T10:39:51</time>
      </trkpt>
      <trkpt lat="44.74293" lon="4.91781">
        <ele>158.4</ele>
        <time>2021-07-10T10:39:52</time>
      </trkpt>
      <trkpt lat="44.74314" lon="4.91775">
        <ele>158.2</ele>
        <time>2021-07-10T10:39:53</time>
      </trkpt>
      <trkpt lat="44.74314" lon="4.91775">
        <ele>158.2</ele>
        <time>2021-07-10T10:39:54</time>
      </trkpt>
      <trkpt lat="44.74314" lon="4.91775">
        <ele>158</ele>
        <time>2021-07-10T10:39:55</time>
      </trkpt>
      <trkpt lat="44.74322" lon="4.91774">
        <ele>158</ele>
        <time>2021-07-10T10:39:56</time>
      </trkpt>
      <trkpt lat="44.74329" lon="4.91773">
        <ele>157.8</ele>
        <time>2021-07-10T10:39:57</time>
      </trkpt>
      <trkpt lat="44.74354" lon="4.9177">
        <ele>157.4</ele>
        <time>2021-07-10T10:39:58</time>
      </trkpt>
      <trkpt lat="44.74354" lon="4.9177">
        <ele>157.2</ele>
        <time>2021-07-10T10:39:59</time>
      </trkpt>
      <trkpt lat="44.74354" lon="4.9177">
        <ele>157.2</ele>
        <time>2021-07-10T10:40:00</time>
      </trkpt>
      <trkpt lat="44.74361" lon="4.9177">
        <ele>157.2</ele>
        <time>2021-07-10T10:40:01</time>
      </trkpt>
      <trkpt lat="44.74368" lon="4.9177">
        <ele>157.2</ele>
        <time>2021-07-10T10:40:02</time>
      </trkpt>
      <trkpt lat="44.7439" lon="4.91771">
        <ele>157</ele>
        <time>2021-07-10T10:40:03</time>
      </trkpt>
      <trkpt lat="44.7439" lon="4.91771">
        <ele>157</ele>
        <time>2021-07-10T10:40:04</time>
      </trkpt>
      <trkpt lat="44.7439" lon="4.91771">
        <ele>157</ele>
        <time>2021-07-10T10:40:05</time>
      </trkpt>
      <trkpt lat="44.74396" lon="4.91771">
        <ele>157</ele>
        <time>2021-07-10T10:40:06</time>
      </trkpt>
      <trkpt lat="44.74404" lon="4.91772">
        <ele>156.8</ele>
        <time>2021-07-10T10:40:07</time>
      </trkpt>
      <trkpt lat="44.74427" lon="4.91775">
        <ele>156.8</ele>
        <time>2021-07-10T10:40:08</time>
      </trkpt>
      <trkpt lat="44.74427" lon="4.91775">
        <ele>156.6</ele>
        <time>2021-07-10T10:40:09</time>
      </trkpt>
      <trkpt lat="44.74427" lon="4.91775">
        <ele>156.6</ele>
        <time>2021-07-10T10:40:10</time>
      </trkpt>
      <trkpt lat="44.74434" lon="4.91777">
        <ele>156.4</ele>
        <time>2021-07-10T10:40:11</time>
      </trkpt>
      <trkpt lat="44.74441" lon="4.91778">
        <ele>156.2</ele>
        <time>2021-07-10T10:40:12</time>
      </trkpt>
      <trkpt lat="44.74461" lon="4.91784">
        <ele>156.2</ele>
        <time>2021-07-10T10:40:13</time>
      </trkpt>
      <trkpt lat="44.74461" lon="4.91784">
        <ele>156.2</ele>
        <time>2021-07-10T10:40:14</time>
      </trkpt>
      <trkpt lat="44.74461" lon="4.91784">
        <ele>156.2</ele>
        <time>2021-07-10T10:40:15</time>
      </trkpt>
      <trkpt lat="44.74468" lon="4.91786">
        <ele>156.4</ele>
        <time>2021-07-10T10:40:16</time>
      </trkpt>
      <trkpt lat="44.74475" lon="4.91789">
        <ele>156.4</ele>
        <time>2021-07-10T10:40:17</time>
      </trkpt>
      <trkpt lat="44.74494" lon="4.91797">
        <ele>156.4</ele>
        <time>2021-07-10T10:40:18</time>
      </trkpt>
      <trkpt lat="44.74494" lon="4.91797">
        <ele>156.4</ele>
        <time>2021-07-10T10:40:19</time>
      </trkpt>
      <trkpt lat="44.74494" lon="4.91797">
        <ele>156.4</ele>
        <time>2021-07-10T10:40:20</time>
      </trkpt>
      <trkpt lat="44.745" lon="4.918">
        <ele>156.4</ele>
        <time>2021-07-10T10:40:21</time>
      </trkpt>
      <trkpt lat="44.74507" lon="4.91803">
        <ele>156.4</ele>
        <time>2021-07-10T10:40:22</time>
      </trkpt>
      <trkpt lat="44.74525" lon="4.91811">
        <ele>156.6</ele>
        <time>2021-07-10T10:40:23</time>
      </trkpt>
      <trkpt lat="44.74525" lon="4.91811">
        <ele>156.6</ele>
        <time>2021-07-10T10:40:24</time>
      </trkpt>
      <trkpt lat="44.74525" lon="4.91811">
        <ele>156.8</ele>
        <time>2021-07-10T10:40:25</time>
      </trkpt>
      <trkpt lat="44.74531" lon="4.91815">
        <ele>157</ele>
        <time>2021-07-10T10:40:26</time>
      </trkpt>
      <trkpt lat="44.74537" lon="4.91817">
        <ele>157</ele>
        <time>2021-07-10T10:40:27</time>
      </trkpt>
      <trkpt lat="44.74555" lon="4.91827">
        <ele>157</ele>
        <time>2021-07-10T10:40:28</time>
      </trkpt>
      <trkpt lat="44.74555" lon="4.91827">
        <ele>157</ele>
        <time>2021-07-10T10:40:29</time>
      </trkpt>
      <trkpt lat="44.74555" lon="4.91827">
        <ele>157</ele>
        <time>2021-07-10T10:40:30</time>
      </trkpt>
      <trkpt lat="44.74561" lon="4.9183">
        <ele>157</ele>
        <time>2021-07-10T10:40:31</time>
      </trkpt>
      <trkpt lat="44.74567" lon="4.91833">
        <ele>157.2</ele>
        <time>2021-07-10T10:40:32</time>
      </trkpt>
      <trkpt lat="44.74585" lon="4.91841">
        <ele>157.2</ele>
        <time>2021-07-10T10:40:33</time>
      </trkpt>
      <trkpt lat="44.74585" lon="4.91841">
        <ele>157.4</ele>
        <time>2021-07-10T10:40:34</time>
      </trkpt>
      <trkpt lat="44.74585" lon="4.91841">
        <ele>157.4</ele>
        <time>2021-07-10T10:40:35</time>
      </trkpt>
      <trkpt lat="44.74591" lon="4.91844">
        <ele>157.6</ele>
        <time>2021-07-10T10:40:36</time>
      </trkpt>
      <trkpt lat="44.74597" lon="4.91847">
        <ele>157.8</ele>
        <time>2021-07-10T10:40:37</time>
      </trkpt>
      <trkpt lat="44.74615" lon="4.91856">
        <ele>158</ele>
        <time>2021-07-10T10:40:38</time>
      </trkpt>
      <trkpt lat="44.74615" lon="4.91856">
        <ele>158</ele>
        <time>2021-07-10T10:40:39</time>
      </trkpt>
      <trkpt lat="44.74615" lon="4.91856">
        <ele>158</ele>
        <time>2021-07-10T10:40:40</time>
      </trkpt>
      <trkpt lat="44.74621" lon="4.91859">
        <ele>158</ele>
        <time>2021-07-10T10:40:41</time>
      </trkpt>
      <trkpt lat="44.74627" lon="4.91862">
        <ele>158.2</ele>
        <time>2021-07-10T10:40:42</time>
      </trkpt>
      <trkpt lat="44.74633" lon="4.91865">
        <ele>158.2</ele>
        <time>2021-07-10T10:40:43</time>
      </trkpt>
      <trkpt lat="44.74639" lon="4.91867">
        <ele>158.2</ele>
        <time>2021-07-10T10:40:44</time>
      </trkpt>
      <trkpt lat="44.74645" lon="4.9187">
        <ele>158.2</ele>
        <time>2021-07-10T10:40:45</time>
      </trkpt>
      <trkpt lat="44.74651" lon="4.91873">
        <ele>158.4</ele>
        <time>2021-07-10T10:40:46</time>
      </trkpt>
      <trkpt lat="44.74651" lon="4.91873">
        <ele>158.8</ele>
        <time>2021-07-10T10:40:47</time>
      </trkpt>
      <trkpt lat="44.74667" lon="4.91882">
        <ele>159.6</ele>
        <time>2021-07-10T10:40:48</time>
      </trkpt>
      <trkpt lat="44.74667" lon="4.91882">
        <ele>160</ele>
        <time>2021-07-10T10:40:49</time>
      </trkpt>
      <trkpt lat="44.74674" lon="4.91885">
        <ele>160</ele>
        <time>2021-07-10T10:40:50</time>
      </trkpt>
      <trkpt lat="44.74685" lon="4.91888">
        <ele>159.8</ele>
        <time>2021-07-10T10:40:51</time>
      </trkpt>
      <trkpt lat="44.74685" lon="4.91888">
        <ele>159.8</ele>
        <time>2021-07-10T10:40:52</time>
      </trkpt>
      <trkpt lat="44.7469" lon="4.9189">
        <ele>159.6</ele>
        <time>2021-07-10T10:40:53</time>
      </trkpt>
      <trkpt lat="44.74695" lon="4.91893">
        <ele>159.6</ele>
        <time>2021-07-10T10:40:54</time>
      </trkpt>
      <trkpt lat="44.747" lon="4.91897">
        <ele>159.4</ele>
        <time>2021-07-10T10:40:55</time>
      </trkpt>
      <trkpt lat="44.74705" lon="4.91898">
        <ele>159.4</ele>
        <time>2021-07-10T10:40:56</time>
      </trkpt>
      <trkpt lat="44.74709" lon="4.919">
        <ele>159.4</ele>
        <time>2021-07-10T10:40:57</time>
      </trkpt>
      <trkpt lat="44.74715" lon="4.91902">
        <ele>159.6</ele>
        <time>2021-07-10T10:40:58</time>
      </trkpt>
      <trkpt lat="44.74719" lon="4.91903">
        <ele>159.8</ele>
        <time>2021-07-10T10:40:59</time>
      </trkpt>
      <trkpt lat="44.74728" lon="4.91908">
        <ele>160</ele>
        <time>2021-07-10T10:41:00</time>
      </trkpt>
      <trkpt lat="44.74728" lon="4.91908">
        <ele>160.2</ele>
        <time>2021-07-10T10:41:01</time>
      </trkpt>
      <trkpt lat="44.74733" lon="4.9191">
        <ele>160.4</ele>
        <time>2021-07-10T10:41:02</time>
      </trkpt>
      <trkpt lat="44.74737" lon="4.91912">
        <ele>160.6</ele>
        <time>2021-07-10T10:41:03</time>
      </trkpt>
      <trkpt lat="44.7474" lon="4.91914">
        <ele>160.8</ele>
        <time>2021-07-10T10:41:04</time>
      </trkpt>
      <trkpt lat="44.74744" lon="4.91917">
        <ele>160.8</ele>
        <time>2021-07-10T10:41:05</time>
      </trkpt>
      <trkpt lat="44.74749" lon="4.91919">
        <ele>160.8</ele>
        <time>2021-07-10T10:41:06</time>
      </trkpt>
      <trkpt lat="44.74753" lon="4.9192">
        <ele>161</ele>
        <time>2021-07-10T10:41:07</time>
      </trkpt>
      <trkpt lat="44.74758" lon="4.91922">
        <ele>161</ele>
        <time>2021-07-10T10:41:08</time>
      </trkpt>
      <trkpt lat="44.74762" lon="4.91925">
        <ele>161</ele>
        <time>2021-07-10T10:41:09</time>
      </trkpt>
      <trkpt lat="44.74766" lon="4.91927">
        <ele>161.2</ele>
        <time>2021-07-10T10:41:10</time>
      </trkpt>
      <trkpt lat="44.74771" lon="4.91929">
        <ele>161.2</ele>
        <time>2021-07-10T10:41:11</time>
      </trkpt>
      <trkpt lat="44.74776" lon="4.91931">
        <ele>161.4</ele>
        <time>2021-07-10T10:41:12</time>
      </trkpt>
      <trkpt lat="44.74782" lon="4.91933">
        <ele>161.4</ele>
        <time>2021-07-10T10:41:13</time>
      </trkpt>
      <trkpt lat="44.74785" lon="4.91937">
        <ele>161.4</ele>
        <time>2021-07-10T10:41:14</time>
      </trkpt>
      <trkpt lat="44.7479" lon="4.9194">
        <ele>161.4</ele>
        <time>2021-07-10T10:41:15</time>
      </trkpt>
      <trkpt lat="44.74795" lon="4.91942">
        <ele>161.4</ele>
        <time>2021-07-10T10:41:16</time>
      </trkpt>
      <trkpt lat="44.74801" lon="4.91945">
        <ele>161.4</ele>
        <time>2021-07-10T10:41:17</time>
      </trkpt>
      <trkpt lat="44.74807" lon="4.91947">
        <ele>161.2</ele>
        <time>2021-07-10T10:41:18</time>
      </trkpt>
      <trkpt lat="44.74812" lon="4.91951">
        <ele>161.2</ele>
        <time>2021-07-10T10:41:19</time>
      </trkpt>
      <trkpt lat="44.74818" lon="4.91954">
        <ele>161</ele>
        <time>2021-07-10T10:41:20</time>
      </trkpt>
      <trkpt lat="44.74824" lon="4.91958">
        <ele>160.8</ele>
        <time>2021-07-10T10:41:21</time>
      </trkpt>
      <trkpt lat="44.7483" lon="4.91962">
        <ele>160.8</ele>
        <time>2021-07-10T10:41:22</time>
      </trkpt>
      <trkpt lat="44.74838" lon="4.91966">
        <ele>160.6</ele>
        <time>2021-07-10T10:41:23</time>
      </trkpt>
      <trkpt lat="44.74843" lon="4.91969">
        <ele>160.4</ele>
        <time>2021-07-10T10:41:24</time>
      </trkpt>
      <trkpt lat="44.7485" lon="4.91972">
        <ele>160.2</ele>
        <time>2021-07-10T10:41:25</time>
      </trkpt>
      <trkpt lat="44.74856" lon="4.91976">
        <ele>159.8</ele>
        <time>2021-07-10T10:41:26</time>
      </trkpt>
      <trkpt lat="44.74863" lon="4.91977">
        <ele>159.6</ele>
        <time>2021-07-10T10:41:27</time>
      </trkpt>
      <trkpt lat="44.7487" lon="4.9198">
        <ele>159.4</ele>
        <time>2021-07-10T10:41:28</time>
      </trkpt>
      <trkpt lat="44.74876" lon="4.91982">
        <ele>159.4</ele>
        <time>2021-07-10T10:41:29</time>
      </trkpt>
      <trkpt lat="44.74884" lon="4.91984">
        <ele>159.2</ele>
        <time>2021-07-10T10:41:30</time>
      </trkpt>
      <trkpt lat="44.74892" lon="4.91986">
        <ele>159</ele>
        <time>2021-07-10T10:41:31</time>
      </trkpt>
      <trkpt lat="44.74892" lon="4.91986">
        <ele>158.8</ele>
        <time>2021-07-10T10:41:32</time>
      </trkpt>
      <trkpt lat="44.74908" lon="4.9199">
        <ele>158.8</ele>
        <time>2021-07-10T10:41:33</time>
      </trkpt>
      <trkpt lat="44.74908" lon="4.9199">
        <ele>158.6</ele>
        <time>2021-07-10T10:41:34</time>
      </trkpt>
      <trkpt lat="44.74925" lon="4.91991">
        <ele>158.4</ele>
        <time>2021-07-10T10:41:35</time>
      </trkpt>
      <trkpt lat="44.74934" lon="4.91992">
        <ele>158.2</ele>
        <time>2021-07-10T10:41:36</time>
      </trkpt>
      <trkpt lat="44.74942" lon="4.91993">
        <ele>158</ele>
        <time>2021-07-10T10:41:37</time>
      </trkpt>
      <trkpt lat="44.7495" lon="4.91996">
        <ele>157.8</ele>
        <time>2021-07-10T10:41:38</time>
      </trkpt>
      <trkpt lat="44.74967" lon="4.92">
        <ele>157.6</ele>
        <time>2021-07-10T10:41:39</time>
      </trkpt>
      <trkpt lat="44.74967" lon="4.92">
        <ele>157.4</ele>
        <time>2021-07-10T10:41:40</time>
      </trkpt>
      <trkpt lat="44.74975" lon="4.92002">
        <ele>157.4</ele>
        <time>2021-07-10T10:41:41</time>
      </trkpt>
      <trkpt lat="44.74984" lon="4.92004">
        <ele>157.2</ele>
        <time>2021-07-10T10:41:42</time>
      </trkpt>
      <trkpt lat="44.74992" lon="4.92006">
        <ele>157</ele>
        <time>2021-07-10T10:41:43</time>
      </trkpt>
      <trkpt lat="44.75002" lon="4.92008">
        <ele>156.8</ele>
        <time>2021-07-10T10:41:44</time>
      </trkpt>
      <trkpt lat="44.75011" lon="4.9201">
        <ele>156.4</ele>
        <time>2021-07-10T10:41:45</time>
      </trkpt>
      <trkpt lat="44.75019" lon="4.92012">
        <ele>156.4</ele>
        <time>2021-07-10T10:41:46</time>
      </trkpt>
      <trkpt lat="44.75027" lon="4.92013">
        <ele>156.4</ele>
        <time>2021-07-10T10:41:47</time>
      </trkpt>
      <trkpt lat="44.75036" lon="4.92015">
        <ele>156.4</ele>
        <time>2021-07-10T10:41:48</time>
      </trkpt>
      <trkpt lat="44.75044" lon="4.92017">
        <ele>156.4</ele>
        <time>2021-07-10T10:41:49</time>
      </trkpt>
      <trkpt lat="44.75062" lon="4.9202">
        <ele>156.4</ele>
        <time>2021-07-10T10:41:50</time>
      </trkpt>
      <trkpt lat="44.75062" lon="4.9202">
        <ele>156.4</ele>
        <time>2021-07-10T10:41:51</time>
      </trkpt>
      <trkpt lat="44.75071" lon="4.92023">
        <ele>156.2</ele>
        <time>2021-07-10T10:41:52</time>
      </trkpt>
      <trkpt lat="44.75079" lon="4.92024">
        <ele>156.2</ele>
        <time>2021-07-10T10:41:53</time>
      </trkpt>
      <trkpt lat="44.75087" lon="4.92026">
        <ele>156.4</ele>
        <time>2021-07-10T10:41:54</time>
      </trkpt>
      <trkpt lat="44.75094" lon="4.92027">
        <ele>156.4</ele>
        <time>2021-07-10T10:41:55</time>
      </trkpt>
      <trkpt lat="44.75101" lon="4.92028">
        <ele>156.4</ele>
        <time>2021-07-10T10:41:56</time>
      </trkpt>
      <trkpt lat="44.75107" lon="4.92028">
        <ele>156.4</ele>
        <time>2021-07-10T10:41:57</time>
      </trkpt>
      <trkpt lat="44.75114" lon="4.92029">
        <ele>156.4</ele>
        <time>2021-07-10T10:41:58</time>
      </trkpt>
      <trkpt lat="44.75121" lon="4.92031">
        <ele>156.4</ele>
        <time>2021-07-10T10:41:59</time>
      </trkpt>
      <trkpt lat="44.75128" lon="4.92032">
        <ele>156.4</ele>
        <time>2021-07-10T10:42:00</time>
      </trkpt>
      <trkpt lat="44.75136" lon="4.92033">
        <ele>156.4</ele>
        <time>2021-07-10T10:42:01</time>
      </trkpt>
      <trkpt lat="44.75144" lon="4.92034">
        <ele>156.4</ele>
        <time>2021-07-10T10:42:02</time>
      </trkpt>
      <trkpt lat="44.75152" lon="4.92035">
        <ele>156.4</ele>
        <time>2021-07-10T10:42:03</time>
      </trkpt>
      <trkpt lat="44.75159" lon="4.92037">
        <ele>156.4</ele>
        <time>2021-07-10T10:42:04</time>
      </trkpt>
      <trkpt lat="44.75167" lon="4.92039">
        <ele>156.4</ele>
        <time>2021-07-10T10:42:05</time>
      </trkpt>
      <trkpt lat="44.75175" lon="4.92041">
        <ele>156.4</ele>
        <time>2021-07-10T10:42:06</time>
      </trkpt>
      <trkpt lat="44.75184" lon="4.92042">
        <ele>156.4</ele>
        <time>2021-07-10T10:42:07</time>
      </trkpt>
      <trkpt lat="44.7519" lon="4.92043">
        <ele>156.4</ele>
        <time>2021-07-10T10:42:08</time>
      </trkpt>
      <trkpt lat="44.75197" lon="4.92044">
        <ele>156.4</ele>
        <time>2021-07-10T10:42:09</time>
      </trkpt>
      <trkpt lat="44.75203" lon="4.92046">
        <ele>156.4</ele>
        <time>2021-07-10T10:42:10</time>
      </trkpt>
      <trkpt lat="44.75209" lon="4.92047">
        <ele>156.4</ele>
        <time>2021-07-10T10:42:11</time>
      </trkpt>
      <trkpt lat="44.75217" lon="4.92048">
        <ele>156.4</ele>
        <time>2021-07-10T10:42:12</time>
      </trkpt>
      <trkpt lat="44.75226" lon="4.92049">
        <ele>156.4</ele>
        <time>2021-07-10T10:42:13</time>
      </trkpt>
      <trkpt lat="44.75234" lon="4.9205">
        <ele>156.4</ele>
        <time>2021-07-10T10:42:14</time>
      </trkpt>
      <trkpt lat="44.75243" lon="4.92051">
        <ele>156.4</ele>
        <time>2021-07-10T10:42:15</time>
      </trkpt>
      <trkpt lat="44.75251" lon="4.92051">
        <ele>156.4</ele>
        <time>2021-07-10T10:42:16</time>
      </trkpt>
      <trkpt lat="44.75259" lon="4.92052">
        <ele>156.4</ele>
        <time>2021-07-10T10:42:17</time>
      </trkpt>
      <trkpt lat="44.75267" lon="4.92052">
        <ele>156.4</ele>
        <time>2021-07-10T10:42:18</time>
      </trkpt>
      <trkpt lat="44.75276" lon="4.92052">
        <ele>156.4</ele>
        <time>2021-07-10T10:42:19</time>
      </trkpt>
      <trkpt lat="44.75284" lon="4.92053">
        <ele>156.4</ele>
        <time>2021-07-10T10:42:20</time>
      </trkpt>
      <trkpt lat="44.75292" lon="4.92053">
        <ele>156.2</ele>
        <time>2021-07-10T10:42:21</time>
      </trkpt>
      <trkpt lat="44.753" lon="4.92054">
        <ele>156.2</ele>
        <time>2021-07-10T10:42:22</time>
      </trkpt>
      <trkpt lat="44.75307" lon="4.92055">
        <ele>156.2</ele>
        <time>2021-07-10T10:42:23</time>
      </trkpt>
      <trkpt lat="44.75314" lon="4.92056">
        <ele>156.2</ele>
        <time>2021-07-10T10:42:24</time>
      </trkpt>
      <trkpt lat="44.7532" lon="4.92058">
        <ele>156.2</ele>
        <time>2021-07-10T10:42:25</time>
      </trkpt>
      <trkpt lat="44.75327" lon="4.92059">
        <ele>156.2</ele>
        <time>2021-07-10T10:42:26</time>
      </trkpt>
      <trkpt lat="44.75333" lon="4.9206">
        <ele>156.2</ele>
        <time>2021-07-10T10:42:27</time>
      </trkpt>
      <trkpt lat="44.75339" lon="4.92061">
        <ele>156.2</ele>
        <time>2021-07-10T10:42:28</time>
      </trkpt>
      <trkpt lat="44.75345" lon="4.92063">
        <ele>156.2</ele>
        <time>2021-07-10T10:42:29</time>
      </trkpt>
      <trkpt lat="44.75352" lon="4.92064">
        <ele>156.2</ele>
        <time>2021-07-10T10:42:30</time>
      </trkpt>
      <trkpt lat="44.75358" lon="4.92065">
        <ele>156.2</ele>
        <time>2021-07-10T10:42:31</time>
      </trkpt>
      <trkpt lat="44.75364" lon="4.92066">
        <ele>156.2</ele>
        <time>2021-07-10T10:42:32</time>
      </trkpt>
      <trkpt lat="44.75372" lon="4.92067">
        <ele>156.2</ele>
        <time>2021-07-10T10:42:33</time>
      </trkpt>
      <trkpt lat="44.75378" lon="4.92068">
        <ele>156.2</ele>
        <time>2021-07-10T10:42:34</time>
      </trkpt>
      <trkpt lat="44.75384" lon="4.92068">
        <ele>156.2</ele>
        <time>2021-07-10T10:42:35</time>
      </trkpt>
      <trkpt lat="44.7539" lon="4.92068">
        <ele>156.2</ele>
        <time>2021-07-10T10:42:36</time>
      </trkpt>
      <trkpt lat="44.75397" lon="4.92067">
        <ele>156.2</ele>
        <time>2021-07-10T10:42:37</time>
      </trkpt>
      <trkpt lat="44.75411" lon="4.92065">
        <ele>156.2</ele>
        <time>2021-07-10T10:42:38</time>
      </trkpt>
      <trkpt lat="44.75411" lon="4.92065">
        <ele>156.2</ele>
        <time>2021-07-10T10:42:39</time>
      </trkpt>
      <trkpt lat="44.75416" lon="4.92063">
        <ele>156.4</ele>
        <time>2021-07-10T10:42:40</time>
      </trkpt>
      <trkpt lat="44.75424" lon="4.92061">
        <ele>156.4</ele>
        <time>2021-07-10T10:42:41</time>
      </trkpt>
      <trkpt lat="44.75431" lon="4.92058">
        <ele>156.4</ele>
        <time>2021-07-10T10:42:42</time>
      </trkpt>
      <trkpt lat="44.75437" lon="4.92055">
        <ele>156.2</ele>
        <time>2021-07-10T10:42:43</time>
      </trkpt>
      <trkpt lat="44.75443" lon="4.92053">
        <ele>156</ele>
        <time>2021-07-10T10:42:44</time>
      </trkpt>
      <trkpt lat="44.75451" lon="4.92052">
        <ele>155.8</ele>
        <time>2021-07-10T10:42:45</time>
      </trkpt>
      <trkpt lat="44.75458" lon="4.92051">
        <ele>155.6</ele>
        <time>2021-07-10T10:42:46</time>
      </trkpt>
      <trkpt lat="44.75465" lon="4.9205">
        <ele>155.6</ele>
        <time>2021-07-10T10:42:47</time>
      </trkpt>
      <trkpt lat="44.75472" lon="4.92048">
        <ele>155.6</ele>
        <time>2021-07-10T10:42:48</time>
      </trkpt>
      <trkpt lat="44.75478" lon="4.92047">
        <ele>155.6</ele>
        <time>2021-07-10T10:42:49</time>
      </trkpt>
      <trkpt lat="44.75485" lon="4.92045">
        <ele>155.6</ele>
        <time>2021-07-10T10:42:50</time>
      </trkpt>
      <trkpt lat="44.75491" lon="4.92044">
        <ele>155.6</ele>
        <time>2021-07-10T10:42:51</time>
      </trkpt>
      <trkpt lat="44.75498" lon="4.92043">
        <ele>155.6</ele>
        <time>2021-07-10T10:42:52</time>
      </trkpt>
      <trkpt lat="44.75503" lon="4.9204">
        <ele>155.6</ele>
        <time>2021-07-10T10:42:53</time>
      </trkpt>
      <trkpt lat="44.75511" lon="4.92039">
        <ele>155.6</ele>
        <time>2021-07-10T10:42:54</time>
      </trkpt>
      <trkpt lat="44.75517" lon="4.92036">
        <ele>155.6</ele>
        <time>2021-07-10T10:42:55</time>
      </trkpt>
      <trkpt lat="44.75523" lon="4.92035">
        <ele>155.6</ele>
        <time>2021-07-10T10:42:56</time>
      </trkpt>
      <trkpt lat="44.75529" lon="4.92032">
        <ele>155.6</ele>
        <time>2021-07-10T10:42:57</time>
      </trkpt>
      <trkpt lat="44.75536" lon="4.92033">
        <ele>155.8</ele>
        <time>2021-07-10T10:42:58</time>
      </trkpt>
      <trkpt lat="44.75543" lon="4.92033">
        <ele>156</ele>
        <time>2021-07-10T10:42:59</time>
      </trkpt>
      <trkpt lat="44.75549" lon="4.92031">
        <ele>156</ele>
        <time>2021-07-10T10:43:00</time>
      </trkpt>
      <trkpt lat="44.75555" lon="4.92031">
        <ele>156.2</ele>
        <time>2021-07-10T10:43:01</time>
      </trkpt>
      <trkpt lat="44.75561" lon="4.9203">
        <ele>156.2</ele>
        <time>2021-07-10T10:43:02</time>
      </trkpt>
      <trkpt lat="44.75568" lon="4.92029">
        <ele>156.2</ele>
        <time>2021-07-10T10:43:03</time>
      </trkpt>
      <trkpt lat="44.75575" lon="4.92028">
        <ele>156</ele>
        <time>2021-07-10T10:43:04</time>
      </trkpt>
      <trkpt lat="44.75581" lon="4.92028">
        <ele>156</ele>
        <time>2021-07-10T10:43:05</time>
      </trkpt>
      <trkpt lat="44.75587" lon="4.92026">
        <ele>156</ele>
        <time>2021-07-10T10:43:06</time>
      </trkpt>
      <trkpt lat="44.75594" lon="4.92025">
        <ele>156</ele>
        <time>2021-07-10T10:43:07</time>
      </trkpt>
      <trkpt lat="44.75602" lon="4.92024">
        <ele>155.8</ele>
        <time>2021-07-10T10:43:08</time>
      </trkpt>
      <trkpt lat="44.75608" lon="4.92023">
        <ele>155.4</ele>
        <time>2021-07-10T10:43:09</time>
      </trkpt>
      <trkpt lat="44.75622" lon="4.92022">
        <ele>155.4</ele>
        <time>2021-07-10T10:43:10</time>
      </trkpt>
      <trkpt lat="44.75622" lon="4.92022">
        <ele>155.2</ele>
        <time>2021-07-10T10:43:11</time>
      </trkpt>
      <trkpt lat="44.75631" lon="4.92022">
        <ele>155.2</ele>
        <time>2021-07-10T10:43:12</time>
      </trkpt>
      <trkpt lat="44.75639" lon="4.92019">
        <ele>155.4</ele>
        <time>2021-07-10T10:43:13</time>
      </trkpt>
      <trkpt lat="44.75647" lon="4.9202">
        <ele>155.6</ele>
        <time>2021-07-10T10:43:14</time>
      </trkpt>
      <trkpt lat="44.75654" lon="4.9202">
        <ele>155.8</ele>
        <time>2021-07-10T10:43:15</time>
      </trkpt>
      <trkpt lat="44.75654" lon="4.9202">
        <ele>156</ele>
        <time>2021-07-10T10:43:16</time>
      </trkpt>
      <trkpt lat="44.75671" lon="4.92018">
        <ele>156</ele>
        <time>2021-07-10T10:43:17</time>
      </trkpt>
      <trkpt lat="44.75679" lon="4.92018">
        <ele>155.8</ele>
        <time>2021-07-10T10:43:18</time>
      </trkpt>
      <trkpt lat="44.75685" lon="4.92018">
        <ele>155.8</ele>
        <time>2021-07-10T10:43:19</time>
      </trkpt>
      <trkpt lat="44.75692" lon="4.9202">
        <ele>155.6</ele>
        <time>2021-07-10T10:43:20</time>
      </trkpt>
      <trkpt lat="44.75698" lon="4.92019">
        <ele>155.6</ele>
        <time>2021-07-10T10:43:21</time>
      </trkpt>
      <trkpt lat="44.75706" lon="4.92018">
        <ele>155.4</ele>
        <time>2021-07-10T10:43:22</time>
      </trkpt>
      <trkpt lat="44.75711" lon="4.92017">
        <ele>155.4</ele>
        <time>2021-07-10T10:43:23</time>
      </trkpt>
      <trkpt lat="44.75717" lon="4.92016">
        <ele>155.4</ele>
        <time>2021-07-10T10:43:24</time>
      </trkpt>
      <trkpt lat="44.75723" lon="4.92015">
        <ele>155.4</ele>
        <time>2021-07-10T10:43:25</time>
      </trkpt>
      <trkpt lat="44.75729" lon="4.92015">
        <ele>155.4</ele>
        <time>2021-07-10T10:43:26</time>
      </trkpt>
      <trkpt lat="44.75735" lon="4.92014">
        <ele>155.4</ele>
        <time>2021-07-10T10:43:27</time>
      </trkpt>
      <trkpt lat="44.75741" lon="4.92014">
        <ele>155.4</ele>
        <time>2021-07-10T10:43:28</time>
      </trkpt>
      <trkpt lat="44.75747" lon="4.92015">
        <ele>155.4</ele>
        <time>2021-07-10T10:43:29</time>
      </trkpt>
      <trkpt lat="44.75753" lon="4.92015">
        <ele>155.4</ele>
        <time>2021-07-10T10:43:30</time>
      </trkpt>
      <trkpt lat="44.75759" lon="4.92015">
        <ele>155.4</ele>
        <time>2021-07-10T10:43:31</time>
      </trkpt>
      <trkpt lat="44.75765" lon="4.92015">
        <ele>155.4</ele>
        <time>2021-07-10T10:43:32</time>
      </trkpt>
      <trkpt lat="44.75769" lon="4.92018">
        <ele>155.4</ele>
        <time>2021-07-10T10:43:33</time>
      </trkpt>
      <trkpt lat="44.75771" lon="4.92023">
        <ele>155.4</ele>
        <time>2021-07-10T10:43:34</time>
      </trkpt>
      <trkpt lat="44.75773" lon="4.9203">
        <ele>155.4</ele>
        <time>2021-07-10T10:43:35</time>
      </trkpt>
      <trkpt lat="44.75774" lon="4.92038">
        <ele>155.4</ele>
        <time>2021-07-10T10:43:36</time>
      </trkpt>
      <trkpt lat="44.75773" lon="4.92045">
        <ele>155.4</ele>
        <time>2021-07-10T10:43:37</time>
      </trkpt>
      <trkpt lat="44.75772" lon="4.92052">
        <ele>155.4</ele>
        <time>2021-07-10T10:43:38</time>
      </trkpt>
      <trkpt lat="44.75772" lon="4.92059">
        <ele>155.6</ele>
        <time>2021-07-10T10:43:39</time>
      </trkpt>
      <trkpt lat="44.75773" lon="4.92065">
        <ele>155.6</ele>
        <time>2021-07-10T10:43:40</time>
      </trkpt>
      <trkpt lat="44.75774" lon="4.92071">
        <ele>155.6</ele>
        <time>2021-07-10T10:43:41</time>
      </trkpt>
      <trkpt lat="44.75774" lon="4.92079">
        <ele>155.6</ele>
        <time>2021-07-10T10:43:42</time>
      </trkpt>
      <trkpt lat="44.75775" lon="4.92085">
        <ele>155.6</ele>
        <time>2021-07-10T10:43:43</time>
      </trkpt>
      <trkpt lat="44.75774" lon="4.92092">
        <ele>155.6</ele>
        <time>2021-07-10T10:43:44</time>
      </trkpt>
      <trkpt lat="44.75775" lon="4.92099">
        <ele>155.8</ele>
        <time>2021-07-10T10:43:45</time>
      </trkpt>
      <trkpt lat="44.75775" lon="4.92106">
        <ele>155.8</ele>
        <time>2021-07-10T10:43:46</time>
      </trkpt>
      <trkpt lat="44.75776" lon="4.92114">
        <ele>155.8</ele>
        <time>2021-07-10T10:43:47</time>
      </trkpt>
      <trkpt lat="44.75777" lon="4.92121">
        <ele>155.6</ele>
        <time>2021-07-10T10:43:48</time>
      </trkpt>
      <trkpt lat="44.75776" lon="4.92128">
        <ele>155.6</ele>
        <time>2021-07-10T10:43:49</time>
      </trkpt>
      <trkpt lat="44.75776" lon="4.92134">
        <ele>155.6</ele>
        <time>2021-07-10T10:43:50</time>
      </trkpt>
      <trkpt lat="44.75777" lon="4.92141">
        <ele>155.6</ele>
        <time>2021-07-10T10:43:51</time>
      </trkpt>
      <trkpt lat="44.75776" lon="4.92149">
        <ele>155.6</ele>
        <time>2021-07-10T10:43:52</time>
      </trkpt>
      <trkpt lat="44.75776" lon="4.92155">
        <ele>155.6</ele>
        <time>2021-07-10T10:43:53</time>
      </trkpt>
      <trkpt lat="44.75776" lon="4.92163">
        <ele>155.8</ele>
        <time>2021-07-10T10:43:54</time>
      </trkpt>
      <trkpt lat="44.75776" lon="4.9217">
        <ele>155.6</ele>
        <time>2021-07-10T10:43:55</time>
      </trkpt>
      <trkpt lat="44.75776" lon="4.92178">
        <ele>155.8</ele>
        <time>2021-07-10T10:43:56</time>
      </trkpt>
      <trkpt lat="44.75777" lon="4.92187">
        <ele>155.8</ele>
        <time>2021-07-10T10:43:57</time>
      </trkpt>
      <trkpt lat="44.75776" lon="4.92192">
        <ele>155.8</ele>
        <time>2021-07-10T10:43:58</time>
      </trkpt>
      <trkpt lat="44.75776" lon="4.922">
        <ele>155.8</ele>
        <time>2021-07-10T10:43:59</time>
      </trkpt>
      <trkpt lat="44.75775" lon="4.92208">
        <ele>156</ele>
        <time>2021-07-10T10:44:00</time>
      </trkpt>
      <trkpt lat="44.75776" lon="4.92215">
        <ele>156.2</ele>
        <time>2021-07-10T10:44:01</time>
      </trkpt>
      <trkpt lat="44.75775" lon="4.92223">
        <ele>156.2</ele>
        <time>2021-07-10T10:44:02</time>
      </trkpt>
      <trkpt lat="44.75776" lon="4.9223">
        <ele>156.2</ele>
        <time>2021-07-10T10:44:03</time>
      </trkpt>
      <trkpt lat="44.75776" lon="4.92237">
        <ele>156.4</ele>
        <time>2021-07-10T10:44:04</time>
      </trkpt>
      <trkpt lat="44.75776" lon="4.92244">
        <ele>156.4</ele>
        <time>2021-07-10T10:44:05</time>
      </trkpt>
      <trkpt lat="44.75777" lon="4.92251">
        <ele>156.4</ele>
        <time>2021-07-10T10:44:06</time>
      </trkpt>
      <trkpt lat="44.75778" lon="4.92259">
        <ele>156.4</ele>
        <time>2021-07-10T10:44:07</time>
      </trkpt>
      <trkpt lat="44.75778" lon="4.92267">
        <ele>156.4</ele>
        <time>2021-07-10T10:44:08</time>
      </trkpt>
      <trkpt lat="44.75778" lon="4.92275">
        <ele>156.4</ele>
        <time>2021-07-10T10:44:09</time>
      </trkpt>
      <trkpt lat="44.75778" lon="4.92282">
        <ele>156.2</ele>
        <time>2021-07-10T10:44:10</time>
      </trkpt>
      <trkpt lat="44.75778" lon="4.92289">
        <ele>154</ele>
        <time>2021-07-10T10:44:11</time>
      </trkpt>
      <trkpt lat="44.75778" lon="4.92298">
        <ele>154</ele>
        <time>2021-07-10T10:44:12</time>
      </trkpt>
      <trkpt lat="44.75778" lon="4.92306">
        <ele>154.6</ele>
        <time>2021-07-10T10:44:13</time>
      </trkpt>
      <trkpt lat="44.75777" lon="4.92313">
        <ele>155.4</ele>
        <time>2021-07-10T10:44:14</time>
      </trkpt>
      <trkpt lat="44.75778" lon="4.92336">
        <ele>158</ele>
        <time>2021-07-10T10:44:15</time>
      </trkpt>
      <trkpt lat="44.75778" lon="4.92336">
        <ele>158</ele>
        <time>2021-07-10T10:44:16</time>
      </trkpt>
      <trkpt lat="44.75778" lon="4.92336">
        <ele>157.8</ele>
        <time>2021-07-10T10:44:17</time>
      </trkpt>
      <trkpt lat="44.75778" lon="4.92342">
        <ele>157.8</ele>
        <time>2021-07-10T10:44:18</time>
      </trkpt>
      <trkpt lat="44.75778" lon="4.92349">
        <ele>157.6</ele>
        <time>2021-07-10T10:44:19</time>
      </trkpt>
      <trkpt lat="44.75777" lon="4.9237">
        <ele>157.6</ele>
        <time>2021-07-10T10:44:20</time>
      </trkpt>
      <trkpt lat="44.75777" lon="4.9237">
        <ele>157.4</ele>
        <time>2021-07-10T10:44:21</time>
      </trkpt>
      <trkpt lat="44.75777" lon="4.9237">
        <ele>157.2</ele>
        <time>2021-07-10T10:44:22</time>
      </trkpt>
      <trkpt lat="44.75776" lon="4.92377">
        <ele>157</ele>
        <time>2021-07-10T10:44:23</time>
      </trkpt>
      <trkpt lat="44.75775" lon="4.92386">
        <ele>157</ele>
        <time>2021-07-10T10:44:24</time>
      </trkpt>
      <trkpt lat="44.75773" lon="4.9241">
        <ele>157</ele>
        <time>2021-07-10T10:44:25</time>
      </trkpt>
      <trkpt lat="44.75773" lon="4.9241">
        <ele>157</ele>
        <time>2021-07-10T10:44:26</time>
      </trkpt>
      <trkpt lat="44.75773" lon="4.9241">
        <ele>157</ele>
        <time>2021-07-10T10:44:27</time>
      </trkpt>
      <trkpt lat="44.75773" lon="4.92418">
        <ele>157</ele>
        <time>2021-07-10T10:44:28</time>
      </trkpt>
      <trkpt lat="44.75772" lon="4.92426">
        <ele>157</ele>
        <time>2021-07-10T10:44:29</time>
      </trkpt>
      <trkpt lat="44.7577" lon="4.92449">
        <ele>157</ele>
        <time>2021-07-10T10:44:30</time>
      </trkpt>
      <trkpt lat="44.7577" lon="4.92449">
        <ele>157</ele>
        <time>2021-07-10T10:44:31</time>
      </trkpt>
      <trkpt lat="44.7577" lon="4.92449">
        <ele>157</ele>
        <time>2021-07-10T10:44:32</time>
      </trkpt>
      <trkpt lat="44.75769" lon="4.92456">
        <ele>157</ele>
        <time>2021-07-10T10:44:33</time>
      </trkpt>
      <trkpt lat="44.75767" lon="4.92464">
        <ele>157</ele>
        <time>2021-07-10T10:44:34</time>
      </trkpt>
      <trkpt lat="44.75766" lon="4.92484">
        <ele>157</ele>
        <time>2021-07-10T10:44:35</time>
      </trkpt>
      <trkpt lat="44.75766" lon="4.92484">
        <ele>157</ele>
        <time>2021-07-10T10:44:36</time>
      </trkpt>
      <trkpt lat="44.75766" lon="4.92484">
        <ele>157</ele>
        <time>2021-07-10T10:44:37</time>
      </trkpt>
      <trkpt lat="44.75765" lon="4.92491">
        <ele>157</ele>
        <time>2021-07-10T10:44:38</time>
      </trkpt>
      <trkpt lat="44.75766" lon="4.92497">
        <ele>157</ele>
        <time>2021-07-10T10:44:39</time>
      </trkpt>
      <trkpt lat="44.75768" lon="4.92511">
        <ele>157</ele>
        <time>2021-07-10T10:44:40</time>
      </trkpt>
      <trkpt lat="44.75768" lon="4.92511">
        <ele>157</ele>
        <time>2021-07-10T10:44:41</time>
      </trkpt>
      <trkpt lat="44.75768" lon="4.92511">
        <ele>157</ele>
        <time>2021-07-10T10:44:42</time>
      </trkpt>
      <trkpt lat="44.7577" lon="4.92522">
        <ele>157</ele>
        <time>2021-07-10T10:44:43</time>
      </trkpt>
      <trkpt lat="44.75773" lon="4.92528">
        <ele>157</ele>
        <time>2021-07-10T10:44:44</time>
      </trkpt>
      <trkpt lat="44.75782" lon="4.9254">
        <ele>157</ele>
        <time>2021-07-10T10:44:45</time>
      </trkpt>
      <trkpt lat="44.75782" lon="4.9254">
        <ele>157</ele>
        <time>2021-07-10T10:44:46</time>
      </trkpt>
      <trkpt lat="44.75782" lon="4.9254">
        <ele>156.8</ele>
        <time>2021-07-10T10:44:47</time>
      </trkpt>
      <trkpt lat="44.75785" lon="4.92544">
        <ele>156.8</ele>
        <time>2021-07-10T10:44:48</time>
      </trkpt>
      <trkpt lat="44.75785" lon="4.92549">
        <ele>156.8</ele>
        <time>2021-07-10T10:44:49</time>
      </trkpt>
      <trkpt lat="44.75782" lon="4.92563">
        <ele>156.8</ele>
        <time>2021-07-10T10:44:50</time>
      </trkpt>
      <trkpt lat="44.75782" lon="4.92563">
        <ele>156.8</ele>
        <time>2021-07-10T10:44:51</time>
      </trkpt>
      <trkpt lat="44.75782" lon="4.92563">
        <ele>156.8</ele>
        <time>2021-07-10T10:44:52</time>
      </trkpt>
      <trkpt lat="44.7578" lon="4.92567">
        <ele>157</ele>
        <time>2021-07-10T10:44:53</time>
      </trkpt>
      <trkpt lat="44.75779" lon="4.92572">
        <ele>157</ele>
        <time>2021-07-10T10:44:54</time>
      </trkpt>
      <trkpt lat="44.75776" lon="4.92585">
        <ele>157</ele>
        <time>2021-07-10T10:44:55</time>
      </trkpt>
      <trkpt lat="44.75776" lon="4.92585">
        <ele>157</ele>
        <time>2021-07-10T10:44:56</time>
      </trkpt>
      <trkpt lat="44.75776" lon="4.92585">
        <ele>157</ele>
        <time>2021-07-10T10:44:57</time>
      </trkpt>
      <trkpt lat="44.75775" lon="4.92589">
        <ele>157.2</ele>
        <time>2021-07-10T10:44:58</time>
      </trkpt>
      <trkpt lat="44.75773" lon="4.92591">
        <ele>157.2</ele>
        <time>2021-07-10T10:44:59</time>
      </trkpt>
      <trkpt lat="44.75771" lon="4.92594">
        <ele>157.2</ele>
        <time>2021-07-10T10:45:00</time>
      </trkpt>
      <trkpt lat="44.75771" lon="4.92594">
        <ele>157.4</ele>
        <time>2021-07-10T10:45:01</time>
      </trkpt>
      <trkpt lat="44.75771" lon="4.92594">
        <ele>157.4</ele>
        <time>2021-07-10T10:45:02</time>
      </trkpt>
      <trkpt lat="44.75771" lon="4.92599">
        <ele>157.4</ele>
        <time>2021-07-10T10:45:03</time>
      </trkpt>
      <trkpt lat="44.75772" lon="4.92599">
        <ele>157.2</ele>
        <time>2021-07-10T10:45:04</time>
      </trkpt>
      <trkpt lat="44.75771" lon="4.926">
        <ele>157.2</ele>
        <time>2021-07-10T10:45:05</time>
      </trkpt>
      <trkpt lat="44.75771" lon="4.926">
        <ele>157.4</ele>
        <time>2021-07-10T10:45:06</time>
      </trkpt>
      <trkpt lat="44.75771" lon="4.92599">
        <ele>154</ele>
        <time>2021-07-10T10:45:07</time>
      </trkpt>
      <trkpt lat="44.75771" lon="4.92599">
        <ele>152.4</ele>
        <time>2021-07-10T10:45:08</time>
      </trkpt>
    </trkseg>
  </trk>
</gpx>